<?xml version='1.0' encoding='UTF-8'?><gpx version="1.1" creator="JPX - https://github.com/jenetics/jpx" xmlns="http://www.topografix.com/GPX/1/1"><trk><trkseg><trkpt lat="35.87082067904928" lon="-5.520263799766409"><ele>49.0</ele><time>2026-04-28T08:10:24.999Z</time></trkpt><trkpt lat="35.87078548131064" lon="-5.520341822508023"><ele>49.0</ele><time>2026-04-28T08:10:27.999Z</time></trkpt><trkpt lat="35.87075579165002" lon="-5.520410896797069"><ele>49.0</ele><time>2026-04-28T08:10:29.999Z</time></trkpt><trkpt lat="35.870710413406236" lon="-5.520552526682775"><ele>49.0</ele><time>2026-04-28T08:10:31.999Z</time></trkpt><trkpt lat="35.87066743870277" lon="-5.520656702791333"><ele>49.0</ele><time>2026-04-28T08:10:32.999Z</time></trkpt><trkpt lat="35.87062680167806" lon="-5.520770388144157"><ele>47.6</ele><time>2026-04-28T08:10:33.999Z</time></trkpt><trkpt lat="35.87057649490469" lon="-5.520880566439896"><ele>46.2</ele><time>2026-04-28T08:10:34.999Z</time></trkpt><trkpt lat="35.87052030093981" lon="-5.520977378318999"><ele>44.800000000000004</ele><time>2026-04-28T08:10:35.999Z</time></trkpt><trkpt lat="35.870459054050315" lon="-5.521074260488008"><ele>43.400000000000006</ele><time>2026-04-28T08:10:36.999Z</time></trkpt><trkpt lat="35.87039995341798" lon="-5.5211710344544915"><ele>42.0</ele><time>2026-04-28T08:10:37.999Z</time></trkpt><trkpt lat="35.87033747855691" lon="-5.5212707934523015"><ele>42.0</ele><time>2026-04-28T08:10:38.999Z</time></trkpt><trkpt lat="35.870276585830766" lon="-5.521368304456047"><ele>42.0</ele><time>2026-04-28T08:10:39.999Z</time></trkpt><trkpt lat="35.87021872392485" lon="-5.5214633625705805"><ele>42.0</ele><time>2026-04-28T08:10:40.999Z</time></trkpt><trkpt lat="35.870164010949516" lon="-5.521551183433525"><ele>42.0</ele><time>2026-04-28T08:10:41.999Z</time></trkpt><trkpt lat="35.87010154503133" lon="-5.521639390093052"><ele>42.0</ele><time>2026-04-28T08:10:42.999Z</time></trkpt><trkpt lat="35.87003507501343" lon="-5.521724815800288"><ele>42.0</ele><time>2026-04-28T08:10:43.999Z</time></trkpt><trkpt lat="35.86996721841768" lon="-5.521816161542987"><ele>42.0</ele><time>2026-04-28T08:10:44.999Z</time></trkpt><trkpt lat="35.86989329095076" lon="-5.521909694684201"><ele>42.0</ele><time>2026-04-28T08:10:45.999Z</time></trkpt><trkpt lat="35.869814752054744" lon="-5.522000176081532"><ele>42.0</ele><time>2026-04-28T08:10:46.999Z</time></trkpt><trkpt lat="35.86974176387845" lon="-5.52208731311754"><ele>42.0</ele><time>2026-04-28T08:10:47.999Z</time></trkpt><trkpt lat="35.86967000764759" lon="-5.5221727307086965"><ele>39.2</ele><time>2026-04-28T08:10:48.999Z</time></trkpt><trkpt lat="35.86959704128966" lon="-5.522252044115593"><ele>36.400000000000006</ele><time>2026-04-28T08:10:49.999Z</time></trkpt><trkpt lat="35.869527400508446" lon="-5.5223310473715195"><ele>33.599999999999994</ele><time>2026-04-28T08:10:50.999Z</time></trkpt><trkpt lat="35.86947101743994" lon="-5.522427520282929"><ele>30.799999999999997</ele><time>2026-04-28T08:10:51.999Z</time></trkpt><trkpt lat="35.86941747350996" lon="-5.522518502519313"><ele>28.0</ele><time>2026-04-28T08:10:52.999Z</time></trkpt><trkpt lat="35.86937128548885" lon="-5.522614644398726"><ele>28.000000000000004</ele><time>2026-04-28T08:10:53.999Z</time></trkpt><trkpt lat="35.869331091215635" lon="-5.522713580861439"><ele>28.0</ele><time>2026-04-28T08:10:54.999Z</time></trkpt><trkpt lat="35.86928868574682" lon="-5.522807082088924"><ele>28.0</ele><time>2026-04-28T08:10:55.999Z</time></trkpt><trkpt lat="35.869246719725304" lon="-5.522893962724078"><ele>28.0</ele><time>2026-04-28T08:10:56.999Z</time></trkpt><trkpt lat="35.86920869981837" lon="-5.522979033526882"><ele>28.000000000000004</ele><time>2026-04-28T08:10:57.999Z</time></trkpt><trkpt lat="35.86917395083114" lon="-5.523062069397922"><ele>28.0</ele><time>2026-04-28T08:10:58.999Z</time></trkpt><trkpt lat="35.869139429382834" lon="-5.523140698764029"><ele>29.42857142857143</ele><time>2026-04-28T08:10:59.999Z</time></trkpt><trkpt lat="35.86910466462095" lon="-5.5232148930022"><ele>30.857142857142858</ele><time>2026-04-28T08:11:00.999Z</time></trkpt><trkpt lat="35.86907032527546" lon="-5.523287370985682"><ele>32.285714285714285</ele><time>2026-04-28T08:11:01.999Z</time></trkpt><trkpt lat="35.869042985883404" lon="-5.523358607631869"><ele>33.714285714285715</ele><time>2026-04-28T08:11:02.999Z</time></trkpt><trkpt lat="35.86901666906779" lon="-5.523431303174086"><ele>35.142857142857146</ele><time>2026-04-28T08:11:03.999Z</time></trkpt><trkpt lat="35.86898220476723" lon="-5.523501202105713"><ele>36.57142857142857</ele><time>2026-04-28T08:11:05.999Z</time></trkpt><trkpt lat="35.868942912853285" lon="-5.523588249118298"><ele>38.0</ele><time>2026-04-28T08:11:07.999Z</time></trkpt><trkpt lat="35.8689091268656" lon="-5.523664888997356"><ele>37.0</ele><time>2026-04-28T08:11:08.999Z</time></trkpt><trkpt lat="35.86887078248479" lon="-5.523744733107053"><ele>36.0</ele><time>2026-04-28T08:11:09.999Z</time></trkpt><trkpt lat="35.868828315004606" lon="-5.523827099708289"><ele>35.0</ele><time>2026-04-28T08:11:10.999Z</time></trkpt><trkpt lat="35.86878155461022" lon="-5.523897887018651"><ele>34.0</ele><time>2026-04-28T08:11:11.999Z</time></trkpt><trkpt lat="35.8687328897467" lon="-5.523961342624621"><ele>33.0</ele><time>2026-04-28T08:11:12.999Z</time></trkpt><trkpt lat="35.8686843602637" lon="-5.52401612370493"><ele>32.0</ele><time>2026-04-28T08:11:13.999Z</time></trkpt><trkpt lat="35.86860961353527" lon="-5.524127380685585"><ele>31.999999999999996</ele><time>2026-04-28T08:11:15.999Z</time></trkpt><trkpt lat="35.868526209466665" lon="-5.5241358203541315"><ele>32.0</ele><time>2026-04-28T08:11:16.999Z</time></trkpt><trkpt lat="35.868463666249625" lon="-5.524180135340709"><ele>32.0</ele><time>2026-04-28T08:11:17.999Z</time></trkpt><trkpt lat="35.86839797158213" lon="-5.524239534216421"><ele>32.0</ele><time>2026-04-28T08:11:18.999Z</time></trkpt><trkpt lat="35.86833367645461" lon="-5.524314042287732"><ele>31.999999999999996</ele><time>2026-04-28T08:11:19.999Z</time></trkpt><trkpt lat="35.86827617029104" lon="-5.524398069662575"><ele>32.0</ele><time>2026-04-28T08:11:20.999Z</time></trkpt><trkpt lat="35.868212525709446" lon="-5.524484551647458"><ele>35.25</ele><time>2026-04-28T08:11:21.999Z</time></trkpt><trkpt lat="35.868145626711176" lon="-5.524588367214356"><ele>38.5</ele><time>2026-04-28T08:11:22.999Z</time></trkpt><trkpt lat="35.868074447246265" lon="-5.5246993440391785"><ele>41.75</ele><time>2026-04-28T08:11:23.999Z</time></trkpt><trkpt lat="35.868008486642466" lon="-5.524815856322292"><ele>45.0</ele><time>2026-04-28T08:11:24.999Z</time></trkpt><trkpt lat="35.867944159496915" lon="-5.524934205340236"><ele>45.0</ele><time>2026-04-28T08:11:25.999Z</time></trkpt><trkpt lat="35.86787372836589" lon="-5.525055223637664"><ele>45.0</ele><time>2026-04-28T08:11:26.999Z</time></trkpt><trkpt lat="35.867799937828636" lon="-5.525175479225657"><ele>45.0</ele><time>2026-04-28T08:11:27.999Z</time></trkpt><trkpt lat="35.86771978130699" lon="-5.525294006108601"><ele>45.0</ele><time>2026-04-28T08:11:28.999Z</time></trkpt><trkpt lat="35.86764010956668" lon="-5.525416521998621"><ele>41.75</ele><time>2026-04-28T08:11:29.999Z</time></trkpt><trkpt lat="35.86756010104801" lon="-5.5255368354407866"><ele>38.5</ele><time>2026-04-28T08:11:30.999Z</time></trkpt><trkpt lat="35.86748508202784" lon="-5.52565711362332"><ele>35.25</ele><time>2026-04-28T08:11:31.999Z</time></trkpt><trkpt lat="35.86740178725082" lon="-5.525771803344775"><ele>32.0</ele><time>2026-04-28T08:11:32.999Z</time></trkpt><trkpt lat="35.86731308379549" lon="-5.525883014319164"><ele>32.0</ele><time>2026-04-28T08:11:33.999Z</time></trkpt><trkpt lat="35.8672267346493" lon="-5.5259901369815525"><ele>32.0</ele><time>2026-04-28T08:11:34.999Z</time></trkpt><trkpt lat="35.867145232389824" lon="-5.5260999840656835"><ele>32.0</ele><time>2026-04-28T08:11:35.999Z</time></trkpt><trkpt lat="35.86706042093228" lon="-5.5262004646317"><ele>32.0</ele><time>2026-04-28T08:11:36.999Z</time></trkpt><trkpt lat="35.86697215959429" lon="-5.526308574701634"><ele>29.25</ele><time>2026-04-28T08:11:37.999Z</time></trkpt><trkpt lat="35.86688499657783" lon="-5.526413494583235"><ele>26.5</ele><time>2026-04-28T08:11:38.999Z</time></trkpt><trkpt lat="35.86679677336642" lon="-5.526521431425165"><ele>23.75</ele><time>2026-04-28T08:11:39.999Z</time></trkpt><trkpt lat="35.86670266108463" lon="-5.526631129633473"><ele>21.0</ele><time>2026-04-28T08:11:40.999Z</time></trkpt><trkpt lat="35.86660706446998" lon="-5.526735172601217"><ele>19.75</ele><time>2026-04-28T08:11:41.999Z</time></trkpt><trkpt lat="35.86651163074943" lon="-5.5268321025290525"><ele>18.5</ele><time>2026-04-28T08:11:42.999Z</time></trkpt><trkpt lat="35.86640778053537" lon="-5.526925413439126"><ele>17.25</ele><time>2026-04-28T08:11:43.999Z</time></trkpt><trkpt lat="35.86630093062307" lon="-5.527020320169655"><ele>16.0</ele><time>2026-04-28T08:11:44.999Z</time></trkpt><trkpt lat="35.86619342916255" lon="-5.527114027112572"><ele>16.0</ele><time>2026-04-28T08:11:45.999Z</time></trkpt><trkpt lat="35.86608773326789" lon="-5.527202959019813"><ele>16.0</ele><time>2026-04-28T08:11:46.999Z</time></trkpt><trkpt lat="35.865977216593485" lon="-5.5272994051512345"><ele>16.0</ele><time>2026-04-28T08:11:47.999Z</time></trkpt><trkpt lat="35.865864273131486" lon="-5.52738942573189"><ele>16.0</ele><time>2026-04-28T08:11:48.999Z</time></trkpt><trkpt lat="35.86575314919694" lon="-5.527484920804617"><ele>18.25</ele><time>2026-04-28T08:11:49.999Z</time></trkpt><trkpt lat="35.86563889401916" lon="-5.527578303331856"><ele>20.5</ele><time>2026-04-28T08:11:50.999Z</time></trkpt><trkpt lat="35.8655248748352" lon="-5.52767167866027"><ele>22.75</ele><time>2026-04-28T08:11:51.999Z</time></trkpt><trkpt lat="35.865408592483455" lon="-5.5277650336993895"><ele>25.0</ele><time>2026-04-28T08:11:52.999Z</time></trkpt><trkpt lat="35.86529751674018" lon="-5.527854310132079"><ele>25.0</ele><time>2026-04-28T08:11:54Z</time></trkpt><trkpt lat="35.86518661211055" lon="-5.527946830559808"><ele>25.0</ele><time>2026-04-28T08:11:55Z</time></trkpt><trkpt lat="35.865070917940315" lon="-5.528041291119041"><ele>25.0</ele><time>2026-04-28T08:11:56Z</time></trkpt><trkpt lat="35.86495659552191" lon="-5.528133733038382"><ele>25.0</ele><time>2026-04-28T08:11:57Z</time></trkpt><trkpt lat="35.864836966703315" lon="-5.528223888631095"><ele>25.0</ele><time>2026-04-28T08:11:58Z</time></trkpt><trkpt lat="35.864714641843314" lon="-5.528319317312057"><ele>25.0</ele><time>2026-04-28T08:11:59Z</time></trkpt><trkpt lat="35.86459696756803" lon="-5.528418057952671"><ele>25.0</ele><time>2026-04-28T08:12:00Z</time></trkpt><trkpt lat="35.864482130966785" lon="-5.528511194941729"><ele>25.0</ele><time>2026-04-28T08:12:01Z</time></trkpt><trkpt lat="35.86436925802125" lon="-5.528604470850708"><ele>23.0</ele><time>2026-04-28T08:12:02Z</time></trkpt><trkpt lat="35.86425992826422" lon="-5.528692346482714"><ele>21.0</ele><time>2026-04-28T08:12:03Z</time></trkpt><trkpt lat="35.864154508469404" lon="-5.528780468795874"><ele>19.0</ele><time>2026-04-28T08:12:04Z</time></trkpt><trkpt lat="35.86405323461234" lon="-5.528866979241732"><ele>17.0</ele><time>2026-04-28T08:12:05Z</time></trkpt><trkpt lat="35.86395325505946" lon="-5.528952944970036"><ele>17.0</ele><time>2026-04-28T08:12:06Z</time></trkpt><trkpt lat="35.86385752825054" lon="-5.529038209488055"><ele>17.0</ele><time>2026-04-28T08:12:07Z</time></trkpt><trkpt lat="35.863759695087516" lon="-5.529115027130696"><ele>17.0</ele><time>2026-04-28T08:12:08Z</time></trkpt><trkpt lat="35.86366661901055" lon="-5.5291925504754715"><ele>17.0</ele><time>2026-04-28T08:12:09Z</time></trkpt><trkpt lat="35.863582899544795" lon="-5.529268665074315"><ele>17.0</ele><time>2026-04-28T08:12:10Z</time></trkpt><trkpt lat="35.86349418118425" lon="-5.529345321731875"><ele>17.0</ele><time>2026-04-28T08:12:11Z</time></trkpt><trkpt lat="35.86339815292381" lon="-5.529414791323481"><ele>17.0</ele><time>2026-04-28T08:12:12Z</time></trkpt><trkpt lat="35.86331031664078" lon="-5.529485242656024"><ele>17.0</ele><time>2026-04-28T08:12:13Z</time></trkpt><trkpt lat="35.86322711737264" lon="-5.529560046771364"><ele>17.0</ele><time>2026-04-28T08:12:14Z</time></trkpt><trkpt lat="35.863140175095246" lon="-5.5296339243562045"><ele>17.6</ele><time>2026-04-28T08:12:15Z</time></trkpt><trkpt lat="35.86306428045876" lon="-5.52971533000314"><ele>18.2</ele><time>2026-04-28T08:12:16Z</time></trkpt><trkpt lat="35.862979427276144" lon="-5.529793758594226"><ele>18.8</ele><time>2026-04-28T08:12:17Z</time></trkpt><trkpt lat="35.862882334782455" lon="-5.52987271643545"><ele>19.4</ele><time>2026-04-28T08:12:18Z</time></trkpt><trkpt lat="35.86278860547437" lon="-5.529952802776298"><ele>20.0</ele><time>2026-04-28T08:12:19Z</time></trkpt><trkpt lat="35.8626977293853" lon="-5.530031789337319"><ele>22.5</ele><time>2026-04-28T08:12:20Z</time></trkpt><trkpt lat="35.862601967461195" lon="-5.530113880951158"><ele>25.0</ele><time>2026-04-28T08:12:21Z</time></trkpt><trkpt lat="35.86250562450705" lon="-5.530197682341543"><ele>27.5</ele><time>2026-04-28T08:12:22Z</time></trkpt><trkpt lat="35.862406764084575" lon="-5.530280105113382"><ele>30.0</ele><time>2026-04-28T08:12:23Z</time></trkpt><trkpt lat="35.86230652463612" lon="-5.530365179246315"><ele>25.75</ele><time>2026-04-28T08:12:24Z</time></trkpt><trkpt lat="35.86220379094895" lon="-5.530448547661924"><ele>21.5</ele><time>2026-04-28T08:12:25Z</time></trkpt><trkpt lat="35.862101205255065" lon="-5.530535097943365"><ele>17.25</ele><time>2026-04-28T08:12:26Z</time></trkpt><trkpt lat="35.86199938409241" lon="-5.5306208635850265"><ele>13.0</ele><time>2026-04-28T08:12:27Z</time></trkpt><trkpt lat="35.86189598844186" lon="-5.530711216978251"><ele>13.0</ele><time>2026-04-28T08:12:28Z</time></trkpt><trkpt lat="35.86179726429055" lon="-5.530800601820635"><ele>13.0</ele><time>2026-04-28T08:12:29Z</time></trkpt><trkpt lat="35.86169386943055" lon="-5.5308875752964175"><ele>13.0</ele><time>2026-04-28T08:12:29.999Z</time></trkpt><trkpt lat="35.861586681468744" lon="-5.5309739794792625"><ele>13.0</ele><time>2026-04-28T08:12:30.999Z</time></trkpt><trkpt lat="35.86148591421662" lon="-5.5310604356928215"><ele>14.5</ele><time>2026-04-28T08:12:31.999Z</time></trkpt><trkpt lat="35.86138640894315" lon="-5.5311439820666"><ele>16.0</ele><time>2026-04-28T08:12:32.999Z</time></trkpt><trkpt lat="35.861284976629" lon="-5.531232421091248"><ele>17.5</ele><time>2026-04-28T08:12:33.999Z</time></trkpt><trkpt lat="35.861183528755085" lon="-5.5313178205605045"><ele>19.0</ele><time>2026-04-28T08:12:34.999Z</time></trkpt><trkpt lat="35.861084343016074" lon="-5.531405445169507"><ele>19.0</ele><time>2026-04-28T08:12:35.999Z</time></trkpt><trkpt lat="35.860988308843375" lon="-5.53149361678357"><ele>19.0</ele><time>2026-04-28T08:12:36.999Z</time></trkpt><trkpt lat="35.860887056834976" lon="-5.531577122792338"><ele>19.0</ele><time>2026-04-28T08:12:37.999Z</time></trkpt><trkpt lat="35.86078384828693" lon="-5.53166275382256"><ele>19.0</ele><time>2026-04-28T08:12:38.999Z</time></trkpt><trkpt lat="35.86068349740573" lon="-5.531746082872391"><ele>18.5</ele><time>2026-04-28T08:12:39.999Z</time></trkpt><trkpt lat="35.8605842294609" lon="-5.531834952591143"><ele>18.0</ele><time>2026-04-28T08:12:40.999Z</time></trkpt><trkpt lat="35.860482289893376" lon="-5.53192211055675"><ele>17.5</ele><time>2026-04-28T08:12:41.999Z</time></trkpt><trkpt lat="35.86037509953727" lon="-5.532010384822725"><ele>17.0</ele><time>2026-04-28T08:12:42.999Z</time></trkpt><trkpt lat="35.86026664148837" lon="-5.532099141152893"><ele>17.0</ele><time>2026-04-28T08:12:43.999Z</time></trkpt><trkpt lat="35.860156308184855" lon="-5.5321878800534625"><ele>17.0</ele><time>2026-04-28T08:12:44.999Z</time></trkpt><trkpt lat="35.8600452034821" lon="-5.5322806592662985"><ele>17.0</ele><time>2026-04-28T08:12:45.999Z</time></trkpt><trkpt lat="35.85993562142551" lon="-5.532372286966327"><ele>17.0</ele><time>2026-04-28T08:12:46.999Z</time></trkpt><trkpt lat="35.859830778053585" lon="-5.532463567174308"><ele>19.75</ele><time>2026-04-28T08:12:47.999Z</time></trkpt><trkpt lat="35.859731100243835" lon="-5.532551571051486"><ele>22.5</ele><time>2026-04-28T08:12:48.999Z</time></trkpt><trkpt lat="35.85963192022796" lon="-5.53263511848341"><ele>25.25</ele><time>2026-04-28T08:12:49.999Z</time></trkpt><trkpt lat="35.85953490367346" lon="-5.532714564047011"><ele>28.0</ele><time>2026-04-28T08:12:50.999Z</time></trkpt><trkpt lat="35.859442850432785" lon="-5.532792146804954"><ele>28.0</ele><time>2026-04-28T08:12:51.999Z</time></trkpt><trkpt lat="35.859354777616424" lon="-5.532867337687203"><ele>27.999999999999996</ele><time>2026-04-28T08:12:52.999Z</time></trkpt><trkpt lat="35.859268838237604" lon="-5.5329398294831265"><ele>27.999999999999996</ele><time>2026-04-28T08:12:53.999Z</time></trkpt><trkpt lat="35.85918549977631" lon="-5.533009187321335"><ele>28.0</ele><time>2026-04-28T08:12:54.999Z</time></trkpt><trkpt lat="35.859100864310655" lon="-5.533082290958474"><ele>28.0</ele><time>2026-04-28T08:12:55.999Z</time></trkpt><trkpt lat="35.85900964790411" lon="-5.533153737455539"><ele>27.5</ele><time>2026-04-28T08:12:56.999Z</time></trkpt><trkpt lat="35.85891201399016" lon="-5.533230451171955"><ele>27.0</ele><time>2026-04-28T08:12:57.999Z</time></trkpt><trkpt lat="35.85881178332081" lon="-5.533306437571327"><ele>26.5</ele><time>2026-04-28T08:12:58.999Z</time></trkpt><trkpt lat="35.858709397589664" lon="-5.53339022485181"><ele>26.0</ele><time>2026-04-28T08:12:59.999Z</time></trkpt><trkpt lat="35.85860719884158" lon="-5.533472272559604"><ele>26.0</ele><time>2026-04-28T08:13:00.999Z</time></trkpt><trkpt lat="35.858504345636206" lon="-5.5335573724094465"><ele>26.0</ele><time>2026-04-28T08:13:01.999Z</time></trkpt><trkpt lat="35.85840378400566" lon="-5.533640897139371"><ele>26.0</ele><time>2026-04-28T08:13:02.999Z</time></trkpt><trkpt lat="35.85830362788655" lon="-5.533726917932044"><ele>26.0</ele><time>2026-04-28T08:13:03.999Z</time></trkpt><trkpt lat="35.85820411741922" lon="-5.53381372134063"><ele>24.75</ele><time>2026-04-28T08:13:04.999Z</time></trkpt><trkpt lat="35.85810190387027" lon="-5.53389505701225"><ele>23.5</ele><time>2026-04-28T08:13:05.999Z</time></trkpt><trkpt lat="35.858001908677196" lon="-5.533974983237805"><ele>22.25</ele><time>2026-04-28T08:13:06.999Z</time></trkpt><trkpt lat="35.857904148876294" lon="-5.534060620262223"><ele>21.0</ele><time>2026-04-28T08:13:07.999Z</time></trkpt><trkpt lat="35.857809549584864" lon="-5.534143297058961"><ele>21.0</ele><time>2026-04-28T08:13:08.999Z</time></trkpt><trkpt lat="35.85771251942543" lon="-5.534213669645012"><ele>21.0</ele><time>2026-04-28T08:13:09.999Z</time></trkpt><trkpt lat="35.857611895561504" lon="-5.534274913993703"><ele>21.0</ele><time>2026-04-28T08:13:10.999Z</time></trkpt><trkpt lat="35.857508164024196" lon="-5.534323721169161"><ele>21.0</ele><time>2026-04-28T08:13:11.999Z</time></trkpt><trkpt lat="35.85740703311864" lon="-5.534372498647076"><ele>21.0</ele><time>2026-04-28T08:13:12.999Z</time></trkpt><trkpt lat="35.85730409999338" lon="-5.534412390803538"><ele>22.0</ele><time>2026-04-28T08:13:13.999Z</time></trkpt><trkpt lat="35.85719991043974" lon="-5.5344526394597775"><ele>23.0</ele><time>2026-04-28T08:13:14.999Z</time></trkpt><trkpt lat="35.85709813193341" lon="-5.534480437947938"><ele>24.0</ele><time>2026-04-28T08:13:15.999Z</time></trkpt><trkpt lat="35.85699772844446" lon="-5.53450416151547"><ele>25.0</ele><time>2026-04-28T08:13:16.999Z</time></trkpt><trkpt lat="35.856902043866064" lon="-5.534537947699134"><ele>26.0</ele><time>2026-04-28T08:13:17.999Z</time></trkpt><trkpt lat="35.85681541811872" lon="-5.534584943985178"><ele>24.8</ele><time>2026-04-28T08:13:18.999Z</time></trkpt><trkpt lat="35.856731062786004" lon="-5.534648011001012"><ele>23.6</ele><time>2026-04-28T08:13:19.999Z</time></trkpt><trkpt lat="35.85664145742597" lon="-5.534710831911522"><ele>22.4</ele><time>2026-04-28T08:13:20.999Z</time></trkpt><trkpt lat="35.85654551825107" lon="-5.534768058661784"><ele>21.2</ele><time>2026-04-28T08:13:21.999Z</time></trkpt><trkpt lat="35.85644273084079" lon="-5.534796479335649"><ele>20.0</ele><time>2026-04-28T08:13:22.999Z</time></trkpt><trkpt lat="35.85633286801098" lon="-5.534808749478324"><ele>20.0</ele><time>2026-04-28T08:13:23.999Z</time></trkpt><trkpt lat="35.856223995334695" lon="-5.534823424651691"><ele>20.0</ele><time>2026-04-28T08:13:24.999Z</time></trkpt><trkpt lat="35.85610930088965" lon="-5.53488484089061"><ele>20.0</ele><time>2026-04-28T08:13:25.999Z</time></trkpt><trkpt lat="35.856000139941614" lon="-5.534976865476322"><ele>20.0</ele><time>2026-04-28T08:13:26.999Z</time></trkpt><trkpt lat="35.85588540012426" lon="-5.535080662610143"><ele>21.0</ele><time>2026-04-28T08:13:27.999Z</time></trkpt><trkpt lat="35.85576301777516" lon="-5.535177256317884"><ele>22.0</ele><time>2026-04-28T08:13:28.999Z</time></trkpt><trkpt lat="35.855641063122086" lon="-5.535280335560455"><ele>23.0</ele><time>2026-04-28T08:13:29.999Z</time></trkpt><trkpt lat="35.855516626255465" lon="-5.535389938726921"><ele>24.0</ele><time>2026-04-28T08:13:30.999Z</time></trkpt><trkpt lat="35.85538508767959" lon="-5.535488147233263"><ele>24.0</ele><time>2026-04-28T08:13:31.999Z</time></trkpt><trkpt lat="35.85525512740755" lon="-5.535590118919643"><ele>24.0</ele><time>2026-04-28T08:13:32.999Z</time></trkpt><trkpt lat="35.85512768319425" lon="-5.535688128647552"><ele>24.0</ele><time>2026-04-28T08:13:33.999Z</time></trkpt><trkpt lat="35.85499922035679" lon="-5.535785250224694"><ele>26.333333333333336</ele><time>2026-04-28T08:13:34.999Z</time></trkpt><trkpt lat="35.85487005628755" lon="-5.535883607939319"><ele>28.666666666666668</ele><time>2026-04-28T08:13:35.999Z</time></trkpt><trkpt lat="35.85474310926628" lon="-5.535982630717821"><ele>31.0</ele><time>2026-04-28T08:13:36.999Z</time></trkpt><trkpt lat="35.85461796233674" lon="-5.536085949213421"><ele>31.0</ele><time>2026-04-28T08:13:37.999Z</time></trkpt><trkpt lat="35.85449338049958" lon="-5.536191093745633"><ele>31.0</ele><time>2026-04-28T08:13:38.999Z</time></trkpt><trkpt lat="35.85437131118085" lon="-5.536297097037509"><ele>31.0</ele><time>2026-04-28T08:13:39.999Z</time></trkpt><trkpt lat="35.854250396437145" lon="-5.536406928270683"><ele>31.0</ele><time>2026-04-28T08:13:40.999Z</time></trkpt><trkpt lat="35.8541363078742" lon="-5.536522919849885"><ele>31.0</ele><time>2026-04-28T08:13:41.999Z</time></trkpt><trkpt lat="35.85402382909246" lon="-5.536649358515705"><ele>31.0</ele><time>2026-04-28T08:13:42.999Z</time></trkpt><trkpt lat="35.85390240123001" lon="-5.53676954766593"><ele>31.0</ele><time>2026-04-28T08:13:43.999Z</time></trkpt><trkpt lat="35.85377160235318" lon="-5.536884408257117"><ele>31.0</ele><time>2026-04-28T08:13:44.999Z</time></trkpt><trkpt lat="35.85364186752626" lon="-5.537001999696597"><ele>31.0</ele><time>2026-04-28T08:13:45.999Z</time></trkpt><trkpt lat="35.85351100729335" lon="-5.537125827609965"><ele>28.0</ele><time>2026-04-28T08:13:46.999Z</time></trkpt><trkpt lat="35.85337836254551" lon="-5.537245724976357"><ele>25.0</ele><time>2026-04-28T08:13:47.999Z</time></trkpt><trkpt lat="35.8532440046209" lon="-5.537372285281283"><ele>22.0</ele><time>2026-04-28T08:13:48.999Z</time></trkpt><trkpt lat="35.853107550605486" lon="-5.537496257124492"><ele>22.0</ele><time>2026-04-28T08:13:49.999Z</time></trkpt><trkpt lat="35.85297463690522" lon="-5.537628433311965"><ele>22.0</ele><time>2026-04-28T08:13:50.999Z</time></trkpt><trkpt lat="35.85284201034298" lon="-5.537761370815424"><ele>22.0</ele><time>2026-04-28T08:13:51.999Z</time></trkpt><trkpt lat="35.85270925685394" lon="-5.537894135381079"><ele>17.0</ele><time>2026-04-28T08:13:52.999Z</time></trkpt><trkpt lat="35.85257237257962" lon="-5.53802187903712"><ele>12.0</ele><time>2026-04-28T08:13:53.999Z</time></trkpt><trkpt lat="35.8524349771714" lon="-5.538148032829229"><ele>7.0</ele><time>2026-04-28T08:13:54.999Z</time></trkpt><trkpt lat="35.852301290480575" lon="-5.538273222907439"><ele>7.0</ele><time>2026-04-28T08:13:55.999Z</time></trkpt><trkpt lat="35.85216871245088" lon="-5.53839915583186"><ele>7.0</ele><time>2026-04-28T08:13:56.999Z</time></trkpt><trkpt lat="35.852036475642144" lon="-5.538524783504991"><ele>7.0</ele><time>2026-04-28T08:13:57.999Z</time></trkpt><trkpt lat="35.85190669040454" lon="-5.538649644233101"><ele>6.333333333333334</ele><time>2026-04-28T08:13:58.999Z</time></trkpt><trkpt lat="35.851779750385944" lon="-5.538777384358834"><ele>5.666666666666667</ele><time>2026-04-28T08:13:59.999Z</time></trkpt><trkpt lat="35.85165531217656" lon="-5.538912200074581"><ele>5.0</ele><time>2026-04-28T08:14:00.999Z</time></trkpt><trkpt lat="35.851520152425834" lon="-5.539022636735083"><ele>5.0</ele><time>2026-04-28T08:14:01.999Z</time></trkpt><trkpt lat="35.85139405914001" lon="-5.539140927855018"><ele>5.0</ele><time>2026-04-28T08:14:02.999Z</time></trkpt><trkpt lat="35.85126772874396" lon="-5.539263157425929"><ele>5.0</ele><time>2026-04-28T08:14:04Z</time></trkpt><trkpt lat="35.851143298101135" lon="-5.539381092636386"><ele>5.0</ele><time>2026-04-28T08:14:05Z</time></trkpt><trkpt lat="35.85102072300379" lon="-5.539499821282481"><ele>5.0</ele><time>2026-04-28T08:14:06Z</time></trkpt><trkpt lat="35.850898628738896" lon="-5.539615537824757"><ele>5.0</ele><time>2026-04-28T08:14:07Z</time></trkpt><trkpt lat="35.85077786324329" lon="-5.539736476046646"><ele>11.666666666666668</ele><time>2026-04-28T08:14:08Z</time></trkpt><trkpt lat="35.85065726630503" lon="-5.539850818539215"><ele>18.333333333333336</ele><time>2026-04-28T08:14:09Z</time></trkpt><trkpt lat="35.85054044668493" lon="-5.539964018985075"><ele>25.0</ele><time>2026-04-28T08:14:10Z</time></trkpt><trkpt lat="35.8504152995324" lon="-5.540075483652607"><ele>25.0</ele><time>2026-04-28T08:14:11Z</time></trkpt><trkpt lat="35.850297053699734" lon="-5.540194285639727"><ele>25.0</ele><time>2026-04-28T08:14:12Z</time></trkpt><trkpt lat="35.85017496847218" lon="-5.540313868651003"><ele>25.0</ele><time>2026-04-28T08:14:13Z</time></trkpt><trkpt lat="35.85005014665287" lon="-5.540434695899096"><ele>32.333333333333336</ele><time>2026-04-28T08:14:14Z</time></trkpt><trkpt lat="35.84992287632387" lon="-5.540558024559017"><ele>39.666666666666664</ele><time>2026-04-28T08:14:15Z</time></trkpt><trkpt lat="35.84979314796907" lon="-5.540685953023062"><ele>47.0</ele><time>2026-04-28T08:14:16Z</time></trkpt><trkpt lat="35.84966336462498" lon="-5.54081201503165"><ele>47.0</ele><time>2026-04-28T08:14:17Z</time></trkpt><trkpt lat="35.8495363146335" lon="-5.540939024650956"><ele>47.0</ele><time>2026-04-28T08:14:18Z</time></trkpt><trkpt lat="35.84939936503648" lon="-5.5410660297378875"><ele>47.0</ele><time>2026-04-28T08:14:19Z</time></trkpt><trkpt lat="35.849259049399194" lon="-5.541189063340803"><ele>53.0</ele><time>2026-04-28T08:14:20Z</time></trkpt><trkpt lat="35.84912055857674" lon="-5.541319215094963"><ele>59.0</ele><time>2026-04-28T08:14:21Z</time></trkpt><trkpt lat="35.848982165441036" lon="-5.541451296891502"><ele>65.0</ele><time>2026-04-28T08:14:22Z</time></trkpt><trkpt lat="35.84883837044912" lon="-5.5415859357168795"><ele>65.0</ele><time>2026-04-28T08:14:23Z</time></trkpt><trkpt lat="35.8486853440032" lon="-5.541721144522425"><ele>65.0</ele><time>2026-04-28T08:14:24Z</time></trkpt><trkpt lat="35.84853354060359" lon="-5.5418516761394905"><ele>65.0</ele><time>2026-04-28T08:14:25Z</time></trkpt><trkpt lat="35.84838489642233" lon="-5.541990150799776"><ele>70.66666666666667</ele><time>2026-04-28T08:14:25.999Z</time></trkpt><trkpt lat="35.84824077034164" lon="-5.542127163898901"><ele>76.33333333333333</ele><time>2026-04-28T08:14:26.999Z</time></trkpt><trkpt lat="35.84809468687042" lon="-5.542260599645757"><ele>82.0</ele><time>2026-04-28T08:14:27.999Z</time></trkpt><trkpt lat="35.847950650529185" lon="-5.542397890097983"><ele>82.0</ele><time>2026-04-28T08:14:28.999Z</time></trkpt><trkpt lat="35.84781797136401" lon="-5.542546451765633"><ele>82.0</ele><time>2026-04-28T08:14:29.999Z</time></trkpt><trkpt lat="35.847686388090075" lon="-5.542697691189331"><ele>82.0</ele><time>2026-04-28T08:14:30.999Z</time></trkpt><trkpt lat="35.84755538238418" lon="-5.542841684564087"><ele>74.33333333333333</ele><time>2026-04-28T08:14:31.999Z</time></trkpt><trkpt lat="35.84741092955427" lon="-5.54297610922881"><ele>66.66666666666667</ele><time>2026-04-28T08:14:32.999Z</time></trkpt><trkpt lat="35.847266495371755" lon="-5.543107748513101"><ele>59.0</ele><time>2026-04-28T08:14:33.999Z</time></trkpt><trkpt lat="35.847123239207654" lon="-5.5432431559123225"><ele>59.0</ele><time>2026-04-28T08:14:34.999Z</time></trkpt><trkpt lat="35.8469923198183" lon="-5.543380260786021"><ele>59.0</ele><time>2026-04-28T08:14:35.999Z</time></trkpt><trkpt lat="35.84685403220397" lon="-5.54351527735789"><ele>59.0</ele><time>2026-04-28T08:14:36.999Z</time></trkpt><trkpt lat="35.846714320833925" lon="-5.543649243041358"><ele>53.0</ele><time>2026-04-28T08:14:37.999Z</time></trkpt><trkpt lat="35.8465757239986" lon="-5.5437812708364635"><ele>47.0</ele><time>2026-04-28T08:14:38.999Z</time></trkpt><trkpt lat="35.846437185900115" lon="-5.543915630134052"><ele>41.0</ele><time>2026-04-28T08:14:39.999Z</time></trkpt><trkpt lat="35.84630745793336" lon="-5.544057483049679"><ele>41.0</ele><time>2026-04-28T08:14:40.999Z</time></trkpt><trkpt lat="35.84618430469734" lon="-5.544201830698812"><ele>41.0</ele><time>2026-04-28T08:14:41.999Z</time></trkpt><trkpt lat="35.84605368353929" lon="-5.544346866864481"><ele>41.0</ele><time>2026-04-28T08:14:42.999Z</time></trkpt><trkpt lat="35.84592536557584" lon="-5.544494000945583"><ele>47.666666666666664</ele><time>2026-04-28T08:14:43.999Z</time></trkpt><trkpt lat="35.845804866338796" lon="-5.544645359486576"><ele>54.33333333333333</ele><time>2026-04-28T08:14:44.999Z</time></trkpt><trkpt lat="35.84568328235956" lon="-5.544796353084477"><ele>61.0</ele><time>2026-04-28T08:14:45.999Z</time></trkpt><trkpt lat="35.84555673377455" lon="-5.544947150953375"><ele>61.0</ele><time>2026-04-28T08:14:46.999Z</time></trkpt><trkpt lat="35.845427890732076" lon="-5.545103267685206"><ele>61.0</ele><time>2026-04-28T08:14:47.999Z</time></trkpt><trkpt lat="35.845310135871095" lon="-5.5452587499415955"><ele>61.0</ele><time>2026-04-28T08:14:48.999Z</time></trkpt><trkpt lat="35.84518921391579" lon="-5.5454220115156785"><ele>68.66666666666666</ele><time>2026-04-28T08:14:49.999Z</time></trkpt><trkpt lat="35.845066609147224" lon="-5.545586255217403"><ele>76.33333333333333</ele><time>2026-04-28T08:14:50.999Z</time></trkpt><trkpt lat="35.84494598507501" lon="-5.5457544662961"><ele>84.0</ele><time>2026-04-28T08:14:51.999Z</time></trkpt><trkpt lat="35.8448252493968" lon="-5.545925705645303"><ele>84.0</ele><time>2026-04-28T08:14:52.999Z</time></trkpt><trkpt lat="35.84470614817121" lon="-5.546096550015499"><ele>84.0</ele><time>2026-04-28T08:14:53.999Z</time></trkpt><trkpt lat="35.84458770317616" lon="-5.546273859585475"><ele>84.0</ele><time>2026-04-28T08:14:54.999Z</time></trkpt><trkpt lat="35.84447734587187" lon="-5.546453737125037"><ele>86.0</ele><time>2026-04-28T08:14:55.999Z</time></trkpt><trkpt lat="35.84436895636786" lon="-5.5466352770135385"><ele>88.0</ele><time>2026-04-28T08:14:56.999Z</time></trkpt><trkpt lat="35.84425677331623" lon="-5.54682115215313"><ele>90.0</ele><time>2026-04-28T08:14:57.999Z</time></trkpt><trkpt lat="35.84414086674345" lon="-5.547002280130279"><ele>84.33333333333333</ele><time>2026-04-28T08:14:58.999Z</time></trkpt><trkpt lat="35.844025975307076" lon="-5.547183957866427"><ele>78.66666666666666</ele><time>2026-04-28T08:14:59.999Z</time></trkpt><trkpt lat="35.8439140503755" lon="-5.547367385674833"><ele>73.0</ele><time>2026-04-28T08:15:00.999Z</time></trkpt><trkpt lat="35.84380122894807" lon="-5.547551465263552"><ele>73.0</ele><time>2026-04-28T08:15:01.999Z</time></trkpt><trkpt lat="35.843689852702724" lon="-5.5477325569916385"><ele>73.0</ele><time>2026-04-28T08:15:02.999Z</time></trkpt><trkpt lat="35.84357439967327" lon="-5.547916467687585"><ele>73.0</ele><time>2026-04-28T08:15:03.999Z</time></trkpt><trkpt lat="35.84345969059162" lon="-5.548099881183949"><ele>73.66666666666666</ele><time>2026-04-28T08:15:04.999Z</time></trkpt><trkpt lat="35.84334494214144" lon="-5.548280265007045"><ele>74.33333333333333</ele><time>2026-04-28T08:15:05.999Z</time></trkpt><trkpt lat="35.84322753548904" lon="-5.548462623948871"><ele>75.0</ele><time>2026-04-28T08:15:06.999Z</time></trkpt><trkpt lat="35.84311233034494" lon="-5.548640707003972"><ele>71.0</ele><time>2026-04-28T08:15:07.999Z</time></trkpt><trkpt lat="35.84299646779015" lon="-5.548825469809068"><ele>67.0</ele><time>2026-04-28T08:15:08.999Z</time></trkpt><trkpt lat="35.842886317926634" lon="-5.549006812440849"><ele>63.0</ele><time>2026-04-28T08:15:09.999Z</time></trkpt><trkpt lat="35.84277480806277" lon="-5.549194587506285"><ele>63.0</ele><time>2026-04-28T08:15:10.999Z</time></trkpt><trkpt lat="35.84266063408104" lon="-5.549377073378528"><ele>63.0</ele><time>2026-04-28T08:15:11.999Z</time></trkpt><trkpt lat="35.842544352718186" lon="-5.549562898290688"><ele>63.0</ele><time>2026-04-28T08:15:12.999Z</time></trkpt><trkpt lat="35.84243034847614" lon="-5.549748751746071"><ele>63.66666666666667</ele><time>2026-04-28T08:15:13.999Z</time></trkpt><trkpt lat="35.842313593304546" lon="-5.549935315000411"><ele>64.33333333333334</ele><time>2026-04-28T08:15:14.999Z</time></trkpt><trkpt lat="35.84220188756541" lon="-5.550121980410355"><ele>65.0</ele><time>2026-04-28T08:15:15.999Z</time></trkpt><trkpt lat="35.84208765433034" lon="-5.550313583102003"><ele>64.33333333333334</ele><time>2026-04-28T08:15:16.999Z</time></trkpt><trkpt lat="35.84196876083385" lon="-5.550502526275677"><ele>63.66666666666667</ele><time>2026-04-28T08:15:17.999Z</time></trkpt><trkpt lat="35.84184889021237" lon="-5.550691673826085"><ele>63.0</ele><time>2026-04-28T08:15:18.999Z</time></trkpt><trkpt lat="35.8417319517665" lon="-5.550882793422293"><ele>63.0</ele><time>2026-04-28T08:15:19.999Z</time></trkpt><trkpt lat="35.84161288166702" lon="-5.551074752508116"><ele>63.0</ele><time>2026-04-28T08:15:20.999Z</time></trkpt><trkpt lat="35.841491900603735" lon="-5.551265159974454"><ele>63.0</ele><time>2026-04-28T08:15:21.999Z</time></trkpt><trkpt lat="35.841370677755855" lon="-5.55145609619919"><ele>60.0</ele><time>2026-04-28T08:15:22.999Z</time></trkpt><trkpt lat="35.84125131307631" lon="-5.5516480920858156"><ele>57.0</ele><time>2026-04-28T08:15:23.999Z</time></trkpt><trkpt lat="35.84113114257685" lon="-5.551840218352613"><ele>54.0</ele><time>2026-04-28T08:15:24.999Z</time></trkpt><trkpt lat="35.841014171808325" lon="-5.552031028878736"><ele>54.66666666666667</ele><time>2026-04-28T08:15:25.999Z</time></trkpt><trkpt lat="35.84089661847945" lon="-5.552223030861916"><ele>55.333333333333336</ele><time>2026-04-28T08:15:26.999Z</time></trkpt><trkpt lat="35.84077745985201" lon="-5.5524125313985575"><ele>56.0</ele><time>2026-04-28T08:15:27.999Z</time></trkpt><trkpt lat="35.8406591692841" lon="-5.55260154565782"><ele>56.0</ele><time>2026-04-28T08:15:28.999Z</time></trkpt><trkpt lat="35.840541847164744" lon="-5.552789846774914"><ele>56.0</ele><time>2026-04-28T08:15:29.999Z</time></trkpt><trkpt lat="35.84042433826483" lon="-5.5529778424617655"><ele>56.0</ele><time>2026-04-28T08:15:30.999Z</time></trkpt><trkpt lat="35.84030482756587" lon="-5.553164370180187"><ele>54.0</ele><time>2026-04-28T08:15:31.999Z</time></trkpt><trkpt lat="35.84018691548102" lon="-5.553351680202267"><ele>52.0</ele><time>2026-04-28T08:15:32.999Z</time></trkpt><trkpt lat="35.84006843185913" lon="-5.5535392833767245"><ele>50.0</ele><time>2026-04-28T08:15:33.999Z</time></trkpt><trkpt lat="35.83995073503672" lon="-5.553734269335574"><ele>45.333333333333336</ele><time>2026-04-28T08:15:34.999Z</time></trkpt><trkpt lat="35.83983260807995" lon="-5.5539205745960505"><ele>40.66666666666667</ele><time>2026-04-28T08:15:35.999Z</time></trkpt><trkpt lat="35.83970901128117" lon="-5.554103040560059"><ele>36.0</ele><time>2026-04-28T08:15:36.999Z</time></trkpt><trkpt lat="35.839587142345906" lon="-5.554284673768098"><ele>36.0</ele><time>2026-04-28T08:15:37.999Z</time></trkpt><trkpt lat="35.83945837184961" lon="-5.5544623346896875"><ele>36.0</ele><time>2026-04-28T08:15:38.999Z</time></trkpt><trkpt lat="35.83933459975558" lon="-5.554640439423581"><ele>36.0</ele><time>2026-04-28T08:15:39.999Z</time></trkpt><trkpt lat="35.83920482220835" lon="-5.5548087895910845"><ele>33.333333333333336</ele><time>2026-04-28T08:15:40.999Z</time></trkpt><trkpt lat="35.83907542842025" lon="-5.554976526957843"><ele>30.666666666666668</ele><time>2026-04-28T08:15:41.999Z</time></trkpt><trkpt lat="35.83894279004119" lon="-5.555143568228774"><ele>28.0</ele><time>2026-04-28T08:15:42.999Z</time></trkpt><trkpt lat="35.83880830230745" lon="-5.5553034026707255"><ele>27.666666666666668</ele><time>2026-04-28T08:15:43.999Z</time></trkpt><trkpt lat="35.83867302184823" lon="-5.555458318134236"><ele>27.333333333333336</ele><time>2026-04-28T08:15:44.999Z</time></trkpt><trkpt lat="35.83853611236216" lon="-5.555612001994365"><ele>27.0</ele><time>2026-04-28T08:15:45.999Z</time></trkpt><trkpt lat="35.838398794108635" lon="-5.555762490514305"><ele>27.0</ele><time>2026-04-28T08:15:46.999Z</time></trkpt><trkpt lat="35.83825824665194" lon="-5.555910307693853"><ele>27.0</ele><time>2026-04-28T08:15:47.999Z</time></trkpt><trkpt lat="35.838111852171224" lon="-5.556054713646969"><ele>27.0</ele><time>2026-04-28T08:15:48.999Z</time></trkpt><trkpt lat="35.83796477498194" lon="-5.55619717545536"><ele>21.0</ele><time>2026-04-28T08:15:49.999Z</time></trkpt><trkpt lat="35.837819170981994" lon="-5.55633886481371"><ele>15.0</ele><time>2026-04-28T08:15:50.999Z</time></trkpt><trkpt lat="35.837671575567846" lon="-5.556475539153722"><ele>9.0</ele><time>2026-04-28T08:15:51.999Z</time></trkpt><trkpt lat="35.8375223094675" lon="-5.556607425625634"><ele>8.666666666666666</ele><time>2026-04-28T08:15:52.999Z</time></trkpt><trkpt lat="35.837372764820344" lon="-5.5567341042688785"><ele>8.333333333333332</ele><time>2026-04-28T08:15:53.999Z</time></trkpt><trkpt lat="35.83721815315846" lon="-5.55685632448878"><ele>8.0</ele><time>2026-04-28T08:15:54.999Z</time></trkpt><trkpt lat="35.837068052275065" lon="-5.55697388957951"><ele>6.666666666666666</ele><time>2026-04-28T08:15:55.999Z</time></trkpt><trkpt lat="35.83691857820101" lon="-5.557086701075089"><ele>5.333333333333333</ele><time>2026-04-28T08:15:56.999Z</time></trkpt><trkpt lat="35.836772326048894" lon="-5.557194312788288"><ele>4.0</ele><time>2026-04-28T08:15:57.999Z</time></trkpt><trkpt lat="35.83662493031132" lon="-5.557296806862848"><ele>4.0</ele><time>2026-04-28T08:15:58.999Z</time></trkpt><trkpt lat="35.836475809515356" lon="-5.557397102199936"><ele>4.0</ele><time>2026-04-28T08:15:59.999Z</time></trkpt><trkpt lat="35.836325425127924" lon="-5.557495148064153"><ele>4.0</ele><time>2026-04-28T08:16:00.999Z</time></trkpt><trkpt lat="35.83617452652696" lon="-5.557591880411511"><ele>4.0</ele><time>2026-04-28T08:16:01.999Z</time></trkpt><trkpt lat="35.83601504782579" lon="-5.557680837165857"><ele>4.0</ele><time>2026-04-28T08:16:02.999Z</time></trkpt><trkpt lat="35.835853404701744" lon="-5.557774150990166"><ele>4.0</ele><time>2026-04-28T08:16:03.999Z</time></trkpt><trkpt lat="35.8356914126198" lon="-5.557867363047994"><ele>3.0</ele><time>2026-04-28T08:16:04.999Z</time></trkpt><trkpt lat="35.83552276464608" lon="-5.557964733552426"><ele>2.0</ele><time>2026-04-28T08:16:06Z</time></trkpt><trkpt lat="35.83535302069788" lon="-5.558057743287677"><ele>1.0</ele><time>2026-04-28T08:16:07Z</time></trkpt><trkpt lat="35.835182868393936" lon="-5.558146352179566"><ele>2.3333333333333335</ele><time>2026-04-28T08:16:08Z</time></trkpt><trkpt lat="35.83500841851879" lon="-5.5582295353612725"><ele>3.666666666666667</ele><time>2026-04-28T08:16:09Z</time></trkpt><trkpt lat="35.834833401538184" lon="-5.558314258828744"><ele>5.0</ele><time>2026-04-28T08:16:10Z</time></trkpt><trkpt lat="35.83466147004964" lon="-5.558392201090131"><ele>5.0</ele><time>2026-04-28T08:16:11Z</time></trkpt><trkpt lat="35.834491354923074" lon="-5.558461299915729"><ele>5.0</ele><time>2026-04-28T08:16:12Z</time></trkpt><trkpt lat="35.83432343050785" lon="-5.55853171595523"><ele>5.0</ele><time>2026-04-28T08:16:13Z</time></trkpt><trkpt lat="35.8341602646407" lon="-5.558597072050101"><ele>5.333333333333334</ele><time>2026-04-28T08:16:14Z</time></trkpt><trkpt lat="35.83399821950666" lon="-5.5586602258143305"><ele>5.666666666666667</ele><time>2026-04-28T08:16:15Z</time></trkpt><trkpt lat="35.83384127476011" lon="-5.558722756469351"><ele>6.0</ele><time>2026-04-28T08:16:16Z</time></trkpt><trkpt lat="35.83368152018384" lon="-5.558791230773298"><ele>5.333333333333333</ele><time>2026-04-28T08:16:17Z</time></trkpt><trkpt lat="35.83353613995904" lon="-5.558873333779444"><ele>4.666666666666666</ele><time>2026-04-28T08:16:18Z</time></trkpt><trkpt lat="35.833396949350785" lon="-5.558984866837807"><ele>4.0</ele><time>2026-04-28T08:16:19Z</time></trkpt><trkpt lat="35.833270786380524" lon="-5.5591153599163095"><ele>3.6666666666666665</ele><time>2026-04-28T08:16:20Z</time></trkpt><trkpt lat="35.83315870805071" lon="-5.559276337788632"><ele>3.333333333333333</ele><time>2026-04-28T08:16:21Z</time></trkpt><trkpt lat="35.83306239859165" lon="-5.559455670159326"><ele>3.0</ele><time>2026-04-28T08:16:22Z</time></trkpt><trkpt lat="35.83298835186742" lon="-5.559654124047934"><ele>3.0</ele><time>2026-04-28T08:16:23Z</time></trkpt><trkpt lat="35.83292248803006" lon="-5.559850605438198"><ele>3.0</ele><time>2026-04-28T08:16:24Z</time></trkpt><trkpt lat="35.83285100613528" lon="-5.560032899291482"><ele>3.0</ele><time>2026-04-28T08:16:25Z</time></trkpt><trkpt lat="35.832767450356634" lon="-5.560193215235062"><ele>3.0</ele><time>2026-04-28T08:16:26Z</time></trkpt><trkpt lat="35.832665448811454" lon="-5.560323040229207"><ele>3.0</ele><time>2026-04-28T08:16:27Z</time></trkpt><trkpt lat="35.83255218675315" lon="-5.560425483881324"><ele>3.0</ele><time>2026-04-28T08:16:28Z</time></trkpt><trkpt lat="35.83242075884604" lon="-5.560479528775529"><ele>3.0</ele><time>2026-04-28T08:16:29Z</time></trkpt><trkpt lat="35.83228348748915" lon="-5.560502951365927"><ele>2.75</ele><time>2026-04-28T08:16:30Z</time></trkpt><trkpt lat="35.83214816953078" lon="-5.560476225238095"><ele>2.5</ele><time>2026-04-28T08:16:31Z</time></trkpt><trkpt lat="35.832018537406675" lon="-5.560417150492601"><ele>2.25</ele><time>2026-04-28T08:16:32Z</time></trkpt><trkpt lat="35.83190360345325" lon="-5.560325021972804"><ele>2.0</ele><time>2026-04-28T08:16:33Z</time></trkpt><trkpt lat="35.83181928168575" lon="-5.560187034852909"><ele>1.5</ele><time>2026-04-28T08:16:34Z</time></trkpt><trkpt lat="35.83175278346157" lon="-5.56004505047564"><ele>1.0</ele><time>2026-04-28T08:16:35Z</time></trkpt><trkpt lat="35.83171447817787" lon="-5.559884816350097"><ele>0.5</ele><time>2026-04-28T08:16:36Z</time></trkpt><trkpt lat="35.83170656449704" lon="-5.559711248064632"><ele>0.0</ele><time>2026-04-28T08:16:37Z</time></trkpt><trkpt lat="35.83170637486043" lon="-5.559536756944087"><ele>1.0</ele><time>2026-04-28T08:16:38Z</time></trkpt><trkpt lat="35.83170883684424" lon="-5.5593516248295405"><ele>2.0</ele><time>2026-04-28T08:16:39Z</time></trkpt><trkpt lat="35.83171995933613" lon="-5.559160361820081"><ele>3.0</ele><time>2026-04-28T08:16:40Z</time></trkpt><trkpt lat="35.83173153338998" lon="-5.558965691206544"><ele>3.0</ele><time>2026-04-28T08:16:41Z</time></trkpt><trkpt lat="35.831746847646144" lon="-5.558818118228814"><ele>3.0</ele><time>2026-04-28T08:16:42Z</time></trkpt><trkpt lat="35.83175424697121" lon="-5.558653537491315"><ele>3.0</ele><time>2026-04-28T08:16:43Z</time></trkpt><trkpt lat="35.83176613026571" lon="-5.5584948749769545"><ele>3.0</ele><time>2026-04-28T08:16:44Z</time></trkpt><trkpt lat="35.83177510356635" lon="-5.558344727015377"><ele>3.0</ele><time>2026-04-28T08:16:45Z</time></trkpt><trkpt lat="35.831790691832175" lon="-5.55818854916393"><ele>3.0</ele><time>2026-04-28T08:16:46Z</time></trkpt><trkpt lat="35.83181400665672" lon="-5.558029674540064"><ele>3.0</ele><time>2026-04-28T08:16:47Z</time></trkpt><trkpt lat="35.83184878393176" lon="-5.557861390396911"><ele>3.0</ele><time>2026-04-28T08:16:48Z</time></trkpt><trkpt lat="35.83188896761505" lon="-5.557678724034266"><ele>4.0</ele><time>2026-04-28T08:16:49Z</time></trkpt><trkpt lat="35.83194608274805" lon="-5.557502742298029"><ele>5.0</ele><time>2026-04-28T08:16:50Z</time></trkpt><trkpt lat="35.832011497773735" lon="-5.557322178076888"><ele>6.0</ele><time>2026-04-28T08:16:51Z</time></trkpt><trkpt lat="35.83209064689235" lon="-5.557141994415211"><ele>6.333333333333334</ele><time>2026-04-28T08:16:52Z</time></trkpt><trkpt lat="35.83218040106165" lon="-5.556966764690431"><ele>6.666666666666667</ele><time>2026-04-28T08:16:53Z</time></trkpt><trkpt lat="35.83228358213557" lon="-5.556800779490094"><ele>7.0</ele><time>2026-04-28T08:16:54Z</time></trkpt><trkpt lat="35.83239549850261" lon="-5.556644247109568"><ele>7.0</ele><time>2026-04-28T08:16:55Z</time></trkpt><trkpt lat="35.83251308238809" lon="-5.556497681189057"><ele>7.0</ele><time>2026-04-28T08:16:56Z</time></trkpt><trkpt lat="35.83263986321862" lon="-5.556364884353872"><ele>7.0</ele><time>2026-04-28T08:16:57Z</time></trkpt><trkpt lat="35.832768897654354" lon="-5.556243077107664"><ele>6.666666666666667</ele><time>2026-04-28T08:16:58Z</time></trkpt><trkpt lat="35.83290284688463" lon="-5.55614280995892"><ele>6.333333333333334</ele><time>2026-04-28T08:16:59Z</time></trkpt><trkpt lat="35.83304498625996" lon="-5.556052488991588"><ele>6.0</ele><time>2026-04-28T08:17:00Z</time></trkpt><trkpt lat="35.83318223640566" lon="-5.555964102393189"><ele>6.0</ele><time>2026-04-28T08:17:00.999Z</time></trkpt><trkpt lat="35.83332381983487" lon="-5.555885283380122"><ele>6.0</ele><time>2026-04-28T08:17:01.999Z</time></trkpt><trkpt lat="35.83346643848705" lon="-5.555827358247996"><ele>6.0</ele><time>2026-04-28T08:17:02.999Z</time></trkpt><trkpt lat="35.83361719701279" lon="-5.555783092888922"><ele>6.0</ele><time>2026-04-28T08:17:03.999Z</time></trkpt><trkpt lat="35.83377590061014" lon="-5.555756396231623"><ele>6.0</ele><time>2026-04-28T08:17:04.999Z</time></trkpt><trkpt lat="35.83393031328244" lon="-5.555731230491587"><ele>6.0</ele><time>2026-04-28T08:17:05.999Z</time></trkpt><trkpt lat="35.83408511091594" lon="-5.555714092377914"><ele>6.0</ele><time>2026-04-28T08:17:06.999Z</time></trkpt><trkpt lat="35.83424310503409" lon="-5.5557180044052705"><ele>6.0</ele><time>2026-04-28T08:17:07.999Z</time></trkpt><trkpt lat="35.834399639923554" lon="-5.55573284206253"><ele>6.0</ele><time>2026-04-28T08:17:08.999Z</time></trkpt><trkpt lat="35.83455433067859" lon="-5.555757374792575"><ele>6.0</ele><time>2026-04-28T08:17:09.999Z</time></trkpt><trkpt lat="35.834704785429025" lon="-5.55580828532742"><ele>6.0</ele><time>2026-04-28T08:17:10.999Z</time></trkpt><trkpt lat="35.83485042611483" lon="-5.555869619526523"><ele>6.0</ele><time>2026-04-28T08:17:11.999Z</time></trkpt><trkpt lat="35.83499903522025" lon="-5.555920984297821"><ele>6.666666666666666</ele><time>2026-04-28T08:17:12.999Z</time></trkpt><trkpt lat="35.83515514097919" lon="-5.555970284337358"><ele>7.333333333333333</ele><time>2026-04-28T08:17:13.999Z</time></trkpt><trkpt lat="35.83530241736654" lon="-5.556022674053487"><ele>8.0</ele><time>2026-04-28T08:17:14.999Z</time></trkpt><trkpt lat="35.835454652612306" lon="-5.556076883947691"><ele>8.0</ele><time>2026-04-28T08:17:15.999Z</time></trkpt><trkpt lat="35.8355973829595" lon="-5.556129602700911"><ele>8.0</ele><time>2026-04-28T08:17:16.999Z</time></trkpt><trkpt lat="35.83573147876945" lon="-5.556179188083036"><ele>8.0</ele><time>2026-04-28T08:17:17.999Z</time></trkpt><trkpt lat="35.835864838803126" lon="-5.556225096857457"><ele>8.0</ele><time>2026-04-28T08:17:18.999Z</time></trkpt><trkpt lat="35.83599542229176" lon="-5.556271953936308"><ele>7.75</ele><time>2026-04-28T08:17:19.999Z</time></trkpt><trkpt lat="35.836121559252284" lon="-5.556313370969753"><ele>7.5</ele><time>2026-04-28T08:17:20.999Z</time></trkpt><trkpt lat="35.83623859536665" lon="-5.556355752510301"><ele>7.25</ele><time>2026-04-28T08:17:21.999Z</time></trkpt><trkpt lat="35.83634978629196" lon="-5.556372590492061"><ele>7.0</ele><time>2026-04-28T08:17:22.999Z</time></trkpt><trkpt lat="35.83643445410803" lon="-5.556415481937556"><ele>7.0</ele><time>2026-04-28T08:17:23.999Z</time></trkpt><trkpt lat="35.836534850611095" lon="-5.556441965739461"><ele>6.999999999999999</ele><time>2026-04-28T08:17:24.999Z</time></trkpt><trkpt lat="35.836639801287255" lon="-5.556459061648309"><ele>6.999999999999999</ele><time>2026-04-28T08:17:25.999Z</time></trkpt><trkpt lat="35.83674729956462" lon="-5.556445997284173"><ele>7.0</ele><time>2026-04-28T08:17:26.999Z</time></trkpt><trkpt lat="35.83686280431731" lon="-5.556510294341983"><ele>7.0</ele><time>2026-04-28T08:17:27.999Z</time></trkpt><trkpt lat="35.83696950165927" lon="-5.55659304199625"><ele>7.25</ele><time>2026-04-28T08:17:28.999Z</time></trkpt><trkpt lat="35.83709122152567" lon="-5.556643274718567"><ele>7.5</ele><time>2026-04-28T08:17:29.999Z</time></trkpt><trkpt lat="35.83721448822231" lon="-5.556691880981613"><ele>7.75</ele><time>2026-04-28T08:17:30.999Z</time></trkpt><trkpt lat="35.837342277118864" lon="-5.556741215592972"><ele>8.0</ele><time>2026-04-28T08:17:31.999Z</time></trkpt><trkpt lat="35.83749100023516" lon="-5.556827650402614"><ele>8.25</ele><time>2026-04-28T08:17:32.999Z</time></trkpt><trkpt lat="35.83765097399261" lon="-5.556855801959347"><ele>8.5</ele><time>2026-04-28T08:17:33.999Z</time></trkpt><trkpt lat="35.83771988887267" lon="-5.556873903519982"><ele>8.75</ele><time>2026-04-28T08:17:34.999Z</time></trkpt><trkpt lat="35.837846666240914" lon="-5.5569244830730025"><ele>9.0</ele><time>2026-04-28T08:17:35.999Z</time></trkpt><trkpt lat="35.83798355827853" lon="-5.5569081115622945"><ele>9.0</ele><time>2026-04-28T08:17:36.999Z</time></trkpt><trkpt lat="35.83812244499279" lon="-5.556911552552838"><ele>9.0</ele><time>2026-04-28T08:17:37.999Z</time></trkpt><trkpt lat="35.83826942647243" lon="-5.5569354481758735"><ele>9.0</ele><time>2026-04-28T08:17:38.999Z</time></trkpt><trkpt lat="35.83840809245692" lon="-5.556900602834551"><ele>9.0</ele><time>2026-04-28T08:17:39.999Z</time></trkpt><trkpt lat="35.83854955117516" lon="-5.556885368820456"><ele>8.25</ele><time>2026-04-28T08:17:40.999Z</time></trkpt><trkpt lat="35.838694396755116" lon="-5.5568718932755825"><ele>7.5</ele><time>2026-04-28T08:17:41.999Z</time></trkpt><trkpt lat="35.83883585934207" lon="-5.556877555638173"><ele>6.75</ele><time>2026-04-28T08:17:42.999Z</time></trkpt><trkpt lat="35.83897537585319" lon="-5.556849644469089"><ele>6.0</ele><time>2026-04-28T08:17:43.999Z</time></trkpt><trkpt lat="35.83911072910316" lon="-5.556841096378951"><ele>6.0</ele><time>2026-04-28T08:17:44.999Z</time></trkpt><trkpt lat="35.8392478675478" lon="-5.556818145040194"><ele>6.0</ele><time>2026-04-28T08:17:45.999Z</time></trkpt><trkpt lat="35.83938433064302" lon="-5.556813001149268"><ele>6.0</ele><time>2026-04-28T08:17:46.999Z</time></trkpt><trkpt lat="35.839514578941554" lon="-5.556827329028636"><ele>6.0</ele><time>2026-04-28T08:17:47.999Z</time></trkpt><trkpt lat="35.8396457434929" lon="-5.556844651876383"><ele>6.25</ele><time>2026-04-28T08:17:48.999Z</time></trkpt><trkpt lat="35.83976874399699" lon="-5.556869076466644"><ele>6.5</ele><time>2026-04-28T08:17:49.999Z</time></trkpt><trkpt lat="35.83988002525699" lon="-5.556910058353895"><ele>6.75</ele><time>2026-04-28T08:17:50.999Z</time></trkpt><trkpt lat="35.83998926042377" lon="-5.556933354510042"><ele>7.0</ele><time>2026-04-28T08:17:51.999Z</time></trkpt><trkpt lat="35.84009635586218" lon="-5.556969730238608"><ele>7.000000000000001</ele><time>2026-04-28T08:17:52.999Z</time></trkpt><trkpt lat="35.84019280767079" lon="-5.557015148686835"><ele>7.0</ele><time>2026-04-28T08:17:53.999Z</time></trkpt><trkpt lat="35.84028340217696" lon="-5.557070399499868"><ele>7.0</ele><time>2026-04-28T08:17:54.999Z</time></trkpt><trkpt lat="35.84037036641161" lon="-5.557126938772961"><ele>7.0</ele><time>2026-04-28T08:17:55.999Z</time></trkpt><trkpt lat="35.84043748902679" lon="-5.557179259568509"><ele>7.000000000000001</ele><time>2026-04-28T08:17:56.999Z</time></trkpt><trkpt lat="35.84049501380193" lon="-5.557221219273583"><ele>7.0</ele><time>2026-04-28T08:17:57.999Z</time></trkpt><trkpt lat="35.840577522462915" lon="-5.557250405096691"><ele>6.000000000000001</ele><time>2026-04-28T08:17:58.999Z</time></trkpt><trkpt lat="35.840655923107164" lon="-5.5572625063746885"><ele>5.0</ele><time>2026-04-28T08:17:59.999Z</time></trkpt><trkpt lat="35.84072848406645" lon="-5.557256580755945"><ele>4.0</ele><time>2026-04-28T08:18:00.999Z</time></trkpt><trkpt lat="35.84084414248302" lon="-5.557288348371197"><ele>3.0</ele><time>2026-04-28T08:18:02.999Z</time></trkpt><trkpt lat="35.84088726145773" lon="-5.557354333738717"><ele>2.0</ele><time>2026-04-28T08:18:03.999Z</time></trkpt><trkpt lat="35.84090374504287" lon="-5.557436363257159"><ele>1.0</ele><time>2026-04-28T08:18:04.999Z</time></trkpt><trkpt lat="35.84089325624429" lon="-5.5575190661305625"><ele>0.9999999999999999</ele><time>2026-04-28T08:18:05.999Z</time></trkpt><trkpt lat="35.840862989626935" lon="-5.557603577130892"><ele>1.0</ele><time>2026-04-28T08:18:06.999Z</time></trkpt><trkpt lat="35.84083162179811" lon="-5.55769132118731"><ele>1.0</ele><time>2026-04-28T08:18:07.999Z</time></trkpt><trkpt lat="35.84081546086215" lon="-5.557787488754452"><ele>1.0</ele><time>2026-04-28T08:18:08.999Z</time></trkpt><trkpt lat="35.840810207783264" lon="-5.557889161287332"><ele>0.9999999999999999</ele><time>2026-04-28T08:18:09.999Z</time></trkpt><trkpt lat="35.84081400929027" lon="-5.557986975779059"><ele>1.0</ele><time>2026-04-28T08:18:11Z</time></trkpt><trkpt lat="35.84082231616184" lon="-5.558077409294308"><ele>1.1666666666666665</ele><time>2026-04-28T08:18:12Z</time></trkpt><trkpt lat="35.84083586015919" lon="-5.5581678985875875"><ele>1.3333333333333333</ele><time>2026-04-28T08:18:13Z</time></trkpt><trkpt lat="35.840852277762664" lon="-5.55825705990919"><ele>1.5</ele><time>2026-04-28T08:18:14Z</time></trkpt><trkpt lat="35.84087742298033" lon="-5.5583491335149064"><ele>1.6666666666666665</ele><time>2026-04-28T08:18:15Z</time></trkpt><trkpt lat="35.84091491982627" lon="-5.558443028927495"><ele>1.8333333333333333</ele><time>2026-04-28T08:18:16Z</time></trkpt><trkpt lat="35.840957919665456" lon="-5.558543766041894"><ele>2.0</ele><time>2026-04-28T08:18:17Z</time></trkpt><trkpt lat="35.84099770220922" lon="-5.558649873277755"><ele>3.6</ele><time>2026-04-28T08:18:18Z</time></trkpt><trkpt lat="35.841039387191486" lon="-5.558757322843059"><ele>5.2</ele><time>2026-04-28T08:18:19Z</time></trkpt><trkpt lat="35.84108437300783" lon="-5.558868825553751"><ele>6.8</ele><time>2026-04-28T08:18:20Z</time></trkpt><trkpt lat="35.841124500076816" lon="-5.558984251630792"><ele>8.4</ele><time>2026-04-28T08:18:21Z</time></trkpt><trkpt lat="35.841169149029085" lon="-5.55910054623366"><ele>10.0</ele><time>2026-04-28T08:18:22Z</time></trkpt><trkpt lat="35.841218997319885" lon="-5.559216925782797"><ele>10.0</ele><time>2026-04-28T08:18:23Z</time></trkpt><trkpt lat="35.841265715474506" lon="-5.5593321309008354"><ele>10.0</ele><time>2026-04-28T08:18:24Z</time></trkpt><trkpt lat="35.8413110327027" lon="-5.559444119123389"><ele>10.0</ele><time>2026-04-28T08:18:25Z</time></trkpt><trkpt lat="35.84135283014016" lon="-5.559547849355587"><ele>10.0</ele><time>2026-04-28T08:18:26Z</time></trkpt><trkpt lat="35.84139152629756" lon="-5.559643803133553"><ele>10.0</ele><time>2026-04-28T08:18:27Z</time></trkpt><trkpt lat="35.841428227504544" lon="-5.559729922563585"><ele>8.4</ele><time>2026-04-28T08:18:28Z</time></trkpt><trkpt lat="35.84146248785599" lon="-5.559816698504119"><ele>6.8</ele><time>2026-04-28T08:18:29Z</time></trkpt><trkpt lat="35.84150138415792" lon="-5.5599123756687625"><ele>5.2</ele><time>2026-04-28T08:18:30Z</time></trkpt><trkpt lat="35.84153954739894" lon="-5.56001680935359"><ele>3.6</ele><time>2026-04-28T08:18:31Z</time></trkpt><trkpt lat="35.84157528286654" lon="-5.560126201255886"><ele>2.0</ele><time>2026-04-28T08:18:32Z</time></trkpt><trkpt lat="35.841616292682104" lon="-5.560236569208619"><ele>2.0</ele><time>2026-04-28T08:18:33Z</time></trkpt><trkpt lat="35.841654862855" lon="-5.5603398295111965"><ele>1.9999999999999998</ele><time>2026-04-28T08:18:34Z</time></trkpt><trkpt lat="35.841689044022246" lon="-5.560430684261652"><ele>2.0</ele><time>2026-04-28T08:18:35Z</time></trkpt><trkpt lat="35.84172324804139" lon="-5.560509949389313"><ele>2.0</ele><time>2026-04-28T08:18:36Z</time></trkpt><trkpt lat="35.84175518938543" lon="-5.560584664882074"><ele>1.9999999999999998</ele><time>2026-04-28T08:18:37Z</time></trkpt><trkpt lat="35.84178626637326" lon="-5.560654072265877"><ele>2.0</ele><time>2026-04-28T08:18:38Z</time></trkpt><trkpt lat="35.841816100953864" lon="-5.560726935752256"><ele>2.0</ele><time>2026-04-28T08:18:39Z</time></trkpt><trkpt lat="35.84184284394837" lon="-5.560798990746707"><ele>3.6</ele><time>2026-04-28T08:18:40Z</time></trkpt><trkpt lat="35.841890386715356" lon="-5.560923678841125"><ele>5.2</ele><time>2026-04-28T08:18:42Z</time></trkpt><trkpt lat="35.841965288115496" lon="-5.561028358047159"><ele>6.8</ele><time>2026-04-28T08:18:44Z</time></trkpt><trkpt lat="35.841984200071956" lon="-5.5611264416521005"><ele>8.4</ele><time>2026-04-28T08:18:46Z</time></trkpt><trkpt lat="35.84191296005184" lon="-5.561196587720504"><ele>10.0</ele><time>2026-04-28T08:18:48Z</time></trkpt><trkpt lat="35.84180298570907" lon="-5.561282329345731"><ele>12.285714285714285</ele><time>2026-04-28T08:19:04Z</time></trkpt><trkpt lat="35.84174134793904" lon="-5.561335440089544"><ele>14.571428571428573</ele><time>2026-04-28T08:19:09Z</time></trkpt><trkpt lat="35.841679840774454" lon="-5.561368101312829"><ele>16.857142857142858</ele><time>2026-04-28T08:19:10.999Z</time></trkpt><trkpt lat="35.84160405759487" lon="-5.5614215802637395"><ele>19.142857142857142</ele><time>2026-04-28T08:19:12.999Z</time></trkpt><trkpt lat="35.84154808028806" lon="-5.56145993101302"><ele>21.42857142857143</ele><time>2026-04-28T08:19:14.999Z</time></trkpt><trkpt lat="35.84148909860602" lon="-5.561488422152297"><ele>23.71428571428571</ele><time>2026-04-28T08:19:16.999Z</time></trkpt><trkpt lat="35.8414086243976" lon="-5.5615403973192095"><ele>26.0</ele><time>2026-04-28T08:19:18.999Z</time></trkpt><trkpt lat="35.84131746750699" lon="-5.561607013003098"><ele>26.0</ele><time>2026-04-28T08:19:20.999Z</time></trkpt><trkpt lat="35.84122812886078" lon="-5.561664490897521"><ele>26.0</ele><time>2026-04-28T08:19:22.999Z</time></trkpt><trkpt lat="35.84112244870804" lon="-5.561736880824484"><ele>26.0</ele><time>2026-04-28T08:19:24.999Z</time></trkpt><trkpt lat="35.8410264524831" lon="-5.5617921094378"><ele>26.0</ele><time>2026-04-28T08:19:26.999Z</time></trkpt><trkpt lat="35.84093834624225" lon="-5.561859487435608"><ele>26.0</ele><time>2026-04-28T08:19:28.999Z</time></trkpt><trkpt lat="35.84088044214106" lon="-5.561898769659244"><ele>27.285714285714285</ele><time>2026-04-28T08:19:29.999Z</time></trkpt><trkpt lat="35.84081908932492" lon="-5.561939194213493"><ele>28.571428571428573</ele><time>2026-04-28T08:19:30.999Z</time></trkpt><trkpt lat="35.84075831412197" lon="-5.561981947728888"><ele>29.857142857142858</ele><time>2026-04-28T08:19:31.999Z</time></trkpt><trkpt lat="35.84070055676106" lon="-5.56202678748159"><ele>31.142857142857142</ele><time>2026-04-28T08:19:32.999Z</time></trkpt><trkpt lat="35.84064155267686" lon="-5.562068968675776"><ele>32.42857142857143</ele><time>2026-04-28T08:19:33.999Z</time></trkpt><trkpt lat="35.840574210330864" lon="-5.562116892386312"><ele>33.714285714285715</ele><time>2026-04-28T08:19:34.999Z</time></trkpt><trkpt lat="35.84050699586789" lon="-5.562157154071822"><ele>35.0</ele><time>2026-04-28T08:19:35.999Z</time></trkpt><trkpt lat="35.840441003201235" lon="-5.562197713438595"><ele>35.0</ele><time>2026-04-28T08:19:36.999Z</time></trkpt><trkpt lat="35.84037379440039" lon="-5.562241744507695"><ele>35.0</ele><time>2026-04-28T08:19:37.999Z</time></trkpt><trkpt lat="35.8403161321374" lon="-5.562279872572424"><ele>35.0</ele><time>2026-04-28T08:19:38.999Z</time></trkpt><trkpt lat="35.84024983684439" lon="-5.562323514100228"><ele>35.0</ele><time>2026-04-28T08:19:39.999Z</time></trkpt><trkpt lat="35.84018222060023" lon="-5.562369796515052"><ele>35.0</ele><time>2026-04-28T08:19:40.999Z</time></trkpt><trkpt lat="35.84011118856873" lon="-5.562416173606341"><ele>35.0</ele><time>2026-04-28T08:19:41.999Z</time></trkpt><trkpt lat="35.84003674274892" lon="-5.5624644677616475"><ele>30.0</ele><time>2026-04-28T08:19:42.999Z</time></trkpt><trkpt lat="35.839959781123675" lon="-5.562513004788588"><ele>25.0</ele><time>2026-04-28T08:19:43.999Z</time></trkpt><trkpt lat="35.83988044772566" lon="-5.562562447848241"><ele>20.0</ele><time>2026-04-28T08:19:44.999Z</time></trkpt><trkpt lat="35.839794882283485" lon="-5.562613688043094"><ele>15.0</ele><time>2026-04-28T08:19:45.999Z</time></trkpt><trkpt lat="35.83970594676249" lon="-5.562668809327162"><ele>10.0</ele><time>2026-04-28T08:19:46.999Z</time></trkpt><trkpt lat="35.839618241647386" lon="-5.562725705860634"><ele>10.0</ele><time>2026-04-28T08:19:47.999Z</time></trkpt><trkpt lat="35.839532153757844" lon="-5.562784439611841"><ele>10.0</ele><time>2026-04-28T08:19:48.999Z</time></trkpt><trkpt lat="35.83944167825223" lon="-5.562838859232154"><ele>10.0</ele><time>2026-04-28T08:19:49.999Z</time></trkpt><trkpt lat="35.83935844485038" lon="-5.562893427848817"><ele>10.0</ele><time>2026-04-28T08:19:50.999Z</time></trkpt><trkpt lat="35.83927269786355" lon="-5.562941430996381"><ele>10.0</ele><time>2026-04-28T08:19:51.999Z</time></trkpt><trkpt lat="35.83918374287982" lon="-5.562989501886354"><ele>10.2</ele><time>2026-04-28T08:19:52.999Z</time></trkpt><trkpt lat="35.8391015622485" lon="-5.563046431532268"><ele>10.4</ele><time>2026-04-28T08:19:53.999Z</time></trkpt><trkpt lat="35.83900916022219" lon="-5.563105935275473"><ele>10.600000000000001</ele><time>2026-04-28T08:19:54.999Z</time></trkpt><trkpt lat="35.838923998709795" lon="-5.563160207757959"><ele>10.8</ele><time>2026-04-28T08:19:55.999Z</time></trkpt><trkpt lat="35.83882844898962" lon="-5.563217337264298"><ele>11.0</ele><time>2026-04-28T08:19:56.999Z</time></trkpt><trkpt lat="35.83873027610298" lon="-5.56328341187724"><ele>11.0</ele><time>2026-04-28T08:19:57.999Z</time></trkpt><trkpt lat="35.838628940240305" lon="-5.563348263995823"><ele>11.0</ele><time>2026-04-28T08:19:58.999Z</time></trkpt><trkpt lat="35.83853142563676" lon="-5.563413899411505"><ele>11.0</ele><time>2026-04-28T08:19:59.999Z</time></trkpt><trkpt lat="35.83843799922602" lon="-5.563473002655059"><ele>11.0</ele><time>2026-04-28T08:20:00.999Z</time></trkpt><trkpt lat="35.838350279767795" lon="-5.563526679257837"><ele>11.0</ele><time>2026-04-28T08:20:01.999Z</time></trkpt><trkpt lat="35.83826380378662" lon="-5.563585103902265"><ele>9.8</ele><time>2026-04-28T08:20:02.999Z</time></trkpt><trkpt lat="35.8381807265258" lon="-5.563643294740318"><ele>8.600000000000001</ele><time>2026-04-28T08:20:03.999Z</time></trkpt><trkpt lat="35.83809501246914" lon="-5.563703674121629"><ele>7.4</ele><time>2026-04-28T08:20:04.999Z</time></trkpt><trkpt lat="35.83801397887047" lon="-5.563754583547545"><ele>6.2</ele><time>2026-04-28T08:20:05.999Z</time></trkpt><trkpt lat="35.8379387795354" lon="-5.563802093931837"><ele>5.0</ele><time>2026-04-28T08:20:06.999Z</time></trkpt><trkpt lat="35.837864886277806" lon="-5.563848828778336"><ele>7.0</ele><time>2026-04-28T08:20:07.999Z</time></trkpt><trkpt lat="35.83778379081766" lon="-5.563879471808631"><ele>9.0</ele><time>2026-04-28T08:20:08.999Z</time></trkpt><trkpt lat="35.83769817090025" lon="-5.563895102174439"><ele>11.0</ele><time>2026-04-28T08:20:09.999Z</time></trkpt><trkpt lat="35.83760983751448" lon="-5.563889464049279"><ele>13.0</ele><time>2026-04-28T08:20:10.999Z</time></trkpt><trkpt lat="35.83752335224522" lon="-5.563860587205302"><ele>15.000000000000002</ele><time>2026-04-28T08:20:11.999Z</time></trkpt><trkpt lat="35.83743693833921" lon="-5.563825030996397"><ele>17.0</ele><time>2026-04-28T08:20:12.999Z</time></trkpt><trkpt lat="35.837354015278564" lon="-5.563787862204383"><ele>17.0</ele><time>2026-04-28T08:20:13.999Z</time></trkpt><trkpt lat="35.837270473909506" lon="-5.563764208771645"><ele>17.0</ele><time>2026-04-28T08:20:14.999Z</time></trkpt><trkpt lat="35.83718810720562" lon="-5.563767997515666"><ele>17.0</ele><time>2026-04-28T08:20:15.999Z</time></trkpt><trkpt lat="35.83710225111983" lon="-5.563792252106714"><ele>17.0</ele><time>2026-04-28T08:20:17Z</time></trkpt><trkpt lat="35.83701609178839" lon="-5.563813294185898"><ele>17.0</ele><time>2026-04-28T08:20:18Z</time></trkpt><trkpt lat="35.836925492464914" lon="-5.563839815660603"><ele>17.0</ele><time>2026-04-28T08:20:19Z</time></trkpt><trkpt lat="35.83683126706122" lon="-5.5638726825059965"><ele>15.4</ele><time>2026-04-28T08:20:20Z</time></trkpt><trkpt lat="35.83673492230651" lon="-5.563907098446783"><ele>13.799999999999999</ele><time>2026-04-28T08:20:21Z</time></trkpt><trkpt lat="35.836638054662075" lon="-5.563940635853232"><ele>12.2</ele><time>2026-04-28T08:20:22Z</time></trkpt><trkpt lat="35.83654602534658" lon="-5.563975361568928"><ele>10.6</ele><time>2026-04-28T08:20:23Z</time></trkpt><trkpt lat="35.836457413604954" lon="-5.564008392506387"><ele>9.0</ele><time>2026-04-28T08:20:24Z</time></trkpt><trkpt lat="35.83636958653397" lon="-5.564040435234444"><ele>9.0</ele><time>2026-04-28T08:20:25Z</time></trkpt><trkpt lat="35.83628261091652" lon="-5.564069976800005"><ele>9.0</ele><time>2026-04-28T08:20:26Z</time></trkpt><trkpt lat="35.83619180362716" lon="-5.5640963541940325"><ele>9.0</ele><time>2026-04-28T08:20:27Z</time></trkpt><trkpt lat="35.8360991681301" lon="-5.564115174384316"><ele>9.0</ele><time>2026-04-28T08:20:28Z</time></trkpt><trkpt lat="35.836004018356746" lon="-5.564133172298557"><ele>9.0</ele><time>2026-04-28T08:20:29Z</time></trkpt><trkpt lat="35.835903074085564" lon="-5.5641437825940105"><ele>8.0</ele><time>2026-04-28T08:20:30Z</time></trkpt><trkpt lat="35.835800840556175" lon="-5.564150398791304"><ele>7.0</ele><time>2026-04-28T08:20:31Z</time></trkpt><trkpt lat="35.835694673933915" lon="-5.564152617012904"><ele>6.0</ele><time>2026-04-28T08:20:32Z</time></trkpt><trkpt lat="35.835587735331245" lon="-5.564151683141909"><ele>5.0</ele><time>2026-04-28T08:20:33Z</time></trkpt><trkpt lat="35.83547669097642" lon="-5.564146666898538"><ele>4.0</ele><time>2026-04-28T08:20:34Z</time></trkpt><trkpt lat="35.83536683890043" lon="-5.564139859089019"><ele>4.0</ele><time>2026-04-28T08:20:35Z</time></trkpt><trkpt lat="35.83525403567464" lon="-5.564130291097635"><ele>4.0</ele><time>2026-04-28T08:20:36Z</time></trkpt><trkpt lat="35.83514707558312" lon="-5.564099340816583"><ele>4.0</ele><time>2026-04-28T08:20:37Z</time></trkpt><trkpt lat="35.83504443478463" lon="-5.5640440049809605"><ele>4.0</ele><time>2026-04-28T08:20:38Z</time></trkpt><trkpt lat="35.83494798656104" lon="-5.563969215077042"><ele>4.0</ele><time>2026-04-28T08:20:39Z</time></trkpt><trkpt lat="35.83487026617829" lon="-5.56387126042764"><ele>3.8000000000000003</ele><time>2026-04-28T08:20:40Z</time></trkpt><trkpt lat="35.834787240371504" lon="-5.563762937205771"><ele>3.6000000000000005</ele><time>2026-04-28T08:20:41Z</time></trkpt><trkpt lat="35.834715096990045" lon="-5.563675767157006"><ele>3.4</ele><time>2026-04-28T08:20:42Z</time></trkpt><trkpt lat="35.83463730890474" lon="-5.56358143482472"><ele>3.2</ele><time>2026-04-28T08:20:43Z</time></trkpt><trkpt lat="35.83455528075048" lon="-5.563492996221543"><ele>3.0</ele><time>2026-04-28T08:20:44Z</time></trkpt><trkpt lat="35.83446996578233" lon="-5.563401112791023"><ele>3.0</ele><time>2026-04-28T08:20:45Z</time></trkpt><trkpt lat="35.83438735286447" lon="-5.5633036997330265"><ele>3.0</ele><time>2026-04-28T08:20:46Z</time></trkpt><trkpt lat="35.8343018797343" lon="-5.56320633956553"><ele>3.0</ele><time>2026-04-28T08:20:47Z</time></trkpt><trkpt lat="35.834213455456535" lon="-5.563114476406373"><ele>3.0</ele><time>2026-04-28T08:20:48Z</time></trkpt><trkpt lat="35.83412212105332" lon="-5.563040346216471"><ele>4.0</ele><time>2026-04-28T08:20:49Z</time></trkpt><trkpt lat="35.834021079207176" lon="-5.56299874729541"><ele>5.0</ele><time>2026-04-28T08:20:50Z</time></trkpt><trkpt lat="35.83391627682865" lon="-5.562978419547872"><ele>6.000000000000001</ele><time>2026-04-28T08:20:51Z</time></trkpt><trkpt lat="35.83380624579655" lon="-5.562977216821354"><ele>7.0</ele><time>2026-04-28T08:20:52Z</time></trkpt><trkpt lat="35.8336954474524" lon="-5.5629870922856"><ele>8.0</ele><time>2026-04-28T08:20:53Z</time></trkpt><trkpt lat="35.83358441119886" lon="-5.563007614382559"><ele>8.0</ele><time>2026-04-28T08:20:54Z</time></trkpt><trkpt lat="35.833475746416376" lon="-5.5630328538263685"><ele>8.0</ele><time>2026-04-28T08:20:55Z</time></trkpt><trkpt lat="35.833369711633416" lon="-5.563068404234447"><ele>8.0</ele><time>2026-04-28T08:20:56Z</time></trkpt><trkpt lat="35.83326428937998" lon="-5.563117208651457"><ele>8.0</ele><time>2026-04-28T08:20:57Z</time></trkpt><trkpt lat="35.83315826955931" lon="-5.563173753872503"><ele>8.0</ele><time>2026-04-28T08:20:58Z</time></trkpt><trkpt lat="35.83304975635371" lon="-5.563232004111647"><ele>8.0</ele><time>2026-04-28T08:20:59Z</time></trkpt><trkpt lat="35.832944148952315" lon="-5.563293983862948"><ele>8.0</ele><time>2026-04-28T08:21:00Z</time></trkpt><trkpt lat="35.83284008469481" lon="-5.563360550947953"><ele>8.0</ele><time>2026-04-28T08:21:01Z</time></trkpt><trkpt lat="35.832735471936836" lon="-5.563425154355908"><ele>8.0</ele><time>2026-04-28T08:21:02Z</time></trkpt><trkpt lat="35.83263146668883" lon="-5.563485818198722"><ele>8.0</ele><time>2026-04-28T08:21:03Z</time></trkpt><trkpt lat="35.83253320176302" lon="-5.563546856946154"><ele>8.0</ele><time>2026-04-28T08:21:04Z</time></trkpt><trkpt lat="35.8324386020352" lon="-5.563611660178438"><ele>8.0</ele><time>2026-04-28T08:21:05Z</time></trkpt><trkpt lat="35.832349782058955" lon="-5.563678509994175"><ele>8.0</ele><time>2026-04-28T08:21:06Z</time></trkpt><trkpt lat="35.832264431215904" lon="-5.563746852344592"><ele>8.0</ele><time>2026-04-28T08:21:07Z</time></trkpt><trkpt lat="35.83218090646868" lon="-5.563812137200124"><ele>9.8</ele><time>2026-04-28T08:21:08Z</time></trkpt><trkpt lat="35.832098633914676" lon="-5.563879689691978"><ele>11.600000000000001</ele><time>2026-04-28T08:21:09Z</time></trkpt><trkpt lat="35.832022247028306" lon="-5.563960376845023"><ele>13.399999999999999</ele><time>2026-04-28T08:21:10Z</time></trkpt><trkpt lat="35.83195168387714" lon="-5.56404991127689"><ele>15.2</ele><time>2026-04-28T08:21:11Z</time></trkpt><trkpt lat="35.83188717397571" lon="-5.564145999029055"><ele>17.0</ele><time>2026-04-28T08:21:12Z</time></trkpt><trkpt lat="35.83183471591945" lon="-5.564258679084098"><ele>15.2</ele><time>2026-04-28T08:21:13Z</time></trkpt><trkpt lat="35.83179555882249" lon="-5.564380448066743"><ele>13.399999999999999</ele><time>2026-04-28T08:21:14Z</time></trkpt><trkpt lat="35.831765432715166" lon="-5.564506410762954"><ele>11.600000000000001</ele><time>2026-04-28T08:21:15Z</time></trkpt><trkpt lat="35.83174163747886" lon="-5.5646372636447285"><ele>9.8</ele><time>2026-04-28T08:21:16Z</time></trkpt><trkpt lat="35.83171373388901" lon="-5.564769099417715"><ele>8.0</ele><time>2026-04-28T08:21:17Z</time></trkpt><trkpt lat="35.83168275504344" lon="-5.564893861955342"><ele>7.833333333333333</ele><time>2026-04-28T08:21:18Z</time></trkpt><trkpt lat="35.83165251256347" lon="-5.565014617540189"><ele>7.666666666666666</ele><time>2026-04-28T08:21:19Z</time></trkpt><trkpt lat="35.83162016454627" lon="-5.5651234243293395"><ele>7.5</ele><time>2026-04-28T08:21:20Z</time></trkpt><trkpt lat="35.83158545973622" lon="-5.56522494591116"><ele>7.333333333333334</ele><time>2026-04-28T08:21:21Z</time></trkpt><trkpt lat="35.83154920296305" lon="-5.565315286144896"><ele>7.166666666666667</ele><time>2026-04-28T08:21:22Z</time></trkpt><trkpt lat="35.83151451914208" lon="-5.565386775649395"><ele>7.0</ele><time>2026-04-28T08:21:23Z</time></trkpt><trkpt lat="35.83145823218358" lon="-5.565473930077667"><ele>7.333333333333334</ele><time>2026-04-28T08:21:25Z</time></trkpt><trkpt lat="35.83140132135974" lon="-5.565540627794594"><ele>7.666666666666667</ele><time>2026-04-28T08:21:27Z</time></trkpt><trkpt lat="35.8313005042838" lon="-5.565610974500866"><ele>8.0</ele><time>2026-04-28T08:21:29Z</time></trkpt><trkpt lat="35.83122857181328" lon="-5.565613906390875"><ele>8.333333333333334</ele><time>2026-04-28T08:21:30Z</time></trkpt><trkpt lat="35.83114400386589" lon="-5.56560491830349"><ele>8.666666666666666</ele><time>2026-04-28T08:21:31Z</time></trkpt><trkpt lat="35.831047408264226" lon="-5.565586391955514"><ele>9.0</ele><time>2026-04-28T08:21:32Z</time></trkpt><trkpt lat="35.83094728999429" lon="-5.565567097353498"><ele>9.0</ele><time>2026-04-28T08:21:33Z</time></trkpt><trkpt lat="35.83084891863014" lon="-5.565541545791057"><ele>9.0</ele><time>2026-04-28T08:21:34Z</time></trkpt><trkpt lat="35.83075399687407" lon="-5.565515007827388"><ele>9.0</ele><time>2026-04-28T08:21:35Z</time></trkpt><trkpt lat="35.83065518994019" lon="-5.565492079204113"><ele>9.0</ele><time>2026-04-28T08:21:36Z</time></trkpt><trkpt lat="35.83055430508166" lon="-5.565467214718975"><ele>9.0</ele><time>2026-04-28T08:21:37Z</time></trkpt><trkpt lat="35.83045956276847" lon="-5.565447914398202"><ele>9.0</ele><time>2026-04-28T08:21:38Z</time></trkpt><trkpt lat="35.830371442338716" lon="-5.565428219816001"><ele>9.0</ele><time>2026-04-28T08:21:39Z</time></trkpt><trkpt lat="35.83028474581192" lon="-5.56540732980623"><ele>9.0</ele><time>2026-04-28T08:21:40Z</time></trkpt><trkpt lat="35.83020069205631" lon="-5.565384481543224"><ele>9.0</ele><time>2026-04-28T08:21:41Z</time></trkpt><trkpt lat="35.83011429600443" lon="-5.56535737411741"><ele>9.0</ele><time>2026-04-28T08:21:42Z</time></trkpt><trkpt lat="35.83002702335982" lon="-5.565328721067676"><ele>9.0</ele><time>2026-04-28T08:21:43Z</time></trkpt><trkpt lat="35.82993753032568" lon="-5.565302532792899"><ele>8.2</ele><time>2026-04-28T08:21:44Z</time></trkpt><trkpt lat="35.829844776331726" lon="-5.565274599892591"><ele>7.4</ele><time>2026-04-28T08:21:45Z</time></trkpt><trkpt lat="35.82975189855842" lon="-5.565250844313191"><ele>6.6</ele><time>2026-04-28T08:21:46Z</time></trkpt><trkpt lat="35.829661407249894" lon="-5.5652291617867045"><ele>5.8</ele><time>2026-04-28T08:21:47Z</time></trkpt><trkpt lat="35.829575721175566" lon="-5.565210686140294"><ele>5.0</ele><time>2026-04-28T08:21:48Z</time></trkpt><trkpt lat="35.829492081504156" lon="-5.565189878515263"><ele>5.0</ele><time>2026-04-28T08:21:49Z</time></trkpt><trkpt lat="35.829411317099385" lon="-5.5651669728833"><ele>5.0</ele><time>2026-04-28T08:21:50Z</time></trkpt><trkpt lat="35.82932875556568" lon="-5.565142614468294"><ele>5.0</ele><time>2026-04-28T08:21:51Z</time></trkpt><trkpt lat="35.82924564543005" lon="-5.565118915826088"><ele>5.0</ele><time>2026-04-28T08:21:52Z</time></trkpt><trkpt lat="35.829164348188385" lon="-5.565097093168282"><ele>5.0</ele><time>2026-04-28T08:21:53Z</time></trkpt><trkpt lat="35.82909569191384" lon="-5.565079160568278"><ele>5.0</ele><time>2026-04-28T08:21:54Z</time></trkpt><trkpt lat="35.829016904438305" lon="-5.565058007283676"><ele>5.166666666666667</ele><time>2026-04-28T08:21:56Z</time></trkpt><trkpt lat="35.82893153063449" lon="-5.565033595190814"><ele>5.333333333333334</ele><time>2026-04-28T08:21:58Z</time></trkpt><trkpt lat="35.8288138725487" lon="-5.564999706961766"><ele>5.5</ele><time>2026-04-28T08:22:00Z</time></trkpt><trkpt lat="35.82874549306585" lon="-5.564979215154955"><ele>5.666666666666667</ele><time>2026-04-28T08:22:01Z</time></trkpt><trkpt lat="35.82867280133736" lon="-5.5649555542385905"><ele>5.833333333333333</ele><time>2026-04-28T08:22:02Z</time></trkpt><trkpt lat="35.82859774080293" lon="-5.564929997500247"><ele>6.0</ele><time>2026-04-28T08:22:03Z</time></trkpt><trkpt lat="35.828525623401625" lon="-5.564908169032704"><ele>6.428571428571428</ele><time>2026-04-28T08:22:04Z</time></trkpt><trkpt lat="35.82845857754864" lon="-5.564891886217885"><ele>6.857142857142858</ele><time>2026-04-28T08:22:05Z</time></trkpt><trkpt lat="35.82839080260615" lon="-5.564872919969542"><ele>7.2857142857142865</ele><time>2026-04-28T08:22:06Z</time></trkpt><trkpt lat="35.82832213126896" lon="-5.564851237662029"><ele>7.714285714285714</ele><time>2026-04-28T08:22:07Z</time></trkpt><trkpt lat="35.82825447962197" lon="-5.564830606997373"><ele>8.142857142857142</ele><time>2026-04-28T08:22:08Z</time></trkpt><trkpt lat="35.82818201507193" lon="-5.564808090794252"><ele>8.571428571428573</ele><time>2026-04-28T08:22:09Z</time></trkpt><trkpt lat="35.8281098954462" lon="-5.564780894255103"><ele>9.0</ele><time>2026-04-28T08:22:10Z</time></trkpt><trkpt lat="35.82804301885669" lon="-5.564753414272773"><ele>9.0</ele><time>2026-04-28T08:22:11Z</time></trkpt><trkpt lat="35.82797624153779" lon="-5.564719620153563"><ele>9.0</ele><time>2026-04-28T08:22:12Z</time></trkpt><trkpt lat="35.82791721705356" lon="-5.564688241520502"><ele>9.0</ele><time>2026-04-28T08:22:13Z</time></trkpt><trkpt lat="35.8278107747495" lon="-5.56463077631941"><ele>9.0</ele><time>2026-04-28T08:22:15Z</time></trkpt><trkpt lat="35.82772524883655" lon="-5.564575212660608"><ele>9.0</ele><time>2026-04-28T08:22:17Z</time></trkpt><trkpt lat="35.827654773259084" lon="-5.564517907665939"><ele>9.0</ele><time>2026-04-28T08:22:19Z</time></trkpt><trkpt lat="35.827570207229044" lon="-5.5644368806736875"><ele>9.6</ele><time>2026-04-28T08:22:21Z</time></trkpt><trkpt lat="35.827467756508454" lon="-5.564364063737517"><ele>10.2</ele><time>2026-04-28T08:22:23.001Z</time></trkpt><trkpt lat="35.82736422404867" lon="-5.564286526810459"><ele>10.799999999999999</ele><time>2026-04-28T08:22:25.001Z</time></trkpt><trkpt lat="35.82726009942976" lon="-5.5641977278906465"><ele>11.4</ele><time>2026-04-28T08:22:27.001Z</time></trkpt><trkpt lat="35.82720021664372" lon="-5.564148476359921"><ele>12.0</ele><time>2026-04-28T08:22:28.001Z</time></trkpt><trkpt lat="35.827139503088155" lon="-5.564096723651091"><ele>12.0</ele><time>2026-04-28T08:22:29.001Z</time></trkpt><trkpt lat="35.827073301820604" lon="-5.564047000171083"><ele>12.0</ele><time>2026-04-28T08:22:30.001Z</time></trkpt><trkpt lat="35.82700841965613" lon="-5.563998404549092"><ele>12.0</ele><time>2026-04-28T08:22:31.001Z</time></trkpt><trkpt lat="35.826944641994466" lon="-5.563951867055435"><ele>12.0</ele><time>2026-04-28T08:22:32.001Z</time></trkpt><trkpt lat="35.82687897489537" lon="-5.56390723656602"><ele>12.0</ele><time>2026-04-28T08:22:33.001Z</time></trkpt><trkpt lat="35.82681328504741" lon="-5.563861222316174"><ele>12.0</ele><time>2026-04-28T08:22:34.001Z</time></trkpt><trkpt lat="35.82674578729746" lon="-5.563813380095242"><ele>12.166666666666666</ele><time>2026-04-28T08:22:35.001Z</time></trkpt><trkpt lat="35.82667870186546" lon="-5.563762802857936"><ele>12.333333333333332</ele><time>2026-04-28T08:22:36.001Z</time></trkpt><trkpt lat="35.82660624081418" lon="-5.5637085140544835"><ele>12.5</ele><time>2026-04-28T08:22:37.001Z</time></trkpt><trkpt lat="35.82653194414337" lon="-5.5636575493159635"><ele>12.666666666666666</ele><time>2026-04-28T08:22:38.001Z</time></trkpt><trkpt lat="35.82646154833728" lon="-5.563606439057684"><ele>12.833333333333332</ele><time>2026-04-28T08:22:39.001Z</time></trkpt><trkpt lat="35.82639351271239" lon="-5.563557268203273"><ele>13.0</ele><time>2026-04-28T08:22:40.001Z</time></trkpt><trkpt lat="35.82632675135997" lon="-5.5635105267320135"><ele>12.499999999999998</ele><time>2026-04-28T08:22:41.001Z</time></trkpt><trkpt lat="35.826257964802174" lon="-5.563465263145339"><ele>12.0</ele><time>2026-04-28T08:22:42.001Z</time></trkpt><trkpt lat="35.826188590379545" lon="-5.5634205490618935"><ele>11.5</ele><time>2026-04-28T08:22:43.001Z</time></trkpt><trkpt lat="35.82611907384084" lon="-5.5633811636561425"><ele>11.0</ele><time>2026-04-28T08:22:44.001Z</time></trkpt><trkpt lat="35.82604303711034" lon="-5.563352809259371"><ele>10.5</ele><time>2026-04-28T08:22:45.001Z</time></trkpt><trkpt lat="35.825961309408775" lon="-5.563339650718313"><ele>10.0</ele><time>2026-04-28T08:22:46.001Z</time></trkpt><trkpt lat="35.82587916462683" lon="-5.563337552383466"><ele>9.666666666666668</ele><time>2026-04-28T08:22:47.001Z</time></trkpt><trkpt lat="35.825804674112895" lon="-5.5633537663761174"><ele>9.333333333333334</ele><time>2026-04-28T08:22:48.001Z</time></trkpt><trkpt lat="35.8257274741312" lon="-5.5633776873886385"><ele>9.0</ele><time>2026-04-28T08:22:49.001Z</time></trkpt><trkpt lat="35.82564797818097" lon="-5.563402878937622"><ele>8.666666666666666</ele><time>2026-04-28T08:22:50.001Z</time></trkpt><trkpt lat="35.825570639963104" lon="-5.563437364190129"><ele>8.333333333333332</ele><time>2026-04-28T08:22:51.001Z</time></trkpt><trkpt lat="35.825493854423705" lon="-5.563472005726388"><ele>8.0</ele><time>2026-04-28T08:22:52.001Z</time></trkpt><trkpt lat="35.82541615968356" lon="-5.563506501188429"><ele>8.0</ele><time>2026-04-28T08:22:53.001Z</time></trkpt><trkpt lat="35.825337933463636" lon="-5.563539246446504"><ele>8.0</ele><time>2026-04-28T08:22:54.001Z</time></trkpt><trkpt lat="35.825254890518124" lon="-5.563565924851715"><ele>8.0</ele><time>2026-04-28T08:22:55.001Z</time></trkpt><trkpt lat="35.82515707844551" lon="-5.563588334097815"><ele>8.0</ele><time>2026-04-28T08:22:56.001Z</time></trkpt><trkpt lat="35.82505282854325" lon="-5.563655162813359"><ele>8.0</ele><time>2026-04-28T08:22:57.001Z</time></trkpt><trkpt lat="35.82491639067779" lon="-5.563671315913128"><ele>10.75</ele><time>2026-04-28T08:22:58.001Z</time></trkpt><trkpt lat="35.824803885069684" lon="-5.563704775765774"><ele>13.5</ele><time>2026-04-28T08:22:59.001Z</time></trkpt><trkpt lat="35.82469140602522" lon="-5.56373207661451"><ele>16.25</ele><time>2026-04-28T08:23:00.001Z</time></trkpt><trkpt lat="35.82457739515579" lon="-5.563748534871842"><ele>19.0</ele><time>2026-04-28T08:23:01.001Z</time></trkpt><trkpt lat="35.82446309778906" lon="-5.563763762124259"><ele>19.0</ele><time>2026-04-28T08:23:02Z</time></trkpt><trkpt lat="35.82434575376254" lon="-5.563755493145143"><ele>19.0</ele><time>2026-04-28T08:23:03Z</time></trkpt><trkpt lat="35.82422411854824" lon="-5.563744594260609"><ele>19.0</ele><time>2026-04-28T08:23:04Z</time></trkpt><trkpt lat="35.82410110732419" lon="-5.563734696339576"><ele>19.0</ele><time>2026-04-28T08:23:05Z</time></trkpt><trkpt lat="35.823975157712944" lon="-5.5637067077767135"><ele>15.75</ele><time>2026-04-28T08:23:06Z</time></trkpt><trkpt lat="35.82384631655048" lon="-5.563677283589529"><ele>12.5</ele><time>2026-04-28T08:23:07Z</time></trkpt><trkpt lat="35.82371417265846" lon="-5.563648106100148"><ele>9.25</ele><time>2026-04-28T08:23:08Z</time></trkpt><trkpt lat="35.82358885129557" lon="-5.563623219082322"><ele>6.0</ele><time>2026-04-28T08:23:09Z</time></trkpt><trkpt lat="35.82346556507113" lon="-5.563598930981426"><ele>6.0</ele><time>2026-04-28T08:23:10Z</time></trkpt><trkpt lat="35.82334443658655" lon="-5.563590035976747"><ele>6.0</ele><time>2026-04-28T08:23:11Z</time></trkpt><trkpt lat="35.823228081106265" lon="-5.5636292214245895"><ele>6.0</ele><time>2026-04-28T08:23:12Z</time></trkpt><trkpt lat="35.82311468509738" lon="-5.563694090861265"><ele>6.0</ele><time>2026-04-28T08:23:13Z</time></trkpt><trkpt lat="35.82299680278257" lon="-5.563764870805737"><ele>7.75</ele><time>2026-04-28T08:23:14Z</time></trkpt><trkpt lat="35.822881388032755" lon="-5.56384627684982"><ele>9.5</ele><time>2026-04-28T08:23:15Z</time></trkpt><trkpt lat="35.82277484129413" lon="-5.563919571190683"><ele>11.25</ele><time>2026-04-28T08:23:16Z</time></trkpt><trkpt lat="35.82266527741192" lon="-5.563998824110775"><ele>13.0</ele><time>2026-04-28T08:23:17Z</time></trkpt><trkpt lat="35.82254704009829" lon="-5.564090313018172"><ele>13.0</ele><time>2026-04-28T08:23:18Z</time></trkpt><trkpt lat="35.82243663662255" lon="-5.5641954940677065"><ele>13.0</ele><time>2026-04-28T08:23:19Z</time></trkpt><trkpt lat="35.82232484262833" lon="-5.56430648025128"><ele>13.0</ele><time>2026-04-28T08:23:20Z</time></trkpt><trkpt lat="35.82221094768216" lon="-5.564416273671847"><ele>13.0</ele><time>2026-04-28T08:23:21Z</time></trkpt><trkpt lat="35.82209538121255" lon="-5.564524867816677"><ele>13.25</ele><time>2026-04-28T08:23:22Z</time></trkpt><trkpt lat="35.82197892406126" lon="-5.564634281964252"><ele>13.5</ele><time>2026-04-28T08:23:23Z</time></trkpt><trkpt lat="35.82185516547256" lon="-5.564724942927604"><ele>13.75</ele><time>2026-04-28T08:23:24Z</time></trkpt><trkpt lat="35.821716214136" lon="-5.564786162738919"><ele>14.0</ele><time>2026-04-28T08:23:25Z</time></trkpt><trkpt lat="35.82158374447185" lon="-5.564849712884641"><ele>14.0</ele><time>2026-04-28T08:23:26Z</time></trkpt><trkpt lat="35.82145505333742" lon="-5.564932140424896"><ele>14.0</ele><time>2026-04-28T08:23:27Z</time></trkpt><trkpt lat="35.821323629811076" lon="-5.56501104623036"><ele>14.0</ele><time>2026-04-28T08:23:28Z</time></trkpt><trkpt lat="35.82119051044821" lon="-5.565095232631968"><ele>14.0</ele><time>2026-04-28T08:23:29Z</time></trkpt><trkpt lat="35.821056410168445" lon="-5.565180964414707"><ele>12.75</ele><time>2026-04-28T08:23:30Z</time></trkpt><trkpt lat="35.82092335656791" lon="-5.565268234361572"><ele>11.5</ele><time>2026-04-28T08:23:31Z</time></trkpt><trkpt lat="35.8207945167627" lon="-5.565351424565532"><ele>10.25</ele><time>2026-04-28T08:23:32Z</time></trkpt><trkpt lat="35.82066730615366" lon="-5.565437181488124"><ele>9.0</ele><time>2026-04-28T08:23:33Z</time></trkpt><trkpt lat="35.820543538321736" lon="-5.565538213628542"><ele>12.333333333333332</ele><time>2026-04-28T08:23:34Z</time></trkpt><trkpt lat="35.820423649839995" lon="-5.565646721516695"><ele>15.666666666666666</ele><time>2026-04-28T08:23:35Z</time></trkpt><trkpt lat="35.820303898466626" lon="-5.565761156351964"><ele>19.0</ele><time>2026-04-28T08:23:36Z</time></trkpt><trkpt lat="35.82018570766197" lon="-5.565875028926115"><ele>17.25</ele><time>2026-04-28T08:23:37Z</time></trkpt><trkpt lat="35.82006435800376" lon="-5.5659795465668775"><ele>15.5</ele><time>2026-04-28T08:23:38Z</time></trkpt><trkpt lat="35.81993560184516" lon="-5.566073870162599"><ele>13.75</ele><time>2026-04-28T08:23:39Z</time></trkpt><trkpt lat="35.81980000077498" lon="-5.566139781535621"><ele>12.0</ele><time>2026-04-28T08:23:40Z</time></trkpt><trkpt lat="35.819653345499546" lon="-5.566183168873222"><ele>16.0</ele><time>2026-04-28T08:23:41Z</time></trkpt><trkpt lat="35.819510786535446" lon="-5.566211468404018"><ele>20.0</ele><time>2026-04-28T08:23:42Z</time></trkpt><trkpt lat="35.81936390236044" lon="-5.566236972285259"><ele>24.0</ele><time>2026-04-28T08:23:43Z</time></trkpt><trkpt lat="35.81921776273468" lon="-5.566258849426012"><ele>28.0</ele><time>2026-04-28T08:23:44Z</time></trkpt><trkpt lat="35.81906723283474" lon="-5.5662731734186055"><ele>28.0</ele><time>2026-04-28T08:23:45Z</time></trkpt><trkpt lat="35.818916721180365" lon="-5.5662804183152685"><ele>28.0</ele><time>2026-04-28T08:23:46Z</time></trkpt><trkpt lat="35.81876624740884" lon="-5.566282364654325"><ele>28.0</ele><time>2026-04-28T08:23:47Z</time></trkpt><trkpt lat="35.81861567946846" lon="-5.566284239000823"><ele>24.666666666666668</ele><time>2026-04-28T08:23:48Z</time></trkpt><trkpt lat="35.81846445776329" lon="-5.566283498751354"><ele>21.333333333333336</ele><time>2026-04-28T08:23:49Z</time></trkpt><trkpt lat="35.81831466632568" lon="-5.5662827561594455"><ele>18.0</ele><time>2026-04-28T08:23:50Z</time></trkpt><trkpt lat="35.81816239630628" lon="-5.566275720688973"><ele>18.0</ele><time>2026-04-28T08:23:51Z</time></trkpt><trkpt lat="35.818010086677646" lon="-5.566272494548787"><ele>18.0</ele><time>2026-04-28T08:23:52Z</time></trkpt><trkpt lat="35.81785742052562" lon="-5.566274022002818"><ele>18.0</ele><time>2026-04-28T08:23:53Z</time></trkpt><trkpt lat="35.81770645461533" lon="-5.566273377944542"><ele>16.25</ele><time>2026-04-28T08:23:54Z</time></trkpt><trkpt lat="35.817560026388364" lon="-5.5662730252903865"><ele>14.5</ele><time>2026-04-28T08:23:55Z</time></trkpt><trkpt lat="35.817417866498744" lon="-5.566278547589387"><ele>12.75</ele><time>2026-04-28T08:23:56Z</time></trkpt><trkpt lat="35.81727467665939" lon="-5.566279209881586"><ele>11.0</ele><time>2026-04-28T08:23:57Z</time></trkpt><trkpt lat="35.81713035000235" lon="-5.5662781969393045"><ele>11.0</ele><time>2026-04-28T08:23:58Z</time></trkpt><trkpt lat="35.81698532749977" lon="-5.56627846519246"><ele>11.0</ele><time>2026-04-28T08:23:59Z</time></trkpt><trkpt lat="35.816839176544164" lon="-5.566284243868488"><ele>11.0</ele><time>2026-04-28T08:24:00Z</time></trkpt><trkpt lat="35.816694053068034" lon="-5.566289428245757"><ele>11.0</ele><time>2026-04-28T08:24:01Z</time></trkpt><trkpt lat="35.8165490785408" lon="-5.56629299673316"><ele>11.0</ele><time>2026-04-28T08:24:02Z</time></trkpt><trkpt lat="35.81640655328337" lon="-5.566295709843487"><ele>11.0</ele><time>2026-04-28T08:24:03Z</time></trkpt><trkpt lat="35.81626348872199" lon="-5.566301535393406"><ele>11.0</ele><time>2026-04-28T08:24:04Z</time></trkpt><trkpt lat="35.81612004676174" lon="-5.5663059326430435"><ele>11.0</ele><time>2026-04-28T08:24:05Z</time></trkpt><trkpt lat="35.815973501905376" lon="-5.566303479273603"><ele>12.75</ele><time>2026-04-28T08:24:06Z</time></trkpt><trkpt lat="35.81582538355142" lon="-5.56629941667072"><ele>14.5</ele><time>2026-04-28T08:24:07Z</time></trkpt><trkpt lat="35.815680629819816" lon="-5.566296852180485"><ele>16.25</ele><time>2026-04-28T08:24:08Z</time></trkpt><trkpt lat="35.815534257313665" lon="-5.5662910533696595"><ele>18.0</ele><time>2026-04-28T08:24:09Z</time></trkpt><trkpt lat="35.815392059638704" lon="-5.566285560906649"><ele>18.0</ele><time>2026-04-28T08:24:10Z</time></trkpt><trkpt lat="35.81525267729546" lon="-5.566275336053502"><ele>18.0</ele><time>2026-04-28T08:24:11Z</time></trkpt><trkpt lat="35.81511457604623" lon="-5.566252576275375"><ele>18.0</ele><time>2026-04-28T08:24:12Z</time></trkpt><trkpt lat="35.814976546696805" lon="-5.566231496414629"><ele>18.0</ele><time>2026-04-28T08:24:13Z</time></trkpt><trkpt lat="35.81483895106436" lon="-5.566213089808174"><ele>20.0</ele><time>2026-04-28T08:24:14Z</time></trkpt><trkpt lat="35.81469734903505" lon="-5.566205443927986"><ele>22.0</ele><time>2026-04-28T08:24:15Z</time></trkpt><trkpt lat="35.814559204721" lon="-5.566209264905989"><ele>24.0</ele><time>2026-04-28T08:24:16Z</time></trkpt><trkpt lat="35.814421757000005" lon="-5.566222238462366"><ele>26.0</ele><time>2026-04-28T08:24:17Z</time></trkpt><trkpt lat="35.81428850289554" lon="-5.5662286655922655"><ele>24.0</ele><time>2026-04-28T08:24:18Z</time></trkpt><trkpt lat="35.81416309470191" lon="-5.566225700245215"><ele>22.0</ele><time>2026-04-28T08:24:19Z</time></trkpt><trkpt lat="35.81404136605494" lon="-5.566201074120718"><ele>20.0</ele><time>2026-04-28T08:24:20Z</time></trkpt><trkpt lat="35.81394526968656" lon="-5.5661399939013245"><ele>18.0</ele><time>2026-04-28T08:24:21Z</time></trkpt><trkpt lat="35.81380791641104" lon="-5.566052459605563"><ele>18.0</ele><time>2026-04-28T08:24:22Z</time></trkpt><trkpt lat="35.813681314396625" lon="-5.565947704663344"><ele>18.0</ele><time>2026-04-28T08:24:23Z</time></trkpt><trkpt lat="35.81353620150235" lon="-5.56585762815993"><ele>18.0</ele><time>2026-04-28T08:24:24Z</time></trkpt><trkpt lat="35.81338367784283" lon="-5.565835505241391"><ele>20.75</ele><time>2026-04-28T08:24:25Z</time></trkpt><trkpt lat="35.81323940792075" lon="-5.565809835273777"><ele>23.5</ele><time>2026-04-28T08:24:26Z</time></trkpt><trkpt lat="35.813093701728725" lon="-5.565788726407485"><ele>26.25</ele><time>2026-04-28T08:24:27Z</time></trkpt><trkpt lat="35.81295490182159" lon="-5.565760279111164"><ele>29.0</ele><time>2026-04-28T08:24:28.001Z</time></trkpt><trkpt lat="35.81282405279876" lon="-5.565727756894633"><ele>29.0</ele><time>2026-04-28T08:24:29.001Z</time></trkpt><trkpt lat="35.81270453660482" lon="-5.56565741413001"><ele>29.0</ele><time>2026-04-28T08:24:30.001Z</time></trkpt><trkpt lat="35.8125941778725" lon="-5.565564633715138"><ele>29.0</ele><time>2026-04-28T08:24:31.001Z</time></trkpt><trkpt lat="35.812501242752255" lon="-5.565442568383311"><ele>29.0</ele><time>2026-04-28T08:24:32.001Z</time></trkpt><trkpt lat="35.812426299892905" lon="-5.5652939607392184"><ele>30.0</ele><time>2026-04-28T08:24:33.001Z</time></trkpt><trkpt lat="35.812371682791" lon="-5.565127697285196"><ele>31.0</ele><time>2026-04-28T08:24:34.001Z</time></trkpt><trkpt lat="35.81233788344822" lon="-5.564967026630916"><ele>32.0</ele><time>2026-04-28T08:24:35.001Z</time></trkpt><trkpt lat="35.812301007522976" lon="-5.564822159494614"><ele>33.0</ele><time>2026-04-28T08:24:36.001Z</time></trkpt><trkpt lat="35.81225758165551" lon="-5.564712958727373"><ele>33.0</ele><time>2026-04-28T08:24:37.001Z</time></trkpt><trkpt lat="35.81220010340516" lon="-5.564614668665356"><ele>33.0</ele><time>2026-04-28T08:24:38.001Z</time></trkpt><trkpt lat="35.81212453629573" lon="-5.564526053468965"><ele>33.0</ele><time>2026-04-28T08:24:39.001Z</time></trkpt><trkpt lat="35.812010591237005" lon="-5.56449783379286"><ele>33.0</ele><time>2026-04-28T08:24:40.001Z</time></trkpt><trkpt lat="35.81189449845766" lon="-5.564517815539851"><ele>33.0</ele><time>2026-04-28T08:24:41.001Z</time></trkpt><trkpt lat="35.81178161227611" lon="-5.56458965222041"><ele>36.25</ele><time>2026-04-28T08:24:42.001Z</time></trkpt><trkpt lat="35.81166307714357" lon="-5.564687435162416"><ele>39.5</ele><time>2026-04-28T08:24:43.001Z</time></trkpt><trkpt lat="35.81153637511018" lon="-5.564779826973927"><ele>42.75</ele><time>2026-04-28T08:24:44.001Z</time></trkpt><trkpt lat="35.81140526279225" lon="-5.5648641984917555"><ele>46.0</ele><time>2026-04-28T08:24:45.001Z</time></trkpt><trkpt lat="35.81126910689879" lon="-5.5649461847191874"><ele>46.0</ele><time>2026-04-28T08:24:46.001Z</time></trkpt><trkpt lat="35.81113064990035" lon="-5.56503158901939"><ele>46.0</ele><time>2026-04-28T08:24:47.001Z</time></trkpt><trkpt lat="35.810991342884165" lon="-5.565127306872697"><ele>46.0</ele><time>2026-04-28T08:24:48.001Z</time></trkpt><trkpt lat="35.8108503619231" lon="-5.565215995050882"><ele>48.0</ele><time>2026-04-28T08:24:49.001Z</time></trkpt><trkpt lat="35.81071037775904" lon="-5.565311110985539"><ele>50.0</ele><time>2026-04-28T08:24:50.001Z</time></trkpt><trkpt lat="35.81057209411434" lon="-5.565414868407933"><ele>52.0</ele><time>2026-04-28T08:24:51.001Z</time></trkpt><trkpt lat="35.81043363286675" lon="-5.565520583467254"><ele>52.0</ele><time>2026-04-28T08:24:52.001Z</time></trkpt><trkpt lat="35.81028797842269" lon="-5.565617677984417"><ele>52.0</ele><time>2026-04-28T08:24:53.001Z</time></trkpt><trkpt lat="35.81014367221476" lon="-5.565709938668367"><ele>52.0</ele><time>2026-04-28T08:24:54.001Z</time></trkpt><trkpt lat="35.80999868711908" lon="-5.565801515618752"><ele>47.33333333333333</ele><time>2026-04-28T08:24:55.001Z</time></trkpt><trkpt lat="35.8098510974073" lon="-5.565889858562711"><ele>42.666666666666664</ele><time>2026-04-28T08:24:56.001Z</time></trkpt><trkpt lat="35.80970033454547" lon="-5.565977159861622"><ele>38.0</ele><time>2026-04-28T08:24:57.001Z</time></trkpt><trkpt lat="35.80955224414972" lon="-5.566067239225803"><ele>38.0</ele><time>2026-04-28T08:24:58Z</time></trkpt><trkpt lat="35.80941183794319" lon="-5.566174865572295"><ele>38.0</ele><time>2026-04-28T08:24:59Z</time></trkpt><trkpt lat="35.8092703241317" lon="-5.56627691812612"><ele>38.0</ele><time>2026-04-28T08:25:00Z</time></trkpt><trkpt lat="35.80912255256768" lon="-5.566378490056212"><ele>41.0</ele><time>2026-04-28T08:25:01Z</time></trkpt><trkpt lat="35.80897310057006" lon="-5.566471720999026"><ele>44.0</ele><time>2026-04-28T08:25:02Z</time></trkpt><trkpt lat="35.8088296122327" lon="-5.56657251246531"><ele>47.0</ele><time>2026-04-28T08:25:03Z</time></trkpt><trkpt lat="35.80868727958741" lon="-5.566686571009912"><ele>47.0</ele><time>2026-04-28T08:25:04Z</time></trkpt><trkpt lat="35.808531084238425" lon="-5.566737001141184"><ele>47.0</ele><time>2026-04-28T08:25:05Z</time></trkpt><trkpt lat="35.80838100416976" lon="-5.566816458957122"><ele>47.0</ele><time>2026-04-28T08:25:06Z</time></trkpt><trkpt lat="35.808228186883944" lon="-5.566883205555347"><ele>40.33333333333333</ele><time>2026-04-28T08:25:07Z</time></trkpt><trkpt lat="35.808064079203504" lon="-5.566934861899716"><ele>33.666666666666664</ele><time>2026-04-28T08:25:08Z</time></trkpt><trkpt lat="35.80789944391443" lon="-5.566985814476242"><ele>27.0</ele><time>2026-04-28T08:25:09Z</time></trkpt><trkpt lat="35.807733660279936" lon="-5.56702590042894"><ele>31.0</ele><time>2026-04-28T08:25:10Z</time></trkpt><trkpt lat="35.807567626796995" lon="-5.5670616566412505"><ele>35.0</ele><time>2026-04-28T08:25:11Z</time></trkpt><trkpt lat="35.807402974141674" lon="-5.567094967234141"><ele>39.0</ele><time>2026-04-28T08:25:12Z</time></trkpt><trkpt lat="35.80723876366398" lon="-5.567136541497362"><ele>39.0</ele><time>2026-04-28T08:25:13Z</time></trkpt><trkpt lat="35.807073400522384" lon="-5.5671722074211685"><ele>39.0</ele><time>2026-04-28T08:25:14Z</time></trkpt><trkpt lat="35.80691391468247" lon="-5.5672001799863455"><ele>39.0</ele><time>2026-04-28T08:25:15Z</time></trkpt><trkpt lat="35.806761764491895" lon="-5.567202937995035"><ele>36.333333333333336</ele><time>2026-04-28T08:25:16Z</time></trkpt><trkpt lat="35.80661320296689" lon="-5.567163492253325"><ele>33.66666666666667</ele><time>2026-04-28T08:25:17Z</time></trkpt><trkpt lat="35.80647026171201" lon="-5.56708566107124"><ele>31.0</ele><time>2026-04-28T08:25:18Z</time></trkpt><trkpt lat="35.80633692430529" lon="-5.566978012046772"><ele>28.0</ele><time>2026-04-28T08:25:19Z</time></trkpt><trkpt lat="35.806227283368685" lon="-5.56683678634215"><ele>25.0</ele><time>2026-04-28T08:25:20Z</time></trkpt><trkpt lat="35.806122131793764" lon="-5.566682764972077"><ele>22.0</ele><time>2026-04-28T08:25:21Z</time></trkpt><trkpt lat="35.80601938295017" lon="-5.566534445801903"><ele>22.0</ele><time>2026-04-28T08:25:22Z</time></trkpt><trkpt lat="35.80591148309069" lon="-5.566391107966391"><ele>22.0</ele><time>2026-04-28T08:25:23Z</time></trkpt><trkpt lat="35.8058024386447" lon="-5.566243804781981"><ele>22.0</ele><time>2026-04-28T08:25:24Z</time></trkpt><trkpt lat="35.80569537336871" lon="-5.566095994949502"><ele>21.0</ele><time>2026-04-28T08:25:25Z</time></trkpt><trkpt lat="35.80558620020469" lon="-5.565953903108471"><ele>20.0</ele><time>2026-04-28T08:25:26Z</time></trkpt><trkpt lat="35.8054764896233" lon="-5.56580516828569"><ele>19.0</ele><time>2026-04-28T08:25:27Z</time></trkpt><trkpt lat="35.80536244698429" lon="-5.565657193199162"><ele>19.0</ele><time>2026-04-28T08:25:28Z</time></trkpt><trkpt lat="35.80524548116966" lon="-5.565506480254854"><ele>19.0</ele><time>2026-04-28T08:25:29Z</time></trkpt><trkpt lat="35.80512738438394" lon="-5.565358404500779"><ele>19.0</ele><time>2026-04-28T08:25:30Z</time></trkpt><trkpt lat="35.805008174445994" lon="-5.565210260639139"><ele>19.666666666666664</ele><time>2026-04-28T08:25:31Z</time></trkpt><trkpt lat="35.80488953222455" lon="-5.565060298256902"><ele>20.333333333333332</ele><time>2026-04-28T08:25:32Z</time></trkpt><trkpt lat="35.80476395918986" lon="-5.564913137702459"><ele>21.0</ele><time>2026-04-28T08:25:33Z</time></trkpt><trkpt lat="35.804649012002095" lon="-5.564765762544105"><ele>21.0</ele><time>2026-04-28T08:25:34Z</time></trkpt><trkpt lat="35.80453583633341" lon="-5.564620571292352"><ele>21.0</ele><time>2026-04-28T08:25:35Z</time></trkpt><trkpt lat="35.804425105744315" lon="-5.5644718124539585"><ele>21.0</ele><time>2026-04-28T08:25:36Z</time></trkpt><trkpt lat="35.804313899202796" lon="-5.5643257149423375"><ele>22.666666666666664</ele><time>2026-04-28T08:25:37Z</time></trkpt><trkpt lat="35.80419756176373" lon="-5.564186724604517"><ele>24.333333333333332</ele><time>2026-04-28T08:25:38Z</time></trkpt><trkpt lat="35.804084785213156" lon="-5.564046259063488"><ele>26.0</ele><time>2026-04-28T08:25:39Z</time></trkpt><trkpt lat="35.803974210570885" lon="-5.563913051976036"><ele>26.0</ele><time>2026-04-28T08:25:40Z</time></trkpt><trkpt lat="35.803867960090294" lon="-5.563772311730103"><ele>26.0</ele><time>2026-04-28T08:25:41Z</time></trkpt><trkpt lat="35.80376480307444" lon="-5.563629446448966"><ele>26.0</ele><time>2026-04-28T08:25:42Z</time></trkpt><trkpt lat="35.80365720430707" lon="-5.563498716406753"><ele>25.666666666666664</ele><time>2026-04-28T08:25:43Z</time></trkpt><trkpt lat="35.80354552194447" lon="-5.563369714317252"><ele>25.333333333333336</ele><time>2026-04-28T08:25:44Z</time></trkpt><trkpt lat="35.80342899150126" lon="-5.5632414472571465"><ele>25.0</ele><time>2026-04-28T08:25:45Z</time></trkpt><trkpt lat="35.80331227185445" lon="-5.563125215880568"><ele>24.75</ele><time>2026-04-28T08:25:46Z</time></trkpt><trkpt lat="35.80319259120184" lon="-5.563019415640655"><ele>24.5</ele><time>2026-04-28T08:25:47Z</time></trkpt><trkpt lat="35.80306222766032" lon="-5.562926525022753"><ele>24.25</ele><time>2026-04-28T08:25:48Z</time></trkpt><trkpt lat="35.80293436074961" lon="-5.56284650898921"><ele>24.0</ele><time>2026-04-28T08:25:49Z</time></trkpt><trkpt lat="35.802804488671704" lon="-5.562782162013661"><ele>24.0</ele><time>2026-04-28T08:25:50Z</time></trkpt><trkpt lat="35.8026765561693" lon="-5.562710918020829"><ele>24.0</ele><time>2026-04-28T08:25:51Z</time></trkpt><trkpt lat="35.802552429030044" lon="-5.562638219773416"><ele>24.0</ele><time>2026-04-28T08:25:52Z</time></trkpt><trkpt lat="35.802431058816765" lon="-5.562566394988218"><ele>24.0</ele><time>2026-04-28T08:25:53Z</time></trkpt><trkpt lat="35.8023108396378" lon="-5.562495739003386"><ele>25.5</ele><time>2026-04-28T08:25:54Z</time></trkpt><trkpt lat="35.802193500893615" lon="-5.562426514658269"><ele>27.0</ele><time>2026-04-28T08:25:55Z</time></trkpt><trkpt lat="35.80207943114089" lon="-5.562359557037529"><ele>28.5</ele><time>2026-04-28T08:25:56Z</time></trkpt><trkpt lat="35.801969117626186" lon="-5.562295224334856"><ele>30.0</ele><time>2026-04-28T08:25:57Z</time></trkpt><trkpt lat="35.8018605215155" lon="-5.562233342249938"><ele>29.0</ele><time>2026-04-28T08:25:58Z</time></trkpt><trkpt lat="35.80175128985514" lon="-5.562169074318217"><ele>28.0</ele><time>2026-04-28T08:25:59Z</time></trkpt><trkpt lat="35.8016402477049" lon="-5.562103485680696"><ele>27.0</ele><time>2026-04-28T08:26:00Z</time></trkpt><trkpt lat="35.80152971254283" lon="-5.5620370630435545"><ele>26.0</ele><time>2026-04-28T08:26:01Z</time></trkpt><trkpt lat="35.80141839860727" lon="-5.561968776473357"><ele>26.0</ele><time>2026-04-28T08:26:02Z</time></trkpt><trkpt lat="35.80130847633401" lon="-5.561900397806722"><ele>26.0</ele><time>2026-04-28T08:26:03Z</time></trkpt><trkpt lat="35.801197704788734" lon="-5.561833218316795"><ele>26.0</ele><time>2026-04-28T08:26:04Z</time></trkpt><trkpt lat="35.80108939613995" lon="-5.561767404080132"><ele>26.0</ele><time>2026-04-28T08:26:05Z</time></trkpt><trkpt lat="35.800981646127426" lon="-5.561701404559824"><ele>27.75</ele><time>2026-04-28T08:26:06Z</time></trkpt><trkpt lat="35.80087494565798" lon="-5.561636332733647"><ele>29.5</ele><time>2026-04-28T08:26:07Z</time></trkpt><trkpt lat="35.80076951314846" lon="-5.561572754142687"><ele>31.25</ele><time>2026-04-28T08:26:08Z</time></trkpt><trkpt lat="35.800663973115554" lon="-5.5615109761951445"><ele>33.0</ele><time>2026-04-28T08:26:09Z</time></trkpt><trkpt lat="35.80055789753623" lon="-5.561452372183964"><ele>33.0</ele><time>2026-04-28T08:26:10Z</time></trkpt><trkpt lat="35.800451817252004" lon="-5.561397279170204"><ele>33.0</ele><time>2026-04-28T08:26:11Z</time></trkpt><trkpt lat="35.800345428179355" lon="-5.561345508899682"><ele>33.0</ele><time>2026-04-28T08:26:12Z</time></trkpt><trkpt lat="35.800236896301776" lon="-5.56130294264071"><ele>33.0</ele><time>2026-04-28T08:26:13Z</time></trkpt><trkpt lat="35.800129027336446" lon="-5.561258793641364"><ele>33.6</ele><time>2026-04-28T08:26:14Z</time></trkpt><trkpt lat="35.80002027947733" lon="-5.5612137141676605"><ele>34.199999999999996</ele><time>2026-04-28T08:26:15Z</time></trkpt><trkpt lat="35.79991416270927" lon="-5.561172631067223"><ele>34.8</ele><time>2026-04-28T08:26:16Z</time></trkpt><trkpt lat="35.799807070966544" lon="-5.561137134671004"><ele>35.4</ele><time>2026-04-28T08:26:17Z</time></trkpt><trkpt lat="35.79970061582955" lon="-5.561103823146234"><ele>36.0</ele><time>2026-04-28T08:26:18Z</time></trkpt><trkpt lat="35.79959345469235" lon="-5.561065353781383"><ele>34.0</ele><time>2026-04-28T08:26:19Z</time></trkpt><trkpt lat="35.79948766545638" lon="-5.561027551387485"><ele>32.0</ele><time>2026-04-28T08:26:20Z</time></trkpt><trkpt lat="35.79937803945112" lon="-5.560986085200999"><ele>30.0</ele><time>2026-04-28T08:26:21Z</time></trkpt><trkpt lat="35.799263578944746" lon="-5.560941737065289"><ele>28.0</ele><time>2026-04-28T08:26:22Z</time></trkpt><trkpt lat="35.79914524917705" lon="-5.560893560402364"><ele>28.0</ele><time>2026-04-28T08:26:23Z</time></trkpt><trkpt lat="35.7990219314306" lon="-5.560839352136598"><ele>28.0</ele><time>2026-04-28T08:26:24Z</time></trkpt><trkpt lat="35.79889202870561" lon="-5.5607824696530574"><ele>28.0</ele><time>2026-04-28T08:26:25Z</time></trkpt><trkpt lat="35.798760212459015" lon="-5.560731294089459"><ele>28.0</ele><time>2026-04-28T08:26:26Z</time></trkpt><trkpt lat="35.79862556246447" lon="-5.560681171779159"><ele>30.25</ele><time>2026-04-28T08:26:27Z</time></trkpt><trkpt lat="35.798490410304275" lon="-5.560630968475064"><ele>32.5</ele><time>2026-04-28T08:26:28Z</time></trkpt><trkpt lat="35.79834953486583" lon="-5.560587454122023"><ele>34.75</ele><time>2026-04-28T08:26:29Z</time></trkpt><trkpt lat="35.79821267414115" lon="-5.560562040668191"><ele>37.0</ele><time>2026-04-28T08:26:30Z</time></trkpt><trkpt lat="35.798068778355294" lon="-5.560559748474695"><ele>37.0</ele><time>2026-04-28T08:26:31Z</time></trkpt><trkpt lat="35.79792453589249" lon="-5.560579751276441"><ele>37.0</ele><time>2026-04-28T08:26:32Z</time></trkpt><trkpt lat="35.79778015682416" lon="-5.560631026841323"><ele>37.0</ele><time>2026-04-28T08:26:33Z</time></trkpt><trkpt lat="35.797645329642144" lon="-5.560715687144436"><ele>37.0</ele><time>2026-04-28T08:26:34.001Z</time></trkpt><trkpt lat="35.79750595152665" lon="-5.560795425840074"><ele>38.0</ele><time>2026-04-28T08:26:35.001Z</time></trkpt><trkpt lat="35.79735917065811" lon="-5.560857637452993"><ele>39.0</ele><time>2026-04-28T08:26:36.001Z</time></trkpt><trkpt lat="35.79722066202397" lon="-5.560947528761636"><ele>40.0</ele><time>2026-04-28T08:26:37.001Z</time></trkpt><trkpt lat="35.79708176948107" lon="-5.561036943105185"><ele>40.0</ele><time>2026-04-28T08:26:38.001Z</time></trkpt><trkpt lat="35.79693871051598" lon="-5.561125650200885"><ele>40.0</ele><time>2026-04-28T08:26:39.001Z</time></trkpt><trkpt lat="35.796793958219055" lon="-5.561214651654143"><ele>40.0</ele><time>2026-04-28T08:26:40.001Z</time></trkpt><trkpt lat="35.796648859787076" lon="-5.561304146278307"><ele>42.66666666666667</ele><time>2026-04-28T08:26:41.001Z</time></trkpt><trkpt lat="35.79649948403335" lon="-5.561389534590262"><ele>45.333333333333336</ele><time>2026-04-28T08:26:42.001Z</time></trkpt><trkpt lat="35.79634875118369" lon="-5.561480202453905"><ele>48.0</ele><time>2026-04-28T08:26:43.001Z</time></trkpt><trkpt lat="35.79619885216421" lon="-5.561571374810816"><ele>48.0</ele><time>2026-04-28T08:26:44.001Z</time></trkpt><trkpt lat="35.79605005450129" lon="-5.561671197306883"><ele>48.0</ele><time>2026-04-28T08:26:45.001Z</time></trkpt><trkpt lat="35.79589762071189" lon="-5.56176579872695"><ele>48.0</ele><time>2026-04-28T08:26:46.001Z</time></trkpt><trkpt lat="35.795744310681165" lon="-5.561860966483454"><ele>48.66666666666667</ele><time>2026-04-28T08:26:47.001Z</time></trkpt><trkpt lat="35.795592315706664" lon="-5.561956772524242"><ele>49.333333333333336</ele><time>2026-04-28T08:26:48.001Z</time></trkpt><trkpt lat="35.79544491911025" lon="-5.562053706322561"><ele>50.0</ele><time>2026-04-28T08:26:49.001Z</time></trkpt><trkpt lat="35.795294616377554" lon="-5.562150040578133"><ele>47.66666666666667</ele><time>2026-04-28T08:26:50.001Z</time></trkpt><trkpt lat="35.79514258613145" lon="-5.562243046524071"><ele>45.333333333333336</ele><time>2026-04-28T08:26:51.001Z</time></trkpt><trkpt lat="35.794991789540646" lon="-5.562332551084336"><ele>43.0</ele><time>2026-04-28T08:26:52.001Z</time></trkpt><trkpt lat="35.79484066489364" lon="-5.562423790030681"><ele>43.0</ele><time>2026-04-28T08:26:53.001Z</time></trkpt><trkpt lat="35.79469032490944" lon="-5.562516743321844"><ele>43.0</ele><time>2026-04-28T08:26:54.001Z</time></trkpt><trkpt lat="35.79454070695939" lon="-5.562606392698926"><ele>43.0</ele><time>2026-04-28T08:26:55.001Z</time></trkpt><trkpt lat="35.79438827527421" lon="-5.5626878414098675"><ele>41.66666666666667</ele><time>2026-04-28T08:26:56.001Z</time></trkpt><trkpt lat="35.79423053420171" lon="-5.562730575380749"><ele>40.333333333333336</ele><time>2026-04-28T08:26:57Z</time></trkpt><trkpt lat="35.79406831279243" lon="-5.56273928224211"><ele>39.0</ele><time>2026-04-28T08:26:58Z</time></trkpt><trkpt lat="35.79391539492794" lon="-5.562732073888888"><ele>39.0</ele><time>2026-04-28T08:26:59Z</time></trkpt><trkpt lat="35.79376500312457" lon="-5.562662896283303"><ele>39.0</ele><time>2026-04-28T08:27:00Z</time></trkpt><trkpt lat="35.79363003759838" lon="-5.562552437981289"><ele>39.0</ele><time>2026-04-28T08:27:01Z</time></trkpt><trkpt lat="35.79350993799963" lon="-5.562414592782718"><ele>39.333333333333336</ele><time>2026-04-28T08:27:02Z</time></trkpt><trkpt lat="35.79339643624864" lon="-5.562259052439591"><ele>39.66666666666667</ele><time>2026-04-28T08:27:03Z</time></trkpt><trkpt lat="35.79328412070022" lon="-5.562102854172978"><ele>40.0</ele><time>2026-04-28T08:27:04Z</time></trkpt><trkpt lat="35.79316826145249" lon="-5.56195218276416"><ele>39.0</ele><time>2026-04-28T08:27:05Z</time></trkpt><trkpt lat="35.793053991554736" lon="-5.5618021134618205"><ele>38.0</ele><time>2026-04-28T08:27:06Z</time></trkpt><trkpt lat="35.79293555827869" lon="-5.561646465955304"><ele>37.0</ele><time>2026-04-28T08:27:07Z</time></trkpt><trkpt lat="35.79281079455806" lon="-5.561494866689939"><ele>37.0</ele><time>2026-04-28T08:27:08Z</time></trkpt><trkpt lat="35.792687759582506" lon="-5.561345222600794"><ele>37.0</ele><time>2026-04-28T08:27:09Z</time></trkpt><trkpt lat="35.79256969253489" lon="-5.561192476983825"><ele>37.0</ele><time>2026-04-28T08:27:10Z</time></trkpt><trkpt lat="35.79245230783384" lon="-5.561046099396306"><ele>36.66666666666667</ele><time>2026-04-28T08:27:11Z</time></trkpt><trkpt lat="35.792337363485075" lon="-5.560897886974094"><ele>36.333333333333336</ele><time>2026-04-28T08:27:12Z</time></trkpt><trkpt lat="35.792218949262086" lon="-5.560750609515583"><ele>36.0</ele><time>2026-04-28T08:27:13Z</time></trkpt><trkpt lat="35.792099500435086" lon="-5.560605303260369"><ele>36.0</ele><time>2026-04-28T08:27:14Z</time></trkpt><trkpt lat="35.79197644479465" lon="-5.560454742265571"><ele>36.0</ele><time>2026-04-28T08:27:15Z</time></trkpt><trkpt lat="35.7918555555097" lon="-5.560307623702968"><ele>36.0</ele><time>2026-04-28T08:27:16Z</time></trkpt><trkpt lat="35.791735281026675" lon="-5.5601582599829635"><ele>36.666666666666664</ele><time>2026-04-28T08:27:17Z</time></trkpt><trkpt lat="35.791616357441825" lon="-5.560008709400631"><ele>37.33333333333333</ele><time>2026-04-28T08:27:18Z</time></trkpt><trkpt lat="35.79149970722145" lon="-5.559859940124708"><ele>38.0</ele><time>2026-04-28T08:27:19Z</time></trkpt><trkpt lat="35.79137918632079" lon="-5.559717711335676"><ele>38.0</ele><time>2026-04-28T08:27:20Z</time></trkpt><trkpt lat="35.791259963064654" lon="-5.559570338786313"><ele>38.0</ele><time>2026-04-28T08:27:21Z</time></trkpt><trkpt lat="35.79114766776989" lon="-5.559422179529496"><ele>38.0</ele><time>2026-04-28T08:27:22Z</time></trkpt><trkpt lat="35.791030720802816" lon="-5.559283106560089"><ele>39.33333333333333</ele><time>2026-04-28T08:27:23Z</time></trkpt><trkpt lat="35.79091438391215" lon="-5.5591412999963685"><ele>40.666666666666664</ele><time>2026-04-28T08:27:24Z</time></trkpt><trkpt lat="35.79080259656805" lon="-5.5589941448237274"><ele>42.0</ele><time>2026-04-28T08:27:25Z</time></trkpt><trkpt lat="35.790695600044096" lon="-5.558847833778123"><ele>42.0</ele><time>2026-04-28T08:27:26Z</time></trkpt><trkpt lat="35.79058006446739" lon="-5.558693628990646"><ele>42.0</ele><time>2026-04-28T08:27:27Z</time></trkpt><trkpt lat="35.7904610990507" lon="-5.5585559654406875"><ele>42.0</ele><time>2026-04-28T08:27:28Z</time></trkpt><trkpt lat="35.79035295983878" lon="-5.558407944594309"><ele>42.0</ele><time>2026-04-28T08:27:29Z</time></trkpt><trkpt lat="35.79023764341085" lon="-5.558267900663049"><ele>42.0</ele><time>2026-04-28T08:27:30Z</time></trkpt><trkpt lat="35.79011296104294" lon="-5.558153005738859"><ele>42.0</ele><time>2026-04-28T08:27:31Z</time></trkpt><trkpt lat="35.78996618147262" lon="-5.558080878037112"><ele>45.33333333333333</ele><time>2026-04-28T08:27:32Z</time></trkpt><trkpt lat="35.78981105332076" lon="-5.558031966200815"><ele>48.666666666666664</ele><time>2026-04-28T08:27:33Z</time></trkpt><trkpt lat="35.78965048219685" lon="-5.557983220142055"><ele>52.0</ele><time>2026-04-28T08:27:34Z</time></trkpt><trkpt lat="35.789489147878456" lon="-5.557927652135847"><ele>50.0</ele><time>2026-04-28T08:27:35Z</time></trkpt><trkpt lat="35.78933034962219" lon="-5.5578628219607635"><ele>48.0</ele><time>2026-04-28T08:27:36Z</time></trkpt><trkpt lat="35.789166873587334" lon="-5.557806492590657"><ele>46.0</ele><time>2026-04-28T08:27:37Z</time></trkpt><trkpt lat="35.789004706262226" lon="-5.557749349151636"><ele>46.0</ele><time>2026-04-28T08:27:38Z</time></trkpt><trkpt lat="35.788843702015065" lon="-5.557687122254249"><ele>46.0</ele><time>2026-04-28T08:27:39Z</time></trkpt><trkpt lat="35.78868383797211" lon="-5.5576220047067855"><ele>46.0</ele><time>2026-04-28T08:27:40Z</time></trkpt><trkpt lat="35.78852116370809" lon="-5.5575594065817375"><ele>48.333333333333336</ele><time>2026-04-28T08:27:41Z</time></trkpt><trkpt lat="35.78835314257972" lon="-5.557501688862473"><ele>50.66666666666667</ele><time>2026-04-28T08:27:42Z</time></trkpt><trkpt lat="35.78818218614449" lon="-5.557443802039554"><ele>53.0</ele><time>2026-04-28T08:27:43Z</time></trkpt><trkpt lat="35.78801015250401" lon="-5.557377927544655"><ele>53.0</ele><time>2026-04-28T08:27:44Z</time></trkpt><trkpt lat="35.787841648334215" lon="-5.5573157765329215"><ele>53.0</ele><time>2026-04-28T08:27:45Z</time></trkpt><trkpt lat="35.787675966369925" lon="-5.557249538052438"><ele>53.0</ele><time>2026-04-28T08:27:46Z</time></trkpt><trkpt lat="35.78751296039801" lon="-5.557174803515479"><ele>54.333333333333336</ele><time>2026-04-28T08:27:47Z</time></trkpt><trkpt lat="35.78735171191436" lon="-5.557090420006305"><ele>55.66666666666667</ele><time>2026-04-28T08:27:48Z</time></trkpt><trkpt lat="35.787197758110835" lon="-5.5569848579112"><ele>57.0</ele><time>2026-04-28T08:27:49Z</time></trkpt><trkpt lat="35.787061951663695" lon="-5.556856867625113"><ele>56.33333333333333</ele><time>2026-04-28T08:27:50Z</time></trkpt><trkpt lat="35.786944633525366" lon="-5.556708951033471"><ele>55.666666666666664</ele><time>2026-04-28T08:27:51Z</time></trkpt><trkpt lat="35.786850734825165" lon="-5.556540385233297"><ele>55.0</ele><time>2026-04-28T08:27:52Z</time></trkpt><trkpt lat="35.78678144289421" lon="-5.5563538276903435"><ele>53.33333333333333</ele><time>2026-04-28T08:27:53Z</time></trkpt><trkpt lat="35.78674343227987" lon="-5.556158623579941"><ele>51.66666666666667</ele><time>2026-04-28T08:27:54Z</time></trkpt><trkpt lat="35.786730634957465" lon="-5.555958283784376"><ele>50.0</ele><time>2026-04-28T08:27:55Z</time></trkpt><trkpt lat="35.786724345830315" lon="-5.555754885777522"><ele>50.0</ele><time>2026-04-28T08:27:56Z</time></trkpt><trkpt lat="35.78671995197062" lon="-5.555555873327789"><ele>50.0</ele><time>2026-04-28T08:27:57Z</time></trkpt><trkpt lat="35.78671879072192" lon="-5.55535275753279"><ele>50.0</ele><time>2026-04-28T08:27:58Z</time></trkpt><trkpt lat="35.786718765856065" lon="-5.555149052327358"><ele>49.333333333333336</ele><time>2026-04-28T08:27:59Z</time></trkpt><trkpt lat="35.786721778152675" lon="-5.5549458873289295"><ele>48.66666666666667</ele><time>2026-04-28T08:28:00Z</time></trkpt><trkpt lat="35.78672573391104" lon="-5.554743272737621"><ele>48.0</ele><time>2026-04-28T08:28:01Z</time></trkpt><trkpt lat="35.7867291499914" lon="-5.554532475012675"><ele>48.0</ele><time>2026-04-28T08:28:02Z</time></trkpt><trkpt lat="35.786729898045486" lon="-5.554317154515188"><ele>48.0</ele><time>2026-04-28T08:28:03Z</time></trkpt><trkpt lat="35.78672932572941" lon="-5.554095747915135"><ele>48.0</ele><time>2026-04-28T08:28:04Z</time></trkpt><trkpt lat="35.786730327382095" lon="-5.553876677683297"><ele>48.33333333333333</ele><time>2026-04-28T08:28:05Z</time></trkpt><trkpt lat="35.78673325441284" lon="-5.5536575074218355"><ele>48.666666666666664</ele><time>2026-04-28T08:28:06Z</time></trkpt><trkpt lat="35.786739432083124" lon="-5.553436923714799"><ele>49.0</ele><time>2026-04-28T08:28:07Z</time></trkpt><trkpt lat="35.78674236817531" lon="-5.553218758500813"><ele>49.0</ele><time>2026-04-28T08:28:08Z</time></trkpt><trkpt lat="35.78673263342372" lon="-5.552997678239511"><ele>49.0</ele><time>2026-04-28T08:28:09Z</time></trkpt><trkpt lat="35.78673170536335" lon="-5.552773426010051"><ele>49.0</ele><time>2026-04-28T08:28:10Z</time></trkpt><trkpt lat="35.78673153208393" lon="-5.552549799471641"><ele>49.666666666666664</ele><time>2026-04-28T08:28:11Z</time></trkpt><trkpt lat="35.78673265813584" lon="-5.552328802548865"><ele>50.33333333333333</ele><time>2026-04-28T08:28:12Z</time></trkpt><trkpt lat="35.78672519069179" lon="-5.55210972880431"><ele>51.0</ele><time>2026-04-28T08:28:13Z</time></trkpt><trkpt lat="35.78671699441379" lon="-5.551892830859169"><ele>52.0</ele><time>2026-04-28T08:28:14Z</time></trkpt><trkpt lat="35.78670878345944" lon="-5.551676064991808"><ele>53.0</ele><time>2026-04-28T08:28:15Z</time></trkpt><trkpt lat="35.78670174293018" lon="-5.551454726099155"><ele>54.0</ele><time>2026-04-28T08:28:16Z</time></trkpt><trkpt lat="35.786695460395975" lon="-5.551235542269612"><ele>54.33333333333333</ele><time>2026-04-28T08:28:17Z</time></trkpt><trkpt lat="35.78668915637491" lon="-5.551013631006523"><ele>54.666666666666664</ele><time>2026-04-28T08:28:18Z</time></trkpt><trkpt lat="35.78668433537398" lon="-5.550797186303319"><ele>55.0</ele><time>2026-04-28T08:28:19Z</time></trkpt><trkpt lat="35.7866755940079" lon="-5.550577820609681"><ele>54.666666666666664</ele><time>2026-04-28T08:28:20Z</time></trkpt><trkpt lat="35.786665856046234" lon="-5.5503625113144786"><ele>54.33333333333333</ele><time>2026-04-28T08:28:21Z</time></trkpt><trkpt lat="35.78666033856919" lon="-5.550145492726731"><ele>54.0</ele><time>2026-04-28T08:28:22Z</time></trkpt><trkpt lat="35.78665548458712" lon="-5.5499326593567515"><ele>54.0</ele><time>2026-04-28T08:28:23Z</time></trkpt><trkpt lat="35.78664670034004" lon="-5.549716952785746"><ele>54.0</ele><time>2026-04-28T08:28:24Z</time></trkpt><trkpt lat="35.78663811274496" lon="-5.549505489974556"><ele>54.0</ele><time>2026-04-28T08:28:25Z</time></trkpt><trkpt lat="35.786625336763464" lon="-5.549301524602813"><ele>55.0</ele><time>2026-04-28T08:28:26Z</time></trkpt><trkpt lat="35.78658836729161" lon="-5.549097946630058"><ele>56.0</ele><time>2026-04-28T08:28:27Z</time></trkpt><trkpt lat="35.78653023177337" lon="-5.548905381561023"><ele>57.0</ele><time>2026-04-28T08:28:28Z</time></trkpt><trkpt lat="35.78644028905147" lon="-5.548727703052694"><ele>57.33333333333333</ele><time>2026-04-28T08:28:29Z</time></trkpt><trkpt lat="35.78633968737314" lon="-5.548558841896706"><ele>57.666666666666664</ele><time>2026-04-28T08:28:30Z</time></trkpt><trkpt lat="35.7862400655577" lon="-5.548388406266507"><ele>58.0</ele><time>2026-04-28T08:28:31Z</time></trkpt><trkpt lat="35.786143157554065" lon="-5.548217166079147"><ele>58.0</ele><time>2026-04-28T08:28:32Z</time></trkpt><trkpt lat="35.786052649464914" lon="-5.548045142931877"><ele>58.0</ele><time>2026-04-28T08:28:33Z</time></trkpt><trkpt lat="35.78597708173192" lon="-5.547882081103236"><ele>58.0</ele><time>2026-04-28T08:28:34Z</time></trkpt><trkpt lat="35.78591611256071" lon="-5.547715846294531"><ele>60.33333333333333</ele><time>2026-04-28T08:28:35Z</time></trkpt><trkpt lat="35.78586664205743" lon="-5.547536516429954"><ele>62.66666666666667</ele><time>2026-04-28T08:28:36Z</time></trkpt><trkpt lat="35.78582772860925" lon="-5.547344082478598"><ele>65.0</ele><time>2026-04-28T08:28:37Z</time></trkpt><trkpt lat="35.7857957071033" lon="-5.547144066686526"><ele>65.66666666666667</ele><time>2026-04-28T08:28:38Z</time></trkpt><trkpt lat="35.78576767398308" lon="-5.546939163596018"><ele>66.33333333333333</ele><time>2026-04-28T08:28:39Z</time></trkpt><trkpt lat="35.785734138380874" lon="-5.546739142208412"><ele>67.0</ele><time>2026-04-28T08:28:40.001Z</time></trkpt><trkpt lat="35.78569550618291" lon="-5.5465414591864715"><ele>67.0</ele><time>2026-04-28T08:28:41.001Z</time></trkpt><trkpt lat="35.785660708888656" lon="-5.5463501750409305"><ele>67.0</ele><time>2026-04-28T08:28:42.001Z</time></trkpt><trkpt lat="35.78563056024703" lon="-5.5461555854058"><ele>67.0</ele><time>2026-04-28T08:28:43.001Z</time></trkpt><trkpt lat="35.78562061243178" lon="-5.5459481845920395"><ele>66.66666666666666</ele><time>2026-04-28T08:28:44.001Z</time></trkpt><trkpt lat="35.785633420779" lon="-5.545733638575199"><ele>66.33333333333333</ele><time>2026-04-28T08:28:45.001Z</time></trkpt><trkpt lat="35.78566598522184" lon="-5.54551583173837"><ele>66.0</ele><time>2026-04-28T08:28:46.001Z</time></trkpt><trkpt lat="35.78570474035664" lon="-5.545297076116046"><ele>67.66666666666667</ele><time>2026-04-28T08:28:47.001Z</time></trkpt><trkpt lat="35.78574321971004" lon="-5.54507943029574"><ele>69.33333333333334</ele><time>2026-04-28T08:28:48.001Z</time></trkpt><trkpt lat="35.78578255548463" lon="-5.544860478517502"><ele>71.0</ele><time>2026-04-28T08:28:49.001Z</time></trkpt><trkpt lat="35.785822235784664" lon="-5.544639983968801"><ele>71.33333333333334</ele><time>2026-04-28T08:28:50.001Z</time></trkpt><trkpt lat="35.785860887812454" lon="-5.544420698671071"><ele>71.66666666666667</ele><time>2026-04-28T08:28:51.001Z</time></trkpt><trkpt lat="35.7858996897018" lon="-5.544200201086076"><ele>72.0</ele><time>2026-04-28T08:28:52.001Z</time></trkpt><trkpt lat="35.785938783884" lon="-5.543979507610627"><ele>72.0</ele><time>2026-04-28T08:28:53.001Z</time></trkpt><trkpt lat="35.78597710402772" lon="-5.543757361589148"><ele>72.0</ele><time>2026-04-28T08:28:54.001Z</time></trkpt><trkpt lat="35.786011295847175" lon="-5.543539434421356"><ele>72.0</ele><time>2026-04-28T08:28:55.001Z</time></trkpt><trkpt lat="35.78604448821011" lon="-5.543329370983244"><ele>69.66666666666667</ele><time>2026-04-28T08:28:56.001Z</time></trkpt><trkpt lat="35.78607883057664" lon="-5.543130340925643"><ele>67.33333333333334</ele><time>2026-04-28T08:28:57Z</time></trkpt><trkpt lat="35.78611385960601" lon="-5.5429363325383285"><ele>65.0</ele><time>2026-04-28T08:28:58Z</time></trkpt><trkpt lat="35.78615386072008" lon="-5.542737168696872"><ele>65.0</ele><time>2026-04-28T08:28:59Z</time></trkpt><trkpt lat="35.78620095982745" lon="-5.542552182322676"><ele>65.0</ele><time>2026-04-28T08:29:00Z</time></trkpt><trkpt lat="35.7862395129951" lon="-5.542358595847144"><ele>65.0</ele><time>2026-04-28T08:29:01Z</time></trkpt><trkpt lat="35.78627247269966" lon="-5.542161986561492"><ele>66.33333333333334</ele><time>2026-04-28T08:29:02Z</time></trkpt><trkpt lat="35.78630305642799" lon="-5.5419620168925965"><ele>67.66666666666667</ele><time>2026-04-28T08:29:03Z</time></trkpt><trkpt lat="35.78632438627506" lon="-5.541761995490028"><ele>69.0</ele><time>2026-04-28T08:29:04Z</time></trkpt><trkpt lat="35.7863294911222" lon="-5.541556137030676"><ele>69.0</ele><time>2026-04-28T08:29:05Z</time></trkpt><trkpt lat="35.786299586655474" lon="-5.541340456468749"><ele>69.0</ele><time>2026-04-28T08:29:06Z</time></trkpt><trkpt lat="35.786245515140905" lon="-5.541117491752816"><ele>69.0</ele><time>2026-04-28T08:29:07Z</time></trkpt><trkpt lat="35.78618371120094" lon="-5.5409030185832515"><ele>69.66666666666667</ele><time>2026-04-28T08:29:08Z</time></trkpt><trkpt lat="35.786128520592264" lon="-5.5406963548214385"><ele>70.33333333333334</ele><time>2026-04-28T08:29:09Z</time></trkpt><trkpt lat="35.78607634286184" lon="-5.540493838530246"><ele>71.0</ele><time>2026-04-28T08:29:10Z</time></trkpt><trkpt lat="35.78602250099823" lon="-5.540295050217861"><ele>75.0</ele><time>2026-04-28T08:29:11Z</time></trkpt><trkpt lat="35.78596797163286" lon="-5.540094349539893"><ele>79.0</ele><time>2026-04-28T08:29:12Z</time></trkpt><trkpt lat="35.78590954380626" lon="-5.53988541056163"><ele>83.0</ele><time>2026-04-28T08:29:13Z</time></trkpt><trkpt lat="35.785845076486595" lon="-5.539665023452516"><ele>82.66666666666667</ele><time>2026-04-28T08:29:14Z</time></trkpt><trkpt lat="35.78578453671182" lon="-5.539449367529143"><ele>82.33333333333333</ele><time>2026-04-28T08:29:15Z</time></trkpt><trkpt lat="35.78572382154466" lon="-5.5392432953023745"><ele>82.0</ele><time>2026-04-28T08:29:16Z</time></trkpt><trkpt lat="35.7856645452708" lon="-5.539049223005908"><ele>82.0</ele><time>2026-04-28T08:29:17Z</time></trkpt><trkpt lat="35.78561401910236" lon="-5.538864940945906"><ele>82.0</ele><time>2026-04-28T08:29:18Z</time></trkpt><trkpt lat="35.78556484285615" lon="-5.538695355437744"><ele>82.0</ele><time>2026-04-28T08:29:19Z</time></trkpt><trkpt lat="35.78551385769238" lon="-5.538530005055432"><ele>82.0</ele><time>2026-04-28T08:29:20Z</time></trkpt><trkpt lat="35.785454626819785" lon="-5.538360852075785"><ele>82.33333333333333</ele><time>2026-04-28T08:29:21Z</time></trkpt><trkpt lat="35.78538173196416" lon="-5.538190355682201"><ele>82.66666666666667</ele><time>2026-04-28T08:29:22Z</time></trkpt><trkpt lat="35.78529346609703" lon="-5.538039095550834"><ele>83.0</ele><time>2026-04-28T08:29:23Z</time></trkpt><trkpt lat="35.78517329244342" lon="-5.537920813428148"><ele>79.0</ele><time>2026-04-28T08:29:24Z</time></trkpt><trkpt lat="35.785019359347494" lon="-5.5378707382067685"><ele>75.0</ele><time>2026-04-28T08:29:25Z</time></trkpt><trkpt lat="35.78486723569188" lon="-5.537799562780674"><ele>71.0</ele><time>2026-04-28T08:29:26Z</time></trkpt><trkpt lat="35.78470992434506" lon="-5.537767769406128"><ele>71.0</ele><time>2026-04-28T08:29:27Z</time></trkpt><trkpt lat="35.78456138104723" lon="-5.537730315484592"><ele>71.0</ele><time>2026-04-28T08:29:28Z</time></trkpt><trkpt lat="35.784420814518825" lon="-5.537684423799479"><ele>71.0</ele><time>2026-04-28T08:29:29Z</time></trkpt><trkpt lat="35.78429252441189" lon="-5.537633314476936"><ele>71.0</ele><time>2026-04-28T08:29:30Z</time></trkpt><trkpt lat="35.7841801228412" lon="-5.537558268930113"><ele>71.0</ele><time>2026-04-28T08:29:31Z</time></trkpt><trkpt lat="35.78409409526794" lon="-5.537449709884831"><ele>71.0</ele><time>2026-04-28T08:29:32Z</time></trkpt><trkpt lat="35.784035859440635" lon="-5.537317662949505"><ele>71.0</ele><time>2026-04-28T08:29:33Z</time></trkpt><trkpt lat="35.783986282114626" lon="-5.537168332183113"><ele>71.0</ele><time>2026-04-28T08:29:34Z</time></trkpt><trkpt lat="35.78393799212974" lon="-5.5370040403273615"><ele>71.0</ele><time>2026-04-28T08:29:35Z</time></trkpt><trkpt lat="35.78387981902489" lon="-5.536834389306293"><ele>71.0</ele><time>2026-04-28T08:29:36Z</time></trkpt><trkpt lat="35.7837964676649" lon="-5.536685551263764"><ele>71.0</ele><time>2026-04-28T08:29:37Z</time></trkpt><trkpt lat="35.783697329187355" lon="-5.536549634777808"><ele>71.0</ele><time>2026-04-28T08:29:38Z</time></trkpt><trkpt lat="35.783571434700114" lon="-5.5364188841466575"><ele>70.66666666666667</ele><time>2026-04-28T08:29:39Z</time></trkpt><trkpt lat="35.78342931390193" lon="-5.536295210500122"><ele>70.33333333333333</ele><time>2026-04-28T08:29:40Z</time></trkpt><trkpt lat="35.783283613842826" lon="-5.536168896022565"><ele>70.0</ele><time>2026-04-28T08:29:41Z</time></trkpt><trkpt lat="35.78315113403045" lon="-5.536044031436097"><ele>71.33333333333333</ele><time>2026-04-28T08:29:42Z</time></trkpt><trkpt lat="35.78301752122709" lon="-5.535918033225594"><ele>72.66666666666667</ele><time>2026-04-28T08:29:43Z</time></trkpt><trkpt lat="35.78287586289495" lon="-5.535791168989661"><ele>74.0</ele><time>2026-04-28T08:29:44Z</time></trkpt><trkpt lat="35.782730306078385" lon="-5.535663489882884"><ele>73.33333333333334</ele><time>2026-04-28T08:29:45Z</time></trkpt><trkpt lat="35.78258606771866" lon="-5.535532331597217"><ele>72.66666666666667</ele><time>2026-04-28T08:29:46Z</time></trkpt><trkpt lat="35.78243786141849" lon="-5.535398259809952"><ele>72.0</ele><time>2026-04-28T08:29:47Z</time></trkpt><trkpt lat="35.78228664224359" lon="-5.535266649891147"><ele>72.66666666666667</ele><time>2026-04-28T08:29:48Z</time></trkpt><trkpt lat="35.78213650476674" lon="-5.535131067448231"><ele>73.33333333333334</ele><time>2026-04-28T08:29:49Z</time></trkpt><trkpt lat="35.781987497439495" lon="-5.534994804122104"><ele>74.0</ele><time>2026-04-28T08:29:50Z</time></trkpt><trkpt lat="35.781837612098286" lon="-5.53486750567185"><ele>74.0</ele><time>2026-04-28T08:29:51Z</time></trkpt><trkpt lat="35.78169023785206" lon="-5.534737937718306"><ele>74.0</ele><time>2026-04-28T08:29:52Z</time></trkpt><trkpt lat="35.781551094564755" lon="-5.534595620627412"><ele>74.0</ele><time>2026-04-28T08:29:53Z</time></trkpt><trkpt lat="35.781425055936296" lon="-5.534436184475109"><ele>77.0</ele><time>2026-04-28T08:29:54Z</time></trkpt><trkpt lat="35.78130300615925" lon="-5.534270430109962"><ele>80.0</ele><time>2026-04-28T08:29:55Z</time></trkpt><trkpt lat="35.78118559719729" lon="-5.534100490616993"><ele>83.0</ele><time>2026-04-28T08:29:56Z</time></trkpt><trkpt lat="35.78107978374254" lon="-5.53391357367259"><ele>81.33333333333334</ele><time>2026-04-28T08:29:57Z</time></trkpt><trkpt lat="35.78099499256115" lon="-5.533713684552571"><ele>79.66666666666667</ele><time>2026-04-28T08:29:58Z</time></trkpt><trkpt lat="35.7809271138236" lon="-5.533502308554667"><ele>78.0</ele><time>2026-04-28T08:29:59Z</time></trkpt><trkpt lat="35.78086007784178" lon="-5.533286370177323"><ele>78.0</ele><time>2026-04-28T08:30:00Z</time></trkpt><trkpt lat="35.780793574990525" lon="-5.53306840141438"><ele>78.0</ele><time>2026-04-28T08:30:01Z</time></trkpt><trkpt lat="35.780727466235206" lon="-5.5328472205097485"><ele>78.0</ele><time>2026-04-28T08:30:02Z</time></trkpt><trkpt lat="35.78066249994874" lon="-5.532625672559691"><ele>81.66666666666667</ele><time>2026-04-28T08:30:03Z</time></trkpt><trkpt lat="35.78060197675618" lon="-5.532397655551957"><ele>85.33333333333334</ele><time>2026-04-28T08:30:04Z</time></trkpt><trkpt lat="35.780540446214324" lon="-5.53216970121257"><ele>89.0</ele><time>2026-04-28T08:30:05Z</time></trkpt><trkpt lat="35.78047444878297" lon="-5.531940803776031"><ele>89.0</ele><time>2026-04-28T08:30:06Z</time></trkpt><trkpt lat="35.780407490080854" lon="-5.531711925710638"><ele>89.0</ele><time>2026-04-28T08:30:07Z</time></trkpt><trkpt lat="35.780339879317395" lon="-5.531482131999101"><ele>89.0</ele><time>2026-04-28T08:30:08Z</time></trkpt><trkpt lat="35.780273943456194" lon="-5.531251124110177"><ele>89.33333333333334</ele><time>2026-04-28T08:30:09Z</time></trkpt><trkpt lat="35.78021062687815" lon="-5.5310225747685084"><ele>89.66666666666667</ele><time>2026-04-28T08:30:10Z</time></trkpt><trkpt lat="35.78014414576308" lon="-5.530796250682359"><ele>90.0</ele><time>2026-04-28T08:30:11Z</time></trkpt><trkpt lat="35.78007412755235" lon="-5.530574320763242"><ele>87.66666666666667</ele><time>2026-04-28T08:30:12Z</time></trkpt><trkpt lat="35.78000713831545" lon="-5.530353870102564"><ele>85.33333333333334</ele><time>2026-04-28T08:30:13Z</time></trkpt><trkpt lat="35.779941775067215" lon="-5.53013254434926"><ele>83.0</ele><time>2026-04-28T08:30:14Z</time></trkpt><trkpt lat="35.77987545088447" lon="-5.5299104702719335"><ele>83.0</ele><time>2026-04-28T08:30:15Z</time></trkpt><trkpt lat="35.77980679555969" lon="-5.529688114532057"><ele>83.0</ele><time>2026-04-28T08:30:16Z</time></trkpt><trkpt lat="35.77974050266508" lon="-5.529464661521326"><ele>83.0</ele><time>2026-04-28T08:30:17Z</time></trkpt><trkpt lat="35.77967131068824" lon="-5.529240259633515"><ele>85.66666666666667</ele><time>2026-04-28T08:30:18Z</time></trkpt><trkpt lat="35.77959655912934" lon="-5.529015560543549"><ele>88.33333333333333</ele><time>2026-04-28T08:30:19Z</time></trkpt><trkpt lat="35.77951702303964" lon="-5.528795667075699"><ele>91.0</ele><time>2026-04-28T08:30:20Z</time></trkpt><trkpt lat="35.77943665150169" lon="-5.528578607973551"><ele>88.66666666666666</ele><time>2026-04-28T08:30:21Z</time></trkpt><trkpt lat="35.77935501248686" lon="-5.528367642107914"><ele>86.33333333333333</ele><time>2026-04-28T08:30:22Z</time></trkpt><trkpt lat="35.77927443739011" lon="-5.528171157266459"><ele>84.0</ele><time>2026-04-28T08:30:23Z</time></trkpt><trkpt lat="35.779196025632075" lon="-5.5279913014276305"><ele>87.5</ele><time>2026-04-28T08:30:24Z</time></trkpt><trkpt lat="35.77911508368844" lon="-5.527829793798317"><ele>91.0</ele><time>2026-04-28T08:30:25Z</time></trkpt><trkpt lat="35.77901204935812" lon="-5.527703664068322"><ele>94.5</ele><time>2026-04-28T08:30:26Z</time></trkpt><trkpt lat="35.778897097940835" lon="-5.5276005463096585"><ele>98.0</ele><time>2026-04-28T08:30:27Z</time></trkpt><trkpt lat="35.778765006116956" lon="-5.527522155107145"><ele>98.0</ele><time>2026-04-28T08:30:28Z</time></trkpt><trkpt lat="35.77862021733003" lon="-5.527446468973882"><ele>98.0</ele><time>2026-04-28T08:30:29Z</time></trkpt><trkpt lat="35.77846172564726" lon="-5.527375927997967"><ele>98.0</ele><time>2026-04-28T08:30:30Z</time></trkpt><trkpt lat="35.778290131087594" lon="-5.5273028754262015"><ele>94.33333333333333</ele><time>2026-04-28T08:30:31Z</time></trkpt><trkpt lat="35.77812308093997" lon="-5.52722843472613"><ele>90.66666666666666</ele><time>2026-04-28T08:30:32Z</time></trkpt><trkpt lat="35.77796861330059" lon="-5.527158187759112"><ele>87.0</ele><time>2026-04-28T08:30:33Z</time></trkpt><trkpt lat="35.77781603346822" lon="-5.527086210274165"><ele>87.33333333333333</ele><time>2026-04-28T08:30:34Z</time></trkpt><trkpt lat="35.77766918855633" lon="-5.527019135992216"><ele>87.66666666666666</ele><time>2026-04-28T08:30:35Z</time></trkpt><trkpt lat="35.77751454140492" lon="-5.52695340542412"><ele>88.0</ele><time>2026-04-28T08:30:36Z</time></trkpt><trkpt lat="35.77735838713507" lon="-5.526884098500666"><ele>88.0</ele><time>2026-04-28T08:30:37Z</time></trkpt><trkpt lat="35.77719561982731" lon="-5.526820101876427"><ele>88.0</ele><time>2026-04-28T08:30:38Z</time></trkpt><trkpt lat="35.77704319780636" lon="-5.526747219429469"><ele>88.0</ele><time>2026-04-28T08:30:39Z</time></trkpt><trkpt lat="35.776884479939326" lon="-5.5266804702766805"><ele>86.33333333333333</ele><time>2026-04-28T08:30:40Z</time></trkpt><trkpt lat="35.776726942920895" lon="-5.52660835815152"><ele>84.66666666666667</ele><time>2026-04-28T08:30:41Z</time></trkpt><trkpt lat="35.7765687334437" lon="-5.526539978459341"><ele>83.0</ele><time>2026-04-28T08:30:42Z</time></trkpt><trkpt lat="35.77640896599292" lon="-5.52647340155734"><ele>83.0</ele><time>2026-04-28T08:30:43Z</time></trkpt><trkpt lat="35.776250472886325" lon="-5.526403384032252"><ele>83.0</ele><time>2026-04-28T08:30:44Z</time></trkpt><trkpt lat="35.77609246432758" lon="-5.526331177767494"><ele>83.0</ele><time>2026-04-28T08:30:45Z</time></trkpt><trkpt lat="35.77593262827867" lon="-5.526267047806532"><ele>86.0</ele><time>2026-04-28T08:30:46Z</time></trkpt><trkpt lat="35.7757831906817" lon="-5.526187224430616"><ele>89.0</ele><time>2026-04-28T08:30:47Z</time></trkpt><trkpt lat="35.77563730888914" lon="-5.526107542208469"><ele>92.0</ele><time>2026-04-28T08:30:48Z</time></trkpt><trkpt lat="35.77548861023416" lon="-5.526047167145009"><ele>92.0</ele><time>2026-04-28T08:30:49Z</time></trkpt><trkpt lat="35.77533808879889" lon="-5.525989155777073"><ele>92.0</ele><time>2026-04-28T08:30:50Z</time></trkpt><trkpt lat="35.77519662536486" lon="-5.525927096040912"><ele>92.0</ele><time>2026-04-28T08:30:51Z</time></trkpt><trkpt lat="35.775053651956114" lon="-5.525864256799763"><ele>92.25</ele><time>2026-04-28T08:30:52Z</time></trkpt><trkpt lat="35.77490965710153" lon="-5.525838782433022"><ele>92.5</ele><time>2026-04-28T08:30:53Z</time></trkpt><trkpt lat="35.774766645394564" lon="-5.525823409808021"><ele>92.75</ele><time>2026-04-28T08:30:54Z</time></trkpt><trkpt lat="35.77462538499209" lon="-5.525833176417473"><ele>93.0</ele><time>2026-04-28T08:30:55Z</time></trkpt><trkpt lat="35.77447921217229" lon="-5.525876190126086"><ele>94.33333333333334</ele><time>2026-04-28T08:30:56Z</time></trkpt><trkpt lat="35.77432612168134" lon="-5.525930812418152"><ele>95.66666666666667</ele><time>2026-04-28T08:30:57Z</time></trkpt><trkpt lat="35.774163622779454" lon="-5.525988845357512"><ele>97.0</ele><time>2026-04-28T08:30:58Z</time></trkpt><trkpt lat="35.77399918793246" lon="-5.5260476967374075"><ele>97.0</ele><time>2026-04-28T08:30:59Z</time></trkpt><trkpt lat="35.77382823475407" lon="-5.526093164686987"><ele>97.0</ele><time>2026-04-28T08:31:00Z</time></trkpt><trkpt lat="35.77366706369025" lon="-5.526179160423504"><ele>97.0</ele><time>2026-04-28T08:31:01Z</time></trkpt><trkpt lat="35.77350002499504" lon="-5.526249976517779"><ele>97.66666666666667</ele><time>2026-04-28T08:31:02Z</time></trkpt><trkpt lat="35.77333730196027" lon="-5.526311482524989"><ele>98.33333333333334</ele><time>2026-04-28T08:31:03Z</time></trkpt><trkpt lat="35.7731737931704" lon="-5.52635475532546"><ele>99.0</ele><time>2026-04-28T08:31:04Z</time></trkpt><trkpt lat="35.77302147552784" lon="-5.52642378927507"><ele>99.0</ele><time>2026-04-28T08:31:05Z</time></trkpt><trkpt lat="35.77287081405798" lon="-5.52649164604045"><ele>99.0</ele><time>2026-04-28T08:31:06Z</time></trkpt><trkpt lat="35.77271910647599" lon="-5.526554484723566"><ele>99.0</ele><time>2026-04-28T08:31:07Z</time></trkpt><trkpt lat="35.77257495971581" lon="-5.526597982220319"><ele>100.75</ele><time>2026-04-28T08:31:08Z</time></trkpt><trkpt lat="35.77243584900575" lon="-5.526610192129638"><ele>102.5</ele><time>2026-04-28T08:31:09Z</time></trkpt><trkpt lat="35.77229540839286" lon="-5.526600750269966"><ele>104.25</ele><time>2026-04-28T08:31:10Z</time></trkpt><trkpt lat="35.772156208441594" lon="-5.5265502464419844"><ele>106.0</ele><time>2026-04-28T08:31:11Z</time></trkpt><trkpt lat="35.77201820819844" lon="-5.52647663814027"><ele>106.0</ele><time>2026-04-28T08:31:12Z</time></trkpt><trkpt lat="35.771870292799925" lon="-5.526379816128366"><ele>106.0</ele><time>2026-04-28T08:31:13Z</time></trkpt><trkpt lat="35.77171683893936" lon="-5.526284331036661"><ele>106.0</ele><time>2026-04-28T08:31:14Z</time></trkpt><trkpt lat="35.77155437104772" lon="-5.526202188355843"><ele>112.33333333333334</ele><time>2026-04-28T08:31:15Z</time></trkpt><trkpt lat="35.771381527614444" lon="-5.526162573455773"><ele>118.66666666666666</ele><time>2026-04-28T08:31:16Z</time></trkpt><trkpt lat="35.771215586167095" lon="-5.526151230694845"><ele>125.0</ele><time>2026-04-28T08:31:17Z</time></trkpt><trkpt lat="35.77106656579317" lon="-5.526147723346439"><ele>125.5</ele><time>2026-04-28T08:31:18Z</time></trkpt><trkpt lat="35.770922000571105" lon="-5.526152148082582"><ele>126.0</ele><time>2026-04-28T08:31:19Z</time></trkpt><trkpt lat="35.77079280002778" lon="-5.526168625313841"><ele>126.5</ele><time>2026-04-28T08:31:20Z</time></trkpt><trkpt lat="35.77067326176575" lon="-5.526164807029322"><ele>127.0</ele><time>2026-04-28T08:31:21Z</time></trkpt><trkpt lat="35.77057430617183" lon="-5.526136702751587"><ele>127.0</ele><time>2026-04-28T08:31:22Z</time></trkpt><trkpt lat="35.77048628698641" lon="-5.526106712583163"><ele>126.99999999999999</ele><time>2026-04-28T08:31:23Z</time></trkpt><trkpt lat="35.77039505952939" lon="-5.526070068017054"><ele>126.99999999999999</ele><time>2026-04-28T08:31:24Z</time></trkpt><trkpt lat="35.77030402103514" lon="-5.526019828606391"><ele>127.0</ele><time>2026-04-28T08:31:25Z</time></trkpt><trkpt lat="35.77020193039448" lon="-5.525970964445022"><ele>127.0</ele><time>2026-04-28T08:31:26Z</time></trkpt><trkpt lat="35.77009046332707" lon="-5.525977707100778"><ele>127.6</ele><time>2026-04-28T08:31:27Z</time></trkpt><trkpt lat="35.76998421110431" lon="-5.52599243003477"><ele>128.2</ele><time>2026-04-28T08:31:28Z</time></trkpt><trkpt lat="35.769879091002146" lon="-5.526004865314224"><ele>128.8</ele><time>2026-04-28T08:31:29Z</time></trkpt><trkpt lat="35.769791212509325" lon="-5.526032342905397"><ele>129.4</ele><time>2026-04-28T08:31:30Z</time></trkpt><trkpt lat="35.769684211751624" lon="-5.526045182722986"><ele>130.0</ele><time>2026-04-28T08:31:31Z</time></trkpt><trkpt lat="35.76958101785323" lon="-5.526113793172575"><ele>130.0</ele><time>2026-04-28T08:31:32Z</time></trkpt><trkpt lat="35.769463265922376" lon="-5.526165438246151"><ele>130.0</ele><time>2026-04-28T08:31:33Z</time></trkpt><trkpt lat="35.76933367080735" lon="-5.526193076452688"><ele>130.0</ele><time>2026-04-28T08:31:34Z</time></trkpt><trkpt lat="35.76920351247692" lon="-5.526200515749531"><ele>130.0</ele><time>2026-04-28T08:31:35Z</time></trkpt><trkpt lat="35.769078285814736" lon="-5.526192439651043"><ele>132.0</ele><time>2026-04-28T08:31:36Z</time></trkpt><trkpt lat="35.76896316860751" lon="-5.526165069300499"><ele>134.0</ele><time>2026-04-28T08:31:37Z</time></trkpt><trkpt lat="35.768853302719556" lon="-5.526114364065746"><ele>136.0</ele><time>2026-04-28T08:31:38Z</time></trkpt><trkpt lat="35.768756800365665" lon="-5.526034480389314"><ele>138.0</ele><time>2026-04-28T08:31:39Z</time></trkpt><trkpt lat="35.768674298537405" lon="-5.525929161374313"><ele>138.0</ele><time>2026-04-28T08:31:40Z</time></trkpt><trkpt lat="35.76860369810265" lon="-5.525806623438235"><ele>138.0</ele><time>2026-04-28T08:31:41Z</time></trkpt><trkpt lat="35.76855221685254" lon="-5.52565714065137"><ele>138.0</ele><time>2026-04-28T08:31:42Z</time></trkpt><trkpt lat="35.76850510204855" lon="-5.525505278672256"><ele>138.0</ele><time>2026-04-28T08:31:43Z</time></trkpt><trkpt lat="35.76844115033954" lon="-5.525357942903404"><ele>139.25</ele><time>2026-04-28T08:31:44Z</time></trkpt><trkpt lat="35.768374230943515" lon="-5.52521605570545"><ele>140.5</ele><time>2026-04-28T08:31:45Z</time></trkpt><trkpt lat="35.768307172588834" lon="-5.525091715167824"><ele>141.75</ele><time>2026-04-28T08:31:46Z</time></trkpt><trkpt lat="35.76821387004292" lon="-5.5249792849048225"><ele>143.0</ele><time>2026-04-28T08:31:47Z</time></trkpt><trkpt lat="35.76809596413943" lon="-5.524888982366116"><ele>143.0</ele><time>2026-04-28T08:31:48Z</time></trkpt><trkpt lat="35.76795992559548" lon="-5.524842745143255"><ele>143.0</ele><time>2026-04-28T08:31:49Z</time></trkpt><trkpt lat="35.76782369268979" lon="-5.524781116107563"><ele>143.0</ele><time>2026-04-28T08:31:50Z</time></trkpt><trkpt lat="35.76767862418867" lon="-5.524724850767362"><ele>143.0</ele><time>2026-04-28T08:31:51Z</time></trkpt><trkpt lat="35.76753194189662" lon="-5.5246585772184975"><ele>142.33333333333331</ele><time>2026-04-28T08:31:52Z</time></trkpt><trkpt lat="35.76738194643017" lon="-5.524594844885439"><ele>141.66666666666666</ele><time>2026-04-28T08:31:53Z</time></trkpt><trkpt lat="35.767233650507194" lon="-5.524530653514009"><ele>141.0</ele><time>2026-04-28T08:31:54Z</time></trkpt><trkpt lat="35.76708944610825" lon="-5.524478528843493"><ele>143.5</ele><time>2026-04-28T08:31:55Z</time></trkpt><trkpt lat="35.76694947788302" lon="-5.52441903215811"><ele>146.0</ele><time>2026-04-28T08:31:56Z</time></trkpt><trkpt lat="35.766820317549744" lon="-5.52435277558189"><ele>148.5</ele><time>2026-04-28T08:31:57Z</time></trkpt><trkpt lat="35.76671225859809" lon="-5.524250511197432"><ele>151.0</ele><time>2026-04-28T08:31:58Z</time></trkpt><trkpt lat="35.76661672991466" lon="-5.524117081556234"><ele>151.0</ele><time>2026-04-28T08:31:59Z</time></trkpt><trkpt lat="35.76653288142685" lon="-5.523960621938451"><ele>151.0</ele><time>2026-04-28T08:32:00Z</time></trkpt><trkpt lat="35.76644656461531" lon="-5.523811101311451"><ele>151.0</ele><time>2026-04-28T08:32:01Z</time></trkpt><trkpt lat="35.766362442825894" lon="-5.523680041163821"><ele>151.0</ele><time>2026-04-28T08:32:02Z</time></trkpt><trkpt lat="35.76628534613123" lon="-5.523554111244045"><ele>154.6</ele><time>2026-04-28T08:32:03Z</time></trkpt><trkpt lat="35.766215466805555" lon="-5.5234423836745"><ele>158.2</ele><time>2026-04-28T08:32:04Z</time></trkpt><trkpt lat="35.76617119203558" lon="-5.5233308527459135"><ele>161.79999999999998</ele><time>2026-04-28T08:32:05Z</time></trkpt><trkpt lat="35.76616546429435" lon="-5.523207703882757"><ele>165.39999999999998</ele><time>2026-04-28T08:32:06Z</time></trkpt><trkpt lat="35.766178179586554" lon="-5.5230749112306965"><ele>169.0</ele><time>2026-04-28T08:32:07Z</time></trkpt><trkpt lat="35.76620207501669" lon="-5.522944459197347"><ele>170.0</ele><time>2026-04-28T08:32:08Z</time></trkpt><trkpt lat="35.76623048448752" lon="-5.5228169539569905"><ele>171.0</ele><time>2026-04-28T08:32:09Z</time></trkpt><trkpt lat="35.766253891655836" lon="-5.522698153324461"><ele>172.0</ele><time>2026-04-28T08:32:10Z</time></trkpt><trkpt lat="35.76626843866508" lon="-5.522571347345253"><ele>173.0</ele><time>2026-04-28T08:32:11Z</time></trkpt><trkpt lat="35.76625807668977" lon="-5.522439205783458"><ele>174.0</ele><time>2026-04-28T08:32:12Z</time></trkpt><trkpt lat="35.76621750033491" lon="-5.522304028065542"><ele>174.0</ele><time>2026-04-28T08:32:13Z</time></trkpt><trkpt lat="35.76612627307866" lon="-5.522211599561161"><ele>174.0</ele><time>2026-04-28T08:32:14Z</time></trkpt><trkpt lat="35.76603830484582" lon="-5.522113019737037"><ele>174.0</ele><time>2026-04-28T08:32:15Z</time></trkpt><trkpt lat="35.765958207940564" lon="-5.522002984882449"><ele>174.0</ele><time>2026-04-28T08:32:16Z</time></trkpt><trkpt lat="35.76586004309513" lon="-5.521900499107238"><ele>173.75</ele><time>2026-04-28T08:32:17Z</time></trkpt><trkpt lat="35.76577605345625" lon="-5.521777403503987"><ele>173.5</ele><time>2026-04-28T08:32:18Z</time></trkpt><trkpt lat="35.76571317676465" lon="-5.52164235298879"><ele>173.25</ele><time>2026-04-28T08:32:19Z</time></trkpt><trkpt lat="35.765667475668934" lon="-5.5214950866928305"><ele>173.0</ele><time>2026-04-28T08:32:20Z</time></trkpt><trkpt lat="35.76562499417215" lon="-5.521351299910357"><ele>173.0</ele><time>2026-04-28T08:32:21Z</time></trkpt><trkpt lat="35.765572436198" lon="-5.521235564164971"><ele>173.0</ele><time>2026-04-28T08:32:22Z</time></trkpt><trkpt lat="35.765489550928756" lon="-5.521151848105208"><ele>173.0</ele><time>2026-04-28T08:32:23Z</time></trkpt><trkpt lat="35.76538669828964" lon="-5.521093742458888"><ele>173.0</ele><time>2026-04-28T08:32:24Z</time></trkpt><trkpt lat="35.76527356917522" lon="-5.521059260854903"><ele>173.0</ele><time>2026-04-28T08:32:25Z</time></trkpt><trkpt lat="35.76515354010218" lon="-5.5210522216167845"><ele>174.0</ele><time>2026-04-28T08:32:26Z</time></trkpt><trkpt lat="35.76502394831066" lon="-5.521067561695345"><ele>175.0</ele><time>2026-04-28T08:32:27Z</time></trkpt><trkpt lat="35.7648864457794" lon="-5.521089874784287"><ele>176.0</ele><time>2026-04-28T08:32:28Z</time></trkpt><trkpt lat="35.76475283163726" lon="-5.521130359223733"><ele>177.0</ele><time>2026-04-28T08:32:29Z</time></trkpt><trkpt lat="35.76464183673681" lon="-5.52122434631947"><ele>176.75</ele><time>2026-04-28T08:32:30Z</time></trkpt><trkpt lat="35.76453172114017" lon="-5.521311063539257"><ele>176.5</ele><time>2026-04-28T08:32:31Z</time></trkpt><trkpt lat="35.764446044888224" lon="-5.521421385646505"><ele>176.25</ele><time>2026-04-28T08:32:32Z</time></trkpt><trkpt lat="35.76435735297461" lon="-5.521511004231758"><ele>176.0</ele><time>2026-04-28T08:32:33Z</time></trkpt><trkpt lat="35.76425484464094" lon="-5.521571335233091"><ele>176.0</ele><time>2026-04-28T08:32:34Z</time></trkpt><trkpt lat="35.76413629546403" lon="-5.5215951696180605"><ele>176.0</ele><time>2026-04-28T08:32:35Z</time></trkpt><trkpt lat="35.764012234263085" lon="-5.521584072877342"><ele>176.0</ele><time>2026-04-28T08:32:36Z</time></trkpt><trkpt lat="35.76388123903619" lon="-5.521554429387434"><ele>176.0</ele><time>2026-04-28T08:32:37Z</time></trkpt><trkpt lat="35.76374887770947" lon="-5.521518048738317"><ele>176.0</ele><time>2026-04-28T08:32:38Z</time></trkpt><trkpt lat="35.76361328033175" lon="-5.521511198344113"><ele>176.0</ele><time>2026-04-28T08:32:39Z</time></trkpt><trkpt lat="35.76348745382547" lon="-5.521556003743137"><ele>176.0</ele><time>2026-04-28T08:32:40Z</time></trkpt><trkpt lat="35.76337358591617" lon="-5.5216367228971075"><ele>176.0</ele><time>2026-04-28T08:32:41Z</time></trkpt><trkpt lat="35.76326726152764" lon="-5.5217360329602725"><ele>178.25</ele><time>2026-04-28T08:32:42Z</time></trkpt><trkpt lat="35.763157434043116" lon="-5.5218295546887335"><ele>180.5</ele><time>2026-04-28T08:32:43Z</time></trkpt><trkpt lat="35.763056356117666" lon="-5.521897066067902"><ele>182.75</ele><time>2026-04-28T08:32:44Z</time></trkpt><trkpt lat="35.76295915878066" lon="-5.521928943002392"><ele>185.0</ele><time>2026-04-28T08:32:45Z</time></trkpt><trkpt lat="35.76285764935535" lon="-5.52193030749524"><ele>185.0</ele><time>2026-04-28T08:32:46Z</time></trkpt><trkpt lat="35.762748441988904" lon="-5.521896281610726"><ele>185.0</ele><time>2026-04-28T08:32:47Z</time></trkpt><trkpt lat="35.76263225372417" lon="-5.521826309839549"><ele>185.0</ele><time>2026-04-28T08:32:48Z</time></trkpt><trkpt lat="35.76252557031435" lon="-5.521728684060339"><ele>185.0</ele><time>2026-04-28T08:32:49Z</time></trkpt><trkpt lat="35.76242906256351" lon="-5.5216127874289755"><ele>185.75</ele><time>2026-04-28T08:32:50Z</time></trkpt><trkpt lat="35.76232910527905" lon="-5.521500307068737"><ele>186.5</ele><time>2026-04-28T08:32:51Z</time></trkpt><trkpt lat="35.76222823812069" lon="-5.521385430081497"><ele>187.25</ele><time>2026-04-28T08:32:52Z</time></trkpt><trkpt lat="35.762136562583876" lon="-5.521256098458599"><ele>188.0</ele><time>2026-04-28T08:32:53Z</time></trkpt><trkpt lat="35.762054286335186" lon="-5.521113638101743"><ele>189.25</ele><time>2026-04-28T08:32:54Z</time></trkpt><trkpt lat="35.76198402010187" lon="-5.520956446317083"><ele>190.5</ele><time>2026-04-28T08:32:55Z</time></trkpt><trkpt lat="35.7619232018188" lon="-5.520791048071463"><ele>191.75</ele><time>2026-04-28T08:32:56Z</time></trkpt><trkpt lat="35.76186381755889" lon="-5.520617712513721"><ele>193.0</ele><time>2026-04-28T08:32:57Z</time></trkpt><trkpt lat="35.76180020738809" lon="-5.520446964274138"><ele>196.66666666666666</ele><time>2026-04-28T08:32:58Z</time></trkpt><trkpt lat="35.76174225772893" lon="-5.520270427584737"><ele>200.33333333333331</ele><time>2026-04-28T08:32:59Z</time></trkpt><trkpt lat="35.761688276940674" lon="-5.520093255852917"><ele>204.0</ele><time>2026-04-28T08:33:00Z</time></trkpt><trkpt lat="35.76163233006936" lon="-5.519923394082593"><ele>204.0</ele><time>2026-04-28T08:33:01Z</time></trkpt><trkpt lat="35.76157391481582" lon="-5.519774874066324"><ele>204.0</ele><time>2026-04-28T08:33:02Z</time></trkpt><trkpt lat="35.76150250393998" lon="-5.519650680147673"><ele>204.0</ele><time>2026-04-28T08:33:03Z</time></trkpt><trkpt lat="35.76141047750807" lon="-5.5195509027928304"><ele>204.0</ele><time>2026-04-28T08:33:04Z</time></trkpt><trkpt lat="35.7612970112394" lon="-5.519484849230631"><ele>202.5</ele><time>2026-04-28T08:33:05Z</time></trkpt><trkpt lat="35.76117329708055" lon="-5.519451986317621"><ele>201.0</ele><time>2026-04-28T08:33:06Z</time></trkpt><trkpt lat="35.76104853356348" lon="-5.519459711483077"><ele>199.5</ele><time>2026-04-28T08:33:07Z</time></trkpt><trkpt lat="35.76093447725805" lon="-5.519528099438045"><ele>198.0</ele><time>2026-04-28T08:33:08Z</time></trkpt><trkpt lat="35.76081014597488" lon="-5.519575753564661"><ele>198.0</ele><time>2026-04-28T08:33:09Z</time></trkpt><trkpt lat="35.76069836977932" lon="-5.519639002998284"><ele>198.0</ele><time>2026-04-28T08:33:10Z</time></trkpt><trkpt lat="35.76057713236306" lon="-5.519644135141247"><ele>198.0</ele><time>2026-04-28T08:33:11Z</time></trkpt><trkpt lat="35.760444250075714" lon="-5.519612645932521"><ele>198.0</ele><time>2026-04-28T08:33:12Z</time></trkpt><trkpt lat="35.760337821696304" lon="-5.519576411556741"><ele>202.0</ele><time>2026-04-28T08:33:13Z</time></trkpt><trkpt lat="35.760226893027635" lon="-5.5194802131277445"><ele>206.0</ele><time>2026-04-28T08:33:14Z</time></trkpt><trkpt lat="35.76013346794404" lon="-5.5193508807784095"><ele>210.0</ele><time>2026-04-28T08:33:15Z</time></trkpt><trkpt lat="35.76003743665138" lon="-5.519218211829064"><ele>214.0</ele><time>2026-04-28T08:33:16Z</time></trkpt><trkpt lat="35.75990598361142" lon="-5.5191275274994585"><ele>214.0</ele><time>2026-04-28T08:33:17Z</time></trkpt><trkpt lat="35.75975746750488" lon="-5.519084354879243"><ele>214.0</ele><time>2026-04-28T08:33:18Z</time></trkpt><trkpt lat="35.75960649209509" lon="-5.519053319132067"><ele>214.0</ele><time>2026-04-28T08:33:19Z</time></trkpt><trkpt lat="35.75945855802248" lon="-5.51899909307786"><ele>213.5</ele><time>2026-04-28T08:33:20Z</time></trkpt><trkpt lat="35.75931666212504" lon="-5.518918415898014"><ele>213.0</ele><time>2026-04-28T08:33:21Z</time></trkpt><trkpt lat="35.75918735980433" lon="-5.518825462543369"><ele>212.5</ele><time>2026-04-28T08:33:22Z</time></trkpt><trkpt lat="35.75906830196387" lon="-5.518753747523729"><ele>212.0</ele><time>2026-04-28T08:33:23Z</time></trkpt><trkpt lat="35.75895100073257" lon="-5.518714370118083"><ele>212.0</ele><time>2026-04-28T08:33:24Z</time></trkpt><trkpt lat="35.75883058922353" lon="-5.518721590177281"><ele>212.0</ele><time>2026-04-28T08:33:25Z</time></trkpt><trkpt lat="35.75871540126207" lon="-5.518757966411846"><ele>212.0</ele><time>2026-04-28T08:33:26Z</time></trkpt><trkpt lat="35.75861233852932" lon="-5.5187819694108"><ele>212.0</ele><time>2026-04-28T08:33:27Z</time></trkpt><trkpt lat="35.75852201139193" lon="-5.51877849077473"><ele>212.0</ele><time>2026-04-28T08:33:28Z</time></trkpt><trkpt lat="35.75843721666262" lon="-5.51874137287711"><ele>215.5</ele><time>2026-04-28T08:33:29Z</time></trkpt><trkpt lat="35.7583598330607" lon="-5.518654717831338"><ele>219.0</ele><time>2026-04-28T08:33:30Z</time></trkpt><trkpt lat="35.758289037893654" lon="-5.5185483164261715"><ele>222.5</ele><time>2026-04-28T08:33:31Z</time></trkpt><trkpt lat="35.75823188466298" lon="-5.518426322329239"><ele>226.0</ele><time>2026-04-28T08:33:32Z</time></trkpt><trkpt lat="35.75819715237366" lon="-5.518277422185363"><ele>226.0</ele><time>2026-04-28T08:33:33Z</time></trkpt><trkpt lat="35.75819067948149" lon="-5.518105870252681"><ele>226.0</ele><time>2026-04-28T08:33:34Z</time></trkpt><trkpt lat="35.75819909572016" lon="-5.517954679512964"><ele>226.0</ele><time>2026-04-28T08:33:35Z</time></trkpt><trkpt lat="35.75820061774665" lon="-5.517821735045205"><ele>226.0</ele><time>2026-04-28T08:33:36Z</time></trkpt><trkpt lat="35.758181285638365" lon="-5.517707842186132"><ele>228.0</ele><time>2026-04-28T08:33:37Z</time></trkpt><trkpt lat="35.75814780735153" lon="-5.517601917672525"><ele>230.00000000000003</ele><time>2026-04-28T08:33:38Z</time></trkpt><trkpt lat="35.75807350002802" lon="-5.517519804296072"><ele>232.00000000000003</ele><time>2026-04-28T08:33:39Z</time></trkpt><trkpt lat="35.757987623833706" lon="-5.517447259091171"><ele>234.0</ele><time>2026-04-28T08:33:40Z</time></trkpt><trkpt lat="35.75788213426071" lon="-5.51736626836197"><ele>236.0</ele><time>2026-04-28T08:33:41Z</time></trkpt><trkpt lat="35.75776270395258" lon="-5.517304699879138"><ele>236.75</ele><time>2026-04-28T08:33:42Z</time></trkpt><trkpt lat="35.75765820497426" lon="-5.517221012209259"><ele>237.5</ele><time>2026-04-28T08:33:43Z</time></trkpt><trkpt lat="35.757578776801665" lon="-5.5171002699146525"><ele>238.25</ele><time>2026-04-28T08:33:44Z</time></trkpt><trkpt lat="35.75751628359431" lon="-5.516965973108059"><ele>239.0</ele><time>2026-04-28T08:33:45Z</time></trkpt><trkpt lat="35.75748130111832" lon="-5.516818359202214"><ele>239.0</ele><time>2026-04-28T08:33:46Z</time></trkpt><trkpt lat="35.75746911784994" lon="-5.516672113145497"><ele>238.99999999999997</ele><time>2026-04-28T08:33:47Z</time></trkpt><trkpt lat="35.75745515521291" lon="-5.51653790523572"><ele>238.99999999999997</ele><time>2026-04-28T08:33:48Z</time></trkpt><trkpt lat="35.757415817427706" lon="-5.516419623683423"><ele>239.0</ele><time>2026-04-28T08:33:49Z</time></trkpt><trkpt lat="35.75738283066765" lon="-5.516304217408988"><ele>239.0</ele><time>2026-04-28T08:33:50Z</time></trkpt><trkpt lat="35.7573486141048" lon="-5.516185375743845"><ele>242.25</ele><time>2026-04-28T08:33:51Z</time></trkpt><trkpt lat="35.757325484810465" lon="-5.516070017940416"><ele>245.5</ele><time>2026-04-28T08:33:52Z</time></trkpt><trkpt lat="35.757267539204996" lon="-5.515936859568889"><ele>248.75</ele><time>2026-04-28T08:33:53Z</time></trkpt><trkpt lat="35.75720931857268" lon="-5.515792716393245"><ele>252.0</ele><time>2026-04-28T08:33:54Z</time></trkpt><trkpt lat="35.7571436844082" lon="-5.515632258931696"><ele>252.0</ele><time>2026-04-28T08:33:55Z</time></trkpt><trkpt lat="35.75706569493376" lon="-5.515463493413637"><ele>252.0</ele><time>2026-04-28T08:33:56Z</time></trkpt><trkpt lat="35.75698543646232" lon="-5.515306805960732"><ele>252.0</ele><time>2026-04-28T08:33:57Z</time></trkpt><trkpt lat="35.756892372488565" lon="-5.515162137152638"><ele>250.66666666666669</ele><time>2026-04-28T08:33:58Z</time></trkpt><trkpt lat="35.75677450393337" lon="-5.515024728386899"><ele>249.33333333333334</ele><time>2026-04-28T08:33:59Z</time></trkpt><trkpt lat="35.75665410861276" lon="-5.51488295171733"><ele>248.0</ele><time>2026-04-28T08:34:00Z</time></trkpt><trkpt lat="35.75654437525757" lon="-5.514728249281052"><ele>253.66666666666669</ele><time>2026-04-28T08:34:01Z</time></trkpt><trkpt lat="35.75644044358339" lon="-5.514571027337031"><ele>259.3333333333333</ele><time>2026-04-28T08:34:02Z</time></trkpt><trkpt lat="35.75633611404091" lon="-5.514417482789158"><ele>265.0</ele><time>2026-04-28T08:34:03Z</time></trkpt><trkpt lat="35.756236704505945" lon="-5.51427122224099"><ele>265.0</ele><time>2026-04-28T08:34:04Z</time></trkpt><trkpt lat="35.75615189875306" lon="-5.514135744715949"><ele>265.0</ele><time>2026-04-28T08:34:05Z</time></trkpt><trkpt lat="35.75608991011947" lon="-5.513995973935344"><ele>265.0</ele><time>2026-04-28T08:34:06Z</time></trkpt><trkpt lat="35.756055789692134" lon="-5.513841133313344"><ele>265.0</ele><time>2026-04-28T08:34:07Z</time></trkpt><trkpt lat="35.756030085143784" lon="-5.513677251821116"><ele>264.0</ele><time>2026-04-28T08:34:08Z</time></trkpt><trkpt lat="35.75600170038767" lon="-5.513519880743139"><ele>263.0</ele><time>2026-04-28T08:34:09Z</time></trkpt><trkpt lat="35.755969474200796" lon="-5.513385358667215"><ele>262.0</ele><time>2026-04-28T08:34:10Z</time></trkpt><trkpt lat="35.755918070428635" lon="-5.513276648176642"><ele>261.0</ele><time>2026-04-28T08:34:11Z</time></trkpt><trkpt lat="35.75584042005974" lon="-5.513186512263151"><ele>261.0</ele><time>2026-04-28T08:34:12Z</time></trkpt><trkpt lat="35.755741752895496" lon="-5.513113041382576"><ele>261.0</ele><time>2026-04-28T08:34:13Z</time></trkpt><trkpt lat="35.75562527017618" lon="-5.513072520729045"><ele>261.0</ele><time>2026-04-28T08:34:14Z</time></trkpt><trkpt lat="35.75550097072868" lon="-5.5130784137802085"><ele>261.0</ele><time>2026-04-28T08:34:15Z</time></trkpt><trkpt lat="35.7553777448814" lon="-5.5131282069464005"><ele>261.0</ele><time>2026-04-28T08:34:16Z</time></trkpt><trkpt lat="35.755259895929335" lon="-5.513209796828287"><ele>261.0</ele><time>2026-04-28T08:34:17Z</time></trkpt><trkpt lat="35.755145050647585" lon="-5.513314375271483"><ele>261.0</ele><time>2026-04-28T08:34:18Z</time></trkpt><trkpt lat="35.75502388438497" lon="-5.513405408722397"><ele>261.0</ele><time>2026-04-28T08:34:19Z</time></trkpt><trkpt lat="35.754888190662626" lon="-5.513463447410363"><ele>261.3333333333333</ele><time>2026-04-28T08:34:20Z</time></trkpt><trkpt lat="35.754736082509915" lon="-5.513489409605791"><ele>261.66666666666663</ele><time>2026-04-28T08:34:21Z</time></trkpt><trkpt lat="35.754571090941475" lon="-5.513498357481505"><ele>262.0</ele><time>2026-04-28T08:34:22Z</time></trkpt><trkpt lat="35.754408551887586" lon="-5.513496947188155"><ele>265.0</ele><time>2026-04-28T08:34:23Z</time></trkpt><trkpt lat="35.75424314610657" lon="-5.513496370195339"><ele>268.0</ele><time>2026-04-28T08:34:24Z</time></trkpt><trkpt lat="35.75407148072941" lon="-5.513506487138295"><ele>271.0</ele><time>2026-04-28T08:34:25Z</time></trkpt><trkpt lat="35.75389468184659" lon="-5.513521765915628"><ele>271.0</ele><time>2026-04-28T08:34:26Z</time></trkpt><trkpt lat="35.75372093609382" lon="-5.513530761496519"><ele>271.0</ele><time>2026-04-28T08:34:27Z</time></trkpt><trkpt lat="35.75355240439557" lon="-5.5135320704199025"><ele>271.0</ele><time>2026-04-28T08:34:28Z</time></trkpt><trkpt lat="35.753388737067795" lon="-5.513545636693372"><ele>268.66666666666663</ele><time>2026-04-28T08:34:29Z</time></trkpt><trkpt lat="35.75322927838985" lon="-5.5135892975106255"><ele>266.3333333333333</ele><time>2026-04-28T08:34:30Z</time></trkpt><trkpt lat="35.75307953559173" lon="-5.513675074531807"><ele>264.0</ele><time>2026-04-28T08:34:31Z</time></trkpt><trkpt lat="35.75292956791069" lon="-5.513779159865292"><ele>264.0</ele><time>2026-04-28T08:34:32Z</time></trkpt><trkpt lat="35.75277803362223" lon="-5.513871246396301"><ele>264.0</ele><time>2026-04-28T08:34:33Z</time></trkpt><trkpt lat="35.75262127630502" lon="-5.513968312651242"><ele>264.0</ele><time>2026-04-28T08:34:34Z</time></trkpt><trkpt lat="35.75246716177957" lon="-5.514071500224262"><ele>267.6666666666667</ele><time>2026-04-28T08:34:35Z</time></trkpt><trkpt lat="35.75230919529652" lon="-5.5141716466054875"><ele>271.33333333333337</ele><time>2026-04-28T08:34:36Z</time></trkpt><trkpt lat="35.75215149567575" lon="-5.514272415717433"><ele>275.0</ele><time>2026-04-28T08:34:37Z</time></trkpt><trkpt lat="35.75200698219413" lon="-5.514362986537624"><ele>277.5</ele><time>2026-04-28T08:34:38Z</time></trkpt><trkpt lat="35.75187188559697" lon="-5.51444501665209"><ele>280.0</ele><time>2026-04-28T08:34:39Z</time></trkpt><trkpt lat="35.75173214526039" lon="-5.514509432128527"><ele>282.5</ele><time>2026-04-28T08:34:40Z</time></trkpt><trkpt lat="35.751584967549135" lon="-5.514540165102116"><ele>285.0</ele><time>2026-04-28T08:34:41Z</time></trkpt><trkpt lat="35.75143525722602" lon="-5.514534115218203"><ele>285.0</ele><time>2026-04-28T08:34:42Z</time></trkpt><trkpt lat="35.75128552391407" lon="-5.514497731677267"><ele>285.0</ele><time>2026-04-28T08:34:43Z</time></trkpt><trkpt lat="35.75113818957809" lon="-5.514430871734529"><ele>285.0</ele><time>2026-04-28T08:34:44Z</time></trkpt><trkpt lat="35.75100442554708" lon="-5.51433403076763"><ele>283.6666666666667</ele><time>2026-04-28T08:34:45Z</time></trkpt><trkpt lat="35.75088250401384" lon="-5.514213864425239"><ele>282.33333333333337</ele><time>2026-04-28T08:34:46Z</time></trkpt><trkpt lat="35.75077931939881" lon="-5.514066464446421"><ele>281.0</ele><time>2026-04-28T08:34:47Z</time></trkpt><trkpt lat="35.750689712317566" lon="-5.51389792912059"><ele>286.6666666666667</ele><time>2026-04-28T08:34:48Z</time></trkpt><trkpt lat="35.75059786470081" lon="-5.513719737756425"><ele>292.3333333333333</ele><time>2026-04-28T08:34:49Z</time></trkpt><trkpt lat="35.75050178835674" lon="-5.513536721465819"><ele>298.0</ele><time>2026-04-28T08:34:50Z</time></trkpt><trkpt lat="35.750399102537614" lon="-5.51335199853907"><ele>298.0</ele><time>2026-04-28T08:34:51Z</time></trkpt><trkpt lat="35.75029329047327" lon="-5.513161049549511"><ele>298.0</ele><time>2026-04-28T08:34:52Z</time></trkpt><trkpt lat="35.750190171056026" lon="-5.512969483855811"><ele>298.0</ele><time>2026-04-28T08:34:53Z</time></trkpt><trkpt lat="35.75008448702196" lon="-5.512783842933294"><ele>298.3333333333333</ele><time>2026-04-28T08:34:54Z</time></trkpt><trkpt lat="35.749960504520175" lon="-5.512619245322607"><ele>298.6666666666667</ele><time>2026-04-28T08:34:55Z</time></trkpt><trkpt lat="35.749812449931426" lon="-5.512489385273128"><ele>299.0</ele><time>2026-04-28T08:34:56Z</time></trkpt><trkpt lat="35.74966032044022" lon="-5.512371007362744"><ele>299.0</ele><time>2026-04-28T08:34:57Z</time></trkpt><trkpt lat="35.74951372578304" lon="-5.512248302881383"><ele>299.0</ele><time>2026-04-28T08:34:58Z</time></trkpt><trkpt lat="35.74936946710934" lon="-5.512120558031623"><ele>299.0</ele><time>2026-04-28T08:34:59Z</time></trkpt><trkpt lat="35.74921810989816" lon="-5.512007065628262"><ele>303.0</ele><time>2026-04-28T08:35:00Z</time></trkpt><trkpt lat="35.74905698319233" lon="-5.511923230723374"><ele>307.0</ele><time>2026-04-28T08:35:01Z</time></trkpt><trkpt lat="35.74888736560108" lon="-5.511875355367213"><ele>311.0</ele><time>2026-04-28T08:35:02Z</time></trkpt><trkpt lat="35.74871242814231" lon="-5.511861884842032"><ele>311.0</ele><time>2026-04-28T08:35:03Z</time></trkpt><trkpt lat="35.748534338859976" lon="-5.511879175113099"><ele>311.0</ele><time>2026-04-28T08:35:04Z</time></trkpt><trkpt lat="35.74834821799047" lon="-5.511923636293253"><ele>311.0</ele><time>2026-04-28T08:35:05Z</time></trkpt><trkpt lat="35.748155275145265" lon="-5.511975810272092"><ele>311.0</ele><time>2026-04-28T08:35:06Z</time></trkpt><trkpt lat="35.74795451053979" lon="-5.5120320891020835"><ele>311.0</ele><time>2026-04-28T08:35:07Z</time></trkpt><trkpt lat="35.74776096792751" lon="-5.5120768686809525"><ele>311.0</ele><time>2026-04-28T08:35:08Z</time></trkpt><trkpt lat="35.74759571872616" lon="-5.51214016274223"><ele>308.6666666666667</ele><time>2026-04-28T08:35:09Z</time></trkpt><trkpt lat="35.74743342862993" lon="-5.512190592644873"><ele>306.3333333333333</ele><time>2026-04-28T08:35:10Z</time></trkpt><trkpt lat="35.747275129598094" lon="-5.512236567647693"><ele>304.0</ele><time>2026-04-28T08:35:11Z</time></trkpt><trkpt lat="35.74712761307529" lon="-5.5122586561495"><ele>304.0</ele><time>2026-04-28T08:35:12Z</time></trkpt><trkpt lat="35.74699118664323" lon="-5.512242861018976"><ele>304.0</ele><time>2026-04-28T08:35:13Z</time></trkpt><trkpt lat="35.74685937347692" lon="-5.512192725563743"><ele>304.0</ele><time>2026-04-28T08:35:14Z</time></trkpt><trkpt lat="35.7467216158102" lon="-5.512119607034502"><ele>304.0</ele><time>2026-04-28T08:35:15Z</time></trkpt><trkpt lat="35.74658526449858" lon="-5.512028800595443"><ele>309.66666666666663</ele><time>2026-04-28T08:35:16Z</time></trkpt><trkpt lat="35.74645097143554" lon="-5.511928353463496"><ele>315.3333333333333</ele><time>2026-04-28T08:35:17Z</time></trkpt><trkpt lat="35.746309964564894" lon="-5.511835869383274"><ele>321.0</ele><time>2026-04-28T08:35:18Z</time></trkpt><trkpt lat="35.74616029662768" lon="-5.5117422039010755"><ele>321.0</ele><time>2026-04-28T08:35:19Z</time></trkpt><trkpt lat="35.7460070823802" lon="-5.511644152604258"><ele>321.0</ele><time>2026-04-28T08:35:20Z</time></trkpt><trkpt lat="35.74584695729026" lon="-5.511540504870932"><ele>321.0</ele><time>2026-04-28T08:35:21Z</time></trkpt><trkpt lat="35.745683505735734" lon="-5.511428215540446"><ele>321.0</ele><time>2026-04-28T08:35:22Z</time></trkpt><trkpt lat="35.745512466589346" lon="-5.5113155817570885"><ele>321.0</ele><time>2026-04-28T08:35:23Z</time></trkpt><trkpt lat="35.745333321496695" lon="-5.511198245493959"><ele>321.0</ele><time>2026-04-28T08:35:24Z</time></trkpt><trkpt lat="35.74515607152378" lon="-5.5110820937755225"><ele>319.6666666666667</ele><time>2026-04-28T08:35:25Z</time></trkpt><trkpt lat="35.74498246750896" lon="-5.510969523539181"><ele>318.33333333333337</ele><time>2026-04-28T08:35:26Z</time></trkpt><trkpt lat="35.74481985774391" lon="-5.510865662223203"><ele>317.0</ele><time>2026-04-28T08:35:27Z</time></trkpt><trkpt lat="35.744663385858495" lon="-5.510769077094897"><ele>317.0</ele><time>2026-04-28T08:35:28Z</time></trkpt><trkpt lat="35.74451477947428" lon="-5.510675248422976"><ele>317.0</ele><time>2026-04-28T08:35:29Z</time></trkpt><trkpt lat="35.744375850769075" lon="-5.51057859462004"><ele>317.0</ele><time>2026-04-28T08:35:30Z</time></trkpt><trkpt lat="35.744246720753964" lon="-5.510483477724726"><ele>315.25</ele><time>2026-04-28T08:35:31Z</time></trkpt><trkpt lat="35.74412877817954" lon="-5.510382771079771"><ele>313.5</ele><time>2026-04-28T08:35:32Z</time></trkpt><trkpt lat="35.744025805674575" lon="-5.510265539927612"><ele>311.75</ele><time>2026-04-28T08:35:33Z</time></trkpt><trkpt lat="35.74394225911198" lon="-5.510132823066025"><ele>310.0</ele><time>2026-04-28T08:35:34Z</time></trkpt><trkpt lat="35.743884159825654" lon="-5.509969945048433"><ele>310.0</ele><time>2026-04-28T08:35:35Z</time></trkpt><trkpt lat="35.7438427507603" lon="-5.50978097665543"><ele>310.0</ele><time>2026-04-28T08:35:36Z</time></trkpt><trkpt lat="35.74382138490941" lon="-5.509569751029543"><ele>310.0</ele><time>2026-04-28T08:35:37Z</time></trkpt><trkpt lat="35.74380643684002" lon="-5.5093350791888795"><ele>307.66666666666663</ele><time>2026-04-28T08:35:38Z</time></trkpt><trkpt lat="35.74382297620305" lon="-5.509091821421077"><ele>305.3333333333333</ele><time>2026-04-28T08:35:39Z</time></trkpt><trkpt lat="35.74385965051396" lon="-5.50884364060585"><ele>303.0</ele><time>2026-04-28T08:35:40Z</time></trkpt><trkpt lat="35.74388511835589" lon="-5.508594675702925"><ele>301.6666666666667</ele><time>2026-04-28T08:35:41Z</time></trkpt><trkpt lat="35.74391093402878" lon="-5.508341007265037"><ele>300.33333333333337</ele><time>2026-04-28T08:35:42Z</time></trkpt><trkpt lat="35.74393735156662" lon="-5.508084390917397"><ele>299.0</ele><time>2026-04-28T08:35:43Z</time></trkpt><trkpt lat="35.74396373460568" lon="-5.507828335415519"><ele>298.33333333333337</ele><time>2026-04-28T08:35:44Z</time></trkpt><trkpt lat="35.74399268038672" lon="-5.507577027211765"><ele>297.6666666666667</ele><time>2026-04-28T08:35:45Z</time></trkpt><trkpt lat="35.74402317516861" lon="-5.507335977179312"><ele>297.0</ele><time>2026-04-28T08:35:46Z</time></trkpt><trkpt lat="35.7440519476687" lon="-5.507106826699823"><ele>297.0</ele><time>2026-04-28T08:35:47Z</time></trkpt><trkpt lat="35.744076646975486" lon="-5.506892801350202"><ele>297.0</ele><time>2026-04-28T08:35:48Z</time></trkpt><trkpt lat="35.744101165664134" lon="-5.506691723082471"><ele>297.0</ele><time>2026-04-28T08:35:49Z</time></trkpt><trkpt lat="35.74412086403935" lon="-5.506500328262474"><ele>297.0</ele><time>2026-04-28T08:35:50Z</time></trkpt><trkpt lat="35.74410875145735" lon="-5.506310079679053"><ele>297.0</ele><time>2026-04-28T08:35:51Z</time></trkpt><trkpt lat="35.74408210560659" lon="-5.506125332693415"><ele>297.0</ele><time>2026-04-28T08:35:52Z</time></trkpt><trkpt lat="35.74405470590951" lon="-5.505936047888245"><ele>297.25</ele><time>2026-04-28T08:35:53Z</time></trkpt><trkpt lat="35.74404523369865" lon="-5.505746823941734"><ele>297.5</ele><time>2026-04-28T08:35:54Z</time></trkpt><trkpt lat="35.744055256945444" lon="-5.505573278156508"><ele>297.75</ele><time>2026-04-28T08:35:55Z</time></trkpt><trkpt lat="35.74407846176834" lon="-5.505421016934551"><ele>298.0</ele><time>2026-04-28T08:35:56Z</time></trkpt><trkpt lat="35.744116623181576" lon="-5.5052869055118405"><ele>297.5</ele><time>2026-04-28T08:35:57Z</time></trkpt><trkpt lat="35.74416536096405" lon="-5.505161926904391"><ele>297.0</ele><time>2026-04-28T08:35:58Z</time></trkpt><trkpt lat="35.74421896898131" lon="-5.505041115267643"><ele>296.5</ele><time>2026-04-28T08:35:59Z</time></trkpt><trkpt lat="35.74428604544327" lon="-5.504918874965668"><ele>296.0</ele><time>2026-04-28T08:36:00Z</time></trkpt><trkpt lat="35.74434617543047" lon="-5.504784531548446"><ele>293.75</ele><time>2026-04-28T08:36:01Z</time></trkpt><trkpt lat="35.74442159202609" lon="-5.504656579862774"><ele>291.5</ele><time>2026-04-28T08:36:02Z</time></trkpt><trkpt lat="35.74449905800907" lon="-5.504521530511823"><ele>289.25</ele><time>2026-04-28T08:36:03Z</time></trkpt><trkpt lat="35.7445803286658" lon="-5.504383217156759"><ele>287.0</ele><time>2026-04-28T08:36:04Z</time></trkpt><trkpt lat="35.74463764673854" lon="-5.504221690524849"><ele>287.0</ele><time>2026-04-28T08:36:05Z</time></trkpt><trkpt lat="35.74466258910656" lon="-5.504054691136818"><ele>287.0</ele><time>2026-04-28T08:36:06Z</time></trkpt><trkpt lat="35.744695162771464" lon="-5.503895861740565"><ele>287.0</ele><time>2026-04-28T08:36:07Z</time></trkpt><trkpt lat="35.7446779942404" lon="-5.503736994868745"><ele>287.0</ele><time>2026-04-28T08:36:08Z</time></trkpt><trkpt lat="35.74464777593415" lon="-5.503573651910088"><ele>286.0</ele><time>2026-04-28T08:36:09Z</time></trkpt><trkpt lat="35.744598101364794" lon="-5.503404808218462"><ele>285.0</ele><time>2026-04-28T08:36:10Z</time></trkpt><trkpt lat="35.744532977393824" lon="-5.5032389246634725"><ele>284.0</ele><time>2026-04-28T08:36:11Z</time></trkpt><trkpt lat="35.74445101629416" lon="-5.503075538629549"><ele>283.75</ele><time>2026-04-28T08:36:12Z</time></trkpt><trkpt lat="35.74436151973334" lon="-5.502926760008541"><ele>283.5</ele><time>2026-04-28T08:36:13Z</time></trkpt><trkpt lat="35.74426411597959" lon="-5.502796211747238"><ele>283.25</ele><time>2026-04-28T08:36:14Z</time></trkpt><trkpt lat="35.7441541100664" lon="-5.50268764231779"><ele>283.0</ele><time>2026-04-28T08:36:15Z</time></trkpt><trkpt lat="35.74403294388605" lon="-5.502605953373541"><ele>283.0</ele><time>2026-04-28T08:36:16Z</time></trkpt><trkpt lat="35.7439020095901" lon="-5.502558340908334"><ele>283.0</ele><time>2026-04-28T08:36:17Z</time></trkpt><trkpt lat="35.743765433885315" lon="-5.502522060880701"><ele>283.0</ele><time>2026-04-28T08:36:18Z</time></trkpt><trkpt lat="35.74362732062051" lon="-5.502471382863552"><ele>283.0</ele><time>2026-04-28T08:36:19Z</time></trkpt><trkpt lat="35.74348392370006" lon="-5.502414946727608"><ele>282.66666666666663</ele><time>2026-04-28T08:36:20Z</time></trkpt><trkpt lat="35.743334234995466" lon="-5.502359328563532"><ele>282.3333333333333</ele><time>2026-04-28T08:36:21Z</time></trkpt><trkpt lat="35.74318282518809" lon="-5.502301873907488"><ele>282.0</ele><time>2026-04-28T08:36:22Z</time></trkpt><trkpt lat="35.74303826893249" lon="-5.502251157025224"><ele>282.0</ele><time>2026-04-28T08:36:23Z</time></trkpt><trkpt lat="35.7429002132341" lon="-5.502220469539267"><ele>282.0</ele><time>2026-04-28T08:36:24Z</time></trkpt><trkpt lat="35.742767022977496" lon="-5.502227229485085"><ele>282.0</ele><time>2026-04-28T08:36:25Z</time></trkpt><trkpt lat="35.742645052273744" lon="-5.502277127312554"><ele>282.0</ele><time>2026-04-28T08:36:26Z</time></trkpt><trkpt lat="35.7425327667282" lon="-5.5023501407636575"><ele>282.0</ele><time>2026-04-28T08:36:27Z</time></trkpt><trkpt lat="35.74242514084479" lon="-5.502454975551895"><ele>282.0</ele><time>2026-04-28T08:36:28Z</time></trkpt><trkpt lat="35.74231732199099" lon="-5.502580958840639"><ele>282.0</ele><time>2026-04-28T08:36:29Z</time></trkpt><trkpt lat="35.74219991231865" lon="-5.502725649034721"><ele>282.0</ele><time>2026-04-28T08:36:30Z</time></trkpt><trkpt lat="35.74207336725525" lon="-5.5028833206105165"><ele>282.0</ele><time>2026-04-28T08:36:31Z</time></trkpt><trkpt lat="35.7419427993868" lon="-5.5030383558102685"><ele>282.0</ele><time>2026-04-28T08:36:32Z</time></trkpt><trkpt lat="35.74180240774281" lon="-5.503203879052353"><ele>280.0</ele><time>2026-04-28T08:36:33Z</time></trkpt><trkpt lat="35.74166346100156" lon="-5.503369715944443"><ele>278.0</ele><time>2026-04-28T08:36:34Z</time></trkpt><trkpt lat="35.74152094183208" lon="-5.5035374817008424"><ele>276.0</ele><time>2026-04-28T08:36:35Z</time></trkpt><trkpt lat="35.74137311235089" lon="-5.503708636261928"><ele>276.0</ele><time>2026-04-28T08:36:36Z</time></trkpt><trkpt lat="35.74121624459527" lon="-5.503882395635623"><ele>276.0</ele><time>2026-04-28T08:36:37Z</time></trkpt><trkpt lat="35.74105565796365" lon="-5.504056747490383"><ele>276.0</ele><time>2026-04-28T08:36:38Z</time></trkpt><trkpt lat="35.74089137188725" lon="-5.504236078459898"><ele>273.6666666666667</ele><time>2026-04-28T08:36:39Z</time></trkpt><trkpt lat="35.74072858215931" lon="-5.50442426049251"><ele>271.33333333333337</ele><time>2026-04-28T08:36:40Z</time></trkpt><trkpt lat="35.74056646045486" lon="-5.504611329454218"><ele>269.0</ele><time>2026-04-28T08:36:41Z</time></trkpt><trkpt lat="35.74040511224838" lon="-5.504796362554871"><ele>269.0</ele><time>2026-04-28T08:36:42Z</time></trkpt><trkpt lat="35.74024351960588" lon="-5.504978641905336"><ele>269.0</ele><time>2026-04-28T08:36:43Z</time></trkpt><trkpt lat="35.740083155647504" lon="-5.505164049889166"><ele>269.0</ele><time>2026-04-28T08:36:44Z</time></trkpt><trkpt lat="35.739922161923985" lon="-5.5053457278590985"><ele>268.0</ele><time>2026-04-28T08:36:45Z</time></trkpt><trkpt lat="35.73976122629598" lon="-5.505523652348914"><ele>267.0</ele><time>2026-04-28T08:36:46Z</time></trkpt><trkpt lat="35.739601925664545" lon="-5.505703484440706"><ele>266.0</ele><time>2026-04-28T08:36:47Z</time></trkpt><trkpt lat="35.739447080460224" lon="-5.5058827087197315"><ele>265.33333333333337</ele><time>2026-04-28T08:36:48Z</time></trkpt><trkpt lat="35.739292974145265" lon="-5.5060628456307095"><ele>264.6666666666667</ele><time>2026-04-28T08:36:49Z</time></trkpt><trkpt lat="35.73913675558517" lon="-5.5062420102460985"><ele>264.0</ele><time>2026-04-28T08:36:50Z</time></trkpt><trkpt lat="35.738984841389" lon="-5.506418015062059"><ele>264.0</ele><time>2026-04-28T08:36:51Z</time></trkpt><trkpt lat="35.73883980894043" lon="-5.506584929487842"><ele>264.0</ele><time>2026-04-28T08:36:52Z</time></trkpt><trkpt lat="35.73870100511589" lon="-5.506747162931891"><ele>264.0</ele><time>2026-04-28T08:36:53Z</time></trkpt><trkpt lat="35.73856866476088" lon="-5.506902240898022"><ele>263.0</ele><time>2026-04-28T08:36:54Z</time></trkpt><trkpt lat="35.73843650614395" lon="-5.507059099695238"><ele>262.0</ele><time>2026-04-28T08:36:55Z</time></trkpt><trkpt lat="35.73830853060635" lon="-5.507210813515256"><ele>261.0</ele><time>2026-04-28T08:36:56Z</time></trkpt><trkpt lat="35.73818417809553" lon="-5.507352764984697"><ele>261.0</ele><time>2026-04-28T08:36:57Z</time></trkpt><trkpt lat="35.738061220699706" lon="-5.507478482678694"><ele>261.0</ele><time>2026-04-28T08:36:58Z</time></trkpt><trkpt lat="35.73793252558211" lon="-5.50758540074539"><ele>261.0</ele><time>2026-04-28T08:36:59Z</time></trkpt><trkpt lat="35.737797321687275" lon="-5.507667694206674"><ele>259.0</ele><time>2026-04-28T08:37:00Z</time></trkpt><trkpt lat="35.737656604161124" lon="-5.507719935997951"><ele>257.0</ele><time>2026-04-28T08:37:01Z</time></trkpt><trkpt lat="35.73750649962309" lon="-5.507731808249674"><ele>255.0</ele><time>2026-04-28T08:37:02Z</time></trkpt><trkpt lat="35.73735245152641" lon="-5.507708463613439"><ele>255.0</ele><time>2026-04-28T08:37:03Z</time></trkpt><trkpt lat="35.73719533766825" lon="-5.50765621069877"><ele>255.0</ele><time>2026-04-28T08:37:04Z</time></trkpt><trkpt lat="35.73703126297268" lon="-5.507570273873636"><ele>255.0</ele><time>2026-04-28T08:37:05Z</time></trkpt><trkpt lat="35.73686020026412" lon="-5.507469891334703"><ele>254.0</ele><time>2026-04-28T08:37:06Z</time></trkpt><trkpt lat="35.73668302353979" lon="-5.507361965749705"><ele>253.0</ele><time>2026-04-28T08:37:07Z</time></trkpt><trkpt lat="35.73651449243813" lon="-5.507256551443875"><ele>252.0</ele><time>2026-04-28T08:37:08Z</time></trkpt><trkpt lat="35.7363559144903" lon="-5.507157691084958"><ele>250.66666666666669</ele><time>2026-04-28T08:37:09Z</time></trkpt><trkpt lat="35.73620277262047" lon="-5.507065788561726"><ele>249.33333333333334</ele><time>2026-04-28T08:37:10Z</time></trkpt><trkpt lat="35.736046908338714" lon="-5.506976745373381"><ele>248.0</ele><time>2026-04-28T08:37:11Z</time></trkpt><trkpt lat="35.735885366324915" lon="-5.506890468467285"><ele>248.0</ele><time>2026-04-28T08:37:12Z</time></trkpt><trkpt lat="35.73571413909074" lon="-5.506830242461922"><ele>248.0</ele><time>2026-04-28T08:37:13Z</time></trkpt><trkpt lat="35.73553159881808" lon="-5.50681320990631"><ele>248.0</ele><time>2026-04-28T08:37:14Z</time></trkpt><trkpt lat="35.73534348225151" lon="-5.506805901883126"><ele>247.66666666666669</ele><time>2026-04-28T08:37:15Z</time></trkpt><trkpt lat="35.73514852968553" lon="-5.506792268679559"><ele>247.33333333333331</ele><time>2026-04-28T08:37:16Z</time></trkpt><trkpt lat="35.73494997685946" lon="-5.506773535861101"><ele>247.0</ele><time>2026-04-28T08:37:17Z</time></trkpt><trkpt lat="35.73475085796411" lon="-5.506759451717962"><ele>247.0</ele><time>2026-04-28T08:37:18Z</time></trkpt><trkpt lat="35.734550178087446" lon="-5.506744854361986"><ele>247.0</ele><time>2026-04-28T08:37:19Z</time></trkpt><trkpt lat="35.73435004190174" lon="-5.506727847018432"><ele>247.0</ele><time>2026-04-28T08:37:20Z</time></trkpt><trkpt lat="35.734150104422945" lon="-5.506711361475498"><ele>244.33333333333331</ele><time>2026-04-28T08:37:21Z</time></trkpt><trkpt lat="35.73395016700533" lon="-5.506691612899614"><ele>241.66666666666669</ele><time>2026-04-28T08:37:22Z</time></trkpt><trkpt lat="35.73375332180277" lon="-5.506671766158323"><ele>239.0</ele><time>2026-04-28T08:37:23Z</time></trkpt><trkpt lat="35.73356093677392" lon="-5.50666020451412"><ele>237.33333333333334</ele><time>2026-04-28T08:37:24Z</time></trkpt><trkpt lat="35.73336809383159" lon="-5.5066538341898426"><ele>235.66666666666669</ele><time>2026-04-28T08:37:25Z</time></trkpt><trkpt lat="35.73317937933634" lon="-5.506644708090952"><ele>234.0</ele><time>2026-04-28T08:37:26Z</time></trkpt><trkpt lat="35.73299766650176" lon="-5.5066423029745035"><ele>234.0</ele><time>2026-04-28T08:37:27Z</time></trkpt><trkpt lat="35.73281941612449" lon="-5.506678444285501"><ele>234.0</ele><time>2026-04-28T08:37:28Z</time></trkpt><trkpt lat="35.732646335060586" lon="-5.506750855200269"><ele>234.0</ele><time>2026-04-28T08:37:29Z</time></trkpt><trkpt lat="35.732475822760094" lon="-5.506829342428231"><ele>232.33333333333331</ele><time>2026-04-28T08:37:30Z</time></trkpt><trkpt lat="35.73230560914555" lon="-5.506897660557378"><ele>230.66666666666666</ele><time>2026-04-28T08:37:31Z</time></trkpt><trkpt lat="35.732137189008775" lon="-5.506948919697946"><ele>229.0</ele><time>2026-04-28T08:37:32Z</time></trkpt><trkpt lat="35.73196590403657" lon="-5.506992006591107"><ele>227.75</ele><time>2026-04-28T08:37:33Z</time></trkpt><trkpt lat="35.73180099725353" lon="-5.5070353474797225"><ele>226.5</ele><time>2026-04-28T08:37:34Z</time></trkpt><trkpt lat="35.73165455546556" lon="-5.507077526558972"><ele>225.25</ele><time>2026-04-28T08:37:35Z</time></trkpt><trkpt lat="35.73153205968795" lon="-5.507122645842902"><ele>224.0</ele><time>2026-04-28T08:37:36Z</time></trkpt><trkpt lat="35.731435794415155" lon="-5.507194697714193"><ele>222.75</ele><time>2026-04-28T08:37:37Z</time></trkpt><trkpt lat="35.73136840342793" lon="-5.507312773486379"><ele>221.5</ele><time>2026-04-28T08:37:38Z</time></trkpt><trkpt lat="35.731335519147294" lon="-5.507467613856389"><ele>220.25</ele><time>2026-04-28T08:37:39Z</time></trkpt><trkpt lat="35.731322754508135" lon="-5.507653983024756"><ele>219.0</ele><time>2026-04-28T08:37:40Z</time></trkpt><trkpt lat="35.73131906782083" lon="-5.507869508459742"><ele>218.66666666666669</ele><time>2026-04-28T08:37:41Z</time></trkpt><trkpt lat="35.73129515834702" lon="-5.508078103646773"><ele>218.33333333333334</ele><time>2026-04-28T08:37:42Z</time></trkpt><trkpt lat="35.73126688951977" lon="-5.508278135232548"><ele>218.0</ele><time>2026-04-28T08:37:43Z</time></trkpt><trkpt lat="35.73123712110389" lon="-5.5084814822566"><ele>218.0</ele><time>2026-04-28T08:37:44Z</time></trkpt><trkpt lat="35.73120020215191" lon="-5.5086839298807435"><ele>218.0</ele><time>2026-04-28T08:37:45Z</time></trkpt><trkpt lat="35.73115362225531" lon="-5.508885008195148"><ele>218.0</ele><time>2026-04-28T08:37:46Z</time></trkpt><trkpt lat="35.731083872657784" lon="-5.509075794766793"><ele>218.0</ele><time>2026-04-28T08:37:47Z</time></trkpt><trkpt lat="35.7309927680352" lon="-5.509260759062358"><ele>218.0</ele><time>2026-04-28T08:37:48Z</time></trkpt><trkpt lat="35.730878871890404" lon="-5.509437322743221"><ele>218.0</ele><time>2026-04-28T08:37:49Z</time></trkpt><trkpt lat="35.730759987297326" lon="-5.509614793172539"><ele>215.66666666666669</ele><time>2026-04-28T08:37:50Z</time></trkpt><trkpt lat="35.73064160304183" lon="-5.509790713541845"><ele>213.33333333333331</ele><time>2026-04-28T08:37:51Z</time></trkpt><trkpt lat="35.730523358543074" lon="-5.509977580795044"><ele>211.0</ele><time>2026-04-28T08:37:52Z</time></trkpt><trkpt lat="35.7304135835408" lon="-5.510175083797899"><ele>211.0</ele><time>2026-04-28T08:37:53Z</time></trkpt><trkpt lat="35.73030491172478" lon="-5.510377293479435"><ele>211.0</ele><time>2026-04-28T08:37:54Z</time></trkpt><trkpt lat="35.73019744694607" lon="-5.510584666066501"><ele>211.0</ele><time>2026-04-28T08:37:55Z</time></trkpt><trkpt lat="35.73009731380633" lon="-5.5107987014992625"><ele>211.0</ele><time>2026-04-28T08:37:56Z</time></trkpt><trkpt lat="35.73001890840735" lon="-5.511024088518531"><ele>211.0</ele><time>2026-04-28T08:37:57Z</time></trkpt><trkpt lat="35.729959157787775" lon="-5.511255714366828"><ele>211.0</ele><time>2026-04-28T08:37:58Z</time></trkpt><trkpt lat="35.729908907654526" lon="-5.511480032448312"><ele>211.0</ele><time>2026-04-28T08:37:59Z</time></trkpt><trkpt lat="35.72985794440767" lon="-5.511697035373692"><ele>211.0</ele><time>2026-04-28T08:38:00Z</time></trkpt><trkpt lat="35.729809116685786" lon="-5.511908626040549"><ele>211.0</ele><time>2026-04-28T08:38:01Z</time></trkpt><trkpt lat="35.72976572386691" lon="-5.512088730421521"><ele>209.5</ele><time>2026-04-28T08:38:02Z</time></trkpt><trkpt lat="35.729722298055044" lon="-5.51226013662222"><ele>208.0</ele><time>2026-04-28T08:38:03Z</time></trkpt><trkpt lat="35.729688301882284" lon="-5.512429852310625"><ele>206.5</ele><time>2026-04-28T08:38:04Z</time></trkpt><trkpt lat="35.72964867288071" lon="-5.512592432355931"><ele>205.0</ele><time>2026-04-28T08:38:05Z</time></trkpt><trkpt lat="35.729603725116235" lon="-5.512760365547239"><ele>203.66666666666666</ele><time>2026-04-28T08:38:06Z</time></trkpt><trkpt lat="35.72959465761517" lon="-5.5129562373921095"><ele>202.33333333333331</ele><time>2026-04-28T08:38:07Z</time></trkpt><trkpt lat="35.72958383483074" lon="-5.513167732750523"><ele>201.0</ele><time>2026-04-28T08:38:08Z</time></trkpt><trkpt lat="35.729585241463646" lon="-5.51339242678445"><ele>201.0</ele><time>2026-04-28T08:38:09Z</time></trkpt><trkpt lat="35.72960614384032" lon="-5.513612473567865"><ele>201.0</ele><time>2026-04-28T08:38:10Z</time></trkpt><trkpt lat="35.72963405738353" lon="-5.513832049183964"><ele>201.0</ele><time>2026-04-28T08:38:11Z</time></trkpt><trkpt lat="35.72966076669766" lon="-5.5140516254406755"><ele>200.33333333333331</ele><time>2026-04-28T08:38:12Z</time></trkpt><trkpt lat="35.729691234353126" lon="-5.514274600933778"><ele>199.66666666666666</ele><time>2026-04-28T08:38:13Z</time></trkpt><trkpt lat="35.72971866092828" lon="-5.514488560878185"><ele>199.0</ele><time>2026-04-28T08:38:14Z</time></trkpt><trkpt lat="35.72974307830092" lon="-5.514697067267113"><ele>198.66666666666666</ele><time>2026-04-28T08:38:15Z</time></trkpt><trkpt lat="35.72976464743773" lon="-5.514906756786658"><ele>198.33333333333331</ele><time>2026-04-28T08:38:16Z</time></trkpt><trkpt lat="35.72977876909662" lon="-5.515126448306578"><ele>198.0</ele><time>2026-04-28T08:38:17Z</time></trkpt><trkpt lat="35.72977367842159" lon="-5.51535485641334"><ele>196.0</ele><time>2026-04-28T08:38:18Z</time></trkpt><trkpt lat="35.72974992096312" lon="-5.515589861704292"><ele>194.0</ele><time>2026-04-28T08:38:19Z</time></trkpt><trkpt lat="35.72970625142369" lon="-5.515832426971214"><ele>192.0</ele><time>2026-04-28T08:38:20Z</time></trkpt><trkpt lat="35.7296518981903" lon="-5.516080841235603"><ele>190.66666666666666</ele><time>2026-04-28T08:38:21Z</time></trkpt><trkpt lat="35.72959679720855" lon="-5.5163292939597435"><ele>189.33333333333331</ele><time>2026-04-28T08:38:22Z</time></trkpt><trkpt lat="35.72953974394073" lon="-5.51656729234848"><ele>188.0</ele><time>2026-04-28T08:38:23Z</time></trkpt><trkpt lat="35.72947153324412" lon="-5.516792283636783"><ele>188.0</ele><time>2026-04-28T08:38:24Z</time></trkpt><trkpt lat="35.72939747045682" lon="-5.517006677150356"><ele>188.0</ele><time>2026-04-28T08:38:25Z</time></trkpt><trkpt lat="35.72932064672359" lon="-5.5172121310087325"><ele>188.0</ele><time>2026-04-28T08:38:26Z</time></trkpt><trkpt lat="35.72923980614483" lon="-5.517406864598214"><ele>189.0</ele><time>2026-04-28T08:38:27Z</time></trkpt><trkpt lat="35.729150604969234" lon="-5.5175829224780415"><ele>190.0</ele><time>2026-04-28T08:38:28Z</time></trkpt><trkpt lat="35.72904540812622" lon="-5.517735912797324"><ele>191.0</ele><time>2026-04-28T08:38:29Z</time></trkpt><trkpt lat="35.72892401710336" lon="-5.517865872125841"><ele>188.33333333333331</ele><time>2026-04-28T08:38:30Z</time></trkpt><trkpt lat="35.728804282632964" lon="-5.517999186423544"><ele>185.66666666666666</ele><time>2026-04-28T08:38:31Z</time></trkpt><trkpt lat="35.72867039095683" lon="-5.518085119354804"><ele>183.0</ele><time>2026-04-28T08:38:32Z</time></trkpt><trkpt lat="35.72853030593786" lon="-5.518181701506264"><ele>183.0</ele><time>2026-04-28T08:38:33Z</time></trkpt><trkpt lat="35.72839356878255" lon="-5.518273828121642"><ele>183.0</ele><time>2026-04-28T08:38:34Z</time></trkpt><trkpt lat="35.72825946987917" lon="-5.518357246355245"><ele>183.0</ele><time>2026-04-28T08:38:35Z</time></trkpt><trkpt lat="35.72814776546043" lon="-5.518463167516909"><ele>183.0</ele><time>2026-04-28T08:38:36Z</time></trkpt><trkpt lat="35.72804705501449" lon="-5.518572726755544"><ele>183.0</ele><time>2026-04-28T08:38:37Z</time></trkpt><trkpt lat="35.72794923910924" lon="-5.518681758681679"><ele>183.0</ele><time>2026-04-28T08:38:38Z</time></trkpt><trkpt lat="35.727846458161466" lon="-5.518802198926342"><ele>183.0</ele><time>2026-04-28T08:38:39Z</time></trkpt><trkpt lat="35.727757540808774" lon="-5.5189755359389725"><ele>183.0</ele><time>2026-04-28T08:38:40Z</time></trkpt><trkpt lat="35.72766344490192" lon="-5.519144144365169"><ele>181.33333333333334</ele><time>2026-04-28T08:38:41Z</time></trkpt><trkpt lat="35.72756930037293" lon="-5.519296616131179"><ele>179.66666666666669</ele><time>2026-04-28T08:38:42Z</time></trkpt><trkpt lat="35.72745614155007" lon="-5.519429778069498"><ele>178.0</ele><time>2026-04-28T08:38:43Z</time></trkpt><trkpt lat="35.727315387886975" lon="-5.51954537289662"><ele>175.0</ele><time>2026-04-28T08:38:44Z</time></trkpt><trkpt lat="35.72716199957874" lon="-5.51965668031625"><ele>172.0</ele><time>2026-04-28T08:38:45Z</time></trkpt><trkpt lat="35.727005974573544" lon="-5.519769050195885"><ele>169.0</ele><time>2026-04-28T08:38:46Z</time></trkpt><trkpt lat="35.72685477546349" lon="-5.5198840336570765"><ele>169.0</ele><time>2026-04-28T08:38:47Z</time></trkpt><trkpt lat="35.72670750049955" lon="-5.519999677145679"><ele>169.0</ele><time>2026-04-28T08:38:48Z</time></trkpt><trkpt lat="35.72657141273719" lon="-5.520111323040064"><ele>169.0</ele><time>2026-04-28T08:38:49Z</time></trkpt><trkpt lat="35.726440986230884" lon="-5.520216474368294"><ele>169.0</ele><time>2026-04-28T08:38:50Z</time></trkpt><trkpt lat="35.7263019097228" lon="-5.52030537628984"><ele>169.0</ele><time>2026-04-28T08:38:51Z</time></trkpt><trkpt lat="35.726149976883285" lon="-5.520373524871341"><ele>169.0</ele><time>2026-04-28T08:38:52Z</time></trkpt><trkpt lat="35.72597554027092" lon="-5.5204214475624145"><ele>165.0</ele><time>2026-04-28T08:38:53Z</time></trkpt><trkpt lat="35.72577507251706" lon="-5.520430670883575"><ele>161.0</ele><time>2026-04-28T08:38:54Z</time></trkpt><trkpt lat="35.725581147052345" lon="-5.5204521486911755"><ele>157.0</ele><time>2026-04-28T08:38:55Z</time></trkpt><trkpt lat="35.72539258616148" lon="-5.520480397827235"><ele>155.0</ele><time>2026-04-28T08:38:56Z</time></trkpt><trkpt lat="35.72519983029275" lon="-5.520510271154035"><ele>153.0</ele><time>2026-04-28T08:38:57Z</time></trkpt><trkpt lat="35.72500240741174" lon="-5.520543247862713"><ele>151.0</ele><time>2026-04-28T08:38:58Z</time></trkpt><trkpt lat="35.724803409678046" lon="-5.520578613671007"><ele>151.0</ele><time>2026-04-28T08:38:59Z</time></trkpt><trkpt lat="35.72460963701852" lon="-5.52060916267451"><ele>151.0</ele><time>2026-04-28T08:39:00Z</time></trkpt><trkpt lat="35.72442208048044" lon="-5.520640464303924"><ele>151.0</ele><time>2026-04-28T08:39:01Z</time></trkpt><trkpt lat="35.72423943475626" lon="-5.520676750902173"><ele>150.33333333333334</ele><time>2026-04-28T08:39:02Z</time></trkpt><trkpt lat="35.724061485498446" lon="-5.520724800667602"><ele>149.66666666666666</ele><time>2026-04-28T08:39:03Z</time></trkpt><trkpt lat="35.72388989580735" lon="-5.520798002177104"><ele>149.0</ele><time>2026-04-28T08:39:04Z</time></trkpt><trkpt lat="35.72371914722512" lon="-5.520893266871556"><ele>149.66666666666666</ele><time>2026-04-28T08:39:05Z</time></trkpt><trkpt lat="35.72354646630453" lon="-5.520998805861125"><ele>150.33333333333334</ele><time>2026-04-28T08:39:06Z</time></trkpt><trkpt lat="35.72337279936389" lon="-5.521115526211468"><ele>151.0</ele><time>2026-04-28T08:39:07Z</time></trkpt><trkpt lat="35.72320894247323" lon="-5.521245716078851"><ele>147.0</ele><time>2026-04-28T08:39:08Z</time></trkpt><trkpt lat="35.723052000703966" lon="-5.521387490586313"><ele>143.0</ele><time>2026-04-28T08:39:09Z</time></trkpt><trkpt lat="35.72290603685693" lon="-5.521546343603093"><ele>139.0</ele><time>2026-04-28T08:39:10Z</time></trkpt><trkpt lat="35.72277195945463" lon="-5.52171780955814"><ele>139.33333333333334</ele><time>2026-04-28T08:39:11Z</time></trkpt><trkpt lat="35.722660954386406" lon="-5.5219015366887225"><ele>139.66666666666666</ele><time>2026-04-28T08:39:12Z</time></trkpt><trkpt lat="35.72256060178908" lon="-5.522083080293378"><ele>140.0</ele><time>2026-04-28T08:39:13Z</time></trkpt><trkpt lat="35.722465668193216" lon="-5.522253979335878"><ele>140.0</ele><time>2026-04-28T08:39:14Z</time></trkpt><trkpt lat="35.72237208908144" lon="-5.522399688185807"><ele>140.0</ele><time>2026-04-28T08:39:15Z</time></trkpt><trkpt lat="35.72228512344141" lon="-5.522526257679258"><ele>140.0</ele><time>2026-04-28T08:39:16Z</time></trkpt><trkpt lat="35.722189159523104" lon="-5.522613388476618"><ele>140.0</ele><time>2026-04-28T08:39:17Z</time></trkpt><trkpt lat="35.722067597435846" lon="-5.522678759008231"><ele>140.0</ele><time>2026-04-28T08:39:18Z</time></trkpt><trkpt lat="35.72192262211836" lon="-5.522729474867555"><ele>140.0</ele><time>2026-04-28T08:39:19Z</time></trkpt><trkpt lat="35.72175162455723" lon="-5.522762633173366"><ele>140.0</ele><time>2026-04-28T08:39:20Z</time></trkpt><trkpt lat="35.721577807012416" lon="-5.522778690083665"><ele>140.0</ele><time>2026-04-28T08:39:21Z</time></trkpt><trkpt lat="35.72141276611441" lon="-5.522781516927256"><ele>140.0</ele><time>2026-04-28T08:39:22Z</time></trkpt><trkpt lat="35.72124824530683" lon="-5.522768021974531"><ele>140.0</ele><time>2026-04-28T08:39:23Z</time></trkpt><trkpt lat="35.721084423341395" lon="-5.522736768419705"><ele>138.0</ele><time>2026-04-28T08:39:24Z</time></trkpt><trkpt lat="35.7209113454442" lon="-5.522675813024861"><ele>136.0</ele><time>2026-04-28T08:39:25Z</time></trkpt><trkpt lat="35.7207284780809" lon="-5.52259748170756"><ele>134.0</ele><time>2026-04-28T08:39:26Z</time></trkpt><trkpt lat="35.72054075812315" lon="-5.522513501133779"><ele>134.0</ele><time>2026-04-28T08:39:27Z</time></trkpt><trkpt lat="35.720345325433236" lon="-5.522412096997175"><ele>134.0</ele><time>2026-04-28T08:39:28Z</time></trkpt><trkpt lat="35.72014490753929" lon="-5.522314235294788"><ele>134.0</ele><time>2026-04-28T08:39:29Z</time></trkpt><trkpt lat="35.719942279320406" lon="-5.522225081453692"><ele>132.66666666666666</ele><time>2026-04-28T08:39:30Z</time></trkpt><trkpt lat="35.719743539996365" lon="-5.5221411775197335"><ele>131.33333333333334</ele><time>2026-04-28T08:39:31Z</time></trkpt><trkpt lat="35.71955390717608" lon="-5.522059335435967"><ele>130.0</ele><time>2026-04-28T08:39:32Z</time></trkpt><trkpt lat="35.71937826928422" lon="-5.521959992046656"><ele>130.0</ele><time>2026-04-28T08:39:33Z</time></trkpt><trkpt lat="35.71922334691351" lon="-5.521833042159696"><ele>130.0</ele><time>2026-04-28T08:39:34Z</time></trkpt><trkpt lat="35.71909645202163" lon="-5.521672095517477"><ele>130.0</ele><time>2026-04-28T08:39:35Z</time></trkpt><trkpt lat="35.71898002227067" lon="-5.521490474100506"><ele>130.0</ele><time>2026-04-28T08:39:36Z</time></trkpt><trkpt lat="35.718868328462015" lon="-5.521299086214519"><ele>130.0</ele><time>2026-04-28T08:39:37Z</time></trkpt><trkpt lat="35.718757094085845" lon="-5.521112023633147"><ele>130.0</ele><time>2026-04-28T08:39:38Z</time></trkpt><trkpt lat="35.71865375824209" lon="-5.520936454638579"><ele>130.0</ele><time>2026-04-28T08:39:39Z</time></trkpt><trkpt lat="35.71853346648006" lon="-5.520804124151176"><ele>130.0</ele><time>2026-04-28T08:39:40Z</time></trkpt><trkpt lat="35.718423583549225" lon="-5.520678794045241"><ele>130.0</ele><time>2026-04-28T08:39:41Z</time></trkpt><trkpt lat="35.71827792152108" lon="-5.5206152535522675"><ele>130.0</ele><time>2026-04-28T08:39:42Z</time></trkpt><trkpt lat="35.71812374911939" lon="-5.5206117198491205"><ele>130.0</ele><time>2026-04-28T08:39:43Z</time></trkpt><trkpt lat="35.71797182517231" lon="-5.520656006287476"><ele>130.0</ele><time>2026-04-28T08:39:44Z</time></trkpt><trkpt lat="35.71781683631414" lon="-5.5207322813663815"><ele>128.33333333333334</ele><time>2026-04-28T08:39:45Z</time></trkpt><trkpt lat="35.71765813477234" lon="-5.520830975052562"><ele>126.66666666666666</ele><time>2026-04-28T08:39:46Z</time></trkpt><trkpt lat="35.7174967922807" lon="-5.520951587797096"><ele>125.0</ele><time>2026-04-28T08:39:47Z</time></trkpt><trkpt lat="35.7173379396512" lon="-5.521060819959091"><ele>125.0</ele><time>2026-04-28T08:39:48Z</time></trkpt><trkpt lat="35.71717644300012" lon="-5.521163416124166"><ele>125.0</ele><time>2026-04-28T08:39:49Z</time></trkpt><trkpt lat="35.71701709983229" lon="-5.521263382800872"><ele>125.0</ele><time>2026-04-28T08:39:50Z</time></trkpt><trkpt lat="35.716852410750775" lon="-5.521366964524116"><ele>126.0</ele><time>2026-04-28T08:39:51Z</time></trkpt><trkpt lat="35.71668398837729" lon="-5.521474499127726"><ele>127.0</ele><time>2026-04-28T08:39:52Z</time></trkpt><trkpt lat="35.716519563379805" lon="-5.521585937146738"><ele>128.0</ele><time>2026-04-28T08:39:53Z</time></trkpt><trkpt lat="35.71636266777306" lon="-5.521697990194522"><ele>128.0</ele><time>2026-04-28T08:39:54Z</time></trkpt><trkpt lat="35.7162071626038" lon="-5.521805991340728"><ele>128.0</ele><time>2026-04-28T08:39:55Z</time></trkpt><trkpt lat="35.71604740498358" lon="-5.521907456437678"><ele>128.0</ele><time>2026-04-28T08:39:56Z</time></trkpt><trkpt lat="35.71588377937884" lon="-5.522004312265796"><ele>130.66666666666666</ele><time>2026-04-28T08:39:57Z</time></trkpt><trkpt lat="35.715711441614935" lon="-5.522085376173898"><ele>133.33333333333334</ele><time>2026-04-28T08:39:58Z</time></trkpt><trkpt lat="35.715535547714666" lon="-5.52215780494072"><ele>136.0</ele><time>2026-04-28T08:39:59Z</time></trkpt><trkpt lat="35.71535322639893" lon="-5.522223597142749"><ele>134.33333333333334</ele><time>2026-04-28T08:40:00Z</time></trkpt><trkpt lat="35.715171294673326" lon="-5.522287273996388"><ele>132.66666666666666</ele><time>2026-04-28T08:40:01Z</time></trkpt><trkpt lat="35.71500153936501" lon="-5.522353764376989"><ele>131.0</ele><time>2026-04-28T08:40:02Z</time></trkpt><trkpt lat="35.714852547068844" lon="-5.522448759005834"><ele>131.0</ele><time>2026-04-28T08:40:03Z</time></trkpt><trkpt lat="35.71472301845494" lon="-5.522585222366361"><ele>131.0</ele><time>2026-04-28T08:40:04Z</time></trkpt><trkpt lat="35.71460374488163" lon="-5.522750532130383"><ele>131.0</ele><time>2026-04-28T08:40:05Z</time></trkpt><trkpt lat="35.71447171932563" lon="-5.522913284129631"><ele>130.66666666666666</ele><time>2026-04-28T08:40:06Z</time></trkpt><trkpt lat="35.714344381227605" lon="-5.523061376605981"><ele>130.33333333333334</ele><time>2026-04-28T08:40:07Z</time></trkpt><trkpt lat="35.714222308912426" lon="-5.523188423309617"><ele>130.0</ele><time>2026-04-28T08:40:08Z</time></trkpt><trkpt lat="35.71409505958792" lon="-5.5232934202643795"><ele>130.0</ele><time>2026-04-28T08:40:09Z</time></trkpt><trkpt lat="35.71395822693539" lon="-5.523360851506261"><ele>130.0</ele><time>2026-04-28T08:40:10Z</time></trkpt><trkpt lat="35.713815791965175" lon="-5.5233995455175755"><ele>130.0</ele><time>2026-04-28T08:40:11Z</time></trkpt><trkpt lat="35.71366785095843" lon="-5.523425126710133"><ele>130.0</ele><time>2026-04-28T08:40:12Z</time></trkpt><trkpt lat="35.71351638207721" lon="-5.52342268929094"><ele>129.5</ele><time>2026-04-28T08:40:13Z</time></trkpt><trkpt lat="35.71337063442641" lon="-5.523390029867413"><ele>129.0</ele><time>2026-04-28T08:40:14Z</time></trkpt><trkpt lat="35.71323248474338" lon="-5.523324522242254"><ele>128.5</ele><time>2026-04-28T08:40:15Z</time></trkpt><trkpt lat="35.71310179839073" lon="-5.523242329038211"><ele>128.0</ele><time>2026-04-28T08:40:16Z</time></trkpt><trkpt lat="35.71298235907621" lon="-5.52312857825053"><ele>128.0</ele><time>2026-04-28T08:40:17Z</time></trkpt><trkpt lat="35.71287898423237" lon="-5.52299096185904"><ele>128.0</ele><time>2026-04-28T08:40:18Z</time></trkpt><trkpt lat="35.712792401469734" lon="-5.522833583818096"><ele>128.0</ele><time>2026-04-28T08:40:19Z</time></trkpt><trkpt lat="35.71271358871804" lon="-5.522656139986187"><ele>128.66666666666666</ele><time>2026-04-28T08:40:20Z</time></trkpt><trkpt lat="35.71264132020455" lon="-5.52246047806321"><ele>129.33333333333334</ele><time>2026-04-28T08:40:21Z</time></trkpt><trkpt lat="35.71257469042863" lon="-5.522251473880486"><ele>130.0</ele><time>2026-04-28T08:40:22Z</time></trkpt><trkpt lat="35.71250655322009" lon="-5.522038873948236"><ele>130.0</ele><time>2026-04-28T08:40:23Z</time></trkpt><trkpt lat="35.7124181105301" lon="-5.521844507392112"><ele>130.0</ele><time>2026-04-28T08:40:24Z</time></trkpt><trkpt lat="35.71233738434014" lon="-5.521658362924482"><ele>130.0</ele><time>2026-04-28T08:40:25Z</time></trkpt><trkpt lat="35.71225100146796" lon="-5.521473428627247"><ele>130.0</ele><time>2026-04-28T08:40:26Z</time></trkpt><trkpt lat="35.712155569335984" lon="-5.521291411533971"><ele>130.0</ele><time>2026-04-28T08:40:27Z</time></trkpt><trkpt lat="35.712033940978266" lon="-5.521121618310544"><ele>130.0</ele><time>2026-04-28T08:40:28Z</time></trkpt><trkpt lat="35.71192929970643" lon="-5.520947189302456"><ele>131.0</ele><time>2026-04-28T08:40:29Z</time></trkpt><trkpt lat="35.71181010385651" lon="-5.520782032751042"><ele>132.0</ele><time>2026-04-28T08:40:30Z</time></trkpt><trkpt lat="35.71169269387918" lon="-5.520615763644696"><ele>133.0</ele><time>2026-04-28T08:40:31Z</time></trkpt><trkpt lat="35.711576181910914" lon="-5.5204495886074785"><ele>132.33333333333334</ele><time>2026-04-28T08:40:32Z</time></trkpt><trkpt lat="35.71146012682624" lon="-5.5202867596759395"><ele>131.66666666666666</ele><time>2026-04-28T08:40:33Z</time></trkpt><trkpt lat="35.71134311458638" lon="-5.5201276801034656"><ele>131.0</ele><time>2026-04-28T08:40:34Z</time></trkpt><trkpt lat="35.71120464610373" lon="-5.519996419219613"><ele>131.0</ele><time>2026-04-28T08:40:35Z</time></trkpt><trkpt lat="35.711082877901944" lon="-5.519838457301028"><ele>131.0</ele><time>2026-04-28T08:40:36Z</time></trkpt><trkpt lat="35.710938951247066" lon="-5.519707684655367"><ele>131.0</ele><time>2026-04-28T08:40:37Z</time></trkpt><trkpt lat="35.710795131227" lon="-5.5195738273564166"><ele>134.66666666666666</ele><time>2026-04-28T08:40:38Z</time></trkpt><trkpt lat="35.71064547646544" lon="-5.519442018318479"><ele>138.33333333333334</ele><time>2026-04-28T08:40:39Z</time></trkpt><trkpt lat="35.71049346510934" lon="-5.519309425644047"><ele>142.0</ele><time>2026-04-28T08:40:40Z</time></trkpt><trkpt lat="35.71034331735442" lon="-5.519172984265061"><ele>144.0</ele><time>2026-04-28T08:40:41Z</time></trkpt><trkpt lat="35.71019802230399" lon="-5.519038043015335"><ele>146.0</ele><time>2026-04-28T08:40:42Z</time></trkpt><trkpt lat="35.710047941597075" lon="-5.518915946464341"><ele>148.0</ele><time>2026-04-28T08:40:43Z</time></trkpt><trkpt lat="35.70988048961111" lon="-5.5188163100120535"><ele>146.33333333333334</ele><time>2026-04-28T08:40:44Z</time></trkpt><trkpt lat="35.709703399444436" lon="-5.518732929525228"><ele>144.66666666666666</ele><time>2026-04-28T08:40:45Z</time></trkpt><trkpt lat="35.70952110682037" lon="-5.518654638687514"><ele>143.0</ele><time>2026-04-28T08:40:46Z</time></trkpt><trkpt lat="35.70934307973483" lon="-5.518577236016875"><ele>143.0</ele><time>2026-04-28T08:40:47Z</time></trkpt><trkpt lat="35.70917444212196" lon="-5.518497337311296"><ele>143.0</ele><time>2026-04-28T08:40:48Z</time></trkpt><trkpt lat="35.70901685932378" lon="-5.51841058635206"><ele>143.0</ele><time>2026-04-28T08:40:49Z</time></trkpt><trkpt lat="35.70886857442367" lon="-5.518295505706545"><ele>143.0</ele><time>2026-04-28T08:40:50Z</time></trkpt><trkpt lat="35.708731855455355" lon="-5.518153367876447"><ele>143.0</ele><time>2026-04-28T08:40:51Z</time></trkpt><trkpt lat="35.708606772202046" lon="-5.518014999247286"><ele>143.0</ele><time>2026-04-28T08:40:52Z</time></trkpt><trkpt lat="35.70848995880665" lon="-5.517891110327988"><ele>143.0</ele><time>2026-04-28T08:40:53Z</time></trkpt><trkpt lat="35.708392830373604" lon="-5.517763379974837"><ele>143.0</ele><time>2026-04-28T08:40:54Z</time></trkpt><trkpt lat="35.70832255290168" lon="-5.517616951642512"><ele>143.0</ele><time>2026-04-28T08:40:55Z</time></trkpt><trkpt lat="35.70827850653003" lon="-5.517453277099463"><ele>143.0</ele><time>2026-04-28T08:40:56Z</time></trkpt><trkpt lat="35.708270278302095" lon="-5.5172748793267345"><ele>143.0</ele><time>2026-04-28T08:40:57Z</time></trkpt><trkpt lat="35.70828449558638" lon="-5.517089502313106"><ele>143.0</ele><time>2026-04-28T08:40:58Z</time></trkpt><trkpt lat="35.70830769608511" lon="-5.516891107225689"><ele>143.0</ele><time>2026-04-28T08:40:59Z</time></trkpt><trkpt lat="35.70830688561672" lon="-5.516681622054054"><ele>143.33333333333331</ele><time>2026-04-28T08:41:00Z</time></trkpt><trkpt lat="35.708309622107116" lon="-5.516470569411252"><ele>143.66666666666666</ele><time>2026-04-28T08:41:01Z</time></trkpt><trkpt lat="35.708269411001446" lon="-5.516283423176549"><ele>144.0</ele><time>2026-04-28T08:41:02Z</time></trkpt><trkpt lat="35.70821121911037" lon="-5.516103058011192"><ele>144.0</ele><time>2026-04-28T08:41:03Z</time></trkpt><trkpt lat="35.708139442159315" lon="-5.515935498575233"><ele>144.0</ele><time>2026-04-28T08:41:04Z</time></trkpt><trkpt lat="35.70804484119748" lon="-5.515781298029641"><ele>144.0</ele><time>2026-04-28T08:41:05Z</time></trkpt><trkpt lat="35.70792748790424" lon="-5.515650655428945"><ele>144.0</ele><time>2026-04-28T08:41:06Z</time></trkpt><trkpt lat="35.70779184169086" lon="-5.515524751006466"><ele>144.0</ele><time>2026-04-28T08:41:07Z</time></trkpt><trkpt lat="35.707638702978485" lon="-5.515402359366229"><ele>144.0</ele><time>2026-04-28T08:41:08Z</time></trkpt><trkpt lat="35.70746924798269" lon="-5.515294913039519"><ele>145.0</ele><time>2026-04-28T08:41:09Z</time></trkpt><trkpt lat="35.70730329019031" lon="-5.515169983089896"><ele>146.0</ele><time>2026-04-28T08:41:10Z</time></trkpt><trkpt lat="35.707141692970076" lon="-5.515046099671669"><ele>147.0</ele><time>2026-04-28T08:41:11Z</time></trkpt><trkpt lat="35.70697568357412" lon="-5.514938689474741"><ele>150.66666666666666</ele><time>2026-04-28T08:41:12Z</time></trkpt><trkpt lat="35.70680515536569" lon="-5.51485166850567"><ele>154.33333333333331</ele><time>2026-04-28T08:41:13Z</time></trkpt><trkpt lat="35.70662046194402" lon="-5.514792655255784"><ele>158.0</ele><time>2026-04-28T08:41:14Z</time></trkpt><trkpt lat="35.70642320593423" lon="-5.514756287540717"><ele>158.0</ele><time>2026-04-28T08:41:15Z</time></trkpt><trkpt lat="35.706221600795985" lon="-5.51473410901065"><ele>158.0</ele><time>2026-04-28T08:41:16Z</time></trkpt><trkpt lat="35.70603452860057" lon="-5.514726749954638"><ele>158.0</ele><time>2026-04-28T08:41:17Z</time></trkpt><trkpt lat="35.70585599317943" lon="-5.514703226566303"><ele>158.0</ele><time>2026-04-28T08:41:18Z</time></trkpt><trkpt lat="35.7056922370276" lon="-5.514655831235437"><ele>158.0</ele><time>2026-04-28T08:41:19Z</time></trkpt><trkpt lat="35.705539773327786" lon="-5.514567517577475"><ele>158.0</ele><time>2026-04-28T08:41:20Z</time></trkpt><trkpt lat="35.705399301917176" lon="-5.514450041639948"><ele>156.33333333333331</ele><time>2026-04-28T08:41:21Z</time></trkpt><trkpt lat="35.70526652198854" lon="-5.514292217485054"><ele>154.66666666666666</ele><time>2026-04-28T08:41:22Z</time></trkpt><trkpt lat="35.70512269901763" lon="-5.514136750126841"><ele>153.0</ele><time>2026-04-28T08:41:23Z</time></trkpt><trkpt lat="35.704969646130415" lon="-5.513988948556458"><ele>153.0</ele><time>2026-04-28T08:41:24Z</time></trkpt><trkpt lat="35.704818668235475" lon="-5.513836431588411"><ele>153.0</ele><time>2026-04-28T08:41:25Z</time></trkpt><trkpt lat="35.70466952534931" lon="-5.5136868572708515"><ele>153.0</ele><time>2026-04-28T08:41:26Z</time></trkpt><trkpt lat="35.70450028801519" lon="-5.513568600932215"><ele>152.66666666666666</ele><time>2026-04-28T08:41:27Z</time></trkpt><trkpt lat="35.70431335740115" lon="-5.513477319869255"><ele>152.33333333333331</ele><time>2026-04-28T08:41:28Z</time></trkpt><trkpt lat="35.70412466672798" lon="-5.513397086967051"><ele>152.0</ele><time>2026-04-28T08:41:29Z</time></trkpt><trkpt lat="35.70393847200246" lon="-5.513326711876558"><ele>152.0</ele><time>2026-04-28T08:41:30Z</time></trkpt><trkpt lat="35.70376118295942" lon="-5.513247179089414"><ele>152.0</ele><time>2026-04-28T08:41:31Z</time></trkpt><trkpt lat="35.70359375842971" lon="-5.513134693688342"><ele>152.0</ele><time>2026-04-28T08:41:32Z</time></trkpt><trkpt lat="35.703441905470385" lon="-5.512981615055138"><ele>151.66666666666666</ele><time>2026-04-28T08:41:33Z</time></trkpt><trkpt lat="35.7032957787613" lon="-5.512805945519136"><ele>151.33333333333334</ele><time>2026-04-28T08:41:34Z</time></trkpt><trkpt lat="35.703160989623655" lon="-5.512611525256776"><ele>151.0</ele><time>2026-04-28T08:41:35Z</time></trkpt><trkpt lat="35.70303452146614" lon="-5.5124072675034155"><ele>151.0</ele><time>2026-04-28T08:41:36Z</time></trkpt><trkpt lat="35.70290567444286" lon="-5.512211026860066"><ele>151.0</ele><time>2026-04-28T08:41:37Z</time></trkpt><trkpt lat="35.70277551322955" lon="-5.512041064253971"><ele>151.0</ele><time>2026-04-28T08:41:38Z</time></trkpt><trkpt lat="35.70265221967517" lon="-5.51187568285336"><ele>152.33333333333334</ele><time>2026-04-28T08:41:39Z</time></trkpt><trkpt lat="35.70252707997056" lon="-5.511730343438907"><ele>153.66666666666666</ele><time>2026-04-28T08:41:40Z</time></trkpt><trkpt lat="35.70239031353596" lon="-5.51161659209439"><ele>155.0</ele><time>2026-04-28T08:41:41Z</time></trkpt><trkpt lat="35.70222354495271" lon="-5.511569222996324"><ele>155.0</ele><time>2026-04-28T08:41:42Z</time></trkpt><trkpt lat="35.70206015743608" lon="-5.511501142971512"><ele>155.0</ele><time>2026-04-28T08:41:43Z</time></trkpt><trkpt lat="35.70188259771333" lon="-5.511461241027699"><ele>155.0</ele><time>2026-04-28T08:41:44Z</time></trkpt><trkpt lat="35.70170506100034" lon="-5.51140189102659"><ele>155.33333333333331</ele><time>2026-04-28T08:41:45Z</time></trkpt><trkpt lat="35.70153031700763" lon="-5.511339084201034"><ele>155.66666666666666</ele><time>2026-04-28T08:41:46Z</time></trkpt><trkpt lat="35.701358746691085" lon="-5.511281726217037"><ele>156.0</ele><time>2026-04-28T08:41:47Z</time></trkpt><trkpt lat="35.701192847160684" lon="-5.511230980982883"><ele>155.66666666666666</ele><time>2026-04-28T08:41:48Z</time></trkpt><trkpt lat="35.70102995471937" lon="-5.511192188835939"><ele>155.33333333333331</ele><time>2026-04-28T08:41:49Z</time></trkpt><trkpt lat="35.700864855961186" lon="-5.511197864415002"><ele>155.0</ele><time>2026-04-28T08:41:50Z</time></trkpt><trkpt lat="35.700696661865024" lon="-5.511243189697992"><ele>157.33333333333331</ele><time>2026-04-28T08:41:51Z</time></trkpt><trkpt lat="35.70052545008964" lon="-5.511325275379601"><ele>159.66666666666666</ele><time>2026-04-28T08:41:52Z</time></trkpt><trkpt lat="35.70035004964205" lon="-5.511410546044602"><ele>162.0</ele><time>2026-04-28T08:41:53Z</time></trkpt><trkpt lat="35.70017669708231" lon="-5.511487118618646"><ele>162.33333333333334</ele><time>2026-04-28T08:41:54Z</time></trkpt><trkpt lat="35.70000417286562" lon="-5.5115632022438374"><ele>162.66666666666669</ele><time>2026-04-28T08:41:55Z</time></trkpt><trkpt lat="35.69983106750483" lon="-5.511663457663741"><ele>163.0</ele><time>2026-04-28T08:41:56Z</time></trkpt><trkpt lat="35.699662560976414" lon="-5.511789829836499"><ele>163.0</ele><time>2026-04-28T08:41:57Z</time></trkpt><trkpt lat="35.699498863649225" lon="-5.511934485300473"><ele>163.0</ele><time>2026-04-28T08:41:58Z</time></trkpt><trkpt lat="35.699335095518514" lon="-5.512076020040747"><ele>163.0</ele><time>2026-04-28T08:41:59Z</time></trkpt><trkpt lat="35.69917333301395" lon="-5.512201302021517"><ele>165.66666666666669</ele><time>2026-04-28T08:42:00Z</time></trkpt><trkpt lat="35.69901488282966" lon="-5.512310915416055"><ele>168.33333333333334</ele><time>2026-04-28T08:42:01Z</time></trkpt><trkpt lat="35.69885813993572" lon="-5.512401839519288"><ele>171.0</ele><time>2026-04-28T08:42:02Z</time></trkpt><trkpt lat="35.69869460063849" lon="-5.512460278407871"><ele>170.66666666666666</ele><time>2026-04-28T08:42:03Z</time></trkpt><trkpt lat="35.698515450888834" lon="-5.512500700969921"><ele>170.33333333333331</ele><time>2026-04-28T08:42:04Z</time></trkpt><trkpt lat="35.698331912761766" lon="-5.512546279868096"><ele>170.0</ele><time>2026-04-28T08:42:05Z</time></trkpt><trkpt lat="35.69814592511292" lon="-5.512606557949059"><ele>170.0</ele><time>2026-04-28T08:42:06Z</time></trkpt><trkpt lat="35.697956870332625" lon="-5.512669200428661"><ele>170.0</ele><time>2026-04-28T08:42:07Z</time></trkpt><trkpt lat="35.69776747213231" lon="-5.512734878340326"><ele>170.0</ele><time>2026-04-28T08:42:08Z</time></trkpt><trkpt lat="35.69758150571831" lon="-5.512798792003825"><ele>170.66666666666666</ele><time>2026-04-28T08:42:09Z</time></trkpt><trkpt lat="35.69740239566686" lon="-5.5128549570066"><ele>171.33333333333334</ele><time>2026-04-28T08:42:10Z</time></trkpt><trkpt lat="35.69722328238848" lon="-5.512911151386338"><ele>172.0</ele><time>2026-04-28T08:42:11Z</time></trkpt><trkpt lat="35.697044938024355" lon="-5.512969084558859"><ele>177.0</ele><time>2026-04-28T08:42:12Z</time></trkpt><trkpt lat="35.696863216680825" lon="-5.513018538655094"><ele>182.0</ele><time>2026-04-28T08:42:13Z</time></trkpt><trkpt lat="35.69668428912656" lon="-5.513047426014302"><ele>187.0</ele><time>2026-04-28T08:42:14Z</time></trkpt><trkpt lat="35.69651348540541" lon="-5.5130609900872"><ele>187.0</ele><time>2026-04-28T08:42:15Z</time></trkpt><trkpt lat="35.69634119048282" lon="-5.513064607483114"><ele>187.0</ele><time>2026-04-28T08:42:16Z</time></trkpt><trkpt lat="35.69615961095418" lon="-5.513041084423886"><ele>187.0</ele><time>2026-04-28T08:42:17Z</time></trkpt><trkpt lat="35.69596954099638" lon="-5.5129959435086455"><ele>189.33333333333334</ele><time>2026-04-28T08:42:18Z</time></trkpt><trkpt lat="35.695762287544596" lon="-5.512988370251566"><ele>191.66666666666669</ele><time>2026-04-28T08:42:19Z</time></trkpt><trkpt lat="35.69555122782968" lon="-5.512954759784854"><ele>194.0</ele><time>2026-04-28T08:42:20Z</time></trkpt><trkpt lat="35.69533701483981" lon="-5.512955877728307"><ele>194.33333333333334</ele><time>2026-04-28T08:42:21Z</time></trkpt><trkpt lat="35.69514251457766" lon="-5.512945283046119"><ele>194.66666666666669</ele><time>2026-04-28T08:42:22Z</time></trkpt><trkpt lat="35.69496251387257" lon="-5.51291447426758"><ele>195.0</ele><time>2026-04-28T08:42:23Z</time></trkpt><trkpt lat="35.694795726026285" lon="-5.512874787947324"><ele>193.33333333333334</ele><time>2026-04-28T08:42:24Z</time></trkpt><trkpt lat="35.694632265352396" lon="-5.5128318645571195"><ele>191.66666666666669</ele><time>2026-04-28T08:42:25Z</time></trkpt><trkpt lat="35.694465563857655" lon="-5.5127760379544455"><ele>190.0</ele><time>2026-04-28T08:42:26Z</time></trkpt><trkpt lat="35.69430000615851" lon="-5.512698173346922"><ele>190.0</ele><time>2026-04-28T08:42:27Z</time></trkpt><trkpt lat="35.6941394814643" lon="-5.512596460045978"><ele>190.0</ele><time>2026-04-28T08:42:28Z</time></trkpt><trkpt lat="35.69399138004545" lon="-5.512466812720399"><ele>190.0</ele><time>2026-04-28T08:42:29Z</time></trkpt><trkpt lat="35.69385230235157" lon="-5.512314107008188"><ele>190.0</ele><time>2026-04-28T08:42:30Z</time></trkpt><trkpt lat="35.693732849659206" lon="-5.512139999103"><ele>190.0</ele><time>2026-04-28T08:42:31Z</time></trkpt><trkpt lat="35.69362815526247" lon="-5.511966282767654"><ele>190.0</ele><time>2026-04-28T08:42:32Z</time></trkpt><trkpt lat="35.69352106311037" lon="-5.5118021025177635"><ele>189.33333333333334</ele><time>2026-04-28T08:42:33Z</time></trkpt><trkpt lat="35.69340812475085" lon="-5.511643836840188"><ele>188.66666666666666</ele><time>2026-04-28T08:42:34Z</time></trkpt><trkpt lat="35.69329187490646" lon="-5.511488427070351"><ele>188.0</ele><time>2026-04-28T08:42:35Z</time></trkpt><trkpt lat="35.693180623317275" lon="-5.511335602532374"><ele>184.66666666666666</ele><time>2026-04-28T08:42:36Z</time></trkpt><trkpt lat="35.693060949190595" lon="-5.5111875669299355"><ele>181.33333333333334</ele><time>2026-04-28T08:42:37Z</time></trkpt><trkpt lat="35.69291682124826" lon="-5.511059579425527"><ele>178.0</ele><time>2026-04-28T08:42:38Z</time></trkpt><trkpt lat="35.69275389538442" lon="-5.510948311326548"><ele>177.66666666666669</ele><time>2026-04-28T08:42:39Z</time></trkpt><trkpt lat="35.69258210771843" lon="-5.510844283871772"><ele>177.33333333333334</ele><time>2026-04-28T08:42:40Z</time></trkpt><trkpt lat="35.69239907718928" lon="-5.510749464939669"><ele>177.0</ele><time>2026-04-28T08:42:41Z</time></trkpt><trkpt lat="35.692212945184764" lon="-5.510660581521232"><ele>177.0</ele><time>2026-04-28T08:42:42Z</time></trkpt><trkpt lat="35.692024714912094" lon="-5.510573549011975"><ele>177.0</ele><time>2026-04-28T08:42:43Z</time></trkpt><trkpt lat="35.69183673640052" lon="-5.510480634327299"><ele>177.0</ele><time>2026-04-28T08:42:44Z</time></trkpt><trkpt lat="35.691652452906816" lon="-5.510383359699363"><ele>174.33333333333334</ele><time>2026-04-28T08:42:45Z</time></trkpt><trkpt lat="35.691474301559644" lon="-5.510288158827516"><ele>171.66666666666669</ele><time>2026-04-28T08:42:46Z</time></trkpt><trkpt lat="35.69130473170796" lon="-5.510190685572873"><ele>169.0</ele><time>2026-04-28T08:42:47Z</time></trkpt><trkpt lat="35.69113862161077" lon="-5.510084699673606"><ele>168.33333333333334</ele><time>2026-04-28T08:42:48Z</time></trkpt><trkpt lat="35.69098048235678" lon="-5.50996782240687"><ele>167.66666666666666</ele><time>2026-04-28T08:42:49Z</time></trkpt><trkpt lat="35.69082636810634" lon="-5.509846237403365"><ele>167.0</ele><time>2026-04-28T08:42:50Z</time></trkpt><trkpt lat="35.69067691504148" lon="-5.509726294903395"><ele>167.0</ele><time>2026-04-28T08:42:51Z</time></trkpt><trkpt lat="35.690534882931615" lon="-5.509617878704368"><ele>167.0</ele><time>2026-04-28T08:42:52Z</time></trkpt><trkpt lat="35.690411501653955" lon="-5.509528130316265"><ele>167.0</ele><time>2026-04-28T08:42:53Z</time></trkpt><trkpt lat="35.690293051268725" lon="-5.509456853854297"><ele>167.0</ele><time>2026-04-28T08:42:54Z</time></trkpt><trkpt lat="35.69017261068588" lon="-5.509431847848381"><ele>165.25</ele><time>2026-04-28T08:42:55Z</time></trkpt><trkpt lat="35.690039081635334" lon="-5.509451340217614"><ele>163.5</ele><time>2026-04-28T08:42:56Z</time></trkpt><trkpt lat="35.68991675807459" lon="-5.509540854561544"><ele>161.75</ele><time>2026-04-28T08:42:57Z</time></trkpt><trkpt lat="35.689799730204626" lon="-5.509665275857148"><ele>160.0</ele><time>2026-04-28T08:42:58Z</time></trkpt><trkpt lat="35.68967759456446" lon="-5.509800799879871"><ele>160.0</ele><time>2026-04-28T08:42:59Z</time></trkpt><trkpt lat="35.689549308511474" lon="-5.509927131172796"><ele>160.0</ele><time>2026-04-28T08:43:00Z</time></trkpt><trkpt lat="35.689409488537905" lon="-5.510052737565785"><ele>160.0</ele><time>2026-04-28T08:43:01Z</time></trkpt><trkpt lat="35.689269849572575" lon="-5.510180484853204"><ele>156.33333333333334</ele><time>2026-04-28T08:43:02Z</time></trkpt><trkpt lat="35.68912657288012" lon="-5.510284383101876"><ele>152.66666666666666</ele><time>2026-04-28T08:43:03Z</time></trkpt><trkpt lat="35.68897318951995" lon="-5.510359315790138"><ele>149.0</ele><time>2026-04-28T08:43:04Z</time></trkpt><trkpt lat="35.68881300185151" lon="-5.510402424119494"><ele>146.33333333333331</ele><time>2026-04-28T08:43:05Z</time></trkpt><trkpt lat="35.68864761483471" lon="-5.510423034550449"><ele>143.66666666666666</ele><time>2026-04-28T08:43:06Z</time></trkpt><trkpt lat="35.688470948826065" lon="-5.510393287862333"><ele>141.0</ele><time>2026-04-28T08:43:07Z</time></trkpt><trkpt lat="35.688288379954066" lon="-5.510327344544988"><ele>141.0</ele><time>2026-04-28T08:43:08Z</time></trkpt><trkpt lat="35.68810366465214" lon="-5.5102557995594585"><ele>141.0</ele><time>2026-04-28T08:43:09Z</time></trkpt><trkpt lat="35.68791614003519" lon="-5.51023150131577"><ele>141.0</ele><time>2026-04-28T08:43:10Z</time></trkpt><trkpt lat="35.68773427350098" lon="-5.510253390001218"><ele>140.33333333333334</ele><time>2026-04-28T08:43:11Z</time></trkpt><trkpt lat="35.687557405229974" lon="-5.510272466842446"><ele>139.66666666666669</ele><time>2026-04-28T08:43:12Z</time></trkpt><trkpt lat="35.68738683163733" lon="-5.510254506577508"><ele>139.0</ele><time>2026-04-28T08:43:13Z</time></trkpt><trkpt lat="35.68721837363527" lon="-5.510196141230449"><ele>139.0</ele><time>2026-04-28T08:43:14Z</time></trkpt><trkpt lat="35.687049289992764" lon="-5.510095434999149"><ele>139.0</ele><time>2026-04-28T08:43:15Z</time></trkpt><trkpt lat="35.686886014174654" lon="-5.509979987531631"><ele>139.0</ele><time>2026-04-28T08:43:16Z</time></trkpt><trkpt lat="35.686745328202086" lon="-5.5098347289297145"><ele>138.66666666666669</ele><time>2026-04-28T08:43:17Z</time></trkpt><trkpt lat="35.68663130357734" lon="-5.509669591979756"><ele>138.33333333333334</ele><time>2026-04-28T08:43:18Z</time></trkpt><trkpt lat="35.68653269144751" lon="-5.509495518301189"><ele>138.0</ele><time>2026-04-28T08:43:19Z</time></trkpt><trkpt lat="35.68642939379998" lon="-5.509330748110283"><ele>135.5</ele><time>2026-04-28T08:43:20Z</time></trkpt><trkpt lat="35.68633207720363" lon="-5.5091936253574145"><ele>133.0</ele><time>2026-04-28T08:43:21Z</time></trkpt><trkpt lat="35.68623190217598" lon="-5.509097566470975"><ele>130.5</ele><time>2026-04-28T08:43:22Z</time></trkpt><trkpt lat="35.68611142549848" lon="-5.509049894603484"><ele>128.0</ele><time>2026-04-28T08:43:23Z</time></trkpt><trkpt lat="35.685983776578524" lon="-5.509051898660389"><ele>127.5</ele><time>2026-04-28T08:43:24Z</time></trkpt><trkpt lat="35.68586617213332" lon="-5.509123379478577"><ele>127.0</ele><time>2026-04-28T08:43:25Z</time></trkpt><trkpt lat="35.68576362295571" lon="-5.509231143329721"><ele>126.5</ele><time>2026-04-28T08:43:26Z</time></trkpt><trkpt lat="35.685686090411245" lon="-5.509367791311955"><ele>126.0</ele><time>2026-04-28T08:43:27Z</time></trkpt><trkpt lat="35.68561652694498" lon="-5.509543091264846"><ele>127.66666666666666</ele><time>2026-04-28T08:43:28Z</time></trkpt><trkpt lat="35.68553968889255" lon="-5.509747809844774"><ele>129.33333333333331</ele><time>2026-04-28T08:43:29Z</time></trkpt><trkpt lat="35.6854326559432" lon="-5.509946083290668"><ele>131.0</ele><time>2026-04-28T08:43:30Z</time></trkpt><trkpt lat="35.6853051304088" lon="-5.510114224096562"><ele>127.66666666666666</ele><time>2026-04-28T08:43:31Z</time></trkpt><trkpt lat="35.685180795172194" lon="-5.510269512082056"><ele>124.33333333333334</ele><time>2026-04-28T08:43:32Z</time></trkpt><trkpt lat="35.685083796999265" lon="-5.510440765597267"><ele>121.0</ele><time>2026-04-28T08:43:33Z</time></trkpt><trkpt lat="35.685027185602834" lon="-5.510631547050384"><ele>121.0</ele><time>2026-04-28T08:43:34Z</time></trkpt><trkpt lat="35.68500043608714" lon="-5.5108297960964565"><ele>121.0</ele><time>2026-04-28T08:43:35Z</time></trkpt><trkpt lat="35.68499463320616" lon="-5.511018733597825"><ele>121.0</ele><time>2026-04-28T08:43:36Z</time></trkpt><trkpt lat="35.684960356906146" lon="-5.511188269793624"><ele>120.66666666666667</ele><time>2026-04-28T08:43:37Z</time></trkpt><trkpt lat="35.68488503402823" lon="-5.511338640073005"><ele>120.33333333333334</ele><time>2026-04-28T08:43:38Z</time></trkpt><trkpt lat="35.68477291350695" lon="-5.51146763573879"><ele>120.0</ele><time>2026-04-28T08:43:39Z</time></trkpt><trkpt lat="35.68463704073032" lon="-5.511561250811886"><ele>120.0</ele><time>2026-04-28T08:43:40Z</time></trkpt><trkpt lat="35.684485198987126" lon="-5.5116000870605255"><ele>120.0</ele><time>2026-04-28T08:43:41Z</time></trkpt><trkpt lat="35.6843308759972" lon="-5.511586891096292"><ele>120.0</ele><time>2026-04-28T08:43:42Z</time></trkpt><trkpt lat="35.684187380626916" lon="-5.511534552376236"><ele>119.33333333333334</ele><time>2026-04-28T08:43:43Z</time></trkpt><trkpt lat="35.68404920750976" lon="-5.511458994277307"><ele>118.66666666666667</ele><time>2026-04-28T08:43:44Z</time></trkpt><trkpt lat="35.683920675171535" lon="-5.511353783826653"><ele>118.0</ele><time>2026-04-28T08:43:45Z</time></trkpt><trkpt lat="35.683806819691995" lon="-5.51120483683543"><ele>117.33333333333334</ele><time>2026-04-28T08:43:46Z</time></trkpt><trkpt lat="35.68370231502743" lon="-5.511022981090884"><ele>116.66666666666666</ele><time>2026-04-28T08:43:47Z</time></trkpt><trkpt lat="35.68361520049393" lon="-5.5108323832183"><ele>116.0</ele><time>2026-04-28T08:43:48Z</time></trkpt><trkpt lat="35.683522924430285" lon="-5.510654328365042"><ele>116.0</ele><time>2026-04-28T08:43:49Z</time></trkpt><trkpt lat="35.683466148999756" lon="-5.510464351161372"><ele>116.0</ele><time>2026-04-28T08:43:50Z</time></trkpt><trkpt lat="35.6834606702173" lon="-5.510260169280197"><ele>116.0</ele><time>2026-04-28T08:43:51Z</time></trkpt><trkpt lat="35.6834941195989" lon="-5.510065604303975"><ele>115.0</ele><time>2026-04-28T08:43:52Z</time></trkpt><trkpt lat="35.683560020116666" lon="-5.509876659008192"><ele>114.0</ele><time>2026-04-28T08:43:53Z</time></trkpt><trkpt lat="35.6836306900133" lon="-5.509689345669297"><ele>113.0</ele><time>2026-04-28T08:43:54Z</time></trkpt><trkpt lat="35.68370301516129" lon="-5.509522156754354"><ele>111.5</ele><time>2026-04-28T08:43:55Z</time></trkpt><trkpt lat="35.68376593290495" lon="-5.50935936892768"><ele>110.0</ele><time>2026-04-28T08:43:56Z</time></trkpt><trkpt lat="35.68378679255469" lon="-5.509226050480258"><ele>108.5</ele><time>2026-04-28T08:43:57Z</time></trkpt><trkpt lat="35.683740587365335" lon="-5.509125479636327"><ele>107.0</ele><time>2026-04-28T08:43:58Z</time></trkpt><trkpt lat="35.68366534203299" lon="-5.509044849731261"><ele>105.66666666666666</ele><time>2026-04-28T08:43:59Z</time></trkpt><trkpt lat="35.68356563000947" lon="-5.5089228647714314"><ele>104.33333333333334</ele><time>2026-04-28T08:44:00Z</time></trkpt><trkpt lat="35.683450779856976" lon="-5.50876737015694"><ele>103.0</ele><time>2026-04-28T08:44:01Z</time></trkpt><trkpt lat="35.68331253907264" lon="-5.5086014556282885"><ele>103.0</ele><time>2026-04-28T08:44:02Z</time></trkpt><trkpt lat="35.68317546399231" lon="-5.508421482359325"><ele>103.0</ele><time>2026-04-28T08:44:03Z</time></trkpt><trkpt lat="35.68304130209212" lon="-5.508256920893143"><ele>103.0</ele><time>2026-04-28T08:44:04Z</time></trkpt><trkpt lat="35.68290366890618" lon="-5.508070802410031"><ele>103.33333333333334</ele><time>2026-04-28T08:44:05Z</time></trkpt><trkpt lat="35.682761605037996" lon="-5.507885059895107"><ele>103.66666666666666</ele><time>2026-04-28T08:44:06Z</time></trkpt><trkpt lat="35.68262714160042" lon="-5.507721459687659"><ele>104.0</ele><time>2026-04-28T08:44:07Z</time></trkpt><trkpt lat="35.68249127678894" lon="-5.507553156908508"><ele>104.0</ele><time>2026-04-28T08:44:08Z</time></trkpt><trkpt lat="35.6823264134794" lon="-5.507439138497486"><ele>104.0</ele><time>2026-04-28T08:44:09Z</time></trkpt><trkpt lat="35.68215251265048" lon="-5.5073487945000394"><ele>104.0</ele><time>2026-04-28T08:44:10Z</time></trkpt><trkpt lat="35.68197147219162" lon="-5.507263175717613"><ele>103.66666666666666</ele><time>2026-04-28T08:44:11Z</time></trkpt><trkpt lat="35.68178198573126" lon="-5.507194226354037"><ele>103.33333333333334</ele><time>2026-04-28T08:44:12Z</time></trkpt><trkpt lat="35.68158555935826" lon="-5.507115137128813"><ele>103.0</ele><time>2026-04-28T08:44:13Z</time></trkpt><trkpt lat="35.681380508983004" lon="-5.507048983423538"><ele>103.0</ele><time>2026-04-28T08:44:14Z</time></trkpt><trkpt lat="35.68116395202302" lon="-5.507007369499001"><ele>103.0</ele><time>2026-04-28T08:44:15Z</time></trkpt><trkpt lat="35.68094023979682" lon="-5.506985235872969"><ele>103.0</ele><time>2026-04-28T08:44:16Z</time></trkpt><trkpt lat="35.68070910401767" lon="-5.506977086287095"><ele>103.0</ele><time>2026-04-28T08:44:17Z</time></trkpt><trkpt lat="35.6804902050894" lon="-5.506962115482034"><ele>103.0</ele><time>2026-04-28T08:44:18Z</time></trkpt><trkpt lat="35.680280821695014" lon="-5.50692722067144"><ele>103.0</ele><time>2026-04-28T08:44:19Z</time></trkpt><trkpt lat="35.68008271804174" lon="-5.506876364690023"><ele>100.66666666666667</ele><time>2026-04-28T08:44:20Z</time></trkpt><trkpt lat="35.67989246186306" lon="-5.506823743914657"><ele>98.33333333333334</ele><time>2026-04-28T08:44:21Z</time></trkpt><trkpt lat="35.679706504330106" lon="-5.50676057500898"><ele>96.0</ele><time>2026-04-28T08:44:22Z</time></trkpt><trkpt lat="35.67952146326646" lon="-5.506672567275679"><ele>94.0</ele><time>2026-04-28T08:44:23Z</time></trkpt><trkpt lat="35.67933090105355" lon="-5.506561547072532"><ele>92.0</ele><time>2026-04-28T08:44:24Z</time></trkpt><trkpt lat="35.67913262305994" lon="-5.506444022823804"><ele>90.0</ele><time>2026-04-28T08:44:25Z</time></trkpt><trkpt lat="35.67893647740657" lon="-5.50633085984753"><ele>89.66666666666667</ele><time>2026-04-28T08:44:26Z</time></trkpt><trkpt lat="35.67874555574514" lon="-5.506235489533028"><ele>89.33333333333334</ele><time>2026-04-28T08:44:27Z</time></trkpt><trkpt lat="35.67855506520563" lon="-5.50615701842163"><ele>89.0</ele><time>2026-04-28T08:44:28Z</time></trkpt><trkpt lat="35.67835709454438" lon="-5.506108304145597"><ele>87.66666666666667</ele><time>2026-04-28T08:44:29Z</time></trkpt><trkpt lat="35.6781534314055" lon="-5.506075976109325"><ele>86.33333333333333</ele><time>2026-04-28T08:44:30Z</time></trkpt><trkpt lat="35.67794874819447" lon="-5.506055546430191"><ele>85.0</ele><time>2026-04-28T08:44:31Z</time></trkpt><trkpt lat="35.6777469016029" lon="-5.506050189060343"><ele>84.0</ele><time>2026-04-28T08:44:32Z</time></trkpt><trkpt lat="35.67754291261748" lon="-5.506062148353849"><ele>83.0</ele><time>2026-04-28T08:44:33Z</time></trkpt><trkpt lat="35.67733828987969" lon="-5.5060818781409"><ele>82.0</ele><time>2026-04-28T08:44:34Z</time></trkpt><trkpt lat="35.67713098685566" lon="-5.506114240336527"><ele>81.33333333333333</ele><time>2026-04-28T08:44:35Z</time></trkpt><trkpt lat="35.676931632989074" lon="-5.506179599613134"><ele>80.66666666666667</ele><time>2026-04-28T08:44:36Z</time></trkpt><trkpt lat="35.67673008900371" lon="-5.506276975788413"><ele>80.0</ele><time>2026-04-28T08:44:37Z</time></trkpt><trkpt lat="35.6765270841565" lon="-5.5063840811329525"><ele>80.0</ele><time>2026-04-28T08:44:38Z</time></trkpt><trkpt lat="35.67633079333604" lon="-5.506494534191886"><ele>80.0</ele><time>2026-04-28T08:44:39Z</time></trkpt><trkpt lat="35.67614410112919" lon="-5.5066107833168205"><ele>80.0</ele><time>2026-04-28T08:44:40Z</time></trkpt><trkpt lat="35.67596004267285" lon="-5.506723712805046"><ele>79.0</ele><time>2026-04-28T08:44:41Z</time></trkpt><trkpt lat="35.67577839953242" lon="-5.50682581130182"><ele>78.0</ele><time>2026-04-28T08:44:42Z</time></trkpt><trkpt lat="35.675597867292936" lon="-5.506923120886908"><ele>77.0</ele><time>2026-04-28T08:44:43Z</time></trkpt><trkpt lat="35.67541742476665" lon="-5.507023049223298"><ele>79.0</ele><time>2026-04-28T08:44:44Z</time></trkpt><trkpt lat="35.67523826816512" lon="-5.507126861309261"><ele>81.0</ele><time>2026-04-28T08:44:45Z</time></trkpt><trkpt lat="35.67506216719407" lon="-5.5072298725344835"><ele>83.0</ele><time>2026-04-28T08:44:46Z</time></trkpt><trkpt lat="35.67488557031248" lon="-5.507329394472665"><ele>83.0</ele><time>2026-04-28T08:44:47Z</time></trkpt><trkpt lat="35.674706243467604" lon="-5.5074259990554575"><ele>83.0</ele><time>2026-04-28T08:44:48Z</time></trkpt><trkpt lat="35.67452589087205" lon="-5.507522296805955"><ele>83.0</ele><time>2026-04-28T08:44:49Z</time></trkpt><trkpt lat="35.67434553183267" lon="-5.507622862876512"><ele>82.66666666666667</ele><time>2026-04-28T08:44:50Z</time></trkpt><trkpt lat="35.67416434305836" lon="-5.507727867414313"><ele>82.33333333333333</ele><time>2026-04-28T08:44:51Z</time></trkpt><trkpt lat="35.67397788789398" lon="-5.507832642858303"><ele>82.0</ele><time>2026-04-28T08:44:52Z</time></trkpt><trkpt lat="35.67378686751543" lon="-5.5079356588853"><ele>82.0</ele><time>2026-04-28T08:44:53Z</time></trkpt><trkpt lat="35.67359393304761" lon="-5.508041928159646"><ele>82.0</ele><time>2026-04-28T08:44:54Z</time></trkpt><trkpt lat="35.673403604896585" lon="-5.508150959927188"><ele>82.0</ele><time>2026-04-28T08:44:55Z</time></trkpt><trkpt lat="35.6732185431934" lon="-5.508256041310921"><ele>82.0</ele><time>2026-04-28T08:44:56Z</time></trkpt><trkpt lat="35.67303777376464" lon="-5.508357144441664"><ele>82.0</ele><time>2026-04-28T08:44:57Z</time></trkpt><trkpt lat="35.67285858939154" lon="-5.508455421862311"><ele>82.0</ele><time>2026-04-28T08:44:58Z</time></trkpt><trkpt lat="35.67268086754334" lon="-5.508552496377215"><ele>82.0</ele><time>2026-04-28T08:44:59Z</time></trkpt><trkpt lat="35.672503077472044" lon="-5.508646449789308"><ele>82.0</ele><time>2026-04-28T08:45:00Z</time></trkpt><trkpt lat="35.6723244379337" lon="-5.508734795840394"><ele>82.0</ele><time>2026-04-28T08:45:01Z</time></trkpt><trkpt lat="35.672144227439034" lon="-5.50881802654075"><ele>82.66666666666666</ele><time>2026-04-28T08:45:02Z</time></trkpt><trkpt lat="35.67196497125084" lon="-5.508895597092135"><ele>83.33333333333333</ele><time>2026-04-28T08:45:03Z</time></trkpt><trkpt lat="35.67178503515451" lon="-5.508967004131823"><ele>84.0</ele><time>2026-04-28T08:45:04Z</time></trkpt><trkpt lat="35.67160398903025" lon="-5.50902920961592"><ele>84.0</ele><time>2026-04-28T08:45:05Z</time></trkpt><trkpt lat="35.67142025282049" lon="-5.509084244096859"><ele>84.0</ele><time>2026-04-28T08:45:06Z</time></trkpt><trkpt lat="35.67123297675759" lon="-5.509128157874451"><ele>84.0</ele><time>2026-04-28T08:45:07Z</time></trkpt><trkpt lat="35.67103926972183" lon="-5.5091574472211216"><ele>83.33333333333333</ele><time>2026-04-28T08:45:08Z</time></trkpt><trkpt lat="35.67084244798825" lon="-5.509175874545688"><ele>82.66666666666666</ele><time>2026-04-28T08:45:09Z</time></trkpt><trkpt lat="35.67064358201343" lon="-5.509177424718507"><ele>82.0</ele><time>2026-04-28T08:45:10Z</time></trkpt><trkpt lat="35.67045298015598" lon="-5.509168639060809"><ele>81.0</ele><time>2026-04-28T08:45:11Z</time></trkpt><trkpt lat="35.67026930834201" lon="-5.509152608649423"><ele>80.0</ele><time>2026-04-28T08:45:12Z</time></trkpt><trkpt lat="35.67008758662414" lon="-5.509127649303009"><ele>79.0</ele><time>2026-04-28T08:45:13Z</time></trkpt><trkpt lat="35.66991543685699" lon="-5.509070601286413"><ele>79.0</ele><time>2026-04-28T08:45:14Z</time></trkpt><trkpt lat="35.66976116444829" lon="-5.5090034065918285"><ele>79.0</ele><time>2026-04-28T08:45:15Z</time></trkpt><trkpt lat="35.66961583019682" lon="-5.508926095148802"><ele>79.0</ele><time>2026-04-28T08:45:16Z</time></trkpt><trkpt lat="35.66948101612796" lon="-5.508869989505746"><ele>78.25</ele><time>2026-04-28T08:45:17Z</time></trkpt><trkpt lat="35.66935040706856" lon="-5.508831578285078"><ele>77.5</ele><time>2026-04-28T08:45:18Z</time></trkpt><trkpt lat="35.669231238758705" lon="-5.508814749627526"><ele>76.75</ele><time>2026-04-28T08:45:19Z</time></trkpt><trkpt lat="35.6691265019188" lon="-5.508849296964067"><ele>76.0</ele><time>2026-04-28T08:45:20Z</time></trkpt><trkpt lat="35.66903260805214" lon="-5.508938038432961"><ele>76.0</ele><time>2026-04-28T08:45:21Z</time></trkpt><trkpt lat="35.668954480343395" lon="-5.50906932452759"><ele>76.0</ele><time>2026-04-28T08:45:22Z</time></trkpt><trkpt lat="35.66887741477615" lon="-5.509237699252253"><ele>76.0</ele><time>2026-04-28T08:45:23Z</time></trkpt><trkpt lat="35.6687911784396" lon="-5.509418589319744"><ele>76.0</ele><time>2026-04-28T08:45:24Z</time></trkpt><trkpt lat="35.668698965983474" lon="-5.509592475892894"><ele>76.0</ele><time>2026-04-28T08:45:25Z</time></trkpt><trkpt lat="35.66860455513532" lon="-5.5097711261403495"><ele>76.0</ele><time>2026-04-28T08:45:26Z</time></trkpt><trkpt lat="35.668513550650374" lon="-5.50994428997965"><ele>76.0</ele><time>2026-04-28T08:45:27Z</time></trkpt><trkpt lat="35.66842666860105" lon="-5.510111284902591"><ele>76.0</ele><time>2026-04-28T08:45:28Z</time></trkpt><trkpt lat="35.668345549478154" lon="-5.510273627892856"><ele>76.0</ele><time>2026-04-28T08:45:29Z</time></trkpt><trkpt lat="35.66826201422718" lon="-5.510429585421749"><ele>78.0</ele><time>2026-04-28T08:45:30Z</time></trkpt><trkpt lat="35.66817913181876" lon="-5.510579632590798"><ele>80.0</ele><time>2026-04-28T08:45:31Z</time></trkpt><trkpt lat="35.66809528319802" lon="-5.510724184915312"><ele>82.0</ele><time>2026-04-28T08:45:32Z</time></trkpt><trkpt lat="35.668002773904064" lon="-5.510860629498307"><ele>84.0</ele><time>2026-04-28T08:45:33Z</time></trkpt><trkpt lat="35.66789210588489" lon="-5.510965665004928"><ele>82.75</ele><time>2026-04-28T08:45:34Z</time></trkpt><trkpt lat="35.66777015792733" lon="-5.511033164378184"><ele>81.5</ele><time>2026-04-28T08:45:35Z</time></trkpt><trkpt lat="35.66763656266866" lon="-5.511067107615577"><ele>80.25</ele><time>2026-04-28T08:45:36Z</time></trkpt><trkpt lat="35.66749547961069" lon="-5.511081076802793"><ele>79.0</ele><time>2026-04-28T08:45:37Z</time></trkpt><trkpt lat="35.667346582971064" lon="-5.511094426056392"><ele>79.0</ele><time>2026-04-28T08:45:38Z</time></trkpt><trkpt lat="35.66719687063474" lon="-5.511117222277289"><ele>79.0</ele><time>2026-04-28T08:45:39Z</time></trkpt><trkpt lat="35.66704345856943" lon="-5.511155293288468"><ele>79.0</ele><time>2026-04-28T08:45:40Z</time></trkpt><trkpt lat="35.666891624893886" lon="-5.511175523565954"><ele>78.25</ele><time>2026-04-28T08:45:41Z</time></trkpt><trkpt lat="35.666746334388996" lon="-5.5111811789629925"><ele>77.5</ele><time>2026-04-28T08:45:42Z</time></trkpt><trkpt lat="35.6666024760112" lon="-5.511194706416684"><ele>76.75</ele><time>2026-04-28T08:45:43Z</time></trkpt><trkpt lat="35.66647063405725" lon="-5.511184079764897"><ele>76.0</ele><time>2026-04-28T08:45:44Z</time></trkpt><trkpt lat="35.6663319214486" lon="-5.51118694739167"><ele>76.0</ele><time>2026-04-28T08:45:45Z</time></trkpt><trkpt lat="35.66619891247287" lon="-5.511202066128435"><ele>76.0</ele><time>2026-04-28T08:45:46Z</time></trkpt><trkpt lat="35.66607803103985" lon="-5.511260189942156"><ele>76.0</ele><time>2026-04-28T08:45:47Z</time></trkpt><trkpt lat="35.66597828529133" lon="-5.511353843655388"><ele>76.0</ele><time>2026-04-28T08:45:48Z</time></trkpt><trkpt lat="35.66590322485761" lon="-5.511469942381305"><ele>76.39999999999999</ele><time>2026-04-28T08:45:49Z</time></trkpt><trkpt lat="35.66588303474246" lon="-5.51161028509519"><ele>76.8</ele><time>2026-04-28T08:45:50Z</time></trkpt><trkpt lat="35.66584345110635" lon="-5.51172738140406"><ele>77.19999999999999</ele><time>2026-04-28T08:45:51Z</time></trkpt><trkpt lat="35.66584123877298" lon="-5.51184327952125"><ele>77.6</ele><time>2026-04-28T08:45:52Z</time></trkpt><trkpt lat="35.665833220833136" lon="-5.511956086648036"><ele>78.0</ele><time>2026-04-28T08:45:53Z</time></trkpt><trkpt lat="35.66582241298607" lon="-5.512061620993351"><ele>78.5</ele><time>2026-04-28T08:45:54Z</time></trkpt><trkpt lat="35.66581055526435" lon="-5.5121595005473845"><ele>79.0</ele><time>2026-04-28T08:45:55Z</time></trkpt><trkpt lat="35.66577735536835" lon="-5.5122387003932625"><ele>79.5</ele><time>2026-04-28T08:45:56Z</time></trkpt><trkpt lat="35.66571169402476" lon="-5.512301918849528"><ele>80.0</ele><time>2026-04-28T08:45:57Z</time></trkpt><trkpt lat="35.66562158107597" lon="-5.512342574565721"><ele>80.5</ele><time>2026-04-28T08:45:58Z</time></trkpt><trkpt lat="35.66552446983662" lon="-5.512349580759267"><ele>81.0</ele><time>2026-04-28T08:45:59Z</time></trkpt><trkpt lat="35.665423959829276" lon="-5.512355605209048"><ele>81.0</ele><time>2026-04-28T08:46:00Z</time></trkpt><trkpt lat="35.6653328421409" lon="-5.512369415840596"><ele>81.0</ele><time>2026-04-28T08:46:01Z</time></trkpt><trkpt lat="35.66524874366297" lon="-5.51238886558907"><ele>81.0</ele><time>2026-04-28T08:46:02Z</time></trkpt><trkpt lat="35.66517461576406" lon="-5.512409598123474"><ele>81.0</ele><time>2026-04-28T08:46:03Z</time></trkpt><trkpt lat="35.66511470205853" lon="-5.512443140365902"><ele>81.0</ele><time>2026-04-28T08:46:04Z</time></trkpt><trkpt lat="35.66505227496201" lon="-5.512467521968862"><ele>81.0</ele><time>2026-04-28T08:46:06Z</time></trkpt><trkpt lat="35.66497320058081" lon="-5.5123633986015514"><ele>81.0</ele><time>2026-04-28T08:46:08Z</time></trkpt><trkpt lat="35.664966183749456" lon="-5.512281065765544"><ele>81.0</ele><time>2026-04-28T08:46:09Z</time></trkpt><trkpt lat="35.66495825164354" lon="-5.5121879933180775"><ele>81.0</ele><time>2026-04-28T08:46:10Z</time></trkpt><trkpt lat="35.664950367034436" lon="-5.512095478139335"><ele>81.0</ele><time>2026-04-28T08:46:11Z</time></trkpt><trkpt lat="35.66494181828286" lon="-5.511995170186491"><ele>81.0</ele><time>2026-04-28T08:46:12Z</time></trkpt><trkpt lat="35.664933172534795" lon="-5.511893724099476"><ele>81.0</ele><time>2026-04-28T08:46:13Z</time></trkpt><trkpt lat="35.664924250026004" lon="-5.511789030601117"><ele>80.33333333333333</ele><time>2026-04-28T08:46:14Z</time></trkpt><trkpt lat="35.66491528589525" lon="-5.511683848700888"><ele>79.66666666666667</ele><time>2026-04-28T08:46:15Z</time></trkpt><trkpt lat="35.66490609729098" lon="-5.511576032944842"><ele>79.0</ele><time>2026-04-28T08:46:16Z</time></trkpt><trkpt lat="35.66489681644206" lon="-5.511467134792006"><ele>78.33333333333334</ele><time>2026-04-28T08:46:17Z</time></trkpt><trkpt lat="35.664882439901376" lon="-5.5113710220557115"><ele>77.66666666666667</ele><time>2026-04-28T08:46:18Z</time></trkpt><trkpt lat="35.66486056796106" lon="-5.511284221350412"><ele>77.0</ele><time>2026-04-28T08:46:19Z</time></trkpt><trkpt lat="35.664839876952776" lon="-5.511208091304389"><ele>77.0</ele><time>2026-04-28T08:46:20Z</time></trkpt><trkpt lat="35.6648311560568" lon="-5.511116668600882"><ele>77.0</ele><time>2026-04-28T08:46:21Z</time></trkpt><trkpt lat="35.66479000399452" lon="-5.511034464593466"><ele>77.0</ele><time>2026-04-28T08:46:22Z</time></trkpt><trkpt lat="35.66473192122744" lon="-5.510985141751483"><ele>77.0</ele><time>2026-04-28T08:46:23Z</time></trkpt><trkpt lat="35.66466830145443" lon="-5.5109656586189395"><ele>77.0</ele><time>2026-04-28T08:46:24Z</time></trkpt><trkpt lat="35.66457130499316" lon="-5.510953313915988"><ele>77.0</ele><time>2026-04-28T08:46:26Z</time></trkpt><trkpt lat="35.66449631636546" lon="-5.5108753366582395"><ele>77.0</ele><time>2026-04-28T08:46:28Z</time></trkpt><trkpt lat="35.66445443608868" lon="-5.510802418439982"><ele>77.0</ele><time>2026-04-28T08:46:29Z</time></trkpt><trkpt lat="35.66442641951749" lon="-5.510711181488336"><ele>77.0</ele><time>2026-04-28T08:46:30Z</time></trkpt><trkpt lat="35.66440797136342" lon="-5.510609399526984"><ele>77.0</ele><time>2026-04-28T08:46:31Z</time></trkpt><trkpt lat="35.664398055250146" lon="-5.510510313354533"><ele>77.0</ele><time>2026-04-28T08:46:32Z</time></trkpt><trkpt lat="35.664381887511894" lon="-5.510423937409516"><ele>77.0</ele><time>2026-04-28T08:46:33Z</time></trkpt><trkpt lat="35.664369791763185" lon="-5.510337355445655"><ele>76.57142857142857</ele><time>2026-04-28T08:46:34Z</time></trkpt><trkpt lat="35.66435553179938" lon="-5.510253647921329"><ele>76.14285714285714</ele><time>2026-04-28T08:46:35Z</time></trkpt><trkpt lat="35.66434777391753" lon="-5.51016766038457"><ele>75.71428571428572</ele><time>2026-04-28T08:46:36Z</time></trkpt><trkpt lat="35.664341460620825" lon="-5.510082884747815"><ele>75.28571428571428</ele><time>2026-04-28T08:46:37Z</time></trkpt><trkpt lat="35.66434243628461" lon="-5.5099989103086084"><ele>74.85714285714286</ele><time>2026-04-28T08:46:38Z</time></trkpt><trkpt lat="35.66435600321583" lon="-5.509918107577979"><ele>74.42857142857143</ele><time>2026-04-28T08:46:39Z</time></trkpt><trkpt lat="35.66434634296696" lon="-5.509817098655057"><ele>74.0</ele><time>2026-04-28T08:46:40Z</time></trkpt><trkpt lat="35.66435895418844" lon="-5.509701610466844"><ele>71.5</ele><time>2026-04-28T08:46:41Z</time></trkpt><trkpt lat="35.664381436170245" lon="-5.509575084990865"><ele>69.0</ele><time>2026-04-28T08:46:42Z</time></trkpt><trkpt lat="35.66440761191811" lon="-5.509444182270349"><ele>66.5</ele><time>2026-04-28T08:46:43Z</time></trkpt><trkpt lat="35.6644398286277" lon="-5.509292331589669"><ele>64.0</ele><time>2026-04-28T08:46:44Z</time></trkpt><trkpt lat="35.6644649112718" lon="-5.509133081318858"><ele>63.5</ele><time>2026-04-28T08:46:45Z</time></trkpt><trkpt lat="35.6644738264772" lon="-5.508973690798941"><ele>63.0</ele><time>2026-04-28T08:46:46Z</time></trkpt><trkpt lat="35.66447530323921" lon="-5.508810709902051"><ele>62.5</ele><time>2026-04-28T08:46:47Z</time></trkpt><trkpt lat="35.66447039428051" lon="-5.508646153500951"><ele>62.0</ele><time>2026-04-28T08:46:48Z</time></trkpt><trkpt lat="35.66444500926223" lon="-5.508475415059747"><ele>61.66666666666667</ele><time>2026-04-28T08:46:49Z</time></trkpt><trkpt lat="35.66435771852085" lon="-5.508322478104737"><ele>61.33333333333333</ele><time>2026-04-28T08:46:50Z</time></trkpt><trkpt lat="35.664277455044356" lon="-5.508156859460183"><ele>61.0</ele><time>2026-04-28T08:46:51Z</time></trkpt><trkpt lat="35.664196248224" lon="-5.507988109595232"><ele>61.0</ele><time>2026-04-28T08:46:52Z</time></trkpt><trkpt lat="35.66412698972955" lon="-5.507808390555291"><ele>61.0</ele><time>2026-04-28T08:46:53Z</time></trkpt><trkpt lat="35.66404016061617" lon="-5.50764749743808"><ele>61.0</ele><time>2026-04-28T08:46:54Z</time></trkpt><trkpt lat="35.663956016619785" lon="-5.507477196356433"><ele>61.0</ele><time>2026-04-28T08:46:55Z</time></trkpt><trkpt lat="35.66385076972417" lon="-5.507316237624815"><ele>61.0</ele><time>2026-04-28T08:46:56Z</time></trkpt><trkpt lat="35.66377963158201" lon="-5.507132912383597"><ele>61.0</ele><time>2026-04-28T08:46:57Z</time></trkpt><trkpt lat="35.663691560203766" lon="-5.5069606664950355"><ele>62.666666666666664</ele><time>2026-04-28T08:46:58Z</time></trkpt><trkpt lat="35.66360478594966" lon="-5.506788969695709"><ele>64.33333333333333</ele><time>2026-04-28T08:46:59Z</time></trkpt><trkpt lat="35.66351832342539" lon="-5.506614924437565"><ele>66.0</ele><time>2026-04-28T08:47:00Z</time></trkpt><trkpt lat="35.66342991909051" lon="-5.50643792773557"><ele>66.0</ele><time>2026-04-28T08:47:01Z</time></trkpt><trkpt lat="35.663343199554056" lon="-5.506261168721602"><ele>66.0</ele><time>2026-04-28T08:47:02Z</time></trkpt><trkpt lat="35.66325425934117" lon="-5.50608271032945"><ele>66.0</ele><time>2026-04-28T08:47:03Z</time></trkpt><trkpt lat="35.66316558712156" lon="-5.505906202628679"><ele>66.33333333333333</ele><time>2026-04-28T08:47:04Z</time></trkpt><trkpt lat="35.66307587071439" lon="-5.505730752122405"><ele>66.66666666666666</ele><time>2026-04-28T08:47:05Z</time></trkpt><trkpt lat="35.66298410511955" lon="-5.505556556396469"><ele>67.0</ele><time>2026-04-28T08:47:06Z</time></trkpt><trkpt lat="35.66289778923471" lon="-5.505380163656785"><ele>67.0</ele><time>2026-04-28T08:47:07Z</time></trkpt><trkpt lat="35.662814808720185" lon="-5.505200292122975"><ele>67.0</ele><time>2026-04-28T08:47:08Z</time></trkpt><trkpt lat="35.66273529932041" lon="-5.505023367402879"><ele>67.0</ele><time>2026-04-28T08:47:09Z</time></trkpt><trkpt lat="35.66265448308755" lon="-5.504848568191923"><ele>67.0</ele><time>2026-04-28T08:47:10Z</time></trkpt><trkpt lat="35.662567379077345" lon="-5.504682766759864"><ele>67.0</ele><time>2026-04-28T08:47:11Z</time></trkpt><trkpt lat="35.66247723870332" lon="-5.504521474303398"><ele>67.0</ele><time>2026-04-28T08:47:12Z</time></trkpt><trkpt lat="35.66239427331466" lon="-5.504358966858561"><ele>67.5</ele><time>2026-04-28T08:47:13Z</time></trkpt><trkpt lat="35.66231521190844" lon="-5.5041975545895365"><ele>68.0</ele><time>2026-04-28T08:47:14Z</time></trkpt><trkpt lat="35.66223642530592" lon="-5.504044325838453"><ele>68.5</ele><time>2026-04-28T08:47:15Z</time></trkpt><trkpt lat="35.66216293560126" lon="-5.503903331991905"><ele>69.0</ele><time>2026-04-28T08:47:16Z</time></trkpt><trkpt lat="35.66209518142038" lon="-5.503767389205227"><ele>69.2</ele><time>2026-04-28T08:47:17Z</time></trkpt><trkpt lat="35.66203363313354" lon="-5.503650956759873"><ele>69.4</ele><time>2026-04-28T08:47:18Z</time></trkpt><trkpt lat="35.661981897795215" lon="-5.503536283057777"><ele>69.6</ele><time>2026-04-28T08:47:19Z</time></trkpt><trkpt lat="35.66193560617214" lon="-5.503438215005255"><ele>69.8</ele><time>2026-04-28T08:47:20Z</time></trkpt><trkpt lat="35.661890934924436" lon="-5.503366176604309"><ele>70.0</ele><time>2026-04-28T08:47:21Z</time></trkpt><trkpt lat="35.66180531752604" lon="-5.503276322859481"><ele>70.0</ele><time>2026-04-28T08:47:23Z</time></trkpt><trkpt lat="35.66167020927337" lon="-5.503257735476923"><ele>70.0</ele><time>2026-04-28T08:47:25Z</time></trkpt><trkpt lat="35.66157229782343" lon="-5.503274781207764"><ele>70.0</ele><time>2026-04-28T08:47:26Z</time></trkpt><trkpt lat="35.661473252056915" lon="-5.503307045688266"><ele>70.0</ele><time>2026-04-28T08:47:27Z</time></trkpt><trkpt lat="35.661366440084805" lon="-5.503345570037312"><ele>70.0</ele><time>2026-04-28T08:47:28Z</time></trkpt><trkpt lat="35.66124341023319" lon="-5.503373752068652"><ele>70.0</ele><time>2026-04-28T08:47:29Z</time></trkpt><trkpt lat="35.66111192559713" lon="-5.5034095052515255"><ele>70.0</ele><time>2026-04-28T08:47:30Z</time></trkpt><trkpt lat="35.66098302069954" lon="-5.503444518381342"><ele>70.0</ele><time>2026-04-28T08:47:31Z</time></trkpt><trkpt lat="35.660845743167606" lon="-5.5034776370022165"><ele>70.0</ele><time>2026-04-28T08:47:32Z</time></trkpt><trkpt lat="35.66069859106989" lon="-5.503511623117792"><ele>70.0</ele><time>2026-04-28T08:47:33Z</time></trkpt><trkpt lat="35.66054655985772" lon="-5.503552887968298"><ele>70.0</ele><time>2026-04-28T08:47:34Z</time></trkpt><trkpt lat="35.66039860836389" lon="-5.5035966660278115"><ele>70.0</ele><time>2026-04-28T08:47:35Z</time></trkpt><trkpt lat="35.66024868186047" lon="-5.503635529211298"><ele>70.66666666666666</ele><time>2026-04-28T08:47:36Z</time></trkpt><trkpt lat="35.66009080658874" lon="-5.5036710837851555"><ele>71.33333333333333</ele><time>2026-04-28T08:47:37Z</time></trkpt><trkpt lat="35.65992659881839" lon="-5.503698576495381"><ele>72.0</ele><time>2026-04-28T08:47:38Z</time></trkpt><trkpt lat="35.65975846908958" lon="-5.503710610129277"><ele>72.0</ele><time>2026-04-28T08:47:39Z</time></trkpt><trkpt lat="35.65960260862905" lon="-5.503691939060453"><ele>72.0</ele><time>2026-04-28T08:47:40Z</time></trkpt><trkpt lat="35.65945389026566" lon="-5.50364954326795"><ele>72.0</ele><time>2026-04-28T08:47:41Z</time></trkpt><trkpt lat="35.65931321597531" lon="-5.503576808055659"><ele>71.5</ele><time>2026-04-28T08:47:42Z</time></trkpt><trkpt lat="35.65918544251578" lon="-5.503480693088898"><ele>71.0</ele><time>2026-04-28T08:47:43Z</time></trkpt><trkpt lat="35.65906826058317" lon="-5.50338391171182"><ele>70.5</ele><time>2026-04-28T08:47:44Z</time></trkpt><trkpt lat="35.658958344790115" lon="-5.5032869908397455"><ele>70.0</ele><time>2026-04-28T08:47:45Z</time></trkpt><trkpt lat="35.658848887493" lon="-5.503195482077124"><ele>70.0</ele><time>2026-04-28T08:47:46Z</time></trkpt><trkpt lat="35.65874451023704" lon="-5.503106730532304"><ele>70.0</ele><time>2026-04-28T08:47:47Z</time></trkpt><trkpt lat="35.65864169402354" lon="-5.503020533967106"><ele>70.0</ele><time>2026-04-28T08:47:48Z</time></trkpt><trkpt lat="35.65854078529755" lon="-5.502929918471754"><ele>70.0</ele><time>2026-04-28T08:47:49Z</time></trkpt><trkpt lat="35.65844120321046" lon="-5.5028373907929256"><ele>69.0</ele><time>2026-04-28T08:47:50Z</time></trkpt><trkpt lat="35.6583319606237" lon="-5.50274019773874"><ele>68.0</ele><time>2026-04-28T08:47:51Z</time></trkpt><trkpt lat="35.65819413748796" lon="-5.502647929225644"><ele>67.0</ele><time>2026-04-28T08:47:52Z</time></trkpt><trkpt lat="35.6580507385376" lon="-5.502540216379876"><ele>67.0</ele><time>2026-04-28T08:47:53Z</time></trkpt><trkpt lat="35.657905327817545" lon="-5.502410291141149"><ele>67.0</ele><time>2026-04-28T08:47:54Z</time></trkpt><trkpt lat="35.65775879799487" lon="-5.502281605916433"><ele>67.0</ele><time>2026-04-28T08:47:55Z</time></trkpt><trkpt lat="35.65760852379914" lon="-5.502157091610184"><ele>65.33333333333333</ele><time>2026-04-28T08:47:56Z</time></trkpt><trkpt lat="35.65745766178272" lon="-5.502031978064455"><ele>63.66666666666667</ele><time>2026-04-28T08:47:57Z</time></trkpt><trkpt lat="35.65730862927207" lon="-5.501905042952121"><ele>62.0</ele><time>2026-04-28T08:47:58Z</time></trkpt><trkpt lat="35.657160323691755" lon="-5.501775730652175"><ele>62.0</ele><time>2026-04-28T08:47:59Z</time></trkpt><trkpt lat="35.657011962305944" lon="-5.5016511001356845"><ele>62.0</ele><time>2026-04-28T08:48:00Z</time></trkpt><trkpt lat="35.656866641114355" lon="-5.501527473136842"><ele>62.0</ele><time>2026-04-28T08:48:01Z</time></trkpt><trkpt lat="35.65671892894638" lon="-5.501402969947317"><ele>61.66666666666667</ele><time>2026-04-28T08:48:02Z</time></trkpt><trkpt lat="35.65656841373505" lon="-5.501275887278777"><ele>61.33333333333333</ele><time>2026-04-28T08:48:03Z</time></trkpt><trkpt lat="35.65641313896032" lon="-5.501147181935719"><ele>61.0</ele><time>2026-04-28T08:48:04Z</time></trkpt><trkpt lat="35.65626017974153" lon="-5.501019096465526"><ele>60.33333333333333</ele><time>2026-04-28T08:48:05Z</time></trkpt><trkpt lat="35.65610854948204" lon="-5.500892164628114"><ele>59.66666666666667</ele><time>2026-04-28T08:48:06Z</time></trkpt><trkpt lat="35.655955067655526" lon="-5.500767198896435"><ele>59.0</ele><time>2026-04-28T08:48:07Z</time></trkpt><trkpt lat="35.6557997393392" lon="-5.500642388475278"><ele>59.0</ele><time>2026-04-28T08:48:08Z</time></trkpt><trkpt lat="35.65564729269551" lon="-5.500514919383367"><ele>59.0</ele><time>2026-04-28T08:48:09Z</time></trkpt><trkpt lat="35.65549401000578" lon="-5.500386593650056"><ele>59.0</ele><time>2026-04-28T08:48:10Z</time></trkpt><trkpt lat="35.65534289631314" lon="-5.500256774975725"><ele>58.66666666666667</ele><time>2026-04-28T08:48:11Z</time></trkpt><trkpt lat="35.65519060614318" lon="-5.5001273885517"><ele>58.33333333333333</ele><time>2026-04-28T08:48:12Z</time></trkpt><trkpt lat="35.65503781976355" lon="-5.499999185878531"><ele>58.0</ele><time>2026-04-28T08:48:13Z</time></trkpt><trkpt lat="35.65488678222035" lon="-5.4998738361733155"><ele>58.0</ele><time>2026-04-28T08:48:14Z</time></trkpt><trkpt lat="35.65474079403019" lon="-5.499746107084875"><ele>58.0</ele><time>2026-04-28T08:48:15Z</time></trkpt><trkpt lat="35.654597705754114" lon="-5.4996166395473765"><ele>58.0</ele><time>2026-04-28T08:48:16Z</time></trkpt><trkpt lat="35.65444751139138" lon="-5.49949028071552"><ele>58.666666666666664</ele><time>2026-04-28T08:48:17Z</time></trkpt><trkpt lat="35.654296779181074" lon="-5.499363746062794"><ele>59.33333333333333</ele><time>2026-04-28T08:48:18Z</time></trkpt><trkpt lat="35.65414581399781" lon="-5.499233554958126"><ele>60.0</ele><time>2026-04-28T08:48:19Z</time></trkpt><trkpt lat="35.65399122164363" lon="-5.499101291379338"><ele>60.0</ele><time>2026-04-28T08:48:20Z</time></trkpt><trkpt lat="35.653834551636315" lon="-5.4989707383160695"><ele>60.0</ele><time>2026-04-28T08:48:21Z</time></trkpt><trkpt lat="35.653675566331366" lon="-5.4988371477466735"><ele>60.0</ele><time>2026-04-28T08:48:22Z</time></trkpt><trkpt lat="35.65351600298016" lon="-5.498703707470886"><ele>59.33333333333333</ele><time>2026-04-28T08:48:23Z</time></trkpt><trkpt lat="35.653356468491396" lon="-5.498569919881292"><ele>58.666666666666664</ele><time>2026-04-28T08:48:24Z</time></trkpt><trkpt lat="35.653195911815665" lon="-5.49843300371335"><ele>58.0</ele><time>2026-04-28T08:48:25Z</time></trkpt><trkpt lat="35.65303547636044" lon="-5.4982922913725"><ele>58.0</ele><time>2026-04-28T08:48:26Z</time></trkpt><trkpt lat="35.65287726504804" lon="-5.498151085154302"><ele>58.0</ele><time>2026-04-28T08:48:27Z</time></trkpt><trkpt lat="35.652719856987254" lon="-5.498010708317449"><ele>58.0</ele><time>2026-04-28T08:48:28Z</time></trkpt><trkpt lat="35.652561453228955" lon="-5.497872149651158"><ele>57.33333333333333</ele><time>2026-04-28T08:48:29Z</time></trkpt><trkpt lat="35.65240000366885" lon="-5.497737148963655"><ele>56.66666666666667</ele><time>2026-04-28T08:48:30Z</time></trkpt><trkpt lat="35.652239171533175" lon="-5.497603418342668"><ele>56.0</ele><time>2026-04-28T08:48:31Z</time></trkpt><trkpt lat="35.65208090387609" lon="-5.497467455885157"><ele>56.0</ele><time>2026-04-28T08:48:32Z</time></trkpt><trkpt lat="35.65192471771976" lon="-5.497333829009366"><ele>56.0</ele><time>2026-04-28T08:48:33Z</time></trkpt><trkpt lat="35.65177497059352" lon="-5.497204669355978"><ele>56.0</ele><time>2026-04-28T08:48:34Z</time></trkpt><trkpt lat="35.6516352165768" lon="-5.497078983442313"><ele>56.66666666666667</ele><time>2026-04-28T08:48:35Z</time></trkpt><trkpt lat="35.65149559701457" lon="-5.496961337500184"><ele>57.33333333333333</ele><time>2026-04-28T08:48:36Z</time></trkpt><trkpt lat="35.65135156834819" lon="-5.496857287914236"><ele>58.0</ele><time>2026-04-28T08:48:37Z</time></trkpt><trkpt lat="35.65119271582119" lon="-5.496782217243549"><ele>58.33333333333333</ele><time>2026-04-28T08:48:38Z</time></trkpt><trkpt lat="35.65101665327044" lon="-5.496731379888205"><ele>58.66666666666667</ele><time>2026-04-28T08:48:39Z</time></trkpt><trkpt lat="35.65083054064667" lon="-5.496690949034612"><ele>59.0</ele><time>2026-04-28T08:48:40Z</time></trkpt><trkpt lat="35.65064260510436" lon="-5.496648856777023"><ele>59.0</ele><time>2026-04-28T08:48:41Z</time></trkpt><trkpt lat="35.650454114708104" lon="-5.496605606382045"><ele>59.0</ele><time>2026-04-28T08:48:42Z</time></trkpt><trkpt lat="35.65026675970175" lon="-5.496563128822214"><ele>59.0</ele><time>2026-04-28T08:48:43Z</time></trkpt><trkpt lat="35.65008019486376" lon="-5.496523359788167"><ele>58.0</ele><time>2026-04-28T08:48:44Z</time></trkpt><trkpt lat="35.64989328249402" lon="-5.496479978878582"><ele>57.0</ele><time>2026-04-28T08:48:45Z</time></trkpt><trkpt lat="35.649703330486815" lon="-5.496432522545961"><ele>56.0</ele><time>2026-04-28T08:48:46Z</time></trkpt><trkpt lat="35.64950890839133" lon="-5.496384198810872"><ele>55.66666666666667</ele><time>2026-04-28T08:48:47Z</time></trkpt><trkpt lat="35.6493147309346" lon="-5.496336506910159"><ele>55.33333333333333</ele><time>2026-04-28T08:48:48Z</time></trkpt><trkpt lat="35.64911970581322" lon="-5.496298895444005"><ele>55.0</ele><time>2026-04-28T08:48:49Z</time></trkpt><trkpt lat="35.648922905434226" lon="-5.496280434807461"><ele>55.0</ele><time>2026-04-28T08:48:50Z</time></trkpt><trkpt lat="35.64872088336127" lon="-5.496278860807977"><ele>55.0</ele><time>2026-04-28T08:48:51Z</time></trkpt><trkpt lat="35.64852009750762" lon="-5.496293509853047"><ele>55.0</ele><time>2026-04-28T08:48:52Z</time></trkpt><trkpt lat="35.64831963877688" lon="-5.49631102554704"><ele>54.666666666666664</ele><time>2026-04-28T08:48:53Z</time></trkpt><trkpt lat="35.648118160640685" lon="-5.496325768174326"><ele>54.33333333333333</ele><time>2026-04-28T08:48:54Z</time></trkpt><trkpt lat="35.64791720084471" lon="-5.4963418641549575"><ele>54.0</ele><time>2026-04-28T08:48:55Z</time></trkpt><trkpt lat="35.647717531587745" lon="-5.496360174830006"><ele>54.0</ele><time>2026-04-28T08:48:56Z</time></trkpt><trkpt lat="35.6475190683288" lon="-5.496377394418582"><ele>54.0</ele><time>2026-04-28T08:48:57Z</time></trkpt><trkpt lat="35.64732035106985" lon="-5.496391006174519"><ele>54.0</ele><time>2026-04-28T08:48:58Z</time></trkpt><trkpt lat="35.64712208219747" lon="-5.4964051289451294"><ele>53.33333333333333</ele><time>2026-04-28T08:48:59Z</time></trkpt><trkpt lat="35.64692500410964" lon="-5.4964222435356485"><ele>52.666666666666664</ele><time>2026-04-28T08:49:00Z</time></trkpt><trkpt lat="35.64672772452236" lon="-5.496439586745483"><ele>52.0</ele><time>2026-04-28T08:49:01Z</time></trkpt><trkpt lat="35.64653107306665" lon="-5.496457705017642"><ele>52.0</ele><time>2026-04-28T08:49:02Z</time></trkpt><trkpt lat="35.64633541935959" lon="-5.496475445294916"><ele>52.0</ele><time>2026-04-28T08:49:03Z</time></trkpt><trkpt lat="35.6461407059787" lon="-5.496492298329737"><ele>52.0</ele><time>2026-04-28T08:49:04Z</time></trkpt><trkpt lat="35.64594614400796" lon="-5.496508050356205"><ele>52.0</ele><time>2026-04-28T08:49:05Z</time></trkpt><trkpt lat="35.64575504672784" lon="-5.4965285859448745"><ele>52.0</ele><time>2026-04-28T08:49:06Z</time></trkpt><trkpt lat="35.64556397484788" lon="-5.496555645466723"><ele>52.0</ele><time>2026-04-28T08:49:07Z</time></trkpt><trkpt lat="35.645372562054334" lon="-5.496583367270728"><ele>51.33333333333333</ele><time>2026-04-28T08:49:08Z</time></trkpt><trkpt lat="35.64517974698118" lon="-5.4966102263409296"><ele>50.66666666666667</ele><time>2026-04-28T08:49:09Z</time></trkpt><trkpt lat="35.644985704949406" lon="-5.49663846052938"><ele>50.0</ele><time>2026-04-28T08:49:10Z</time></trkpt><trkpt lat="35.64479085278217" lon="-5.496665820530147"><ele>50.0</ele><time>2026-04-28T08:49:11Z</time></trkpt><trkpt lat="35.644596549324156" lon="-5.496693476245472"><ele>50.0</ele><time>2026-04-28T08:49:12Z</time></trkpt><trkpt lat="35.644400602396956" lon="-5.496722135399973"><ele>50.0</ele><time>2026-04-28T08:49:13Z</time></trkpt><trkpt lat="35.644208287712644" lon="-5.49674909073019"><ele>50.333333333333336</ele><time>2026-04-28T08:49:14Z</time></trkpt><trkpt lat="35.64402436177485" lon="-5.496773162710575"><ele>50.66666666666667</ele><time>2026-04-28T08:49:15Z</time></trkpt><trkpt lat="35.64384581620864" lon="-5.496793412893324"><ele>51.0</ele><time>2026-04-28T08:49:16Z</time></trkpt><trkpt lat="35.64367950497509" lon="-5.496811694694685"><ele>53.33333333333333</ele><time>2026-04-28T08:49:17Z</time></trkpt><trkpt lat="35.64351996021526" lon="-5.496835029221305"><ele>55.666666666666664</ele><time>2026-04-28T08:49:18Z</time></trkpt><trkpt lat="35.64337449025155" lon="-5.496881854256968"><ele>58.0</ele><time>2026-04-28T08:49:19Z</time></trkpt><trkpt lat="35.64324619890369" lon="-5.496970794005471"><ele>56.0</ele><time>2026-04-28T08:49:20Z</time></trkpt><trkpt lat="35.643132229077004" lon="-5.497096927149493"><ele>54.0</ele><time>2026-04-28T08:49:21Z</time></trkpt><trkpt lat="35.64303830051616" lon="-5.4972469546486735"><ele>52.0</ele><time>2026-04-28T08:49:22Z</time></trkpt><trkpt lat="35.6429562818953" lon="-5.497402811682723"><ele>52.0</ele><time>2026-04-28T08:49:23Z</time></trkpt><trkpt lat="35.64286769332013" lon="-5.4975566961440805"><ele>52.0</ele><time>2026-04-28T08:49:24Z</time></trkpt><trkpt lat="35.642760219906165" lon="-5.497689896850066"><ele>52.0</ele><time>2026-04-28T08:49:25Z</time></trkpt><trkpt lat="35.642637655346704" lon="-5.497784282181725"><ele>54.75</ele><time>2026-04-28T08:49:26Z</time></trkpt><trkpt lat="35.64250774727321" lon="-5.497845224641322"><ele>57.5</ele><time>2026-04-28T08:49:27Z</time></trkpt><trkpt lat="35.64237424141181" lon="-5.4978737221677765"><ele>60.25</ele><time>2026-04-28T08:49:28Z</time></trkpt><trkpt lat="35.64223733735205" lon="-5.497871970381664"><ele>63.0</ele><time>2026-04-28T08:49:29Z</time></trkpt><trkpt lat="35.642097203245406" lon="-5.497835967708856"><ele>64.66666666666667</ele><time>2026-04-28T08:49:30Z</time></trkpt><trkpt lat="35.64195171136546" lon="-5.497773692602942"><ele>66.33333333333334</ele><time>2026-04-28T08:49:31Z</time></trkpt><trkpt lat="35.64179799471046" lon="-5.497693343522187"><ele>68.0</ele><time>2026-04-28T08:49:32Z</time></trkpt><trkpt lat="35.64163368953678" lon="-5.4976227367870445"><ele>68.0</ele><time>2026-04-28T08:49:33Z</time></trkpt><trkpt lat="35.641466366340005" lon="-5.497574379756348"><ele>68.0</ele><time>2026-04-28T08:49:34Z</time></trkpt><trkpt lat="35.64131825717892" lon="-5.497540137358747"><ele>68.0</ele><time>2026-04-28T08:49:35Z</time></trkpt><trkpt lat="35.641178834940725" lon="-5.497513868425559"><ele>68.75</ele><time>2026-04-28T08:49:36Z</time></trkpt><trkpt lat="35.64103835751647" lon="-5.497490511912159"><ele>69.5</ele><time>2026-04-28T08:49:37Z</time></trkpt><trkpt lat="35.64089588135211" lon="-5.497468582306258"><ele>70.25</ele><time>2026-04-28T08:49:38Z</time></trkpt><trkpt lat="35.64074878122515" lon="-5.497441159476091"><ele>71.0</ele><time>2026-04-28T08:49:39Z</time></trkpt><trkpt lat="35.64060105334294" lon="-5.497419216169662"><ele>71.0</ele><time>2026-04-28T08:49:40Z</time></trkpt><trkpt lat="35.6404623817565" lon="-5.497426332891332"><ele>71.0</ele><time>2026-04-28T08:49:41Z</time></trkpt><trkpt lat="35.640321801806024" lon="-5.497423576811065"><ele>71.0</ele><time>2026-04-28T08:49:42Z</time></trkpt><trkpt lat="35.6401635686698" lon="-5.497435532817362"><ele>71.0</ele><time>2026-04-28T08:49:43Z</time></trkpt><trkpt lat="35.639988787567596" lon="-5.497460973427776"><ele>71.33333333333334</ele><time>2026-04-28T08:49:44Z</time></trkpt><trkpt lat="35.63981711348967" lon="-5.497497244420689"><ele>71.66666666666667</ele><time>2026-04-28T08:49:45Z</time></trkpt><trkpt lat="35.63964030212457" lon="-5.497523454525516"><ele>72.0</ele><time>2026-04-28T08:49:46Z</time></trkpt><trkpt lat="35.639464065781276" lon="-5.497584225952778"><ele>70.66666666666667</ele><time>2026-04-28T08:49:47Z</time></trkpt><trkpt lat="35.63928362276621" lon="-5.497634254825694"><ele>69.33333333333334</ele><time>2026-04-28T08:49:48Z</time></trkpt><trkpt lat="35.63909988676493" lon="-5.497678133333114"><ele>68.0</ele><time>2026-04-28T08:49:49Z</time></trkpt><trkpt lat="35.638915447604674" lon="-5.497721441752655"><ele>68.0</ele><time>2026-04-28T08:49:50Z</time></trkpt><trkpt lat="35.6387323456694" lon="-5.497766659516653"><ele>68.0</ele><time>2026-04-28T08:49:51Z</time></trkpt><trkpt lat="35.63855071661583" lon="-5.497810752047324"><ele>68.0</ele><time>2026-04-28T08:49:52Z</time></trkpt><trkpt lat="35.63836996937836" lon="-5.497854499337782"><ele>67.33333333333334</ele><time>2026-04-28T08:49:53Z</time></trkpt><trkpt lat="35.63819285416159" lon="-5.4978973489508505"><ele>66.66666666666667</ele><time>2026-04-28T08:49:54Z</time></trkpt><trkpt lat="35.63801483100265" lon="-5.4979423817127255"><ele>66.0</ele><time>2026-04-28T08:49:55Z</time></trkpt><trkpt lat="35.63783737265153" lon="-5.497991228597095"><ele>65.33333333333333</ele><time>2026-04-28T08:49:56Z</time></trkpt><trkpt lat="35.637658817107905" lon="-5.498053123647401"><ele>64.66666666666666</ele><time>2026-04-28T08:49:57Z</time></trkpt><trkpt lat="35.637484746339126" lon="-5.498133337645217"><ele>64.0</ele><time>2026-04-28T08:49:58Z</time></trkpt><trkpt lat="35.637313624827065" lon="-5.498235965394986"><ele>64.0</ele><time>2026-04-28T08:49:59Z</time></trkpt><trkpt lat="35.63714742189522" lon="-5.498345471255239"><ele>64.0</ele><time>2026-04-28T08:50:00Z</time></trkpt><trkpt lat="35.63697910327839" lon="-5.498458892668378"><ele>64.0</ele><time>2026-04-28T08:50:01Z</time></trkpt><trkpt lat="35.63681016877039" lon="-5.498574336306272"><ele>63.666666666666664</ele><time>2026-04-28T08:50:02Z</time></trkpt><trkpt lat="35.63663985642295" lon="-5.498689221998749"><ele>63.33333333333333</ele><time>2026-04-28T08:50:03Z</time></trkpt><trkpt lat="35.63646619174112" lon="-5.498807739557315"><ele>63.0</ele><time>2026-04-28T08:50:04Z</time></trkpt><trkpt lat="35.63628844596445" lon="-5.498925665411055"><ele>62.33333333333333</ele><time>2026-04-28T08:50:05Z</time></trkpt><trkpt lat="35.63611060064303" lon="-5.4990453466227205"><ele>61.666666666666664</ele><time>2026-04-28T08:50:06Z</time></trkpt><trkpt lat="35.63593076686235" lon="-5.49916695597011"><ele>61.0</ele><time>2026-04-28T08:50:07Z</time></trkpt><trkpt lat="35.6357502185394" lon="-5.499284600084135"><ele>61.0</ele><time>2026-04-28T08:50:08Z</time></trkpt><trkpt lat="35.635568150223634" lon="-5.499400233149387"><ele>61.0</ele><time>2026-04-28T08:50:09Z</time></trkpt><trkpt lat="35.6353852615253" lon="-5.499516672495081"><ele>61.0</ele><time>2026-04-28T08:50:10Z</time></trkpt><trkpt lat="35.635208124648614" lon="-5.499637499958133"><ele>61.33333333333333</ele><time>2026-04-28T08:50:11Z</time></trkpt><trkpt lat="35.63502927175746" lon="-5.49975931917791"><ele>61.66666666666667</ele><time>2026-04-28T08:50:12Z</time></trkpt><trkpt lat="35.634849082407925" lon="-5.499878401154991"><ele>62.0</ele><time>2026-04-28T08:50:13Z</time></trkpt><trkpt lat="35.63466867220871" lon="-5.499993207749406"><ele>62.0</ele><time>2026-04-28T08:50:14Z</time></trkpt><trkpt lat="35.63448697857654" lon="-5.500102136543545"><ele>62.0</ele><time>2026-04-28T08:50:15Z</time></trkpt><trkpt lat="35.63430041331434" lon="-5.500203425026593"><ele>62.0</ele><time>2026-04-28T08:50:16Z</time></trkpt><trkpt lat="35.634111321837096" lon="-5.500301223441415"><ele>62.0</ele><time>2026-04-28T08:50:17Z</time></trkpt><trkpt lat="35.63392492481371" lon="-5.500395736325587"><ele>62.0</ele><time>2026-04-28T08:50:18Z</time></trkpt><trkpt lat="35.63374697969109" lon="-5.500485321971826"><ele>62.0</ele><time>2026-04-28T08:50:19Z</time></trkpt><trkpt lat="35.633577108918665" lon="-5.500572992156934"><ele>62.0</ele><time>2026-04-28T08:50:20Z</time></trkpt><trkpt lat="35.63341659869126" lon="-5.5006610037406505"><ele>62.0</ele><time>2026-04-28T08:50:21Z</time></trkpt><trkpt lat="35.63326084274168" lon="-5.5007445775891775"><ele>62.0</ele><time>2026-04-28T08:50:22Z</time></trkpt><trkpt lat="35.633106193879634" lon="-5.500816601429582"><ele>62.0</ele><time>2026-04-28T08:50:23Z</time></trkpt><trkpt lat="35.632946269204005" lon="-5.5008858099133136"><ele>62.0</ele><time>2026-04-28T08:50:24Z</time></trkpt><trkpt lat="35.63278283701646" lon="-5.500909531789677"><ele>62.0</ele><time>2026-04-28T08:50:25Z</time></trkpt><trkpt lat="35.63262300496559" lon="-5.500915247953981"><ele>61.333333333333336</ele><time>2026-04-28T08:50:26Z</time></trkpt><trkpt lat="35.632462124184244" lon="-5.500903417039987"><ele>60.66666666666667</ele><time>2026-04-28T08:50:27Z</time></trkpt><trkpt lat="35.632301358246906" lon="-5.500878248485499"><ele>60.0</ele><time>2026-04-28T08:50:28Z</time></trkpt><trkpt lat="35.63214125022297" lon="-5.500864280573503"><ele>59.66666666666667</ele><time>2026-04-28T08:50:29Z</time></trkpt><trkpt lat="35.631957474949516" lon="-5.500869016761267"><ele>59.333333333333336</ele><time>2026-04-28T08:50:30Z</time></trkpt><trkpt lat="35.63178063487177" lon="-5.500845315920733"><ele>59.0</ele><time>2026-04-28T08:50:31Z</time></trkpt><trkpt lat="35.631595751346566" lon="-5.500823725369757"><ele>59.0</ele><time>2026-04-28T08:50:32Z</time></trkpt><trkpt lat="35.63141253951657" lon="-5.500803395434423"><ele>59.0</ele><time>2026-04-28T08:50:33Z</time></trkpt><trkpt lat="35.63122797087213" lon="-5.500775419885612"><ele>59.0</ele><time>2026-04-28T08:50:34Z</time></trkpt><trkpt lat="35.631042951558065" lon="-5.500745509873137"><ele>57.66666666666667</ele><time>2026-04-28T08:50:35Z</time></trkpt><trkpt lat="35.63085516699173" lon="-5.500722366344119"><ele>56.33333333333333</ele><time>2026-04-28T08:50:36Z</time></trkpt><trkpt lat="35.630666433550545" lon="-5.500697676945491"><ele>55.0</ele><time>2026-04-28T08:50:37Z</time></trkpt><trkpt lat="35.630479238258715" lon="-5.500668751187516"><ele>54.666666666666664</ele><time>2026-04-28T08:50:38Z</time></trkpt><trkpt lat="35.63030203260296" lon="-5.50064413659342"><ele>54.33333333333333</ele><time>2026-04-28T08:50:39Z</time></trkpt><trkpt lat="35.63012519580683" lon="-5.500626202082348"><ele>54.0</ele><time>2026-04-28T08:50:40Z</time></trkpt><trkpt lat="35.62995532214627" lon="-5.500605891244512"><ele>54.0</ele><time>2026-04-28T08:50:41Z</time></trkpt><trkpt lat="35.62978294954479" lon="-5.500587532321504"><ele>54.0</ele><time>2026-04-28T08:50:42Z</time></trkpt><trkpt lat="35.62961520867071" lon="-5.5005516216544885"><ele>54.0</ele><time>2026-04-28T08:50:43Z</time></trkpt><trkpt lat="35.62944434491804" lon="-5.500507265325317"><ele>53.66666666666667</ele><time>2026-04-28T08:50:44Z</time></trkpt><trkpt lat="35.629266462931184" lon="-5.5004474221174195"><ele>53.333333333333336</ele><time>2026-04-28T08:50:45Z</time></trkpt><trkpt lat="35.62908314567427" lon="-5.500351304642249"><ele>53.0</ele><time>2026-04-28T08:50:46Z</time></trkpt><trkpt lat="35.628900052614185" lon="-5.5002335652798715"><ele>53.0</ele><time>2026-04-28T08:50:47Z</time></trkpt><trkpt lat="35.628711898836755" lon="-5.500122404340656"><ele>53.0</ele><time>2026-04-28T08:50:48Z</time></trkpt><trkpt lat="35.62852240050171" lon="-5.500016149763897"><ele>53.0</ele><time>2026-04-28T08:50:49Z</time></trkpt><trkpt lat="35.62833370755005" lon="-5.499912792959033"><ele>52.333333333333336</ele><time>2026-04-28T08:50:50Z</time></trkpt><trkpt lat="35.62814351495274" lon="-5.499814904811803"><ele>51.66666666666667</ele><time>2026-04-28T08:50:51Z</time></trkpt><trkpt lat="35.62795423048172" lon="-5.499713549991226"><ele>51.0</ele><time>2026-04-28T08:50:52Z</time></trkpt><trkpt lat="35.627771367942835" lon="-5.499603110952139"><ele>49.0</ele><time>2026-04-28T08:50:53Z</time></trkpt><trkpt lat="35.627583885667015" lon="-5.499500879638713"><ele>47.0</ele><time>2026-04-28T08:50:54Z</time></trkpt><trkpt lat="35.62739547619633" lon="-5.499398699150923"><ele>45.0</ele><time>2026-04-28T08:50:55Z</time></trkpt><trkpt lat="35.62720780620898" lon="-5.499293469615529"><ele>45.0</ele><time>2026-04-28T08:50:56Z</time></trkpt><trkpt lat="35.627021358034824" lon="-5.499189171170052"><ele>45.0</ele><time>2026-04-28T08:50:57Z</time></trkpt><trkpt lat="35.62683385674019" lon="-5.499084902212565"><ele>45.0</ele><time>2026-04-28T08:50:58Z</time></trkpt><trkpt lat="35.62664519610516" lon="-5.498979714173525"><ele>45.0</ele><time>2026-04-28T08:50:59Z</time></trkpt><trkpt lat="35.62645454972356" lon="-5.498875774182102"><ele>45.0</ele><time>2026-04-28T08:51:00Z</time></trkpt><trkpt lat="35.626265972509636" lon="-5.498775367758598"><ele>45.0</ele><time>2026-04-28T08:51:01Z</time></trkpt><trkpt lat="35.62607814574172" lon="-5.498676330691518"><ele>44.333333333333336</ele><time>2026-04-28T08:51:02Z</time></trkpt><trkpt lat="35.625893064883805" lon="-5.498575360898706"><ele>43.66666666666667</ele><time>2026-04-28T08:51:03Z</time></trkpt><trkpt lat="35.62570767525761" lon="-5.498472849451265"><ele>43.0</ele><time>2026-04-28T08:51:04Z</time></trkpt><trkpt lat="35.62552272049697" lon="-5.498369201564209"><ele>43.0</ele><time>2026-04-28T08:51:05Z</time></trkpt><trkpt lat="35.625339397128656" lon="-5.498267326539015"><ele>43.0</ele><time>2026-04-28T08:51:06Z</time></trkpt><trkpt lat="35.62515696461975" lon="-5.498164287558299"><ele>43.0</ele><time>2026-04-28T08:51:07Z</time></trkpt><trkpt lat="35.62497484752361" lon="-5.498062473883692"><ele>42.333333333333336</ele><time>2026-04-28T08:51:08Z</time></trkpt><trkpt lat="35.62479376402392" lon="-5.4979612638747275"><ele>41.666666666666664</ele><time>2026-04-28T08:51:09Z</time></trkpt><trkpt lat="35.624610694843504" lon="-5.497860504277837"><ele>41.0</ele><time>2026-04-28T08:51:10Z</time></trkpt><trkpt lat="35.62443124795952" lon="-5.49775991204573"><ele>41.0</ele><time>2026-04-28T08:51:11Z</time></trkpt><trkpt lat="35.62425107769301" lon="-5.49766001611824"><ele>41.0</ele><time>2026-04-28T08:51:12Z</time></trkpt><trkpt lat="35.6240689907023" lon="-5.497560388914423"><ele>41.0</ele><time>2026-04-28T08:51:13Z</time></trkpt><trkpt lat="35.623888173017896" lon="-5.497463829111439"><ele>41.0</ele><time>2026-04-28T08:51:14Z</time></trkpt><trkpt lat="35.62370671501558" lon="-5.497366566201917"><ele>41.0</ele><time>2026-04-28T08:51:15Z</time></trkpt><trkpt lat="35.6235282120583" lon="-5.49726664516102"><ele>41.0</ele><time>2026-04-28T08:51:16Z</time></trkpt><trkpt lat="35.62334939405356" lon="-5.49716739942491"><ele>41.0</ele><time>2026-04-28T08:51:17Z</time></trkpt><trkpt lat="35.62316604210325" lon="-5.497070935670774"><ele>41.0</ele><time>2026-04-28T08:51:18Z</time></trkpt><trkpt lat="35.622985067229294" lon="-5.496971392252847"><ele>41.0</ele><time>2026-04-28T08:51:19Z</time></trkpt><trkpt lat="35.62280431248422" lon="-5.496870455530758"><ele>40.666666666666664</ele><time>2026-04-28T08:51:20Z</time></trkpt><trkpt lat="35.622623786502864" lon="-5.496768417349446"><ele>40.333333333333336</ele><time>2026-04-28T08:51:21Z</time></trkpt><trkpt lat="35.622444691194474" lon="-5.496666439000639"><ele>40.0</ele><time>2026-04-28T08:51:22Z</time></trkpt><trkpt lat="35.62226130983758" lon="-5.4965642182153385"><ele>40.0</ele><time>2026-04-28T08:51:23Z</time></trkpt><trkpt lat="35.622080016494934" lon="-5.496460693306056"><ele>40.0</ele><time>2026-04-28T08:51:24Z</time></trkpt><trkpt lat="35.62189725035475" lon="-5.496359364281107"><ele>40.0</ele><time>2026-04-28T08:51:25Z</time></trkpt><trkpt lat="35.621711927391274" lon="-5.496256872980361"><ele>40.66666666666667</ele><time>2026-04-28T08:51:26Z</time></trkpt><trkpt lat="35.621526078476016" lon="-5.496158120995801"><ele>41.333333333333336</ele><time>2026-04-28T08:51:27Z</time></trkpt><trkpt lat="35.62133714303305" lon="-5.496056518766808"><ele>42.0</ele><time>2026-04-28T08:51:28Z</time></trkpt><trkpt lat="35.62115174171861" lon="-5.49595202405704"><ele>41.333333333333336</ele><time>2026-04-28T08:51:29Z</time></trkpt><trkpt lat="35.62096335375779" lon="-5.495849587421795"><ele>40.66666666666667</ele><time>2026-04-28T08:51:30Z</time></trkpt><trkpt lat="35.6207781278754" lon="-5.495744122092618"><ele>40.0</ele><time>2026-04-28T08:51:31Z</time></trkpt><trkpt lat="35.62058813236886" lon="-5.495637391958052"><ele>40.0</ele><time>2026-04-28T08:51:32Z</time></trkpt><trkpt lat="35.62040042931697" lon="-5.495531494384815"><ele>40.0</ele><time>2026-04-28T08:51:33Z</time></trkpt><trkpt lat="35.620211582243996" lon="-5.495426990115079"><ele>40.0</ele><time>2026-04-28T08:51:34Z</time></trkpt><trkpt lat="35.62002574625329" lon="-5.495318954608112"><ele>40.0</ele><time>2026-04-28T08:51:35Z</time></trkpt><trkpt lat="35.619839222176395" lon="-5.495213744689613"><ele>40.0</ele><time>2026-04-28T08:51:36Z</time></trkpt><trkpt lat="35.61965248588937" lon="-5.4951125989116"><ele>40.0</ele><time>2026-04-28T08:51:37Z</time></trkpt><trkpt lat="35.61947065852397" lon="-5.495015757605686"><ele>40.0</ele><time>2026-04-28T08:51:38Z</time></trkpt><trkpt lat="35.61929068258591" lon="-5.494919893009557"><ele>40.0</ele><time>2026-04-28T08:51:39Z</time></trkpt><trkpt lat="35.61911557400187" lon="-5.494824528385008"><ele>40.0</ele><time>2026-04-28T08:51:40Z</time></trkpt><trkpt lat="35.61894010761337" lon="-5.494725111460102"><ele>40.0</ele><time>2026-04-28T08:51:41Z</time></trkpt><trkpt lat="35.61876651809685" lon="-5.494628745811933"><ele>40.0</ele><time>2026-04-28T08:51:42Z</time></trkpt><trkpt lat="35.618596583539265" lon="-5.494532791623588"><ele>40.0</ele><time>2026-04-28T08:51:43Z</time></trkpt><trkpt lat="35.618422457376965" lon="-5.49443456922003"><ele>40.0</ele><time>2026-04-28T08:51:44Z</time></trkpt><trkpt lat="35.61824559577454" lon="-5.494334861789008"><ele>40.0</ele><time>2026-04-28T08:51:45Z</time></trkpt><trkpt lat="35.61806838206932" lon="-5.494243018445901"><ele>40.0</ele><time>2026-04-28T08:51:46Z</time></trkpt><trkpt lat="35.61789894087393" lon="-5.4941570059446665"><ele>40.333333333333336</ele><time>2026-04-28T08:51:47Z</time></trkpt><trkpt lat="35.617734087496935" lon="-5.494070266172479"><ele>40.666666666666664</ele><time>2026-04-28T08:51:48Z</time></trkpt><trkpt lat="35.61757953082835" lon="-5.493982710895098"><ele>41.0</ele><time>2026-04-28T08:51:49Z</time></trkpt><trkpt lat="35.61742564574773" lon="-5.49389665045073"><ele>41.0</ele><time>2026-04-28T08:51:50Z</time></trkpt><trkpt lat="35.61727813171629" lon="-5.493824381808803"><ele>41.0</ele><time>2026-04-28T08:51:51Z</time></trkpt><trkpt lat="35.6171463262872" lon="-5.493768593987632"><ele>41.0</ele><time>2026-04-28T08:51:52Z</time></trkpt><trkpt lat="35.6170095285113" lon="-5.493733738126618"><ele>41.0</ele><time>2026-04-28T08:51:53Z</time></trkpt><trkpt lat="35.616865395368606" lon="-5.493719150724922"><ele>41.0</ele><time>2026-04-28T08:51:54Z</time></trkpt><trkpt lat="35.616713560311915" lon="-5.493722354524264"><ele>41.0</ele><time>2026-04-28T08:51:55Z</time></trkpt><trkpt lat="35.61655586693539" lon="-5.493745654459917"><ele>41.0</ele><time>2026-04-28T08:51:56Z</time></trkpt><trkpt lat="35.61639022634276" lon="-5.493782025745884"><ele>41.0</ele><time>2026-04-28T08:51:57Z</time></trkpt><trkpt lat="35.61621704098488" lon="-5.493823059434686"><ele>41.0</ele><time>2026-04-28T08:51:58Z</time></trkpt><trkpt lat="35.616036603414024" lon="-5.493859525615442"><ele>41.0</ele><time>2026-04-28T08:51:59Z</time></trkpt><trkpt lat="35.615853626168544" lon="-5.49389712207773"><ele>39.666666666666664</ele><time>2026-04-28T08:52:00Z</time></trkpt><trkpt lat="35.6156699800781" lon="-5.49393420274332"><ele>38.333333333333336</ele><time>2026-04-28T08:52:01Z</time></trkpt><trkpt lat="35.61548173160789" lon="-5.493969525131693"><ele>37.0</ele><time>2026-04-28T08:52:02Z</time></trkpt><trkpt lat="35.61529966892365" lon="-5.494004676841008"><ele>37.0</ele><time>2026-04-28T08:52:03Z</time></trkpt><trkpt lat="35.61512946020599" lon="-5.494035965260798"><ele>37.0</ele><time>2026-04-28T08:52:04Z</time></trkpt><trkpt lat="35.614969079271226" lon="-5.494063991780712"><ele>37.0</ele><time>2026-04-28T08:52:05Z</time></trkpt><trkpt lat="35.614824388310865" lon="-5.4940805930736065"><ele>37.0</ele><time>2026-04-28T08:52:06Z</time></trkpt><trkpt lat="35.614685911040624" lon="-5.494074818971862"><ele>37.0</ele><time>2026-04-28T08:52:07Z</time></trkpt><trkpt lat="35.61454643189649" lon="-5.494034794188872"><ele>37.0</ele><time>2026-04-28T08:52:08Z</time></trkpt><trkpt lat="35.614399860509515" lon="-5.493969199139278"><ele>37.0</ele><time>2026-04-28T08:52:09Z</time></trkpt><trkpt lat="35.61424927405157" lon="-5.4938793009879365"><ele>37.0</ele><time>2026-04-28T08:52:10Z</time></trkpt><trkpt lat="35.614095640361015" lon="-5.4937713554195895"><ele>37.0</ele><time>2026-04-28T08:52:11Z</time></trkpt><trkpt lat="35.613933165809506" lon="-5.493668341205388"><ele>37.0</ele><time>2026-04-28T08:52:12Z</time></trkpt><trkpt lat="35.61376262479912" lon="-5.4935650651171715"><ele>39.333333333333336</ele><time>2026-04-28T08:52:13Z</time></trkpt><trkpt lat="35.613584901326966" lon="-5.493456952226445"><ele>41.666666666666664</ele><time>2026-04-28T08:52:14Z</time></trkpt><trkpt lat="35.61340684470319" lon="-5.493345031959575"><ele>44.0</ele><time>2026-04-28T08:52:15Z</time></trkpt><trkpt lat="35.61322647490076" lon="-5.493236350449725"><ele>44.0</ele><time>2026-04-28T08:52:16Z</time></trkpt><trkpt lat="35.61304560811694" lon="-5.493126841468034"><ele>44.0</ele><time>2026-04-28T08:52:17Z</time></trkpt><trkpt lat="35.61286360694131" lon="-5.493014543284278"><ele>44.0</ele><time>2026-04-28T08:52:18Z</time></trkpt><trkpt lat="35.612677297176944" lon="-5.4929003713920626"><ele>44.666666666666664</ele><time>2026-04-28T08:52:19Z</time></trkpt><trkpt lat="35.612490948235944" lon="-5.49278348438761"><ele>45.333333333333336</ele><time>2026-04-28T08:52:20Z</time></trkpt><trkpt lat="35.61230618351523" lon="-5.492670242832547"><ele>46.0</ele><time>2026-04-28T08:52:21Z</time></trkpt><trkpt lat="35.612124647348026" lon="-5.492557972036549"><ele>45.333333333333336</ele><time>2026-04-28T08:52:22Z</time></trkpt><trkpt lat="35.61194399230598" lon="-5.492446604136832"><ele>44.666666666666664</ele><time>2026-04-28T08:52:23Z</time></trkpt><trkpt lat="35.61176480594114" lon="-5.4923361292322594"><ele>44.0</ele><time>2026-04-28T08:52:24Z</time></trkpt><trkpt lat="35.61158978638116" lon="-5.492227455953331"><ele>44.0</ele><time>2026-04-28T08:52:25Z</time></trkpt><trkpt lat="35.611415746003566" lon="-5.492118011800297"><ele>44.0</ele><time>2026-04-28T08:52:26Z</time></trkpt><trkpt lat="35.61124524328254" lon="-5.492011837379659"><ele>44.0</ele><time>2026-04-28T08:52:27Z</time></trkpt><trkpt lat="35.61107507135017" lon="-5.491905361644215"><ele>45.0</ele><time>2026-04-28T08:52:28Z</time></trkpt><trkpt lat="35.61090439791415" lon="-5.4918064954357675"><ele>46.0</ele><time>2026-04-28T08:52:29Z</time></trkpt><trkpt lat="35.61073288175313" lon="-5.491707861643449"><ele>47.0</ele><time>2026-04-28T08:52:30Z</time></trkpt><trkpt lat="35.6105633344485" lon="-5.4916071966237086"><ele>47.0</ele><time>2026-04-28T08:52:31Z</time></trkpt><trkpt lat="35.61040078818033" lon="-5.491505406415537"><ele>47.0</ele><time>2026-04-28T08:52:32Z</time></trkpt><trkpt lat="35.61023829933067" lon="-5.491405194058908"><ele>47.0</ele><time>2026-04-28T08:52:33Z</time></trkpt><trkpt lat="35.610073285637014" lon="-5.4913072085114045"><ele>51.0</ele><time>2026-04-28T08:52:34Z</time></trkpt><trkpt lat="35.60990972465497" lon="-5.49121051547657"><ele>55.0</ele><time>2026-04-28T08:52:35Z</time></trkpt><trkpt lat="35.60976376499541" lon="-5.491109430488597"><ele>59.0</ele><time>2026-04-28T08:52:36Z</time></trkpt><trkpt lat="35.60963301294523" lon="-5.490999410765217"><ele>59.0</ele><time>2026-04-28T08:52:37Z</time></trkpt><trkpt lat="35.60952731529458" lon="-5.490869723122667"><ele>59.0</ele><time>2026-04-28T08:52:38Z</time></trkpt><trkpt lat="35.609439904647616" lon="-5.4907147647136565"><ele>59.0</ele><time>2026-04-28T08:52:39Z</time></trkpt><trkpt lat="35.60937518646303" lon="-5.490534269381339"><ele>59.0</ele><time>2026-04-28T08:52:40Z</time></trkpt><trkpt lat="35.60932380131912" lon="-5.490339608731722"><ele>59.0</ele><time>2026-04-28T08:52:41Z</time></trkpt><trkpt lat="35.60928304203697" lon="-5.490129769387536"><ele>59.0</ele><time>2026-04-28T08:52:42Z</time></trkpt><trkpt lat="35.60924337746986" lon="-5.489902302523434"><ele>59.0</ele><time>2026-04-28T08:52:43Z</time></trkpt><trkpt lat="35.60919725952352" lon="-5.489676409849134"><ele>59.0</ele><time>2026-04-28T08:52:44Z</time></trkpt><trkpt lat="35.60915268891334" lon="-5.4894528467261585"><ele>59.0</ele><time>2026-04-28T08:52:45Z</time></trkpt><trkpt lat="35.60911062841594" lon="-5.48923833809983"><ele>59.0</ele><time>2026-04-28T08:52:46Z</time></trkpt><trkpt lat="35.60907054937475" lon="-5.489035067889542"><ele>59.0</ele><time>2026-04-28T08:52:47Z</time></trkpt><trkpt lat="35.609025607760984" lon="-5.488838183028265"><ele>59.0</ele><time>2026-04-28T08:52:48Z</time></trkpt><trkpt lat="35.60897221664724" lon="-5.48863387311281"><ele>59.0</ele><time>2026-04-28T08:52:49Z</time></trkpt><trkpt lat="35.60890944172414" lon="-5.488421645014274"><ele>59.0</ele><time>2026-04-28T08:52:50Z</time></trkpt><trkpt lat="35.60883689852637" lon="-5.488210055366676"><ele>59.0</ele><time>2026-04-28T08:52:51Z</time></trkpt><trkpt lat="35.60875591127683" lon="-5.488001176058608"><ele>57.333333333333336</ele><time>2026-04-28T08:52:52Z</time></trkpt><trkpt lat="35.60867193216447" lon="-5.4878072110252445"><ele>55.66666666666667</ele><time>2026-04-28T08:52:53Z</time></trkpt><trkpt lat="35.608589212047185" lon="-5.487620724539244"><ele>54.0</ele><time>2026-04-28T08:52:54Z</time></trkpt><trkpt lat="35.6085120046197" lon="-5.487436770105672"><ele>52.33333333333333</ele><time>2026-04-28T08:52:55Z</time></trkpt><trkpt lat="35.608439014835405" lon="-5.487256892126381"><ele>50.666666666666664</ele><time>2026-04-28T08:52:56Z</time></trkpt><trkpt lat="35.60836586146361" lon="-5.487080716649525"><ele>49.0</ele><time>2026-04-28T08:52:57Z</time></trkpt><trkpt lat="35.608292063871026" lon="-5.486915848900477"><ele>49.0</ele><time>2026-04-28T08:52:58Z</time></trkpt><trkpt lat="35.60822585654167" lon="-5.486754530776931"><ele>49.0</ele><time>2026-04-28T08:52:59Z</time></trkpt><trkpt lat="35.60814360122979" lon="-5.486622637593027"><ele>49.0</ele><time>2026-04-28T08:53:00Z</time></trkpt><trkpt lat="35.60807850841482" lon="-5.486492324982043"><ele>49.0</ele><time>2026-04-28T08:53:01Z</time></trkpt><trkpt lat="35.60800995284555" lon="-5.4863570745170085"><ele>49.0</ele><time>2026-04-28T08:53:02Z</time></trkpt><trkpt lat="35.607907984717095" lon="-5.48624365297352"><ele>49.0</ele><time>2026-04-28T08:53:03Z</time></trkpt><trkpt lat="35.6077945403008" lon="-5.486138688662176"><ele>49.0</ele><time>2026-04-28T08:53:04Z</time></trkpt><trkpt lat="35.607680735351344" lon="-5.4860568816087065"><ele>49.0</ele><time>2026-04-28T08:53:05Z</time></trkpt><trkpt lat="35.60757072066088" lon="-5.485990689906802"><ele>49.0</ele><time>2026-04-28T08:53:06Z</time></trkpt><trkpt lat="35.60747045916978" lon="-5.4859277595665334"><ele>49.0</ele><time>2026-04-28T08:53:07Z</time></trkpt><trkpt lat="35.60737897748306" lon="-5.485871660870259"><ele>49.0</ele><time>2026-04-28T08:53:08Z</time></trkpt><trkpt lat="35.60729229107325" lon="-5.485819734046022"><ele>49.0</ele><time>2026-04-28T08:53:09Z</time></trkpt><trkpt lat="35.60721460681352" lon="-5.485774463837079"><ele>49.0</ele><time>2026-04-28T08:53:10Z</time></trkpt><trkpt lat="35.6071455927798" lon="-5.485729077897015"><ele>48.99999999999999</ele><time>2026-04-28T08:53:11Z</time></trkpt><trkpt lat="35.60708039295849" lon="-5.48569319460174"><ele>49.0</ele><time>2026-04-28T08:53:12Z</time></trkpt><trkpt lat="35.60701905499236" lon="-5.485668928372848"><ele>49.0</ele><time>2026-04-28T08:53:13Z</time></trkpt><trkpt lat="35.606924671454244" lon="-5.485619787793023"><ele>49.0</ele><time>2026-04-28T08:53:15Z</time></trkpt><trkpt lat="35.60683575432745" lon="-5.4855715227653326"><ele>48.99999999999999</ele><time>2026-04-28T08:53:17Z</time></trkpt><trkpt lat="35.60674493945581" lon="-5.485518387985785"><ele>49.0</ele><time>2026-04-28T08:53:19Z</time></trkpt><trkpt lat="35.606629836659955" lon="-5.485447263459097"><ele>50.33333333333333</ele><time>2026-04-28T08:53:21Z</time></trkpt><trkpt lat="35.606559100543876" lon="-5.485400843172925"><ele>51.666666666666664</ele><time>2026-04-28T08:53:22Z</time></trkpt><trkpt lat="35.60648997807097" lon="-5.485342266960912"><ele>53.0</ele><time>2026-04-28T08:53:23Z</time></trkpt><trkpt lat="35.60641697860633" lon="-5.485291122275645"><ele>54.33333333333333</ele><time>2026-04-28T08:53:24Z</time></trkpt><trkpt lat="35.60634224161952" lon="-5.485250829189625"><ele>55.666666666666664</ele><time>2026-04-28T08:53:25Z</time></trkpt><trkpt lat="35.606279971946016" lon="-5.485213538493488"><ele>57.0</ele><time>2026-04-28T08:53:26Z</time></trkpt><trkpt lat="35.60616791175122" lon="-5.485148022462018"><ele>57.5</ele><time>2026-04-28T08:53:28Z</time></trkpt><trkpt lat="35.60610683444679" lon="-5.48511036138191"><ele>58.0</ele><time>2026-04-28T08:53:29Z</time></trkpt><trkpt lat="35.60604390595613" lon="-5.485069355300744"><ele>58.5</ele><time>2026-04-28T08:53:30Z</time></trkpt><trkpt lat="35.605975880319235" lon="-5.4850290881636"><ele>59.0</ele><time>2026-04-28T08:53:31Z</time></trkpt><trkpt lat="35.605904228500435" lon="-5.484984639453164"><ele>59.5</ele><time>2026-04-28T08:53:32Z</time></trkpt><trkpt lat="35.60582871093745" lon="-5.484935576031405"><ele>60.0</ele><time>2026-04-28T08:53:33Z</time></trkpt><trkpt lat="35.605747800311995" lon="-5.484888430297739"><ele>60.0</ele><time>2026-04-28T08:53:34Z</time></trkpt><trkpt lat="35.60566373874991" lon="-5.484843565321914"><ele>60.0</ele><time>2026-04-28T08:53:35Z</time></trkpt><trkpt lat="35.60558074929408" lon="-5.484800042809232"><ele>60.0</ele><time>2026-04-28T08:53:36Z</time></trkpt><trkpt lat="35.605496549731726" lon="-5.48475307391012"><ele>60.0</ele><time>2026-04-28T08:53:37Z</time></trkpt><trkpt lat="35.60541403617876" lon="-5.484687529912162"><ele>60.0</ele><time>2026-04-28T08:53:38Z</time></trkpt><trkpt lat="35.60532475781148" lon="-5.484619796700904"><ele>59.5</ele><time>2026-04-28T08:53:39Z</time></trkpt><trkpt lat="35.605226712330484" lon="-5.484563095464939"><ele>59.0</ele><time>2026-04-28T08:53:40Z</time></trkpt><trkpt lat="35.60512709766923" lon="-5.484504660790333"><ele>58.5</ele><time>2026-04-28T08:53:41Z</time></trkpt><trkpt lat="35.60502439975861" lon="-5.484438595287623"><ele>58.0</ele><time>2026-04-28T08:53:42Z</time></trkpt><trkpt lat="35.604911847028546" lon="-5.484370229308526"><ele>58.0</ele><time>2026-04-28T08:53:43Z</time></trkpt><trkpt lat="35.604768409782814" lon="-5.484292151253748"><ele>58.0</ele><time>2026-04-28T08:53:44Z</time></trkpt><trkpt lat="35.60460250684776" lon="-5.484188682163516"><ele>58.0</ele><time>2026-04-28T08:53:45Z</time></trkpt><trkpt lat="35.604440781386415" lon="-5.48408485366108"><ele>56.666666666666664</ele><time>2026-04-28T08:53:46Z</time></trkpt><trkpt lat="35.6042813532917" lon="-5.483967403513914"><ele>55.33333333333333</ele><time>2026-04-28T08:53:47Z</time></trkpt><trkpt lat="35.604116932606296" lon="-5.483879993182289"><ele>54.0</ele><time>2026-04-28T08:53:48Z</time></trkpt><trkpt lat="35.603962009713655" lon="-5.483788520388005"><ele>54.66666666666667</ele><time>2026-04-28T08:53:49Z</time></trkpt><trkpt lat="35.60381696717989" lon="-5.483692459159775"><ele>55.333333333333336</ele><time>2026-04-28T08:53:50Z</time></trkpt><trkpt lat="35.60367229444864" lon="-5.483603700178392"><ele>56.0</ele><time>2026-04-28T08:53:51Z</time></trkpt><trkpt lat="35.603530608586205" lon="-5.483525167795312"><ele>54.333333333333336</ele><time>2026-04-28T08:53:52Z</time></trkpt><trkpt lat="35.60338730530622" lon="-5.483448893058954"><ele>52.66666666666667</ele><time>2026-04-28T08:53:53Z</time></trkpt><trkpt lat="35.60324023997692" lon="-5.483373384454695"><ele>51.0</ele><time>2026-04-28T08:53:54Z</time></trkpt><trkpt lat="35.60309028873901" lon="-5.483298989293301"><ele>51.0</ele><time>2026-04-28T08:53:55Z</time></trkpt><trkpt lat="35.6029371202162" lon="-5.483239355807859"><ele>51.0</ele><time>2026-04-28T08:53:56Z</time></trkpt><trkpt lat="35.602783485116554" lon="-5.483202832886509"><ele>51.0</ele><time>2026-04-28T08:53:57Z</time></trkpt><trkpt lat="35.602635993836365" lon="-5.483188705934761"><ele>49.5</ele><time>2026-04-28T08:53:58Z</time></trkpt><trkpt lat="35.60249720207487" lon="-5.483176719794027"><ele>48.0</ele><time>2026-04-28T08:53:59Z</time></trkpt><trkpt lat="35.60237060712827" lon="-5.483167479630073"><ele>46.5</ele><time>2026-04-28T08:54:00Z</time></trkpt><trkpt lat="35.60225017254369" lon="-5.483159471885074"><ele>45.0</ele><time>2026-04-28T08:54:01Z</time></trkpt><trkpt lat="35.602143474296305" lon="-5.48315921988363"><ele>45.0</ele><time>2026-04-28T08:54:02Z</time></trkpt><trkpt lat="35.602043500645124" lon="-5.483174212067311"><ele>45.0</ele><time>2026-04-28T08:54:03Z</time></trkpt><trkpt lat="35.60195003869319" lon="-5.483207666304174"><ele>45.0</ele><time>2026-04-28T08:54:04Z</time></trkpt><trkpt lat="35.60186258445358" lon="-5.483252354839676"><ele>45.0</ele><time>2026-04-28T08:54:05Z</time></trkpt><trkpt lat="35.60178105359309" lon="-5.483273639214294"><ele>45.0</ele><time>2026-04-28T08:54:06Z</time></trkpt><trkpt lat="35.601691896462754" lon="-5.483287843793616"><ele>44.75</ele><time>2026-04-28T08:54:07Z</time></trkpt><trkpt lat="35.601593689512185" lon="-5.4832603635793955"><ele>44.5</ele><time>2026-04-28T08:54:08Z</time></trkpt><trkpt lat="35.601483743875455" lon="-5.483212924894368"><ele>44.25</ele><time>2026-04-28T08:54:09Z</time></trkpt><trkpt lat="35.601357117485364" lon="-5.483186580603039"><ele>44.0</ele><time>2026-04-28T08:54:10Z</time></trkpt><trkpt lat="35.601212464744876" lon="-5.48319659253696"><ele>44.25</ele><time>2026-04-28T08:54:11Z</time></trkpt><trkpt lat="35.601068276166295" lon="-5.483218698194403"><ele>44.5</ele><time>2026-04-28T08:54:12Z</time></trkpt><trkpt lat="35.600935502534455" lon="-5.483245741185262"><ele>44.75</ele><time>2026-04-28T08:54:13Z</time></trkpt><trkpt lat="35.60078597344352" lon="-5.483271747725361"><ele>45.0</ele><time>2026-04-28T08:54:14Z</time></trkpt><trkpt lat="35.60062335301001" lon="-5.48330441308647"><ele>45.0</ele><time>2026-04-28T08:54:15Z</time></trkpt><trkpt lat="35.6004535226572" lon="-5.483334503149998"><ele>45.0</ele><time>2026-04-28T08:54:16Z</time></trkpt><trkpt lat="35.600296667002034" lon="-5.4833610301863995"><ele>45.0</ele><time>2026-04-28T08:54:17Z</time></trkpt><trkpt lat="35.60014352356704" lon="-5.483384113346232"><ele>46.66666666666667</ele><time>2026-04-28T08:54:18Z</time></trkpt><trkpt lat="35.599989410279505" lon="-5.483403269239059"><ele>48.333333333333336</ele><time>2026-04-28T08:54:19Z</time></trkpt><trkpt lat="35.59983096409597" lon="-5.483427890213563"><ele>50.0</ele><time>2026-04-28T08:54:20Z</time></trkpt><trkpt lat="35.59967474577131" lon="-5.483456798417729"><ele>50.0</ele><time>2026-04-28T08:54:21Z</time></trkpt><trkpt lat="35.59952331897074" lon="-5.483482485822199"><ele>50.0</ele><time>2026-04-28T08:54:22Z</time></trkpt><trkpt lat="35.59937697480602" lon="-5.483486763323195"><ele>50.0</ele><time>2026-04-28T08:54:23Z</time></trkpt><trkpt lat="35.5992343392522" lon="-5.4834626815011935"><ele>50.0</ele><time>2026-04-28T08:54:24Z</time></trkpt><trkpt lat="35.599100789546526" lon="-5.483408035534591"><ele>51.0</ele><time>2026-04-28T08:54:25Z</time></trkpt><trkpt lat="35.598974885143484" lon="-5.483322678045583"><ele>52.0</ele><time>2026-04-28T08:54:26Z</time></trkpt><trkpt lat="35.59886041813085" lon="-5.4832157463604085"><ele>53.0</ele><time>2026-04-28T08:54:27Z</time></trkpt><trkpt lat="35.5987578260027" lon="-5.48308903841462"><ele>54.0</ele><time>2026-04-28T08:54:28Z</time></trkpt><trkpt lat="35.598666934554586" lon="-5.482940392644428"><ele>56.33333333333333</ele><time>2026-04-28T08:54:29Z</time></trkpt><trkpt lat="35.59859843764273" lon="-5.482771575077458"><ele>58.666666666666664</ele><time>2026-04-28T08:54:30Z</time></trkpt><trkpt lat="35.598553668898795" lon="-5.482584820316782"><ele>61.0</ele><time>2026-04-28T08:54:31Z</time></trkpt><trkpt lat="35.59852833946867" lon="-5.482396338622109"><ele>61.0</ele><time>2026-04-28T08:54:32Z</time></trkpt><trkpt lat="35.598521034293746" lon="-5.4822069215118345"><ele>61.0</ele><time>2026-04-28T08:54:33Z</time></trkpt><trkpt lat="35.59851152210265" lon="-5.482013286061849"><ele>61.0</ele><time>2026-04-28T08:54:34Z</time></trkpt><trkpt lat="35.59850218745784" lon="-5.4818275184753205"><ele>62.0</ele><time>2026-04-28T08:54:35Z</time></trkpt><trkpt lat="35.59849037890169" lon="-5.481641987314275"><ele>63.0</ele><time>2026-04-28T08:54:36Z</time></trkpt><trkpt lat="35.598455463476604" lon="-5.481457025269751"><ele>64.0</ele><time>2026-04-28T08:54:37Z</time></trkpt><trkpt lat="35.59843508717178" lon="-5.4812772685524465"><ele>64.25</ele><time>2026-04-28T08:54:38Z</time></trkpt><trkpt lat="35.59839431461997" lon="-5.481106987444576"><ele>64.5</ele><time>2026-04-28T08:54:39Z</time></trkpt><trkpt lat="35.598346515927446" lon="-5.480936993423775"><ele>64.75</ele><time>2026-04-28T08:54:40Z</time></trkpt><trkpt lat="35.59828517622728" lon="-5.480771957332999"><ele>65.0</ele><time>2026-04-28T08:54:41Z</time></trkpt><trkpt lat="35.59819497943177" lon="-5.4806273888363055"><ele>65.0</ele><time>2026-04-28T08:54:42Z</time></trkpt><trkpt lat="35.59806416038155" lon="-5.480530959612493"><ele>65.0</ele><time>2026-04-28T08:54:43Z</time></trkpt><trkpt lat="35.597941581965465" lon="-5.480444347428992"><ele>65.0</ele><time>2026-04-28T08:54:44Z</time></trkpt><trkpt lat="35.597824627087114" lon="-5.480357670928786"><ele>65.0</ele><time>2026-04-28T08:54:45Z</time></trkpt><trkpt lat="35.59771322787592" lon="-5.480263750898768"><ele>64.5</ele><time>2026-04-28T08:54:46Z</time></trkpt><trkpt lat="35.597599839519475" lon="-5.480189928778466"><ele>64.0</ele><time>2026-04-28T08:54:47Z</time></trkpt><trkpt lat="35.59748929133064" lon="-5.480111088141748"><ele>63.5</ele><time>2026-04-28T08:54:48Z</time></trkpt><trkpt lat="35.597373368460055" lon="-5.480033907663506"><ele>63.0</ele><time>2026-04-28T08:54:49Z</time></trkpt><trkpt lat="35.5972547562057" lon="-5.4799509397994735"><ele>63.0</ele><time>2026-04-28T08:54:50Z</time></trkpt><trkpt lat="35.59712882724296" lon="-5.479861986010615"><ele>63.0</ele><time>2026-04-28T08:54:51Z</time></trkpt><trkpt lat="35.59700339365667" lon="-5.479780019174797"><ele>63.0</ele><time>2026-04-28T08:54:52Z</time></trkpt><trkpt lat="35.5968747931359" lon="-5.479698485890674"><ele>63.0</ele><time>2026-04-28T08:54:53Z</time></trkpt><trkpt lat="35.596752248684986" lon="-5.479612405394858"><ele>62.5</ele><time>2026-04-28T08:54:54Z</time></trkpt><trkpt lat="35.596632998168246" lon="-5.479526187705304"><ele>62.0</ele><time>2026-04-28T08:54:55Z</time></trkpt><trkpt lat="35.59651311172808" lon="-5.479447822949502"><ele>61.5</ele><time>2026-04-28T08:54:56Z</time></trkpt><trkpt lat="35.596391404916744" lon="-5.479369816726406"><ele>61.0</ele><time>2026-04-28T08:54:57Z</time></trkpt><trkpt lat="35.59627167754039" lon="-5.479285213361468"><ele>61.0</ele><time>2026-04-28T08:54:58Z</time></trkpt><trkpt lat="35.59615874084895" lon="-5.479197826781822"><ele>61.0</ele><time>2026-04-28T08:54:59Z</time></trkpt><trkpt lat="35.59605552120925" lon="-5.479123123530244"><ele>61.0</ele><time>2026-04-28T08:55:00Z</time></trkpt><trkpt lat="35.595955020302625" lon="-5.479051788543279"><ele>61.0</ele><time>2026-04-28T08:55:01Z</time></trkpt><trkpt lat="35.59585907475964" lon="-5.478985882578829"><ele>61.0</ele><time>2026-04-28T08:55:02Z</time></trkpt><trkpt lat="35.595760557469085" lon="-5.4789230848360715"><ele>60.99999999999999</ele><time>2026-04-28T08:55:03Z</time></trkpt><trkpt lat="35.59566902266802" lon="-5.478864800659865"><ele>60.99999999999999</ele><time>2026-04-28T08:55:04Z</time></trkpt><trkpt lat="35.59557946527042" lon="-5.478807534729152"><ele>61.0</ele><time>2026-04-28T08:55:05Z</time></trkpt><trkpt lat="35.595492183511546" lon="-5.478743267358271"><ele>61.0</ele><time>2026-04-28T08:55:06Z</time></trkpt><trkpt lat="35.595403980375494" lon="-5.478679909410218"><ele>60.599999999999994</ele><time>2026-04-28T08:55:07Z</time></trkpt><trkpt lat="35.59531103925679" lon="-5.47861740687319"><ele>60.199999999999996</ele><time>2026-04-28T08:55:08Z</time></trkpt><trkpt lat="35.595210032802406" lon="-5.478549376041821"><ele>59.800000000000004</ele><time>2026-04-28T08:55:09Z</time></trkpt><trkpt lat="35.59510913549222" lon="-5.478477601980147"><ele>59.400000000000006</ele><time>2026-04-28T08:55:10Z</time></trkpt><trkpt lat="35.595017576484736" lon="-5.478414165794484"><ele>59.0</ele><time>2026-04-28T08:55:11Z</time></trkpt><trkpt lat="35.594925995920796" lon="-5.4783518907302335"><ele>59.0</ele><time>2026-04-28T08:55:12Z</time></trkpt><trkpt lat="35.59483127889357" lon="-5.478285907595399"><ele>59.00000000000001</ele><time>2026-04-28T08:55:13Z</time></trkpt><trkpt lat="35.59473835854549" lon="-5.478220039138198"><ele>59.00000000000001</ele><time>2026-04-28T08:55:14Z</time></trkpt><trkpt lat="35.59463459251179" lon="-5.478157151196484"><ele>59.0</ele><time>2026-04-28T08:55:15Z</time></trkpt><trkpt lat="35.59455081704033" lon="-5.478102023207936"><ele>59.0</ele><time>2026-04-28T08:55:16Z</time></trkpt><trkpt lat="35.59446266258645" lon="-5.4780445571494685"><ele>59.0</ele><time>2026-04-28T08:55:17Z</time></trkpt><trkpt lat="35.5943754981483" lon="-5.477978327545158"><ele>59.00000000000001</ele><time>2026-04-28T08:55:18Z</time></trkpt><trkpt lat="35.59428393508419" lon="-5.477915348639968"><ele>59.00000000000001</ele><time>2026-04-28T08:55:19Z</time></trkpt><trkpt lat="35.59419247481664" lon="-5.477852608150541"><ele>59.0</ele><time>2026-04-28T08:55:20Z</time></trkpt><trkpt lat="35.59409681812092" lon="-5.4777856090390475"><ele>59.0</ele><time>2026-04-28T08:55:21Z</time></trkpt><trkpt lat="35.59399854656406" lon="-5.477713324716701"><ele>59.0</ele><time>2026-04-28T08:55:22Z</time></trkpt><trkpt lat="35.59389462654078" lon="-5.4776379301905465"><ele>59.0</ele><time>2026-04-28T08:55:23Z</time></trkpt><trkpt lat="35.59378679824337" lon="-5.47756303821758"><ele>59.0</ele><time>2026-04-28T08:55:24Z</time></trkpt><trkpt lat="35.59367650967009" lon="-5.4774892343841834"><ele>59.0</ele><time>2026-04-28T08:55:25Z</time></trkpt><trkpt lat="35.59355995394622" lon="-5.477411188919413"><ele>58.5</ele><time>2026-04-28T08:55:26Z</time></trkpt><trkpt lat="35.593442243143684" lon="-5.477324836699405"><ele>58.0</ele><time>2026-04-28T08:55:27Z</time></trkpt><trkpt lat="35.59332081388604" lon="-5.477245178709771"><ele>57.5</ele><time>2026-04-28T08:55:28Z</time></trkpt><trkpt lat="35.59319577506376" lon="-5.477163453919144"><ele>57.0</ele><time>2026-04-28T08:55:29Z</time></trkpt><trkpt lat="35.59306804256136" lon="-5.4770869357241505"><ele>57.0</ele><time>2026-04-28T08:55:30Z</time></trkpt><trkpt lat="35.59295428696347" lon="-5.4769977693606835"><ele>57.0</ele><time>2026-04-28T08:55:31Z</time></trkpt><trkpt lat="35.59284864938119" lon="-5.476914304226742"><ele>57.0</ele><time>2026-04-28T08:55:32Z</time></trkpt><trkpt lat="35.59274530688141" lon="-5.476848061758539"><ele>57.0</ele><time>2026-04-28T08:55:33Z</time></trkpt><trkpt lat="35.59264468358073" lon="-5.47677822301826"><ele>57.0</ele><time>2026-04-28T08:55:34Z</time></trkpt><trkpt lat="35.592546411740386" lon="-5.476707203772802"><ele>57.0</ele><time>2026-04-28T08:55:35Z</time></trkpt><trkpt lat="35.592446284949254" lon="-5.476640431093949"><ele>57.0</ele><time>2026-04-28T08:55:36Z</time></trkpt><trkpt lat="35.59233978694715" lon="-5.4765747938172655"><ele>57.0</ele><time>2026-04-28T08:55:37Z</time></trkpt><trkpt lat="35.59223691683736" lon="-5.476498753165545"><ele>57.0</ele><time>2026-04-28T08:55:38Z</time></trkpt><trkpt lat="35.592133146461286" lon="-5.476423996908821"><ele>57.0</ele><time>2026-04-28T08:55:39Z</time></trkpt><trkpt lat="35.59202977820189" lon="-5.47635297668773"><ele>57.0</ele><time>2026-04-28T08:55:40Z</time></trkpt><trkpt lat="35.59192313737688" lon="-5.476285358298708"><ele>57.0</ele><time>2026-04-28T08:55:41Z</time></trkpt><trkpt lat="35.59181597427246" lon="-5.476213985149989"><ele>57.0</ele><time>2026-04-28T08:55:42Z</time></trkpt><trkpt lat="35.59170877588459" lon="-5.476138784590883"><ele>57.0</ele><time>2026-04-28T08:55:43Z</time></trkpt><trkpt lat="35.591595325821764" lon="-5.476080665318777"><ele>57.0</ele><time>2026-04-28T08:55:44Z</time></trkpt><trkpt lat="35.59148794823225" lon="-5.476002646038259"><ele>57.0</ele><time>2026-04-28T08:55:45Z</time></trkpt><trkpt lat="35.591391108934616" lon="-5.475912800892502"><ele>57.0</ele><time>2026-04-28T08:55:46Z</time></trkpt><trkpt lat="35.591287925299454" lon="-5.475836764704163"><ele>57.0</ele><time>2026-04-28T08:55:47Z</time></trkpt><trkpt lat="35.591197106062054" lon="-5.475744554796067"><ele>57.0</ele><time>2026-04-28T08:55:48Z</time></trkpt><trkpt lat="35.591121551766406" lon="-5.475635728470457"><ele>57.0</ele><time>2026-04-28T08:55:49Z</time></trkpt><trkpt lat="35.59104206220343" lon="-5.475529967500112"><ele>57.0</ele><time>2026-04-28T08:55:50Z</time></trkpt><trkpt lat="35.59099637263514" lon="-5.47538850435513"><ele>57.0</ele><time>2026-04-28T08:55:51Z</time></trkpt><trkpt lat="35.59094222674615" lon="-5.475268292580003"><ele>57.0</ele><time>2026-04-28T08:55:52Z</time></trkpt><trkpt lat="35.59088744262803" lon="-5.475149597183297"><ele>57.0</ele><time>2026-04-28T08:55:53Z</time></trkpt><trkpt lat="35.5908338536835" lon="-5.475029481657394"><ele>57.0</ele><time>2026-04-28T08:55:54Z</time></trkpt><trkpt lat="35.590780751307385" lon="-5.4749059826180195"><ele>57.0</ele><time>2026-04-28T08:55:55Z</time></trkpt><trkpt lat="35.590719672593565" lon="-5.4747798317081235"><ele>57.0</ele><time>2026-04-28T08:55:56Z</time></trkpt><trkpt lat="35.59065117979145" lon="-5.474651466020628"><ele>57.0</ele><time>2026-04-28T08:55:57Z</time></trkpt><trkpt lat="35.590579239584606" lon="-5.474518829931629"><ele>55.75</ele><time>2026-04-28T08:55:58Z</time></trkpt><trkpt lat="35.59050612907886" lon="-5.474384965814376"><ele>54.5</ele><time>2026-04-28T08:55:59Z</time></trkpt><trkpt lat="35.59042518795071" lon="-5.474249963221898"><ele>53.25</ele><time>2026-04-28T08:56:00Z</time></trkpt><trkpt lat="35.59034250949033" lon="-5.474119344866968"><ele>52.0</ele><time>2026-04-28T08:56:01Z</time></trkpt><trkpt lat="35.59025457146379" lon="-5.473983799581874"><ele>51.25</ele><time>2026-04-28T08:56:02Z</time></trkpt><trkpt lat="35.59016916522857" lon="-5.47384871374664"><ele>50.5</ele><time>2026-04-28T08:56:03Z</time></trkpt><trkpt lat="35.590084558388156" lon="-5.473716568607186"><ele>49.75</ele><time>2026-04-28T08:56:04Z</time></trkpt><trkpt lat="35.58999981880144" lon="-5.47358339192701"><ele>49.0</ele><time>2026-04-28T08:56:05Z</time></trkpt><trkpt lat="35.589917168779934" lon="-5.473451034732323"><ele>48.0</ele><time>2026-04-28T08:56:06Z</time></trkpt><trkpt lat="35.58983251797573" lon="-5.473324883759472"><ele>47.0</ele><time>2026-04-28T08:56:07Z</time></trkpt><trkpt lat="35.58974327587555" lon="-5.473211079786875"><ele>46.0</ele><time>2026-04-28T08:56:08Z</time></trkpt><trkpt lat="35.58964643683568" lon="-5.473113245473977"><ele>45.0</ele><time>2026-04-28T08:56:09Z</time></trkpt><trkpt lat="35.589539092828325" lon="-5.473034862540316"><ele>45.75</ele><time>2026-04-28T08:56:10Z</time></trkpt><trkpt lat="35.58942731113566" lon="-5.472971438986774"><ele>46.5</ele><time>2026-04-28T08:56:11Z</time></trkpt><trkpt lat="35.5893128966326" lon="-5.4729214902933085"><ele>47.25</ele><time>2026-04-28T08:56:12Z</time></trkpt><trkpt lat="35.58919465497979" lon="-5.472876089640322"><ele>48.0</ele><time>2026-04-28T08:56:13Z</time></trkpt><trkpt lat="35.589071038159375" lon="-5.472838308267605"><ele>46.5</ele><time>2026-04-28T08:56:14Z</time></trkpt><trkpt lat="35.58894248514593" lon="-5.472799532193714"><ele>45.0</ele><time>2026-04-28T08:56:15Z</time></trkpt><trkpt lat="35.588806747126824" lon="-5.472758259009525"><ele>43.5</ele><time>2026-04-28T08:56:16Z</time></trkpt><trkpt lat="35.588666742035976" lon="-5.472714352238993"><ele>42.0</ele><time>2026-04-28T08:56:17Z</time></trkpt><trkpt lat="35.588521024014014" lon="-5.472672896122463"><ele>41.333333333333336</ele><time>2026-04-28T08:56:18Z</time></trkpt><trkpt lat="35.58837021632888" lon="-5.472625011412883"><ele>40.66666666666667</ele><time>2026-04-28T08:56:19Z</time></trkpt><trkpt lat="35.58821703852948" lon="-5.472575009865104"><ele>40.0</ele><time>2026-04-28T08:56:20Z</time></trkpt><trkpt lat="35.58807196564931" lon="-5.472527488969083"><ele>40.0</ele><time>2026-04-28T08:56:21Z</time></trkpt><trkpt lat="35.58792938564083" lon="-5.472482115488516"><ele>40.0</ele><time>2026-04-28T08:56:22Z</time></trkpt><trkpt lat="35.58779244522047" lon="-5.472427854468242"><ele>40.0</ele><time>2026-04-28T08:56:23Z</time></trkpt><trkpt lat="35.58765911531052" lon="-5.472369386337167"><ele>40.0</ele><time>2026-04-28T08:56:24Z</time></trkpt><trkpt lat="35.587526518608925" lon="-5.472309393353119"><ele>39.25</ele><time>2026-04-28T08:56:25Z</time></trkpt><trkpt lat="35.58741267223101" lon="-5.47222187086845"><ele>38.5</ele><time>2026-04-28T08:56:26Z</time></trkpt><trkpt lat="35.587295146294046" lon="-5.472134162349431"><ele>37.75</ele><time>2026-04-28T08:56:27Z</time></trkpt><trkpt lat="35.587173369123285" lon="-5.472045907519479"><ele>37.0</ele><time>2026-04-28T08:56:28Z</time></trkpt><trkpt lat="35.5870474002932" lon="-5.4719605652940135"><ele>35.75</ele><time>2026-04-28T08:56:29Z</time></trkpt><trkpt lat="35.58691594519609" lon="-5.4718712662282565"><ele>34.5</ele><time>2026-04-28T08:56:30Z</time></trkpt><trkpt lat="35.58678182132891" lon="-5.4717823413092495"><ele>33.25</ele><time>2026-04-28T08:56:31Z</time></trkpt><trkpt lat="35.586654799609" lon="-5.471693834832912"><ele>32.0</ele><time>2026-04-28T08:56:32Z</time></trkpt><trkpt lat="35.58652303823064" lon="-5.471610088956481"><ele>32.0</ele><time>2026-04-28T08:56:33Z</time></trkpt><trkpt lat="35.586398366704636" lon="-5.471523161443792"><ele>32.0</ele><time>2026-04-28T08:56:34Z</time></trkpt><trkpt lat="35.58627243115106" lon="-5.471437427487907"><ele>32.0</ele><time>2026-04-28T08:56:35Z</time></trkpt><trkpt lat="35.586145999627945" lon="-5.4713566077524325"><ele>32.0</ele><time>2026-04-28T08:56:36Z</time></trkpt><trkpt lat="35.586011693293" lon="-5.471273782077312"><ele>33.0</ele><time>2026-04-28T08:56:37Z</time></trkpt><trkpt lat="35.58587665722456" lon="-5.471195640171635"><ele>34.0</ele><time>2026-04-28T08:56:38Z</time></trkpt><trkpt lat="35.585732849163875" lon="-5.4711326027997975"><ele>35.0</ele><time>2026-04-28T08:56:39Z</time></trkpt><trkpt lat="35.585580289398344" lon="-5.471081666716789"><ele>35.0</ele><time>2026-04-28T08:56:40Z</time></trkpt><trkpt lat="35.58542544943512" lon="-5.471038671760886"><ele>35.0</ele><time>2026-04-28T08:56:41Z</time></trkpt><trkpt lat="35.58527242279512" lon="-5.4710069803892685"><ele>35.0</ele><time>2026-04-28T08:56:42Z</time></trkpt><trkpt lat="35.58512016492704" lon="-5.470972707259669"><ele>33.33333333333333</ele><time>2026-04-28T08:56:43Z</time></trkpt><trkpt lat="35.584965186559465" lon="-5.470936163372572"><ele>31.666666666666664</ele><time>2026-04-28T08:56:44Z</time></trkpt><trkpt lat="35.58481418712094" lon="-5.470901253797771"><ele>30.0</ele><time>2026-04-28T08:56:45Z</time></trkpt><trkpt lat="35.584662548706234" lon="-5.470865140612258"><ele>28.666666666666664</ele><time>2026-04-28T08:56:46Z</time></trkpt><trkpt lat="35.58450707499228" lon="-5.4708298023310595"><ele>27.333333333333332</ele><time>2026-04-28T08:56:47Z</time></trkpt><trkpt lat="35.58435756616543" lon="-5.4707876642717315"><ele>26.0</ele><time>2026-04-28T08:56:48Z</time></trkpt><trkpt lat="35.58420777921469" lon="-5.470758551590031"><ele>26.0</ele><time>2026-04-28T08:56:49Z</time></trkpt><trkpt lat="35.584057914194226" lon="-5.470718895376035"><ele>26.0</ele><time>2026-04-28T08:56:50Z</time></trkpt><trkpt lat="35.58390933587567" lon="-5.470679398248188"><ele>26.0</ele><time>2026-04-28T08:56:51Z</time></trkpt><trkpt lat="35.58375940032452" lon="-5.470645163785862"><ele>26.0</ele><time>2026-04-28T08:56:52Z</time></trkpt><trkpt lat="35.5836116278372" lon="-5.470608724012114"><ele>26.0</ele><time>2026-04-28T08:56:53Z</time></trkpt><trkpt lat="35.583463355974125" lon="-5.470570640187755"><ele>26.0</ele><time>2026-04-28T08:56:54Z</time></trkpt><trkpt lat="35.58331602833383" lon="-5.470536278427254"><ele>26.0</ele><time>2026-04-28T08:56:55Z</time></trkpt><trkpt lat="35.58317209754568" lon="-5.470495756302816"><ele>26.0</ele><time>2026-04-28T08:56:56Z</time></trkpt><trkpt lat="35.58302795609815" lon="-5.470449530449652"><ele>26.0</ele><time>2026-04-28T08:56:57Z</time></trkpt><trkpt lat="35.582886509878804" lon="-5.47042120786772"><ele>26.0</ele><time>2026-04-28T08:56:58Z</time></trkpt><trkpt lat="35.58273946553023" lon="-5.470391422439904"><ele>26.0</ele><time>2026-04-28T08:56:59Z</time></trkpt><trkpt lat="35.58259663213837" lon="-5.470355552430081"><ele>26.0</ele><time>2026-04-28T08:57:00Z</time></trkpt><trkpt lat="35.58245694187775" lon="-5.470319061406577"><ele>26.0</ele><time>2026-04-28T08:57:01Z</time></trkpt><trkpt lat="35.58231130187075" lon="-5.470285408826084"><ele>26.0</ele><time>2026-04-28T08:57:02Z</time></trkpt><trkpt lat="35.582170101483335" lon="-5.470251605189511"><ele>26.0</ele><time>2026-04-28T08:57:03Z</time></trkpt><trkpt lat="35.582028560168915" lon="-5.470210787964927"><ele>26.0</ele><time>2026-04-28T08:57:04Z</time></trkpt><trkpt lat="35.58187741696782" lon="-5.47017466524993"><ele>26.0</ele><time>2026-04-28T08:57:05Z</time></trkpt><trkpt lat="35.58173228333219" lon="-5.4701376554144465"><ele>26.0</ele><time>2026-04-28T08:57:06Z</time></trkpt><trkpt lat="35.581584605233566" lon="-5.470101616127083"><ele>26.0</ele><time>2026-04-28T08:57:07Z</time></trkpt><trkpt lat="35.58143551532481" lon="-5.47006454360465"><ele>26.0</ele><time>2026-04-28T08:57:08Z</time></trkpt><trkpt lat="35.58128519507175" lon="-5.470022099234715"><ele>26.0</ele><time>2026-04-28T08:57:09Z</time></trkpt><trkpt lat="35.58113337449867" lon="-5.469978547059305"><ele>26.0</ele><time>2026-04-28T08:57:10Z</time></trkpt><trkpt lat="35.580978260221116" lon="-5.46994167535427"><ele>26.0</ele><time>2026-04-28T08:57:11Z</time></trkpt><trkpt lat="35.580822667166785" lon="-5.469904783931626"><ele>26.0</ele><time>2026-04-28T08:57:12Z</time></trkpt><trkpt lat="35.58067606396922" lon="-5.469876686749405"><ele>26.0</ele><time>2026-04-28T08:57:13Z</time></trkpt><trkpt lat="35.580515104896755" lon="-5.469831459189696"><ele>26.0</ele><time>2026-04-28T08:57:14Z</time></trkpt><trkpt lat="35.58035236489656" lon="-5.469786056678448"><ele>26.0</ele><time>2026-04-28T08:57:15Z</time></trkpt><trkpt lat="35.58018777171134" lon="-5.469754394410667"><ele>25.0</ele><time>2026-04-28T08:57:16Z</time></trkpt><trkpt lat="35.58002440769605" lon="-5.469698100266676"><ele>24.0</ele><time>2026-04-28T08:57:17Z</time></trkpt><trkpt lat="35.57987543772979" lon="-5.469613799289873"><ele>23.0</ele><time>2026-04-28T08:57:18Z</time></trkpt><trkpt lat="35.57972985471792" lon="-5.469512667460532"><ele>23.333333333333336</ele><time>2026-04-28T08:57:19Z</time></trkpt><trkpt lat="35.579573840980295" lon="-5.469395124765986"><ele>23.666666666666668</ele><time>2026-04-28T08:57:20Z</time></trkpt><trkpt lat="35.57940981636063" lon="-5.469259303953505"><ele>24.0</ele><time>2026-04-28T08:57:21Z</time></trkpt><trkpt lat="35.57922749111985" lon="-5.469132346682782"><ele>24.0</ele><time>2026-04-28T08:57:22Z</time></trkpt><trkpt lat="35.579030751715834" lon="-5.468991726091437"><ele>24.0</ele><time>2026-04-28T08:57:23Z</time></trkpt><trkpt lat="35.57882614611105" lon="-5.468844272740542"><ele>24.5</ele><time>2026-04-28T08:57:24Z</time></trkpt><trkpt lat="35.578623185506" lon="-5.468698110523084"><ele>25.0</ele><time>2026-04-28T08:57:25Z</time></trkpt><trkpt lat="35.57843059422681" lon="-5.468552954862735"><ele>25.0</ele><time>2026-04-28T08:57:26Z</time></trkpt><trkpt lat="35.578253025358116" lon="-5.468414742849688"><ele>25.0</ele><time>2026-04-28T08:57:27Z</time></trkpt><trkpt lat="35.578088627411816" lon="-5.468272433207931"><ele>25.0</ele><time>2026-04-28T08:57:28Z</time></trkpt><trkpt lat="35.5779181048393" lon="-5.468160895965091"><ele>24.666666666666668</ele><time>2026-04-28T08:57:29Z</time></trkpt><trkpt lat="35.57775400083575" lon="-5.468052238032719"><ele>24.333333333333336</ele><time>2026-04-28T08:57:30Z</time></trkpt><trkpt lat="35.57759092637007" lon="-5.467954358301049"><ele>24.0</ele><time>2026-04-28T08:57:31Z</time></trkpt><trkpt lat="35.57742819411714" lon="-5.4678825871303545"><ele>25.0</ele><time>2026-04-28T08:57:32Z</time></trkpt><trkpt lat="35.577265654168585" lon="-5.467829126199244"><ele>26.0</ele><time>2026-04-28T08:57:33Z</time></trkpt><trkpt lat="35.577110311914716" lon="-5.467784068352878"><ele>27.0</ele><time>2026-04-28T08:57:34Z</time></trkpt><trkpt lat="35.57696807082341" lon="-5.467734763610476"><ele>27.0</ele><time>2026-04-28T08:57:35Z</time></trkpt><trkpt lat="35.576828336541055" lon="-5.467691711422486"><ele>27.0</ele><time>2026-04-28T08:57:36Z</time></trkpt><trkpt lat="35.576689624739195" lon="-5.4676513269254485"><ele>27.0</ele><time>2026-04-28T08:57:37Z</time></trkpt><trkpt lat="35.576546546242774" lon="-5.467606833491466"><ele>27.0</ele><time>2026-04-28T08:57:38Z</time></trkpt><trkpt lat="35.57640073199958" lon="-5.4675616278362025"><ele>27.0</ele><time>2026-04-28T08:57:39Z</time></trkpt><trkpt lat="35.57625431560153" lon="-5.467515250714407"><ele>27.0</ele><time>2026-04-28T08:57:40Z</time></trkpt><trkpt lat="35.57610309433133" lon="-5.46746741966146"><ele>27.0</ele><time>2026-04-28T08:57:41Z</time></trkpt><trkpt lat="35.57594965176891" lon="-5.467418004063016"><ele>25.333333333333332</ele><time>2026-04-28T08:57:42Z</time></trkpt><trkpt lat="35.575795629463805" lon="-5.467370966829637"><ele>23.666666666666664</ele><time>2026-04-28T08:57:43Z</time></trkpt><trkpt lat="35.575645338246346" lon="-5.467327742825487"><ele>22.0</ele><time>2026-04-28T08:57:44Z</time></trkpt><trkpt lat="35.575498461191614" lon="-5.467286191001867"><ele>21.333333333333332</ele><time>2026-04-28T08:57:45Z</time></trkpt><trkpt lat="35.57535061632636" lon="-5.467240520582494"><ele>20.666666666666668</ele><time>2026-04-28T08:57:46Z</time></trkpt><trkpt lat="35.575202918459986" lon="-5.467192078802168"><ele>20.0</ele><time>2026-04-28T08:57:47Z</time></trkpt><trkpt lat="35.57505463233751" lon="-5.467142999936812"><ele>20.666666666666668</ele><time>2026-04-28T08:57:48Z</time></trkpt><trkpt lat="35.57490700002559" lon="-5.467096885032175"><ele>21.333333333333332</ele><time>2026-04-28T08:57:49Z</time></trkpt><trkpt lat="35.57475930306613" lon="-5.4670526450188595"><ele>22.0</ele><time>2026-04-28T08:57:50Z</time></trkpt><trkpt lat="35.574611401515696" lon="-5.467005141466618"><ele>21.666666666666664</ele><time>2026-04-28T08:57:51Z</time></trkpt><trkpt lat="35.574461355199375" lon="-5.466956311446272"><ele>21.333333333333332</ele><time>2026-04-28T08:57:52Z</time></trkpt><trkpt lat="35.574309247567946" lon="-5.466907947171956"><ele>21.0</ele><time>2026-04-28T08:57:53Z</time></trkpt><trkpt lat="35.57415562041772" lon="-5.4668568484825855"><ele>21.0</ele><time>2026-04-28T08:57:54Z</time></trkpt><trkpt lat="35.57399919392395" lon="-5.4668031048372345"><ele>21.0</ele><time>2026-04-28T08:57:55Z</time></trkpt><trkpt lat="35.57384222508635" lon="-5.4667522323402675"><ele>21.0</ele><time>2026-04-28T08:57:56Z</time></trkpt><trkpt lat="35.57368592423708" lon="-5.466705824089428"><ele>20.5</ele><time>2026-04-28T08:57:57Z</time></trkpt><trkpt lat="35.573535018693164" lon="-5.466663659996338"><ele>20.0</ele><time>2026-04-28T08:57:58Z</time></trkpt><trkpt lat="35.573394240751384" lon="-5.466621268609702"><ele>19.5</ele><time>2026-04-28T08:57:59Z</time></trkpt><trkpt lat="35.57325147665573" lon="-5.4665787132098025"><ele>19.0</ele><time>2026-04-28T08:58:00Z</time></trkpt><trkpt lat="35.57310543754635" lon="-5.466530961472456"><ele>19.0</ele><time>2026-04-28T08:58:01Z</time></trkpt><trkpt lat="35.57295875996497" lon="-5.466483234585376"><ele>19.0</ele><time>2026-04-28T08:58:02Z</time></trkpt><trkpt lat="35.57281223062167" lon="-5.466437734682412"><ele>19.0</ele><time>2026-04-28T08:58:03Z</time></trkpt><trkpt lat="35.57266560492308" lon="-5.466393094080727"><ele>19.666666666666664</ele><time>2026-04-28T08:58:04Z</time></trkpt><trkpt lat="35.572518395737106" lon="-5.466344113689264"><ele>20.333333333333332</ele><time>2026-04-28T08:58:05Z</time></trkpt><trkpt lat="35.57236984002819" lon="-5.4662940216221925"><ele>21.0</ele><time>2026-04-28T08:58:06Z</time></trkpt><trkpt lat="35.57222047949293" lon="-5.466238013276293"><ele>21.0</ele><time>2026-04-28T08:58:07Z</time></trkpt><trkpt lat="35.57206998991496" lon="-5.466176444644888"><ele>21.0</ele><time>2026-04-28T08:58:08Z</time></trkpt><trkpt lat="35.57191702073835" lon="-5.4661131360473"><ele>21.0</ele><time>2026-04-28T08:58:09Z</time></trkpt><trkpt lat="35.57175827273237" lon="-5.466056437175187"><ele>21.0</ele><time>2026-04-28T08:58:10Z</time></trkpt><trkpt lat="35.571598985008514" lon="-5.46600349790668"><ele>21.0</ele><time>2026-04-28T08:58:11Z</time></trkpt><trkpt lat="35.571442724905815" lon="-5.465944624721851"><ele>21.0</ele><time>2026-04-28T08:58:12Z</time></trkpt><trkpt lat="35.57128802367508" lon="-5.465888817369263"><ele>21.333333333333332</ele><time>2026-04-28T08:58:13Z</time></trkpt><trkpt lat="35.57113934819643" lon="-5.465829978776391"><ele>21.666666666666664</ele><time>2026-04-28T08:58:14Z</time></trkpt><trkpt lat="35.57099119534119" lon="-5.465768614992853"><ele>22.0</ele><time>2026-04-28T08:58:15Z</time></trkpt><trkpt lat="35.570845688875266" lon="-5.4657136636278825"><ele>22.0</ele><time>2026-04-28T08:58:16Z</time></trkpt><trkpt lat="35.57070071784031" lon="-5.4656651533419724"><ele>22.0</ele><time>2026-04-28T08:58:17Z</time></trkpt><trkpt lat="35.57055861109789" lon="-5.465614182984231"><ele>22.0</ele><time>2026-04-28T08:58:18Z</time></trkpt><trkpt lat="35.570420055090196" lon="-5.465557623990247"><ele>22.0</ele><time>2026-04-28T08:58:19Z</time></trkpt><trkpt lat="35.57028201606991" lon="-5.465503215652286"><ele>24.0</ele><time>2026-04-28T08:58:20Z</time></trkpt><trkpt lat="35.57014624207875" lon="-5.465453391051413"><ele>26.0</ele><time>2026-04-28T08:58:21Z</time></trkpt><trkpt lat="35.57001081913173" lon="-5.465407327495095"><ele>28.0</ele><time>2026-04-28T08:58:22Z</time></trkpt><trkpt lat="35.56987577440498" lon="-5.465355757970197"><ele>30.0</ele><time>2026-04-28T08:58:23Z</time></trkpt><trkpt lat="35.56974552333151" lon="-5.46529909521632"><ele>31.5</ele><time>2026-04-28T08:58:24Z</time></trkpt><trkpt lat="35.56961564384217" lon="-5.465248331442492"><ele>33.0</ele><time>2026-04-28T08:58:25Z</time></trkpt><trkpt lat="35.569486283680746" lon="-5.465204043853453"><ele>34.5</ele><time>2026-04-28T08:58:26Z</time></trkpt><trkpt lat="35.569358881389306" lon="-5.465160219272916"><ele>36.0</ele><time>2026-04-28T08:58:27Z</time></trkpt><trkpt lat="35.56923128823006" lon="-5.465110909939331"><ele>36.0</ele><time>2026-04-28T08:58:28Z</time></trkpt><trkpt lat="35.56910345291864" lon="-5.465060280630194"><ele>36.0</ele><time>2026-04-28T08:58:29Z</time></trkpt><trkpt lat="35.56897707844099" lon="-5.465008363584483"><ele>36.0</ele><time>2026-04-28T08:58:30Z</time></trkpt><trkpt lat="35.568851308189394" lon="-5.464953600042693"><ele>36.0</ele><time>2026-04-28T08:58:31Z</time></trkpt><trkpt lat="35.568723747896335" lon="-5.4649039963618655"><ele>35.75</ele><time>2026-04-28T08:58:32Z</time></trkpt><trkpt lat="35.56859518762467" lon="-5.464861834429701"><ele>35.5</ele><time>2026-04-28T08:58:33Z</time></trkpt><trkpt lat="35.568462871119856" lon="-5.464813770418016"><ele>35.25</ele><time>2026-04-28T08:58:34Z</time></trkpt><trkpt lat="35.568328057737446" lon="-5.464750217364137"><ele>35.0</ele><time>2026-04-28T08:58:35Z</time></trkpt><trkpt lat="35.56819449745569" lon="-5.464672299373189"><ele>35.0</ele><time>2026-04-28T08:58:36Z</time></trkpt><trkpt lat="35.568066082670285" lon="-5.464581069041995"><ele>35.0</ele><time>2026-04-28T08:58:37Z</time></trkpt><trkpt lat="35.567949281168296" lon="-5.464485213119631"><ele>35.0</ele><time>2026-04-28T08:58:38Z</time></trkpt><trkpt lat="35.567836325504096" lon="-5.4643890091662914"><ele>35.0</ele><time>2026-04-28T08:58:39Z</time></trkpt><trkpt lat="35.56772811584578" lon="-5.46428817385128"><ele>33.75</ele><time>2026-04-28T08:58:40Z</time></trkpt><trkpt lat="35.56762349217512" lon="-5.4641877615392795"><ele>32.5</ele><time>2026-04-28T08:58:41Z</time></trkpt><trkpt lat="35.5675038651578" lon="-5.464120255723505"><ele>31.25</ele><time>2026-04-28T08:58:42Z</time></trkpt><trkpt lat="35.56739189586817" lon="-5.464037520742462"><ele>30.0</ele><time>2026-04-28T08:58:43Z</time></trkpt><trkpt lat="35.56727770744747" lon="-5.463941930064872"><ele>30.0</ele><time>2026-04-28T08:58:44Z</time></trkpt><trkpt lat="35.56716716950491" lon="-5.463839026991185"><ele>30.0</ele><time>2026-04-28T08:58:45Z</time></trkpt><trkpt lat="35.56705677823626" lon="-5.463736260459307"><ele>30.0</ele><time>2026-04-28T08:58:46Z</time></trkpt><trkpt lat="35.566954096378375" lon="-5.463619475945452"><ele>30.0</ele><time>2026-04-28T08:58:47Z</time></trkpt><trkpt lat="35.56683935064187" lon="-5.463519455684091"><ele>29.0</ele><time>2026-04-28T08:58:48Z</time></trkpt><trkpt lat="35.56673390054242" lon="-5.463402933639373"><ele>28.0</ele><time>2026-04-28T08:58:49Z</time></trkpt><trkpt lat="35.566636589481675" lon="-5.4632700987475955"><ele>27.0</ele><time>2026-04-28T08:58:50Z</time></trkpt><trkpt lat="35.56654088416317" lon="-5.463110128854719"><ele>26.0</ele><time>2026-04-28T08:58:51Z</time></trkpt><trkpt lat="35.566411430602884" lon="-5.462955204830572"><ele>26.666666666666664</ele><time>2026-04-28T08:58:52Z</time></trkpt><trkpt lat="35.56627563686902" lon="-5.462764589525037"><ele>27.333333333333336</ele><time>2026-04-28T08:58:53Z</time></trkpt><trkpt lat="35.56614357469474" lon="-5.462558490700136"><ele>28.0</ele><time>2026-04-28T08:58:54Z</time></trkpt><trkpt lat="35.56600610115312" lon="-5.462343810476734"><ele>27.333333333333336</ele><time>2026-04-28T08:58:55Z</time></trkpt><trkpt lat="35.56587995942728" lon="-5.462134672709326"><ele>26.666666666666664</ele><time>2026-04-28T08:58:56Z</time></trkpt><trkpt lat="35.56575076606239" lon="-5.461949662563942"><ele>26.0</ele><time>2026-04-28T08:58:57Z</time></trkpt><trkpt lat="35.565638487387204" lon="-5.461771329442347"><ele>26.0</ele><time>2026-04-28T08:58:58Z</time></trkpt><trkpt lat="35.56552644579637" lon="-5.4616003911582895"><ele>26.0</ele><time>2026-04-28T08:58:59Z</time></trkpt><trkpt lat="35.56541843282364" lon="-5.4614383067869765"><ele>26.0</ele><time>2026-04-28T08:59:00Z</time></trkpt><trkpt lat="35.56531314045917" lon="-5.461282294645587"><ele>25.25</ele><time>2026-04-28T08:59:01Z</time></trkpt><trkpt lat="35.56521154063561" lon="-5.461138412185893"><ele>24.5</ele><time>2026-04-28T08:59:02Z</time></trkpt><trkpt lat="35.56510801832272" lon="-5.461007296432968"><ele>23.75</ele><time>2026-04-28T08:59:03Z</time></trkpt><trkpt lat="35.56499714498588" lon="-5.460891138523163"><ele>23.0</ele><time>2026-04-28T08:59:04Z</time></trkpt><trkpt lat="35.56483625372266" lon="-5.460793072543911"><ele>23.0</ele><time>2026-04-28T08:59:05Z</time></trkpt><trkpt lat="35.56467981742417" lon="-5.460746739376135"><ele>23.0</ele><time>2026-04-28T08:59:06Z</time></trkpt><trkpt lat="35.5645265071679" lon="-5.46067868884561"><ele>23.0</ele><time>2026-04-28T08:59:07Z</time></trkpt><trkpt lat="35.56435717453757" lon="-5.460640471289317"><ele>22.0</ele><time>2026-04-28T08:59:08Z</time></trkpt><trkpt lat="35.56418772593669" lon="-5.460596978515707"><ele>21.0</ele><time>2026-04-28T08:59:09Z</time></trkpt><trkpt lat="35.56401063378313" lon="-5.460549124763184"><ele>20.0</ele><time>2026-04-28T08:59:10Z</time></trkpt><trkpt lat="35.56383477075454" lon="-5.4605033205644595"><ele>21.0</ele><time>2026-04-28T08:59:11Z</time></trkpt><trkpt lat="35.563655645373316" lon="-5.460454701577215"><ele>22.0</ele><time>2026-04-28T08:59:12Z</time></trkpt><trkpt lat="35.56347870169127" lon="-5.460406907787302"><ele>23.0</ele><time>2026-04-28T08:59:13Z</time></trkpt><trkpt lat="35.56330975377933" lon="-5.4603500392054825"><ele>23.0</ele><time>2026-04-28T08:59:14Z</time></trkpt><trkpt lat="35.56314862112228" lon="-5.46027384035239"><ele>23.0</ele><time>2026-04-28T08:59:15Z</time></trkpt><trkpt lat="35.56300501247762" lon="-5.460164833300207"><ele>23.0</ele><time>2026-04-28T08:59:16Z</time></trkpt><trkpt lat="35.56286789076347" lon="-5.460020151271276"><ele>21.0</ele><time>2026-04-28T08:59:17Z</time></trkpt><trkpt lat="35.56273425564578" lon="-5.459867880367037"><ele>19.0</ele><time>2026-04-28T08:59:18Z</time></trkpt><trkpt lat="35.5625987987762" lon="-5.459706957753299"><ele>17.0</ele><time>2026-04-28T08:59:19Z</time></trkpt><trkpt lat="35.562455382363694" lon="-5.459550544099469"><ele>17.666666666666668</ele><time>2026-04-28T08:59:20Z</time></trkpt><trkpt lat="35.562306434634245" lon="-5.459412878914647"><ele>18.333333333333332</ele><time>2026-04-28T08:59:21Z</time></trkpt><trkpt lat="35.56213860222454" lon="-5.459319925602008"><ele>19.0</ele><time>2026-04-28T08:59:22Z</time></trkpt><trkpt lat="35.5619780932625" lon="-5.459205303457304"><ele>19.0</ele><time>2026-04-28T08:59:23Z</time></trkpt><trkpt lat="35.56180903645705" lon="-5.459122648604712"><ele>19.0</ele><time>2026-04-28T08:59:24Z</time></trkpt><trkpt lat="35.56164217465021" lon="-5.459026081143698"><ele>19.0</ele><time>2026-04-28T08:59:25Z</time></trkpt><trkpt lat="35.56147130662992" lon="-5.4589345097172375"><ele>19.0</ele><time>2026-04-28T08:59:26Z</time></trkpt><trkpt lat="35.561304414078876" lon="-5.458842428298358"><ele>19.0</ele><time>2026-04-28T08:59:27Z</time></trkpt><trkpt lat="35.561149162176534" lon="-5.458737521589544"><ele>19.0</ele><time>2026-04-28T08:59:28Z</time></trkpt><trkpt lat="35.56099450675255" lon="-5.458628963110189"><ele>20.333333333333332</ele><time>2026-04-28T08:59:29Z</time></trkpt><trkpt lat="35.56085008320294" lon="-5.458511032810148"><ele>21.666666666666668</ele><time>2026-04-28T08:59:30Z</time></trkpt><trkpt lat="35.56072097607132" lon="-5.458373353464229"><ele>23.0</ele><time>2026-04-28T08:59:31Z</time></trkpt><trkpt lat="35.560613500983536" lon="-5.458213054063638"><ele>23.0</ele><time>2026-04-28T08:59:32Z</time></trkpt><trkpt lat="35.5605276284281" lon="-5.458029058594112"><ele>23.0</ele><time>2026-04-28T08:59:33Z</time></trkpt><trkpt lat="35.56046526342709" lon="-5.457828629262947"><ele>23.0</ele><time>2026-04-28T08:59:34Z</time></trkpt><trkpt lat="35.5603955650272" lon="-5.457630103374685"><ele>23.666666666666668</ele><time>2026-04-28T08:59:35Z</time></trkpt><trkpt lat="35.56034253174365" lon="-5.457425619139471"><ele>24.333333333333336</ele><time>2026-04-28T08:59:36Z</time></trkpt><trkpt lat="35.56030143022102" lon="-5.457226119458959"><ele>25.0</ele><time>2026-04-28T08:59:37Z</time></trkpt><trkpt lat="35.56024069805919" lon="-5.457054507686161"><ele>25.0</ele><time>2026-04-28T08:59:38Z</time></trkpt><trkpt lat="35.56017357140208" lon="-5.456888754192742"><ele>25.0</ele><time>2026-04-28T08:59:39Z</time></trkpt><trkpt lat="35.560102182982945" lon="-5.456723683279055"><ele>25.0</ele><time>2026-04-28T08:59:40Z</time></trkpt><trkpt lat="35.560033288818246" lon="-5.456563072005895"><ele>25.0</ele><time>2026-04-28T08:59:41Z</time></trkpt><trkpt lat="35.55993698909815" lon="-5.456424676269969"><ele>25.0</ele><time>2026-04-28T08:59:42Z</time></trkpt><trkpt lat="35.55983438388735" lon="-5.456285802895922"><ele>25.0</ele><time>2026-04-28T08:59:43Z</time></trkpt><trkpt lat="35.55973128986154" lon="-5.456145110038968"><ele>24.75</ele><time>2026-04-28T08:59:44Z</time></trkpt><trkpt lat="35.559605931235524" lon="-5.456034110337369"><ele>24.5</ele><time>2026-04-28T08:59:45Z</time></trkpt><trkpt lat="35.55948316119967" lon="-5.45593227636877"><ele>24.25</ele><time>2026-04-28T08:59:46Z</time></trkpt><trkpt lat="35.55935913974416" lon="-5.455838599946432"><ele>24.0</ele><time>2026-04-28T08:59:47Z</time></trkpt><trkpt lat="35.559242287959705" lon="-5.455752661295303"><ele>24.0</ele><time>2026-04-28T08:59:48Z</time></trkpt><trkpt lat="35.55913726162778" lon="-5.455663362958063"><ele>24.0</ele><time>2026-04-28T08:59:49Z</time></trkpt><trkpt lat="35.55903166455241" lon="-5.455587271356461"><ele>24.0</ele><time>2026-04-28T08:59:50Z</time></trkpt><trkpt lat="35.55895350376783" lon="-5.4554531647143865"><ele>24.0</ele><time>2026-04-28T08:59:51Z</time></trkpt><trkpt lat="35.558874458184825" lon="-5.455315381654033"><ele>26.5</ele><time>2026-04-28T08:59:52Z</time></trkpt><trkpt lat="35.5588149636367" lon="-5.455158780317573"><ele>29.0</ele><time>2026-04-28T08:59:53Z</time></trkpt><trkpt lat="35.55877160824924" lon="-5.454994237566205"><ele>31.5</ele><time>2026-04-28T08:59:54Z</time></trkpt><trkpt lat="35.55874056373294" lon="-5.454826951290513"><ele>34.0</ele><time>2026-04-28T08:59:55Z</time></trkpt><trkpt lat="35.5587124108296" lon="-5.4546707688275085"><ele>31.799999999999997</ele><time>2026-04-28T08:59:56Z</time></trkpt><trkpt lat="35.55868699410823" lon="-5.4545231094622935"><ele>29.599999999999998</ele><time>2026-04-28T08:59:57Z</time></trkpt><trkpt lat="35.558652310769205" lon="-5.4544009888111455"><ele>27.4</ele><time>2026-04-28T08:59:58Z</time></trkpt><trkpt lat="35.55859748640377" lon="-5.454313680543377"><ele>25.2</ele><time>2026-04-28T08:59:59Z</time></trkpt><trkpt lat="35.558534927153595" lon="-5.454244557135609"><ele>23.0</ele><time>2026-04-28T09:00:00Z</time></trkpt><trkpt lat="35.55846541205238" lon="-5.454209487434691"><ele>23.0</ele><time>2026-04-28T09:00:01Z</time></trkpt><trkpt lat="35.55839657018294" lon="-5.45420880394715"><ele>23.0</ele><time>2026-04-28T09:00:02Z</time></trkpt><trkpt lat="35.558299717440775" lon="-5.454239768924425"><ele>23.0</ele><time>2026-04-28T09:00:04Z</time></trkpt><trkpt lat="35.558239249636145" lon="-5.454278769256762"><ele>23.0</ele><time>2026-04-28T09:00:07Z</time></trkpt><trkpt lat="35.55818009648401" lon="-5.454324243020265"><ele>23.0</ele><time>2026-04-28T09:00:08Z</time></trkpt><trkpt lat="35.55810606081336" lon="-5.454364636096347"><ele>23.0</ele><time>2026-04-28T09:00:09Z</time></trkpt><trkpt lat="35.55802568574708" lon="-5.454383056523369"><ele>23.0</ele><time>2026-04-28T09:00:10Z</time></trkpt><trkpt lat="35.55795596405459" lon="-5.454370511976858"><ele>23.0</ele><time>2026-04-28T09:00:11Z</time></trkpt><trkpt lat="35.5578948146675" lon="-5.45432214778271"><ele>23.0</ele><time>2026-04-28T09:00:12Z</time></trkpt><trkpt lat="35.55785173164358" lon="-5.454245511783185"><ele>23.0</ele><time>2026-04-28T09:00:13Z</time></trkpt><trkpt lat="35.55782999835751" lon="-5.454157795743068"><ele>23.0</ele><time>2026-04-28T09:00:14Z</time></trkpt><trkpt lat="35.557840092436166" lon="-5.454056197575811"><ele>23.0</ele><time>2026-04-28T09:00:15Z</time></trkpt><trkpt lat="35.557862371036464" lon="-5.4539491023946916"><ele>23.0</ele><time>2026-04-28T09:00:16Z</time></trkpt><trkpt lat="35.557880354916975" lon="-5.453839468586666"><ele>23.0</ele><time>2026-04-28T09:00:17Z</time></trkpt><trkpt lat="35.55788662275766" lon="-5.45371973089175"><ele>23.0</ele><time>2026-04-28T09:00:18Z</time></trkpt><trkpt lat="35.557882573990675" lon="-5.4536062304736515"><ele>23.0</ele><time>2026-04-28T09:00:19Z</time></trkpt><trkpt lat="35.55786595810384" lon="-5.453482561181185"><ele>23.0</ele><time>2026-04-28T09:00:20Z</time></trkpt><trkpt lat="35.55784409053072" lon="-5.453350600758562"><ele>22.25</ele><time>2026-04-28T09:00:21Z</time></trkpt><trkpt lat="35.55781888003137" lon="-5.4532124923039715"><ele>21.5</ele><time>2026-04-28T09:00:22Z</time></trkpt><trkpt lat="35.55779401367017" lon="-5.453068852272177"><ele>20.75</ele><time>2026-04-28T09:00:23Z</time></trkpt><trkpt lat="35.55777270049493" lon="-5.452926273555369"><ele>20.0</ele><time>2026-04-28T09:00:24Z</time></trkpt><trkpt lat="35.55774960252547" lon="-5.452785249843336"><ele>20.0</ele><time>2026-04-28T09:00:25Z</time></trkpt><trkpt lat="35.557722960185885" lon="-5.4526402881675144"><ele>20.0</ele><time>2026-04-28T09:00:26Z</time></trkpt><trkpt lat="35.55769483325518" lon="-5.45249439684873"><ele>20.0</ele><time>2026-04-28T09:00:27Z</time></trkpt><trkpt lat="35.55767301312188" lon="-5.452348350593715"><ele>20.0</ele><time>2026-04-28T09:00:28Z</time></trkpt><trkpt lat="35.557649656425156" lon="-5.452204026343948"><ele>21.25</ele><time>2026-04-28T09:00:29Z</time></trkpt><trkpt lat="35.55762074015917" lon="-5.452056314899888"><ele>22.5</ele><time>2026-04-28T09:00:30Z</time></trkpt><trkpt lat="35.557598212788456" lon="-5.4519080563310744"><ele>23.75</ele><time>2026-04-28T09:00:31Z</time></trkpt><trkpt lat="35.557582429805066" lon="-5.451752786347564"><ele>25.0</ele><time>2026-04-28T09:00:32Z</time></trkpt><trkpt lat="35.557567413533405" lon="-5.451592244286038"><ele>25.0</ele><time>2026-04-28T09:00:33Z</time></trkpt><trkpt lat="35.55755658134706" lon="-5.451429093419726"><ele>25.0</ele><time>2026-04-28T09:00:34Z</time></trkpt><trkpt lat="35.55754892128178" lon="-5.4512636251457325"><ele>25.0</ele><time>2026-04-28T09:00:35Z</time></trkpt><trkpt lat="35.55754074962353" lon="-5.451095509607886"><ele>25.0</ele><time>2026-04-28T09:00:36Z</time></trkpt><trkpt lat="35.55752977313312" lon="-5.450924394272268"><ele>25.75</ele><time>2026-04-28T09:00:37Z</time></trkpt><trkpt lat="35.557518964344354" lon="-5.450751722372736"><ele>26.5</ele><time>2026-04-28T09:00:38Z</time></trkpt><trkpt lat="35.5575102524285" lon="-5.450577348874258"><ele>27.25</ele><time>2026-04-28T09:00:39Z</time></trkpt><trkpt lat="35.55750510486776" lon="-5.450400470660388"><ele>28.0</ele><time>2026-04-28T09:00:40Z</time></trkpt><trkpt lat="35.557500863226466" lon="-5.45022264998761"><ele>28.5</ele><time>2026-04-28T09:00:41Z</time></trkpt><trkpt lat="35.55749491659158" lon="-5.450045110367814"><ele>29.0</ele><time>2026-04-28T09:00:42Z</time></trkpt><trkpt lat="35.55749289745381" lon="-5.449871175948679"><ele>29.5</ele><time>2026-04-28T09:00:43Z</time></trkpt><trkpt lat="35.557493029802465" lon="-5.449703486647216"><ele>30.0</ele><time>2026-04-28T09:00:44Z</time></trkpt><trkpt lat="35.5575000622264" lon="-5.449553164443603"><ele>31.4</ele><time>2026-04-28T09:00:45Z</time></trkpt><trkpt lat="35.55751263839931" lon="-5.449411389074232"><ele>32.8</ele><time>2026-04-28T09:00:46Z</time></trkpt><trkpt lat="35.557529464574394" lon="-5.449278697044491"><ele>34.2</ele><time>2026-04-28T09:00:47Z</time></trkpt><trkpt lat="35.55754912680729" lon="-5.449155487514524"><ele>35.6</ele><time>2026-04-28T09:00:48Z</time></trkpt><trkpt lat="35.55757141537316" lon="-5.449038971774643"><ele>37.0</ele><time>2026-04-28T09:00:49Z</time></trkpt><trkpt lat="35.557591279796064" lon="-5.44893269839995"><ele>37.0</ele><time>2026-04-28T09:00:50Z</time></trkpt><trkpt lat="35.55760915999222" lon="-5.4488380230775695"><ele>37.0</ele><time>2026-04-28T09:00:51Z</time></trkpt><trkpt lat="35.55762266837087" lon="-5.4487624350061195"><ele>37.0</ele><time>2026-04-28T09:00:52Z</time></trkpt><trkpt lat="35.55764113903798" lon="-5.448656629395895"><ele>37.0</ele><time>2026-04-28T09:00:54Z</time></trkpt><trkpt lat="35.5576802572723" lon="-5.448579288097255"><ele>37.0</ele><time>2026-04-28T09:06:18.999Z</time></trkpt><trkpt lat="35.557755303727944" lon="-5.448460354401141"><ele>37.0</ele><time>2026-04-28T09:06:20.999Z</time></trkpt><trkpt lat="35.55778694051393" lon="-5.448364039164072"><ele>36.6</ele><time>2026-04-28T09:06:21.999Z</time></trkpt><trkpt lat="35.557835407311806" lon="-5.4482563332730845"><ele>36.2</ele><time>2026-04-28T09:06:22.999Z</time></trkpt><trkpt lat="35.55788470343721" lon="-5.448152717846442"><ele>35.8</ele><time>2026-04-28T09:06:23.999Z</time></trkpt><trkpt lat="35.557946338739995" lon="-5.448038945906203"><ele>35.4</ele><time>2026-04-28T09:06:25Z</time></trkpt><trkpt lat="35.558023132748986" lon="-5.447920388698901"><ele>35.0</ele><time>2026-04-28T09:06:26Z</time></trkpt><trkpt lat="35.55810124608167" lon="-5.447799887890312"><ele>33.75</ele><time>2026-04-28T09:06:27Z</time></trkpt><trkpt lat="35.55818433193026" lon="-5.447680157478031"><ele>32.5</ele><time>2026-04-28T09:06:28Z</time></trkpt><trkpt lat="35.558275321199886" lon="-5.447559380013412"><ele>31.25</ele><time>2026-04-28T09:06:29Z</time></trkpt><trkpt lat="35.558370524712956" lon="-5.447437914388206"><ele>30.0</ele><time>2026-04-28T09:06:30Z</time></trkpt><trkpt lat="35.55846812707672" lon="-5.44731383926867"><ele>30.0</ele><time>2026-04-28T09:06:31Z</time></trkpt><trkpt lat="35.55856495743623" lon="-5.447185219282527"><ele>30.0</ele><time>2026-04-28T09:06:32Z</time></trkpt><trkpt lat="35.558662991404624" lon="-5.447055947449601"><ele>30.0</ele><time>2026-04-28T09:06:33Z</time></trkpt><trkpt lat="35.558762330660464" lon="-5.446925437394298"><ele>30.0</ele><time>2026-04-28T09:06:34Z</time></trkpt><trkpt lat="35.55886280969782" lon="-5.446796354500408"><ele>30.0</ele><time>2026-04-28T09:06:35Z</time></trkpt><trkpt lat="35.55896117399033" lon="-5.446669496198715"><ele>30.0</ele><time>2026-04-28T09:06:36Z</time></trkpt><trkpt lat="35.559051307620656" lon="-5.446544223865639"><ele>30.0</ele><time>2026-04-28T09:06:37Z</time></trkpt><trkpt lat="35.55913353713505" lon="-5.44641871019581"><ele>30.0</ele><time>2026-04-28T09:06:38Z</time></trkpt><trkpt lat="35.559209013757936" lon="-5.446293319605497"><ele>29.0</ele><time>2026-04-28T09:06:39Z</time></trkpt><trkpt lat="35.55928271796079" lon="-5.446164924365938"><ele>28.0</ele><time>2026-04-28T09:06:40Z</time></trkpt><trkpt lat="35.55935245828904" lon="-5.446025701242524"><ele>27.0</ele><time>2026-04-28T09:06:41Z</time></trkpt><trkpt lat="35.55941576651294" lon="-5.445872168145459"><ele>26.0</ele><time>2026-04-28T09:06:42Z</time></trkpt><trkpt lat="35.559475158608464" lon="-5.4457127676193045"><ele>26.0</ele><time>2026-04-28T09:06:43Z</time></trkpt><trkpt lat="35.5595287915983" lon="-5.445549070491788"><ele>26.0</ele><time>2026-04-28T09:06:44Z</time></trkpt><trkpt lat="35.55957332961959" lon="-5.445379171309944"><ele>26.0</ele><time>2026-04-28T09:06:45Z</time></trkpt><trkpt lat="35.559610544402865" lon="-5.445203042344068"><ele>26.0</ele><time>2026-04-28T09:06:46Z</time></trkpt><trkpt lat="35.559638326382434" lon="-5.445026905600706"><ele>24.666666666666664</ele><time>2026-04-28T09:06:47Z</time></trkpt><trkpt lat="35.55965744317666" lon="-5.444843509597255"><ele>23.333333333333332</ele><time>2026-04-28T09:06:48Z</time></trkpt><trkpt lat="35.55967008744659" lon="-5.44465251647286"><ele>22.0</ele><time>2026-04-28T09:06:49Z</time></trkpt><trkpt lat="35.55968288776129" lon="-5.444457413904872"><ele>22.0</ele><time>2026-04-28T09:06:50Z</time></trkpt><trkpt lat="35.559697155985624" lon="-5.444259047036405"><ele>22.0</ele><time>2026-04-28T09:06:51Z</time></trkpt><trkpt lat="35.559711614402" lon="-5.444059331890183"><ele>22.0</ele><time>2026-04-28T09:06:52Z</time></trkpt><trkpt lat="35.559728597658044" lon="-5.44385714313461"><ele>22.666666666666664</ele><time>2026-04-28T09:06:53Z</time></trkpt><trkpt lat="35.55974595409775" lon="-5.4436538376203885"><ele>23.333333333333332</ele><time>2026-04-28T09:06:54Z</time></trkpt><trkpt lat="35.55975874118852" lon="-5.443448160971322"><ele>24.0</ele><time>2026-04-28T09:06:55Z</time></trkpt><trkpt lat="35.559768695673256" lon="-5.443242704191008"><ele>24.0</ele><time>2026-04-28T09:06:56Z</time></trkpt><trkpt lat="35.559785132189965" lon="-5.443036406363654"><ele>24.0</ele><time>2026-04-28T09:06:57Z</time></trkpt><trkpt lat="35.55980594936049" lon="-5.442831558138146"><ele>24.0</ele><time>2026-04-28T09:06:58Z</time></trkpt><trkpt lat="35.55982524072774" lon="-5.44262869661822"><ele>24.333333333333336</ele><time>2026-04-28T09:06:59Z</time></trkpt><trkpt lat="35.559844167022995" lon="-5.442427543140344"><ele>24.666666666666668</ele><time>2026-04-28T09:07:00Z</time></trkpt><trkpt lat="35.559866111975936" lon="-5.442227574561308"><ele>25.0</ele><time>2026-04-28T09:07:01Z</time></trkpt><trkpt lat="35.55989455561141" lon="-5.442026679783893"><ele>24.0</ele><time>2026-04-28T09:07:02Z</time></trkpt><trkpt lat="35.55989025803033" lon="-5.441814633367365"><ele>23.0</ele><time>2026-04-28T09:07:03Z</time></trkpt><trkpt lat="35.559905100311184" lon="-5.441602739779412"><ele>22.0</ele><time>2026-04-28T09:07:04Z</time></trkpt><trkpt lat="35.55991674316434" lon="-5.441384962342375"><ele>22.0</ele><time>2026-04-28T09:07:05Z</time></trkpt><trkpt lat="35.55993654911512" lon="-5.441163567074112"><ele>22.0</ele><time>2026-04-28T09:07:06Z</time></trkpt><trkpt lat="35.55995264095491" lon="-5.440944475815489"><ele>22.0</ele><time>2026-04-28T09:07:07Z</time></trkpt><trkpt lat="35.559968412728004" lon="-5.440718026566669"><ele>22.0</ele><time>2026-04-28T09:07:08Z</time></trkpt><trkpt lat="35.55998476159885" lon="-5.4404928226158935"><ele>22.0</ele><time>2026-04-28T09:07:09Z</time></trkpt><trkpt lat="35.55999938228952" lon="-5.440268890967651"><ele>22.0</ele><time>2026-04-28T09:07:10Z</time></trkpt><trkpt lat="35.56001301873179" lon="-5.440045922460953"><ele>20.666666666666664</ele><time>2026-04-28T09:07:11Z</time></trkpt><trkpt lat="35.56003363380329" lon="-5.439825359679181"><ele>19.333333333333332</ele><time>2026-04-28T09:07:12Z</time></trkpt><trkpt lat="35.560043386290886" lon="-5.439601131812634"><ele>18.0</ele><time>2026-04-28T09:07:13Z</time></trkpt><trkpt lat="35.56004194544249" lon="-5.439378627521899"><ele>17.666666666666668</ele><time>2026-04-28T09:07:14Z</time></trkpt><trkpt lat="35.560029617809285" lon="-5.439153138501426"><ele>17.333333333333336</ele><time>2026-04-28T09:07:15Z</time></trkpt><trkpt lat="35.56000628063233" lon="-5.438925620937511"><ele>17.0</ele><time>2026-04-28T09:07:16Z</time></trkpt><trkpt lat="35.559970500142384" lon="-5.438699434069168"><ele>17.0</ele><time>2026-04-28T09:07:17Z</time></trkpt><trkpt lat="35.55992651789789" lon="-5.4384723779564785"><ele>17.0</ele><time>2026-04-28T09:07:18Z</time></trkpt><trkpt lat="35.559882177103134" lon="-5.4382542937985825"><ele>17.0</ele><time>2026-04-28T09:07:19Z</time></trkpt><trkpt lat="35.55982874268188" lon="-5.438030094769304"><ele>17.333333333333336</ele><time>2026-04-28T09:07:20Z</time></trkpt><trkpt lat="35.559775694142836" lon="-5.437809283575789"><ele>17.666666666666668</ele><time>2026-04-28T09:07:21Z</time></trkpt><trkpt lat="35.559726451596475" lon="-5.437592232067912"><ele>18.0</ele><time>2026-04-28T09:07:22Z</time></trkpt><trkpt lat="35.55968399533497" lon="-5.437376954480406"><ele>18.0</ele><time>2026-04-28T09:07:23Z</time></trkpt><trkpt lat="35.55965080114029" lon="-5.437160380793882"><ele>18.0</ele><time>2026-04-28T09:07:24Z</time></trkpt><trkpt lat="35.5596276328093" lon="-5.436942921436075"><ele>18.0</ele><time>2026-04-28T09:07:25Z</time></trkpt><trkpt lat="35.55961497870576" lon="-5.436722438071015"><ele>19.0</ele><time>2026-04-28T09:07:26Z</time></trkpt><trkpt lat="35.559617330615154" lon="-5.436498301686926"><ele>20.0</ele><time>2026-04-28T09:07:27Z</time></trkpt><trkpt lat="35.55963306464512" lon="-5.436273008787974"><ele>21.0</ele><time>2026-04-28T09:07:28Z</time></trkpt><trkpt lat="35.55966498980559" lon="-5.4360497747316225"><ele>21.0</ele><time>2026-04-28T09:07:29Z</time></trkpt><trkpt lat="35.55970592884173" lon="-5.4358263973683725"><ele>21.0</ele><time>2026-04-28T09:07:30Z</time></trkpt><trkpt lat="35.559756709286425" lon="-5.435609029980823"><ele>21.0</ele><time>2026-04-28T09:07:31Z</time></trkpt><trkpt lat="35.559820091688636" lon="-5.435398744405207"><ele>19.666666666666668</ele><time>2026-04-28T09:07:32Z</time></trkpt><trkpt lat="35.55989245268753" lon="-5.4351950216950575"><ele>18.333333333333336</ele><time>2026-04-28T09:07:33Z</time></trkpt><trkpt lat="35.55997532473291" lon="-5.434998623843104"><ele>17.0</ele><time>2026-04-28T09:07:34Z</time></trkpt><trkpt lat="35.5600718514372" lon="-5.434812822767873"><ele>17.0</ele><time>2026-04-28T09:07:35Z</time></trkpt><trkpt lat="35.56017612408026" lon="-5.434635054203269"><ele>17.0</ele><time>2026-04-28T09:07:36Z</time></trkpt><trkpt lat="35.56029069453377" lon="-5.43446510528555"><ele>17.0</ele><time>2026-04-28T09:07:37Z</time></trkpt><trkpt lat="35.56040819503641" lon="-5.434307123000083"><ele>17.666666666666668</ele><time>2026-04-28T09:07:38Z</time></trkpt><trkpt lat="35.56052039456702" lon="-5.4341504607426945"><ele>18.333333333333332</ele><time>2026-04-28T09:07:39Z</time></trkpt><trkpt lat="35.560625730096625" lon="-5.433991595720897"><ele>19.0</ele><time>2026-04-28T09:07:40Z</time></trkpt><trkpt lat="35.56072856391939" lon="-5.433835611526224"><ele>17.666666666666664</ele><time>2026-04-28T09:07:41Z</time></trkpt><trkpt lat="35.56082968193928" lon="-5.433685670632754"><ele>16.333333333333332</ele><time>2026-04-28T09:07:42Z</time></trkpt><trkpt lat="35.560930077215225" lon="-5.433547150363194"><ele>15.0</ele><time>2026-04-28T09:07:43Z</time></trkpt><trkpt lat="35.56103145194139" lon="-5.433404784734078"><ele>15.0</ele><time>2026-04-28T09:07:44Z</time></trkpt><trkpt lat="35.56113252326861" lon="-5.433253765549856"><ele>15.0</ele><time>2026-04-28T09:07:45Z</time></trkpt><trkpt lat="35.56123485247357" lon="-5.43309734169539"><ele>15.0</ele><time>2026-04-28T09:07:46Z</time></trkpt><trkpt lat="35.56134152172586" lon="-5.432932394381431"><ele>15.0</ele><time>2026-04-28T09:07:47Z</time></trkpt><trkpt lat="35.56145136573431" lon="-5.432767792943168"><ele>15.0</ele><time>2026-04-28T09:07:48Z</time></trkpt><trkpt lat="35.56156040463721" lon="-5.432599949044288"><ele>15.0</ele><time>2026-04-28T09:07:49Z</time></trkpt><trkpt lat="35.561668915603754" lon="-5.432432511527164"><ele>15.0</ele><time>2026-04-28T09:07:50Z</time></trkpt><trkpt lat="35.56177687111553" lon="-5.432268275953747"><ele>15.0</ele><time>2026-04-28T09:07:51Z</time></trkpt><trkpt lat="35.561881331938125" lon="-5.432107354548974"><ele>15.0</ele><time>2026-04-28T09:07:52Z</time></trkpt><trkpt lat="35.561985219641436" lon="-5.431949903083372"><ele>18.0</ele><time>2026-04-28T09:07:53Z</time></trkpt><trkpt lat="35.562087773238275" lon="-5.431787618650191"><ele>21.0</ele><time>2026-04-28T09:07:54Z</time></trkpt><trkpt lat="35.56218424105078" lon="-5.431623136163076"><ele>24.0</ele><time>2026-04-28T09:07:55Z</time></trkpt><trkpt lat="35.562272469437204" lon="-5.431454814555542"><ele>21.666666666666668</ele><time>2026-04-28T09:07:56Z</time></trkpt><trkpt lat="35.562341979307185" lon="-5.431277890535332"><ele>19.333333333333336</ele><time>2026-04-28T09:07:57Z</time></trkpt><trkpt lat="35.5624108126954" lon="-5.431102612257777"><ele>17.0</ele><time>2026-04-28T09:07:58Z</time></trkpt><trkpt lat="35.56247966450086" lon="-5.430923962026333"><ele>17.0</ele><time>2026-04-28T09:07:59Z</time></trkpt><trkpt lat="35.56253921402245" lon="-5.4307414542975"><ele>17.0</ele><time>2026-04-28T09:08:00Z</time></trkpt><trkpt lat="35.56259120808805" lon="-5.4305537484112305"><ele>17.0</ele><time>2026-04-28T09:08:01Z</time></trkpt><trkpt lat="35.56263266054561" lon="-5.430362077899667"><ele>15.666666666666668</ele><time>2026-04-28T09:08:02Z</time></trkpt><trkpt lat="35.56266462430396" lon="-5.430168189508118"><ele>14.333333333333332</ele><time>2026-04-28T09:08:03Z</time></trkpt><trkpt lat="35.56269165401225" lon="-5.429971559172797"><ele>13.0</ele><time>2026-04-28T09:08:04Z</time></trkpt><trkpt lat="35.56271591014697" lon="-5.4297819625243235"><ele>13.333333333333332</ele><time>2026-04-28T09:08:05Z</time></trkpt><trkpt lat="35.562738170898854" lon="-5.4295945424383465"><ele>13.666666666666668</ele><time>2026-04-28T09:08:06Z</time></trkpt><trkpt lat="35.56276251260383" lon="-5.429408989137013"><ele>14.0</ele><time>2026-04-28T09:08:07Z</time></trkpt><trkpt lat="35.56278674334915" lon="-5.429223125007896"><ele>14.0</ele><time>2026-04-28T09:08:08Z</time></trkpt><trkpt lat="35.56280703220581" lon="-5.429039983087553"><ele>14.0</ele><time>2026-04-28T09:08:09Z</time></trkpt><trkpt lat="35.562827878470586" lon="-5.4288631186814875"><ele>14.0</ele><time>2026-04-28T09:08:10Z</time></trkpt><trkpt lat="35.5628491801637" lon="-5.428691505355306"><ele>14.0</ele><time>2026-04-28T09:08:11Z</time></trkpt><trkpt lat="35.5628691048936" lon="-5.428525556775491"><ele>15.75</ele><time>2026-04-28T09:08:12Z</time></trkpt><trkpt lat="35.562888666500555" lon="-5.428361765944276"><ele>17.5</ele><time>2026-04-28T09:08:13Z</time></trkpt><trkpt lat="35.562906821117515" lon="-5.428204137885613"><ele>19.25</ele><time>2026-04-28T09:08:14Z</time></trkpt><trkpt lat="35.56292606356265" lon="-5.4280490774979535"><ele>21.0</ele><time>2026-04-28T09:08:15Z</time></trkpt><trkpt lat="35.562952330112545" lon="-5.42789763029842"><ele>21.0</ele><time>2026-04-28T09:08:15.999Z</time></trkpt><trkpt lat="35.562991057760755" lon="-5.427745295531816"><ele>21.0</ele><time>2026-04-28T09:08:16.999Z</time></trkpt><trkpt lat="35.56303858242482" lon="-5.427590751295988"><ele>21.0</ele><time>2026-04-28T09:08:17.999Z</time></trkpt><trkpt lat="35.563091825896066" lon="-5.427441611875117"><ele>21.0</ele><time>2026-04-28T09:08:18.999Z</time></trkpt><trkpt lat="35.56313914882428" lon="-5.427290778435337"><ele>21.0</ele><time>2026-04-28T09:08:19.999Z</time></trkpt><trkpt lat="35.5631830874504" lon="-5.427148450975268"><ele>21.0</ele><time>2026-04-28T09:08:20.999Z</time></trkpt><trkpt lat="35.56322367924089" lon="-5.427017015907641"><ele>21.0</ele><time>2026-04-28T09:08:21.999Z</time></trkpt><trkpt lat="35.56326329760651" lon="-5.426895542058728"><ele>21.0</ele><time>2026-04-28T09:08:22.999Z</time></trkpt><trkpt lat="35.56330252292728" lon="-5.4267797148158685"><ele>21.0</ele><time>2026-04-28T09:08:23.999Z</time></trkpt><trkpt lat="35.56333856496355" lon="-5.426664456254589"><ele>20.8</ele><time>2026-04-28T09:08:24.999Z</time></trkpt><trkpt lat="35.56337290039495" lon="-5.426552146701187"><ele>20.6</ele><time>2026-04-28T09:08:25.999Z</time></trkpt><trkpt lat="35.56340702160373" lon="-5.426435362608977"><ele>20.4</ele><time>2026-04-28T09:08:26.999Z</time></trkpt><trkpt lat="35.56343998484493" lon="-5.426322372603112"><ele>20.2</ele><time>2026-04-28T09:08:27.999Z</time></trkpt><trkpt lat="35.56347328808241" lon="-5.42621653012676"><ele>20.0</ele><time>2026-04-28T09:08:28.999Z</time></trkpt><trkpt lat="35.56350612664477" lon="-5.426114685760758"><ele>19.0</ele><time>2026-04-28T09:08:29.999Z</time></trkpt><trkpt lat="35.56353592267027" lon="-5.426019130432185"><ele>18.0</ele><time>2026-04-28T09:08:31Z</time></trkpt><trkpt lat="35.56355852357073" lon="-5.425934916103821"><ele>17.0</ele><time>2026-04-28T09:08:32Z</time></trkpt><trkpt lat="35.563598588790036" lon="-5.425796848232159"><ele>16.0</ele><time>2026-04-28T09:08:34Z</time></trkpt><trkpt lat="35.56364381230999" lon="-5.42567383991886"><ele>15.0</ele><time>2026-04-28T09:08:36Z</time></trkpt><trkpt lat="35.56368533108936" lon="-5.425544845319552"><ele>15.0</ele><time>2026-04-28T09:08:38Z</time></trkpt><trkpt lat="35.5637295588866" lon="-5.42539773996182"><ele>15.0</ele><time>2026-04-28T09:08:40Z</time></trkpt><trkpt lat="35.56375784137018" lon="-5.425312500479538"><ele>15.0</ele><time>2026-04-28T09:08:41Z</time></trkpt><trkpt lat="35.56378631395542" lon="-5.425230656335333"><ele>15.0</ele><time>2026-04-28T09:08:42Z</time></trkpt><trkpt lat="35.56381122969171" lon="-5.4251434759703665"><ele>15.0</ele><time>2026-04-28T09:08:43Z</time></trkpt><trkpt lat="35.563835308948704" lon="-5.4250532778924265"><ele>15.0</ele><time>2026-04-28T09:08:44Z</time></trkpt><trkpt lat="35.563857734457144" lon="-5.424971485831107"><ele>15.0</ele><time>2026-04-28T09:08:45Z</time></trkpt><trkpt lat="35.563881624999084" lon="-5.424891132906405"><ele>15.0</ele><time>2026-04-28T09:08:46Z</time></trkpt><trkpt lat="35.563906151976" lon="-5.424800519563402"><ele>15.0</ele><time>2026-04-28T09:08:47Z</time></trkpt><trkpt lat="35.56393601691922" lon="-5.424698702304948"><ele>15.0</ele><time>2026-04-28T09:08:48Z</time></trkpt><trkpt lat="35.563968167953604" lon="-5.424583907862411"><ele>15.0</ele><time>2026-04-28T09:08:49Z</time></trkpt><trkpt lat="35.56400456037317" lon="-5.424459131506192"><ele>15.0</ele><time>2026-04-28T09:08:50Z</time></trkpt><trkpt lat="35.56404272823559" lon="-5.4243296559621745"><ele>15.0</ele><time>2026-04-28T09:08:51Z</time></trkpt><trkpt lat="35.56408326199554" lon="-5.424198935466364"><ele>15.0</ele><time>2026-04-28T09:08:52Z</time></trkpt><trkpt lat="35.56412423545538" lon="-5.424068593828624"><ele>15.0</ele><time>2026-04-28T09:08:53Z</time></trkpt><trkpt lat="35.564167304684176" lon="-5.423934601425173"><ele>15.0</ele><time>2026-04-28T09:08:54Z</time></trkpt><trkpt lat="35.56420951116165" lon="-5.423798450161494"><ele>14.6</ele><time>2026-04-28T09:08:55Z</time></trkpt><trkpt lat="35.56424633781878" lon="-5.423669372679551"><ele>14.2</ele><time>2026-04-28T09:08:56Z</time></trkpt><trkpt lat="35.56428246432396" lon="-5.423544890547982"><ele>13.8</ele><time>2026-04-28T09:08:57Z</time></trkpt><trkpt lat="35.56432110321826" lon="-5.423427851769946"><ele>13.4</ele><time>2026-04-28T09:08:58Z</time></trkpt><trkpt lat="35.56436147488879" lon="-5.423312438540929"><ele>13.0</ele><time>2026-04-28T09:08:59Z</time></trkpt><trkpt lat="35.56439514662595" lon="-5.423202256457397"><ele>13.0</ele><time>2026-04-28T09:09:00Z</time></trkpt><trkpt lat="35.56442893046865" lon="-5.423086216000482"><ele>13.0</ele><time>2026-04-28T09:09:01Z</time></trkpt><trkpt lat="35.56446743541533" lon="-5.422963956365148"><ele>13.0</ele><time>2026-04-28T09:09:02Z</time></trkpt><trkpt lat="35.56450760451327" lon="-5.422836985782692"><ele>13.0</ele><time>2026-04-28T09:09:03Z</time></trkpt><trkpt lat="35.56454855464848" lon="-5.422705775645243"><ele>13.0</ele><time>2026-04-28T09:09:04Z</time></trkpt><trkpt lat="35.56459040780936" lon="-5.422573390396351"><ele>13.2</ele><time>2026-04-28T09:09:05Z</time></trkpt><trkpt lat="35.564631365724054" lon="-5.422438989799199"><ele>13.4</ele><time>2026-04-28T09:09:06Z</time></trkpt><trkpt lat="35.56467025659253" lon="-5.422309121928867"><ele>13.599999999999998</ele><time>2026-04-28T09:09:07Z</time></trkpt><trkpt lat="35.564707668854844" lon="-5.422186100907318"><ele>13.799999999999999</ele><time>2026-04-28T09:09:08Z</time></trkpt><trkpt lat="35.564740647774705" lon="-5.422068853123324"><ele>14.0</ele><time>2026-04-28T09:09:09Z</time></trkpt><trkpt lat="35.56476518363604" lon="-5.421957222291569"><ele>14.000000000000002</ele><time>2026-04-28T09:09:10Z</time></trkpt><trkpt lat="35.56477328595628" lon="-5.4218503571264085"><ele>14.0</ele><time>2026-04-28T09:09:11Z</time></trkpt><trkpt lat="35.56478214700153" lon="-5.421742116930598"><ele>14.0</ele><time>2026-04-28T09:09:12Z</time></trkpt><trkpt lat="35.56480484714323" lon="-5.4216369468523595"><ele>14.0</ele><time>2026-04-28T09:09:13Z</time></trkpt><trkpt lat="35.56484233895747" lon="-5.421536697908517"><ele>14.000000000000002</ele><time>2026-04-28T09:09:14Z</time></trkpt><trkpt lat="35.56488081655197" lon="-5.421431398169338"><ele>14.0</ele><time>2026-04-28T09:09:15Z</time></trkpt><trkpt lat="35.56491353614916" lon="-5.42130800015816"><ele>13.5</ele><time>2026-04-28T09:09:16Z</time></trkpt><trkpt lat="35.56493738314056" lon="-5.421164908748738"><ele>13.0</ele><time>2026-04-28T09:09:17Z</time></trkpt><trkpt lat="35.564957494185116" lon="-5.4210077214033685"><ele>12.5</ele><time>2026-04-28T09:09:18Z</time></trkpt><trkpt lat="35.56496741032362" lon="-5.4208477991771975"><ele>12.0</ele><time>2026-04-28T09:09:19Z</time></trkpt><trkpt lat="35.56497608376059" lon="-5.420679142962501"><ele>12.0</ele><time>2026-04-28T09:09:20Z</time></trkpt><trkpt lat="35.56498718588861" lon="-5.420511825567798"><ele>12.0</ele><time>2026-04-28T09:09:21Z</time></trkpt><trkpt lat="35.564999690316945" lon="-5.420359516319513"><ele>12.0</ele><time>2026-04-28T09:09:22Z</time></trkpt><trkpt lat="35.565006633617756" lon="-5.420223650054213"><ele>12.0</ele><time>2026-04-28T09:09:23Z</time></trkpt><trkpt lat="35.5650107798341" lon="-5.42010091841275"><ele>12.2</ele><time>2026-04-28T09:09:24Z</time></trkpt><trkpt lat="35.565017499869484" lon="-5.419976705536814"><ele>12.399999999999999</ele><time>2026-04-28T09:09:25Z</time></trkpt><trkpt lat="35.565022110685774" lon="-5.419847938383551"><ele>12.600000000000001</ele><time>2026-04-28T09:09:26Z</time></trkpt><trkpt lat="35.565023266150284" lon="-5.419711168800616"><ele>12.8</ele><time>2026-04-28T09:09:27Z</time></trkpt><trkpt lat="35.565024221729516" lon="-5.419561822346288"><ele>13.0</ele><time>2026-04-28T09:09:28Z</time></trkpt><trkpt lat="35.56502484735019" lon="-5.419404076385829"><ele>13.0</ele><time>2026-04-28T09:09:29Z</time></trkpt><trkpt lat="35.56502450969744" lon="-5.419228988785474"><ele>13.0</ele><time>2026-04-28T09:09:30Z</time></trkpt><trkpt lat="35.565032639204524" lon="-5.419039247441141"><ele>13.0</ele><time>2026-04-28T09:09:31Z</time></trkpt><trkpt lat="35.56504398948303" lon="-5.418848058497522"><ele>12.333333333333332</ele><time>2026-04-28T09:09:32Z</time></trkpt><trkpt lat="35.565054176604555" lon="-5.418657341215165"><ele>11.666666666666666</ele><time>2026-04-28T09:09:33Z</time></trkpt><trkpt lat="35.56506635183874" lon="-5.418458158123342"><ele>11.0</ele><time>2026-04-28T09:09:34Z</time></trkpt><trkpt lat="35.56507899021588" lon="-5.418252406769134"><ele>11.0</ele><time>2026-04-28T09:09:35Z</time></trkpt><trkpt lat="35.565088271850115" lon="-5.418043839550474"><ele>11.0</ele><time>2026-04-28T09:09:36Z</time></trkpt><trkpt lat="35.56509515571023" lon="-5.417834343974387"><ele>11.0</ele><time>2026-04-28T09:09:37Z</time></trkpt><trkpt lat="35.56509860970626" lon="-5.417628321536775"><ele>11.0</ele><time>2026-04-28T09:09:38Z</time></trkpt><trkpt lat="35.565102622632125" lon="-5.417432755095034"><ele>11.0</ele><time>2026-04-28T09:09:39Z</time></trkpt><trkpt lat="35.56511112997893" lon="-5.417243197820007"><ele>11.0</ele><time>2026-04-28T09:09:40Z</time></trkpt><trkpt lat="35.56511858486223" lon="-5.417050284324204"><ele>11.333333333333332</ele><time>2026-04-28T09:09:41Z</time></trkpt><trkpt lat="35.56512315800369" lon="-5.41685504939595"><ele>11.666666666666666</ele><time>2026-04-28T09:09:42Z</time></trkpt><trkpt lat="35.56512919272952" lon="-5.416657301126747"><ele>12.0</ele><time>2026-04-28T09:09:43Z</time></trkpt><trkpt lat="35.56513129648797" lon="-5.416450032834369"><ele>12.666666666666668</ele><time>2026-04-28T09:09:44Z</time></trkpt><trkpt lat="35.56513367564498" lon="-5.416237257159304"><ele>13.333333333333334</ele><time>2026-04-28T09:09:45Z</time></trkpt><trkpt lat="35.56513518276715" lon="-5.416024352760121"><ele>14.0</ele><time>2026-04-28T09:09:46Z</time></trkpt><trkpt lat="35.56513236577898" lon="-5.415821272064619"><ele>14.0</ele><time>2026-04-28T09:09:47Z</time></trkpt><trkpt lat="35.56512871602883" lon="-5.41563007181834"><ele>14.0</ele><time>2026-04-28T09:09:48Z</time></trkpt><trkpt lat="35.565128052659134" lon="-5.415448285260419"><ele>14.0</ele><time>2026-04-28T09:09:49Z</time></trkpt><trkpt lat="35.565129790203386" lon="-5.415273659927281"><ele>14.0</ele><time>2026-04-28T09:09:50Z</time></trkpt><trkpt lat="35.56512873124667" lon="-5.415107309038689"><ele>13.75</ele><time>2026-04-28T09:09:51Z</time></trkpt><trkpt lat="35.56511734123806" lon="-5.414948505184284"><ele>13.5</ele><time>2026-04-28T09:09:52Z</time></trkpt><trkpt lat="35.565105847063286" lon="-5.414776194892944"><ele>13.25</ele><time>2026-04-28T09:09:53Z</time></trkpt><trkpt lat="35.56509966548227" lon="-5.414599042968745"><ele>13.0</ele><time>2026-04-28T09:09:54Z</time></trkpt><trkpt lat="35.56509135421847" lon="-5.414419025540549"><ele>12.75</ele><time>2026-04-28T09:09:55Z</time></trkpt><trkpt lat="35.565086349289366" lon="-5.414233150657483"><ele>12.5</ele><time>2026-04-28T09:09:56Z</time></trkpt><trkpt lat="35.56509094316807" lon="-5.414051829734668"><ele>12.25</ele><time>2026-04-28T09:09:57Z</time></trkpt><trkpt lat="35.56510128632723" lon="-5.4138861971470265"><ele>12.0</ele><time>2026-04-28T09:09:58Z</time></trkpt><trkpt lat="35.56510671347947" lon="-5.413723318560915"><ele>12.399999999999999</ele><time>2026-04-28T09:09:59Z</time></trkpt><trkpt lat="35.56512877906604" lon="-5.413575332819582"><ele>12.799999999999999</ele><time>2026-04-28T09:10:00Z</time></trkpt><trkpt lat="35.56514585240814" lon="-5.413436203784555"><ele>13.2</ele><time>2026-04-28T09:10:01Z</time></trkpt><trkpt lat="35.56515906341046" lon="-5.41330665907041"><ele>13.6</ele><time>2026-04-28T09:10:02Z</time></trkpt><trkpt lat="35.56517653115251" lon="-5.413189063323773"><ele>14.0</ele><time>2026-04-28T09:10:03Z</time></trkpt><trkpt lat="35.56518730490005" lon="-5.413088144252366"><ele>14.0</ele><time>2026-04-28T09:10:04Z</time></trkpt><trkpt lat="35.56519651246153" lon="-5.412996846977878"><ele>13.999999999999998</ele><time>2026-04-28T09:10:05Z</time></trkpt><trkpt lat="35.56520938104488" lon="-5.4128559136687375"><ele>13.999999999999998</ele><time>2026-04-28T09:10:07Z</time></trkpt><trkpt lat="35.56519809272961" lon="-5.412764971635537"><ele>14.0</ele><time>2026-04-28T09:10:09Z</time></trkpt><trkpt lat="35.565129524977564" lon="-5.412636267377457"><ele>14.0</ele><time>2026-04-28T09:10:11Z</time></trkpt><trkpt lat="35.56509643320198" lon="-5.412563224183554"><ele>13.799999999999999</ele><time>2026-04-28T09:10:12Z</time></trkpt><trkpt lat="35.564956208819765" lon="-5.412574415316986"><ele>13.599999999999998</ele><time>2026-04-28T09:10:13Z</time></trkpt><trkpt lat="35.564875854590234" lon="-5.412549006046872"><ele>13.4</ele><time>2026-04-28T09:10:14Z</time></trkpt><trkpt lat="35.564790866607304" lon="-5.4125374218152915"><ele>13.2</ele><time>2026-04-28T09:10:15Z</time></trkpt><trkpt lat="35.564702637503515" lon="-5.412533438599383"><ele>13.0</ele><time>2026-04-28T09:10:16Z</time></trkpt><trkpt lat="35.56460847269386" lon="-5.41252631759634"><ele>12.8</ele><time>2026-04-28T09:10:17Z</time></trkpt><trkpt lat="35.564516146029774" lon="-5.412509765792808"><ele>12.600000000000001</ele><time>2026-04-28T09:10:18Z</time></trkpt><trkpt lat="35.564414436469185" lon="-5.412488624363831"><ele>12.399999999999999</ele><time>2026-04-28T09:10:19Z</time></trkpt><trkpt lat="35.564296630148505" lon="-5.412465827214309"><ele>12.2</ele><time>2026-04-28T09:10:20Z</time></trkpt><trkpt lat="35.56417123631449" lon="-5.4124445576402405"><ele>12.0</ele><time>2026-04-28T09:10:21Z</time></trkpt><trkpt lat="35.5640376188174" lon="-5.412429226481474"><ele>12.0</ele><time>2026-04-28T09:10:22Z</time></trkpt><trkpt lat="35.56389880314813" lon="-5.412414219650751"><ele>12.0</ele><time>2026-04-28T09:10:22.999Z</time></trkpt><trkpt lat="35.56375767153069" lon="-5.412402884699096"><ele>12.0</ele><time>2026-04-28T09:10:23.999Z</time></trkpt><trkpt lat="35.56362276039971" lon="-5.4123982407839035"><ele>12.0</ele><time>2026-04-28T09:10:24.999Z</time></trkpt><trkpt lat="35.56349024634215" lon="-5.412390770169312"><ele>13.25</ele><time>2026-04-28T09:10:25.999Z</time></trkpt><trkpt lat="35.563359729515255" lon="-5.41238023512881"><ele>14.5</ele><time>2026-04-28T09:10:26.999Z</time></trkpt><trkpt lat="35.563232159854614" lon="-5.412367667922504"><ele>15.75</ele><time>2026-04-28T09:10:27.999Z</time></trkpt><trkpt lat="35.56310885315942" lon="-5.412357677817701"><ele>17.0</ele><time>2026-04-28T09:10:28.999Z</time></trkpt><trkpt lat="35.56299415862138" lon="-5.412348130671917"><ele>17.0</ele><time>2026-04-28T09:10:29.999Z</time></trkpt><trkpt lat="35.56288497169833" lon="-5.412334109081515"><ele>17.0</ele><time>2026-04-28T09:10:30.999Z</time></trkpt><trkpt lat="35.56276780695218" lon="-5.412323936541286"><ele>17.0</ele><time>2026-04-28T09:10:31.999Z</time></trkpt><trkpt lat="35.5626494155568" lon="-5.412321936798681"><ele>17.0</ele><time>2026-04-28T09:10:32.999Z</time></trkpt><trkpt lat="35.56253140254658" lon="-5.412322917994378"><ele>16.75</ele><time>2026-04-28T09:10:33.999Z</time></trkpt><trkpt lat="35.562416321948" lon="-5.412313491698108"><ele>16.5</ele><time>2026-04-28T09:10:34.999Z</time></trkpt><trkpt lat="35.56229748338048" lon="-5.412300985148187"><ele>16.25</ele><time>2026-04-28T09:10:35.999Z</time></trkpt><trkpt lat="35.562179847465494" lon="-5.412290654836545"><ele>16.0</ele><time>2026-04-28T09:10:37Z</time></trkpt><trkpt lat="35.56205957210404" lon="-5.412285265111322"><ele>15.25</ele><time>2026-04-28T09:10:38Z</time></trkpt><trkpt lat="35.561935535439616" lon="-5.412290084178115"><ele>14.5</ele><time>2026-04-28T09:10:39Z</time></trkpt><trkpt lat="35.56180847736752" lon="-5.41229678036567"><ele>13.75</ele><time>2026-04-28T09:10:40Z</time></trkpt><trkpt lat="35.561683738872546" lon="-5.412301562598401"><ele>13.0</ele><time>2026-04-28T09:10:41Z</time></trkpt><trkpt lat="35.56155160616704" lon="-5.412309736507866"><ele>13.0</ele><time>2026-04-28T09:10:42Z</time></trkpt><trkpt lat="35.561416870516034" lon="-5.412320113984182"><ele>13.0</ele><time>2026-04-28T09:10:43Z</time></trkpt><trkpt lat="35.561278251366815" lon="-5.412329598271888"><ele>13.0</ele><time>2026-04-28T09:10:44Z</time></trkpt><trkpt lat="35.561139100670026" lon="-5.412339643007035"><ele>13.0</ele><time>2026-04-28T09:10:45Z</time></trkpt><trkpt lat="35.56099748351913" lon="-5.412354008478929"><ele>12.5</ele><time>2026-04-28T09:10:46Z</time></trkpt><trkpt lat="35.56086333295705" lon="-5.41236783211739"><ele>12.0</ele><time>2026-04-28T09:10:47Z</time></trkpt><trkpt lat="35.56073646504391" lon="-5.412379523346421"><ele>11.5</ele><time>2026-04-28T09:10:48Z</time></trkpt><trkpt lat="35.56061483238846" lon="-5.412389623104699"><ele>11.0</ele><time>2026-04-28T09:10:49Z</time></trkpt><trkpt lat="35.56049154141355" lon="-5.4123995679595245"><ele>10.5</ele><time>2026-04-28T09:10:50Z</time></trkpt><trkpt lat="35.560365487126965" lon="-5.412410250891122"><ele>10.0</ele><time>2026-04-28T09:10:51Z</time></trkpt><trkpt lat="35.56023622900388" lon="-5.412419000963177"><ele>9.5</ele><time>2026-04-28T09:10:52Z</time></trkpt><trkpt lat="35.56010720295301" lon="-5.412426783161015"><ele>9.0</ele><time>2026-04-28T09:10:53Z</time></trkpt><trkpt lat="35.55997727518926" lon="-5.412437860122894"><ele>9.0</ele><time>2026-04-28T09:10:54Z</time></trkpt><trkpt lat="35.55984681565697" lon="-5.41244999875345"><ele>9.0</ele><time>2026-04-28T09:10:55Z</time></trkpt><trkpt lat="35.55971653117051" lon="-5.412456801310887"><ele>9.0</ele><time>2026-04-28T09:10:56Z</time></trkpt><trkpt lat="35.5595885591933" lon="-5.412461980433602"><ele>9.0</ele><time>2026-04-28T09:10:57Z</time></trkpt><trkpt lat="35.559461825474806" lon="-5.412468156074036"><ele>10.25</ele><time>2026-04-28T09:10:58Z</time></trkpt><trkpt lat="35.55933845278889" lon="-5.412474976737402"><ele>11.5</ele><time>2026-04-28T09:10:59Z</time></trkpt><trkpt lat="35.55921577569204" lon="-5.412484351591853"><ele>12.75</ele><time>2026-04-28T09:11:00Z</time></trkpt><trkpt lat="35.55909406057197" lon="-5.412499763529097"><ele>14.0</ele><time>2026-04-28T09:11:01Z</time></trkpt><trkpt lat="35.558969399413236" lon="-5.412518090087185"><ele>14.0</ele><time>2026-04-28T09:11:02Z</time></trkpt><trkpt lat="35.55884231855603" lon="-5.4125351494956675"><ele>14.0</ele><time>2026-04-28T09:11:03Z</time></trkpt><trkpt lat="35.55872131628146" lon="-5.412551669015398"><ele>14.0</ele><time>2026-04-28T09:11:04Z</time></trkpt><trkpt lat="35.558605908639606" lon="-5.412570495121785"><ele>14.0</ele><time>2026-04-28T09:11:05Z</time></trkpt><trkpt lat="35.55849905957097" lon="-5.4125909159541346"><ele>14.500000000000002</ele><time>2026-04-28T09:11:06Z</time></trkpt><trkpt lat="35.558396867023156" lon="-5.412611697871831"><ele>15.0</ele><time>2026-04-28T09:11:07Z</time></trkpt><trkpt lat="35.55830189460027" lon="-5.412633699895482"><ele>15.5</ele><time>2026-04-28T09:11:08Z</time></trkpt><trkpt lat="35.558214944998596" lon="-5.412650257818696"><ele>16.0</ele><time>2026-04-28T09:11:09Z</time></trkpt><trkpt lat="35.55814249384981" lon="-5.412666558674209"><ele>16.5</ele><time>2026-04-28T09:11:10Z</time></trkpt><trkpt lat="35.558073280433874" lon="-5.412683970337321"><ele>17.0</ele><time>2026-04-28T09:11:11Z</time></trkpt><trkpt lat="35.55796141758077" lon="-5.41270739047571"><ele>17.0</ele><time>2026-04-28T09:11:13Z</time></trkpt><trkpt lat="35.55789161334905" lon="-5.412709084920248"><ele>17.0</ele><time>2026-04-28T09:11:15Z</time></trkpt><trkpt lat="35.55781435561532" lon="-5.412742244737369"><ele>17.0</ele><time>2026-04-28T09:11:18Z</time></trkpt><trkpt lat="35.55773385140803" lon="-5.412773593925823"><ele>17.0</ele><time>2026-04-28T09:11:22Z</time></trkpt><trkpt lat="35.55764682699113" lon="-5.412782239130306"><ele>17.0</ele><time>2026-04-28T09:11:24Z</time></trkpt><trkpt lat="35.55751932497734" lon="-5.412787969190693"><ele>17.2</ele><time>2026-04-28T09:11:26Z</time></trkpt><trkpt lat="35.55743219410525" lon="-5.412804895883571"><ele>17.4</ele><time>2026-04-28T09:11:27Z</time></trkpt><trkpt lat="35.557337222879255" lon="-5.412832940065507"><ele>17.6</ele><time>2026-04-28T09:11:28Z</time></trkpt><trkpt lat="35.55722324548636" lon="-5.41287090138405"><ele>17.8</ele><time>2026-04-28T09:11:29Z</time></trkpt><trkpt lat="35.557109529727576" lon="-5.412909504767388"><ele>18.0</ele><time>2026-04-28T09:11:30Z</time></trkpt><trkpt lat="35.55698796980275" lon="-5.412945752194346"><ele>18.0</ele><time>2026-04-28T09:11:31Z</time></trkpt><trkpt lat="35.55687233541722" lon="-5.412978065910162"><ele>18.0</ele><time>2026-04-28T09:11:32Z</time></trkpt><trkpt lat="35.5567646066941" lon="-5.413009575117227"><ele>18.0</ele><time>2026-04-28T09:11:33Z</time></trkpt><trkpt lat="35.556661059705995" lon="-5.413041337966436"><ele>18.0</ele><time>2026-04-28T09:11:34Z</time></trkpt><trkpt lat="35.55655899389699" lon="-5.413073846557964"><ele>18.0</ele><time>2026-04-28T09:11:35Z</time></trkpt><trkpt lat="35.556459182298596" lon="-5.413107331815806"><ele>17.6</ele><time>2026-04-28T09:11:36Z</time></trkpt><trkpt lat="35.55636055388582" lon="-5.41314304072992"><ele>17.200000000000003</ele><time>2026-04-28T09:11:37Z</time></trkpt><trkpt lat="35.556266088190014" lon="-5.413181955021344"><ele>16.8</ele><time>2026-04-28T09:11:38Z</time></trkpt><trkpt lat="35.556172102970265" lon="-5.41322297193648"><ele>16.400000000000002</ele><time>2026-04-28T09:11:39Z</time></trkpt><trkpt lat="35.55608110446791" lon="-5.413267569077927"><ele>16.0</ele><time>2026-04-28T09:11:40Z</time></trkpt><trkpt lat="35.555992250621735" lon="-5.413314733792205"><ele>16.0</ele><time>2026-04-28T09:11:41Z</time></trkpt><trkpt lat="35.55590502011316" lon="-5.413367598842526"><ele>16.0</ele><time>2026-04-28T09:11:42Z</time></trkpt><trkpt lat="35.55582074223107" lon="-5.413428355603417"><ele>16.0</ele><time>2026-04-28T09:11:43Z</time></trkpt><trkpt lat="35.555740451310456" lon="-5.413494326400907"><ele>16.0</ele><time>2026-04-28T09:11:44Z</time></trkpt><trkpt lat="35.55566188211901" lon="-5.413559208296988"><ele>16.0</ele><time>2026-04-28T09:11:45Z</time></trkpt><trkpt lat="35.55558580279432" lon="-5.413624317154736"><ele>15.999999999999998</ele><time>2026-04-28T09:11:46Z</time></trkpt><trkpt lat="35.55550968741204" lon="-5.413687618867611"><ele>16.0</ele><time>2026-04-28T09:11:47Z</time></trkpt><trkpt lat="35.555439437325134" lon="-5.413754558631543"><ele>16.0</ele><time>2026-04-28T09:11:48Z</time></trkpt><trkpt lat="35.555378104563914" lon="-5.413828474725809"><ele>16.0</ele><time>2026-04-28T09:11:49Z</time></trkpt><trkpt lat="35.555320342557245" lon="-5.413907667501248"><ele>15.999999999999998</ele><time>2026-04-28T09:11:50Z</time></trkpt><trkpt lat="35.55526451654224" lon="-5.413992556238153"><ele>16.0</ele><time>2026-04-28T09:11:51Z</time></trkpt><trkpt lat="35.55521110049385" lon="-5.414082383487417"><ele>17.8</ele><time>2026-04-28T09:11:52Z</time></trkpt><trkpt lat="35.55515495483639" lon="-5.414170660881224"><ele>19.6</ele><time>2026-04-28T09:11:53Z</time></trkpt><trkpt lat="35.55510186290142" lon="-5.414262751226185"><ele>21.4</ele><time>2026-04-28T09:11:54Z</time></trkpt><trkpt lat="35.555047550564936" lon="-5.414356583471511"><ele>23.2</ele><time>2026-04-28T09:11:55Z</time></trkpt><trkpt lat="35.554994418919065" lon="-5.414453495412441"><ele>25.0</ele><time>2026-04-28T09:11:56Z</time></trkpt><trkpt lat="35.554941153033134" lon="-5.41455264617018"><ele>25.000000000000004</ele><time>2026-04-28T09:11:57Z</time></trkpt><trkpt lat="35.554888519879114" lon="-5.414653335612932"><ele>25.0</ele><time>2026-04-28T09:11:58Z</time></trkpt><trkpt lat="35.554841567246" lon="-5.414745268519662"><ele>25.0</ele><time>2026-04-28T09:11:59Z</time></trkpt><trkpt lat="35.554799912756906" lon="-5.41483131260093"><ele>25.0</ele><time>2026-04-28T09:12:00Z</time></trkpt><trkpt lat="35.5547620421325" lon="-5.41491149188995"><ele>25.000000000000004</ele><time>2026-04-28T09:12:01Z</time></trkpt><trkpt lat="35.554720410974966" lon="-5.4149882995231176"><ele>25.0</ele><time>2026-04-28T09:12:02Z</time></trkpt><trkpt lat="35.554662533131754" lon="-5.41509156432578"><ele>25.2</ele><time>2026-04-28T09:12:04Z</time></trkpt><trkpt lat="35.554618646750285" lon="-5.415176636405903"><ele>25.4</ele><time>2026-04-28T09:12:06Z</time></trkpt><trkpt lat="35.55456539296656" lon="-5.4152849529620175"><ele>25.6</ele><time>2026-04-28T09:12:08Z</time></trkpt><trkpt lat="35.55450143811873" lon="-5.415428048782468"><ele>25.8</ele><time>2026-04-28T09:12:10Z</time></trkpt><trkpt lat="35.55446118838594" lon="-5.415509700477627"><ele>26.0</ele><time>2026-04-28T09:12:11Z</time></trkpt><trkpt lat="35.55441993936444" lon="-5.415604854053709"><ele>25.999999999999996</ele><time>2026-04-28T09:12:12Z</time></trkpt><trkpt lat="35.554379310519664" lon="-5.415695462041421"><ele>26.0</ele><time>2026-04-28T09:12:13Z</time></trkpt><trkpt lat="35.554340980758425" lon="-5.41578618435628"><ele>26.0</ele><time>2026-04-28T09:12:14Z</time></trkpt><trkpt lat="35.554301485337426" lon="-5.415873828305844"><ele>26.0</ele><time>2026-04-28T09:12:15Z</time></trkpt><trkpt lat="35.554261711954" lon="-5.415960214954592"><ele>25.999999999999996</ele><time>2026-04-28T09:12:16Z</time></trkpt><trkpt lat="35.55422458529796" lon="-5.4160388656158"><ele>26.0</ele><time>2026-04-28T09:12:17Z</time></trkpt><trkpt lat="35.55418700286791" lon="-5.41611866269239"><ele>25.999999999999996</ele><time>2026-04-28T09:12:18Z</time></trkpt><trkpt lat="35.5541448875506" lon="-5.416203501202921"><ele>26.0</ele><time>2026-04-28T09:12:19Z</time></trkpt><trkpt lat="35.55410334768715" lon="-5.416286829572128"><ele>26.0</ele><time>2026-04-28T09:12:20Z</time></trkpt><trkpt lat="35.55406427119756" lon="-5.416367431228303"><ele>26.0</ele><time>2026-04-28T09:12:21Z</time></trkpt><trkpt lat="35.55402475712689" lon="-5.416448800280143"><ele>25.999999999999996</ele><time>2026-04-28T09:12:22Z</time></trkpt><trkpt lat="35.55398721505037" lon="-5.416530315783176"><ele>26.0</ele><time>2026-04-28T09:12:23Z</time></trkpt><trkpt lat="35.553947909436445" lon="-5.4166136274194505"><ele>25.999999999999996</ele><time>2026-04-28T09:12:24Z</time></trkpt><trkpt lat="35.55391027154087" lon="-5.416698581956251"><ele>26.0</ele><time>2026-04-28T09:12:25Z</time></trkpt><trkpt lat="35.55386978009483" lon="-5.416781942506518"><ele>26.0</ele><time>2026-04-28T09:12:26Z</time></trkpt><trkpt lat="35.55382804388213" lon="-5.4168705476870915"><ele>26.0</ele><time>2026-04-28T09:12:27Z</time></trkpt><trkpt lat="35.553787793729086" lon="-5.416957583836777"><ele>25.999999999999996</ele><time>2026-04-28T09:12:28Z</time></trkpt><trkpt lat="35.55374882978199" lon="-5.417043112259865"><ele>26.0</ele><time>2026-04-28T09:12:29Z</time></trkpt><trkpt lat="35.55370627856407" lon="-5.417131793152085"><ele>26.200000000000003</ele><time>2026-04-28T09:12:30Z</time></trkpt><trkpt lat="35.55366265563868" lon="-5.4172201815930725"><ele>26.400000000000002</ele><time>2026-04-28T09:12:31Z</time></trkpt><trkpt lat="35.55361438583341" lon="-5.417320042842655"><ele>26.6</ele><time>2026-04-28T09:12:32Z</time></trkpt><trkpt lat="35.55356320178873" lon="-5.417421330023871"><ele>26.8</ele><time>2026-04-28T09:12:33Z</time></trkpt><trkpt lat="35.55350825824823" lon="-5.417532607939968"><ele>27.0</ele><time>2026-04-28T09:12:34Z</time></trkpt><trkpt lat="35.55344724703164" lon="-5.417658315475033"><ele>27.0</ele><time>2026-04-28T09:12:35Z</time></trkpt><trkpt lat="35.553389484302606" lon="-5.41778055061271"><ele>27.0</ele><time>2026-04-28T09:12:36Z</time></trkpt><trkpt lat="35.55332275970102" lon="-5.417901898317634"><ele>27.0</ele><time>2026-04-28T09:12:37Z</time></trkpt><trkpt lat="35.55325570572643" lon="-5.418026425313261"><ele>27.0</ele><time>2026-04-28T09:12:38Z</time></trkpt><trkpt lat="35.553183234098896" lon="-5.418149864716736"><ele>27.25</ele><time>2026-04-28T09:12:39Z</time></trkpt><trkpt lat="35.55310089480988" lon="-5.418280664819954"><ele>27.5</ele><time>2026-04-28T09:12:39.999Z</time></trkpt><trkpt lat="35.55301190859591" lon="-5.418411605667209"><ele>27.75</ele><time>2026-04-28T09:12:40.999Z</time></trkpt><trkpt lat="35.55292060710149" lon="-5.418532368234489"><ele>28.0</ele><time>2026-04-28T09:12:41.999Z</time></trkpt><trkpt lat="35.552835365295145" lon="-5.418642823340975"><ele>28.2</ele><time>2026-04-28T09:12:43Z</time></trkpt><trkpt lat="35.55275088973028" lon="-5.4187490253286414"><ele>28.4</ele><time>2026-04-28T09:12:44Z</time></trkpt><trkpt lat="35.55267063698802" lon="-5.418845363389465"><ele>28.599999999999998</ele><time>2026-04-28T09:12:45Z</time></trkpt><trkpt lat="35.552594704918526" lon="-5.418934333377231"><ele>28.799999999999997</ele><time>2026-04-28T09:12:46Z</time></trkpt><trkpt lat="35.55252254928291" lon="-5.419014864937768"><ele>29.0</ele><time>2026-04-28T09:12:47Z</time></trkpt><trkpt lat="35.55245133134115" lon="-5.419088413534924"><ele>28.999999999999996</ele><time>2026-04-28T09:12:48Z</time></trkpt><trkpt lat="35.55238172601812" lon="-5.419155915408922"><ele>29.0</ele><time>2026-04-28T09:12:49Z</time></trkpt><trkpt lat="35.55231006326633" lon="-5.41922238823263"><ele>29.0</ele><time>2026-04-28T09:12:50Z</time></trkpt><trkpt lat="35.55223887042088" lon="-5.4192918946438535"><ele>29.0</ele><time>2026-04-28T09:12:51Z</time></trkpt><trkpt lat="35.55216931440358" lon="-5.419358470307118"><ele>28.999999999999996</ele><time>2026-04-28T09:12:52Z</time></trkpt><trkpt lat="35.552103144640355" lon="-5.419420170206825"><ele>29.0</ele><time>2026-04-28T09:12:53Z</time></trkpt><trkpt lat="35.552040686324624" lon="-5.419477231276481"><ele>29.499999999999996</ele><time>2026-04-28T09:12:54Z</time></trkpt><trkpt lat="35.55198174584345" lon="-5.419531791253928"><ele>30.0</ele><time>2026-04-28T09:12:55Z</time></trkpt><trkpt lat="35.55192821435804" lon="-5.419581700895147"><ele>30.5</ele><time>2026-04-28T09:12:56Z</time></trkpt><trkpt lat="35.551833874962995" lon="-5.419670817780219"><ele>31.0</ele><time>2026-04-28T09:12:58Z</time></trkpt><trkpt lat="35.55176268853536" lon="-5.419745447330575"><ele>31.499999999999996</ele><time>2026-04-28T09:13:00Z</time></trkpt><trkpt lat="35.55169968196888" lon="-5.419801775714688"><ele>32.0</ele><time>2026-04-28T09:13:04Z</time></trkpt><trkpt lat="35.55163167189322" lon="-5.419853870186823"><ele>30.999999999999996</ele><time>2026-04-28T09:13:13Z</time></trkpt><trkpt lat="35.55157888352261" lon="-5.419907984364675"><ele>30.0</ele><time>2026-04-28T09:13:21Z</time></trkpt><trkpt lat="35.551526074119145" lon="-5.419956530448688"><ele>29.0</ele><time>2026-04-28T09:13:24Z</time></trkpt><trkpt lat="35.551475189383666" lon="-5.420005145203002"><ele>28.0</ele><time>2026-04-28T09:13:28Z</time></trkpt><trkpt lat="35.55141150468248" lon="-5.420074321154535"><ele>26.999999999999996</ele><time>2026-04-28T09:13:30Z</time></trkpt><trkpt lat="35.55131473684859" lon="-5.420170483902466"><ele>26.0</ele><time>2026-04-28T09:13:32Z</time></trkpt><trkpt lat="35.55125457095775" lon="-5.420227354594381"><ele>26.200000000000003</ele><time>2026-04-28T09:13:33Z</time></trkpt><trkpt lat="35.5511771009318" lon="-5.420297944396404"><ele>26.400000000000002</ele><time>2026-04-28T09:13:34Z</time></trkpt><trkpt lat="35.551099492129545" lon="-5.420368876416822"><ele>26.6</ele><time>2026-04-28T09:13:35Z</time></trkpt><trkpt lat="35.55100530619005" lon="-5.420450784516641"><ele>26.8</ele><time>2026-04-28T09:13:36Z</time></trkpt><trkpt lat="35.55091237156651" lon="-5.420528371899251"><ele>27.0</ele><time>2026-04-28T09:13:37Z</time></trkpt><trkpt lat="35.55082041544204" lon="-5.420643245292305"><ele>26.5</ele><time>2026-04-28T09:13:38Z</time></trkpt><trkpt lat="35.55071411928036" lon="-5.420747213694355"><ele>26.0</ele><time>2026-04-28T09:13:39Z</time></trkpt><trkpt lat="35.55060457032955" lon="-5.420863474304458"><ele>25.5</ele><time>2026-04-28T09:13:40Z</time></trkpt><trkpt lat="35.55049245965332" lon="-5.420990613148992"><ele>25.0</ele><time>2026-04-28T09:13:41Z</time></trkpt><trkpt lat="35.550384063952364" lon="-5.421118870022209"><ele>27.0</ele><time>2026-04-28T09:13:42Z</time></trkpt><trkpt lat="35.55025849726651" lon="-5.421206556622097"><ele>29.0</ele><time>2026-04-28T09:13:43Z</time></trkpt><trkpt lat="35.55014078105716" lon="-5.421328194076913"><ele>31.0</ele><time>2026-04-28T09:13:44Z</time></trkpt><trkpt lat="35.550016707001866" lon="-5.4214472717889635"><ele>31.0</ele><time>2026-04-28T09:13:45Z</time></trkpt><trkpt lat="35.549888799970695" lon="-5.421570345839624"><ele>31.0</ele><time>2026-04-28T09:13:46Z</time></trkpt><trkpt lat="35.54976344811452" lon="-5.421686487594829"><ele>31.0</ele><time>2026-04-28T09:13:47Z</time></trkpt><trkpt lat="35.54963416354264" lon="-5.421805682318619"><ele>30.0</ele><time>2026-04-28T09:13:48Z</time></trkpt><trkpt lat="35.54950555044411" lon="-5.421929093995682"><ele>29.0</ele><time>2026-04-28T09:13:49Z</time></trkpt><trkpt lat="35.549379176005544" lon="-5.422059411515295"><ele>28.0</ele><time>2026-04-28T09:13:50Z</time></trkpt><trkpt lat="35.54925695252937" lon="-5.422198802617125"><ele>28.0</ele><time>2026-04-28T09:13:51Z</time></trkpt><trkpt lat="35.54914571960469" lon="-5.422351938637167"><ele>28.0</ele><time>2026-04-28T09:13:52Z</time></trkpt><trkpt lat="35.54901105032216" lon="-5.422463951647812"><ele>28.0</ele><time>2026-04-28T09:13:53Z</time></trkpt><trkpt lat="35.548904997890475" lon="-5.422540335795669"><ele>28.0</ele><time>2026-04-28T09:13:54Z</time></trkpt><trkpt lat="35.54879735517469" lon="-5.4226467488832"><ele>28.0</ele><time>2026-04-28T09:13:55Z</time></trkpt><trkpt lat="35.54869673742889" lon="-5.422745900115364"><ele>28.0</ele><time>2026-04-28T09:13:56Z</time></trkpt><trkpt lat="35.54860499215134" lon="-5.42285312945894"><ele>28.0</ele><time>2026-04-28T09:13:57Z</time></trkpt><trkpt lat="35.54852427225872" lon="-5.4229683785183935"><ele>28.75</ele><time>2026-04-28T09:13:58Z</time></trkpt><trkpt lat="35.548436790959364" lon="-5.423084501336404"><ele>29.5</ele><time>2026-04-28T09:13:59Z</time></trkpt><trkpt lat="35.54831549795315" lon="-5.4231531773566"><ele>30.25</ele><time>2026-04-28T09:14:00Z</time></trkpt><trkpt lat="35.54821387498595" lon="-5.423263490082919"><ele>31.0</ele><time>2026-04-28T09:14:01Z</time></trkpt><trkpt lat="35.54807553143666" lon="-5.42333410651923"><ele>31.0</ele><time>2026-04-28T09:14:02Z</time></trkpt><trkpt lat="35.547948378484826" lon="-5.423450264913786"><ele>31.0</ele><time>2026-04-28T09:14:03Z</time></trkpt><trkpt lat="35.547817786671054" lon="-5.42357425901603"><ele>31.0</ele><time>2026-04-28T09:14:04Z</time></trkpt><trkpt lat="35.547689966374044" lon="-5.423696829506353"><ele>31.666666666666668</ele><time>2026-04-28T09:14:05Z</time></trkpt><trkpt lat="35.547557866031624" lon="-5.423822841989655"><ele>32.333333333333336</ele><time>2026-04-28T09:14:06Z</time></trkpt><trkpt lat="35.54742391394397" lon="-5.423952223749375"><ele>33.0</ele><time>2026-04-28T09:14:07Z</time></trkpt><trkpt lat="35.54729203778637" lon="-5.424078278526717"><ele>33.0</ele><time>2026-04-28T09:14:08Z</time></trkpt><trkpt lat="35.54715351790893" lon="-5.424195728403333"><ele>33.0</ele><time>2026-04-28T09:14:09Z</time></trkpt><trkpt lat="35.54700481850924" lon="-5.424299350721776"><ele>33.0</ele><time>2026-04-28T09:14:10Z</time></trkpt><trkpt lat="35.54685652073018" lon="-5.424392455653453"><ele>36.0</ele><time>2026-04-28T09:14:11Z</time></trkpt><trkpt lat="35.54670277778638" lon="-5.424477962394108"><ele>39.0</ele><time>2026-04-28T09:14:12Z</time></trkpt><trkpt lat="35.54654494955887" lon="-5.424558953848195"><ele>42.0</ele><time>2026-04-28T09:14:13Z</time></trkpt><trkpt lat="35.54638180719932" lon="-5.424633011420838"><ele>40.0</ele><time>2026-04-28T09:14:14Z</time></trkpt><trkpt lat="35.54621499618832" lon="-5.4246931316805584"><ele>38.0</ele><time>2026-04-28T09:14:15Z</time></trkpt><trkpt lat="35.5460401039277" lon="-5.4247491289932706"><ele>36.0</ele><time>2026-04-28T09:14:16Z</time></trkpt><trkpt lat="35.54586214148114" lon="-5.4247982117153"><ele>36.0</ele><time>2026-04-28T09:14:17Z</time></trkpt><trkpt lat="35.54567932089918" lon="-5.424833480168488"><ele>36.0</ele><time>2026-04-28T09:14:18Z</time></trkpt><trkpt lat="35.545492527863296" lon="-5.424856347093545"><ele>36.0</ele><time>2026-04-28T09:14:19Z</time></trkpt><trkpt lat="35.54530421560078" lon="-5.424873878589048"><ele>37.0</ele><time>2026-04-28T09:14:20Z</time></trkpt><trkpt lat="35.54511368797906" lon="-5.424882196081895"><ele>38.0</ele><time>2026-04-28T09:14:21Z</time></trkpt><trkpt lat="35.54492240613993" lon="-5.424868201315402"><ele>39.0</ele><time>2026-04-28T09:14:22Z</time></trkpt><trkpt lat="35.5447303909394" lon="-5.424841862198118"><ele>38.333333333333336</ele><time>2026-04-28T09:14:23Z</time></trkpt><trkpt lat="35.54453878470397" lon="-5.424805248037782"><ele>37.66666666666667</ele><time>2026-04-28T09:14:24Z</time></trkpt><trkpt lat="35.544346067680756" lon="-5.424768115506633"><ele>37.0</ele><time>2026-04-28T09:14:25Z</time></trkpt><trkpt lat="35.54415260864076" lon="-5.42472431012354"><ele>37.0</ele><time>2026-04-28T09:14:26Z</time></trkpt><trkpt lat="35.543958492966404" lon="-5.42467252125092"><ele>37.0</ele><time>2026-04-28T09:14:27Z</time></trkpt><trkpt lat="35.54376166962194" lon="-5.424622241156049"><ele>37.0</ele><time>2026-04-28T09:14:28Z</time></trkpt><trkpt lat="35.543565189995654" lon="-5.424572453184922"><ele>39.66666666666667</ele><time>2026-04-28T09:14:29Z</time></trkpt><trkpt lat="35.54336793130475" lon="-5.424522002338518"><ele>42.333333333333336</ele><time>2026-04-28T09:14:30Z</time></trkpt><trkpt lat="35.543172535901725" lon="-5.424474024320124"><ele>45.0</ele><time>2026-04-28T09:14:31Z</time></trkpt><trkpt lat="35.54297589100932" lon="-5.424437287933332"><ele>45.0</ele><time>2026-04-28T09:14:32Z</time></trkpt><trkpt lat="35.5427799483486" lon="-5.424419862931051"><ele>45.0</ele><time>2026-04-28T09:14:33Z</time></trkpt><trkpt lat="35.542587036471254" lon="-5.424420858554846"><ele>45.0</ele><time>2026-04-28T09:14:34Z</time></trkpt><trkpt lat="35.54239579292088" lon="-5.424433236738629"><ele>45.0</ele><time>2026-04-28T09:14:35Z</time></trkpt><trkpt lat="35.54220324248471" lon="-5.4244544234926515"><ele>45.0</ele><time>2026-04-28T09:14:36Z</time></trkpt><trkpt lat="35.542002458167715" lon="-5.424473239029243"><ele>45.0</ele><time>2026-04-28T09:14:37Z</time></trkpt><trkpt lat="35.54179841373676" lon="-5.424479648145682"><ele>46.0</ele><time>2026-04-28T09:14:38Z</time></trkpt><trkpt lat="35.54159665318583" lon="-5.4244659504921655"><ele>47.0</ele><time>2026-04-28T09:14:39Z</time></trkpt><trkpt lat="35.5414027475298" lon="-5.424423657485235"><ele>48.0</ele><time>2026-04-28T09:14:40Z</time></trkpt><trkpt lat="35.541218397428665" lon="-5.42435574800205"><ele>47.0</ele><time>2026-04-28T09:14:41Z</time></trkpt><trkpt lat="35.54104277241198" lon="-5.424263815085285"><ele>46.0</ele><time>2026-04-28T09:14:42Z</time></trkpt><trkpt lat="35.54087366660269" lon="-5.424152421184591"><ele>45.0</ele><time>2026-04-28T09:14:43Z</time></trkpt><trkpt lat="35.540714706847474" lon="-5.424035122472306"><ele>45.0</ele><time>2026-04-28T09:14:43.999Z</time></trkpt><trkpt lat="35.540557866088335" lon="-5.423931011559816"><ele>45.0</ele><time>2026-04-28T09:14:44.999Z</time></trkpt><trkpt lat="35.540399018742676" lon="-5.423847288141625"><ele>45.0</ele><time>2026-04-28T09:14:45.999Z</time></trkpt><trkpt lat="35.540231679847096" lon="-5.423797924438306"><ele>44.666666666666664</ele><time>2026-04-28T09:14:46.999Z</time></trkpt><trkpt lat="35.54005808046241" lon="-5.423786795385936"><ele>44.33333333333333</ele><time>2026-04-28T09:14:47.999Z</time></trkpt><trkpt lat="35.53988244079726" lon="-5.423805355232352"><ele>44.0</ele><time>2026-04-28T09:14:49Z</time></trkpt><trkpt lat="35.539707629201374" lon="-5.4238543924283364"><ele>44.33333333333333</ele><time>2026-04-28T09:14:50Z</time></trkpt><trkpt lat="35.53953626022996" lon="-5.423926028090263"><ele>44.666666666666664</ele><time>2026-04-28T09:14:51Z</time></trkpt><trkpt lat="35.53936000965571" lon="-5.424010370155432"><ele>45.0</ele><time>2026-04-28T09:14:52Z</time></trkpt><trkpt lat="35.539175014671" lon="-5.4240879888853195"><ele>45.0</ele><time>2026-04-28T09:14:53Z</time></trkpt><trkpt lat="35.5389852315915" lon="-5.424160352573732"><ele>45.0</ele><time>2026-04-28T09:14:54Z</time></trkpt><trkpt lat="35.538798857319556" lon="-5.424220719308119"><ele>45.0</ele><time>2026-04-28T09:14:55Z</time></trkpt><trkpt lat="35.538611329464736" lon="-5.424262205519938"><ele>46.0</ele><time>2026-04-28T09:14:56Z</time></trkpt><trkpt lat="35.5384213851901" lon="-5.424267146087831"><ele>47.0</ele><time>2026-04-28T09:14:57Z</time></trkpt><trkpt lat="35.538234439770164" lon="-5.424247136745819"><ele>48.0</ele><time>2026-04-28T09:14:58Z</time></trkpt><trkpt lat="35.53805326768265" lon="-5.424204366540197"><ele>47.333333333333336</ele><time>2026-04-28T09:14:59Z</time></trkpt><trkpt lat="35.53788152406475" lon="-5.424145197641326"><ele>46.66666666666667</ele><time>2026-04-28T09:15:00Z</time></trkpt><trkpt lat="35.5377115806707" lon="-5.4240888425924"><ele>46.0</ele><time>2026-04-28T09:15:01Z</time></trkpt><trkpt lat="35.53754226706157" lon="-5.424040997819143"><ele>46.0</ele><time>2026-04-28T09:15:02Z</time></trkpt><trkpt lat="35.53736595255096" lon="-5.424017341507651"><ele>46.0</ele><time>2026-04-28T09:15:03Z</time></trkpt><trkpt lat="35.53718417151461" lon="-5.424032985489374"><ele>46.0</ele><time>2026-04-28T09:15:04Z</time></trkpt><trkpt lat="35.537003106088214" lon="-5.42409264195849"><ele>47.66666666666667</ele><time>2026-04-28T09:15:05Z</time></trkpt><trkpt lat="35.536830970081176" lon="-5.42418653708123"><ele>49.333333333333336</ele><time>2026-04-28T09:15:06Z</time></trkpt><trkpt lat="35.53666597260945" lon="-5.424302304683868"><ele>51.0</ele><time>2026-04-28T09:15:07Z</time></trkpt><trkpt lat="35.5365143315892" lon="-5.424438808693566"><ele>51.0</ele><time>2026-04-28T09:15:08Z</time></trkpt><trkpt lat="35.53636927623696" lon="-5.42458524391087"><ele>51.0</ele><time>2026-04-28T09:15:09Z</time></trkpt><trkpt lat="35.53622063904808" lon="-5.424716849028124"><ele>51.0</ele><time>2026-04-28T09:15:10Z</time></trkpt><trkpt lat="35.53605811807439" lon="-5.424817145882323"><ele>49.333333333333336</ele><time>2026-04-28T09:15:11Z</time></trkpt><trkpt lat="35.53588236605963" lon="-5.424886507028104"><ele>47.66666666666667</ele><time>2026-04-28T09:15:12Z</time></trkpt><trkpt lat="35.535703757011504" lon="-5.424939591500456"><ele>46.0</ele><time>2026-04-28T09:15:13Z</time></trkpt><trkpt lat="35.53552236284361" lon="-5.424980323033736"><ele>47.333333333333336</ele><time>2026-04-28T09:15:14Z</time></trkpt><trkpt lat="35.53533652363905" lon="-5.42500633285972"><ele>48.66666666666667</ele><time>2026-04-28T09:15:15Z</time></trkpt><trkpt lat="35.53515217851294" lon="-5.4250247660157624"><ele>50.0</ele><time>2026-04-28T09:15:16Z</time></trkpt><trkpt lat="35.53497190459844" lon="-5.42504450970273"><ele>50.0</ele><time>2026-04-28T09:15:17Z</time></trkpt><trkpt lat="35.53479310295316" lon="-5.425078394098796"><ele>50.0</ele><time>2026-04-28T09:15:18Z</time></trkpt><trkpt lat="35.534623296106055" lon="-5.425147700757016"><ele>50.0</ele><time>2026-04-28T09:15:19Z</time></trkpt><trkpt lat="35.534473184328746" lon="-5.425255309901962"><ele>50.0</ele><time>2026-04-28T09:15:20Z</time></trkpt><trkpt lat="35.534341683789435" lon="-5.4253976611953085"><ele>50.0</ele><time>2026-04-28T09:15:21Z</time></trkpt><trkpt lat="35.53423153649588" lon="-5.425565541427097"><ele>50.0</ele><time>2026-04-28T09:15:22Z</time></trkpt><trkpt lat="35.534147850675524" lon="-5.425749217565524"><ele>50.0</ele><time>2026-04-28T09:15:23Z</time></trkpt><trkpt lat="35.53409470876147" lon="-5.425949368669423"><ele>50.0</ele><time>2026-04-28T09:15:24Z</time></trkpt><trkpt lat="35.53404926638093" lon="-5.426155923603827"><ele>50.0</ele><time>2026-04-28T09:15:25Z</time></trkpt><trkpt lat="35.53399468920551" lon="-5.426364025291883"><ele>50.333333333333336</ele><time>2026-04-28T09:15:26Z</time></trkpt><trkpt lat="35.53393491543987" lon="-5.426570889867565"><ele>50.66666666666667</ele><time>2026-04-28T09:15:27Z</time></trkpt><trkpt lat="35.533863969241786" lon="-5.426770703357465"><ele>51.0</ele><time>2026-04-28T09:15:28Z</time></trkpt><trkpt lat="35.533765887574546" lon="-5.426955290340676"><ele>52.0</ele><time>2026-04-28T09:15:29Z</time></trkpt><trkpt lat="35.53365299103803" lon="-5.427130008323279"><ele>53.0</ele><time>2026-04-28T09:15:30Z</time></trkpt><trkpt lat="35.533528191400634" lon="-5.427293912124827"><ele>54.0</ele><time>2026-04-28T09:15:31Z</time></trkpt><trkpt lat="35.53338806051354" lon="-5.427441422145665"><ele>54.0</ele><time>2026-04-28T09:15:32Z</time></trkpt><trkpt lat="35.53324765741636" lon="-5.4275806860213835"><ele>54.0</ele><time>2026-04-28T09:15:33Z</time></trkpt><trkpt lat="35.533104795050306" lon="-5.4277168656622266"><ele>54.0</ele><time>2026-04-28T09:15:34Z</time></trkpt><trkpt lat="35.532961882898846" lon="-5.427854598091596"><ele>54.33333333333333</ele><time>2026-04-28T09:15:35Z</time></trkpt><trkpt lat="35.532822043172615" lon="-5.427995948925047"><ele>54.666666666666664</ele><time>2026-04-28T09:15:36Z</time></trkpt><trkpt lat="35.5326833533227" lon="-5.428138518181869"><ele>55.0</ele><time>2026-04-28T09:15:37Z</time></trkpt><trkpt lat="35.53254580837018" lon="-5.4282812450261835"><ele>55.0</ele><time>2026-04-28T09:15:38Z</time></trkpt><trkpt lat="35.53240315251454" lon="-5.4284289947167235"><ele>55.0</ele><time>2026-04-28T09:15:39Z</time></trkpt><trkpt lat="35.53225386792597" lon="-5.428580007181116"><ele>55.0</ele><time>2026-04-28T09:15:40Z</time></trkpt><trkpt lat="35.53211804511969" lon="-5.4287231761054295"><ele>55.666666666666664</ele><time>2026-04-28T09:15:41Z</time></trkpt><trkpt lat="35.53199399476488" lon="-5.42886205238408"><ele>56.33333333333333</ele><time>2026-04-28T09:15:42Z</time></trkpt><trkpt lat="35.53188335167103" lon="-5.428997675018259"><ele>57.0</ele><time>2026-04-28T09:15:43Z</time></trkpt><trkpt lat="35.53177964975048" lon="-5.429126800709506"><ele>57.0</ele><time>2026-04-28T09:15:44Z</time></trkpt><trkpt lat="35.53168602071633" lon="-5.4292576487249"><ele>57.0</ele><time>2026-04-28T09:15:45Z</time></trkpt><trkpt lat="35.531602773305316" lon="-5.429392571844217"><ele>57.0</ele><time>2026-04-28T09:15:46Z</time></trkpt><trkpt lat="35.53151168958751" lon="-5.42952365513645"><ele>57.0</ele><time>2026-04-28T09:15:47Z</time></trkpt><trkpt lat="35.53139104898975" lon="-5.429626560649482"><ele>57.66666666666667</ele><time>2026-04-28T09:15:48Z</time></trkpt><trkpt lat="35.531250383287365" lon="-5.429719440471256"><ele>58.333333333333336</ele><time>2026-04-28T09:15:49Z</time></trkpt><trkpt lat="35.53111503116117" lon="-5.429839678086405"><ele>59.0</ele><time>2026-04-28T09:15:50Z</time></trkpt><trkpt lat="35.5309869310235" lon="-5.429987036841997"><ele>59.0</ele><time>2026-04-28T09:15:51Z</time></trkpt><trkpt lat="35.53084868397369" lon="-5.430137374313358"><ele>59.0</ele><time>2026-04-28T09:15:52Z</time></trkpt><trkpt lat="35.53070375951268" lon="-5.430289380940061"><ele>59.0</ele><time>2026-04-28T09:15:53Z</time></trkpt><trkpt lat="35.53055674586533" lon="-5.430445629302811"><ele>59.66666666666667</ele><time>2026-04-28T09:15:54Z</time></trkpt><trkpt lat="35.53041347944509" lon="-5.430599301543314"><ele>60.33333333333333</ele><time>2026-04-28T09:15:55Z</time></trkpt><trkpt lat="35.53027161478344" lon="-5.430752225072041"><ele>61.0</ele><time>2026-04-28T09:15:56Z</time></trkpt><trkpt lat="35.530127679116625" lon="-5.430904077601905"><ele>61.0</ele><time>2026-04-28T09:15:57Z</time></trkpt><trkpt lat="35.529984282004136" lon="-5.431055770512291"><ele>61.0</ele><time>2026-04-28T09:15:58Z</time></trkpt><trkpt lat="35.529840818337114" lon="-5.431211984719265"><ele>61.0</ele><time>2026-04-28T09:15:59Z</time></trkpt><trkpt lat="35.52969539463111" lon="-5.431369256663525"><ele>61.33333333333333</ele><time>2026-04-28T09:16:00Z</time></trkpt><trkpt lat="35.52954792511177" lon="-5.431526946549356"><ele>61.66666666666667</ele><time>2026-04-28T09:16:01Z</time></trkpt><trkpt lat="35.529402372479005" lon="-5.431687610701959"><ele>62.0</ele><time>2026-04-28T09:16:02Z</time></trkpt><trkpt lat="35.529253292689766" lon="-5.431848833031205"><ele>62.0</ele><time>2026-04-28T09:16:03Z</time></trkpt><trkpt lat="35.529102796823516" lon="-5.4320117438091255"><ele>62.0</ele><time>2026-04-28T09:16:04Z</time></trkpt><trkpt lat="35.52895135384577" lon="-5.432174935612576"><ele>62.0</ele><time>2026-04-28T09:16:05Z</time></trkpt><trkpt lat="35.52879828549601" lon="-5.4323397546723085"><ele>62.333333333333336</ele><time>2026-04-28T09:16:06Z</time></trkpt><trkpt lat="35.528644863271204" lon="-5.432504678041075"><ele>62.66666666666667</ele><time>2026-04-28T09:16:07Z</time></trkpt><trkpt lat="35.52849104691546" lon="-5.4326744409360135"><ele>63.0</ele><time>2026-04-28T09:16:08Z</time></trkpt><trkpt lat="35.528336275511826" lon="-5.432844145908757"><ele>64.66666666666667</ele><time>2026-04-28T09:16:09Z</time></trkpt><trkpt lat="35.52817868692511" lon="-5.433009757014878"><ele>66.33333333333334</ele><time>2026-04-28T09:16:10Z</time></trkpt><trkpt lat="35.52802211898281" lon="-5.433173326917649"><ele>68.0</ele><time>2026-04-28T09:16:11Z</time></trkpt><trkpt lat="35.527874378262986" lon="-5.433342011073117"><ele>68.0</ele><time>2026-04-28T09:16:12Z</time></trkpt><trkpt lat="35.52774822450432" lon="-5.433521620237211"><ele>68.0</ele><time>2026-04-28T09:16:13Z</time></trkpt><trkpt lat="35.52765527621589" lon="-5.433713554398816"><ele>68.0</ele><time>2026-04-28T09:16:14Z</time></trkpt><trkpt lat="35.52759263630229" lon="-5.433914002997453"><ele>65.0</ele><time>2026-04-28T09:16:15Z</time></trkpt><trkpt lat="35.527535446386565" lon="-5.434117700957526"><ele>62.0</ele><time>2026-04-28T09:16:16Z</time></trkpt><trkpt lat="35.52747561994207" lon="-5.434322529617855"><ele>59.0</ele><time>2026-04-28T09:16:17Z</time></trkpt><trkpt lat="35.52741068770662" lon="-5.434521370654185"><ele>58.0</ele><time>2026-04-28T09:16:18Z</time></trkpt><trkpt lat="35.52733304459039" lon="-5.434704336809751"><ele>57.0</ele><time>2026-04-28T09:16:19Z</time></trkpt><trkpt lat="35.52723709231075" lon="-5.434882093561082"><ele>56.0</ele><time>2026-04-28T09:16:20Z</time></trkpt><trkpt lat="35.527116003741526" lon="-5.435056219902484"><ele>58.66666666666667</ele><time>2026-04-28T09:16:21Z</time></trkpt><trkpt lat="35.526973913073554" lon="-5.435219127275026"><ele>61.33333333333333</ele><time>2026-04-28T09:16:22Z</time></trkpt><trkpt lat="35.52682230437347" lon="-5.435378201094269"><ele>64.0</ele><time>2026-04-28T09:16:23Z</time></trkpt><trkpt lat="35.52666898171588" lon="-5.435534232631313"><ele>64.0</ele><time>2026-04-28T09:16:24Z</time></trkpt><trkpt lat="35.52651690103745" lon="-5.435695561315847"><ele>64.0</ele><time>2026-04-28T09:16:25Z</time></trkpt><trkpt lat="35.52637228904718" lon="-5.435864917749422"><ele>64.0</ele><time>2026-04-28T09:16:26Z</time></trkpt><trkpt lat="35.526224124125626" lon="-5.436031934142207"><ele>62.0</ele><time>2026-04-28T09:16:27Z</time></trkpt><trkpt lat="35.52606477536112" lon="-5.436184527844108"><ele>60.0</ele><time>2026-04-28T09:16:28Z</time></trkpt><trkpt lat="35.52589607836792" lon="-5.436318010130047"><ele>58.0</ele><time>2026-04-28T09:16:29Z</time></trkpt><trkpt lat="35.52572081995117" lon="-5.436438273265659"><ele>58.0</ele><time>2026-04-28T09:16:30Z</time></trkpt><trkpt lat="35.52554611117009" lon="-5.436553561508413"><ele>58.0</ele><time>2026-04-28T09:16:31Z</time></trkpt><trkpt lat="35.52537177419704" lon="-5.436665398345929"><ele>58.0</ele><time>2026-04-28T09:16:32Z</time></trkpt><trkpt lat="35.525199951530624" lon="-5.436765184557382"><ele>61.33333333333333</ele><time>2026-04-28T09:16:33Z</time></trkpt><trkpt lat="35.525033914452514" lon="-5.436859324962455"><ele>64.66666666666667</ele><time>2026-04-28T09:16:34Z</time></trkpt><trkpt lat="35.52486939085173" lon="-5.436952919810051"><ele>68.0</ele><time>2026-04-28T09:16:35Z</time></trkpt><trkpt lat="35.52469938974173" lon="-5.437029569525304"><ele>69.0</ele><time>2026-04-28T09:16:36Z</time></trkpt><trkpt lat="35.52453040815928" lon="-5.437067515700185"><ele>70.0</ele><time>2026-04-28T09:16:37Z</time></trkpt><trkpt lat="35.524360130693566" lon="-5.43707456074082"><ele>71.0</ele><time>2026-04-28T09:16:38Z</time></trkpt><trkpt lat="35.52418942633106" lon="-5.437049664244189"><ele>71.0</ele><time>2026-04-28T09:16:39Z</time></trkpt><trkpt lat="35.524023988299696" lon="-5.436987000904193"><ele>71.0</ele><time>2026-04-28T09:16:40Z</time></trkpt><trkpt lat="35.52386608097225" lon="-5.436892052722119"><ele>71.0</ele><time>2026-04-28T09:16:41Z</time></trkpt><trkpt lat="35.52371108332797" lon="-5.436782148225489"><ele>69.33333333333334</ele><time>2026-04-28T09:16:41.999Z</time></trkpt><trkpt lat="35.52355036796195" lon="-5.436678346667456"><ele>67.66666666666667</ele><time>2026-04-28T09:16:42.999Z</time></trkpt><trkpt lat="35.52337695152221" lon="-5.436601677752885"><ele>66.0</ele><time>2026-04-28T09:16:43.999Z</time></trkpt><trkpt lat="35.52319574686834" lon="-5.436559523610831"><ele>66.0</ele><time>2026-04-28T09:16:44.999Z</time></trkpt><trkpt lat="35.52301037121509" lon="-5.436545782645815"><ele>66.0</ele><time>2026-04-28T09:16:45.999Z</time></trkpt><trkpt lat="35.522818672468944" lon="-5.436552211178723"><ele>66.0</ele><time>2026-04-28T09:16:46.999Z</time></trkpt><trkpt lat="35.52262624208594" lon="-5.436564924472238"><ele>66.0</ele><time>2026-04-28T09:16:47.999Z</time></trkpt><trkpt lat="35.52243749018982" lon="-5.436549681975699"><ele>66.0</ele><time>2026-04-28T09:16:48.999Z</time></trkpt><trkpt lat="35.52225430037575" lon="-5.436503717305408"><ele>66.0</ele><time>2026-04-28T09:16:49.999Z</time></trkpt><trkpt lat="35.52207879818095" lon="-5.436436880100021"><ele>65.33333333333333</ele><time>2026-04-28T09:16:50.999Z</time></trkpt><trkpt lat="35.52190877693349" lon="-5.436356974459861"><ele>64.66666666666666</ele><time>2026-04-28T09:16:51.999Z</time></trkpt><trkpt lat="35.52174133914004" lon="-5.436270084091656"><ele>64.0</ele><time>2026-04-28T09:16:52.999Z</time></trkpt><trkpt lat="35.52157479771427" lon="-5.436171855685025"><ele>67.33333333333333</ele><time>2026-04-28T09:16:53.999Z</time></trkpt><trkpt lat="35.52140811310334" lon="-5.436069711925306"><ele>70.66666666666667</ele><time>2026-04-28T09:16:55Z</time></trkpt><trkpt lat="35.52124099718091" lon="-5.435966917200729"><ele>74.0</ele><time>2026-04-28T09:16:56Z</time></trkpt><trkpt lat="35.52107111641406" lon="-5.4358661124064565"><ele>74.0</ele><time>2026-04-28T09:16:57Z</time></trkpt><trkpt lat="35.52090958274923" lon="-5.4357725063303315"><ele>74.0</ele><time>2026-04-28T09:16:58Z</time></trkpt><trkpt lat="35.52075169690777" lon="-5.435694022062635"><ele>74.0</ele><time>2026-04-28T09:16:59Z</time></trkpt><trkpt lat="35.52059396907006" lon="-5.435646710938694"><ele>74.0</ele><time>2026-04-28T09:17:00Z</time></trkpt><trkpt lat="35.520445133619255" lon="-5.435607302168047"><ele>74.0</ele><time>2026-04-28T09:17:01Z</time></trkpt><trkpt lat="35.520302002945975" lon="-5.4355688270018065"><ele>74.0</ele><time>2026-04-28T09:17:02Z</time></trkpt><trkpt lat="35.52014725068756" lon="-5.435608472205187"><ele>73.5</ele><time>2026-04-28T09:17:03Z</time></trkpt><trkpt lat="35.519999545831084" lon="-5.435626793359264"><ele>73.0</ele><time>2026-04-28T09:17:04Z</time></trkpt><trkpt lat="35.519854533454854" lon="-5.435650563037542"><ele>72.5</ele><time>2026-04-28T09:17:05Z</time></trkpt><trkpt lat="35.51970397784619" lon="-5.435678171523742"><ele>72.0</ele><time>2026-04-28T09:17:06Z</time></trkpt><trkpt lat="35.519555272090834" lon="-5.43573906853673"><ele>74.0</ele><time>2026-04-28T09:17:07Z</time></trkpt><trkpt lat="35.51941458788155" lon="-5.435825428350233"><ele>76.0</ele><time>2026-04-28T09:17:08Z</time></trkpt><trkpt lat="35.519287541244886" lon="-5.435947866714928"><ele>78.0</ele><time>2026-04-28T09:17:09Z</time></trkpt><trkpt lat="35.51916413310664" lon="-5.43609127795317"><ele>78.0</ele><time>2026-04-28T09:17:10Z</time></trkpt><trkpt lat="35.51905523604232" lon="-5.43625716573235"><ele>78.0</ele><time>2026-04-28T09:17:11Z</time></trkpt><trkpt lat="35.51895138851736" lon="-5.436432781838355"><ele>78.0</ele><time>2026-04-28T09:17:12Z</time></trkpt><trkpt lat="35.51883541963797" lon="-5.436592077617871"><ele>77.66666666666667</ele><time>2026-04-28T09:17:13Z</time></trkpt><trkpt lat="35.518690194545265" lon="-5.436732363334667"><ele>77.33333333333334</ele><time>2026-04-28T09:17:14Z</time></trkpt><trkpt lat="35.518533804009536" lon="-5.436838243624537"><ele>77.0</ele><time>2026-04-28T09:17:15Z</time></trkpt><trkpt lat="35.51836399629409" lon="-5.436912467243387"><ele>77.0</ele><time>2026-04-28T09:17:16Z</time></trkpt><trkpt lat="35.518183923664495" lon="-5.43693505485141"><ele>77.0</ele><time>2026-04-28T09:17:17Z</time></trkpt><trkpt lat="35.51800128064383" lon="-5.436926480272495"><ele>77.0</ele><time>2026-04-28T09:17:18Z</time></trkpt><trkpt lat="35.51781353536141" lon="-5.436906710381386"><ele>77.0</ele><time>2026-04-28T09:17:19Z</time></trkpt><trkpt lat="35.51762078316052" lon="-5.436891611908515"><ele>77.0</ele><time>2026-04-28T09:17:20Z</time></trkpt><trkpt lat="35.51743127149085" lon="-5.43691047693132"><ele>77.0</ele><time>2026-04-28T09:17:21Z</time></trkpt><trkpt lat="35.517239590339756" lon="-5.4369669462262245"><ele>75.66666666666667</ele><time>2026-04-28T09:17:22Z</time></trkpt><trkpt lat="35.51706072038441" lon="-5.437077506114615"><ele>74.33333333333333</ele><time>2026-04-28T09:17:23Z</time></trkpt><trkpt lat="35.51689994049246" lon="-5.43721621556861"><ele>73.0</ele><time>2026-04-28T09:17:24Z</time></trkpt><trkpt lat="35.51675366846773" lon="-5.437366563802754"><ele>73.0</ele><time>2026-04-28T09:17:25Z</time></trkpt><trkpt lat="35.51660927027593" lon="-5.437496973630922"><ele>73.0</ele><time>2026-04-28T09:17:26Z</time></trkpt><trkpt lat="35.51646774556299" lon="-5.4375882766175065"><ele>73.0</ele><time>2026-04-28T09:17:27Z</time></trkpt><trkpt lat="35.51632148853351" lon="-5.437642493012776"><ele>76.33333333333333</ele><time>2026-04-28T09:17:28Z</time></trkpt><trkpt lat="35.51618377228309" lon="-5.4376986775973"><ele>79.66666666666667</ele><time>2026-04-28T09:17:29Z</time></trkpt><trkpt lat="35.51604451748238" lon="-5.437749360999854"><ele>83.0</ele><time>2026-04-28T09:17:30Z</time></trkpt><trkpt lat="35.51588926418628" lon="-5.437819433322476"><ele>83.0</ele><time>2026-04-28T09:17:31Z</time></trkpt><trkpt lat="35.51572924639509" lon="-5.437914447768332"><ele>83.0</ele><time>2026-04-28T09:17:32Z</time></trkpt><trkpt lat="35.51555531081365" lon="-5.438002657016177"><ele>83.0</ele><time>2026-04-28T09:17:33Z</time></trkpt><trkpt lat="35.5153669648459" lon="-5.438072282276705"><ele>79.33333333333334</ele><time>2026-04-28T09:17:34Z</time></trkpt><trkpt lat="35.515163781579645" lon="-5.438124435561709"><ele>75.66666666666667</ele><time>2026-04-28T09:17:35Z</time></trkpt><trkpt lat="35.51496154343666" lon="-5.438142447582033"><ele>72.0</ele><time>2026-04-28T09:17:36Z</time></trkpt><trkpt lat="35.51475469245177" lon="-5.438131724479997"><ele>72.33333333333333</ele><time>2026-04-28T09:17:37Z</time></trkpt><trkpt lat="35.51455102901346" lon="-5.43810242184079"><ele>72.66666666666666</ele><time>2026-04-28T09:17:38Z</time></trkpt><trkpt lat="35.514342743387765" lon="-5.438077688197126"><ele>73.0</ele><time>2026-04-28T09:17:39Z</time></trkpt><trkpt lat="35.51413791375697" lon="-5.438060768241898"><ele>73.0</ele><time>2026-04-28T09:17:40Z</time></trkpt><trkpt lat="35.51393309599036" lon="-5.438039781268028"><ele>73.0</ele><time>2026-04-28T09:17:41Z</time></trkpt><trkpt lat="35.51372832246051" lon="-5.438035331602242"><ele>73.0</ele><time>2026-04-28T09:17:42Z</time></trkpt><trkpt lat="35.51352420471058" lon="-5.438070862017187"><ele>73.66666666666666</ele><time>2026-04-28T09:17:43Z</time></trkpt><trkpt lat="35.51331893159718" lon="-5.438110697803648"><ele>74.33333333333333</ele><time>2026-04-28T09:17:44Z</time></trkpt><trkpt lat="35.51311156014079" lon="-5.438148804041376"><ele>75.0</ele><time>2026-04-28T09:17:45Z</time></trkpt><trkpt lat="35.51290833329899" lon="-5.4381835015769715"><ele>76.33333333333333</ele><time>2026-04-28T09:17:46Z</time></trkpt><trkpt lat="35.51270592561513" lon="-5.438211156280242"><ele>77.66666666666666</ele><time>2026-04-28T09:17:47Z</time></trkpt><trkpt lat="35.51251671816666" lon="-5.43824142687719"><ele>79.0</ele><time>2026-04-28T09:17:48Z</time></trkpt><trkpt lat="35.512328852111445" lon="-5.438274354986578"><ele>79.0</ele><time>2026-04-28T09:17:49Z</time></trkpt><trkpt lat="35.512162558297916" lon="-5.438346137017482"><ele>79.0</ele><time>2026-04-28T09:17:50Z</time></trkpt><trkpt lat="35.51201330896975" lon="-5.438469160760525"><ele>79.0</ele><time>2026-04-28T09:17:51Z</time></trkpt><trkpt lat="35.5118837123735" lon="-5.438634970308427"><ele>80.33333333333333</ele><time>2026-04-28T09:17:52Z</time></trkpt><trkpt lat="35.511763024400835" lon="-5.438829026000206"><ele>81.66666666666667</ele><time>2026-04-28T09:17:53Z</time></trkpt><trkpt lat="35.51165375284671" lon="-5.439044481075403"><ele>83.0</ele><time>2026-04-28T09:17:54Z</time></trkpt><trkpt lat="35.511538702082426" lon="-5.439264327087038"><ele>83.0</ele><time>2026-04-28T09:17:55Z</time></trkpt><trkpt lat="35.511401476964416" lon="-5.439457056515143"><ele>83.0</ele><time>2026-04-28T09:17:56Z</time></trkpt><trkpt lat="35.511249306777486" lon="-5.439621991361137"><ele>83.0</ele><time>2026-04-28T09:17:57Z</time></trkpt><trkpt lat="35.511088629832834" lon="-5.439779434429405"><ele>83.0</ele><time>2026-04-28T09:17:58Z</time></trkpt><trkpt lat="35.5109240066141" lon="-5.439923778889739"><ele>83.0</ele><time>2026-04-28T09:17:59Z</time></trkpt><trkpt lat="35.5107558049038" lon="-5.440058265232709"><ele>83.0</ele><time>2026-04-28T09:18:00Z</time></trkpt><trkpt lat="35.51057270069992" lon="-5.44017553527808"><ele>84.33333333333334</ele><time>2026-04-28T09:18:01Z</time></trkpt><trkpt lat="35.51038236474253" lon="-5.440268170037438"><ele>85.66666666666667</ele><time>2026-04-28T09:18:02Z</time></trkpt><trkpt lat="35.51018539242381" lon="-5.440354476526256"><ele>87.0</ele><time>2026-04-28T09:18:03Z</time></trkpt><trkpt lat="35.509984637069074" lon="-5.440415497740573"><ele>87.0</ele><time>2026-04-28T09:18:04Z</time></trkpt><trkpt lat="35.509775552030035" lon="-5.4404550929924325"><ele>87.0</ele><time>2026-04-28T09:18:05Z</time></trkpt><trkpt lat="35.50956667949128" lon="-5.440491804238492"><ele>87.0</ele><time>2026-04-28T09:18:06Z</time></trkpt><trkpt lat="35.509357914126404" lon="-5.440507671960297"><ele>84.66666666666667</ele><time>2026-04-28T09:18:07Z</time></trkpt><trkpt lat="35.50915694330353" lon="-5.440504341966539"><ele>82.33333333333334</ele><time>2026-04-28T09:18:08Z</time></trkpt><trkpt lat="35.50896886193604" lon="-5.440491836967386"><ele>80.0</ele><time>2026-04-28T09:18:09Z</time></trkpt><trkpt lat="35.508796105755195" lon="-5.440466689659095"><ele>84.33333333333334</ele><time>2026-04-28T09:18:10Z</time></trkpt><trkpt lat="35.50863257299604" lon="-5.440427647881073"><ele>88.66666666666667</ele><time>2026-04-28T09:18:11Z</time></trkpt><trkpt lat="35.50847117148125" lon="-5.440373531398282"><ele>93.0</ele><time>2026-04-28T09:18:12Z</time></trkpt><trkpt lat="35.50830895268885" lon="-5.440307430328475"><ele>93.0</ele><time>2026-04-28T09:18:13Z</time></trkpt><trkpt lat="35.508147453271356" lon="-5.440230866836353"><ele>93.0</ele><time>2026-04-28T09:18:14Z</time></trkpt><trkpt lat="35.507983931744874" lon="-5.44013742469344"><ele>93.0</ele><time>2026-04-28T09:18:15Z</time></trkpt><trkpt lat="35.507816942834786" lon="-5.440033146057806"><ele>89.33333333333333</ele><time>2026-04-28T09:18:16Z</time></trkpt><trkpt lat="35.50764827037339" lon="-5.43992051333551"><ele>85.66666666666666</ele><time>2026-04-28T09:18:17Z</time></trkpt><trkpt lat="35.50747820801958" lon="-5.439811969392565"><ele>82.0</ele><time>2026-04-28T09:18:18Z</time></trkpt><trkpt lat="35.50730597015544" lon="-5.439705629781029"><ele>85.33333333333333</ele><time>2026-04-28T09:18:19Z</time></trkpt><trkpt lat="35.5071340047714" lon="-5.439600045685053"><ele>88.66666666666667</ele><time>2026-04-28T09:18:20Z</time></trkpt><trkpt lat="35.506962709728896" lon="-5.439493654927158"><ele>92.0</ele><time>2026-04-28T09:18:21Z</time></trkpt><trkpt lat="35.50679118476596" lon="-5.439388240385525"><ele>92.0</ele><time>2026-04-28T09:18:22Z</time></trkpt><trkpt lat="35.50662207527182" lon="-5.439283207889908"><ele>92.0</ele><time>2026-04-28T09:18:23Z</time></trkpt><trkpt lat="35.506454258168105" lon="-5.439175217367651"><ele>92.0</ele><time>2026-04-28T09:18:24Z</time></trkpt><trkpt lat="35.50628738757976" lon="-5.439067361978316"><ele>93.33333333333334</ele><time>2026-04-28T09:18:25Z</time></trkpt><trkpt lat="35.50612483210272" lon="-5.438954046659311"><ele>94.66666666666667</ele><time>2026-04-28T09:18:26Z</time></trkpt><trkpt lat="35.50597558780462" lon="-5.438822173987864"><ele>96.0</ele><time>2026-04-28T09:18:27Z</time></trkpt><trkpt lat="35.50584014572021" lon="-5.4386665231078615"><ele>96.0</ele><time>2026-04-28T09:18:28Z</time></trkpt><trkpt lat="35.50571628068481" lon="-5.4384908018434714"><ele>96.0</ele><time>2026-04-28T09:18:29Z</time></trkpt><trkpt lat="35.50560790643465" lon="-5.438295606786058"><ele>96.0</ele><time>2026-04-28T09:18:30Z</time></trkpt><trkpt lat="35.50551721219009" lon="-5.438084243996809"><ele>94.33333333333333</ele><time>2026-04-28T09:18:31Z</time></trkpt><trkpt lat="35.505443950970815" lon="-5.437858832916897"><ele>92.66666666666666</ele><time>2026-04-28T09:18:32Z</time></trkpt><trkpt lat="35.5053827576999" lon="-5.437624878354346"><ele>91.0</ele><time>2026-04-28T09:18:33Z</time></trkpt><trkpt lat="35.50532068042252" lon="-5.437386876601306"><ele>91.0</ele><time>2026-04-28T09:18:34Z</time></trkpt><trkpt lat="35.50525548065409" lon="-5.437148574325514"><ele>91.0</ele><time>2026-04-28T09:18:35Z</time></trkpt><trkpt lat="35.505187001034486" lon="-5.436914561760468"><ele>91.0</ele><time>2026-04-28T09:18:36Z</time></trkpt><trkpt lat="35.50512072439241" lon="-5.436696582647747"><ele>92.66666666666666</ele><time>2026-04-28T09:18:37Z</time></trkpt><trkpt lat="35.505040421054304" lon="-5.436500939662846"><ele>94.33333333333333</ele><time>2026-04-28T09:18:38Z</time></trkpt><trkpt lat="35.50493333075633" lon="-5.436339702829102"><ele>96.0</ele><time>2026-04-28T09:18:39Z</time></trkpt><trkpt lat="35.50480245596022" lon="-5.43621727889985"><ele>97.33333333333334</ele><time>2026-04-28T09:18:40Z</time></trkpt><trkpt lat="35.50466612163825" lon="-5.436123811165044"><ele>98.66666666666667</ele><time>2026-04-28T09:18:41Z</time></trkpt><trkpt lat="35.50451942903711" lon="-5.436060577017029"><ele>100.0</ele><time>2026-04-28T09:18:42Z</time></trkpt><trkpt lat="35.504362458087634" lon="-5.436030045726572"><ele>100.0</ele><time>2026-04-28T09:18:43Z</time></trkpt><trkpt lat="35.504209985589426" lon="-5.436024154530988"><ele>100.0</ele><time>2026-04-28T09:18:44Z</time></trkpt><trkpt lat="35.504067659862386" lon="-5.4360268896243396"><ele>100.0</ele><time>2026-04-28T09:18:45Z</time></trkpt><trkpt lat="35.503932193991396" lon="-5.436024340539995"><ele>100.0</ele><time>2026-04-28T09:18:46Z</time></trkpt><trkpt lat="35.50380381300089" lon="-5.436016652415175"><ele>100.0</ele><time>2026-04-28T09:18:47Z</time></trkpt><trkpt lat="35.50368366292408" lon="-5.4360059625898804"><ele>100.0</ele><time>2026-04-28T09:18:48Z</time></trkpt><trkpt lat="35.50357221945858" lon="-5.4359949902567255"><ele>100.0</ele><time>2026-04-28T09:18:49Z</time></trkpt><trkpt lat="35.503465135504804" lon="-5.4359846172023305"><ele>100.0</ele><time>2026-04-28T09:18:50Z</time></trkpt><trkpt lat="35.503361392360105" lon="-5.435976632982408"><ele>100.0</ele><time>2026-04-28T09:18:51Z</time></trkpt><trkpt lat="35.503247640664" lon="-5.435968105905961"><ele>100.0</ele><time>2026-04-28T09:18:51.999Z</time></trkpt><trkpt lat="35.50312013512242" lon="-5.435938947491685"><ele>100.0</ele><time>2026-04-28T09:18:52.999Z</time></trkpt><trkpt lat="35.50297922405891" lon="-5.43589031343404"><ele>100.0</ele><time>2026-04-28T09:18:53.999Z</time></trkpt><trkpt lat="35.50282819759948" lon="-5.435840085587754"><ele>100.0</ele><time>2026-04-28T09:18:54.999Z</time></trkpt><trkpt lat="35.5026694274705" lon="-5.4357897144181635"><ele>99.0</ele><time>2026-04-28T09:18:55.999Z</time></trkpt><trkpt lat="35.502515080615844" lon="-5.435731173498118"><ele>98.0</ele><time>2026-04-28T09:18:56.999Z</time></trkpt><trkpt lat="35.502348522162556" lon="-5.435661054743012"><ele>97.0</ele><time>2026-04-28T09:18:57.999Z</time></trkpt><trkpt lat="35.50217540292988" lon="-5.435577769393877"><ele>97.0</ele><time>2026-04-28T09:18:58.999Z</time></trkpt><trkpt lat="35.502013733569406" lon="-5.435494238459641"><ele>97.0</ele><time>2026-04-28T09:18:59.999Z</time></trkpt><trkpt lat="35.50185337495696" lon="-5.435409405672316"><ele>97.0</ele><time>2026-04-28T09:19:01Z</time></trkpt><trkpt lat="35.50169453313608" lon="-5.435323314133805"><ele>99.0</ele><time>2026-04-28T09:19:02Z</time></trkpt><trkpt lat="35.501530796542376" lon="-5.435239668281003"><ele>101.0</ele><time>2026-04-28T09:19:03Z</time></trkpt><trkpt lat="35.501365166201545" lon="-5.435155010423364"><ele>103.0</ele><time>2026-04-28T09:19:04Z</time></trkpt><trkpt lat="35.50119370513112" lon="-5.435072027803947"><ele>103.0</ele><time>2026-04-28T09:19:05Z</time></trkpt><trkpt lat="35.50101740007217" lon="-5.434984379716395"><ele>103.0</ele><time>2026-04-28T09:19:06Z</time></trkpt><trkpt lat="35.500839247281256" lon="-5.434893186810321"><ele>103.0</ele><time>2026-04-28T09:19:07Z</time></trkpt><trkpt lat="35.50066338890602" lon="-5.434805326954225"><ele>103.0</ele><time>2026-04-28T09:19:08Z</time></trkpt><trkpt lat="35.50049511080133" lon="-5.434733999574713"><ele>103.0</ele><time>2026-04-28T09:19:09Z</time></trkpt><trkpt lat="35.50032869651629" lon="-5.4347001785903695"><ele>103.0</ele><time>2026-04-28T09:19:10Z</time></trkpt><trkpt lat="35.500159416973254" lon="-5.434716729404282"><ele>103.33333333333334</ele><time>2026-04-28T09:19:11Z</time></trkpt><trkpt lat="35.499995657208174" lon="-5.434776559489661"><ele>103.66666666666666</ele><time>2026-04-28T09:19:12Z</time></trkpt><trkpt lat="35.49984060490026" lon="-5.434877165777893"><ele>104.0</ele><time>2026-04-28T09:19:13Z</time></trkpt><trkpt lat="35.49969530489952" lon="-5.435016883114232"><ele>105.66666666666666</ele><time>2026-04-28T09:19:14Z</time></trkpt><trkpt lat="35.499552045168514" lon="-5.435174193586445"><ele>107.33333333333334</ele><time>2026-04-28T09:19:15Z</time></trkpt><trkpt lat="35.49941480724977" lon="-5.435324447590855"><ele>109.0</ele><time>2026-04-28T09:19:16Z</time></trkpt><trkpt lat="35.49928391719696" lon="-5.435460765137109"><ele>108.66666666666667</ele><time>2026-04-28T09:19:17Z</time></trkpt><trkpt lat="35.49915455633794" lon="-5.435582357665312"><ele>108.33333333333334</ele><time>2026-04-28T09:19:18Z</time></trkpt><trkpt lat="35.49902188330235" lon="-5.435674968131505"><ele>108.0</ele><time>2026-04-28T09:19:19Z</time></trkpt><trkpt lat="35.498876875733046" lon="-5.435736047994697"><ele>108.0</ele><time>2026-04-28T09:19:20Z</time></trkpt><trkpt lat="35.49872557707427" lon="-5.435761500845702"><ele>108.0</ele><time>2026-04-28T09:19:21Z</time></trkpt><trkpt lat="35.498582426658764" lon="-5.43576452270917"><ele>108.0</ele><time>2026-04-28T09:19:22Z</time></trkpt><trkpt lat="35.49843320300823" lon="-5.435728469902078"><ele>108.0</ele><time>2026-04-28T09:19:23Z</time></trkpt><trkpt lat="35.498282571828575" lon="-5.435647391684299"><ele>108.0</ele><time>2026-04-28T09:19:24Z</time></trkpt><trkpt lat="35.498137106423755" lon="-5.4355315067155665"><ele>108.0</ele><time>2026-04-28T09:19:25Z</time></trkpt><trkpt lat="35.49799512347269" lon="-5.435387785596549"><ele>108.0</ele><time>2026-04-28T09:19:26Z</time></trkpt><trkpt lat="35.497860460366105" lon="-5.435225231767354"><ele>107.66666666666666</ele><time>2026-04-28T09:19:27Z</time></trkpt><trkpt lat="35.497715447877866" lon="-5.435060190193738"><ele>107.33333333333333</ele><time>2026-04-28T09:19:28Z</time></trkpt><trkpt lat="35.497567381265625" lon="-5.434896284637099"><ele>107.0</ele><time>2026-04-28T09:19:29Z</time></trkpt><trkpt lat="35.49742892556713" lon="-5.434723224968551"><ele>108.66666666666666</ele><time>2026-04-28T09:19:30Z</time></trkpt><trkpt lat="35.497307194086495" lon="-5.434540102653001"><ele>110.33333333333334</ele><time>2026-04-28T09:19:31Z</time></trkpt><trkpt lat="35.497202878641296" lon="-5.434343426165426"><ele>112.0</ele><time>2026-04-28T09:19:32Z</time></trkpt><trkpt lat="35.49710976998088" lon="-5.434135687335262"><ele>110.66666666666667</ele><time>2026-04-28T09:19:33Z</time></trkpt><trkpt lat="35.49702458382128" lon="-5.433915302149982"><ele>109.33333333333334</ele><time>2026-04-28T09:19:34Z</time></trkpt><trkpt lat="35.49694737987539" lon="-5.4336804806390155"><ele>108.0</ele><time>2026-04-28T09:19:35Z</time></trkpt><trkpt lat="35.49688029438976" lon="-5.433434716720954"><ele>108.0</ele><time>2026-04-28T09:19:36Z</time></trkpt><trkpt lat="35.49682189192637" lon="-5.433178177740365"><ele>108.0</ele><time>2026-04-28T09:19:37Z</time></trkpt><trkpt lat="35.496769295160064" lon="-5.432920991012174"><ele>108.0</ele><time>2026-04-28T09:19:38Z</time></trkpt><trkpt lat="35.496726471906236" lon="-5.432659930683055"><ele>110.0</ele><time>2026-04-28T09:19:39Z</time></trkpt><trkpt lat="35.496695417641604" lon="-5.432395634431657"><ele>112.0</ele><time>2026-04-28T09:19:40Z</time></trkpt><trkpt lat="35.496678789419136" lon="-5.432127669773079"><ele>114.0</ele><time>2026-04-28T09:19:41Z</time></trkpt><trkpt lat="35.4966753982935" lon="-5.431856296830013"><ele>112.66666666666666</ele><time>2026-04-28T09:19:42Z</time></trkpt><trkpt lat="35.49666747105684" lon="-5.431584108622019"><ele>111.33333333333333</ele><time>2026-04-28T09:19:43Z</time></trkpt><trkpt lat="35.49665627173714" lon="-5.431315801799847"><ele>110.0</ele><time>2026-04-28T09:19:44Z</time></trkpt><trkpt lat="35.496643348231785" lon="-5.431065449864467"><ele>110.0</ele><time>2026-04-28T09:19:45Z</time></trkpt><trkpt lat="35.496631099517344" lon="-5.430826571985773"><ele>110.0</ele><time>2026-04-28T09:19:46Z</time></trkpt><trkpt lat="35.496610959355195" lon="-5.4305996293944725"><ele>110.0</ele><time>2026-04-28T09:19:47Z</time></trkpt><trkpt lat="35.49655996773131" lon="-5.430382900632464"><ele>110.66666666666666</ele><time>2026-04-28T09:19:48Z</time></trkpt><trkpt lat="35.49647345955497" lon="-5.430187448229128"><ele>111.33333333333334</ele><time>2026-04-28T09:19:49Z</time></trkpt><trkpt lat="35.49636380109087" lon="-5.4300042878856525"><ele>112.0</ele><time>2026-04-28T09:19:50Z</time></trkpt><trkpt lat="35.49622478265005" lon="-5.429849082060419"><ele>112.0</ele><time>2026-04-28T09:19:51Z</time></trkpt><trkpt lat="35.49606788784662" lon="-5.4297159845710725"><ele>112.0</ele><time>2026-04-28T09:19:52Z</time></trkpt><trkpt lat="35.49588459754555" lon="-5.429610959734954"><ele>112.0</ele><time>2026-04-28T09:19:53Z</time></trkpt><trkpt lat="35.49571171566876" lon="-5.429492760952182"><ele>114.0</ele><time>2026-04-28T09:19:54Z</time></trkpt><trkpt lat="35.495543862360385" lon="-5.429384528025298"><ele>116.0</ele><time>2026-04-28T09:19:55Z</time></trkpt><trkpt lat="35.49538485677242" lon="-5.429279376903792"><ele>118.0</ele><time>2026-04-28T09:19:56Z</time></trkpt><trkpt lat="35.495256499358014" lon="-5.429123281182544"><ele>118.0</ele><time>2026-04-28T09:19:57Z</time></trkpt><trkpt lat="35.49514977541366" lon="-5.428930367028711"><ele>118.0</ele><time>2026-04-28T09:19:58Z</time></trkpt><trkpt lat="35.49505001729123" lon="-5.4287181813716225"><ele>118.0</ele><time>2026-04-28T09:19:59Z</time></trkpt><trkpt lat="35.49494345759162" lon="-5.428523465531921"><ele>116.66666666666667</ele><time>2026-04-28T09:20:00Z</time></trkpt><trkpt lat="35.494824354769165" lon="-5.428355049010732"><ele>115.33333333333334</ele><time>2026-04-28T09:20:01Z</time></trkpt><trkpt lat="35.4946772468639" lon="-5.428230275336693"><ele>114.0</ele><time>2026-04-28T09:20:02Z</time></trkpt><trkpt lat="35.49450803011489" lon="-5.4281425808479025"><ele>114.0</ele><time>2026-04-28T09:20:03Z</time></trkpt><trkpt lat="35.49432157962712" lon="-5.428081550836617"><ele>114.0</ele><time>2026-04-28T09:20:04Z</time></trkpt><trkpt lat="35.494116370895256" lon="-5.428050201135656"><ele>114.0</ele><time>2026-04-28T09:20:05Z</time></trkpt><trkpt lat="35.49391065483512" lon="-5.428011589445893"><ele>118.66666666666666</ele><time>2026-04-28T09:20:06Z</time></trkpt><trkpt lat="35.493718071833776" lon="-5.427962044192704"><ele>123.33333333333333</ele><time>2026-04-28T09:20:07Z</time></trkpt><trkpt lat="35.493536180546215" lon="-5.427904239721537"><ele>128.0</ele><time>2026-04-28T09:20:08Z</time></trkpt><trkpt lat="35.49336497148949" lon="-5.427824764320858"><ele>128.0</ele><time>2026-04-28T09:20:09Z</time></trkpt><trkpt lat="35.49320982402339" lon="-5.427709273879988"><ele>128.0</ele><time>2026-04-28T09:20:10Z</time></trkpt><trkpt lat="35.49307880789323" lon="-5.4275559273424046"><ele>128.0</ele><time>2026-04-28T09:20:11Z</time></trkpt><trkpt lat="35.49296612123922" lon="-5.427374088624459"><ele>128.0</ele><time>2026-04-28T09:20:12Z</time></trkpt><trkpt lat="35.49287936135972" lon="-5.4271652443959955"><ele>128.0</ele><time>2026-04-28T09:20:13Z</time></trkpt><trkpt lat="35.49281645731128" lon="-5.426933893899356"><ele>128.0</ele><time>2026-04-28T09:20:14Z</time></trkpt><trkpt lat="35.49276798750247" lon="-5.42668197883817"><ele>128.0</ele><time>2026-04-28T09:20:15Z</time></trkpt><trkpt lat="35.49271851963165" lon="-5.426431407740904"><ele>128.0</ele><time>2026-04-28T09:20:16Z</time></trkpt><trkpt lat="35.492659967203814" lon="-5.426185681282534"><ele>128.0</ele><time>2026-04-28T09:20:17Z</time></trkpt><trkpt lat="35.49260483578942" lon="-5.42595203120478"><ele>129.0</ele><time>2026-04-28T09:20:18Z</time></trkpt><trkpt lat="35.492556279198695" lon="-5.4257305514038485"><ele>130.0</ele><time>2026-04-28T09:20:19Z</time></trkpt><trkpt lat="35.49250693450224" lon="-5.425521014747347"><ele>131.0</ele><time>2026-04-28T09:20:20Z</time></trkpt><trkpt lat="35.492451063518416" lon="-5.425331532117986"><ele>131.5</ele><time>2026-04-28T09:20:21Z</time></trkpt><trkpt lat="35.492381368612286" lon="-5.425165918191328"><ele>132.0</ele><time>2026-04-28T09:20:22Z</time></trkpt><trkpt lat="35.492308247821214" lon="-5.425020960385379"><ele>132.5</ele><time>2026-04-28T09:20:23Z</time></trkpt><trkpt lat="35.49223540436812" lon="-5.424899576920548"><ele>133.0</ele><time>2026-04-28T09:20:24Z</time></trkpt><trkpt lat="35.492104407686895" lon="-5.424771062451157"><ele>133.0</ele><time>2026-04-28T09:20:25Z</time></trkpt><trkpt lat="35.49199730385445" lon="-5.4246849080134325"><ele>133.0</ele><time>2026-04-28T09:20:26Z</time></trkpt><trkpt lat="35.49188683853277" lon="-5.4246154739522865"><ele>133.0</ele><time>2026-04-28T09:20:27Z</time></trkpt><trkpt lat="35.49179577476483" lon="-5.424543666227508"><ele>133.0</ele><time>2026-04-28T09:20:28Z</time></trkpt><trkpt lat="35.4917329966533" lon="-5.424448032975637"><ele>133.0</ele><time>2026-04-28T09:20:29Z</time></trkpt><trkpt lat="35.49170062749463" lon="-5.424327771628896"><ele>133.0</ele><time>2026-04-28T09:20:30Z</time></trkpt><trkpt lat="35.49169529078844" lon="-5.42418352533871"><ele>133.0</ele><time>2026-04-28T09:20:31Z</time></trkpt><trkpt lat="35.49167562404237" lon="-5.424017128778406"><ele>133.0</ele><time>2026-04-28T09:20:32Z</time></trkpt><trkpt lat="35.49161779211514" lon="-5.423837164825742"><ele>133.5</ele><time>2026-04-28T09:20:33Z</time></trkpt><trkpt lat="35.49155610284" lon="-5.423667442954348"><ele>134.0</ele><time>2026-04-28T09:20:34Z</time></trkpt><trkpt lat="35.49150483090495" lon="-5.423504462433237"><ele>134.5</ele><time>2026-04-28T09:20:35Z</time></trkpt><trkpt lat="35.49144233153448" lon="-5.423342678278522"><ele>135.0</ele><time>2026-04-28T09:20:36Z</time></trkpt><trkpt lat="35.49137986688411" lon="-5.423170751316529"><ele>135.0</ele><time>2026-04-28T09:20:37Z</time></trkpt><trkpt lat="35.49132147849264" lon="-5.422995633765427"><ele>135.0</ele><time>2026-04-28T09:20:38Z</time></trkpt><trkpt lat="35.49125438212689" lon="-5.42282540200639"><ele>135.0</ele><time>2026-04-28T09:20:39Z</time></trkpt><trkpt lat="35.49116331581451" lon="-5.422674939421706"><ele>135.0</ele><time>2026-04-28T09:20:40Z</time></trkpt><trkpt lat="35.49104693815512" lon="-5.42255251365567"><ele>135.0</ele><time>2026-04-28T09:20:41Z</time></trkpt><trkpt lat="35.49091122065482" lon="-5.422459516003394"><ele>135.0</ele><time>2026-04-28T09:20:42Z</time></trkpt><trkpt lat="35.49076040794499" lon="-5.422388697641901"><ele>135.0</ele><time>2026-04-28T09:20:43Z</time></trkpt><trkpt lat="35.49060224168611" lon="-5.422351992085832"><ele>135.0</ele><time>2026-04-28T09:20:44Z</time></trkpt><trkpt lat="35.490435796516344" lon="-5.422337173511792"><ele>135.0</ele><time>2026-04-28T09:20:45Z</time></trkpt><trkpt lat="35.490267897456754" lon="-5.422321471054848"><ele>135.33333333333334</ele><time>2026-04-28T09:20:46Z</time></trkpt><trkpt lat="35.49010835331957" lon="-5.422288359453505"><ele>135.66666666666669</ele><time>2026-04-28T09:20:47Z</time></trkpt><trkpt lat="35.4899583259766" lon="-5.42223426289464"><ele>136.0</ele><time>2026-04-28T09:20:48Z</time></trkpt><trkpt lat="35.48982180789024" lon="-5.422149993133438"><ele>136.33333333333334</ele><time>2026-04-28T09:20:49Z</time></trkpt><trkpt lat="35.48969930542528" lon="-5.422037241302683"><ele>136.66666666666666</ele><time>2026-04-28T09:20:50Z</time></trkpt><trkpt lat="35.48958386967802" lon="-5.421905316101022"><ele>137.0</ele><time>2026-04-28T09:20:51Z</time></trkpt><trkpt lat="35.48946251817365" lon="-5.421766667386587"><ele>137.0</ele><time>2026-04-28T09:20:51.999Z</time></trkpt><trkpt lat="35.489331203878734" lon="-5.421628367530899"><ele>137.0</ele><time>2026-04-28T09:20:52.999Z</time></trkpt><trkpt lat="35.489187518598065" lon="-5.421501068597347"><ele>137.0</ele><time>2026-04-28T09:20:53.999Z</time></trkpt><trkpt lat="35.48902469288838" lon="-5.421412584172857"><ele>137.0</ele><time>2026-04-28T09:20:54.999Z</time></trkpt><trkpt lat="35.48884877923939" lon="-5.421372381768538"><ele>137.0</ele><time>2026-04-28T09:20:55.999Z</time></trkpt><trkpt lat="35.48866952113768" lon="-5.421365493988264"><ele>137.0</ele><time>2026-04-28T09:20:56.999Z</time></trkpt><trkpt lat="35.4884850735633" lon="-5.421370330602869"><ele>137.0</ele><time>2026-04-28T09:20:57.999Z</time></trkpt><trkpt lat="35.48830219943847" lon="-5.421372687155952"><ele>137.0</ele><time>2026-04-28T09:20:58.999Z</time></trkpt><trkpt lat="35.48812746666947" lon="-5.42136968686003"><ele>137.0</ele><time>2026-04-28T09:20:59.999Z</time></trkpt><trkpt lat="35.487956442759724" lon="-5.421353030462334"><ele>139.33333333333331</ele><time>2026-04-28T09:21:00.999Z</time></trkpt><trkpt lat="35.48778975660548" lon="-5.421305911245763"><ele>141.66666666666666</ele><time>2026-04-28T09:21:01.999Z</time></trkpt><trkpt lat="35.487633804652866" lon="-5.421215574735724"><ele>144.0</ele><time>2026-04-28T09:21:02.999Z</time></trkpt><trkpt lat="35.487497712182304" lon="-5.4210909023480625"><ele>144.0</ele><time>2026-04-28T09:21:03.999Z</time></trkpt><trkpt lat="35.487380648116805" lon="-5.420940353983135"><ele>144.0</ele><time>2026-04-28T09:21:04.999Z</time></trkpt><trkpt lat="35.48727486760161" lon="-5.420776684486307"><ele>144.0</ele><time>2026-04-28T09:21:05.999Z</time></trkpt><trkpt lat="35.487173104283585" lon="-5.420603914668912"><ele>144.66666666666666</ele><time>2026-04-28T09:21:07Z</time></trkpt><trkpt lat="35.48707794731199" lon="-5.420424136545005"><ele>145.33333333333331</ele><time>2026-04-28T09:21:08Z</time></trkpt><trkpt lat="35.48698612023842" lon="-5.420233736636577"><ele>146.0</ele><time>2026-04-28T09:21:09Z</time></trkpt><trkpt lat="35.486893969878594" lon="-5.420046594531902"><ele>146.0</ele><time>2026-04-28T09:21:10Z</time></trkpt><trkpt lat="35.4868074071455" lon="-5.419871173535122"><ele>146.0</ele><time>2026-04-28T09:21:11Z</time></trkpt><trkpt lat="35.48672655373177" lon="-5.419707557618326"><ele>146.0</ele><time>2026-04-28T09:21:12Z</time></trkpt><trkpt lat="35.48663644135849" lon="-5.419547083461835"><ele>147.66666666666666</ele><time>2026-04-28T09:21:13Z</time></trkpt><trkpt lat="35.48654499279618" lon="-5.419374886235536"><ele>149.33333333333334</ele><time>2026-04-28T09:21:14Z</time></trkpt><trkpt lat="35.48644624181588" lon="-5.419196414023333"><ele>151.0</ele><time>2026-04-28T09:21:15Z</time></trkpt><trkpt lat="35.4863484456991" lon="-5.419006686467201"><ele>148.0</ele><time>2026-04-28T09:21:16Z</time></trkpt><trkpt lat="35.486249762458016" lon="-5.418808181038977"><ele>145.0</ele><time>2026-04-28T09:21:17Z</time></trkpt><trkpt lat="35.48614591923976" lon="-5.4186079002330985"><ele>142.0</ele><time>2026-04-28T09:21:18Z</time></trkpt><trkpt lat="35.48604192225204" lon="-5.418406998529579"><ele>142.0</ele><time>2026-04-28T09:21:19Z</time></trkpt><trkpt lat="35.48594458553537" lon="-5.41819846775858"><ele>142.0</ele><time>2026-04-28T09:21:20Z</time></trkpt><trkpt lat="35.485850629228985" lon="-5.417987437117478"><ele>142.0</ele><time>2026-04-28T09:21:21Z</time></trkpt><trkpt lat="35.48575644438452" lon="-5.417772309566509"><ele>146.0</ele><time>2026-04-28T09:21:22Z</time></trkpt><trkpt lat="35.48566184032928" lon="-5.417555594485591"><ele>150.0</ele><time>2026-04-28T09:21:23Z</time></trkpt><trkpt lat="35.48556782983849" lon="-5.417334644533441"><ele>154.0</ele><time>2026-04-28T09:21:24Z</time></trkpt><trkpt lat="35.4854753916939" lon="-5.41711111393091"><ele>151.0</ele><time>2026-04-28T09:21:25Z</time></trkpt><trkpt lat="35.48538305137803" lon="-5.416884463252848"><ele>148.0</ele><time>2026-04-28T09:21:26Z</time></trkpt><trkpt lat="35.48529744801846" lon="-5.416651997177452"><ele>145.0</ele><time>2026-04-28T09:21:27Z</time></trkpt><trkpt lat="35.48522848643233" lon="-5.416409378253187"><ele>147.66666666666669</ele><time>2026-04-28T09:21:28Z</time></trkpt><trkpt lat="35.485169851206685" lon="-5.416160737708525"><ele>150.33333333333334</ele><time>2026-04-28T09:21:29Z</time></trkpt><trkpt lat="35.485113250138696" lon="-5.415910883327235"><ele>153.0</ele><time>2026-04-28T09:21:30Z</time></trkpt><trkpt lat="35.485059039790336" lon="-5.415666486455074"><ele>154.66666666666666</ele><time>2026-04-28T09:21:31Z</time></trkpt><trkpt lat="35.485009652723726" lon="-5.415433005472413"><ele>156.33333333333331</ele><time>2026-04-28T09:21:32Z</time></trkpt><trkpt lat="35.48495604796067" lon="-5.415202708801283"><ele>158.0</ele><time>2026-04-28T09:21:33Z</time></trkpt><trkpt lat="35.484888497416925" lon="-5.41498042847771"><ele>158.0</ele><time>2026-04-28T09:21:34Z</time></trkpt><trkpt lat="35.48480843863468" lon="-5.414764353977075"><ele>158.0</ele><time>2026-04-28T09:21:35Z</time></trkpt><trkpt lat="35.48472881458021" lon="-5.414548006058722"><ele>158.0</ele><time>2026-04-28T09:21:36Z</time></trkpt><trkpt lat="35.484651482995204" lon="-5.414330402936936"><ele>158.0</ele><time>2026-04-28T09:21:37Z</time></trkpt><trkpt lat="35.48457406607706" lon="-5.41411460453301"><ele>158.0</ele><time>2026-04-28T09:21:38Z</time></trkpt><trkpt lat="35.48449880707591" lon="-5.413896693454676"><ele>158.0</ele><time>2026-04-28T09:21:39Z</time></trkpt><trkpt lat="35.48442615199638" lon="-5.413678688743302"><ele>158.0</ele><time>2026-04-28T09:21:40Z</time></trkpt><trkpt lat="35.484357840859225" lon="-5.413465624241104"><ele>158.0</ele><time>2026-04-28T09:21:41Z</time></trkpt><trkpt lat="35.4842946130831" lon="-5.413260414505555"><ele>158.0</ele><time>2026-04-28T09:21:42Z</time></trkpt><trkpt lat="35.4842368180799" lon="-5.413064419282402"><ele>159.66666666666666</ele><time>2026-04-28T09:21:43Z</time></trkpt><trkpt lat="35.484171448256916" lon="-5.412880558825401"><ele>161.33333333333334</ele><time>2026-04-28T09:21:44Z</time></trkpt><trkpt lat="35.48408814594011" lon="-5.4127214355951025"><ele>163.0</ele><time>2026-04-28T09:21:45Z</time></trkpt><trkpt lat="35.48397794688207" lon="-5.412583495758324"><ele>163.0</ele><time>2026-04-28T09:21:46Z</time></trkpt><trkpt lat="35.48385130246919" lon="-5.412458954069637"><ele>163.0</ele><time>2026-04-28T09:21:47Z</time></trkpt><trkpt lat="35.48368501763298" lon="-5.412388367327328"><ele>163.0</ele><time>2026-04-28T09:21:48Z</time></trkpt><trkpt lat="35.48352095264958" lon="-5.412324855976118"><ele>160.66666666666669</ele><time>2026-04-28T09:21:49Z</time></trkpt><trkpt lat="35.48335145096738" lon="-5.412239983129457"><ele>158.33333333333334</ele><time>2026-04-28T09:21:50Z</time></trkpt><trkpt lat="35.48318863821122" lon="-5.412162039531109"><ele>156.0</ele><time>2026-04-28T09:21:51Z</time></trkpt><trkpt lat="35.483042677567646" lon="-5.412069870903142"><ele>158.0</ele><time>2026-04-28T09:21:52Z</time></trkpt><trkpt lat="35.48291250353397" lon="-5.4119579457554625"><ele>160.0</ele><time>2026-04-28T09:21:53Z</time></trkpt><trkpt lat="35.48280704665159" lon="-5.411821489585365"><ele>162.0</ele><time>2026-04-28T09:21:54Z</time></trkpt><trkpt lat="35.4827204628007" lon="-5.411658887168329"><ele>162.0</ele><time>2026-04-28T09:21:55Z</time></trkpt><trkpt lat="35.48264415250195" lon="-5.41146662096792"><ele>162.0</ele><time>2026-04-28T09:21:56Z</time></trkpt><trkpt lat="35.48256658178459" lon="-5.411259610703867"><ele>162.0</ele><time>2026-04-28T09:21:57Z</time></trkpt><trkpt lat="35.48248890095843" lon="-5.411051803493353"><ele>164.66666666666666</ele><time>2026-04-28T09:21:58Z</time></trkpt><trkpt lat="35.48239576840022" lon="-5.410863612935249"><ele>167.33333333333331</ele><time>2026-04-28T09:21:59Z</time></trkpt><trkpt lat="35.482320130701254" lon="-5.410681649793975"><ele>170.0</ele><time>2026-04-28T09:22:00Z</time></trkpt><trkpt lat="35.48223256038975" lon="-5.410517524670169"><ele>169.0</ele><time>2026-04-28T09:22:01Z</time></trkpt><trkpt lat="35.482115198219475" lon="-5.410375861038382"><ele>168.0</ele><time>2026-04-28T09:22:02Z</time></trkpt><trkpt lat="35.481975745130484" lon="-5.410265068746038"><ele>167.0</ele><time>2026-04-28T09:22:03Z</time></trkpt><trkpt lat="35.48181701660938" lon="-5.410184901638162"><ele>167.0</ele><time>2026-04-28T09:22:04Z</time></trkpt><trkpt lat="35.48164141463858" lon="-5.410136438348282"><ele>167.0</ele><time>2026-04-28T09:22:05Z</time></trkpt><trkpt lat="35.48145735931172" lon="-5.410123853099226"><ele>167.0</ele><time>2026-04-28T09:22:06Z</time></trkpt><trkpt lat="35.48127685394058" lon="-5.410116905839617"><ele>168.0</ele><time>2026-04-28T09:22:07Z</time></trkpt><trkpt lat="35.48110815189287" lon="-5.410088218416073"><ele>169.0</ele><time>2026-04-28T09:22:08Z</time></trkpt><trkpt lat="35.48094668674055" lon="-5.410012065027871"><ele>170.0</ele><time>2026-04-28T09:22:09Z</time></trkpt><trkpt lat="35.48079757679204" lon="-5.409889198937029"><ele>170.0</ele><time>2026-04-28T09:22:10Z</time></trkpt><trkpt lat="35.4806653072148" lon="-5.4097332072674735"><ele>170.0</ele><time>2026-04-28T09:22:11Z</time></trkpt><trkpt lat="35.480571468403454" lon="-5.409531939288804"><ele>170.0</ele><time>2026-04-28T09:22:12Z</time></trkpt><trkpt lat="35.480454080500024" lon="-5.409344155718129"><ele>168.0</ele><time>2026-04-28T09:22:13Z</time></trkpt><trkpt lat="35.48035991974937" lon="-5.409139490378229"><ele>166.0</ele><time>2026-04-28T09:22:14Z</time></trkpt><trkpt lat="35.48024556584236" lon="-5.408958455214884"><ele>164.0</ele><time>2026-04-28T09:22:15Z</time></trkpt><trkpt lat="35.48010426819973" lon="-5.408817091000196"><ele>168.0</ele><time>2026-04-28T09:22:16Z</time></trkpt><trkpt lat="35.47994340681567" lon="-5.4087224025694915"><ele>172.0</ele><time>2026-04-28T09:22:17Z</time></trkpt><trkpt lat="35.47976624831442" lon="-5.408666836873034"><ele>176.0</ele><time>2026-04-28T09:22:18Z</time></trkpt><trkpt lat="35.479576298343474" lon="-5.408645811026731"><ele>176.0</ele><time>2026-04-28T09:22:19Z</time></trkpt><trkpt lat="35.47937714691562" lon="-5.408637493848706"><ele>176.0</ele><time>2026-04-28T09:22:20Z</time></trkpt><trkpt lat="35.47918067319089" lon="-5.408622080748232"><ele>176.0</ele><time>2026-04-28T09:22:21Z</time></trkpt><trkpt lat="35.47900052979402" lon="-5.408593681314134"><ele>176.0</ele><time>2026-04-28T09:22:22Z</time></trkpt><trkpt lat="35.47883590388629" lon="-5.408558908551116"><ele>176.0</ele><time>2026-04-28T09:22:23Z</time></trkpt><trkpt lat="35.478683167946436" lon="-5.408510212990782"><ele>176.0</ele><time>2026-04-28T09:22:24Z</time></trkpt><trkpt lat="35.47854400834354" lon="-5.408417871403635"><ele>176.66666666666666</ele><time>2026-04-28T09:22:25Z</time></trkpt><trkpt lat="35.47841863735946" lon="-5.408287930107446"><ele>177.33333333333334</ele><time>2026-04-28T09:22:26Z</time></trkpt><trkpt lat="35.47829840036823" lon="-5.408143384347848"><ele>178.0</ele><time>2026-04-28T09:22:27Z</time></trkpt><trkpt lat="35.478187206132745" lon="-5.407978913392574"><ele>178.0</ele><time>2026-04-28T09:22:28Z</time></trkpt><trkpt lat="35.47807796042343" lon="-5.407810340012296"><ele>178.0</ele><time>2026-04-28T09:22:29Z</time></trkpt><trkpt lat="35.47796686718213" lon="-5.4076478717607355"><ele>178.0</ele><time>2026-04-28T09:22:30Z</time></trkpt><trkpt lat="35.47783654604257" lon="-5.40750567833853"><ele>177.0</ele><time>2026-04-28T09:22:31Z</time></trkpt><trkpt lat="35.4776797357977" lon="-5.407405675184888"><ele>176.0</ele><time>2026-04-28T09:22:32Z</time></trkpt><trkpt lat="35.47751703536231" lon="-5.407324964289199"><ele>175.0</ele><time>2026-04-28T09:22:33Z</time></trkpt><trkpt lat="35.47735956601532" lon="-5.407261750555852"><ele>175.0</ele><time>2026-04-28T09:22:34Z</time></trkpt><trkpt lat="35.477212509150164" lon="-5.407214143797192"><ele>175.0</ele><time>2026-04-28T09:22:35Z</time></trkpt><trkpt lat="35.4770777928138" lon="-5.407169400211703"><ele>175.0</ele><time>2026-04-28T09:22:36Z</time></trkpt><trkpt lat="35.47695872765666" lon="-5.407123285644787"><ele>175.0</ele><time>2026-04-28T09:22:37Z</time></trkpt><trkpt lat="35.47685145588395" lon="-5.407088052572081"><ele>176.5</ele><time>2026-04-28T09:22:38Z</time></trkpt><trkpt lat="35.47675805223079" lon="-5.407071190559413"><ele>178.0</ele><time>2026-04-28T09:22:39Z</time></trkpt><trkpt lat="35.47667842188154" lon="-5.407074233635889"><ele>179.5</ele><time>2026-04-28T09:22:40Z</time></trkpt><trkpt lat="35.47660819935932" lon="-5.407079997334406"><ele>181.0</ele><time>2026-04-28T09:22:41Z</time></trkpt><trkpt lat="35.476543846321746" lon="-5.407073750611067"><ele>182.5</ele><time>2026-04-28T09:22:42Z</time></trkpt><trkpt lat="35.476476661949356" lon="-5.407037749421451"><ele>184.0</ele><time>2026-04-28T09:22:43Z</time></trkpt><trkpt lat="35.47638165569897" lon="-5.406994926919463"><ele>183.75</ele><time>2026-04-28T09:22:44Z</time></trkpt><trkpt lat="35.47626494795194" lon="-5.4069846179943095"><ele>183.5</ele><time>2026-04-28T09:22:45Z</time></trkpt><trkpt lat="35.47612677438855" lon="-5.406990873965658"><ele>183.25</ele><time>2026-04-28T09:22:46Z</time></trkpt><trkpt lat="35.47597511957938" lon="-5.40699034036149"><ele>183.0</ele><time>2026-04-28T09:22:47Z</time></trkpt><trkpt lat="35.47582772713282" lon="-5.406990274818036"><ele>183.0</ele><time>2026-04-28T09:22:48Z</time></trkpt><trkpt lat="35.47567497349872" lon="-5.406989249156886"><ele>183.0</ele><time>2026-04-28T09:22:49Z</time></trkpt><trkpt lat="35.47551244353345" lon="-5.4069837790929265"><ele>183.0</ele><time>2026-04-28T09:22:50Z</time></trkpt><trkpt lat="35.475354692955506" lon="-5.406961067298394"><ele>182.66666666666666</ele><time>2026-04-28T09:22:51Z</time></trkpt><trkpt lat="35.475195741471985" lon="-5.40691526694856"><ele>182.33333333333331</ele><time>2026-04-28T09:22:52Z</time></trkpt><trkpt lat="35.47503365717846" lon="-5.406850283552102"><ele>182.0</ele><time>2026-04-28T09:22:53Z</time></trkpt><trkpt lat="35.47487072840578" lon="-5.4067657328937315"><ele>182.0</ele><time>2026-04-28T09:22:54Z</time></trkpt><trkpt lat="35.474709146751145" lon="-5.406661270649436"><ele>182.0</ele><time>2026-04-28T09:22:55Z</time></trkpt><trkpt lat="35.47456147156557" lon="-5.406538465163255"><ele>182.0</ele><time>2026-04-28T09:22:56Z</time></trkpt><trkpt lat="35.47443487581652" lon="-5.406403050886665"><ele>184.66666666666666</ele><time>2026-04-28T09:22:57Z</time></trkpt><trkpt lat="35.47431962083778" lon="-5.406250210025037"><ele>187.33333333333334</ele><time>2026-04-28T09:22:58Z</time></trkpt><trkpt lat="35.4742092245953" lon="-5.406088304841006"><ele>190.0</ele><time>2026-04-28T09:22:58.999Z</time></trkpt><trkpt lat="35.47410283025329" lon="-5.405920188152255"><ele>190.0</ele><time>2026-04-28T09:22:59.999Z</time></trkpt><trkpt lat="35.47399494168932" lon="-5.405744330700191"><ele>190.0</ele><time>2026-04-28T09:23:00.999Z</time></trkpt><trkpt lat="35.47388059701199" lon="-5.405569067849326"><ele>190.0</ele><time>2026-04-28T09:23:01.999Z</time></trkpt><trkpt lat="35.473761185070195" lon="-5.40539828514445"><ele>189.0</ele><time>2026-04-28T09:23:02.999Z</time></trkpt><trkpt lat="35.47362441757846" lon="-5.405244754288224"><ele>188.0</ele><time>2026-04-28T09:23:03.999Z</time></trkpt><trkpt lat="35.47347007780707" lon="-5.405109532832747"><ele>187.0</ele><time>2026-04-28T09:23:04.999Z</time></trkpt><trkpt lat="35.473304893807175" lon="-5.404996121574927"><ele>187.0</ele><time>2026-04-28T09:23:05.999Z</time></trkpt><trkpt lat="35.47312796490651" lon="-5.404907845591393"><ele>187.0</ele><time>2026-04-28T09:23:06.999Z</time></trkpt><trkpt lat="35.47294967783466" lon="-5.404830969928036"><ele>187.0</ele><time>2026-04-28T09:23:07.999Z</time></trkpt><trkpt lat="35.47278049422292" lon="-5.40476385268356"><ele>186.0</ele><time>2026-04-28T09:23:08.999Z</time></trkpt><trkpt lat="35.47262178644179" lon="-5.404694944775389"><ele>185.0</ele><time>2026-04-28T09:23:09.999Z</time></trkpt><trkpt lat="35.47248219946024" lon="-5.404603660362626"><ele>184.0</ele><time>2026-04-28T09:23:10.999Z</time></trkpt><trkpt lat="35.47236856239738" lon="-5.404465685883658"><ele>186.66666666666669</ele><time>2026-04-28T09:23:11.999Z</time></trkpt><trkpt lat="35.472262997697726" lon="-5.40431069621052"><ele>189.33333333333334</ele><time>2026-04-28T09:23:13Z</time></trkpt><trkpt lat="35.47216043299528" lon="-5.40418396436749"><ele>192.0</ele><time>2026-04-28T09:23:14Z</time></trkpt><trkpt lat="35.47211819091641" lon="-5.403972720307307"><ele>190.66666666666666</ele><time>2026-04-28T09:23:15Z</time></trkpt><trkpt lat="35.47208479465663" lon="-5.403750222986048"><ele>189.33333333333331</ele><time>2026-04-28T09:23:16Z</time></trkpt><trkpt lat="35.472050130950265" lon="-5.403524980169865"><ele>188.0</ele><time>2026-04-28T09:23:17Z</time></trkpt><trkpt lat="35.472013579644" lon="-5.403320924560125"><ele>188.0</ele><time>2026-04-28T09:23:18Z</time></trkpt><trkpt lat="35.47196270831051" lon="-5.403134237058423"><ele>188.0</ele><time>2026-04-28T09:23:19Z</time></trkpt><trkpt lat="35.471880090617994" lon="-5.402980108574487"><ele>188.0</ele><time>2026-04-28T09:23:20Z</time></trkpt><trkpt lat="35.47177179443307" lon="-5.40285686813324"><ele>190.66666666666666</ele><time>2026-04-28T09:23:21Z</time></trkpt><trkpt lat="35.47164928178177" lon="-5.402753502231689"><ele>193.33333333333331</ele><time>2026-04-28T09:23:22Z</time></trkpt><trkpt lat="35.47151022520932" lon="-5.402675539662409"><ele>196.0</ele><time>2026-04-28T09:23:23Z</time></trkpt><trkpt lat="35.47135648132958" lon="-5.402639442721292"><ele>196.0</ele><time>2026-04-28T09:23:24Z</time></trkpt><trkpt lat="35.47120693611713" lon="-5.402637623494081"><ele>196.0</ele><time>2026-04-28T09:23:25Z</time></trkpt><trkpt lat="35.471064451485795" lon="-5.402665266662584"><ele>196.0</ele><time>2026-04-28T09:23:26Z</time></trkpt><trkpt lat="35.47094164199573" lon="-5.402700656548653"><ele>196.0</ele><time>2026-04-28T09:23:27Z</time></trkpt><trkpt lat="35.47082539787489" lon="-5.402737073631755"><ele>196.0</ele><time>2026-04-28T09:23:28Z</time></trkpt><trkpt lat="35.47071581256296" lon="-5.402761767400544"><ele>196.0</ele><time>2026-04-28T09:23:29Z</time></trkpt><trkpt lat="35.47061422226295" lon="-5.402803703327525"><ele>196.0</ele><time>2026-04-28T09:23:30Z</time></trkpt><trkpt lat="35.470512251212135" lon="-5.402861423267849"><ele>196.0</ele><time>2026-04-28T09:23:31Z</time></trkpt><trkpt lat="35.47040424363283" lon="-5.4029107266164615"><ele>196.0</ele><time>2026-04-28T09:23:32Z</time></trkpt><trkpt lat="35.47028936684306" lon="-5.40295148041879"><ele>195.5</ele><time>2026-04-28T09:23:33Z</time></trkpt><trkpt lat="35.470172229351284" lon="-5.402988272536562"><ele>195.0</ele><time>2026-04-28T09:23:34Z</time></trkpt><trkpt lat="35.47005146211782" lon="-5.403030603239285"><ele>194.5</ele><time>2026-04-28T09:23:35Z</time></trkpt><trkpt lat="35.469926450167506" lon="-5.4030777312047675"><ele>194.0</ele><time>2026-04-28T09:23:36Z</time></trkpt><trkpt lat="35.469801250932456" lon="-5.403121113339733"><ele>194.0</ele><time>2026-04-28T09:23:37Z</time></trkpt><trkpt lat="35.4696747159273" lon="-5.40316526452302"><ele>194.0</ele><time>2026-04-28T09:23:38Z</time></trkpt><trkpt lat="35.46954548616078" lon="-5.403207484479933"><ele>194.0</ele><time>2026-04-28T09:23:39Z</time></trkpt><trkpt lat="35.46941488529364" lon="-5.4032533803049985"><ele>194.0</ele><time>2026-04-28T09:23:40Z</time></trkpt><trkpt lat="35.46928293336178" lon="-5.4032993889456025"><ele>194.75</ele><time>2026-04-28T09:23:41Z</time></trkpt><trkpt lat="35.4691498375829" lon="-5.403346519335424"><ele>195.5</ele><time>2026-04-28T09:23:42Z</time></trkpt><trkpt lat="35.46901729522613" lon="-5.403393654594191"><ele>196.25</ele><time>2026-04-28T09:23:43Z</time></trkpt><trkpt lat="35.468882881463166" lon="-5.403439542646925"><ele>197.0</ele><time>2026-04-28T09:23:44Z</time></trkpt><trkpt lat="35.46874519977731" lon="-5.403482450699645"><ele>197.0</ele><time>2026-04-28T09:23:45Z</time></trkpt><trkpt lat="35.46859842148467" lon="-5.403530306653714"><ele>197.0</ele><time>2026-04-28T09:23:46Z</time></trkpt><trkpt lat="35.46844597132039" lon="-5.403582751087169"><ele>197.0</ele><time>2026-04-28T09:23:47Z</time></trkpt><trkpt lat="35.46828824671283" lon="-5.403636876998945"><ele>197.0</ele><time>2026-04-28T09:23:48Z</time></trkpt><trkpt lat="35.468134172868545" lon="-5.403689057813459"><ele>197.0</ele><time>2026-04-28T09:23:49Z</time></trkpt><trkpt lat="35.46797389955335" lon="-5.403745697758383"><ele>197.0</ele><time>2026-04-28T09:23:50Z</time></trkpt><trkpt lat="35.46780214752269" lon="-5.403806288609427"><ele>193.33333333333334</ele><time>2026-04-28T09:23:51Z</time></trkpt><trkpt lat="35.46763761025372" lon="-5.403859444824778"><ele>189.66666666666669</ele><time>2026-04-28T09:23:52Z</time></trkpt><trkpt lat="35.46748649462558" lon="-5.403895654841798"><ele>186.0</ele><time>2026-04-28T09:23:53Z</time></trkpt><trkpt lat="35.46734140289567" lon="-5.403910095584551"><ele>186.0</ele><time>2026-04-28T09:23:54Z</time></trkpt><trkpt lat="35.467195783218614" lon="-5.4038948610099515"><ele>186.0</ele><time>2026-04-28T09:23:55Z</time></trkpt><trkpt lat="35.46705388494353" lon="-5.403841934069719"><ele>186.0</ele><time>2026-04-28T09:23:56Z</time></trkpt><trkpt lat="35.46692141578493" lon="-5.403751392575676"><ele>186.0</ele><time>2026-04-28T09:23:57Z</time></trkpt><trkpt lat="35.46680573850526" lon="-5.403637008538229"><ele>186.0</ele><time>2026-04-28T09:23:58Z</time></trkpt><trkpt lat="35.46670014728608" lon="-5.4035029017261005"><ele>186.0</ele><time>2026-04-28T09:23:59Z</time></trkpt><trkpt lat="35.46660364450423" lon="-5.403358077117382"><ele>186.0</ele><time>2026-04-28T09:24:00Z</time></trkpt><trkpt lat="35.46650198653715" lon="-5.403216770569117"><ele>186.0</ele><time>2026-04-28T09:24:01Z</time></trkpt><trkpt lat="35.46638616701104" lon="-5.4030935437105425"><ele>186.0</ele><time>2026-04-28T09:24:02Z</time></trkpt><trkpt lat="35.466263614388524" lon="-5.403001899324863"><ele>186.0</ele><time>2026-04-28T09:24:03Z</time></trkpt><trkpt lat="35.46614061495615" lon="-5.402944724283135"><ele>186.0</ele><time>2026-04-28T09:24:04Z</time></trkpt><trkpt lat="35.46601405910067" lon="-5.4029219555682975"><ele>185.25</ele><time>2026-04-28T09:24:05Z</time></trkpt><trkpt lat="35.46589022004805" lon="-5.40293658512223"><ele>184.5</ele><time>2026-04-28T09:24:06Z</time></trkpt><trkpt lat="35.46577522570962" lon="-5.402992253336849"><ele>183.75</ele><time>2026-04-28T09:24:07Z</time></trkpt><trkpt lat="35.46566912382683" lon="-5.403080391413943"><ele>183.0</ele><time>2026-04-28T09:24:08Z</time></trkpt><trkpt lat="35.46554655335935" lon="-5.40312999348579"><ele>181.0</ele><time>2026-04-28T09:24:09Z</time></trkpt><trkpt lat="35.46547640277995" lon="-5.403327413029008"><ele>179.0</ele><time>2026-04-28T09:24:10Z</time></trkpt><trkpt lat="35.465404882669894" lon="-5.403482476010236"><ele>177.0</ele><time>2026-04-28T09:24:11Z</time></trkpt><trkpt lat="35.46534779518257" lon="-5.403654133662457"><ele>178.25</ele><time>2026-04-28T09:24:12Z</time></trkpt><trkpt lat="35.46527771124442" lon="-5.40381013944379"><ele>179.5</ele><time>2026-04-28T09:24:13Z</time></trkpt><trkpt lat="35.46517569850827" lon="-5.403936651482461"><ele>180.75</ele><time>2026-04-28T09:24:14Z</time></trkpt><trkpt lat="35.46505349669704" lon="-5.404055384116253"><ele>182.0</ele><time>2026-04-28T09:24:15Z</time></trkpt><trkpt lat="35.464915859351464" lon="-5.404157109462988"><ele>182.0</ele><time>2026-04-28T09:24:16Z</time></trkpt><trkpt lat="35.46476544693842" lon="-5.404243232913848"><ele>182.0</ele><time>2026-04-28T09:24:17Z</time></trkpt><trkpt lat="35.46460907284769" lon="-5.404320410848898"><ele>182.0</ele><time>2026-04-28T09:24:18Z</time></trkpt><trkpt lat="35.46444914992423" lon="-5.4043884169623055"><ele>184.0</ele><time>2026-04-28T09:24:19Z</time></trkpt><trkpt lat="35.46428162700954" lon="-5.404442835096512"><ele>186.0</ele><time>2026-04-28T09:24:20Z</time></trkpt><trkpt lat="35.464107947833746" lon="-5.404484929216834"><ele>188.0</ele><time>2026-04-28T09:24:21Z</time></trkpt><trkpt lat="35.46392628072532" lon="-5.404506989328022"><ele>188.66666666666666</ele><time>2026-04-28T09:24:22Z</time></trkpt><trkpt lat="35.46374132835114" lon="-5.4045120996960865"><ele>189.33333333333334</ele><time>2026-04-28T09:24:23Z</time></trkpt><trkpt lat="35.46355075635636" lon="-5.404507002780305"><ele>190.0</ele><time>2026-04-28T09:24:24Z</time></trkpt><trkpt lat="35.46336954691323" lon="-5.4045031604869305"><ele>190.0</ele><time>2026-04-28T09:24:25Z</time></trkpt><trkpt lat="35.46318651329861" lon="-5.404506268084074"><ele>190.0</ele><time>2026-04-28T09:24:26Z</time></trkpt><trkpt lat="35.462999847047975" lon="-5.404511936495442"><ele>190.0</ele><time>2026-04-28T09:24:27Z</time></trkpt><trkpt lat="35.46280931568438" lon="-5.404515289751073"><ele>190.66666666666669</ele><time>2026-04-28T09:24:28Z</time></trkpt><trkpt lat="35.462612865043646" lon="-5.4045172273210484"><ele>191.33333333333334</ele><time>2026-04-28T09:24:29Z</time></trkpt><trkpt lat="35.462416140621094" lon="-5.404523398419052"><ele>192.0</ele><time>2026-04-28T09:24:30Z</time></trkpt><trkpt lat="35.462224466652444" lon="-5.4045390212680156"><ele>193.66666666666669</ele><time>2026-04-28T09:24:31Z</time></trkpt><trkpt lat="35.462046536989" lon="-5.404573551626768"><ele>195.33333333333334</ele><time>2026-04-28T09:24:32Z</time></trkpt><trkpt lat="35.461883633743085" lon="-5.40462996517454"><ele>197.0</ele><time>2026-04-28T09:24:33Z</time></trkpt><trkpt lat="35.461731381268415" lon="-5.404685889350378"><ele>200.0</ele><time>2026-04-28T09:24:34Z</time></trkpt><trkpt lat="35.46158085542985" lon="-5.404731515820508"><ele>203.0</ele><time>2026-04-28T09:24:35Z</time></trkpt><trkpt lat="35.46143583923864" lon="-5.404768416216858"><ele>206.0</ele><time>2026-04-28T09:24:36Z</time></trkpt><trkpt lat="35.46129195384257" lon="-5.404804688143225"><ele>206.25</ele><time>2026-04-28T09:24:37Z</time></trkpt><trkpt lat="35.4611525240928" lon="-5.4048374522610345"><ele>206.5</ele><time>2026-04-28T09:24:38Z</time></trkpt><trkpt lat="35.46102189830506" lon="-5.404855074288893"><ele>206.75</ele><time>2026-04-28T09:24:39Z</time></trkpt><trkpt lat="35.46089850274137" lon="-5.404851615778963"><ele>207.0</ele><time>2026-04-28T09:24:40Z</time></trkpt><trkpt lat="35.46078441882003" lon="-5.404833466772392"><ele>207.0</ele><time>2026-04-28T09:24:41Z</time></trkpt><trkpt lat="35.46068032596424" lon="-5.404811855451546"><ele>207.0</ele><time>2026-04-28T09:24:42Z</time></trkpt><trkpt lat="35.46058512002615" lon="-5.404788402912397"><ele>207.0</ele><time>2026-04-28T09:24:43Z</time></trkpt><trkpt lat="35.460494217164644" lon="-5.404765887168086"><ele>207.0</ele><time>2026-04-28T09:24:44Z</time></trkpt><trkpt lat="35.460394312425336" lon="-5.404745659249069"><ele>207.0</ele><time>2026-04-28T09:24:45Z</time></trkpt><trkpt lat="35.46027794504074" lon="-5.4047285173275545"><ele>208.25</ele><time>2026-04-28T09:24:46Z</time></trkpt><trkpt lat="35.46014537337478" lon="-5.40472862534971"><ele>209.5</ele><time>2026-04-28T09:24:47Z</time></trkpt><trkpt lat="35.460011583690786" lon="-5.404762687870211"><ele>210.75</ele><time>2026-04-28T09:24:48Z</time></trkpt><trkpt lat="35.45987955079839" lon="-5.40484333191332"><ele>212.0</ele><time>2026-04-28T09:24:49Z</time></trkpt><trkpt lat="35.459748676280356" lon="-5.4049588530117845"><ele>212.0</ele><time>2026-04-28T09:24:50Z</time></trkpt><trkpt lat="35.4596271642311" lon="-5.405091912894435"><ele>212.0</ele><time>2026-04-28T09:24:51Z</time></trkpt><trkpt lat="35.45951564543885" lon="-5.405219587493404"><ele>212.0</ele><time>2026-04-28T09:24:52Z</time></trkpt><trkpt lat="35.45939361745689" lon="-5.405325364022431"><ele>212.75</ele><time>2026-04-28T09:24:53Z</time></trkpt><trkpt lat="35.459267888523264" lon="-5.405401490011303"><ele>213.5</ele><time>2026-04-28T09:24:54Z</time></trkpt><trkpt lat="35.459130560376884" lon="-5.405440684862451"><ele>214.25</ele><time>2026-04-28T09:24:55Z</time></trkpt><trkpt lat="35.458989023868554" lon="-5.405439981221104"><ele>215.0</ele><time>2026-04-28T09:24:56Z</time></trkpt><trkpt lat="35.45884072660816" lon="-5.405405178302673"><ele>218.33333333333334</ele><time>2026-04-28T09:24:57Z</time></trkpt><trkpt lat="35.45869056237401" lon="-5.405367230643011"><ele>221.66666666666669</ele><time>2026-04-28T09:24:57.999Z</time></trkpt><trkpt lat="35.45856048775672" lon="-5.405269383637111"><ele>225.0</ele><time>2026-04-28T09:24:58.999Z</time></trkpt><trkpt lat="35.45844582070642" lon="-5.405139969388075"><ele>225.0</ele><time>2026-04-28T09:24:59.999Z</time></trkpt><trkpt lat="35.45835911047748" lon="-5.404980255350904"><ele>225.0</ele><time>2026-04-28T09:25:00.999Z</time></trkpt><trkpt lat="35.458299280214156" lon="-5.404802241977372"><ele>225.0</ele><time>2026-04-28T09:25:01.999Z</time></trkpt><trkpt lat="35.45827792062234" lon="-5.404611929789327"><ele>226.0</ele><time>2026-04-28T09:25:02.999Z</time></trkpt><trkpt lat="35.45828319558254" lon="-5.404419961520928"><ele>227.0</ele><time>2026-04-28T09:25:03.999Z</time></trkpt><trkpt lat="35.4583217028801" lon="-5.404227994302431"><ele>228.0</ele><time>2026-04-28T09:25:04.999Z</time></trkpt><trkpt lat="35.45839828070657" lon="-5.404045191852778"><ele>228.0</ele><time>2026-04-28T09:25:05.999Z</time></trkpt><trkpt lat="35.45849583398713" lon="-5.403864718260858"><ele>228.0</ele><time>2026-04-28T09:25:06.999Z</time></trkpt><trkpt lat="35.45860121878793" lon="-5.403680088963123"><ele>228.0</ele><time>2026-04-28T09:25:07.999Z</time></trkpt><trkpt lat="35.458700012294685" lon="-5.403482913922869"><ele>227.33333333333331</ele><time>2026-04-28T09:25:08.999Z</time></trkpt><trkpt lat="35.45879193482324" lon="-5.403292961194455"><ele>226.66666666666666</ele><time>2026-04-28T09:25:09.999Z</time></trkpt><trkpt lat="35.458874578025664" lon="-5.403111602121926"><ele>226.0</ele><time>2026-04-28T09:25:10.999Z</time></trkpt><trkpt lat="35.458931345004565" lon="-5.402918743694751"><ele>226.0</ele><time>2026-04-28T09:25:11.999Z</time></trkpt><trkpt lat="35.458942112401104" lon="-5.402709571076757"><ele>226.0</ele><time>2026-04-28T09:25:12.999Z</time></trkpt><trkpt lat="35.45892039482486" lon="-5.402491069955547"><ele>226.0</ele><time>2026-04-28T09:25:13.999Z</time></trkpt><trkpt lat="35.45887583870966" lon="-5.402272233791936"><ele>227.0</ele><time>2026-04-28T09:25:14.999Z</time></trkpt><trkpt lat="35.45883451878889" lon="-5.402052567276131"><ele>228.0</ele><time>2026-04-28T09:25:15.999Z</time></trkpt><trkpt lat="35.45879859245858" lon="-5.401825404976693"><ele>229.0</ele><time>2026-04-28T09:25:16.999Z</time></trkpt><trkpt lat="35.45877040026009" lon="-5.40160511272059"><ele>235.66666666666666</ele><time>2026-04-28T09:25:17.999Z</time></trkpt><trkpt lat="35.45874354175843" lon="-5.401391320558337"><ele>242.33333333333331</ele><time>2026-04-28T09:25:19Z</time></trkpt><trkpt lat="35.4586977042069" lon="-5.401186739855112"><ele>249.0</ele><time>2026-04-28T09:25:20Z</time></trkpt><trkpt lat="35.458614043056684" lon="-5.400995376203189"><ele>249.0</ele><time>2026-04-28T09:25:21Z</time></trkpt><trkpt lat="35.45848912698814" lon="-5.400820522908552"><ele>249.0</ele><time>2026-04-28T09:25:22Z</time></trkpt><trkpt lat="35.458332105702624" lon="-5.4006652548891045"><ele>249.0</ele><time>2026-04-28T09:25:23Z</time></trkpt><trkpt lat="35.45816223237428" lon="-5.400515403549796"><ele>248.0</ele><time>2026-04-28T09:25:24Z</time></trkpt><trkpt lat="35.457992778566314" lon="-5.400350790802601"><ele>247.0</ele><time>2026-04-28T09:25:25Z</time></trkpt><trkpt lat="35.45782531846677" lon="-5.400178805082417"><ele>246.0</ele><time>2026-04-28T09:25:26Z</time></trkpt><trkpt lat="35.45766315614152" lon="-5.400015041164"><ele>244.33333333333331</ele><time>2026-04-28T09:25:27Z</time></trkpt><trkpt lat="35.45750778179816" lon="-5.399863531953202"><ele>242.66666666666666</ele><time>2026-04-28T09:25:28Z</time></trkpt><trkpt lat="35.45734629770445" lon="-5.3997423480222375"><ele>241.0</ele><time>2026-04-28T09:25:29Z</time></trkpt><trkpt lat="35.457169191905486" lon="-5.399670808957805"><ele>242.33333333333331</ele><time>2026-04-28T09:25:30Z</time></trkpt><trkpt lat="35.45697467758903" lon="-5.399660875802385"><ele>243.66666666666669</ele><time>2026-04-28T09:25:31Z</time></trkpt><trkpt lat="35.4567740772732" lon="-5.399672912151074"><ele>245.0</ele><time>2026-04-28T09:25:32Z</time></trkpt><trkpt lat="35.45656849802914" lon="-5.399684048459351"><ele>242.66666666666669</ele><time>2026-04-28T09:25:33Z</time></trkpt><trkpt lat="35.456359563827895" lon="-5.39968421395017"><ele>240.33333333333331</ele><time>2026-04-28T09:25:34Z</time></trkpt><trkpt lat="35.45614446952526" lon="-5.399678644536068"><ele>238.0</ele><time>2026-04-28T09:25:35Z</time></trkpt><trkpt lat="35.455928479352124" lon="-5.399662863590618"><ele>238.0</ele><time>2026-04-28T09:25:36Z</time></trkpt><trkpt lat="35.45571734998119" lon="-5.399619135361842"><ele>238.0</ele><time>2026-04-28T09:25:37Z</time></trkpt><trkpt lat="35.455508206200705" lon="-5.399537556939237"><ele>238.0</ele><time>2026-04-28T09:25:38Z</time></trkpt><trkpt lat="35.45529955271808" lon="-5.399429854005921"><ele>235.0</ele><time>2026-04-28T09:25:39Z</time></trkpt><trkpt lat="35.45509104974462" lon="-5.399320399572474"><ele>232.0</ele><time>2026-04-28T09:25:40Z</time></trkpt><trkpt lat="35.454876802492365" lon="-5.399219349260579"><ele>232.0</ele><time>2026-04-28T09:25:41Z</time></trkpt><trkpt lat="35.45466337394953" lon="-5.399123392614539"><ele>232.0</ele><time>2026-04-28T09:25:42Z</time></trkpt><trkpt lat="35.454461361875765" lon="-5.39903121156363"><ele>232.0</ele><time>2026-04-28T09:25:43Z</time></trkpt><trkpt lat="35.454268438588386" lon="-5.398945471629274"><ele>232.66666666666666</ele><time>2026-04-28T09:25:44Z</time></trkpt><trkpt lat="35.45408280540716" lon="-5.398862606729047"><ele>233.33333333333331</ele><time>2026-04-28T09:25:45Z</time></trkpt><trkpt lat="35.45390867624261" lon="-5.398781572330484"><ele>234.0</ele><time>2026-04-28T09:25:46Z</time></trkpt><trkpt lat="35.453745041252624" lon="-5.398688715252114"><ele>229.66666666666669</ele><time>2026-04-28T09:25:47Z</time></trkpt><trkpt lat="35.453599917398556" lon="-5.398565406716403"><ele>225.33333333333334</ele><time>2026-04-28T09:25:48Z</time></trkpt><trkpt lat="35.45347784006343" lon="-5.39841353352631"><ele>221.0</ele><time>2026-04-28T09:25:49Z</time></trkpt><trkpt lat="35.45338133299622" lon="-5.398239045670604"><ele>221.0</ele><time>2026-04-28T09:25:50Z</time></trkpt><trkpt lat="35.45330658560661" lon="-5.398037261633191"><ele>221.0</ele><time>2026-04-28T09:25:51Z</time></trkpt><trkpt lat="35.45325845147614" lon="-5.397818594990804"><ele>221.0</ele><time>2026-04-28T09:25:52Z</time></trkpt><trkpt lat="35.453236077934825" lon="-5.397584410989508"><ele>221.33333333333334</ele><time>2026-04-28T09:25:53Z</time></trkpt><trkpt lat="35.453233139968766" lon="-5.397344842221791"><ele>221.66666666666669</ele><time>2026-04-28T09:25:54Z</time></trkpt><trkpt lat="35.45322620451635" lon="-5.3971103084744705"><ele>222.0</ele><time>2026-04-28T09:25:55Z</time></trkpt><trkpt lat="35.45321283185049" lon="-5.396881546326257"><ele>222.0</ele><time>2026-04-28T09:25:56Z</time></trkpt><trkpt lat="35.453199128217214" lon="-5.396657322768833"><ele>222.0</ele><time>2026-04-28T09:25:57Z</time></trkpt><trkpt lat="35.45318707049394" lon="-5.396439294397546"><ele>222.0</ele><time>2026-04-28T09:25:58Z</time></trkpt><trkpt lat="35.45317457287898" lon="-5.396231097599174"><ele>220.33333333333331</ele><time>2026-04-28T09:25:59Z</time></trkpt><trkpt lat="35.45314596138593" lon="-5.396031946014064"><ele>218.66666666666666</ele><time>2026-04-28T09:26:00Z</time></trkpt><trkpt lat="35.45307330471863" lon="-5.3958492576380275"><ele>217.0</ele><time>2026-04-28T09:26:01Z</time></trkpt><trkpt lat="35.4529475533508" lon="-5.3957191069641555"><ele>218.0</ele><time>2026-04-28T09:26:02Z</time></trkpt><trkpt lat="35.45279892296079" lon="-5.39562013187845"><ele>219.0</ele><time>2026-04-28T09:26:03Z</time></trkpt><trkpt lat="35.45273111104531" lon="-5.395502821777694"><ele>220.0</ele><time>2026-04-28T09:26:04Z</time></trkpt><trkpt lat="35.452568839067716" lon="-5.395477906889261"><ele>220.0</ele><time>2026-04-28T09:26:05Z</time></trkpt><trkpt lat="35.45240506140989" lon="-5.39549817052393"><ele>220.0</ele><time>2026-04-28T09:26:06Z</time></trkpt><trkpt lat="35.45224694808964" lon="-5.395558362153835"><ele>220.0</ele><time>2026-04-28T09:26:07Z</time></trkpt><trkpt lat="35.45209838206209" lon="-5.395668477811393"><ele>219.33333333333331</ele><time>2026-04-28T09:26:08Z</time></trkpt><trkpt lat="35.4519581339057" lon="-5.395815235050294"><ele>218.66666666666669</ele><time>2026-04-28T09:26:09Z</time></trkpt><trkpt lat="35.451816159156294" lon="-5.395969740111918"><ele>218.0</ele><time>2026-04-28T09:26:10Z</time></trkpt><trkpt lat="35.45166823005309" lon="-5.396120496890243"><ele>218.0</ele><time>2026-04-28T09:26:11Z</time></trkpt><trkpt lat="35.451503619917005" lon="-5.39626651271213"><ele>218.0</ele><time>2026-04-28T09:26:12Z</time></trkpt><trkpt lat="35.45133918544648" lon="-5.396414248566036"><ele>218.0</ele><time>2026-04-28T09:26:13Z</time></trkpt><trkpt lat="35.451186978605435" lon="-5.396556498748835"><ele>220.0</ele><time>2026-04-28T09:26:14Z</time></trkpt><trkpt lat="35.45103489091785" lon="-5.396688535612497"><ele>222.0</ele><time>2026-04-28T09:26:15Z</time></trkpt><trkpt lat="35.45087960320758" lon="-5.396801350259841"><ele>224.0</ele><time>2026-04-28T09:26:16Z</time></trkpt><trkpt lat="35.45071878409889" lon="-5.396865331357249"><ele>224.0</ele><time>2026-04-28T09:26:17Z</time></trkpt><trkpt lat="35.450547694367714" lon="-5.3968869040631935"><ele>224.0</ele><time>2026-04-28T09:26:18Z</time></trkpt><trkpt lat="35.450373353310255" lon="-5.3968736569730495"><ele>224.0</ele><time>2026-04-28T09:26:19Z</time></trkpt><trkpt lat="35.45019906032498" lon="-5.396817016413168"><ele>224.66666666666669</ele><time>2026-04-28T09:26:20Z</time></trkpt><trkpt lat="35.450023748270745" lon="-5.396728973020792"><ele>225.33333333333331</ele><time>2026-04-28T09:26:21Z</time></trkpt><trkpt lat="35.44985264063304" lon="-5.396616846378252"><ele>226.0</ele><time>2026-04-28T09:26:22Z</time></trkpt><trkpt lat="35.449686451380124" lon="-5.39648844746763"><ele>224.0</ele><time>2026-04-28T09:26:23Z</time></trkpt><trkpt lat="35.44950230882308" lon="-5.3963685384351905"><ele>222.0</ele><time>2026-04-28T09:26:24Z</time></trkpt><trkpt lat="35.449315990111224" lon="-5.396254671486283"><ele>220.0</ele><time>2026-04-28T09:26:25Z</time></trkpt><trkpt lat="35.44913557906051" lon="-5.396145652623053"><ele>224.66666666666666</ele><time>2026-04-28T09:26:26Z</time></trkpt><trkpt lat="35.448966135265216" lon="-5.396028109680039"><ele>229.33333333333331</ele><time>2026-04-28T09:26:27Z</time></trkpt><trkpt lat="35.448803181312265" lon="-5.395918164628994"><ele>234.0</ele><time>2026-04-28T09:26:28Z</time></trkpt><trkpt lat="35.448646458812824" lon="-5.395809379551531"><ele>234.0</ele><time>2026-04-28T09:26:29Z</time></trkpt><trkpt lat="35.44850928142233" lon="-5.395688629952124"><ele>234.0</ele><time>2026-04-28T09:26:30Z</time></trkpt><trkpt lat="35.448397387393356" lon="-5.395546871612707"><ele>234.0</ele><time>2026-04-28T09:26:31Z</time></trkpt><trkpt lat="35.44832343189195" lon="-5.395378385487734"><ele>237.33333333333331</ele><time>2026-04-28T09:26:32Z</time></trkpt><trkpt lat="35.448280557667736" lon="-5.395184861714641"><ele>240.66666666666666</ele><time>2026-04-28T09:26:33Z</time></trkpt><trkpt lat="35.44826757905089" lon="-5.394971589220325"><ele>244.0</ele><time>2026-04-28T09:26:34Z</time></trkpt><trkpt lat="35.44826163226515" lon="-5.394756157991426"><ele>245.33333333333331</ele><time>2026-04-28T09:26:35Z</time></trkpt><trkpt lat="35.448252884696814" lon="-5.394547019893038"><ele>246.66666666666669</ele><time>2026-04-28T09:26:36Z</time></trkpt><trkpt lat="35.44823330111794" lon="-5.394349039845679"><ele>248.0</ele><time>2026-04-28T09:26:37Z</time></trkpt><trkpt lat="35.44820421130724" lon="-5.394160415129505"><ele>248.0</ele><time>2026-04-28T09:26:38Z</time></trkpt><trkpt lat="35.44815250017586" lon="-5.3939916750189205"><ele>248.0</ele><time>2026-04-28T09:26:39Z</time></trkpt><trkpt lat="35.4480832989213" lon="-5.393844693077638"><ele>248.0</ele><time>2026-04-28T09:26:40Z</time></trkpt><trkpt lat="35.44798218697798" lon="-5.393728906827307"><ele>248.0</ele><time>2026-04-28T09:26:41Z</time></trkpt><trkpt lat="35.4478603532093" lon="-5.39364163859921"><ele>250.33333333333334</ele><time>2026-04-28T09:26:42Z</time></trkpt><trkpt lat="35.447723900004796" lon="-5.3935859167001565"><ele>252.66666666666669</ele><time>2026-04-28T09:26:43Z</time></trkpt><trkpt lat="35.44757214789035" lon="-5.3935664141195865"><ele>255.0</ele><time>2026-04-28T09:26:44Z</time></trkpt><trkpt lat="35.44741595097286" lon="-5.393559122055996"><ele>255.0</ele><time>2026-04-28T09:26:45Z</time></trkpt><trkpt lat="35.447257527940124" lon="-5.39355005698486"><ele>255.0</ele><time>2026-04-28T09:26:46Z</time></trkpt><trkpt lat="35.44711012671971" lon="-5.393527830682727"><ele>255.0</ele><time>2026-04-28T09:26:47Z</time></trkpt><trkpt lat="35.446973816726796" lon="-5.393504467393085"><ele>255.0</ele><time>2026-04-28T09:26:48Z</time></trkpt><trkpt lat="35.446848165370824" lon="-5.3934964314582166"><ele>254.8</ele><time>2026-04-28T09:26:49Z</time></trkpt><trkpt lat="35.446739316064956" lon="-5.393506481057549"><ele>254.6</ele><time>2026-04-28T09:26:50Z</time></trkpt><trkpt lat="35.44663865350387" lon="-5.393515328141959"><ele>254.39999999999998</ele><time>2026-04-28T09:26:51Z</time></trkpt><trkpt lat="35.446548407447075" lon="-5.393498582614574"><ele>254.2</ele><time>2026-04-28T09:26:52Z</time></trkpt><trkpt lat="35.446467781441804" lon="-5.3934372054266575"><ele>254.0</ele><time>2026-04-28T09:26:53Z</time></trkpt><trkpt lat="35.44639042260942" lon="-5.393346245879398"><ele>254.0</ele><time>2026-04-28T09:26:54Z</time></trkpt><trkpt lat="35.44629766092946" lon="-5.393245410341694"><ele>254.0</ele><time>2026-04-28T09:26:55Z</time></trkpt><trkpt lat="35.44618158243348" lon="-5.393168108690484"><ele>254.0</ele><time>2026-04-28T09:26:56Z</time></trkpt><trkpt lat="35.44604700356172" lon="-5.393103482054797"><ele>254.0</ele><time>2026-04-28T09:26:56.999Z</time></trkpt><trkpt lat="35.445914312930604" lon="-5.39305000710834"><ele>255.66666666666669</ele><time>2026-04-28T09:26:57.999Z</time></trkpt><trkpt lat="35.44577708390965" lon="-5.393002170993773"><ele>257.3333333333333</ele><time>2026-04-28T09:26:58.999Z</time></trkpt><trkpt lat="35.4456284822222" lon="-5.392952906883404"><ele>259.0</ele><time>2026-04-28T09:26:59.999Z</time></trkpt><trkpt lat="35.44547097958419" lon="-5.392898984068204"><ele>257.0</ele><time>2026-04-28T09:27:00.999Z</time></trkpt><trkpt lat="35.44530107198907" lon="-5.392873571646265"><ele>255.0</ele><time>2026-04-28T09:27:01.999Z</time></trkpt><trkpt lat="35.445126964648715" lon="-5.392864641447127"><ele>253.0</ele><time>2026-04-28T09:27:02.999Z</time></trkpt><trkpt lat="35.444958666010905" lon="-5.392843860217921"><ele>253.0</ele><time>2026-04-28T09:27:03.999Z</time></trkpt><trkpt lat="35.44478898050958" lon="-5.392803178844054"><ele>253.0</ele><time>2026-04-28T09:27:04.999Z</time></trkpt><trkpt lat="35.44461434558354" lon="-5.392741297090292"><ele>253.0</ele><time>2026-04-28T09:27:05.999Z</time></trkpt><trkpt lat="35.44443846263901" lon="-5.392658742704295"><ele>250.66666666666666</ele><time>2026-04-28T09:27:06.999Z</time></trkpt><trkpt lat="35.444258327948425" lon="-5.392571508408635"><ele>248.33333333333331</ele><time>2026-04-28T09:27:07.999Z</time></trkpt><trkpt lat="35.44407323705001" lon="-5.392491285684252"><ele>246.0</ele><time>2026-04-28T09:27:08.999Z</time></trkpt><trkpt lat="35.4438884437338" lon="-5.3924190231519695"><ele>245.33333333333331</ele><time>2026-04-28T09:27:09.999Z</time></trkpt><trkpt lat="35.443712652190726" lon="-5.392349710693769"><ele>244.66666666666666</ele><time>2026-04-28T09:27:10.999Z</time></trkpt><trkpt lat="35.443543425735136" lon="-5.392286302763012"><ele>244.0</ele><time>2026-04-28T09:27:11.999Z</time></trkpt><trkpt lat="35.443376050058404" lon="-5.392248854912346"><ele>244.0</ele><time>2026-04-28T09:27:12.999Z</time></trkpt><trkpt lat="35.443205467523526" lon="-5.392256640827628"><ele>244.0</ele><time>2026-04-28T09:27:13.999Z</time></trkpt><trkpt lat="35.44303228106618" lon="-5.392304620547135"><ele>244.0</ele><time>2026-04-28T09:27:14.999Z</time></trkpt><trkpt lat="35.44286185702848" lon="-5.392393684526482"><ele>243.66666666666666</ele><time>2026-04-28T09:27:15.999Z</time></trkpt><trkpt lat="35.442696529001886" lon="-5.392485885438418"><ele>243.33333333333331</ele><time>2026-04-28T09:27:16.999Z</time></trkpt><trkpt lat="35.442534755148976" lon="-5.3925569694400926"><ele>243.0</ele><time>2026-04-28T09:27:17.999Z</time></trkpt><trkpt lat="35.442364232437015" lon="-5.392585988004524"><ele>243.0</ele><time>2026-04-28T09:27:18.999Z</time></trkpt><trkpt lat="35.44218919119514" lon="-5.392574789804548"><ele>243.0</ele><time>2026-04-28T09:27:19.999Z</time></trkpt><trkpt lat="35.442012355443296" lon="-5.39253385564335"><ele>243.0</ele><time>2026-04-28T09:27:20.999Z</time></trkpt><trkpt lat="35.44183622950281" lon="-5.392488043545844"><ele>241.0</ele><time>2026-04-28T09:27:21.999Z</time></trkpt><trkpt lat="35.441662301424664" lon="-5.392413682785818"><ele>239.0</ele><time>2026-04-28T09:27:22.999Z</time></trkpt><trkpt lat="35.441491787214275" lon="-5.39230720559861"><ele>237.0</ele><time>2026-04-28T09:27:23.999Z</time></trkpt><trkpt lat="35.441340102582" lon="-5.392169198245452"><ele>236.0</ele><time>2026-04-28T09:27:25Z</time></trkpt><trkpt lat="35.44119661351119" lon="-5.391979932635113"><ele>235.0</ele><time>2026-04-28T09:27:26Z</time></trkpt><trkpt lat="35.441089831550656" lon="-5.39174705106712"><ele>234.0</ele><time>2026-04-28T09:27:27Z</time></trkpt><trkpt lat="35.44099301173289" lon="-5.391554853939199"><ele>234.0</ele><time>2026-04-28T09:27:28Z</time></trkpt><trkpt lat="35.4409011921894" lon="-5.391370780087343"><ele>234.0</ele><time>2026-04-28T09:27:29Z</time></trkpt><trkpt lat="35.44081277089676" lon="-5.391195239981025"><ele>234.0</ele><time>2026-04-28T09:27:30Z</time></trkpt><trkpt lat="35.44073973378424" lon="-5.3910218907397285"><ele>235.0</ele><time>2026-04-28T09:27:31Z</time></trkpt><trkpt lat="35.44058910565473" lon="-5.390935814796152"><ele>236.0</ele><time>2026-04-28T09:27:32Z</time></trkpt><trkpt lat="35.44042573784099" lon="-5.39088099959154"><ele>237.0</ele><time>2026-04-28T09:27:33Z</time></trkpt><trkpt lat="35.44025211470213" lon="-5.390863110513131"><ele>237.0</ele><time>2026-04-28T09:27:34Z</time></trkpt><trkpt lat="35.44007339426116" lon="-5.390891392353567"><ele>237.0</ele><time>2026-04-28T09:27:35Z</time></trkpt><trkpt lat="35.4398875960597" lon="-5.390956197414012"><ele>237.0</ele><time>2026-04-28T09:27:36Z</time></trkpt><trkpt lat="35.43969746666926" lon="-5.391043017593577"><ele>237.0</ele><time>2026-04-28T09:27:37Z</time></trkpt><trkpt lat="35.439498144759476" lon="-5.39113268183052"><ele>237.0</ele><time>2026-04-28T09:27:38Z</time></trkpt><trkpt lat="35.43929579053528" lon="-5.391200772952774"><ele>237.0</ele><time>2026-04-28T09:27:39Z</time></trkpt><trkpt lat="35.43909011741133" lon="-5.391246469292205"><ele>237.0</ele><time>2026-04-28T09:27:40Z</time></trkpt><trkpt lat="35.43888593488771" lon="-5.391293044050022"><ele>237.0</ele><time>2026-04-28T09:27:41Z</time></trkpt><trkpt lat="35.43868086527495" lon="-5.39127033073246"><ele>237.0</ele><time>2026-04-28T09:27:42Z</time></trkpt><trkpt lat="35.43848503084808" lon="-5.391270192994551"><ele>237.0</ele><time>2026-04-28T09:27:43Z</time></trkpt><trkpt lat="35.43829468864686" lon="-5.39127101334951"><ele>237.0</ele><time>2026-04-28T09:27:44Z</time></trkpt><trkpt lat="35.43810976153218" lon="-5.391290793685029"><ele>237.0</ele><time>2026-04-28T09:27:45Z</time></trkpt><trkpt lat="35.437931120483384" lon="-5.391332815883876"><ele>230.0</ele><time>2026-04-28T09:27:46Z</time></trkpt><trkpt lat="35.43776188055588" lon="-5.3914131775272"><ele>223.0</ele><time>2026-04-28T09:27:47Z</time></trkpt><trkpt lat="35.437606850010006" lon="-5.391518961367009"><ele>216.0</ele><time>2026-04-28T09:27:48Z</time></trkpt><trkpt lat="35.437460562789305" lon="-5.391626717515092"><ele>216.0</ele><time>2026-04-28T09:27:49Z</time></trkpt><trkpt lat="35.43732927683984" lon="-5.391720522042396"><ele>216.0</ele><time>2026-04-28T09:27:50Z</time></trkpt><trkpt lat="35.43719699630719" lon="-5.391795799281039"><ele>216.0</ele><time>2026-04-28T09:27:51Z</time></trkpt><trkpt lat="35.43705717303695" lon="-5.391843011845225"><ele>216.0</ele><time>2026-04-28T09:27:52Z</time></trkpt><trkpt lat="35.436914927538496" lon="-5.391852327386814"><ele>215.33333333333331</ele><time>2026-04-28T09:27:53Z</time></trkpt><trkpt lat="35.436771127715794" lon="-5.391846667508087"><ele>214.66666666666666</ele><time>2026-04-28T09:27:54Z</time></trkpt><trkpt lat="35.43663939403108" lon="-5.3917548284991605"><ele>214.0</ele><time>2026-04-28T09:27:55Z</time></trkpt><trkpt lat="35.436505277443935" lon="-5.391660969088503"><ele>214.0</ele><time>2026-04-28T09:27:56Z</time></trkpt><trkpt lat="35.436371909034996" lon="-5.391538481617797"><ele>214.0</ele><time>2026-04-28T09:27:57Z</time></trkpt><trkpt lat="35.436247969928814" lon="-5.391403300119939"><ele>214.0</ele><time>2026-04-28T09:27:58Z</time></trkpt><trkpt lat="35.436116486664844" lon="-5.391262946253258"><ele>210.66666666666666</ele><time>2026-04-28T09:27:59Z</time></trkpt><trkpt lat="35.43597317551401" lon="-5.391129316123026"><ele>207.33333333333331</ele><time>2026-04-28T09:28:00Z</time></trkpt><trkpt lat="35.435817839123004" lon="-5.391001578732499"><ele>204.0</ele><time>2026-04-28T09:28:01Z</time></trkpt><trkpt lat="35.43566653022655" lon="-5.3908880049076595"><ele>204.0</ele><time>2026-04-28T09:28:02Z</time></trkpt><trkpt lat="35.435504511387684" lon="-5.390805081483322"><ele>204.0</ele><time>2026-04-28T09:28:03Z</time></trkpt><trkpt lat="35.43532762272004" lon="-5.390763788009161"><ele>204.0</ele><time>2026-04-28T09:28:04Z</time></trkpt><trkpt lat="35.43514607811192" lon="-5.390754532212126"><ele>206.0</ele><time>2026-04-28T09:28:05Z</time></trkpt><trkpt lat="35.43496542666773" lon="-5.390767689954022"><ele>208.0</ele><time>2026-04-28T09:28:06Z</time></trkpt><trkpt lat="35.43479090405241" lon="-5.390787285918224"><ele>210.0</ele><time>2026-04-28T09:28:07Z</time></trkpt><trkpt lat="35.43461897894931" lon="-5.390800841821966"><ele>210.0</ele><time>2026-04-28T09:28:08Z</time></trkpt><trkpt lat="35.43444380093169" lon="-5.390808019802912"><ele>210.0</ele><time>2026-04-28T09:28:09Z</time></trkpt><trkpt lat="35.43426563428703" lon="-5.390813945262069"><ele>210.0</ele><time>2026-04-28T09:28:10Z</time></trkpt><trkpt lat="35.434085686109874" lon="-5.390822534432223"><ele>210.0</ele><time>2026-04-28T09:28:11Z</time></trkpt><trkpt lat="35.43390303551881" lon="-5.390832627968199"><ele>210.0</ele><time>2026-04-28T09:28:12Z</time></trkpt><trkpt lat="35.43371675167388" lon="-5.390842715994991"><ele>210.0</ele><time>2026-04-28T09:28:13Z</time></trkpt><trkpt lat="35.43352965193061" lon="-5.390855250705508"><ele>211.33333333333331</ele><time>2026-04-28T09:28:14Z</time></trkpt><trkpt lat="35.43333742596008" lon="-5.3908712754767265"><ele>212.66666666666666</ele><time>2026-04-28T09:28:15Z</time></trkpt><trkpt lat="35.43314336777908" lon="-5.390892929040141"><ele>214.0</ele><time>2026-04-28T09:28:16Z</time></trkpt><trkpt lat="35.43294915682256" lon="-5.390938308733677"><ele>214.66666666666666</ele><time>2026-04-28T09:28:17Z</time></trkpt><trkpt lat="35.43275739124887" lon="-5.391013619110552"><ele>215.33333333333331</ele><time>2026-04-28T09:28:18Z</time></trkpt><trkpt lat="35.43256655889403" lon="-5.391108722411035"><ele>216.0</ele><time>2026-04-28T09:28:19Z</time></trkpt><trkpt lat="35.43237148314005" lon="-5.3912154334045255"><ele>216.0</ele><time>2026-04-28T09:28:20Z</time></trkpt><trkpt lat="35.43217525402366" lon="-5.391337485087322"><ele>216.0</ele><time>2026-04-28T09:28:21Z</time></trkpt><trkpt lat="35.43197930921446" lon="-5.391465885038517"><ele>216.0</ele><time>2026-04-28T09:28:22Z</time></trkpt><trkpt lat="35.43177854833972" lon="-5.391594793998302"><ele>211.0</ele><time>2026-04-28T09:28:23Z</time></trkpt><trkpt lat="35.43157367062759" lon="-5.391721626292808"><ele>206.0</ele><time>2026-04-28T09:28:24Z</time></trkpt><trkpt lat="35.43136502075393" lon="-5.391851511468472"><ele>208.0</ele><time>2026-04-28T09:28:25Z</time></trkpt><trkpt lat="35.4311557374966" lon="-5.391983308124709"><ele>210.0</ele><time>2026-04-28T09:28:26Z</time></trkpt><trkpt lat="35.43094520591901" lon="-5.3921175023549175"><ele>205.5</ele><time>2026-04-28T09:28:27Z</time></trkpt><trkpt lat="35.4307373346362" lon="-5.392245655729408"><ele>201.0</ele><time>2026-04-28T09:28:28Z</time></trkpt><trkpt lat="35.43054056170964" lon="-5.392365114236579"><ele>201.66666666666669</ele><time>2026-04-28T09:28:29Z</time></trkpt><trkpt lat="35.43035598846917" lon="-5.392481440519543"><ele>202.33333333333334</ele><time>2026-04-28T09:28:30Z</time></trkpt><trkpt lat="35.43017292985616" lon="-5.392597812560205"><ele>203.0</ele><time>2026-04-28T09:28:31Z</time></trkpt><trkpt lat="35.42998810476288" lon="-5.392712013257346"><ele>203.0</ele><time>2026-04-28T09:28:32Z</time></trkpt><trkpt lat="35.429801847459544" lon="-5.392823701185441"><ele>203.0</ele><time>2026-04-28T09:28:33Z</time></trkpt><trkpt lat="35.42961529032557" lon="-5.392933659884838"><ele>203.0</ele><time>2026-04-28T09:28:34Z</time></trkpt><trkpt lat="35.42942747320978" lon="-5.393040340562223"><ele>205.0</ele><time>2026-04-28T09:28:35Z</time></trkpt><trkpt lat="35.42923785204154" lon="-5.393145850490121"><ele>207.0</ele><time>2026-04-28T09:28:36Z</time></trkpt><trkpt lat="35.4290505679926" lon="-5.393245417882745"><ele>209.0</ele><time>2026-04-28T09:28:37Z</time></trkpt><trkpt lat="35.428855818898285" lon="-5.393322719970506"><ele>211.66666666666669</ele><time>2026-04-28T09:28:38Z</time></trkpt><trkpt lat="35.428659889681946" lon="-5.393370562486667"><ele>214.33333333333331</ele><time>2026-04-28T09:28:39Z</time></trkpt><trkpt lat="35.42845959666093" lon="-5.393380377816519"><ele>217.0</ele><time>2026-04-28T09:28:40Z</time></trkpt><trkpt lat="35.42826111402989" lon="-5.3933738864650245"><ele>217.0</ele><time>2026-04-28T09:28:41Z</time></trkpt><trkpt lat="35.42806592431861" lon="-5.3933507326229915"><ele>217.0</ele><time>2026-04-28T09:28:42Z</time></trkpt><trkpt lat="35.42787425798698" lon="-5.393309295383982"><ele>217.0</ele><time>2026-04-28T09:28:43Z</time></trkpt><trkpt lat="35.427686165725376" lon="-5.393257963053247"><ele>218.33333333333331</ele><time>2026-04-28T09:28:44Z</time></trkpt><trkpt lat="35.42749820569905" lon="-5.393206077529231"><ele>219.66666666666669</ele><time>2026-04-28T09:28:45Z</time></trkpt><trkpt lat="35.427311764272375" lon="-5.393155622338203"><ele>221.0</ele><time>2026-04-28T09:28:46Z</time></trkpt><trkpt lat="35.427126279681374" lon="-5.393109692917688"><ele>218.66666666666669</ele><time>2026-04-28T09:28:47Z</time></trkpt><trkpt lat="35.42694145017254" lon="-5.393060680741686"><ele>216.33333333333331</ele><time>2026-04-28T09:28:48Z</time></trkpt><trkpt lat="35.42675813669997" lon="-5.393008250167374"><ele>214.0</ele><time>2026-04-28T09:28:49Z</time></trkpt><trkpt lat="35.426574153351545" lon="-5.392960782209872"><ele>214.0</ele><time>2026-04-28T09:28:50Z</time></trkpt><trkpt lat="35.426387515982576" lon="-5.392917261743473"><ele>214.0</ele><time>2026-04-28T09:28:51Z</time></trkpt><trkpt lat="35.42620269243278" lon="-5.392873073155295"><ele>214.0</ele><time>2026-04-28T09:28:52Z</time></trkpt><trkpt lat="35.42601763523465" lon="-5.392832856531154"><ele>214.66666666666666</ele><time>2026-04-28T09:28:53Z</time></trkpt><trkpt lat="35.42583168452328" lon="-5.3928030186479"><ele>215.33333333333331</ele><time>2026-04-28T09:28:54Z</time></trkpt><trkpt lat="35.42564452780013" lon="-5.392775692720828"><ele>216.0</ele><time>2026-04-28T09:28:54.999Z</time></trkpt><trkpt lat="35.42545517730552" lon="-5.392743842283019"><ele>217.33333333333331</ele><time>2026-04-28T09:28:55.999Z</time></trkpt><trkpt lat="35.425267323506574" lon="-5.392710082379869"><ele>218.66666666666666</ele><time>2026-04-28T09:28:56.999Z</time></trkpt><trkpt lat="35.42507817903165" lon="-5.392674797370006"><ele>220.0</ele><time>2026-04-28T09:28:57.999Z</time></trkpt><trkpt lat="35.42488874212335" lon="-5.392636618345064"><ele>220.0</ele><time>2026-04-28T09:28:58.999Z</time></trkpt><trkpt lat="35.42469801832235" lon="-5.392604565432118"><ele>220.0</ele><time>2026-04-28T09:28:59.999Z</time></trkpt><trkpt lat="35.42450413464891" lon="-5.39257481549201"><ele>220.0</ele><time>2026-04-28T09:29:00.999Z</time></trkpt><trkpt lat="35.42431089267257" lon="-5.392542402234685"><ele>222.66666666666666</ele><time>2026-04-28T09:29:01.999Z</time></trkpt><trkpt lat="35.42411827241659" lon="-5.392505273050829"><ele>225.33333333333331</ele><time>2026-04-28T09:29:02.999Z</time></trkpt><trkpt lat="35.423925323617944" lon="-5.392466157218509"><ele>228.0</ele><time>2026-04-28T09:29:03.999Z</time></trkpt><trkpt lat="35.423731856534424" lon="-5.392429252271799"><ele>228.66666666666669</ele><time>2026-04-28T09:29:04.999Z</time></trkpt><trkpt lat="35.423535247986685" lon="-5.392393863810021"><ele>229.33333333333334</ele><time>2026-04-28T09:29:05.999Z</time></trkpt><trkpt lat="35.42333780051643" lon="-5.39235792331592"><ele>230.0</ele><time>2026-04-28T09:29:06.999Z</time></trkpt><trkpt lat="35.42313902568708" lon="-5.392320985214942"><ele>231.66666666666669</ele><time>2026-04-28T09:29:07.999Z</time></trkpt><trkpt lat="35.422938626848676" lon="-5.3922836329711"><ele>233.33333333333331</ele><time>2026-04-28T09:29:08.999Z</time></trkpt><trkpt lat="35.42273616505502" lon="-5.392247653646015"><ele>235.0</ele><time>2026-04-28T09:29:09.999Z</time></trkpt><trkpt lat="35.42253297328044" lon="-5.392215420005782"><ele>235.0</ele><time>2026-04-28T09:29:10.999Z</time></trkpt><trkpt lat="35.42233028765576" lon="-5.392183233018225"><ele>235.0</ele><time>2026-04-28T09:29:11.999Z</time></trkpt><trkpt lat="35.42212795474138" lon="-5.392148526517456"><ele>235.0</ele><time>2026-04-28T09:29:12.999Z</time></trkpt><trkpt lat="35.42192756675505" lon="-5.392114199529632"><ele>232.0</ele><time>2026-04-28T09:29:13.999Z</time></trkpt><trkpt lat="35.421730075694974" lon="-5.392080448478439"><ele>229.0</ele><time>2026-04-28T09:29:14.999Z</time></trkpt><trkpt lat="35.421533123294324" lon="-5.392047269271323"><ele>226.0</ele><time>2026-04-28T09:29:15.999Z</time></trkpt><trkpt lat="35.4213400508532" lon="-5.392009005036978"><ele>227.33333333333331</ele><time>2026-04-28T09:29:16.999Z</time></trkpt><trkpt lat="35.42115278626817" lon="-5.391958490231643"><ele>228.66666666666669</ele><time>2026-04-28T09:29:17.999Z</time></trkpt><trkpt lat="35.42097086679479" lon="-5.391886155750527"><ele>230.0</ele><time>2026-04-28T09:29:18.999Z</time></trkpt><trkpt lat="35.42079788580395" lon="-5.391787453156407"><ele>230.0</ele><time>2026-04-28T09:29:19.999Z</time></trkpt><trkpt lat="35.42063662972941" lon="-5.391662918516778"><ele>230.0</ele><time>2026-04-28T09:29:20.999Z</time></trkpt><trkpt lat="35.42048593283222" lon="-5.391517517098791"><ele>230.0</ele><time>2026-04-28T09:29:21.999Z</time></trkpt><trkpt lat="35.42035045856505" lon="-5.3913500315838805"><ele>229.33333333333334</ele><time>2026-04-28T09:29:22.999Z</time></trkpt><trkpt lat="35.420229029843235" lon="-5.39116278238929"><ele>228.66666666666669</ele><time>2026-04-28T09:29:23.999Z</time></trkpt><trkpt lat="35.42012262552925" lon="-5.3909590300116195"><ele>228.0</ele><time>2026-04-28T09:29:24.999Z</time></trkpt><trkpt lat="35.420026858482686" lon="-5.39074260621144"><ele>228.0</ele><time>2026-04-28T09:29:25.999Z</time></trkpt><trkpt lat="35.41993195095199" lon="-5.390521149494372"><ele>228.0</ele><time>2026-04-28T09:29:26.999Z</time></trkpt><trkpt lat="35.41983230532101" lon="-5.390299644516177"><ele>228.0</ele><time>2026-04-28T09:29:27.999Z</time></trkpt><trkpt lat="35.41973223710827" lon="-5.390079158076428"><ele>227.66666666666669</ele><time>2026-04-28T09:29:28.999Z</time></trkpt><trkpt lat="35.4196332806645" lon="-5.38985952414465"><ele>227.33333333333334</ele><time>2026-04-28T09:29:29.999Z</time></trkpt><trkpt lat="35.41953492952467" lon="-5.389640943089833"><ele>227.0</ele><time>2026-04-28T09:29:31Z</time></trkpt><trkpt lat="35.41943695274035" lon="-5.389423214585051"><ele>227.0</ele><time>2026-04-28T09:29:32Z</time></trkpt><trkpt lat="35.41934472116617" lon="-5.389206541558448"><ele>227.0</ele><time>2026-04-28T09:29:33Z</time></trkpt><trkpt lat="35.41925571569968" lon="-5.388989002139839"><ele>227.0</ele><time>2026-04-28T09:29:34Z</time></trkpt><trkpt lat="35.419155737438096" lon="-5.388781786377767"><ele>226.0</ele><time>2026-04-28T09:29:35Z</time></trkpt><trkpt lat="35.41903691592338" lon="-5.388594492210262"><ele>225.0</ele><time>2026-04-28T09:29:36Z</time></trkpt><trkpt lat="35.418900703529275" lon="-5.388428798941281"><ele>224.0</ele><time>2026-04-28T09:29:37Z</time></trkpt><trkpt lat="35.41875128195967" lon="-5.388281229215086"><ele>224.0</ele><time>2026-04-28T09:29:38Z</time></trkpt><trkpt lat="35.418595701601596" lon="-5.388145984674981"><ele>224.0</ele><time>2026-04-28T09:29:39Z</time></trkpt><trkpt lat="35.41843680539542" lon="-5.388014533644037"><ele>224.0</ele><time>2026-04-28T09:29:40Z</time></trkpt><trkpt lat="35.418275809701726" lon="-5.387887563923175"><ele>224.0</ele><time>2026-04-28T09:29:41Z</time></trkpt><trkpt lat="35.41811258793481" lon="-5.387763457262434"><ele>224.0</ele><time>2026-04-28T09:29:42Z</time></trkpt><trkpt lat="35.41794940259985" lon="-5.387641175975762"><ele>224.0</ele><time>2026-04-28T09:29:43Z</time></trkpt><trkpt lat="35.41778663809358" lon="-5.387517541502991"><ele>225.33333333333334</ele><time>2026-04-28T09:29:44Z</time></trkpt><trkpt lat="35.41762542170446" lon="-5.387391381274983"><ele>226.66666666666669</ele><time>2026-04-28T09:29:45Z</time></trkpt><trkpt lat="35.41746489784251" lon="-5.387263299932899"><ele>228.0</ele><time>2026-04-28T09:29:46Z</time></trkpt><trkpt lat="35.4173059061435" lon="-5.387135829441218"><ele>231.33333333333331</ele><time>2026-04-28T09:29:47Z</time></trkpt><trkpt lat="35.41714650326554" lon="-5.387008588663515"><ele>234.66666666666666</ele><time>2026-04-28T09:29:48Z</time></trkpt><trkpt lat="35.41698689318412" lon="-5.386882200979124"><ele>238.0</ele><time>2026-04-28T09:29:49Z</time></trkpt><trkpt lat="35.416827310157416" lon="-5.386753689702944"><ele>238.0</ele><time>2026-04-28T09:29:50Z</time></trkpt><trkpt lat="35.416667386734204" lon="-5.386622390678024"><ele>238.0</ele><time>2026-04-28T09:29:51Z</time></trkpt><trkpt lat="35.4165072521313" lon="-5.386491229568299"><ele>238.0</ele><time>2026-04-28T09:29:52Z</time></trkpt><trkpt lat="35.41634682319664" lon="-5.386358961115554"><ele>236.66666666666666</ele><time>2026-04-28T09:29:53Z</time></trkpt><trkpt lat="35.41618845289863" lon="-5.386223040256575"><ele>235.33333333333331</ele><time>2026-04-28T09:29:54Z</time></trkpt><trkpt lat="35.41603287592633" lon="-5.386083935342584"><ele>234.0</ele><time>2026-04-28T09:29:55Z</time></trkpt><trkpt lat="35.41587966588884" lon="-5.385947887955904"><ele>234.0</ele><time>2026-04-28T09:29:56Z</time></trkpt><trkpt lat="35.41573589765167" lon="-5.385820072544813"><ele>234.0</ele><time>2026-04-28T09:29:57Z</time></trkpt><trkpt lat="35.41560112608116" lon="-5.385698343207225"><ele>234.0</ele><time>2026-04-28T09:29:58Z</time></trkpt><trkpt lat="35.41547193668106" lon="-5.385583495728187"><ele>235.0</ele><time>2026-04-28T09:29:59Z</time></trkpt><trkpt lat="35.41534904214764" lon="-5.385468429322713"><ele>236.0</ele><time>2026-04-28T09:30:00Z</time></trkpt><trkpt lat="35.41520934733307" lon="-5.385385916571796"><ele>237.0</ele><time>2026-04-28T09:30:01Z</time></trkpt><trkpt lat="35.41509089102964" lon="-5.385288336830269"><ele>237.0</ele><time>2026-04-28T09:30:02Z</time></trkpt><trkpt lat="35.414970251812136" lon="-5.385188497852606"><ele>237.0</ele><time>2026-04-28T09:30:03Z</time></trkpt><trkpt lat="35.414847575797396" lon="-5.38510627594643"><ele>237.0</ele><time>2026-04-28T09:30:04Z</time></trkpt><trkpt lat="35.414733460626266" lon="-5.385038480083425"><ele>237.0</ele><time>2026-04-28T09:30:05Z</time></trkpt><trkpt lat="35.41460963082141" lon="-5.3849810569804575"><ele>237.5</ele><time>2026-04-28T09:30:06Z</time></trkpt><trkpt lat="35.41448217124028" lon="-5.384930690315797"><ele>238.0</ele><time>2026-04-28T09:30:07Z</time></trkpt><trkpt lat="35.41437199297129" lon="-5.384858938798596"><ele>238.5</ele><time>2026-04-28T09:30:08Z</time></trkpt><trkpt lat="35.41428017651428" lon="-5.3847483517748325"><ele>239.0</ele><time>2026-04-28T09:30:09Z</time></trkpt><trkpt lat="35.41418889619366" lon="-5.38461414668511"><ele>239.0</ele><time>2026-04-28T09:30:10Z</time></trkpt><trkpt lat="35.414088962981" lon="-5.384494264243814"><ele>239.0</ele><time>2026-04-28T09:30:11Z</time></trkpt><trkpt lat="35.413989370928185" lon="-5.3843939502791685"><ele>239.0</ele><time>2026-04-28T09:30:12Z</time></trkpt><trkpt lat="35.41389290581417" lon="-5.384304736647486"><ele>239.0</ele><time>2026-04-28T09:30:13Z</time></trkpt><trkpt lat="35.41380111787483" lon="-5.384231156323276"><ele>240.79999999999998</ele><time>2026-04-28T09:30:14Z</time></trkpt><trkpt lat="35.4137194226534" lon="-5.3841617099394705"><ele>242.59999999999997</ele><time>2026-04-28T09:30:15Z</time></trkpt><trkpt lat="35.413643434910476" lon="-5.384097406580998"><ele>244.4</ele><time>2026-04-28T09:30:16Z</time></trkpt><trkpt lat="35.41357722151482" lon="-5.384042887839236"><ele>246.2</ele><time>2026-04-28T09:30:17Z</time></trkpt><trkpt lat="35.41352131733414" lon="-5.383998259035853"><ele>248.0</ele><time>2026-04-28T09:30:18Z</time></trkpt><trkpt lat="35.41342443271828" lon="-5.383924503030408"><ele>248.00000000000003</ele><time>2026-04-28T09:30:20Z</time></trkpt><trkpt lat="35.41334067594732" lon="-5.38385384576278"><ele>248.0</ele><time>2026-04-28T09:30:22Z</time></trkpt><trkpt lat="35.41326348307749" lon="-5.383795168244616"><ele>248.0</ele><time>2026-04-28T09:30:24Z</time></trkpt><trkpt lat="35.41318980679865" lon="-5.383732801657761"><ele>248.0</ele><time>2026-04-28T09:30:26Z</time></trkpt><trkpt lat="35.413136482046866" lon="-5.383683296474838"><ele>248.00000000000003</ele><time>2026-04-28T09:30:28Z</time></trkpt><trkpt lat="35.41307424492044" lon="-5.383631934960666"><ele>248.0</ele><time>2026-04-28T09:30:30Z</time></trkpt><trkpt lat="35.4130172143488" lon="-5.383593278827905"><ele>248.8</ele><time>2026-04-28T09:30:31Z</time></trkpt><trkpt lat="35.41295226630903" lon="-5.383540733833304"><ele>249.60000000000002</ele><time>2026-04-28T09:30:32Z</time></trkpt><trkpt lat="35.41288082597323" lon="-5.38348325465732"><ele>250.39999999999998</ele><time>2026-04-28T09:30:33Z</time></trkpt><trkpt lat="35.41280011471635" lon="-5.38341340800801"><ele>251.2</ele><time>2026-04-28T09:30:34Z</time></trkpt><trkpt lat="35.41271752905148" lon="-5.38334352979371"><ele>252.0</ele><time>2026-04-28T09:30:35Z</time></trkpt><trkpt lat="35.41261824966556" lon="-5.383260228675509"><ele>252.0</ele><time>2026-04-28T09:30:36Z</time></trkpt><trkpt lat="35.412517291927465" lon="-5.383166864502885"><ele>252.0</ele><time>2026-04-28T09:30:37Z</time></trkpt><trkpt lat="35.41242388786273" lon="-5.383068241646994"><ele>252.0</ele><time>2026-04-28T09:30:38Z</time></trkpt><trkpt lat="35.412330303572865" lon="-5.3829603234017664"><ele>252.0</ele><time>2026-04-28T09:30:39Z</time></trkpt><trkpt lat="35.41223600807128" lon="-5.382841358992428"><ele>252.75</ele><time>2026-04-28T09:30:40Z</time></trkpt><trkpt lat="35.41214139380906" lon="-5.38271826184335"><ele>253.5</ele><time>2026-04-28T09:30:41Z</time></trkpt><trkpt lat="35.41204540972649" lon="-5.382594596593961"><ele>254.25</ele><time>2026-04-28T09:30:42Z</time></trkpt><trkpt lat="35.41194944638178" lon="-5.382469555951321"><ele>255.0</ele><time>2026-04-28T09:30:43Z</time></trkpt><trkpt lat="35.41185200427063" lon="-5.3823455469019255"><ele>255.0</ele><time>2026-04-28T09:30:44Z</time></trkpt><trkpt lat="35.411747829145014" lon="-5.382219100750733"><ele>255.0</ele><time>2026-04-28T09:30:45Z</time></trkpt><trkpt lat="35.411642380312955" lon="-5.382087794660948"><ele>255.0</ele><time>2026-04-28T09:30:46Z</time></trkpt><trkpt lat="35.411536991171744" lon="-5.38194990122832"><ele>256.6666666666667</ele><time>2026-04-28T09:30:47Z</time></trkpt><trkpt lat="35.4114285986105" lon="-5.381811880815801"><ele>258.33333333333337</ele><time>2026-04-28T09:30:48Z</time></trkpt><trkpt lat="35.411318697811396" lon="-5.381678576619074"><ele>260.0</ele><time>2026-04-28T09:30:49Z</time></trkpt><trkpt lat="35.411204100225845" lon="-5.38155331894999"><ele>260.0</ele><time>2026-04-28T09:30:50Z</time></trkpt><trkpt lat="35.41107510655485" lon="-5.381437362355062"><ele>260.0</ele><time>2026-04-28T09:30:51Z</time></trkpt><trkpt lat="35.410928537194394" lon="-5.381341757498204"><ele>260.0</ele><time>2026-04-28T09:30:52Z</time></trkpt><trkpt lat="35.41077200243703" lon="-5.381260035978273"><ele>259.0</ele><time>2026-04-28T09:30:53Z</time></trkpt><trkpt lat="35.410606511198594" lon="-5.381186878685729"><ele>258.0</ele><time>2026-04-28T09:30:54Z</time></trkpt><trkpt lat="35.41043137456489" lon="-5.381134186665613"><ele>257.0</ele><time>2026-04-28T09:30:55Z</time></trkpt><trkpt lat="35.41025037237997" lon="-5.381101137304057"><ele>257.0</ele><time>2026-04-28T09:30:55.999Z</time></trkpt><trkpt lat="35.410068919101825" lon="-5.381082796208568"><ele>257.0</ele><time>2026-04-28T09:30:56.999Z</time></trkpt><trkpt lat="35.40988555186066" lon="-5.381068856727912"><ele>257.0</ele><time>2026-04-28T09:30:57.999Z</time></trkpt><trkpt lat="35.40970548849795" lon="-5.381051326961608"><ele>258.0</ele><time>2026-04-28T09:30:58.999Z</time></trkpt><trkpt lat="35.409537901683414" lon="-5.3810250953556125"><ele>259.0</ele><time>2026-04-28T09:30:59.999Z</time></trkpt><trkpt lat="35.40937697081213" lon="-5.380999447073107"><ele>260.0</ele><time>2026-04-28T09:31:00.999Z</time></trkpt><trkpt lat="35.40922658318849" lon="-5.3809617853165665"><ele>260.0</ele><time>2026-04-28T09:31:01.999Z</time></trkpt><trkpt lat="35.40908647822531" lon="-5.380896030868376"><ele>260.0</ele><time>2026-04-28T09:31:02.999Z</time></trkpt><trkpt lat="35.40895519622699" lon="-5.380793933756057"><ele>260.0</ele><time>2026-04-28T09:31:03.999Z</time></trkpt><trkpt lat="35.40884274727535" lon="-5.380662646473885"><ele>262.0</ele><time>2026-04-28T09:31:04.999Z</time></trkpt><trkpt lat="35.4087531093778" lon="-5.38050655807849"><ele>264.0</ele><time>2026-04-28T09:31:05.999Z</time></trkpt><trkpt lat="35.40869217015213" lon="-5.380329332308342"><ele>266.0</ele><time>2026-04-28T09:31:06.999Z</time></trkpt><trkpt lat="35.40866696370461" lon="-5.380137297515837"><ele>266.0</ele><time>2026-04-28T09:31:07.999Z</time></trkpt><trkpt lat="35.40867623873526" lon="-5.379938860888955"><ele>266.0</ele><time>2026-04-28T09:31:08.999Z</time></trkpt><trkpt lat="35.40871383061495" lon="-5.379738206211476"><ele>266.0</ele><time>2026-04-28T09:31:09.999Z</time></trkpt><trkpt lat="35.40876739436945" lon="-5.379535430531838"><ele>264.33333333333337</ele><time>2026-04-28T09:31:10.999Z</time></trkpt><trkpt lat="35.40882077670667" lon="-5.379338799205841"><ele>262.6666666666667</ele><time>2026-04-28T09:31:11.999Z</time></trkpt><trkpt lat="35.408866401339395" lon="-5.3791404824359645"><ele>261.0</ele><time>2026-04-28T09:31:12.999Z</time></trkpt><trkpt lat="35.40889582055213" lon="-5.378948740533511"><ele>260.6666666666667</ele><time>2026-04-28T09:31:13.999Z</time></trkpt><trkpt lat="35.4088927092668" lon="-5.378761398170736"><ele>260.33333333333337</ele><time>2026-04-28T09:31:14.999Z</time></trkpt><trkpt lat="35.40883436732092" lon="-5.378590684903383"><ele>260.0</ele><time>2026-04-28T09:31:15.999Z</time></trkpt><trkpt lat="35.408746143216284" lon="-5.3784346979605395"><ele>263.33333333333337</ele><time>2026-04-28T09:31:16.999Z</time></trkpt><trkpt lat="35.40863764871818" lon="-5.378287771305454"><ele>266.6666666666667</ele><time>2026-04-28T09:31:17.999Z</time></trkpt><trkpt lat="35.40852039732044" lon="-5.378138597423156"><ele>270.0</ele><time>2026-04-28T09:31:18.999Z</time></trkpt><trkpt lat="35.40840425053099" lon="-5.377978151329489"><ele>270.0</ele><time>2026-04-28T09:31:19.999Z</time></trkpt><trkpt lat="35.40828310676154" lon="-5.377816274744934"><ele>270.0</ele><time>2026-04-28T09:31:20.999Z</time></trkpt><trkpt lat="35.40815529638386" lon="-5.377646249748156"><ele>270.0</ele><time>2026-04-28T09:31:21.999Z</time></trkpt><trkpt lat="35.40802601201521" lon="-5.377470905635893"><ele>274.6666666666667</ele><time>2026-04-28T09:31:22.999Z</time></trkpt><trkpt lat="35.407889496910705" lon="-5.377297092290918"><ele>279.33333333333337</ele><time>2026-04-28T09:31:23.999Z</time></trkpt><trkpt lat="35.407748544509595" lon="-5.377131972220009"><ele>284.0</ele><time>2026-04-28T09:31:24.999Z</time></trkpt><trkpt lat="35.4076102659545" lon="-5.3769709583565755"><ele>284.0</ele><time>2026-04-28T09:31:25.999Z</time></trkpt><trkpt lat="35.407476179651816" lon="-5.376812428995238"><ele>284.0</ele><time>2026-04-28T09:31:26.999Z</time></trkpt><trkpt lat="35.407338116602865" lon="-5.376660993270179"><ele>284.0</ele><time>2026-04-28T09:31:27.999Z</time></trkpt><trkpt lat="35.40718919983861" lon="-5.376534192160187"><ele>284.0</ele><time>2026-04-28T09:31:28.999Z</time></trkpt><trkpt lat="35.407022907922475" lon="-5.3764296912756455"><ele>284.0</ele><time>2026-04-28T09:31:29.999Z</time></trkpt><trkpt lat="35.40684678375655" lon="-5.376355774899619"><ele>284.0</ele><time>2026-04-28T09:31:30.999Z</time></trkpt><trkpt lat="35.40666244041099" lon="-5.376304440464481"><ele>284.0</ele><time>2026-04-28T09:31:31.999Z</time></trkpt><trkpt lat="35.40647389133596" lon="-5.376279484697385"><ele>284.0</ele><time>2026-04-28T09:31:32.999Z</time></trkpt><trkpt lat="35.40627799301104" lon="-5.37627576186081"><ele>284.0</ele><time>2026-04-28T09:31:33.999Z</time></trkpt><trkpt lat="35.40607580553805" lon="-5.376284025102359"><ele>286.6666666666667</ele><time>2026-04-28T09:31:34.999Z</time></trkpt><trkpt lat="35.405871100462875" lon="-5.376299004851159"><ele>289.3333333333333</ele><time>2026-04-28T09:31:36Z</time></trkpt><trkpt lat="35.40566731017931" lon="-5.376315694659656"><ele>292.0</ele><time>2026-04-28T09:31:37Z</time></trkpt><trkpt lat="35.40546325439409" lon="-5.376327298167529"><ele>294.66666666666663</ele><time>2026-04-28T09:31:38Z</time></trkpt><trkpt lat="35.40526050874163" lon="-5.376326243899154"><ele>297.3333333333333</ele><time>2026-04-28T09:31:39Z</time></trkpt><trkpt lat="35.40505732293856" lon="-5.376307311013352"><ele>300.0</ele><time>2026-04-28T09:31:40Z</time></trkpt><trkpt lat="35.40485571923318" lon="-5.376266212856453"><ele>302.3333333333333</ele><time>2026-04-28T09:31:41Z</time></trkpt><trkpt lat="35.4046547019644" lon="-5.376210955689476"><ele>304.66666666666663</ele><time>2026-04-28T09:31:42Z</time></trkpt><trkpt lat="35.40445238617547" lon="-5.376145153161383"><ele>307.0</ele><time>2026-04-28T09:31:43Z</time></trkpt><trkpt lat="35.40425039876483" lon="-5.376079602987531"><ele>307.0</ele><time>2026-04-28T09:31:44Z</time></trkpt><trkpt lat="35.40404493549047" lon="-5.376017001261341"><ele>307.0</ele><time>2026-04-28T09:31:45Z</time></trkpt><trkpt lat="35.40383804584298" lon="-5.375955374300526"><ele>307.0</ele><time>2026-04-28T09:31:46Z</time></trkpt><trkpt lat="35.40363217280919" lon="-5.375887283106199"><ele>308.66666666666663</ele><time>2026-04-28T09:31:47Z</time></trkpt><trkpt lat="35.40342891012428" lon="-5.37581347915523"><ele>310.3333333333333</ele><time>2026-04-28T09:31:48Z</time></trkpt><trkpt lat="35.40322545106095" lon="-5.375733950206803"><ele>312.0</ele><time>2026-04-28T09:31:49Z</time></trkpt><trkpt lat="35.403026311824625" lon="-5.37564208891262"><ele>314.3333333333333</ele><time>2026-04-28T09:31:50Z</time></trkpt><trkpt lat="35.40283014602691" lon="-5.375535726781855"><ele>316.66666666666663</ele><time>2026-04-28T09:31:51Z</time></trkpt><trkpt lat="35.40263629267347" lon="-5.375422766157462"><ele>319.0</ele><time>2026-04-28T09:31:52Z</time></trkpt><trkpt lat="35.40244227481084" lon="-5.375314263930922"><ele>319.0</ele><time>2026-04-28T09:31:53Z</time></trkpt><trkpt lat="35.40224572440646" lon="-5.37520616365457"><ele>319.0</ele><time>2026-04-28T09:31:54Z</time></trkpt><trkpt lat="35.40205003001385" lon="-5.375095263416495"><ele>319.0</ele><time>2026-04-28T09:31:55Z</time></trkpt><trkpt lat="35.401851293062826" lon="-5.37498275533041"><ele>321.66666666666663</ele><time>2026-04-28T09:31:56Z</time></trkpt><trkpt lat="35.40165454258927" lon="-5.374874754812321"><ele>324.3333333333333</ele><time>2026-04-28T09:31:57Z</time></trkpt><trkpt lat="35.40145886449321" lon="-5.374764158167777"><ele>327.0</ele><time>2026-04-28T09:31:58Z</time></trkpt><trkpt lat="35.40126523006219" lon="-5.374658061277232"><ele>327.3333333333333</ele><time>2026-04-28T09:31:59Z</time></trkpt><trkpt lat="35.40107191998913" lon="-5.374552800359125"><ele>327.66666666666663</ele><time>2026-04-28T09:32:00Z</time></trkpt><trkpt lat="35.40088162418571" lon="-5.374446185424611"><ele>328.0</ele><time>2026-04-28T09:32:01Z</time></trkpt><trkpt lat="35.40069489257023" lon="-5.374331513373296"><ele>328.0</ele><time>2026-04-28T09:32:02Z</time></trkpt><trkpt lat="35.4005189793007" lon="-5.374202830998219"><ele>328.0</ele><time>2026-04-28T09:32:03Z</time></trkpt><trkpt lat="35.400355277802326" lon="-5.374051754210943"><ele>328.0</ele><time>2026-04-28T09:32:04Z</time></trkpt><trkpt lat="35.40020501389195" lon="-5.373884472887643"><ele>331.3333333333333</ele><time>2026-04-28T09:32:05Z</time></trkpt><trkpt lat="35.400063293357356" lon="-5.373696798992491"><ele>334.6666666666667</ele><time>2026-04-28T09:32:06Z</time></trkpt><trkpt lat="35.399932994252396" lon="-5.373498374260211"><ele>338.0</ele><time>2026-04-28T09:32:07Z</time></trkpt><trkpt lat="35.39981588521442" lon="-5.37328518788175"><ele>338.0</ele><time>2026-04-28T09:32:08Z</time></trkpt><trkpt lat="35.39969734009626" lon="-5.373072774233366"><ele>338.0</ele><time>2026-04-28T09:32:09Z</time></trkpt><trkpt lat="35.399576905507814" lon="-5.372866225574059"><ele>338.0</ele><time>2026-04-28T09:32:10Z</time></trkpt><trkpt lat="35.39945495355666" lon="-5.3726564860823665"><ele>341.6666666666667</ele><time>2026-04-28T09:32:11Z</time></trkpt><trkpt lat="35.39933449635024" lon="-5.372446882673969"><ele>345.3333333333333</ele><time>2026-04-28T09:32:12Z</time></trkpt><trkpt lat="35.39921137532574" lon="-5.372238231352182"><ele>349.0</ele><time>2026-04-28T09:32:13Z</time></trkpt><trkpt lat="35.39908608201874" lon="-5.372034289603524"><ele>349.0</ele><time>2026-04-28T09:32:14Z</time></trkpt><trkpt lat="35.39896080006446" lon="-5.371826652065538"><ele>349.0</ele><time>2026-04-28T09:32:15Z</time></trkpt><trkpt lat="35.398842247580454" lon="-5.3716166056565005"><ele>349.0</ele><time>2026-04-28T09:32:16Z</time></trkpt><trkpt lat="35.398717039879585" lon="-5.371419207148257"><ele>353.66666666666663</ele><time>2026-04-28T09:32:17Z</time></trkpt><trkpt lat="35.39856122956305" lon="-5.371261729398903"><ele>358.3333333333333</ele><time>2026-04-28T09:32:18Z</time></trkpt><trkpt lat="35.3983890895655" lon="-5.371140010547262"><ele>363.0</ele><time>2026-04-28T09:32:19Z</time></trkpt><trkpt lat="35.398206918262616" lon="-5.371043437325976"><ele>363.0</ele><time>2026-04-28T09:32:20Z</time></trkpt><trkpt lat="35.398017405247714" lon="-5.370973142192258"><ele>363.0</ele><time>2026-04-28T09:32:21Z</time></trkpt><trkpt lat="35.39781954308927" lon="-5.37093619278253"><ele>363.0</ele><time>2026-04-28T09:32:22Z</time></trkpt><trkpt lat="35.397619104547786" lon="-5.3709260518261"><ele>364.0</ele><time>2026-04-28T09:32:23Z</time></trkpt><trkpt lat="35.39742053437501" lon="-5.370947035893328"><ele>365.0</ele><time>2026-04-28T09:32:24Z</time></trkpt><trkpt lat="35.39722387214677" lon="-5.370995156434194"><ele>366.0</ele><time>2026-04-28T09:32:25Z</time></trkpt><trkpt lat="35.39703525555042" lon="-5.37108291132993"><ele>367.3333333333333</ele><time>2026-04-28T09:32:26Z</time></trkpt><trkpt lat="35.39686147262489" lon="-5.371194833003285"><ele>368.66666666666663</ele><time>2026-04-28T09:32:27Z</time></trkpt><trkpt lat="35.39669156099697" lon="-5.371314119792119"><ele>370.0</ele><time>2026-04-28T09:32:28Z</time></trkpt><trkpt lat="35.39652010605336" lon="-5.3714304004501585"><ele>371.0</ele><time>2026-04-28T09:32:29Z</time></trkpt><trkpt lat="35.39634175979149" lon="-5.3715368848020155"><ele>372.0</ele><time>2026-04-28T09:32:30Z</time></trkpt><trkpt lat="35.39616299631214" lon="-5.371643561001373"><ele>373.0</ele><time>2026-04-28T09:32:31Z</time></trkpt><trkpt lat="35.39598049608991" lon="-5.371747517768315"><ele>374.3333333333333</ele><time>2026-04-28T09:32:32Z</time></trkpt><trkpt lat="35.39579542623476" lon="-5.371847931726412"><ele>375.6666666666667</ele><time>2026-04-28T09:32:33Z</time></trkpt><trkpt lat="35.39560918687783" lon="-5.371945202617205"><ele>377.0</ele><time>2026-04-28T09:32:34Z</time></trkpt><trkpt lat="35.39541184920071" lon="-5.372024558778755"><ele>378.33333333333337</ele><time>2026-04-28T09:32:35Z</time></trkpt><trkpt lat="35.39521365645312" lon="-5.372076803005147"><ele>379.6666666666667</ele><time>2026-04-28T09:32:36Z</time></trkpt><trkpt lat="35.395008342136464" lon="-5.372110666434946"><ele>381.0</ele><time>2026-04-28T09:32:37Z</time></trkpt><trkpt lat="35.39480391843896" lon="-5.372141120650675"><ele>380.6666666666667</ele><time>2026-04-28T09:32:38Z</time></trkpt><trkpt lat="35.39459898577612" lon="-5.372177619405858"><ele>380.33333333333337</ele><time>2026-04-28T09:32:39Z</time></trkpt><trkpt lat="35.39439438364075" lon="-5.37221576579924"><ele>380.0</ele><time>2026-04-28T09:32:40Z</time></trkpt><trkpt lat="35.394188177829776" lon="-5.372253641875492"><ele>383.0</ele><time>2026-04-28T09:32:41Z</time></trkpt><trkpt lat="35.39398038735519" lon="-5.372289312614091"><ele>386.0</ele><time>2026-04-28T09:32:42Z</time></trkpt><trkpt lat="35.393772202973516" lon="-5.372325122549063"><ele>389.0</ele><time>2026-04-28T09:32:43Z</time></trkpt><trkpt lat="35.39356863735536" lon="-5.3723667234518215"><ele>391.0</ele><time>2026-04-28T09:32:44Z</time></trkpt><trkpt lat="35.39336507443311" lon="-5.372405648447385"><ele>393.0</ele><time>2026-04-28T09:32:45Z</time></trkpt><trkpt lat="35.39316221909041" lon="-5.3724455748458295"><ele>395.0</ele><time>2026-04-28T09:32:46Z</time></trkpt><trkpt lat="35.392959195272724" lon="-5.372483368252692"><ele>397.3333333333333</ele><time>2026-04-28T09:32:47Z</time></trkpt><trkpt lat="35.392755067439374" lon="-5.372519760854904"><ele>399.66666666666663</ele><time>2026-04-28T09:32:48Z</time></trkpt><trkpt lat="35.39255271372278" lon="-5.372557866813298"><ele>402.0</ele><time>2026-04-28T09:32:49Z</time></trkpt><trkpt lat="35.392351118710046" lon="-5.372597726862797"><ele>402.0</ele><time>2026-04-28T09:32:50Z</time></trkpt><trkpt lat="35.392147421778674" lon="-5.372637433204069"><ele>402.0</ele><time>2026-04-28T09:32:51Z</time></trkpt><trkpt lat="35.3919446910377" lon="-5.372674911679907"><ele>402.0</ele><time>2026-04-28T09:32:52Z</time></trkpt><trkpt lat="35.39174377366353" lon="-5.3727061990006275"><ele>402.0</ele><time>2026-04-28T09:32:53Z</time></trkpt><trkpt lat="35.39155437913496" lon="-5.372735557111185"><ele>402.0</ele><time>2026-04-28T09:32:54Z</time></trkpt><trkpt lat="35.39137621299234" lon="-5.372762318027323"><ele>402.0</ele><time>2026-04-28T09:32:55Z</time></trkpt><trkpt lat="35.39119846341464" lon="-5.372789293882727"><ele>402.66666666666663</ele><time>2026-04-28T09:32:55.999Z</time></trkpt><trkpt lat="35.39102090479345" lon="-5.372811133472811"><ele>403.3333333333333</ele><time>2026-04-28T09:32:56.999Z</time></trkpt><trkpt lat="35.39084349418286" lon="-5.3728342341793"><ele>404.0</ele><time>2026-04-28T09:32:57.999Z</time></trkpt><trkpt lat="35.39066691960263" lon="-5.372864077275942"><ele>405.3333333333333</ele><time>2026-04-28T09:32:58.999Z</time></trkpt><trkpt lat="35.39049030330564" lon="-5.372898711160965"><ele>406.66666666666663</ele><time>2026-04-28T09:32:59.999Z</time></trkpt><trkpt lat="35.390313867019614" lon="-5.372931507452969"><ele>408.0</ele><time>2026-04-28T09:33:00.999Z</time></trkpt><trkpt lat="35.39013915533838" lon="-5.372963059097598"><ele>408.0</ele><time>2026-04-28T09:33:01.999Z</time></trkpt><trkpt lat="35.389965069927044" lon="-5.3729951427919875"><ele>408.0</ele><time>2026-04-28T09:33:02.999Z</time></trkpt><trkpt lat="35.389792160043584" lon="-5.373025635217964"><ele>408.0</ele><time>2026-04-28T09:33:03.999Z</time></trkpt><trkpt lat="35.389617698046834" lon="-5.37305628042846"><ele>412.0</ele><time>2026-04-28T09:33:04.999Z</time></trkpt><trkpt lat="35.38944232043451" lon="-5.373085404597444"><ele>416.0</ele><time>2026-04-28T09:33:05.999Z</time></trkpt><trkpt lat="35.38927072357912" lon="-5.373115442170042"><ele>420.0</ele><time>2026-04-28T09:33:06.999Z</time></trkpt><trkpt lat="35.38910158466847" lon="-5.373146731614681"><ele>420.0</ele><time>2026-04-28T09:33:07.999Z</time></trkpt><trkpt lat="35.38893496530319" lon="-5.373177447947214"><ele>420.0</ele><time>2026-04-28T09:33:08.999Z</time></trkpt><trkpt lat="35.38876953200183" lon="-5.373211432212079"><ele>420.0</ele><time>2026-04-28T09:33:09.999Z</time></trkpt><trkpt lat="35.38860646425945" lon="-5.373257104429345"><ele>421.0</ele><time>2026-04-28T09:33:10.999Z</time></trkpt><trkpt lat="35.38844518182788" lon="-5.373315606604497"><ele>422.0</ele><time>2026-04-28T09:33:11.999Z</time></trkpt><trkpt lat="35.388297918697965" lon="-5.373402747294021"><ele>423.0</ele><time>2026-04-28T09:33:12.999Z</time></trkpt><trkpt lat="35.38816724277583" lon="-5.373496593696021"><ele>423.0</ele><time>2026-04-28T09:33:13.999Z</time></trkpt><trkpt lat="35.38805120833596" lon="-5.373596274089403"><ele>423.0</ele><time>2026-04-28T09:33:14.999Z</time></trkpt><trkpt lat="35.387953676727854" lon="-5.373707647587506"><ele>423.0</ele><time>2026-04-28T09:33:15.999Z</time></trkpt><trkpt lat="35.387875941717034" lon="-5.373831657869148"><ele>423.0</ele><time>2026-04-28T09:33:16.999Z</time></trkpt><trkpt lat="35.38780427492497" lon="-5.373957148527727"><ele>423.5</ele><time>2026-04-28T09:33:17.999Z</time></trkpt><trkpt lat="35.38771102481398" lon="-5.374045014127569"><ele>424.0</ele><time>2026-04-28T09:33:18.999Z</time></trkpt><trkpt lat="35.38759604538351" lon="-5.374096792904482"><ele>424.5</ele><time>2026-04-28T09:33:19.999Z</time></trkpt><trkpt lat="35.387476837902994" lon="-5.374166085016365"><ele>425.0</ele><time>2026-04-28T09:33:20.999Z</time></trkpt><trkpt lat="35.38736403659782" lon="-5.374266048122204"><ele>425.0</ele><time>2026-04-28T09:33:21.999Z</time></trkpt><trkpt lat="35.38724808263737" lon="-5.3743797674917495"><ele>425.0</ele><time>2026-04-28T09:33:22.999Z</time></trkpt><trkpt lat="35.387126557501084" lon="-5.374498344052288"><ele>425.0</ele><time>2026-04-28T09:33:23.999Z</time></trkpt><trkpt lat="35.38699971603925" lon="-5.37461724707976"><ele>428.66666666666663</ele><time>2026-04-28T09:33:24.999Z</time></trkpt><trkpt lat="35.38687205281677" lon="-5.374735817432759"><ele>432.33333333333337</ele><time>2026-04-28T09:33:25.999Z</time></trkpt><trkpt lat="35.386744154650664" lon="-5.374857291242846"><ele>436.0</ele><time>2026-04-28T09:33:26.999Z</time></trkpt><trkpt lat="35.386608564994745" lon="-5.374967678213302"><ele>436.0</ele><time>2026-04-28T09:33:27.999Z</time></trkpt><trkpt lat="35.386457225098376" lon="-5.375038860965369"><ele>436.0</ele><time>2026-04-28T09:33:28.999Z</time></trkpt><trkpt lat="35.38629203821647" lon="-5.375059183287278"><ele>436.0</ele><time>2026-04-28T09:33:29.999Z</time></trkpt><trkpt lat="35.38611947788986" lon="-5.375047348256457"><ele>435.0</ele><time>2026-04-28T09:33:30.999Z</time></trkpt><trkpt lat="35.385985675623516" lon="-5.37512152867028"><ele>434.0</ele><time>2026-04-28T09:33:31.999Z</time></trkpt><trkpt lat="35.38582269328924" lon="-5.375069867528798"><ele>433.0</ele><time>2026-04-28T09:33:32.999Z</time></trkpt><trkpt lat="35.3856647068527" lon="-5.374971909277041"><ele>433.0</ele><time>2026-04-28T09:33:33.999Z</time></trkpt><trkpt lat="35.38551627683403" lon="-5.374849135908854"><ele>433.0</ele><time>2026-04-28T09:33:34.999Z</time></trkpt><trkpt lat="35.385369634200636" lon="-5.3747185693805966"><ele>433.0</ele><time>2026-04-28T09:33:35.999Z</time></trkpt><trkpt lat="35.38520796647661" lon="-5.374603354329199"><ele>434.6666666666667</ele><time>2026-04-28T09:33:36.999Z</time></trkpt><trkpt lat="35.385043942612256" lon="-5.374491033662433"><ele>436.33333333333337</ele><time>2026-04-28T09:33:37.999Z</time></trkpt><trkpt lat="35.38488280668781" lon="-5.374371988936052"><ele>438.0</ele><time>2026-04-28T09:33:38.999Z</time></trkpt><trkpt lat="35.38471869270584" lon="-5.3742407562671035"><ele>438.66666666666663</ele><time>2026-04-28T09:33:39.999Z</time></trkpt><trkpt lat="35.3845489632988" lon="-5.374108510789993"><ele>439.3333333333333</ele><time>2026-04-28T09:33:40.999Z</time></trkpt><trkpt lat="35.38437961463449" lon="-5.373977656732531"><ele>440.0</ele><time>2026-04-28T09:33:42Z</time></trkpt><trkpt lat="35.384209191367844" lon="-5.3738488116532634"><ele>440.0</ele><time>2026-04-28T09:33:43Z</time></trkpt><trkpt lat="35.38404613923751" lon="-5.373718552669585"><ele>440.0</ele><time>2026-04-28T09:33:44Z</time></trkpt><trkpt lat="35.38388747876074" lon="-5.373602544284927"><ele>440.0</ele><time>2026-04-28T09:33:45Z</time></trkpt><trkpt lat="35.38374065322479" lon="-5.373491954885016"><ele>443.0</ele><time>2026-04-28T09:33:46Z</time></trkpt><trkpt lat="35.383597085486386" lon="-5.37339482438549"><ele>446.0</ele><time>2026-04-28T09:33:47Z</time></trkpt><trkpt lat="35.383445789231686" lon="-5.373335668596672"><ele>449.0</ele><time>2026-04-28T09:33:48Z</time></trkpt><trkpt lat="35.38328542624377" lon="-5.3733087306354586"><ele>449.0</ele><time>2026-04-28T09:33:49Z</time></trkpt><trkpt lat="35.38311704043344" lon="-5.373315825106708"><ele>449.0</ele><time>2026-04-28T09:33:50Z</time></trkpt><trkpt lat="35.382943405177784" lon="-5.373349129369363"><ele>449.0</ele><time>2026-04-28T09:33:51Z</time></trkpt><trkpt lat="35.38277365883454" lon="-5.373415506758183"><ele>448.3333333333333</ele><time>2026-04-28T09:33:52Z</time></trkpt><trkpt lat="35.382604576465184" lon="-5.373503500793305"><ele>447.66666666666663</ele><time>2026-04-28T09:33:53Z</time></trkpt><trkpt lat="35.38244914072053" lon="-5.373566942015148"><ele>447.0</ele><time>2026-04-28T09:33:54Z</time></trkpt><trkpt lat="35.38228961961561" lon="-5.373601924066443"><ele>447.66666666666663</ele><time>2026-04-28T09:33:55Z</time></trkpt><trkpt lat="35.38212354994011" lon="-5.3736094399229755"><ele>448.3333333333333</ele><time>2026-04-28T09:33:56Z</time></trkpt><trkpt lat="35.381957668680606" lon="-5.373580100112805"><ele>449.0</ele><time>2026-04-28T09:33:57Z</time></trkpt><trkpt lat="35.381788582762375" lon="-5.373520223725742"><ele>449.0</ele><time>2026-04-28T09:33:58Z</time></trkpt><trkpt lat="35.3816302400516" lon="-5.373422937226334"><ele>449.0</ele><time>2026-04-28T09:33:59Z</time></trkpt><trkpt lat="35.38147911126728" lon="-5.373305035608103"><ele>449.0</ele><time>2026-04-28T09:34:00Z</time></trkpt><trkpt lat="35.38134610183777" lon="-5.373162468437017"><ele>449.66666666666663</ele><time>2026-04-28T09:34:01Z</time></trkpt><trkpt lat="35.38122055546469" lon="-5.372995734066034"><ele>450.33333333333337</ele><time>2026-04-28T09:34:02Z</time></trkpt><trkpt lat="35.38111044401286" lon="-5.3728249566406445"><ele>451.0</ele><time>2026-04-28T09:34:03Z</time></trkpt><trkpt lat="35.380991447026034" lon="-5.3726695178187525"><ele>451.0</ele><time>2026-04-28T09:34:04Z</time></trkpt><trkpt lat="35.38086370575243" lon="-5.37253628452276"><ele>451.0</ele><time>2026-04-28T09:34:05Z</time></trkpt><trkpt lat="35.380716910843724" lon="-5.372440007336116"><ele>451.0</ele><time>2026-04-28T09:34:06Z</time></trkpt><trkpt lat="35.38055418583451" lon="-5.372395738083799"><ele>451.33333333333337</ele><time>2026-04-28T09:34:07Z</time></trkpt><trkpt lat="35.38038668673887" lon="-5.372389047631358"><ele>451.66666666666663</ele><time>2026-04-28T09:34:08Z</time></trkpt><trkpt lat="35.3802135008261" lon="-5.372420027566047"><ele>452.0</ele><time>2026-04-28T09:34:09Z</time></trkpt><trkpt lat="35.38004489505552" lon="-5.372486932398978"><ele>452.0</ele><time>2026-04-28T09:34:10Z</time></trkpt><trkpt lat="35.379889356531315" lon="-5.372595975103894"><ele>452.0</ele><time>2026-04-28T09:34:11Z</time></trkpt><trkpt lat="35.37974437617751" lon="-5.372726968845625"><ele>452.0</ele><time>2026-04-28T09:34:12Z</time></trkpt><trkpt lat="35.379594259714175" lon="-5.372857431576828"><ele>450.66666666666663</ele><time>2026-04-28T09:34:13Z</time></trkpt><trkpt lat="35.37943615281272" lon="-5.372981583168062"><ele>449.33333333333337</ele><time>2026-04-28T09:34:14Z</time></trkpt><trkpt lat="35.37927772923074" lon="-5.373104881138704"><ele>448.0</ele><time>2026-04-28T09:34:15Z</time></trkpt><trkpt lat="35.379111064454655" lon="-5.373227718127366"><ele>451.6666666666667</ele><time>2026-04-28T09:34:16Z</time></trkpt><trkpt lat="35.37894225179479" lon="-5.37333907349286"><ele>455.33333333333337</ele><time>2026-04-28T09:34:17Z</time></trkpt><trkpt lat="35.378767491343694" lon="-5.373460699531489"><ele>459.0</ele><time>2026-04-28T09:34:18Z</time></trkpt><trkpt lat="35.378602922019475" lon="-5.373589089803667"><ele>459.0</ele><time>2026-04-28T09:34:19Z</time></trkpt><trkpt lat="35.37845183640208" lon="-5.373742768544788"><ele>459.0</ele><time>2026-04-28T09:34:20Z</time></trkpt><trkpt lat="35.3782898409185" lon="-5.373883347220283"><ele>459.0</ele><time>2026-04-28T09:34:21Z</time></trkpt><trkpt lat="35.37812823156503" lon="-5.374034682279571"><ele>462.0</ele><time>2026-04-28T09:34:22Z</time></trkpt><trkpt lat="35.377974532335294" lon="-5.374187836076191"><ele>465.0</ele><time>2026-04-28T09:34:23Z</time></trkpt><trkpt lat="35.37781738191597" lon="-5.374331538311932"><ele>468.0</ele><time>2026-04-28T09:34:24Z</time></trkpt><trkpt lat="35.37765035112288" lon="-5.3744504834538"><ele>468.0</ele><time>2026-04-28T09:34:25Z</time></trkpt><trkpt lat="35.37747200778169" lon="-5.374536061159415"><ele>468.0</ele><time>2026-04-28T09:34:26Z</time></trkpt><trkpt lat="35.377300351207296" lon="-5.37458706241564"><ele>468.0</ele><time>2026-04-28T09:34:27Z</time></trkpt><trkpt lat="35.37712647917499" lon="-5.374619877535454"><ele>468.0</ele><time>2026-04-28T09:34:28Z</time></trkpt><trkpt lat="35.37694976981316" lon="-5.374624164156744"><ele>468.0</ele><time>2026-04-28T09:34:29Z</time></trkpt><trkpt lat="35.37677053937341" lon="-5.374609051267061"><ele>468.0</ele><time>2026-04-28T09:34:30Z</time></trkpt><trkpt lat="35.37659170592599" lon="-5.374563408005547"><ele>468.0</ele><time>2026-04-28T09:34:31Z</time></trkpt><trkpt lat="35.37641634561074" lon="-5.374493009954959"><ele>468.0</ele><time>2026-04-28T09:34:32Z</time></trkpt><trkpt lat="35.37624541666767" lon="-5.374401923476797"><ele>468.0</ele><time>2026-04-28T09:34:33Z</time></trkpt><trkpt lat="35.37608029306138" lon="-5.374285243187445"><ele>467.33333333333337</ele><time>2026-04-28T09:34:34Z</time></trkpt><trkpt lat="35.37592609734608" lon="-5.374142325084562"><ele>466.6666666666667</ele><time>2026-04-28T09:34:35Z</time></trkpt><trkpt lat="35.375778008667595" lon="-5.373987391738351"><ele>466.0</ele><time>2026-04-28T09:34:36Z</time></trkpt><trkpt lat="35.375628210350854" lon="-5.373831309832928"><ele>469.33333333333337</ele><time>2026-04-28T09:34:37Z</time></trkpt><trkpt lat="35.37547592775181" lon="-5.373675313835207"><ele>472.66666666666663</ele><time>2026-04-28T09:34:38Z</time></trkpt><trkpt lat="35.375324870104095" lon="-5.373518718683133"><ele>476.0</ele><time>2026-04-28T09:34:39Z</time></trkpt><trkpt lat="35.37517203932445" lon="-5.37335763929316"><ele>476.0</ele><time>2026-04-28T09:34:40Z</time></trkpt><trkpt lat="35.37501717800085" lon="-5.373200764766844"><ele>476.0</ele><time>2026-04-28T09:34:41Z</time></trkpt><trkpt lat="35.37485992285281" lon="-5.373046246456593"><ele>476.0</ele><time>2026-04-28T09:34:42Z</time></trkpt><trkpt lat="35.374701796109406" lon="-5.372894836709896"><ele>476.66666666666663</ele><time>2026-04-28T09:34:43Z</time></trkpt><trkpt lat="35.374546084764" lon="-5.372743094194374"><ele>477.33333333333337</ele><time>2026-04-28T09:34:44Z</time></trkpt><trkpt lat="35.374387698237896" lon="-5.372607508000556"><ele>478.0</ele><time>2026-04-28T09:34:45Z</time></trkpt><trkpt lat="35.37421287982357" lon="-5.372511324222084"><ele>478.0</ele><time>2026-04-28T09:34:46Z</time></trkpt><trkpt lat="35.37402202286516" lon="-5.372448407495332"><ele>478.0</ele><time>2026-04-28T09:34:47Z</time></trkpt><trkpt lat="35.373824382513675" lon="-5.372414178759645"><ele>478.0</ele><time>2026-04-28T09:34:48Z</time></trkpt><trkpt lat="35.37362268139707" lon="-5.372411089642213"><ele>477.33333333333337</ele><time>2026-04-28T09:34:49Z</time></trkpt><trkpt lat="35.37341963704654" lon="-5.372434598828385"><ele>476.66666666666663</ele><time>2026-04-28T09:34:50Z</time></trkpt><trkpt lat="35.37321803726991" lon="-5.372481915305511"><ele>476.0</ele><time>2026-04-28T09:34:51Z</time></trkpt><trkpt lat="35.37301840769593" lon="-5.3725628253572975"><ele>474.3333333333333</ele><time>2026-04-28T09:34:52Z</time></trkpt><trkpt lat="35.372822589972884" lon="-5.372663097694628"><ele>472.66666666666663</ele><time>2026-04-28T09:34:53Z</time></trkpt><trkpt lat="35.372623816827385" lon="-5.372762440889226"><ele>471.0</ele><time>2026-04-28T09:34:54Z</time></trkpt><trkpt lat="35.372424297032225" lon="-5.372853565253495"><ele>471.0</ele><time>2026-04-28T09:34:55Z</time></trkpt><trkpt lat="35.37222440469981" lon="-5.3729385112930546"><ele>471.0</ele><time>2026-04-28T09:34:56Z</time></trkpt><trkpt lat="35.37202548968189" lon="-5.373019519407984"><ele>471.0</ele><time>2026-04-28T09:34:57Z</time></trkpt><trkpt lat="35.371838693505936" lon="-5.373102027119945"><ele>474.0</ele><time>2026-04-28T09:34:58Z</time></trkpt><trkpt lat="35.37165996711959" lon="-5.3731789769819125"><ele>477.0</ele><time>2026-04-28T09:34:59Z</time></trkpt><trkpt lat="35.37151388197168" lon="-5.373327999858336"><ele>480.0</ele><time>2026-04-28T09:35:00Z</time></trkpt><trkpt lat="35.37141051992411" lon="-5.373501778078193"><ele>476.66666666666663</ele><time>2026-04-28T09:35:00.999Z</time></trkpt><trkpt lat="35.37135543518384" lon="-5.373699419167661"><ele>473.3333333333333</ele><time>2026-04-28T09:35:01.999Z</time></trkpt><trkpt lat="35.37133023615082" lon="-5.37389922343778"><ele>470.0</ele><time>2026-04-28T09:35:02.999Z</time></trkpt><trkpt lat="35.37127188401553" lon="-5.374090507486028"><ele>470.0</ele><time>2026-04-28T09:35:03.999Z</time></trkpt><trkpt lat="35.371219596254974" lon="-5.374274902681001"><ele>470.0</ele><time>2026-04-28T09:35:04.999Z</time></trkpt><trkpt lat="35.37116254821279" lon="-5.374452528099712"><ele>470.0</ele><time>2026-04-28T09:35:05.999Z</time></trkpt><trkpt lat="35.37106865171385" lon="-5.374592170656681"><ele>473.0</ele><time>2026-04-28T09:35:06.999Z</time></trkpt><trkpt lat="35.37094980447686" lon="-5.374709268991657"><ele>476.0</ele><time>2026-04-28T09:35:07.999Z</time></trkpt><trkpt lat="35.37080718838667" lon="-5.374792638813902"><ele>479.0</ele><time>2026-04-28T09:35:08.999Z</time></trkpt><trkpt lat="35.37065501041402" lon="-5.3748474108710935"><ele>485.3333333333333</ele><time>2026-04-28T09:35:09.999Z</time></trkpt><trkpt lat="35.370493035042884" lon="-5.374878106230793"><ele>491.66666666666663</ele><time>2026-04-28T09:35:10.999Z</time></trkpt><trkpt lat="35.370325519783215" lon="-5.374871025927572"><ele>498.0</ele><time>2026-04-28T09:35:11.999Z</time></trkpt><trkpt lat="35.37016584253598" lon="-5.374820167898346"><ele>498.0</ele><time>2026-04-28T09:35:12.999Z</time></trkpt><trkpt lat="35.370017704318016" lon="-5.374733999455092"><ele>498.0</ele><time>2026-04-28T09:35:13.999Z</time></trkpt><trkpt lat="35.36988339055775" lon="-5.3746172778407"><ele>498.0</ele><time>2026-04-28T09:35:14.999Z</time></trkpt><trkpt lat="35.36977808738953" lon="-5.3744763914622355"><ele>501.33333333333337</ele><time>2026-04-28T09:35:15.999Z</time></trkpt><trkpt lat="35.36968837663528" lon="-5.374319101625725"><ele>504.6666666666667</ele><time>2026-04-28T09:35:16.999Z</time></trkpt><trkpt lat="35.369606046994946" lon="-5.374145684158437"><ele>508.0</ele><time>2026-04-28T09:35:17.999Z</time></trkpt><trkpt lat="35.36951689663572" lon="-5.3739734697413795"><ele>503.33333333333337</ele><time>2026-04-28T09:35:18.999Z</time></trkpt><trkpt lat="35.36940813087706" lon="-5.373821380719635"><ele>498.66666666666663</ele><time>2026-04-28T09:35:19.999Z</time></trkpt><trkpt lat="35.369286990013535" lon="-5.37368919531592"><ele>494.0</ele><time>2026-04-28T09:35:20.999Z</time></trkpt><trkpt lat="35.36914205510772" lon="-5.3735802230096095"><ele>494.0</ele><time>2026-04-28T09:35:21.999Z</time></trkpt><trkpt lat="35.36897701600684" lon="-5.373503740094812"><ele>494.0</ele><time>2026-04-28T09:35:22.999Z</time></trkpt><trkpt lat="35.36880511892008" lon="-5.373457015760034"><ele>494.0</ele><time>2026-04-28T09:35:23.999Z</time></trkpt><trkpt lat="35.36862582173337" lon="-5.373451845301452"><ele>492.3333333333333</ele><time>2026-04-28T09:35:24.999Z</time></trkpt><trkpt lat="35.36844537005343" lon="-5.373473213286001"><ele>490.66666666666663</ele><time>2026-04-28T09:35:25.999Z</time></trkpt><trkpt lat="35.36826342544245" lon="-5.373519087540992"><ele>489.0</ele><time>2026-04-28T09:35:26.999Z</time></trkpt><trkpt lat="35.36807227934895" lon="-5.373563843737536"><ele>490.0</ele><time>2026-04-28T09:35:27.999Z</time></trkpt><trkpt lat="35.367884234213335" lon="-5.373585246903797"><ele>491.0</ele><time>2026-04-28T09:35:28.999Z</time></trkpt><trkpt lat="35.36769898299887" lon="-5.373597807287808"><ele>492.0</ele><time>2026-04-28T09:35:29.999Z</time></trkpt><trkpt lat="35.36751745714957" lon="-5.373596315151795"><ele>492.0</ele><time>2026-04-28T09:35:30.999Z</time></trkpt><trkpt lat="35.36734217623115" lon="-5.373552968031947"><ele>492.0</ele><time>2026-04-28T09:35:31.999Z</time></trkpt><trkpt lat="35.367174333997326" lon="-5.373466566527829"><ele>492.0</ele><time>2026-04-28T09:35:32.999Z</time></trkpt><trkpt lat="35.367019539041024" lon="-5.373351406173389"><ele>494.0</ele><time>2026-04-28T09:35:33.999Z</time></trkpt><trkpt lat="35.36688627146447" lon="-5.373192078515886"><ele>496.0</ele><time>2026-04-28T09:35:34.999Z</time></trkpt><trkpt lat="35.36677720970484" lon="-5.373010531976083"><ele>498.0</ele><time>2026-04-28T09:35:35.999Z</time></trkpt><trkpt lat="35.3667022457494" lon="-5.372806105248172"><ele>498.0</ele><time>2026-04-28T09:35:36.999Z</time></trkpt><trkpt lat="35.366653501786054" lon="-5.372592822957728"><ele>498.0</ele><time>2026-04-28T09:35:37.999Z</time></trkpt><trkpt lat="35.36663035819741" lon="-5.37238132493388"><ele>498.0</ele><time>2026-04-28T09:35:38.999Z</time></trkpt><trkpt lat="35.36660785245202" lon="-5.37218106373661"><ele>497.5</ele><time>2026-04-28T09:35:39.999Z</time></trkpt><trkpt lat="35.36657043868588" lon="-5.3719977446434255"><ele>497.0</ele><time>2026-04-28T09:35:40.999Z</time></trkpt><trkpt lat="35.36650668269291" lon="-5.371837457076406"><ele>496.5</ele><time>2026-04-28T09:35:41.999Z</time></trkpt><trkpt lat="35.36641914783055" lon="-5.371700992967952"><ele>496.0</ele><time>2026-04-28T09:35:42.999Z</time></trkpt><trkpt lat="35.366308734977665" lon="-5.371589906776846"><ele>492.6666666666667</ele><time>2026-04-28T09:35:43.999Z</time></trkpt><trkpt lat="35.36618023740863" lon="-5.371489708280878"><ele>489.33333333333337</ele><time>2026-04-28T09:35:44.999Z</time></trkpt><trkpt lat="35.36603626556381" lon="-5.3714000632954795"><ele>486.0</ele><time>2026-04-28T09:35:45.999Z</time></trkpt><trkpt lat="35.365871120877586" lon="-5.371322652388946"><ele>486.0</ele><time>2026-04-28T09:35:46.999Z</time></trkpt><trkpt lat="35.3656941036705" lon="-5.371248296694009"><ele>486.0</ele><time>2026-04-28T09:35:48Z</time></trkpt><trkpt lat="35.365507245909754" lon="-5.371161205628632"><ele>486.0</ele><time>2026-04-28T09:35:49Z</time></trkpt><trkpt lat="35.365318485566405" lon="-5.371065954470716"><ele>490.33333333333337</ele><time>2026-04-28T09:35:50Z</time></trkpt><trkpt lat="35.36512645149676" lon="-5.370976578899362"><ele>494.6666666666667</ele><time>2026-04-28T09:35:51Z</time></trkpt><trkpt lat="35.36493699049526" lon="-5.370891193800169"><ele>499.0</ele><time>2026-04-28T09:35:52Z</time></trkpt><trkpt lat="35.36475105025423" lon="-5.370802826057363"><ele>503.0</ele><time>2026-04-28T09:35:53Z</time></trkpt><trkpt lat="35.364570544329084" lon="-5.370717318954658"><ele>507.0</ele><time>2026-04-28T09:35:54Z</time></trkpt><trkpt lat="35.36439203480281" lon="-5.3706462257123455"><ele>511.0</ele><time>2026-04-28T09:35:55Z</time></trkpt><trkpt lat="35.36420837783308" lon="-5.370595030551832"><ele>511.0</ele><time>2026-04-28T09:35:56Z</time></trkpt><trkpt lat="35.364021136972255" lon="-5.3705838174385"><ele>511.0</ele><time>2026-04-28T09:35:57Z</time></trkpt><trkpt lat="35.36383257778566" lon="-5.370591514990464"><ele>511.0</ele><time>2026-04-28T09:35:58Z</time></trkpt><trkpt lat="35.36366432898755" lon="-5.370692656834496"><ele>511.33333333333337</ele><time>2026-04-28T09:35:59Z</time></trkpt><trkpt lat="35.36349511669397" lon="-5.370793208281911"><ele>511.66666666666663</ele><time>2026-04-28T09:36:00Z</time></trkpt><trkpt lat="35.36332977048097" lon="-5.370917521913048"><ele>512.0</ele><time>2026-04-28T09:36:01Z</time></trkpt><trkpt lat="35.36317223233635" lon="-5.371043036791747"><ele>512.0</ele><time>2026-04-28T09:36:02Z</time></trkpt><trkpt lat="35.36302213799038" lon="-5.371159244448675"><ele>512.0</ele><time>2026-04-28T09:36:03Z</time></trkpt><trkpt lat="35.36287675712995" lon="-5.371264061360014"><ele>512.0</ele><time>2026-04-28T09:36:04Z</time></trkpt><trkpt lat="35.36274058542743" lon="-5.371361490834051"><ele>514.0</ele><time>2026-04-28T09:36:05Z</time></trkpt><trkpt lat="35.36261660207699" lon="-5.371458867806398"><ele>516.0</ele><time>2026-04-28T09:36:06Z</time></trkpt><trkpt lat="35.362497412809574" lon="-5.371553308934682"><ele>518.0</ele><time>2026-04-28T09:36:07Z</time></trkpt><trkpt lat="35.36238258876061" lon="-5.371649638846207"><ele>520.0</ele><time>2026-04-28T09:36:08Z</time></trkpt><trkpt lat="35.362250864370175" lon="-5.371737894385804"><ele>517.3333333333334</ele><time>2026-04-28T09:36:09Z</time></trkpt><trkpt lat="35.36210083672353" lon="-5.371822146803078"><ele>514.6666666666666</ele><time>2026-04-28T09:36:10Z</time></trkpt><trkpt lat="35.361947113995285" lon="-5.371922820934902"><ele>512.0</ele><time>2026-04-28T09:36:11Z</time></trkpt><trkpt lat="35.361793476025696" lon="-5.372039033477815"><ele>512.0</ele><time>2026-04-28T09:36:12Z</time></trkpt><trkpt lat="35.36163864021915" lon="-5.372151224393825"><ele>512.0</ele><time>2026-04-28T09:36:13Z</time></trkpt><trkpt lat="35.3614791036269" lon="-5.372258696023136"><ele>512.0</ele><time>2026-04-28T09:36:14Z</time></trkpt><trkpt lat="35.36131887291679" lon="-5.37236756309415"><ele>514.3333333333333</ele><time>2026-04-28T09:36:15Z</time></trkpt><trkpt lat="35.361153384187816" lon="-5.37247168324172"><ele>516.6666666666666</ele><time>2026-04-28T09:36:16Z</time></trkpt><trkpt lat="35.36097877621054" lon="-5.372565285071682"><ele>519.0</ele><time>2026-04-28T09:36:17Z</time></trkpt><trkpt lat="35.36079429702658" lon="-5.372648075339392"><ele>519.0</ele><time>2026-04-28T09:36:18Z</time></trkpt><trkpt lat="35.36060397472501" lon="-5.37272417429359"><ele>519.0</ele><time>2026-04-28T09:36:19Z</time></trkpt><trkpt lat="35.36041065656806" lon="-5.372801841707674"><ele>519.0</ele><time>2026-04-28T09:36:20Z</time></trkpt><trkpt lat="35.360217529045165" lon="-5.372878046596343"><ele>519.3333333333334</ele><time>2026-04-28T09:36:21Z</time></trkpt><trkpt lat="35.360027559407925" lon="-5.372946465311774"><ele>519.6666666666667</ele><time>2026-04-28T09:36:22Z</time></trkpt><trkpt lat="35.35983390799135" lon="-5.372995590699761"><ele>520.0</ele><time>2026-04-28T09:36:23Z</time></trkpt><trkpt lat="35.35963835520764" lon="-5.373019855057178"><ele>520.6666666666667</ele><time>2026-04-28T09:36:24Z</time></trkpt><trkpt lat="35.35944081126753" lon="-5.37302213780348"><ele>521.3333333333334</ele><time>2026-04-28T09:36:25Z</time></trkpt><trkpt lat="35.359241597522434" lon="-5.373007677774726"><ele>522.0</ele><time>2026-04-28T09:36:26Z</time></trkpt><trkpt lat="35.35904333540279" lon="-5.372972998436733"><ele>523.6666666666666</ele><time>2026-04-28T09:36:27Z</time></trkpt><trkpt lat="35.35884622440384" lon="-5.372918696699033"><ele>525.3333333333333</ele><time>2026-04-28T09:36:28Z</time></trkpt><trkpt lat="35.35865230359437" lon="-5.372838122047244"><ele>527.0</ele><time>2026-04-28T09:36:29Z</time></trkpt><trkpt lat="35.35846094532252" lon="-5.372745817706554"><ele>527.0</ele><time>2026-04-28T09:36:30Z</time></trkpt><trkpt lat="35.35826938643579" lon="-5.372648723874803"><ele>527.0</ele><time>2026-04-28T09:36:31Z</time></trkpt><trkpt lat="35.35807588249733" lon="-5.372551498448511"><ele>527.0</ele><time>2026-04-28T09:36:32Z</time></trkpt><trkpt lat="35.35788690338103" lon="-5.372446180897323"><ele>528.3333333333333</ele><time>2026-04-28T09:36:33Z</time></trkpt><trkpt lat="35.35770760891879" lon="-5.372324597975157"><ele>529.6666666666666</ele><time>2026-04-28T09:36:34Z</time></trkpt><trkpt lat="35.357538668525564" lon="-5.3721841994750985"><ele>531.0</ele><time>2026-04-28T09:36:35Z</time></trkpt><trkpt lat="35.35737653316276" lon="-5.3720306634016985"><ele>531.0</ele><time>2026-04-28T09:36:36Z</time></trkpt><trkpt lat="35.35721603682363" lon="-5.371869658378052"><ele>531.0</ele><time>2026-04-28T09:36:37Z</time></trkpt><trkpt lat="35.3570602678404" lon="-5.371704773765846"><ele>531.0</ele><time>2026-04-28T09:36:38Z</time></trkpt><trkpt lat="35.35690458831413" lon="-5.371543195167769"><ele>531.3333333333334</ele><time>2026-04-28T09:36:39Z</time></trkpt><trkpt lat="35.35674206344914" lon="-5.3713872285561335"><ele>531.6666666666667</ele><time>2026-04-28T09:36:40Z</time></trkpt><trkpt lat="35.35656563091611" lon="-5.371253655862328"><ele>532.0</ele><time>2026-04-28T09:36:41Z</time></trkpt><trkpt lat="35.35637280306038" lon="-5.371155080534727"><ele>534.0</ele><time>2026-04-28T09:36:42Z</time></trkpt><trkpt lat="35.35616968804212" lon="-5.3710824010594305"><ele>536.0</ele><time>2026-04-28T09:36:43Z</time></trkpt><trkpt lat="35.3559597777008" lon="-5.371038940833752"><ele>538.0</ele><time>2026-04-28T09:36:44Z</time></trkpt><trkpt lat="35.355746069782455" lon="-5.371019224619621"><ele>540.6666666666667</ele><time>2026-04-28T09:36:45Z</time></trkpt><trkpt lat="35.35553638843554" lon="-5.370961044940638"><ele>543.3333333333334</ele><time>2026-04-28T09:36:46Z</time></trkpt><trkpt lat="35.35532454742184" lon="-5.370920554841142"><ele>546.0</ele><time>2026-04-28T09:36:47Z</time></trkpt><trkpt lat="35.35511112029403" lon="-5.370871898600037"><ele>546.0</ele><time>2026-04-28T09:36:48Z</time></trkpt><trkpt lat="35.3549121287408" lon="-5.370780202792568"><ele>546.0</ele><time>2026-04-28T09:36:49Z</time></trkpt><trkpt lat="35.35471885578604" lon="-5.370659060725283"><ele>546.0</ele><time>2026-04-28T09:36:50Z</time></trkpt><trkpt lat="35.3545292274776" lon="-5.370538706222925"><ele>547.0</ele><time>2026-04-28T09:36:51Z</time></trkpt><trkpt lat="35.35432909876007" lon="-5.37043194128964"><ele>548.0</ele><time>2026-04-28T09:36:52Z</time></trkpt><trkpt lat="35.35413421789658" lon="-5.37032017651102"><ele>549.0</ele><time>2026-04-28T09:36:53Z</time></trkpt><trkpt lat="35.35392605275489" lon="-5.370237475025408"><ele>549.6666666666666</ele><time>2026-04-28T09:36:54Z</time></trkpt><trkpt lat="35.353708769803404" lon="-5.370199725492362"><ele>550.3333333333333</ele><time>2026-04-28T09:36:55Z</time></trkpt><trkpt lat="35.35349123248714" lon="-5.3701797915104486"><ele>551.0</ele><time>2026-04-28T09:36:56Z</time></trkpt><trkpt lat="35.353276566010884" lon="-5.370150282448929"><ele>551.0</ele><time>2026-04-28T09:36:57Z</time></trkpt><trkpt lat="35.353059682813964" lon="-5.3701256923652085"><ele>551.0</ele><time>2026-04-28T09:36:58Z</time></trkpt><trkpt lat="35.35283848731694" lon="-5.3701118025312775"><ele>551.0</ele><time>2026-04-28T09:36:59Z</time></trkpt><trkpt lat="35.35262617400823" lon="-5.370102210593305"><ele>553.6666666666666</ele><time>2026-04-28T09:36:59.999Z</time></trkpt><trkpt lat="35.352416412403755" lon="-5.370072359610108"><ele>556.3333333333334</ele><time>2026-04-28T09:37:00.999Z</time></trkpt><trkpt lat="35.35220688595223" lon="-5.370012932493519"><ele>559.0</ele><time>2026-04-28T09:37:01.999Z</time></trkpt><trkpt lat="35.35200931732387" lon="-5.369925824411351"><ele>558.3333333333334</ele><time>2026-04-28T09:37:02.999Z</time></trkpt><trkpt lat="35.35181598337195" lon="-5.369822834123002"><ele>557.6666666666666</ele><time>2026-04-28T09:37:03.999Z</time></trkpt><trkpt lat="35.35161919147122" lon="-5.369717189747914"><ele>557.0</ele><time>2026-04-28T09:37:04.999Z</time></trkpt><trkpt lat="35.35142632762342" lon="-5.3696202494356635"><ele>561.0</ele><time>2026-04-28T09:37:05.999Z</time></trkpt><trkpt lat="35.35124058822692" lon="-5.369534515814081"><ele>565.0</ele><time>2026-04-28T09:37:06.999Z</time></trkpt><trkpt lat="35.35107207243699" lon="-5.3694617021260465"><ele>569.0</ele><time>2026-04-28T09:37:07.999Z</time></trkpt><trkpt lat="35.35091412070648" lon="-5.369383273654394"><ele>569.0</ele><time>2026-04-28T09:37:08.999Z</time></trkpt><trkpt lat="35.350769166712965" lon="-5.3692830485919565"><ele>569.0</ele><time>2026-04-28T09:37:09.999Z</time></trkpt><trkpt lat="35.350636702069764" lon="-5.369155120301934"><ele>569.0</ele><time>2026-04-28T09:37:10.999Z</time></trkpt><trkpt lat="35.35052087595051" lon="-5.369002930535207"><ele>573.6666666666666</ele><time>2026-04-28T09:37:11.999Z</time></trkpt><trkpt lat="35.350432270597196" lon="-5.36882868725105"><ele>578.3333333333334</ele><time>2026-04-28T09:37:12.999Z</time></trkpt><trkpt lat="35.350367548563455" lon="-5.368638733084653"><ele>583.0</ele><time>2026-04-28T09:37:13.999Z</time></trkpt><trkpt lat="35.35033217093508" lon="-5.36843071470412"><ele>583.0</ele><time>2026-04-28T09:37:14.999Z</time></trkpt><trkpt lat="35.350329644103965" lon="-5.368215601766264"><ele>583.0</ele><time>2026-04-28T09:37:15.999Z</time></trkpt><trkpt lat="35.35034732970241" lon="-5.367991245483884"><ele>583.0</ele><time>2026-04-28T09:37:16.999Z</time></trkpt><trkpt lat="35.3503755321752" lon="-5.367770302599525"><ele>584.6666666666667</ele><time>2026-04-28T09:37:17.999Z</time></trkpt><trkpt lat="35.35038232153056" lon="-5.367556557552792"><ele>586.3333333333334</ele><time>2026-04-28T09:37:18.999Z</time></trkpt><trkpt lat="35.350344232250734" lon="-5.36735812033719"><ele>588.0</ele><time>2026-04-28T09:37:19.999Z</time></trkpt><trkpt lat="35.35027250993164" lon="-5.3671765893365375"><ele>588.0</ele><time>2026-04-28T09:37:20.999Z</time></trkpt><trkpt lat="35.35018001550039" lon="-5.367009357305823"><ele>588.0</ele><time>2026-04-28T09:37:21.999Z</time></trkpt><trkpt lat="35.350069670393275" lon="-5.3668677632434445"><ele>588.0</ele><time>2026-04-28T09:37:22.999Z</time></trkpt><trkpt lat="35.349958423271886" lon="-5.366737855519937"><ele>588.0</ele><time>2026-04-28T09:37:23.999Z</time></trkpt><trkpt lat="35.34982642313269" lon="-5.3666721745136625"><ele>588.0</ele><time>2026-04-28T09:37:24.999Z</time></trkpt><trkpt lat="35.349712969069344" lon="-5.366615422100277"><ele>588.0</ele><time>2026-04-28T09:37:25.999Z</time></trkpt><trkpt lat="35.349588737005504" lon="-5.366595745292197"><ele>588.0</ele><time>2026-04-28T09:37:26.999Z</time></trkpt><trkpt lat="35.349457214260546" lon="-5.366604347818708"><ele>588.0</ele><time>2026-04-28T09:37:27.999Z</time></trkpt><trkpt lat="35.34931910536103" lon="-5.366638856873374"><ele>588.0</ele><time>2026-04-28T09:37:28.999Z</time></trkpt><trkpt lat="35.349174162550426" lon="-5.366687262669515"><ele>588.0</ele><time>2026-04-28T09:37:29.999Z</time></trkpt><trkpt lat="35.34902287150151" lon="-5.366732494745569"><ele>588.0</ele><time>2026-04-28T09:37:30.999Z</time></trkpt><trkpt lat="35.34886698129603" lon="-5.3667787199974"><ele>587.6666666666666</ele><time>2026-04-28T09:37:31.999Z</time></trkpt><trkpt lat="35.34871462730023" lon="-5.366839652886546"><ele>587.3333333333333</ele><time>2026-04-28T09:37:32.999Z</time></trkpt><trkpt lat="35.34856709376268" lon="-5.366931949049867"><ele>587.0</ele><time>2026-04-28T09:37:33.999Z</time></trkpt><trkpt lat="35.34843545542183" lon="-5.3670597329802066"><ele>591.0</ele><time>2026-04-28T09:37:34.999Z</time></trkpt><trkpt lat="35.34832150992159" lon="-5.3672098465151015"><ele>595.0</ele><time>2026-04-28T09:37:35.999Z</time></trkpt><trkpt lat="35.34819664983525" lon="-5.367321704744602"><ele>599.0</ele><time>2026-04-28T09:37:36.999Z</time></trkpt><trkpt lat="35.3480700946108" lon="-5.367438771138969"><ele>596.6666666666666</ele><time>2026-04-28T09:37:37.999Z</time></trkpt><trkpt lat="35.34794920170835" lon="-5.367560536699157"><ele>594.3333333333334</ele><time>2026-04-28T09:37:38.999Z</time></trkpt><trkpt lat="35.34780128178953" lon="-5.367637463977992"><ele>592.0</ele><time>2026-04-28T09:37:39.999Z</time></trkpt><trkpt lat="35.34763859596135" lon="-5.36768659398067"><ele>592.0</ele><time>2026-04-28T09:37:40.999Z</time></trkpt><trkpt lat="35.347466122285326" lon="-5.367704489156323"><ele>592.0</ele><time>2026-04-28T09:37:41.999Z</time></trkpt><trkpt lat="35.34728856470856" lon="-5.36769968841468"><ele>592.0</ele><time>2026-04-28T09:37:42.999Z</time></trkpt><trkpt lat="35.34711234322103" lon="-5.367668800594309"><ele>594.6666666666667</ele><time>2026-04-28T09:37:43.999Z</time></trkpt><trkpt lat="35.34693967889727" lon="-5.367612684941824"><ele>597.3333333333334</ele><time>2026-04-28T09:37:44.999Z</time></trkpt><trkpt lat="35.346775582119044" lon="-5.367542438895282"><ele>600.0</ele><time>2026-04-28T09:37:45.999Z</time></trkpt><trkpt lat="35.34661972606027" lon="-5.367474727095229"><ele>600.0</ele><time>2026-04-28T09:37:46.999Z</time></trkpt><trkpt lat="35.34645758191845" lon="-5.367432902405045"><ele>600.0</ele><time>2026-04-28T09:37:47.999Z</time></trkpt><trkpt lat="35.34629330193823" lon="-5.367429526597252"><ele>600.0</ele><time>2026-04-28T09:37:48.999Z</time></trkpt><trkpt lat="35.34612705748456" lon="-5.36745641634578"><ele>600.3333333333334</ele><time>2026-04-28T09:37:49.999Z</time></trkpt><trkpt lat="35.345966933768565" lon="-5.36750291978964"><ele>600.6666666666667</ele><time>2026-04-28T09:37:50.999Z</time></trkpt><trkpt lat="35.34580528232631" lon="-5.367578862182435"><ele>601.0</ele><time>2026-04-28T09:37:51.999Z</time></trkpt><trkpt lat="35.34564173749752" lon="-5.367684495862149"><ele>602.3333333333334</ele><time>2026-04-28T09:37:52.999Z</time></trkpt><trkpt lat="35.34547842643617" lon="-5.367812802101456"><ele>603.6666666666666</ele><time>2026-04-28T09:37:54Z</time></trkpt><trkpt lat="35.345304794965024" lon="-5.367946439025092"><ele>605.0</ele><time>2026-04-28T09:37:55Z</time></trkpt><trkpt lat="35.34512861852762" lon="-5.368073338167878"><ele>606.0</ele><time>2026-04-28T09:37:56Z</time></trkpt><trkpt lat="35.34495304116667" lon="-5.368199944987405"><ele>607.0</ele><time>2026-04-28T09:37:57Z</time></trkpt><trkpt lat="35.34478258920614" lon="-5.3683285164750005"><ele>608.0</ele><time>2026-04-28T09:37:58Z</time></trkpt><trkpt lat="35.344612356200145" lon="-5.36845815815259"><ele>608.0</ele><time>2026-04-28T09:37:59Z</time></trkpt><trkpt lat="35.3444426050288" lon="-5.368584523099567"><ele>608.0</ele><time>2026-04-28T09:38:00Z</time></trkpt><trkpt lat="35.34427856511656" lon="-5.368701844347104"><ele>608.0</ele><time>2026-04-28T09:38:01Z</time></trkpt><trkpt lat="35.34412262317851" lon="-5.3688088266057745"><ele>609.0</ele><time>2026-04-28T09:38:02Z</time></trkpt><trkpt lat="35.343971689858286" lon="-5.368913697522368"><ele>610.0</ele><time>2026-04-28T09:38:03Z</time></trkpt><trkpt lat="35.343823615878186" lon="-5.369021435695869"><ele>611.0</ele><time>2026-04-28T09:38:04Z</time></trkpt><trkpt lat="35.34367754982135" lon="-5.369128593901017"><ele>611.0</ele><time>2026-04-28T09:38:05Z</time></trkpt><trkpt lat="35.34353319809073" lon="-5.369234188689061"><ele>611.0</ele><time>2026-04-28T09:38:06Z</time></trkpt><trkpt lat="35.34339442359661" lon="-5.369332663879075"><ele>611.0</ele><time>2026-04-28T09:38:07Z</time></trkpt><trkpt lat="35.343256566236505" lon="-5.369420322920736"><ele>611.0</ele><time>2026-04-28T09:38:08Z</time></trkpt><trkpt lat="35.34310958189242" lon="-5.369481729562604"><ele>611.0</ele><time>2026-04-28T09:38:09Z</time></trkpt><trkpt lat="35.34295886915831" lon="-5.369510824002021"><ele>611.0</ele><time>2026-04-28T09:38:10Z</time></trkpt><trkpt lat="35.34280909966748" lon="-5.369508517793499"><ele>612.5</ele><time>2026-04-28T09:38:11Z</time></trkpt><trkpt lat="35.3426639924274" lon="-5.3694840206522345"><ele>614.0</ele><time>2026-04-28T09:38:12Z</time></trkpt><trkpt lat="35.34252259170421" lon="-5.36943761945762"><ele>615.5</ele><time>2026-04-28T09:38:13Z</time></trkpt><trkpt lat="35.34238872105733" lon="-5.369366175095732"><ele>617.0</ele><time>2026-04-28T09:38:14Z</time></trkpt><trkpt lat="35.34226282278601" lon="-5.369266727117988"><ele>620.3333333333333</ele><time>2026-04-28T09:38:15Z</time></trkpt><trkpt lat="35.3421468026692" lon="-5.369144800197772"><ele>623.6666666666666</ele><time>2026-04-28T09:38:16Z</time></trkpt><trkpt lat="35.34204693789383" lon="-5.369003621988846"><ele>627.0</ele><time>2026-04-28T09:38:17Z</time></trkpt><trkpt lat="35.341937582713506" lon="-5.368866839360306"><ele>625.0</ele><time>2026-04-28T09:38:18Z</time></trkpt><trkpt lat="35.34185983909862" lon="-5.36869442835182"><ele>623.0</ele><time>2026-04-28T09:38:19Z</time></trkpt><trkpt lat="35.34180812475185" lon="-5.3684974930609615"><ele>621.0</ele><time>2026-04-28T09:38:20Z</time></trkpt><trkpt lat="35.341788676232916" lon="-5.368292194443799"><ele>621.0</ele><time>2026-04-28T09:38:21Z</time></trkpt><trkpt lat="35.3418125927482" lon="-5.368077822887005"><ele>621.0</ele><time>2026-04-28T09:38:22Z</time></trkpt><trkpt lat="35.341831971253995" lon="-5.367858764397723"><ele>621.0</ele><time>2026-04-28T09:38:23Z</time></trkpt><trkpt lat="35.341851334255665" lon="-5.367635826951977"><ele>621.0</ele><time>2026-04-28T09:38:24Z</time></trkpt><trkpt lat="35.34187213519895" lon="-5.367401883536297"><ele>621.0</ele><time>2026-04-28T09:38:25Z</time></trkpt><trkpt lat="35.3418941707161" lon="-5.36715728877639"><ele>621.0</ele><time>2026-04-28T09:38:26Z</time></trkpt><trkpt lat="35.3419168031355" lon="-5.366908711987027"><ele>625.0</ele><time>2026-04-28T09:38:27Z</time></trkpt><trkpt lat="35.34194077360254" lon="-5.3666689436888095"><ele>629.0</ele><time>2026-04-28T09:38:28Z</time></trkpt><trkpt lat="35.34196473273533" lon="-5.366443912014762"><ele>633.0</ele><time>2026-04-28T09:38:29Z</time></trkpt><trkpt lat="35.34199311747612" lon="-5.366234645006759"><ele>633.3333333333334</ele><time>2026-04-28T09:38:30Z</time></trkpt><trkpt lat="35.34194672572492" lon="-5.366038368920511"><ele>633.6666666666667</ele><time>2026-04-28T09:38:31Z</time></trkpt><trkpt lat="35.341864232691876" lon="-5.3658702980399005"><ele>634.0</ele><time>2026-04-28T09:38:32Z</time></trkpt><trkpt lat="35.341759553318056" lon="-5.365721092069048"><ele>634.0</ele><time>2026-04-28T09:38:33Z</time></trkpt><trkpt lat="35.34165611471135" lon="-5.365569581519117"><ele>634.0</ele><time>2026-04-28T09:38:34Z</time></trkpt><trkpt lat="35.34149589136362" lon="-5.365494466905038"><ele>634.0</ele><time>2026-04-28T09:38:35Z</time></trkpt><trkpt lat="35.341327692606974" lon="-5.3654423988766275"><ele>633.3333333333334</ele><time>2026-04-28T09:38:36Z</time></trkpt><trkpt lat="35.34116226813178" lon="-5.3653695845089775"><ele>632.6666666666666</ele><time>2026-04-28T09:38:37Z</time></trkpt><trkpt lat="35.3409869838647" lon="-5.3653122629154835"><ele>632.0</ele><time>2026-04-28T09:38:38Z</time></trkpt><trkpt lat="35.34080851101117" lon="-5.36524228123062"><ele>632.0</ele><time>2026-04-28T09:38:39Z</time></trkpt><trkpt lat="35.34062636618473" lon="-5.365164299802929"><ele>632.0</ele><time>2026-04-28T09:38:40Z</time></trkpt><trkpt lat="35.340440948496585" lon="-5.365077397304855"><ele>632.0</ele><time>2026-04-28T09:38:41Z</time></trkpt><trkpt lat="35.34025759603362" lon="-5.364972536643377"><ele>635.0</ele><time>2026-04-28T09:38:42Z</time></trkpt><trkpt lat="35.340085618369336" lon="-5.36483013070938"><ele>638.0</ele><time>2026-04-28T09:38:43Z</time></trkpt><trkpt lat="35.33992200001224" lon="-5.364668562887076"><ele>641.0</ele><time>2026-04-28T09:38:44Z</time></trkpt><trkpt lat="35.339759761301536" lon="-5.364503487678381"><ele>645.3333333333333</ele><time>2026-04-28T09:38:45Z</time></trkpt><trkpt lat="35.33959660102201" lon="-5.364340492415199"><ele>649.6666666666666</ele><time>2026-04-28T09:38:46Z</time></trkpt><trkpt lat="35.33944120176316" lon="-5.364182898190807"><ele>654.0</ele><time>2026-04-28T09:38:47Z</time></trkpt><trkpt lat="35.339294368180404" lon="-5.364038374169425"><ele>654.0</ele><time>2026-04-28T09:38:48Z</time></trkpt><trkpt lat="35.33915821532879" lon="-5.363904973871098"><ele>654.0</ele><time>2026-04-28T09:38:49Z</time></trkpt><trkpt lat="35.339030860238594" lon="-5.36378298935697"><ele>654.0</ele><time>2026-04-28T09:38:50Z</time></trkpt><trkpt lat="35.338899667955275" lon="-5.363670267149128"><ele>653.6666666666666</ele><time>2026-04-28T09:38:51Z</time></trkpt><trkpt lat="35.3387699549265" lon="-5.363567772112465"><ele>653.3333333333333</ele><time>2026-04-28T09:38:52Z</time></trkpt><trkpt lat="35.3386406096632" lon="-5.363479993720454"><ele>653.0</ele><time>2026-04-28T09:38:53Z</time></trkpt><trkpt lat="35.33850870528279" lon="-5.363394587483147"><ele>653.0</ele><time>2026-04-28T09:38:54Z</time></trkpt><trkpt lat="35.33837163790626" lon="-5.363326550829867"><ele>653.0</ele><time>2026-04-28T09:38:55Z</time></trkpt><trkpt lat="35.33823504214164" lon="-5.363263796651873"><ele>653.0</ele><time>2026-04-28T09:38:56Z</time></trkpt><trkpt lat="35.338093482729725" lon="-5.363264818153903"><ele>653.0</ele><time>2026-04-28T09:38:57Z</time></trkpt><trkpt lat="35.33798170141031" lon="-5.363233442877602"><ele>652.75</ele><time>2026-04-28T09:38:58Z</time></trkpt><trkpt lat="35.33789754486366" lon="-5.363159741627609"><ele>652.5</ele><time>2026-04-28T09:38:59Z</time></trkpt><trkpt lat="35.33782563339869" lon="-5.363047835372512"><ele>652.25</ele><time>2026-04-28T09:39:00Z</time></trkpt><trkpt lat="35.33773692913428" lon="-5.362934120445163"><ele>652.0</ele><time>2026-04-28T09:39:01Z</time></trkpt><trkpt lat="35.337637110743444" lon="-5.362802753269394"><ele>650.3333333333334</ele><time>2026-04-28T09:39:02Z</time></trkpt><trkpt lat="35.337538045292966" lon="-5.362654664599417"><ele>648.6666666666666</ele><time>2026-04-28T09:39:03Z</time></trkpt><trkpt lat="35.33743896498989" lon="-5.362497180304375"><ele>647.0</ele><time>2026-04-28T09:39:04Z</time></trkpt><trkpt lat="35.337332505703586" lon="-5.362334841969844"><ele>643.6666666666666</ele><time>2026-04-28T09:39:05Z</time></trkpt><trkpt lat="35.33721875764822" lon="-5.362171397957514"><ele>640.3333333333334</ele><time>2026-04-28T09:39:05.999Z</time></trkpt><trkpt lat="35.33710202969044" lon="-5.362003946664708"><ele>637.0</ele><time>2026-04-28T09:39:06.999Z</time></trkpt><trkpt lat="35.33698538057264" lon="-5.361831536574602"><ele>637.0</ele><time>2026-04-28T09:39:07.999Z</time></trkpt><trkpt lat="35.336873146531836" lon="-5.361666351702397"><ele>637.0</ele><time>2026-04-28T09:39:08.999Z</time></trkpt><trkpt lat="35.33674827150891" lon="-5.361519031031205"><ele>637.0</ele><time>2026-04-28T09:39:09.999Z</time></trkpt><trkpt lat="35.3366137094003" lon="-5.361392591225675"><ele>638.3333333333334</ele><time>2026-04-28T09:39:10.999Z</time></trkpt><trkpt lat="35.336464921235276" lon="-5.361295309257777"><ele>639.6666666666666</ele><time>2026-04-28T09:39:11.999Z</time></trkpt><trkpt lat="35.33631061988289" lon="-5.36121590861251"><ele>641.0</ele><time>2026-04-28T09:39:12.999Z</time></trkpt><trkpt lat="35.33614864111858" lon="-5.361148926004182"><ele>637.6666666666666</ele><time>2026-04-28T09:39:13.999Z</time></trkpt><trkpt lat="35.335976799060575" lon="-5.361105943818467"><ele>634.3333333333334</ele><time>2026-04-28T09:39:14.999Z</time></trkpt><trkpt lat="35.3357997414317" lon="-5.3610757187027485"><ele>631.0</ele><time>2026-04-28T09:39:15.999Z</time></trkpt><trkpt lat="35.33561966254887" lon="-5.361048222669097"><ele>629.0</ele><time>2026-04-28T09:39:16.999Z</time></trkpt><trkpt lat="35.3354341719702" lon="-5.36102256283272"><ele>627.0</ele><time>2026-04-28T09:39:17.999Z</time></trkpt><trkpt lat="35.33524144112668" lon="-5.360982633198252"><ele>625.0</ele><time>2026-04-28T09:39:18.999Z</time></trkpt><trkpt lat="35.33504317759146" lon="-5.360935964164651"><ele>625.0</ele><time>2026-04-28T09:39:19.999Z</time></trkpt><trkpt lat="35.3348404566758" lon="-5.360892450777082"><ele>625.0</ele><time>2026-04-28T09:39:20.999Z</time></trkpt><trkpt lat="35.33463422988927" lon="-5.36085043331256"><ele>625.0</ele><time>2026-04-28T09:39:21.999Z</time></trkpt><trkpt lat="35.3344274079604" lon="-5.3608107814305885"><ele>624.0</ele><time>2026-04-28T09:39:22.999Z</time></trkpt><trkpt lat="35.33422047126932" lon="-5.360773581576406"><ele>623.0</ele><time>2026-04-28T09:39:23.999Z</time></trkpt><trkpt lat="35.33401602144095" lon="-5.360735920940752"><ele>622.0</ele><time>2026-04-28T09:39:24.999Z</time></trkpt><trkpt lat="35.33381455149917" lon="-5.360698418765116"><ele>620.3333333333334</ele><time>2026-04-28T09:39:25.999Z</time></trkpt><trkpt lat="35.333613813389285" lon="-5.36066212266632"><ele>618.6666666666666</ele><time>2026-04-28T09:39:26.999Z</time></trkpt><trkpt lat="35.333415072438264" lon="-5.360623954344763"><ele>617.0</ele><time>2026-04-28T09:39:27.999Z</time></trkpt><trkpt lat="35.333217871381805" lon="-5.360585136298438"><ele>616.3333333333333</ele><time>2026-04-28T09:39:28.999Z</time></trkpt><trkpt lat="35.33302444542252" lon="-5.360547298577689"><ele>615.6666666666666</ele><time>2026-04-28T09:39:29.999Z</time></trkpt><trkpt lat="35.332831101934104" lon="-5.3605112759228675"><ele>615.0</ele><time>2026-04-28T09:39:30.999Z</time></trkpt><trkpt lat="35.33263945135472" lon="-5.360474953156283"><ele>615.0</ele><time>2026-04-28T09:39:31.999Z</time></trkpt><trkpt lat="35.33244619369301" lon="-5.360435444283977"><ele>615.0</ele><time>2026-04-28T09:39:32.999Z</time></trkpt><trkpt lat="35.3322502846844" lon="-5.360396239435718"><ele>615.0</ele><time>2026-04-28T09:39:33.999Z</time></trkpt><trkpt lat="35.33205197380595" lon="-5.360360407427051"><ele>615.0</ele><time>2026-04-28T09:39:34.999Z</time></trkpt><trkpt lat="35.33185248959018" lon="-5.360328097909479"><ele>615.0</ele><time>2026-04-28T09:39:35.999Z</time></trkpt><trkpt lat="35.33165000831186" lon="-5.360292903302242"><ele>615.0</ele><time>2026-04-28T09:39:36.999Z</time></trkpt><trkpt lat="35.331446307898304" lon="-5.3602524580147355"><ele>614.6666666666666</ele><time>2026-04-28T09:39:37.999Z</time></trkpt><trkpt lat="35.33124195463775" lon="-5.360209337217226"><ele>614.3333333333333</ele><time>2026-04-28T09:39:38.999Z</time></trkpt><trkpt lat="35.331037588633336" lon="-5.360166943214395"><ele>614.0</ele><time>2026-04-28T09:39:39.999Z</time></trkpt><trkpt lat="35.33083198912859" lon="-5.3601291193631235"><ele>614.0</ele><time>2026-04-28T09:39:40.999Z</time></trkpt><trkpt lat="35.33062833927133" lon="-5.360092477287977"><ele>614.0</ele><time>2026-04-28T09:39:41.999Z</time></trkpt><trkpt lat="35.33042817474502" lon="-5.360052705525171"><ele>614.0</ele><time>2026-04-28T09:39:42.999Z</time></trkpt><trkpt lat="35.33023150286903" lon="-5.3600119817398415"><ele>613.6666666666666</ele><time>2026-04-28T09:39:43.999Z</time></trkpt><trkpt lat="35.33003562218932" lon="-5.3599744767479365"><ele>613.3333333333334</ele><time>2026-04-28T09:39:44.999Z</time></trkpt><trkpt lat="35.32983897367056" lon="-5.359940437277986"><ele>613.0</ele><time>2026-04-28T09:39:45.999Z</time></trkpt><trkpt lat="35.329643805544215" lon="-5.3599045905541995"><ele>614.0</ele><time>2026-04-28T09:39:46.999Z</time></trkpt><trkpt lat="35.329449778658216" lon="-5.35986806567773"><ele>615.0</ele><time>2026-04-28T09:39:47.999Z</time></trkpt><trkpt lat="35.32925686306246" lon="-5.359831196343014"><ele>616.0</ele><time>2026-04-28T09:39:48.999Z</time></trkpt><trkpt lat="35.32906429892368" lon="-5.359790484357875"><ele>615.6666666666667</ele><time>2026-04-28T09:39:49.999Z</time></trkpt><trkpt lat="35.32887408300118" lon="-5.3597514224251235"><ele>615.3333333333334</ele><time>2026-04-28T09:39:50.999Z</time></trkpt><trkpt lat="35.32868618592042" lon="-5.35971634557788"><ele>615.0</ele><time>2026-04-28T09:39:51.999Z</time></trkpt><trkpt lat="35.32850007485417" lon="-5.359682873941911"><ele>615.0</ele><time>2026-04-28T09:39:52.999Z</time></trkpt><trkpt lat="35.32831944725707" lon="-5.359649638217214"><ele>615.0</ele><time>2026-04-28T09:39:53.999Z</time></trkpt><trkpt lat="35.328143345520694" lon="-5.359617659473211"><ele>615.0</ele><time>2026-04-28T09:39:54.999Z</time></trkpt><trkpt lat="35.32796849185158" lon="-5.359582664050053"><ele>615.0</ele><time>2026-04-28T09:39:55.999Z</time></trkpt><trkpt lat="35.327793079883804" lon="-5.359544759787535"><ele>615.0</ele><time>2026-04-28T09:39:56.999Z</time></trkpt><trkpt lat="35.32761648803282" lon="-5.359509204047259"><ele>615.0</ele><time>2026-04-28T09:39:57.999Z</time></trkpt><trkpt lat="35.327437514720344" lon="-5.3594744476361535"><ele>615.0</ele><time>2026-04-28T09:39:58.999Z</time></trkpt><trkpt lat="35.32725653675387" lon="-5.3594415028582"><ele>615.0</ele><time>2026-04-28T09:40:00Z</time></trkpt><trkpt lat="35.3270719128494" lon="-5.359405223928368"><ele>615.0</ele><time>2026-04-28T09:40:01Z</time></trkpt><trkpt lat="35.32688708898223" lon="-5.359367241644241"><ele>613.6666666666666</ele><time>2026-04-28T09:40:02Z</time></trkpt><trkpt lat="35.32669936624736" lon="-5.359328432698099"><ele>612.3333333333333</ele><time>2026-04-28T09:40:03Z</time></trkpt><trkpt lat="35.3265112090337" lon="-5.359285856467661"><ele>611.0</ele><time>2026-04-28T09:40:04Z</time></trkpt><trkpt lat="35.32633331307402" lon="-5.359245473962086"><ele>609.6666666666666</ele><time>2026-04-28T09:40:05Z</time></trkpt><trkpt lat="35.326152239104026" lon="-5.359206960846406"><ele>608.3333333333334</ele><time>2026-04-28T09:40:06Z</time></trkpt><trkpt lat="35.32597418135245" lon="-5.359168759790999"><ele>607.0</ele><time>2026-04-28T09:40:07Z</time></trkpt><trkpt lat="35.32579439443387" lon="-5.35913093539589"><ele>607.0</ele><time>2026-04-28T09:40:08Z</time></trkpt><trkpt lat="35.325621702168135" lon="-5.3591000864690495"><ele>607.0</ele><time>2026-04-28T09:40:09Z</time></trkpt><trkpt lat="35.32546037683023" lon="-5.3590653121340495"><ele>607.0</ele><time>2026-04-28T09:40:10Z</time></trkpt><trkpt lat="35.32532009165538" lon="-5.359032854869195"><ele>606.5</ele><time>2026-04-28T09:40:11Z</time></trkpt><trkpt lat="35.3251881331236" lon="-5.358989163164084"><ele>606.0</ele><time>2026-04-28T09:40:12Z</time></trkpt><trkpt lat="35.32503415963879" lon="-5.35898269016821"><ele>605.5</ele><time>2026-04-28T09:40:13Z</time></trkpt><trkpt lat="35.32490433215438" lon="-5.35895904279354"><ele>605.0</ele><time>2026-04-28T09:40:14Z</time></trkpt><trkpt lat="35.324774731982444" lon="-5.358938065363262"><ele>604.25</ele><time>2026-04-28T09:40:15Z</time></trkpt><trkpt lat="35.32463922600623" lon="-5.358918378508366"><ele>603.5</ele><time>2026-04-28T09:40:16Z</time></trkpt><trkpt lat="35.32449492612709" lon="-5.358900928665347"><ele>602.75</ele><time>2026-04-28T09:40:17Z</time></trkpt><trkpt lat="35.324347226538436" lon="-5.358872785784426"><ele>602.0</ele><time>2026-04-28T09:40:18Z</time></trkpt><trkpt lat="35.32419323468453" lon="-5.3588240727739045"><ele>603.3333333333333</ele><time>2026-04-28T09:40:19Z</time></trkpt><trkpt lat="35.32404056498447" lon="-5.358773146952179"><ele>604.6666666666666</ele><time>2026-04-28T09:40:20Z</time></trkpt><trkpt lat="35.323880020923845" lon="-5.358725939787072"><ele>606.0</ele><time>2026-04-28T09:40:21Z</time></trkpt><trkpt lat="35.32371803514333" lon="-5.358670962993291"><ele>606.0</ele><time>2026-04-28T09:40:22Z</time></trkpt><trkpt lat="35.323549804585504" lon="-5.358609046383266"><ele>606.0</ele><time>2026-04-28T09:40:23Z</time></trkpt><trkpt lat="35.32337580940339" lon="-5.358532598263302"><ele>606.0</ele><time>2026-04-28T09:40:24Z</time></trkpt><trkpt lat="35.32320096403942" lon="-5.3584511826160535"><ele>603.3333333333334</ele><time>2026-04-28T09:40:25Z</time></trkpt><trkpt lat="35.32302811444761" lon="-5.358374469374216"><ele>600.6666666666667</ele><time>2026-04-28T09:40:26Z</time></trkpt><trkpt lat="35.3228609465344" lon="-5.358310121653232"><ele>598.0</ele><time>2026-04-28T09:40:27Z</time></trkpt><trkpt lat="35.322695954853046" lon="-5.358250562270881"><ele>598.0</ele><time>2026-04-28T09:40:28Z</time></trkpt><trkpt lat="35.32253220920692" lon="-5.35818807831803"><ele>598.0</ele><time>2026-04-28T09:40:29Z</time></trkpt><trkpt lat="35.322363390238486" lon="-5.35812216111455"><ele>598.0</ele><time>2026-04-28T09:40:30Z</time></trkpt><trkpt lat="35.32219510596735" lon="-5.3580556835573905"><ele>599.3333333333334</ele><time>2026-04-28T09:40:31Z</time></trkpt><trkpt lat="35.32202571409053" lon="-5.357991497178349"><ele>600.6666666666666</ele><time>2026-04-28T09:40:32Z</time></trkpt><trkpt lat="35.32185695005837" lon="-5.35792215659813"><ele>602.0</ele><time>2026-04-28T09:40:33Z</time></trkpt><trkpt lat="35.32168915384802" lon="-5.357861313130373"><ele>602.0</ele><time>2026-04-28T09:40:34Z</time></trkpt><trkpt lat="35.321530459686954" lon="-5.357798267211246"><ele>602.0</ele><time>2026-04-28T09:40:35Z</time></trkpt><trkpt lat="35.32138196045501" lon="-5.357739320876029"><ele>602.0</ele><time>2026-04-28T09:40:36Z</time></trkpt><trkpt lat="35.32123827380949" lon="-5.357688230508462"><ele>602.75</ele><time>2026-04-28T09:40:37Z</time></trkpt><trkpt lat="35.32110514302087" lon="-5.357636285135936"><ele>603.5</ele><time>2026-04-28T09:40:38Z</time></trkpt><trkpt lat="35.32097647308121" lon="-5.357584466667418"><ele>604.25</ele><time>2026-04-28T09:40:39Z</time></trkpt><trkpt lat="35.320855347790804" lon="-5.357537283670957"><ele>605.0</ele><time>2026-04-28T09:40:40Z</time></trkpt><trkpt lat="35.32073803082839" lon="-5.357495573262982"><ele>605.0</ele><time>2026-04-28T09:40:41Z</time></trkpt><trkpt lat="35.320621551704406" lon="-5.357459500390999"><ele>605.0</ele><time>2026-04-28T09:40:42Z</time></trkpt><trkpt lat="35.32051717233173" lon="-5.357433972731038"><ele>605.0</ele><time>2026-04-28T09:40:43Z</time></trkpt><trkpt lat="35.320426979748326" lon="-5.357417022893945"><ele>605.0</ele><time>2026-04-28T09:40:44Z</time></trkpt><trkpt lat="35.320346692067496" lon="-5.357406697098922"><ele>605.0</ele><time>2026-04-28T09:40:45Z</time></trkpt><trkpt lat="35.32027138317317" lon="-5.357399821616978"><ele>605.0</ele><time>2026-04-28T09:40:46Z</time></trkpt><trkpt lat="35.3202079572267" lon="-5.357363427138536"><ele>605.0</ele><time>2026-04-28T09:40:47Z</time></trkpt><trkpt lat="35.320138574784934" lon="-5.357353663742897"><ele>605.0</ele><time>2026-04-28T09:40:48Z</time></trkpt><trkpt lat="35.320093439660305" lon="-5.357295906097039"><ele>605.0</ele><time>2026-04-28T09:40:49Z</time></trkpt><trkpt lat="35.3199932576709" lon="-5.357195850162807"><ele>605.0</ele><time>2026-04-28T09:40:51Z</time></trkpt><trkpt lat="35.3199206876367" lon="-5.35715665297249"><ele>605.0</ele><time>2026-04-28T09:40:52Z</time></trkpt><trkpt lat="35.319831887180285" lon="-5.357120113964748"><ele>604.8</ele><time>2026-04-28T09:40:53Z</time></trkpt><trkpt lat="35.3197374101976" lon="-5.35708657483459"><ele>604.6</ele><time>2026-04-28T09:40:54Z</time></trkpt><trkpt lat="35.31964169349767" lon="-5.357051037738105"><ele>604.4</ele><time>2026-04-28T09:40:55Z</time></trkpt><trkpt lat="35.31954121642463" lon="-5.357008403224162"><ele>604.2</ele><time>2026-04-28T09:40:56Z</time></trkpt><trkpt lat="35.31943391291547" lon="-5.356965019216387"><ele>604.0</ele><time>2026-04-28T09:40:57Z</time></trkpt><trkpt lat="35.31932308820325" lon="-5.356924866592311"><ele>604.0</ele><time>2026-04-28T09:40:58Z</time></trkpt><trkpt lat="35.31920890317297" lon="-5.356883752154726"><ele>604.0</ele><time>2026-04-28T09:40:59Z</time></trkpt><trkpt lat="35.31909309974305" lon="-5.356839623677278"><ele>604.0</ele><time>2026-04-28T09:41:00Z</time></trkpt><trkpt lat="35.31897560399427" lon="-5.356792642304242"><ele>604.0</ele><time>2026-04-28T09:41:01Z</time></trkpt><trkpt lat="35.31885730652836" lon="-5.356745810456162"><ele>604.5</ele><time>2026-04-28T09:41:02Z</time></trkpt><trkpt lat="35.3187429563698" lon="-5.356699123828352"><ele>605.0</ele><time>2026-04-28T09:41:03Z</time></trkpt><trkpt lat="35.318627959808865" lon="-5.356655786667193"><ele>605.5</ele><time>2026-04-28T09:41:04Z</time></trkpt><trkpt lat="35.31850743147103" lon="-5.356613515961036"><ele>606.0</ele><time>2026-04-28T09:41:05Z</time></trkpt><trkpt lat="35.31838361444903" lon="-5.3565686895371165"><ele>606.0</ele><time>2026-04-28T09:41:06Z</time></trkpt><trkpt lat="35.31825734041482" lon="-5.356521276168563"><ele>606.0</ele><time>2026-04-28T09:41:07Z</time></trkpt><trkpt lat="35.31813027164651" lon="-5.356470000783945"><ele>606.0</ele><time>2026-04-28T09:41:08Z</time></trkpt><trkpt lat="35.31799997433272" lon="-5.356418343127154"><ele>606.0</ele><time>2026-04-28T09:41:08.999Z</time></trkpt><trkpt lat="35.31786847819266" lon="-5.356365737010305"><ele>605.75</ele><time>2026-04-28T09:41:09.999Z</time></trkpt><trkpt lat="35.317733955128325" lon="-5.3563136234576225"><ele>605.5</ele><time>2026-04-28T09:41:10.999Z</time></trkpt><trkpt lat="35.31759741369355" lon="-5.356263873524078"><ele>605.25</ele><time>2026-04-28T09:41:11.999Z</time></trkpt><trkpt lat="35.31745996121356" lon="-5.356211991014623"><ele>605.0</ele><time>2026-04-28T09:41:12.999Z</time></trkpt><trkpt lat="35.31731840301805" lon="-5.356160324888408"><ele>603.25</ele><time>2026-04-28T09:41:13.999Z</time></trkpt><trkpt lat="35.317177165468685" lon="-5.356109402067617"><ele>601.5</ele><time>2026-04-28T09:41:14.999Z</time></trkpt><trkpt lat="35.317035297949694" lon="-5.356060790339813"><ele>599.75</ele><time>2026-04-28T09:41:15.999Z</time></trkpt><trkpt lat="35.316891330578336" lon="-5.356005216216861"><ele>598.0</ele><time>2026-04-28T09:41:16.999Z</time></trkpt><trkpt lat="35.31674353362869" lon="-5.355940879459183"><ele>598.0</ele><time>2026-04-28T09:41:17.999Z</time></trkpt><trkpt lat="35.31659037710363" lon="-5.355870966683167"><ele>598.0</ele><time>2026-04-28T09:41:18.999Z</time></trkpt><trkpt lat="35.31643390064005" lon="-5.355803337169349"><ele>598.0</ele><time>2026-04-28T09:41:19.999Z</time></trkpt><trkpt lat="35.316273453938514" lon="-5.355741627345731"><ele>596.3333333333334</ele><time>2026-04-28T09:41:20.999Z</time></trkpt><trkpt lat="35.31611283078909" lon="-5.355683647823227"><ele>594.6666666666666</ele><time>2026-04-28T09:41:21.999Z</time></trkpt><trkpt lat="35.31594993279237" lon="-5.355626747476464"><ele>593.0</ele><time>2026-04-28T09:41:22.999Z</time></trkpt><trkpt lat="35.31578660008797" lon="-5.355566962443415"><ele>594.3333333333333</ele><time>2026-04-28T09:41:23.999Z</time></trkpt><trkpt lat="35.31562434640006" lon="-5.355505388222124"><ele>595.6666666666666</ele><time>2026-04-28T09:41:24.999Z</time></trkpt><trkpt lat="35.315461530913694" lon="-5.355439676275415"><ele>597.0</ele><time>2026-04-28T09:41:25.999Z</time></trkpt><trkpt lat="35.315298350668726" lon="-5.355373562499309"><ele>597.0</ele><time>2026-04-28T09:41:26.999Z</time></trkpt><trkpt lat="35.31513261384057" lon="-5.35530988486033"><ele>597.0</ele><time>2026-04-28T09:41:27.999Z</time></trkpt><trkpt lat="35.314964898845616" lon="-5.355246858004799"><ele>597.0</ele><time>2026-04-28T09:41:28.999Z</time></trkpt><trkpt lat="35.314795423733436" lon="-5.355181736169384"><ele>597.0</ele><time>2026-04-28T09:41:29.999Z</time></trkpt><trkpt lat="35.31462387440558" lon="-5.355115324361012"><ele>597.0</ele><time>2026-04-28T09:41:30.999Z</time></trkpt><trkpt lat="35.31445113568025" lon="-5.3550504102349015"><ele>597.0</ele><time>2026-04-28T09:41:31.999Z</time></trkpt><trkpt lat="35.314286739690345" lon="-5.354985053680145"><ele>597.0</ele><time>2026-04-28T09:41:32.999Z</time></trkpt><trkpt lat="35.314126732797696" lon="-5.354922210456257"><ele>597.0</ele><time>2026-04-28T09:41:33.999Z</time></trkpt><trkpt lat="35.313960450867754" lon="-5.354855806048066"><ele>597.0</ele><time>2026-04-28T09:41:34.999Z</time></trkpt><trkpt lat="35.31379139082843" lon="-5.35478699549874"><ele>597.0</ele><time>2026-04-28T09:41:35.999Z</time></trkpt><trkpt lat="35.31362115030216" lon="-5.35471694336259"><ele>597.0</ele><time>2026-04-28T09:41:36.999Z</time></trkpt><trkpt lat="35.313446933826235" lon="-5.354645641365182"><ele>597.0</ele><time>2026-04-28T09:41:37.999Z</time></trkpt><trkpt lat="35.31327454032565" lon="-5.354563246992997"><ele>597.0</ele><time>2026-04-28T09:41:38.999Z</time></trkpt><trkpt lat="35.313098697399525" lon="-5.354471453119979"><ele>597.0</ele><time>2026-04-28T09:41:39.999Z</time></trkpt><trkpt lat="35.312923013967676" lon="-5.354367142913363"><ele>597.0</ele><time>2026-04-28T09:41:40.999Z</time></trkpt><trkpt lat="35.31274754085467" lon="-5.354257222205153"><ele>593.6666666666666</ele><time>2026-04-28T09:41:41.999Z</time></trkpt><trkpt lat="35.31256952080516" lon="-5.354144074080249"><ele>590.3333333333333</ele><time>2026-04-28T09:41:42.999Z</time></trkpt><trkpt lat="35.31238745637459" lon="-5.354034213614522"><ele>587.0</ele><time>2026-04-28T09:41:43.999Z</time></trkpt><trkpt lat="35.31220473550855" lon="-5.353924771706491"><ele>588.0</ele><time>2026-04-28T09:41:44.999Z</time></trkpt><trkpt lat="35.312025846389375" lon="-5.353815941980999"><ele>589.0</ele><time>2026-04-28T09:41:45.999Z</time></trkpt><trkpt lat="35.31185088118902" lon="-5.35371105156177"><ele>590.0</ele><time>2026-04-28T09:41:46.999Z</time></trkpt><trkpt lat="35.31166695441325" lon="-5.353647621129236"><ele>590.0</ele><time>2026-04-28T09:41:47.999Z</time></trkpt><trkpt lat="35.31148213463978" lon="-5.353549958193488"><ele>590.0</ele><time>2026-04-28T09:41:48.999Z</time></trkpt><trkpt lat="35.31132022491096" lon="-5.3533996699331325"><ele>590.0</ele><time>2026-04-28T09:41:49.999Z</time></trkpt><trkpt lat="35.31118202281914" lon="-5.353225774791498"><ele>587.0</ele><time>2026-04-28T09:41:50.999Z</time></trkpt><trkpt lat="35.31103808279224" lon="-5.353058071650187"><ele>584.0</ele><time>2026-04-28T09:41:51.999Z</time></trkpt><trkpt lat="35.3109042299119" lon="-5.352881173812366"><ele>581.0</ele><time>2026-04-28T09:41:52.999Z</time></trkpt><trkpt lat="35.310781876028024" lon="-5.352697438189474"><ele>581.0</ele><time>2026-04-28T09:41:53.999Z</time></trkpt><trkpt lat="35.31066920955165" lon="-5.352511794329803"><ele>581.0</ele><time>2026-04-28T09:41:54.999Z</time></trkpt><trkpt lat="35.31056400530199" lon="-5.352328309411323"><ele>581.0</ele><time>2026-04-28T09:41:55.999Z</time></trkpt><trkpt lat="35.31045277068524" lon="-5.352155238679825"><ele>580.3333333333333</ele><time>2026-04-28T09:41:56.999Z</time></trkpt><trkpt lat="35.31033010464524" lon="-5.351997368076779"><ele>579.6666666666666</ele><time>2026-04-28T09:41:57.999Z</time></trkpt><trkpt lat="35.310190973821626" lon="-5.3518670496378045"><ele>579.0</ele><time>2026-04-28T09:41:58.999Z</time></trkpt><trkpt lat="35.31003939856349" lon="-5.351762546318827"><ele>579.0</ele><time>2026-04-28T09:41:59.999Z</time></trkpt><trkpt lat="35.30987611795695" lon="-5.351684370675503"><ele>579.0</ele><time>2026-04-28T09:42:00.999Z</time></trkpt><trkpt lat="35.309701864062056" lon="-5.351636094405487"><ele>579.0</ele><time>2026-04-28T09:42:01.999Z</time></trkpt><trkpt lat="35.30952403448061" lon="-5.351628990617074"><ele>576.3333333333334</ele><time>2026-04-28T09:42:02.999Z</time></trkpt><trkpt lat="35.30934377777165" lon="-5.351655618887692"><ele>573.6666666666667</ele><time>2026-04-28T09:42:03.999Z</time></trkpt><trkpt lat="35.30916797526536" lon="-5.351709467899079"><ele>571.0</ele><time>2026-04-28T09:42:04.999Z</time></trkpt><trkpt lat="35.30900008305359" lon="-5.351778963986696"><ele>573.0</ele><time>2026-04-28T09:42:06Z</time></trkpt><trkpt lat="35.30883610077932" lon="-5.3518362830932835"><ele>575.0</ele><time>2026-04-28T09:42:07Z</time></trkpt><trkpt lat="35.30868184651015" lon="-5.35189219821869"><ele>577.0</ele><time>2026-04-28T09:42:08Z</time></trkpt><trkpt lat="35.308536608972716" lon="-5.351951118201025"><ele>577.0</ele><time>2026-04-28T09:42:09Z</time></trkpt><trkpt lat="35.3083999797236" lon="-5.352008282074477"><ele>577.0</ele><time>2026-04-28T09:42:10Z</time></trkpt><trkpt lat="35.30827530736568" lon="-5.352053065401516"><ele>577.0</ele><time>2026-04-28T09:42:11Z</time></trkpt><trkpt lat="35.30815365557417" lon="-5.352093133677567"><ele>577.0</ele><time>2026-04-28T09:42:12Z</time></trkpt><trkpt lat="35.30803412614749" lon="-5.352105268327185"><ele>574.5</ele><time>2026-04-28T09:42:13Z</time></trkpt><trkpt lat="35.30791733255132" lon="-5.352074394297728"><ele>572.0</ele><time>2026-04-28T09:42:14Z</time></trkpt><trkpt lat="35.30779909429469" lon="-5.352012840387585"><ele>569.5</ele><time>2026-04-28T09:42:15Z</time></trkpt><trkpt lat="35.307692494086076" lon="-5.351909648567302"><ele>567.0</ele><time>2026-04-28T09:42:16Z</time></trkpt><trkpt lat="35.30760862954785" lon="-5.351797929516753"><ele>567.0</ele><time>2026-04-28T09:42:17Z</time></trkpt><trkpt lat="35.30753646041965" lon="-5.3516948202472046"><ele>567.0</ele><time>2026-04-28T09:42:18Z</time></trkpt><trkpt lat="35.30745938383639" lon="-5.351600133091596"><ele>567.0</ele><time>2026-04-28T09:42:19Z</time></trkpt><trkpt lat="35.30738363010221" lon="-5.351502568449017"><ele>567.0</ele><time>2026-04-28T09:42:20Z</time></trkpt><trkpt lat="35.307295845250884" lon="-5.351394142739049"><ele>567.75</ele><time>2026-04-28T09:42:21Z</time></trkpt><trkpt lat="35.307201145502084" lon="-5.351285177035717"><ele>568.5</ele><time>2026-04-28T09:42:22Z</time></trkpt><trkpt lat="35.307091213801414" lon="-5.351183220056553"><ele>569.25</ele><time>2026-04-28T09:42:23Z</time></trkpt><trkpt lat="35.30696086219883" lon="-5.351107741662459"><ele>570.0</ele><time>2026-04-28T09:42:24Z</time></trkpt><trkpt lat="35.306812317126976" lon="-5.351057562673063"><ele>570.0</ele><time>2026-04-28T09:42:25Z</time></trkpt><trkpt lat="35.30665796090121" lon="-5.351008096076243"><ele>570.0</ele><time>2026-04-28T09:42:26Z</time></trkpt><trkpt lat="35.30649766564079" lon="-5.3509466170054125"><ele>570.0</ele><time>2026-04-28T09:42:27Z</time></trkpt><trkpt lat="35.3063359056357" lon="-5.350877800518044"><ele>567.0</ele><time>2026-04-28T09:42:28Z</time></trkpt><trkpt lat="35.30617348624386" lon="-5.350806657618703"><ele>564.0</ele><time>2026-04-28T09:42:29Z</time></trkpt><trkpt lat="35.306016594356336" lon="-5.3507377897543575"><ele>561.0</ele><time>2026-04-28T09:42:30Z</time></trkpt><trkpt lat="35.305872710848725" lon="-5.350660892595957"><ele>561.0</ele><time>2026-04-28T09:42:31Z</time></trkpt><trkpt lat="35.30574119652632" lon="-5.350564146227535"><ele>561.0</ele><time>2026-04-28T09:42:32Z</time></trkpt><trkpt lat="35.30561730692476" lon="-5.350452960372504"><ele>561.0</ele><time>2026-04-28T09:42:33Z</time></trkpt><trkpt lat="35.30549049717312" lon="-5.350350472332193"><ele>562.0</ele><time>2026-04-28T09:42:34Z</time></trkpt><trkpt lat="35.30536559635544" lon="-5.350256572717939"><ele>563.0</ele><time>2026-04-28T09:42:35Z</time></trkpt><trkpt lat="35.30524883185544" lon="-5.350164623416281"><ele>564.0</ele><time>2026-04-28T09:42:36Z</time></trkpt><trkpt lat="35.305134727672446" lon="-5.3500752161594765"><ele>565.0</ele><time>2026-04-28T09:42:37Z</time></trkpt><trkpt lat="35.30501639642132" lon="-5.349990869252198"><ele>565.0</ele><time>2026-04-28T09:42:38Z</time></trkpt><trkpt lat="35.304893739453064" lon="-5.349906607062191"><ele>565.0</ele><time>2026-04-28T09:42:39Z</time></trkpt><trkpt lat="35.30476664718699" lon="-5.349825485640684"><ele>565.0</ele><time>2026-04-28T09:42:40Z</time></trkpt><trkpt lat="35.30462824062292" lon="-5.349752189407863"><ele>565.0</ele><time>2026-04-28T09:42:41Z</time></trkpt><trkpt lat="35.304483745285765" lon="-5.349685634049212"><ele>566.3333333333334</ele><time>2026-04-28T09:42:42Z</time></trkpt><trkpt lat="35.30432764086361" lon="-5.349632779701107"><ele>567.6666666666666</ele><time>2026-04-28T09:42:43Z</time></trkpt><trkpt lat="35.30416905399408" lon="-5.349590014700912"><ele>569.0</ele><time>2026-04-28T09:42:44Z</time></trkpt><trkpt lat="35.30400742721544" lon="-5.349550333755175"><ele>568.6666666666666</ele><time>2026-04-28T09:42:45Z</time></trkpt><trkpt lat="35.30384593954835" lon="-5.34951605998063"><ele>568.3333333333334</ele><time>2026-04-28T09:42:46Z</time></trkpt><trkpt lat="35.303685643800726" lon="-5.3494804651403784"><ele>568.0</ele><time>2026-04-28T09:42:47Z</time></trkpt><trkpt lat="35.30353055278301" lon="-5.349448945687764"><ele>568.0</ele><time>2026-04-28T09:42:48Z</time></trkpt><trkpt lat="35.30337458461675" lon="-5.349419206056812"><ele>568.0</ele><time>2026-04-28T09:42:49Z</time></trkpt><trkpt lat="35.3032226206796" lon="-5.349385060722383"><ele>568.0</ele><time>2026-04-28T09:42:50Z</time></trkpt><trkpt lat="35.30306658303245" lon="-5.349342245754518"><ele>567.6666666666667</ele><time>2026-04-28T09:42:51Z</time></trkpt><trkpt lat="35.30291052852687" lon="-5.349291166579965"><ele>567.3333333333334</ele><time>2026-04-28T09:42:52Z</time></trkpt><trkpt lat="35.302755266292586" lon="-5.349230533882859"><ele>567.0</ele><time>2026-04-28T09:42:53Z</time></trkpt><trkpt lat="35.30260079399679" lon="-5.349161725707491"><ele>567.0</ele><time>2026-04-28T09:42:54Z</time></trkpt><trkpt lat="35.302453465294235" lon="-5.349081752443326"><ele>567.0</ele><time>2026-04-28T09:42:55Z</time></trkpt><trkpt lat="35.302316743590026" lon="-5.348998371388021"><ele>567.0</ele><time>2026-04-28T09:42:56Z</time></trkpt><trkpt lat="35.30217910061373" lon="-5.348932489541664"><ele>566.0</ele><time>2026-04-28T09:42:57Z</time></trkpt><trkpt lat="35.30204132580915" lon="-5.348888016771539"><ele>565.0</ele><time>2026-04-28T09:42:58Z</time></trkpt><trkpt lat="35.30191084572917" lon="-5.348865625561892"><ele>564.0</ele><time>2026-04-28T09:42:59Z</time></trkpt><trkpt lat="35.30177557424038" lon="-5.348844008617685"><ele>563.0</ele><time>2026-04-28T09:43:00Z</time></trkpt><trkpt lat="35.301633115337204" lon="-5.348905225538557"><ele>563.0</ele><time>2026-04-28T09:43:01Z</time></trkpt><trkpt lat="35.301497216094035" lon="-5.348977274064493"><ele>563.0</ele><time>2026-04-28T09:43:02Z</time></trkpt><trkpt lat="35.30134283036839" lon="-5.349070563964784"><ele>563.0</ele><time>2026-04-28T09:43:03Z</time></trkpt><trkpt lat="35.30118687982332" lon="-5.3491514958816"><ele>564.6666666666666</ele><time>2026-04-28T09:43:04Z</time></trkpt><trkpt lat="35.30104736221836" lon="-5.349245753368186"><ele>566.3333333333334</ele><time>2026-04-28T09:43:05Z</time></trkpt><trkpt lat="35.30090262260267" lon="-5.349341701407094"><ele>568.0</ele><time>2026-04-28T09:43:06Z</time></trkpt><trkpt lat="35.300766581103005" lon="-5.349425538606861"><ele>568.0</ele><time>2026-04-28T09:43:07Z</time></trkpt><trkpt lat="35.300634287134635" lon="-5.349504178840579"><ele>568.0</ele><time>2026-04-28T09:43:08Z</time></trkpt><trkpt lat="35.300504502343514" lon="-5.3495884608342"><ele>568.0</ele><time>2026-04-28T09:43:09Z</time></trkpt><trkpt lat="35.300373359767576" lon="-5.349672047008572"><ele>568.0</ele><time>2026-04-28T09:43:10Z</time></trkpt><trkpt lat="35.300237986061596" lon="-5.349754342489308"><ele>568.3333333333334</ele><time>2026-04-28T09:43:11Z</time></trkpt><trkpt lat="35.30009824541233" lon="-5.349836390342461"><ele>568.6666666666666</ele><time>2026-04-28T09:43:12Z</time></trkpt><trkpt lat="35.299963047254145" lon="-5.349917917740022"><ele>569.0</ele><time>2026-04-28T09:43:13Z</time></trkpt><trkpt lat="35.29982500143349" lon="-5.349989331499497"><ele>570.5</ele><time>2026-04-28T09:43:14Z</time></trkpt><trkpt lat="35.299690202604054" lon="-5.350056101151362"><ele>572.0</ele><time>2026-04-28T09:43:15Z</time></trkpt><trkpt lat="35.299554076605574" lon="-5.350120719665434"><ele>573.5</ele><time>2026-04-28T09:43:15.999Z</time></trkpt><trkpt lat="35.29941286765429" lon="-5.35017433905851"><ele>575.0</ele><time>2026-04-28T09:43:16.999Z</time></trkpt><trkpt lat="35.299275626093895" lon="-5.350215650360875"><ele>575.0</ele><time>2026-04-28T09:43:17.999Z</time></trkpt><trkpt lat="35.29913638175663" lon="-5.350258608884925"><ele>575.0</ele><time>2026-04-28T09:43:18.999Z</time></trkpt><trkpt lat="35.29901163352064" lon="-5.350306803553684"><ele>575.0</ele><time>2026-04-28T09:43:19.999Z</time></trkpt><trkpt lat="35.29888697168847" lon="-5.350372900201566"><ele>575.0</ele><time>2026-04-28T09:43:20.999Z</time></trkpt><trkpt lat="35.2987651955693" lon="-5.35046291471575"><ele>574.5</ele><time>2026-04-28T09:43:21.999Z</time></trkpt><trkpt lat="35.298648201810536" lon="-5.350585756655869"><ele>574.0</ele><time>2026-04-28T09:43:22.999Z</time></trkpt><trkpt lat="35.29853399302994" lon="-5.350693939164007"><ele>573.5</ele><time>2026-04-28T09:43:23.999Z</time></trkpt><trkpt lat="35.2984194530007" lon="-5.350803173508351"><ele>573.0</ele><time>2026-04-28T09:43:24.999Z</time></trkpt><trkpt lat="35.29830052920625" lon="-5.350906561282652"><ele>573.0</ele><time>2026-04-28T09:43:25.999Z</time></trkpt><trkpt lat="35.298188385048476" lon="-5.350998625161067"><ele>573.0</ele><time>2026-04-28T09:43:26.999Z</time></trkpt><trkpt lat="35.298077523913115" lon="-5.351068144020307"><ele>573.0</ele><time>2026-04-28T09:43:27.999Z</time></trkpt><trkpt lat="35.29796785198508" lon="-5.3511237623607775"><ele>573.0</ele><time>2026-04-28T09:43:28.999Z</time></trkpt><trkpt lat="35.297858151685" lon="-5.351163192910297"><ele>572.25</ele><time>2026-04-28T09:43:29.999Z</time></trkpt><trkpt lat="35.29773647840229" lon="-5.351165984731798"><ele>571.5</ele><time>2026-04-28T09:43:30.999Z</time></trkpt><trkpt lat="35.29760876611309" lon="-5.351134247793553"><ele>570.75</ele><time>2026-04-28T09:43:31.999Z</time></trkpt><trkpt lat="35.29748849483107" lon="-5.351063686063571"><ele>570.0</ele><time>2026-04-28T09:43:32.999Z</time></trkpt><trkpt lat="35.29735556221025" lon="-5.350966013246249"><ele>569.25</ele><time>2026-04-28T09:43:33.999Z</time></trkpt><trkpt lat="35.297219480405715" lon="-5.350898987116379"><ele>568.5</ele><time>2026-04-28T09:43:34.999Z</time></trkpt><trkpt lat="35.29708292608189" lon="-5.350804437120905"><ele>567.75</ele><time>2026-04-28T09:43:35.999Z</time></trkpt><trkpt lat="35.296940244406834" lon="-5.350768943019228"><ele>567.0</ele><time>2026-04-28T09:43:36.999Z</time></trkpt><trkpt lat="35.296801539412805" lon="-5.350717219299496"><ele>567.0</ele><time>2026-04-28T09:43:37.999Z</time></trkpt><trkpt lat="35.29666292586217" lon="-5.350739171651094"><ele>567.0</ele><time>2026-04-28T09:43:38.999Z</time></trkpt><trkpt lat="35.29650615453525" lon="-5.350752231157296"><ele>567.0</ele><time>2026-04-28T09:43:39.999Z</time></trkpt><trkpt lat="35.29634373992241" lon="-5.350765161296109"><ele>566.3333333333334</ele><time>2026-04-28T09:43:40.999Z</time></trkpt><trkpt lat="35.29617869391032" lon="-5.350795735491774"><ele>565.6666666666667</ele><time>2026-04-28T09:43:41.999Z</time></trkpt><trkpt lat="35.29602472720812" lon="-5.350822705770403"><ele>565.0</ele><time>2026-04-28T09:43:42.999Z</time></trkpt><trkpt lat="35.295876115402315" lon="-5.350846910151796"><ele>565.0</ele><time>2026-04-28T09:43:43.999Z</time></trkpt><trkpt lat="35.29572867792752" lon="-5.35087661370349"><ele>565.0</ele><time>2026-04-28T09:43:44.999Z</time></trkpt><trkpt lat="35.295586375310364" lon="-5.350904096109876"><ele>565.0</ele><time>2026-04-28T09:43:45.999Z</time></trkpt><trkpt lat="35.29545735310838" lon="-5.350929386299476"><ele>565.0</ele><time>2026-04-28T09:43:46.999Z</time></trkpt><trkpt lat="35.2953303318684" lon="-5.350944208029979"><ele>564.75</ele><time>2026-04-28T09:43:47.999Z</time></trkpt><trkpt lat="35.29520651417233" lon="-5.350947556351335"><ele>564.5</ele><time>2026-04-28T09:43:48.999Z</time></trkpt><trkpt lat="35.29508716551584" lon="-5.350931647763865"><ele>564.25</ele><time>2026-04-28T09:43:49.999Z</time></trkpt><trkpt lat="35.294963059773515" lon="-5.350899111482284"><ele>564.0</ele><time>2026-04-28T09:43:50.999Z</time></trkpt><trkpt lat="35.29484198389198" lon="-5.350847566016134"><ele>563.25</ele><time>2026-04-28T09:43:51.999Z</time></trkpt><trkpt lat="35.294735489776166" lon="-5.350770437500298"><ele>562.5</ele><time>2026-04-28T09:43:52.999Z</time></trkpt><trkpt lat="35.29462218131148" lon="-5.350691674548723"><ele>561.75</ele><time>2026-04-28T09:43:53.999Z</time></trkpt><trkpt lat="35.29450740609945" lon="-5.3506168305873185"><ele>561.0</ele><time>2026-04-28T09:43:54.999Z</time></trkpt><trkpt lat="35.29438751832168" lon="-5.350536091474618"><ele>561.0</ele><time>2026-04-28T09:43:55.999Z</time></trkpt><trkpt lat="35.29426846754491" lon="-5.35043847490859"><ele>561.0</ele><time>2026-04-28T09:43:56.999Z</time></trkpt><trkpt lat="35.2941362021921" lon="-5.350351711111968"><ele>561.0</ele><time>2026-04-28T09:43:57.999Z</time></trkpt><trkpt lat="35.29402857826232" lon="-5.350258145753622"><ele>561.0</ele><time>2026-04-28T09:43:58.999Z</time></trkpt><trkpt lat="35.29393570938807" lon="-5.350147553226332"><ele>558.5</ele><time>2026-04-28T09:43:59.999Z</time></trkpt><trkpt lat="35.293844760700416" lon="-5.350037631276045"><ele>556.0</ele><time>2026-04-28T09:44:00.999Z</time></trkpt><trkpt lat="35.29374882648522" lon="-5.349924546210621"><ele>553.5</ele><time>2026-04-28T09:44:01.999Z</time></trkpt><trkpt lat="35.293649532601385" lon="-5.349813156339073"><ele>551.0</ele><time>2026-04-28T09:44:02.999Z</time></trkpt><trkpt lat="35.2935509098534" lon="-5.349702886116533"><ele>551.0</ele><time>2026-04-28T09:44:03.999Z</time></trkpt><trkpt lat="35.29345771239657" lon="-5.34959661744939"><ele>551.0</ele><time>2026-04-28T09:44:04.999Z</time></trkpt><trkpt lat="35.29336734003835" lon="-5.349490958711915"><ele>551.0</ele><time>2026-04-28T09:44:05.999Z</time></trkpt><trkpt lat="35.29327224671118" lon="-5.349391438128509"><ele>551.0</ele><time>2026-04-28T09:44:06.999Z</time></trkpt><trkpt lat="35.29315693256321" lon="-5.349328432254904"><ele>549.75</ele><time>2026-04-28T09:44:07.999Z</time></trkpt><trkpt lat="35.29304185113604" lon="-5.349267648276933"><ele>548.5</ele><time>2026-04-28T09:44:08.999Z</time></trkpt><trkpt lat="35.29291982557331" lon="-5.349200197206885"><ele>547.25</ele><time>2026-04-28T09:44:09.999Z</time></trkpt><trkpt lat="35.2927822031702" lon="-5.349190971445787"><ele>546.0</ele><time>2026-04-28T09:44:10.999Z</time></trkpt><trkpt lat="35.29264253579938" lon="-5.349145241183996"><ele>546.0</ele><time>2026-04-28T09:44:12Z</time></trkpt><trkpt lat="35.292497123298084" lon="-5.349121003579907"><ele>546.0</ele><time>2026-04-28T09:44:13Z</time></trkpt><trkpt lat="35.292354392717996" lon="-5.349092488953908"><ele>546.0</ele><time>2026-04-28T09:44:14Z</time></trkpt><trkpt lat="35.29221845809157" lon="-5.3490665679849565"><ele>546.0</ele><time>2026-04-28T09:44:15Z</time></trkpt><trkpt lat="35.29208507552949" lon="-5.34904654675245"><ele>544.5</ele><time>2026-04-28T09:44:16Z</time></trkpt><trkpt lat="35.29195337578392" lon="-5.349036698131396"><ele>543.0</ele><time>2026-04-28T09:44:17Z</time></trkpt><trkpt lat="35.291817963514376" lon="-5.349041119980679"><ele>541.5</ele><time>2026-04-28T09:44:18Z</time></trkpt><trkpt lat="35.29167695903224" lon="-5.34907021083108"><ele>540.0</ele><time>2026-04-28T09:44:19Z</time></trkpt><trkpt lat="35.291529548248796" lon="-5.349111269857436"><ele>539.5</ele><time>2026-04-28T09:44:20Z</time></trkpt><trkpt lat="35.29138525545011" lon="-5.349160764846937"><ele>539.0</ele><time>2026-04-28T09:44:21Z</time></trkpt><trkpt lat="35.29124284858478" lon="-5.349205183752425"><ele>538.5</ele><time>2026-04-28T09:44:22Z</time></trkpt><trkpt lat="35.291106676232076" lon="-5.3492478790204165"><ele>538.0</ele><time>2026-04-28T09:44:23Z</time></trkpt><trkpt lat="35.29097352085767" lon="-5.349289395111789"><ele>538.0</ele><time>2026-04-28T09:44:24Z</time></trkpt><trkpt lat="35.290843858590485" lon="-5.349331824711177"><ele>538.0</ele><time>2026-04-28T09:44:25Z</time></trkpt><trkpt lat="35.29071657275479" lon="-5.349370923738158"><ele>538.0</ele><time>2026-04-28T09:44:26Z</time></trkpt><trkpt lat="35.29059169431541" lon="-5.34940759117064"><ele>538.0</ele><time>2026-04-28T09:44:27Z</time></trkpt><trkpt lat="35.29046854055615" lon="-5.3494454546830195"><ele>537.5</ele><time>2026-04-28T09:44:28Z</time></trkpt><trkpt lat="35.29035007403981" lon="-5.349486441770014"><ele>537.0</ele><time>2026-04-28T09:44:29Z</time></trkpt><trkpt lat="35.29022916131372" lon="-5.34952932051828"><ele>536.5</ele><time>2026-04-28T09:44:30Z</time></trkpt><trkpt lat="35.29010343590798" lon="-5.349559641484231"><ele>536.0</ele><time>2026-04-28T09:44:31Z</time></trkpt><trkpt lat="35.289968924123805" lon="-5.3496014238901175"><ele>536.0</ele><time>2026-04-28T09:44:32Z</time></trkpt><trkpt lat="35.289829904420046" lon="-5.349645901448214"><ele>536.0</ele><time>2026-04-28T09:44:33Z</time></trkpt><trkpt lat="35.28968416461691" lon="-5.349684574045477"><ele>536.0</ele><time>2026-04-28T09:44:34Z</time></trkpt><trkpt lat="35.289544903574175" lon="-5.349711636673991"><ele>536.0</ele><time>2026-04-28T09:44:35Z</time></trkpt><trkpt lat="35.28940991654203" lon="-5.349731628671121"><ele>532.25</ele><time>2026-04-28T09:44:36Z</time></trkpt><trkpt lat="35.28927713669738" lon="-5.349747258879217"><ele>528.5</ele><time>2026-04-28T09:44:37Z</time></trkpt><trkpt lat="35.289148583920884" lon="-5.349752854213937"><ele>524.75</ele><time>2026-04-28T09:44:38Z</time></trkpt><trkpt lat="35.289027627954574" lon="-5.349758563907834"><ele>521.0</ele><time>2026-04-28T09:44:39Z</time></trkpt><trkpt lat="35.28891038955978" lon="-5.34975783989575"><ele>521.0</ele><time>2026-04-28T09:44:40Z</time></trkpt><trkpt lat="35.28879186962999" lon="-5.349721139995195"><ele>521.0</ele><time>2026-04-28T09:44:41Z</time></trkpt><trkpt lat="35.28866506121485" lon="-5.3496470055392855"><ele>521.0</ele><time>2026-04-28T09:44:42Z</time></trkpt><trkpt lat="35.288546930541585" lon="-5.349549498297338"><ele>521.0</ele><time>2026-04-28T09:44:43Z</time></trkpt><trkpt lat="35.28844667064045" lon="-5.349441088735793"><ele>521.0</ele><time>2026-04-28T09:44:44Z</time></trkpt><trkpt lat="35.28835041082173" lon="-5.349334023798813"><ele>521.0</ele><time>2026-04-28T09:44:45Z</time></trkpt><trkpt lat="35.28825451121651" lon="-5.349230263113638"><ele>521.0</ele><time>2026-04-28T09:44:46Z</time></trkpt><trkpt lat="35.28815771985981" lon="-5.349133696260298"><ele>521.0</ele><time>2026-04-28T09:44:47Z</time></trkpt><trkpt lat="35.28806355944085" lon="-5.349044524427657"><ele>521.0</ele><time>2026-04-28T09:44:48Z</time></trkpt><trkpt lat="35.287974091233195" lon="-5.3489612729001905"><ele>521.0</ele><time>2026-04-28T09:44:49Z</time></trkpt><trkpt lat="35.287894474639415" lon="-5.348893758946712"><ele>521.0</ele><time>2026-04-28T09:44:50Z</time></trkpt><trkpt lat="35.287819485191704" lon="-5.34883111758677"><ele>521.0</ele><time>2026-04-28T09:44:51Z</time></trkpt><trkpt lat="35.28773953447165" lon="-5.348776791115874"><ele>521.0</ele><time>2026-04-28T09:44:52Z</time></trkpt><trkpt lat="35.287651721861984" lon="-5.348728895534966"><ele>521.0</ele><time>2026-04-28T09:44:53Z</time></trkpt><trkpt lat="35.2875574976512" lon="-5.348695337350155"><ele>521.0</ele><time>2026-04-28T09:44:54Z</time></trkpt><trkpt lat="35.287451700384736" lon="-5.348670172338874"><ele>521.0</ele><time>2026-04-28T09:44:55Z</time></trkpt><trkpt lat="35.28733830485095" lon="-5.348654914749625"><ele>521.0</ele><time>2026-04-28T09:44:56Z</time></trkpt><trkpt lat="35.28722244933926" lon="-5.34866851115128"><ele>521.0</ele><time>2026-04-28T09:44:57Z</time></trkpt><trkpt lat="35.28710465600759" lon="-5.348695745595018"><ele>522.0</ele><time>2026-04-28T09:44:58Z</time></trkpt><trkpt lat="35.28699253445807" lon="-5.348723643079731"><ele>523.0</ele><time>2026-04-28T09:44:59Z</time></trkpt><trkpt lat="35.28687956666996" lon="-5.348750915679268"><ele>524.0</ele><time>2026-04-28T09:45:00Z</time></trkpt><trkpt lat="35.28677038063304" lon="-5.348780220294766"><ele>525.0</ele><time>2026-04-28T09:45:01Z</time></trkpt><trkpt lat="35.28666357416761" lon="-5.348806804603241"><ele>525.0</ele><time>2026-04-28T09:45:02Z</time></trkpt><trkpt lat="35.28655569875003" lon="-5.348822037998677"><ele>525.0</ele><time>2026-04-28T09:45:03Z</time></trkpt><trkpt lat="35.2864477012601" lon="-5.348823141052018"><ele>525.0</ele><time>2026-04-28T09:45:04Z</time></trkpt><trkpt lat="35.286339278697966" lon="-5.348815473026975"><ele>525.0</ele><time>2026-04-28T09:45:05Z</time></trkpt><trkpt lat="35.286231344009174" lon="-5.348799480230727"><ele>525.0</ele><time>2026-04-28T09:45:06Z</time></trkpt><trkpt lat="35.28612181203299" lon="-5.348780643266103"><ele>523.75</ele><time>2026-04-28T09:45:07Z</time></trkpt><trkpt lat="35.286007503650055" lon="-5.348758137300044"><ele>522.5</ele><time>2026-04-28T09:45:08Z</time></trkpt><trkpt lat="35.2858908644594" lon="-5.348737975640522"><ele>521.25</ele><time>2026-04-28T09:45:09Z</time></trkpt><trkpt lat="35.28577664897694" lon="-5.34872092088685"><ele>520.0</ele><time>2026-04-28T09:45:10Z</time></trkpt><trkpt lat="35.285664232943304" lon="-5.348713807651363"><ele>521.0</ele><time>2026-04-28T09:45:11Z</time></trkpt><trkpt lat="35.28555430272736" lon="-5.348723592391337"><ele>522.0</ele><time>2026-04-28T09:45:12Z</time></trkpt><trkpt lat="35.28544751919374" lon="-5.348748456351677"><ele>523.0</ele><time>2026-04-28T09:45:13Z</time></trkpt><trkpt lat="35.28534394779659" lon="-5.348787209082319"><ele>524.0</ele><time>2026-04-28T09:45:14Z</time></trkpt><trkpt lat="35.28525110110863" lon="-5.348848826427471"><ele>525.0</ele><time>2026-04-28T09:45:15Z</time></trkpt><trkpt lat="35.28516961742011" lon="-5.34892638943053"><ele>520.3333333333334</ele><time>2026-04-28T09:45:16Z</time></trkpt><trkpt lat="35.28508894436455" lon="-5.3490054017515325"><ele>515.6666666666666</ele><time>2026-04-28T09:45:17Z</time></trkpt><trkpt lat="35.28501079435353" lon="-5.3490823979412045"><ele>511.0</ele><time>2026-04-28T09:45:18Z</time></trkpt><trkpt lat="35.284943648450025" lon="-5.349153027806432"><ele>506.3333333333333</ele><time>2026-04-28T09:45:19Z</time></trkpt><trkpt lat="35.28488718873736" lon="-5.349213971551936"><ele>501.66666666666663</ele><time>2026-04-28T09:45:20Z</time></trkpt><trkpt lat="35.284838094762385" lon="-5.349264704757411"><ele>497.0</ele><time>2026-04-28T09:45:20.999Z</time></trkpt><trkpt lat="35.28478873861351" lon="-5.349315111958211"><ele>499.20000000000005</ele><time>2026-04-28T09:45:21.999Z</time></trkpt><trkpt lat="35.28472807390109" lon="-5.3493682555627515"><ele>501.40000000000003</ele><time>2026-04-28T09:45:22.999Z</time></trkpt><trkpt lat="35.284661867029676" lon="-5.349429906993511"><ele>503.59999999999997</ele><time>2026-04-28T09:45:23.999Z</time></trkpt><trkpt lat="35.28458914560094" lon="-5.3495010752820455"><ele>505.79999999999995</ele><time>2026-04-28T09:45:24.999Z</time></trkpt><trkpt lat="35.284505330452184" lon="-5.349570620935648"><ele>508.0</ele><time>2026-04-28T09:45:25.999Z</time></trkpt><trkpt lat="35.28440323084944" lon="-5.349623281474651"><ele>508.0</ele><time>2026-04-28T09:45:26.999Z</time></trkpt><trkpt lat="35.28429001858017" lon="-5.349657939494597"><ele>508.0</ele><time>2026-04-28T09:45:27.999Z</time></trkpt><trkpt lat="35.28417018984285" lon="-5.349659233971951"><ele>508.0</ele><time>2026-04-28T09:45:28.999Z</time></trkpt><trkpt lat="35.28405269771111" lon="-5.349646010407016"><ele>508.0</ele><time>2026-04-28T09:45:29.999Z</time></trkpt><trkpt lat="35.283936906735875" lon="-5.349635638991554"><ele>507.4</ele><time>2026-04-28T09:45:30.999Z</time></trkpt><trkpt lat="35.28382465650927" lon="-5.349632560327444"><ele>506.79999999999995</ele><time>2026-04-28T09:45:31.999Z</time></trkpt><trkpt lat="35.28371376547765" lon="-5.349629000508624"><ele>506.2</ele><time>2026-04-28T09:45:32.999Z</time></trkpt><trkpt lat="35.28360513459939" lon="-5.349618487931453"><ele>505.6</ele><time>2026-04-28T09:45:33.999Z</time></trkpt><trkpt lat="35.28349373638732" lon="-5.349616342133386"><ele>505.0</ele><time>2026-04-28T09:45:34.999Z</time></trkpt><trkpt lat="35.28338725796813" lon="-5.349652685419007"><ele>502.0</ele><time>2026-04-28T09:45:35.999Z</time></trkpt><trkpt lat="35.2832851769806" lon="-5.349722893425242"><ele>499.0</ele><time>2026-04-28T09:45:36.999Z</time></trkpt><trkpt lat="35.28320140295783" lon="-5.349836455841464"><ele>496.0</ele><time>2026-04-28T09:45:37.999Z</time></trkpt><trkpt lat="35.28312209230405" lon="-5.3499510622429725"><ele>493.0</ele><time>2026-04-28T09:45:38.999Z</time></trkpt><trkpt lat="35.28304708383469" lon="-5.3500582958410385"><ele>493.0</ele><time>2026-04-28T09:45:39.999Z</time></trkpt><trkpt lat="35.282968632189544" lon="-5.350153095478448"><ele>493.0</ele><time>2026-04-28T09:45:40.999Z</time></trkpt><trkpt lat="35.28288435374766" lon="-5.350248054536394"><ele>493.0</ele><time>2026-04-28T09:45:41.999Z</time></trkpt><trkpt lat="35.28278805568388" lon="-5.350346288687901"><ele>493.0</ele><time>2026-04-28T09:45:42.999Z</time></trkpt><trkpt lat="35.28268681115403" lon="-5.350446514268093"><ele>491.25</ele><time>2026-04-28T09:45:43.999Z</time></trkpt><trkpt lat="35.28257696893793" lon="-5.350546442478365"><ele>489.5</ele><time>2026-04-28T09:45:44.999Z</time></trkpt><trkpt lat="35.28246444510118" lon="-5.350648560141801"><ele>487.75</ele><time>2026-04-28T09:45:45.999Z</time></trkpt><trkpt lat="35.28235203710136" lon="-5.350753954643759"><ele>486.0</ele><time>2026-04-28T09:45:46.999Z</time></trkpt><trkpt lat="35.282238552836276" lon="-5.350861095809476"><ele>486.0</ele><time>2026-04-28T09:45:47.999Z</time></trkpt><trkpt lat="35.28212403026076" lon="-5.350972517089718"><ele>486.0</ele><time>2026-04-28T09:45:48.999Z</time></trkpt><trkpt lat="35.28200743519027" lon="-5.351079353376609"><ele>486.0</ele><time>2026-04-28T09:45:49.999Z</time></trkpt><trkpt lat="35.281888794785" lon="-5.351190045527086"><ele>486.0</ele><time>2026-04-28T09:45:50.999Z</time></trkpt><trkpt lat="35.281772979537976" lon="-5.351299863080762"><ele>484.0</ele><time>2026-04-28T09:45:51.999Z</time></trkpt><trkpt lat="35.28165473594415" lon="-5.351412095566012"><ele>482.0</ele><time>2026-04-28T09:45:52.999Z</time></trkpt><trkpt lat="35.281534752644816" lon="-5.351523128338335"><ele>480.0</ele><time>2026-04-28T09:45:53.999Z</time></trkpt><trkpt lat="35.2814153068375" lon="-5.351634007605547"><ele>480.0</ele><time>2026-04-28T09:45:54.999Z</time></trkpt><trkpt lat="35.28130230556283" lon="-5.351742867687761"><ele>480.0</ele><time>2026-04-28T09:45:55.999Z</time></trkpt><trkpt lat="35.28119568454672" lon="-5.351850779581809"><ele>480.0</ele><time>2026-04-28T09:45:56.999Z</time></trkpt><trkpt lat="35.28109247557212" lon="-5.351952657517673"><ele>480.0</ele><time>2026-04-28T09:45:57.999Z</time></trkpt><trkpt lat="35.280988611211775" lon="-5.352045797260925"><ele>480.0</ele><time>2026-04-28T09:45:58.999Z</time></trkpt><trkpt lat="35.28088449820906" lon="-5.352130516681438"><ele>480.0</ele><time>2026-04-28T09:45:59.999Z</time></trkpt><trkpt lat="35.28077751340719" lon="-5.352195114855419"><ele>480.0</ele><time>2026-04-28T09:46:00.999Z</time></trkpt><trkpt lat="35.28066168292642" lon="-5.352231783951944"><ele>480.0</ele><time>2026-04-28T09:46:01.999Z</time></trkpt><trkpt lat="35.280549232614376" lon="-5.352244791639178"><ele>477.0</ele><time>2026-04-28T09:46:02.999Z</time></trkpt><trkpt lat="35.28043430800265" lon="-5.352259525586529"><ele>474.0</ele><time>2026-04-28T09:46:03.999Z</time></trkpt><trkpt lat="35.280313501715" lon="-5.352275796002194"><ele>471.0</ele><time>2026-04-28T09:46:04.999Z</time></trkpt><trkpt lat="35.28018670369398" lon="-5.352291845211294"><ele>468.0</ele><time>2026-04-28T09:46:05.999Z</time></trkpt><trkpt lat="35.280055864589826" lon="-5.352303501468846"><ele>468.0</ele><time>2026-04-28T09:46:06.999Z</time></trkpt><trkpt lat="35.2799300713626" lon="-5.352316575003756"><ele>468.0</ele><time>2026-04-28T09:46:07.999Z</time></trkpt><trkpt lat="35.27980872380435" lon="-5.35233717076469"><ele>468.0</ele><time>2026-04-28T09:46:08.999Z</time></trkpt><trkpt lat="35.27969024822392" lon="-5.352353545219509"><ele>468.0</ele><time>2026-04-28T09:46:09.999Z</time></trkpt><trkpt lat="35.27956934952899" lon="-5.352369782933657"><ele>468.5</ele><time>2026-04-28T09:46:10.999Z</time></trkpt><trkpt lat="35.27944215084201" lon="-5.3523800217523245"><ele>469.0</ele><time>2026-04-28T09:46:11.999Z</time></trkpt><trkpt lat="35.27932206275023" lon="-5.352365539896355"><ele>469.5</ele><time>2026-04-28T09:46:12.999Z</time></trkpt><trkpt lat="35.279200769089684" lon="-5.352329401550567"><ele>470.0</ele><time>2026-04-28T09:46:13.999Z</time></trkpt><trkpt lat="35.27909166413514" lon="-5.352270984073079"><ele>469.0</ele><time>2026-04-28T09:46:14.999Z</time></trkpt><trkpt lat="35.27899093197798" lon="-5.352193014322969"><ele>468.0</ele><time>2026-04-28T09:46:15.999Z</time></trkpt><trkpt lat="35.2788915037876" lon="-5.352103788624413"><ele>467.0</ele><time>2026-04-28T09:46:17Z</time></trkpt><trkpt lat="35.27880241368459" lon="-5.3520069575327955"><ele>466.0</ele><time>2026-04-28T09:46:18Z</time></trkpt><trkpt lat="35.27872547086438" lon="-5.351891358519439"><ele>466.0</ele><time>2026-04-28T09:46:19Z</time></trkpt><trkpt lat="35.278638760793164" lon="-5.35178021572879"><ele>466.0</ele><time>2026-04-28T09:46:20Z</time></trkpt><trkpt lat="35.27854993561075" lon="-5.351670752476729"><ele>466.0</ele><time>2026-04-28T09:46:21Z</time></trkpt><trkpt lat="35.278461940535166" lon="-5.351561754547249"><ele>466.0</ele><time>2026-04-28T09:46:22Z</time></trkpt><trkpt lat="35.27836538587795" lon="-5.351458846106746"><ele>466.25</ele><time>2026-04-28T09:46:23Z</time></trkpt><trkpt lat="35.27826339276164" lon="-5.351359901357028"><ele>466.5</ele><time>2026-04-28T09:46:24Z</time></trkpt><trkpt lat="35.278152179132" lon="-5.351260476830358"><ele>466.75</ele><time>2026-04-28T09:46:25Z</time></trkpt><trkpt lat="35.27803493964702" lon="-5.35117731448501"><ele>467.0</ele><time>2026-04-28T09:46:26Z</time></trkpt><trkpt lat="35.27793011252106" lon="-5.351067412950317"><ele>464.25</ele><time>2026-04-28T09:46:27Z</time></trkpt><trkpt lat="35.27781567667324" lon="-5.350976862421475"><ele>461.5</ele><time>2026-04-28T09:46:28Z</time></trkpt><trkpt lat="35.27770120891069" lon="-5.350880398555819"><ele>458.75</ele><time>2026-04-28T09:46:29Z</time></trkpt><trkpt lat="35.2775904119204" lon="-5.350786326357181"><ele>456.0</ele><time>2026-04-28T09:46:30Z</time></trkpt><trkpt lat="35.27748139589402" lon="-5.350695450784332"><ele>456.0</ele><time>2026-04-28T09:46:31Z</time></trkpt><trkpt lat="35.277372652612954" lon="-5.350618909267364"><ele>456.0</ele><time>2026-04-28T09:46:32Z</time></trkpt><trkpt lat="35.2772672478683" lon="-5.350542267384817"><ele>456.0</ele><time>2026-04-28T09:46:33Z</time></trkpt><trkpt lat="35.277161254818346" lon="-5.350467051537282"><ele>456.0</ele><time>2026-04-28T09:46:34Z</time></trkpt><trkpt lat="35.27705676289573" lon="-5.3503948549453675"><ele>457.5</ele><time>2026-04-28T09:46:35Z</time></trkpt><trkpt lat="35.27694900105336" lon="-5.3503328060347055"><ele>459.0</ele><time>2026-04-28T09:46:36Z</time></trkpt><trkpt lat="35.2768342286246" lon="-5.350273810047921"><ele>460.5</ele><time>2026-04-28T09:46:37Z</time></trkpt><trkpt lat="35.27672392273341" lon="-5.35021304931861"><ele>462.0</ele><time>2026-04-28T09:46:38Z</time></trkpt><trkpt lat="35.27660683348895" lon="-5.350153013232577"><ele>462.0</ele><time>2026-04-28T09:46:39Z</time></trkpt><trkpt lat="35.276486026145875" lon="-5.350088874749352"><ele>462.0</ele><time>2026-04-28T09:46:40Z</time></trkpt><trkpt lat="35.27637411454676" lon="-5.350010874444274"><ele>462.0</ele><time>2026-04-28T09:46:41Z</time></trkpt><trkpt lat="35.27627860450183" lon="-5.349918085184858"><ele>462.0</ele><time>2026-04-28T09:46:42Z</time></trkpt><trkpt lat="35.27619940957418" lon="-5.349814349440768"><ele>459.40000000000003</ele><time>2026-04-28T09:46:43Z</time></trkpt><trkpt lat="35.27612359569988" lon="-5.349711910775133"><ele>456.80000000000007</ele><time>2026-04-28T09:46:44Z</time></trkpt><trkpt lat="35.27605251517179" lon="-5.349619385687418"><ele>454.2</ele><time>2026-04-28T09:46:45Z</time></trkpt><trkpt lat="35.27598777091954" lon="-5.3495209881894485"><ele>451.6</ele><time>2026-04-28T09:46:46Z</time></trkpt><trkpt lat="35.275921430961844" lon="-5.349431301719154"><ele>449.0</ele><time>2026-04-28T09:46:47Z</time></trkpt><trkpt lat="35.27590021625919" lon="-5.349300591273526"><ele>449.0</ele><time>2026-04-28T09:46:48Z</time></trkpt><trkpt lat="35.275911963310506" lon="-5.3491680022253565"><ele>449.0</ele><time>2026-04-28T09:46:49Z</time></trkpt><trkpt lat="35.27591531495367" lon="-5.349045187101641"><ele>449.0</ele><time>2026-04-28T09:46:50Z</time></trkpt><trkpt lat="35.27593587118475" lon="-5.348920199213162"><ele>449.0</ele><time>2026-04-28T09:46:51Z</time></trkpt><trkpt lat="35.27594836363519" lon="-5.348803634653975"><ele>449.0</ele><time>2026-04-28T09:46:52Z</time></trkpt><trkpt lat="35.27595681206706" lon="-5.348682878909907"><ele>448.4</ele><time>2026-04-28T09:46:53Z</time></trkpt><trkpt lat="35.275947477321466" lon="-5.348573861778024"><ele>447.79999999999995</ele><time>2026-04-28T09:46:54Z</time></trkpt><trkpt lat="35.27593838025116" lon="-5.348447475795558"><ele>447.20000000000005</ele><time>2026-04-28T09:46:55Z</time></trkpt><trkpt lat="35.27585661169277" lon="-5.348340207010841"><ele>446.6</ele><time>2026-04-28T09:46:56Z</time></trkpt><trkpt lat="35.275773967262595" lon="-5.348246903164499"><ele>446.0</ele><time>2026-04-28T09:46:57Z</time></trkpt><trkpt lat="35.27568376516053" lon="-5.348185420275886"><ele>443.75</ele><time>2026-04-28T09:46:58Z</time></trkpt><trkpt lat="35.27557978230318" lon="-5.348137894312138"><ele>441.5</ele><time>2026-04-28T09:46:59Z</time></trkpt><trkpt lat="35.27546347534152" lon="-5.348133499815121"><ele>439.25</ele><time>2026-04-28T09:47:00Z</time></trkpt><trkpt lat="35.275345263898124" lon="-5.348131470254565"><ele>437.0</ele><time>2026-04-28T09:47:01Z</time></trkpt><trkpt lat="35.275224755309495" lon="-5.348136680251503"><ele>437.0</ele><time>2026-04-28T09:47:02Z</time></trkpt><trkpt lat="35.275108234459836" lon="-5.348139030048196"><ele>437.00000000000006</ele><time>2026-04-28T09:47:03Z</time></trkpt><trkpt lat="35.27499610509717" lon="-5.3481442899951945"><ele>437.00000000000006</ele><time>2026-04-28T09:47:04Z</time></trkpt><trkpt lat="35.27488779841104" lon="-5.348150997123134"><ele>437.0</ele><time>2026-04-28T09:47:05Z</time></trkpt><trkpt lat="35.274781285516" lon="-5.348148203312231"><ele>437.0</ele><time>2026-04-28T09:47:06Z</time></trkpt><trkpt lat="35.27466942944364" lon="-5.348143261063414"><ele>434.75</ele><time>2026-04-28T09:47:07Z</time></trkpt><trkpt lat="35.27455602357712" lon="-5.348143137683743"><ele>432.5</ele><time>2026-04-28T09:47:08Z</time></trkpt><trkpt lat="35.27444307792594" lon="-5.348134618298393"><ele>430.25</ele><time>2026-04-28T09:47:09Z</time></trkpt><trkpt lat="35.27433056081517" lon="-5.348109283005082"><ele>428.0</ele><time>2026-04-28T09:47:10Z</time></trkpt><trkpt lat="35.27422177492492" lon="-5.348083191753931"><ele>428.0</ele><time>2026-04-28T09:47:11Z</time></trkpt><trkpt lat="35.27411461460622" lon="-5.348072262904502"><ele>427.99999999999994</ele><time>2026-04-28T09:47:12Z</time></trkpt><trkpt lat="35.27401073750108" lon="-5.348086059532786"><ele>427.99999999999994</ele><time>2026-04-28T09:47:13Z</time></trkpt><trkpt lat="35.273906325799466" lon="-5.348118318267549"><ele>428.0</ele><time>2026-04-28T09:47:14Z</time></trkpt><trkpt lat="35.273806252373475" lon="-5.348171898680857"><ele>428.0</ele><time>2026-04-28T09:47:15Z</time></trkpt><trkpt lat="35.27371712962602" lon="-5.348258535335021"><ele>428.79999999999995</ele><time>2026-04-28T09:47:16Z</time></trkpt><trkpt lat="35.27364569858178" lon="-5.348367799921001"><ele>429.59999999999997</ele><time>2026-04-28T09:47:17Z</time></trkpt><trkpt lat="35.27357682755119" lon="-5.34847498297405"><ele>430.40000000000003</ele><time>2026-04-28T09:47:18Z</time></trkpt><trkpt lat="35.27350780061744" lon="-5.3485701560330945"><ele>431.20000000000005</ele><time>2026-04-28T09:47:19Z</time></trkpt><trkpt lat="35.27344112951563" lon="-5.348660232964766"><ele>432.0</ele><time>2026-04-28T09:47:20Z</time></trkpt><trkpt lat="35.273377557144514" lon="-5.348751656538752"><ele>432.0</ele><time>2026-04-28T09:47:20.999Z</time></trkpt><trkpt lat="35.27331537633105" lon="-5.348836782635844"><ele>432.00000000000006</ele><time>2026-04-28T09:47:21.999Z</time></trkpt><trkpt lat="35.27325016230164" lon="-5.3489334370107295"><ele>432.00000000000006</ele><time>2026-04-28T09:47:22.999Z</time></trkpt><trkpt lat="35.27318248739232" lon="-5.349036013669281"><ele>432.0</ele><time>2026-04-28T09:47:23.999Z</time></trkpt><trkpt lat="35.27311272201592" lon="-5.349139460381867"><ele>432.0</ele><time>2026-04-28T09:47:24.999Z</time></trkpt><trkpt lat="35.27303850149497" lon="-5.349245602470807"><ele>431.75</ele><time>2026-04-28T09:47:25.999Z</time></trkpt><trkpt lat="35.272964744085456" lon="-5.34935435125373"><ele>431.5</ele><time>2026-04-28T09:47:26.999Z</time></trkpt><trkpt lat="35.2728935096883" lon="-5.349457974661506"><ele>431.25</ele><time>2026-04-28T09:47:27.999Z</time></trkpt><trkpt lat="35.2728219023873" lon="-5.349567497810736"><ele>431.0</ele><time>2026-04-28T09:47:28.999Z</time></trkpt><trkpt lat="35.272745667135766" lon="-5.349675380276252"><ele>428.20000000000005</ele><time>2026-04-28T09:47:29.999Z</time></trkpt><trkpt lat="35.27267174962626" lon="-5.349773196769424"><ele>425.40000000000003</ele><time>2026-04-28T09:47:30.999Z</time></trkpt><trkpt lat="35.27260124877655" lon="-5.349867766894462"><ele>422.6</ele><time>2026-04-28T09:47:31.999Z</time></trkpt><trkpt lat="35.27253729033083" lon="-5.349965750439675"><ele>419.8</ele><time>2026-04-28T09:47:32.999Z</time></trkpt><trkpt lat="35.27247356779906" lon="-5.350061081257066"><ele>417.0</ele><time>2026-04-28T09:47:33.999Z</time></trkpt><trkpt lat="35.272410691096034" lon="-5.350154258099307"><ele>417.0</ele><time>2026-04-28T09:47:34.999Z</time></trkpt><trkpt lat="35.27234573047973" lon="-5.350242362378441"><ele>417.0</ele><time>2026-04-28T09:47:35.999Z</time></trkpt><trkpt lat="35.272281706889686" lon="-5.3503244404662365"><ele>417.0</ele><time>2026-04-28T09:47:36.999Z</time></trkpt><trkpt lat="35.272206240659486" lon="-5.350392590921017"><ele>417.0</ele><time>2026-04-28T09:47:37.999Z</time></trkpt><trkpt lat="35.27212031037422" lon="-5.350437283515398"><ele>417.0</ele><time>2026-04-28T09:47:38.999Z</time></trkpt><trkpt lat="35.272035520802234" lon="-5.350465817593203"><ele>416.8</ele><time>2026-04-28T09:47:39.999Z</time></trkpt><trkpt lat="35.27195983660156" lon="-5.350479740804364"><ele>416.6</ele><time>2026-04-28T09:47:40.999Z</time></trkpt><trkpt lat="35.27185593343881" lon="-5.350490266822565"><ele>416.40000000000003</ele><time>2026-04-28T09:47:42.999Z</time></trkpt><trkpt lat="35.271780587575456" lon="-5.350520282966707"><ele>416.20000000000005</ele><time>2026-04-28T09:47:45.999Z</time></trkpt><trkpt lat="35.27170240507354" lon="-5.350477224455158"><ele>416.0</ele><time>2026-04-28T09:49:00Z</time></trkpt><trkpt lat="35.271591549367315" lon="-5.35041583576788"><ele>416.0</ele><time>2026-04-28T09:49:02Z</time></trkpt><trkpt lat="35.2715014560519" lon="-5.350407299042813"><ele>416.0</ele><time>2026-04-28T09:49:03Z</time></trkpt><trkpt lat="35.27141068857418" lon="-5.350347871103466"><ele>416.0</ele><time>2026-04-28T09:49:04Z</time></trkpt><trkpt lat="35.271292974602005" lon="-5.350306735885561"><ele>416.0</ele><time>2026-04-28T09:49:05Z</time></trkpt><trkpt lat="35.27116283668591" lon="-5.350253528742236"><ele>413.0</ele><time>2026-04-28T09:49:06Z</time></trkpt><trkpt lat="35.27104138579795" lon="-5.3501961585815945"><ele>410.0</ele><time>2026-04-28T09:49:07Z</time></trkpt><trkpt lat="35.270929516308634" lon="-5.350143566642499"><ele>407.0</ele><time>2026-04-28T09:49:08Z</time></trkpt><trkpt lat="35.27082264286419" lon="-5.350095151715403"><ele>404.0</ele><time>2026-04-28T09:49:09Z</time></trkpt><trkpt lat="35.270706670701" lon="-5.35006528561542"><ele>404.0</ele><time>2026-04-28T09:49:10Z</time></trkpt><trkpt lat="35.27057993299845" lon="-5.350072901161736"><ele>404.0</ele><time>2026-04-28T09:49:11Z</time></trkpt><trkpt lat="35.27045421873793" lon="-5.350143056112551"><ele>404.0</ele><time>2026-04-28T09:49:11.999Z</time></trkpt><trkpt lat="35.27032816090303" lon="-5.35020849918541"><ele>404.0</ele><time>2026-04-28T09:49:12.999Z</time></trkpt><trkpt lat="35.27021729035371" lon="-5.350310193214505"><ele>404.0</ele><time>2026-04-28T09:49:13.999Z</time></trkpt><trkpt lat="35.27008988049934" lon="-5.350399768789471"><ele>404.0</ele><time>2026-04-28T09:49:14.999Z</time></trkpt><trkpt lat="35.26995772705434" lon="-5.350481697870332"><ele>404.0</ele><time>2026-04-28T09:49:15.999Z</time></trkpt><trkpt lat="35.26982385483771" lon="-5.350557882805181"><ele>404.0</ele><time>2026-04-28T09:49:16.999Z</time></trkpt><trkpt lat="35.26969537140741" lon="-5.350612929104603"><ele>400.25</ele><time>2026-04-28T09:49:17.999Z</time></trkpt><trkpt lat="35.26956570158495" lon="-5.350649884947737"><ele>396.5</ele><time>2026-04-28T09:49:18.999Z</time></trkpt><trkpt lat="35.269441069294324" lon="-5.3506779891691085"><ele>392.75</ele><time>2026-04-28T09:49:19.999Z</time></trkpt><trkpt lat="35.26932358815868" lon="-5.3506998311464615"><ele>389.0</ele><time>2026-04-28T09:49:20.999Z</time></trkpt><trkpt lat="35.26920629096067" lon="-5.350682743057169"><ele>389.0</ele><time>2026-04-28T09:49:21.999Z</time></trkpt><trkpt lat="35.26909434368177" lon="-5.350665965774576"><ele>389.0</ele><time>2026-04-28T09:49:22.999Z</time></trkpt><trkpt lat="35.268981357827506" lon="-5.35057547459181"><ele>389.0</ele><time>2026-04-28T09:49:23.999Z</time></trkpt><trkpt lat="35.26886593416581" lon="-5.350464343946418"><ele>389.0</ele><time>2026-04-28T09:49:24.999Z</time></trkpt><trkpt lat="35.26874086742501" lon="-5.350324911289295"><ele>389.66666666666663</ele><time>2026-04-28T09:49:25.999Z</time></trkpt><trkpt lat="35.26861280130904" lon="-5.350168690588329"><ele>390.33333333333337</ele><time>2026-04-28T09:49:26.999Z</time></trkpt><trkpt lat="35.268480484278484" lon="-5.350005998071205"><ele>391.0</ele><time>2026-04-28T09:49:27.999Z</time></trkpt><trkpt lat="35.268345681003325" lon="-5.349840661139265"><ele>391.33333333333337</ele><time>2026-04-28T09:49:28.999Z</time></trkpt><trkpt lat="35.268210446682424" lon="-5.349682439588316"><ele>391.66666666666663</ele><time>2026-04-28T09:49:29.999Z</time></trkpt><trkpt lat="35.26807352847303" lon="-5.349531831065447"><ele>392.0</ele><time>2026-04-28T09:49:30.999Z</time></trkpt><trkpt lat="35.267944155308165" lon="-5.349384001329553"><ele>392.0</ele><time>2026-04-28T09:49:31.999Z</time></trkpt><trkpt lat="35.2678237036705" lon="-5.349236602192012"><ele>392.0</ele><time>2026-04-28T09:49:32.999Z</time></trkpt><trkpt lat="35.267713926673" lon="-5.349098305514497"><ele>392.0</ele><time>2026-04-28T09:49:33.999Z</time></trkpt><trkpt lat="35.26761467547801" lon="-5.348976134514413"><ele>393.25</ele><time>2026-04-28T09:49:34.999Z</time></trkpt><trkpt lat="35.267512805713" lon="-5.348873147813026"><ele>394.5</ele><time>2026-04-28T09:49:35.999Z</time></trkpt><trkpt lat="35.26739571791607" lon="-5.34879567997527"><ele>395.75</ele><time>2026-04-28T09:49:36.999Z</time></trkpt><trkpt lat="35.26726121902934" lon="-5.348754367052326"><ele>397.0</ele><time>2026-04-28T09:49:37.999Z</time></trkpt><trkpt lat="35.26710761552573" lon="-5.348752489786298"><ele>397.0</ele><time>2026-04-28T09:49:38.999Z</time></trkpt><trkpt lat="35.266954021712365" lon="-5.348782455206135"><ele>397.0</ele><time>2026-04-28T09:49:39.999Z</time></trkpt><trkpt lat="35.26679473932381" lon="-5.348840773730878"><ele>397.0</ele><time>2026-04-28T09:49:40.999Z</time></trkpt><trkpt lat="35.266634810517345" lon="-5.3488803375300815"><ele>394.0</ele><time>2026-04-28T09:49:41.999Z</time></trkpt><trkpt lat="35.26648932463673" lon="-5.348936909098767"><ele>391.0</ele><time>2026-04-28T09:49:42.999Z</time></trkpt><trkpt lat="35.266349450649216" lon="-5.348991633855703"><ele>388.0</ele><time>2026-04-28T09:49:43.999Z</time></trkpt><trkpt lat="35.26621416528024" lon="-5.349035240702041"><ele>385.0</ele><time>2026-04-28T09:49:44.999Z</time></trkpt><trkpt lat="35.266082089930805" lon="-5.349059791489156"><ele>384.6666666666667</ele><time>2026-04-28T09:49:45.999Z</time></trkpt><trkpt lat="35.265943598765" lon="-5.3490593015001116"><ele>384.33333333333337</ele><time>2026-04-28T09:49:46.999Z</time></trkpt><trkpt lat="35.2657908228219" lon="-5.349038867221978"><ele>384.0</ele><time>2026-04-28T09:49:47.999Z</time></trkpt><trkpt lat="35.26563737967274" lon="-5.348989955872087"><ele>383.0</ele><time>2026-04-28T09:49:48.999Z</time></trkpt><trkpt lat="35.265479970335065" lon="-5.348912080479996"><ele>382.0</ele><time>2026-04-28T09:49:49.999Z</time></trkpt><trkpt lat="35.26533775261395" lon="-5.3488017923861575"><ele>381.0</ele><time>2026-04-28T09:49:50.999Z</time></trkpt><trkpt lat="35.26520681696244" lon="-5.348677833602065"><ele>381.0</ele><time>2026-04-28T09:49:51.999Z</time></trkpt><trkpt lat="35.265098976143896" lon="-5.348527863504555"><ele>381.0</ele><time>2026-04-28T09:49:52.999Z</time></trkpt><trkpt lat="35.26500656860112" lon="-5.348345461315882"><ele>381.0</ele><time>2026-04-28T09:49:53.999Z</time></trkpt><trkpt lat="35.264925740596986" lon="-5.348154709937391"><ele>381.0</ele><time>2026-04-28T09:49:54.999Z</time></trkpt><trkpt lat="35.26485665688475" lon="-5.347946320962779"><ele>381.0</ele><time>2026-04-28T09:49:55.999Z</time></trkpt><trkpt lat="35.2647761709872" lon="-5.347750190409531"><ele>381.0</ele><time>2026-04-28T09:49:56.999Z</time></trkpt><trkpt lat="35.2646864232668" lon="-5.347562427177238"><ele>381.0</ele><time>2026-04-28T09:49:57.999Z</time></trkpt><trkpt lat="35.26458663258265" lon="-5.347387653981986"><ele>381.0</ele><time>2026-04-28T09:49:58.999Z</time></trkpt><trkpt lat="35.264490497378375" lon="-5.347223396598733"><ele>381.0</ele><time>2026-04-28T09:49:59.999Z</time></trkpt><trkpt lat="35.26439045580218" lon="-5.347063344827925"><ele>385.0</ele><time>2026-04-28T09:50:00.999Z</time></trkpt><trkpt lat="35.26427559533127" lon="-5.346911354341131"><ele>389.0</ele><time>2026-04-28T09:50:01.999Z</time></trkpt><trkpt lat="35.26415053741553" lon="-5.346771103122855"><ele>393.0</ele><time>2026-04-28T09:50:02.999Z</time></trkpt><trkpt lat="35.2640003538748" lon="-5.346664812684434"><ele>389.6666666666667</ele><time>2026-04-28T09:50:03.999Z</time></trkpt><trkpt lat="35.2638422151046" lon="-5.346575761687817"><ele>386.33333333333337</ele><time>2026-04-28T09:50:04.999Z</time></trkpt><trkpt lat="35.26367363832802" lon="-5.346523553833822"><ele>383.0</ele><time>2026-04-28T09:50:05.999Z</time></trkpt><trkpt lat="35.26350255517688" lon="-5.346454637112028"><ele>383.0</ele><time>2026-04-28T09:50:06.999Z</time></trkpt><trkpt lat="35.26332147307933" lon="-5.34643630475567"><ele>383.0</ele><time>2026-04-28T09:50:07.999Z</time></trkpt><trkpt lat="35.26314232151459" lon="-5.346441487976905"><ele>383.0</ele><time>2026-04-28T09:50:08.999Z</time></trkpt><trkpt lat="35.26297090004299" lon="-5.346463510527472"><ele>382.6666666666667</ele><time>2026-04-28T09:50:09.999Z</time></trkpt><trkpt lat="35.26280735092156" lon="-5.346500372530514"><ele>382.3333333333333</ele><time>2026-04-28T09:50:10.999Z</time></trkpt><trkpt lat="35.2626484284788" lon="-5.346537861280884"><ele>382.0</ele><time>2026-04-28T09:50:11.999Z</time></trkpt><trkpt lat="35.2624991994336" lon="-5.346568026240927"><ele>382.0</ele><time>2026-04-28T09:50:12.999Z</time></trkpt><trkpt lat="35.26235234631493" lon="-5.346582475331729"><ele>382.0</ele><time>2026-04-28T09:50:13.999Z</time></trkpt><trkpt lat="35.26220449065568" lon="-5.34657817522213"><ele>382.0</ele><time>2026-04-28T09:50:14.999Z</time></trkpt><trkpt lat="35.26205739211214" lon="-5.346553337181881"><ele>382.0</ele><time>2026-04-28T09:50:15.999Z</time></trkpt><trkpt lat="35.261908517595494" lon="-5.346502696495248"><ele>380.66666666666663</ele><time>2026-04-28T09:50:16.999Z</time></trkpt><trkpt lat="35.26176677147442" lon="-5.346421861093463"><ele>379.3333333333333</ele><time>2026-04-28T09:50:17.999Z</time></trkpt><trkpt lat="35.261641722596224" lon="-5.346311321825531"><ele>378.0</ele><time>2026-04-28T09:50:18.999Z</time></trkpt><trkpt lat="35.261518428339485" lon="-5.34618768992115"><ele>380.0</ele><time>2026-04-28T09:50:19.999Z</time></trkpt><trkpt lat="35.26139069349684" lon="-5.34606564216764"><ele>382.0</ele><time>2026-04-28T09:50:20.999Z</time></trkpt><trkpt lat="35.26125654037009" lon="-5.345943620282823"><ele>384.0</ele><time>2026-04-28T09:50:21.999Z</time></trkpt><trkpt lat="35.2611166373952" lon="-5.345820066898574"><ele>384.0</ele><time>2026-04-28T09:50:22.999Z</time></trkpt><trkpt lat="35.26097495592851" lon="-5.3456968957576345"><ele>384.0</ele><time>2026-04-28T09:50:23.999Z</time></trkpt><trkpt lat="35.260840992264285" lon="-5.345574937150053"><ele>384.0</ele><time>2026-04-28T09:50:24.999Z</time></trkpt><trkpt lat="35.26071251351314" lon="-5.345455724471973"><ele>378.6666666666667</ele><time>2026-04-28T09:50:25.999Z</time></trkpt><trkpt lat="35.260579961972006" lon="-5.345338247799894"><ele>373.33333333333337</ele><time>2026-04-28T09:50:26.999Z</time></trkpt><trkpt lat="35.26044654514293" lon="-5.345223201323807"><ele>368.0</ele><time>2026-04-28T09:50:27.999Z</time></trkpt><trkpt lat="35.26032987761647" lon="-5.345090139215189"><ele>368.0</ele><time>2026-04-28T09:50:29Z</time></trkpt><trkpt lat="35.26023234571582" lon="-5.34494078957484"><ele>368.0</ele><time>2026-04-28T09:50:30Z</time></trkpt><trkpt lat="35.260152433043686" lon="-5.3447777341392975"><ele>368.0</ele><time>2026-04-28T09:50:31Z</time></trkpt><trkpt lat="35.260090012470634" lon="-5.344600349144512"><ele>368.6666666666667</ele><time>2026-04-28T09:50:32Z</time></trkpt><trkpt lat="35.2600453684365" lon="-5.344405594854966"><ele>369.3333333333333</ele><time>2026-04-28T09:50:33Z</time></trkpt><trkpt lat="35.260022462996304" lon="-5.344193852057009"><ele>370.0</ele><time>2026-04-28T09:50:34Z</time></trkpt><trkpt lat="35.26000915548117" lon="-5.343972198939708"><ele>371.0</ele><time>2026-04-28T09:50:35Z</time></trkpt><trkpt lat="35.25997203102085" lon="-5.343751329401806"><ele>372.0</ele><time>2026-04-28T09:50:36Z</time></trkpt><trkpt lat="35.25993905996457" lon="-5.343530545748596"><ele>373.0</ele><time>2026-04-28T09:50:37Z</time></trkpt><trkpt lat="35.259906680580464" lon="-5.343313377434932"><ele>373.0</ele><time>2026-04-28T09:50:38Z</time></trkpt><trkpt lat="35.2598753948933" lon="-5.343104823131425"><ele>373.0</ele><time>2026-04-28T09:50:39Z</time></trkpt><trkpt lat="35.25984412225302" lon="-5.342899230783069"><ele>373.0</ele><time>2026-04-28T09:50:40Z</time></trkpt><trkpt lat="35.259811810986264" lon="-5.342705673592673"><ele>368.0</ele><time>2026-04-28T09:50:41Z</time></trkpt><trkpt lat="35.25976525892688" lon="-5.342539757809055"><ele>363.0</ele><time>2026-04-28T09:50:42Z</time></trkpt><trkpt lat="35.259695229724926" lon="-5.342388262292371"><ele>358.0</ele><time>2026-04-28T09:50:43Z</time></trkpt><trkpt lat="35.259603471421116" lon="-5.342232583445464"><ele>353.0</ele><time>2026-04-28T09:50:44Z</time></trkpt><trkpt lat="35.259463425950244" lon="-5.342114534012109"><ele>353.0</ele><time>2026-04-28T09:50:45Z</time></trkpt><trkpt lat="35.25930324970409" lon="-5.342015508003565"><ele>353.0</ele><time>2026-04-28T09:50:46Z</time></trkpt><trkpt lat="35.25912873401721" lon="-5.341935921942516"><ele>353.0</ele><time>2026-04-28T09:50:47Z</time></trkpt><trkpt lat="35.2589529557632" lon="-5.341854248322854"><ele>349.6666666666667</ele><time>2026-04-28T09:50:48Z</time></trkpt><trkpt lat="35.258776940765806" lon="-5.3417650367434675"><ele>346.3333333333333</ele><time>2026-04-28T09:50:49Z</time></trkpt><trkpt lat="35.2585975882827" lon="-5.341674251908683"><ele>343.0</ele><time>2026-04-28T09:50:50Z</time></trkpt><trkpt lat="35.25841893698532" lon="-5.3415831758356696"><ele>343.0</ele><time>2026-04-28T09:50:51Z</time></trkpt><trkpt lat="35.25824083701794" lon="-5.341491566289781"><ele>343.0</ele><time>2026-04-28T09:50:52Z</time></trkpt><trkpt lat="35.258064575765964" lon="-5.341403966317809"><ele>343.0</ele><time>2026-04-28T09:50:53Z</time></trkpt><trkpt lat="35.257891233103294" lon="-5.341319291059482"><ele>339.66666666666663</ele><time>2026-04-28T09:50:54Z</time></trkpt><trkpt lat="35.2577213983309" lon="-5.341236832048785"><ele>336.3333333333333</ele><time>2026-04-28T09:50:55Z</time></trkpt><trkpt lat="35.257550873267704" lon="-5.341166578441767"><ele>333.0</ele><time>2026-04-28T09:50:56Z</time></trkpt><trkpt lat="35.257371602168604" lon="-5.341124760834781"><ele>331.0</ele><time>2026-04-28T09:50:57Z</time></trkpt><trkpt lat="35.25718302143407" lon="-5.341102542413832"><ele>329.0</ele><time>2026-04-28T09:50:58Z</time></trkpt><trkpt lat="35.25699463922968" lon="-5.341080604177136"><ele>327.0</ele><time>2026-04-28T09:50:59Z</time></trkpt><trkpt lat="35.25680308665963" lon="-5.3410503002400915"><ele>327.0</ele><time>2026-04-28T09:51:00Z</time></trkpt><trkpt lat="35.25661193229528" lon="-5.341018404248071"><ele>327.0</ele><time>2026-04-28T09:51:01Z</time></trkpt><trkpt lat="35.25642058850576" lon="-5.340989136895838"><ele>327.0</ele><time>2026-04-28T09:51:02Z</time></trkpt><trkpt lat="35.25623647832041" lon="-5.340965504266886"><ele>326.0</ele><time>2026-04-28T09:51:03Z</time></trkpt><trkpt lat="35.256061409439866" lon="-5.340945123138215"><ele>325.0</ele><time>2026-04-28T09:51:03.999Z</time></trkpt><trkpt lat="35.25589134715952" lon="-5.3409181020714325"><ele>324.0</ele><time>2026-04-28T09:51:04.999Z</time></trkpt><trkpt lat="35.25572564523818" lon="-5.340874148210791"><ele>323.3333333333333</ele><time>2026-04-28T09:51:05.999Z</time></trkpt><trkpt lat="35.255571007637315" lon="-5.340797188586625"><ele>322.66666666666663</ele><time>2026-04-28T09:51:06.999Z</time></trkpt><trkpt lat="35.25542136681214" lon="-5.340690823169559"><ele>322.0</ele><time>2026-04-28T09:51:07.999Z</time></trkpt><trkpt lat="35.255276624594366" lon="-5.340549462507975"><ele>322.0</ele><time>2026-04-28T09:51:08.999Z</time></trkpt><trkpt lat="35.255131782217035" lon="-5.340386846124259"><ele>322.0</ele><time>2026-04-28T09:51:09.999Z</time></trkpt><trkpt lat="35.25498907603874" lon="-5.340212231599927"><ele>322.0</ele><time>2026-04-28T09:51:10.999Z</time></trkpt><trkpt lat="35.25484366682224" lon="-5.340043787698088"><ele>321.3333333333333</ele><time>2026-04-28T09:51:11.999Z</time></trkpt><trkpt lat="35.25469322295949" lon="-5.339880262474129"><ele>320.6666666666667</ele><time>2026-04-28T09:51:12.999Z</time></trkpt><trkpt lat="35.2545459173111" lon="-5.339717620639342"><ele>320.0</ele><time>2026-04-28T09:51:13.999Z</time></trkpt><trkpt lat="35.25440316829639" lon="-5.339561797367832"><ele>320.0</ele><time>2026-04-28T09:51:14.999Z</time></trkpt><trkpt lat="35.254263836495554" lon="-5.339411117188461"><ele>320.0</ele><time>2026-04-28T09:51:15.999Z</time></trkpt><trkpt lat="35.254131633014524" lon="-5.339263801618167"><ele>320.0</ele><time>2026-04-28T09:51:16.999Z</time></trkpt><trkpt lat="35.254002152783166" lon="-5.33911895341922"><ele>320.0</ele><time>2026-04-28T09:51:17.999Z</time></trkpt><trkpt lat="35.253874330084415" lon="-5.338981151877868"><ele>320.0</ele><time>2026-04-28T09:51:18.999Z</time></trkpt><trkpt lat="35.253748685494436" lon="-5.338849266143573"><ele>320.0</ele><time>2026-04-28T09:51:19.999Z</time></trkpt><trkpt lat="35.253624684226736" lon="-5.3387114556543125"><ele>320.0</ele><time>2026-04-28T09:51:20.999Z</time></trkpt><trkpt lat="35.25350523261507" lon="-5.338574588745473"><ele>320.0</ele><time>2026-04-28T09:51:21.999Z</time></trkpt><trkpt lat="35.2533838227635" lon="-5.3384370515068"><ele>320.0</ele><time>2026-04-28T09:51:22.999Z</time></trkpt><trkpt lat="35.253259095058304" lon="-5.338300748962391"><ele>320.0</ele><time>2026-04-28T09:51:23.999Z</time></trkpt><trkpt lat="35.25313620273949" lon="-5.338166520869125"><ele>320.0</ele><time>2026-04-28T09:51:24.999Z</time></trkpt><trkpt lat="35.25300953617506" lon="-5.338027495638337"><ele>320.0</ele><time>2026-04-28T09:51:25.999Z</time></trkpt><trkpt lat="35.25288553070842" lon="-5.337885038852514"><ele>318.0</ele><time>2026-04-28T09:51:26.999Z</time></trkpt><trkpt lat="35.2527600525374" lon="-5.337744002773051"><ele>316.0</ele><time>2026-04-28T09:51:27.999Z</time></trkpt><trkpt lat="35.25263325207522" lon="-5.337608392763667"><ele>314.0</ele><time>2026-04-28T09:51:28.999Z</time></trkpt><trkpt lat="35.25250996030431" lon="-5.337476815794912"><ele>314.0</ele><time>2026-04-28T09:51:29.999Z</time></trkpt><trkpt lat="35.25238835174726" lon="-5.33733693735285"><ele>314.0</ele><time>2026-04-28T09:51:30.999Z</time></trkpt><trkpt lat="35.25227795432939" lon="-5.3372064201271"><ele>314.0</ele><time>2026-04-28T09:51:31.999Z</time></trkpt><trkpt lat="35.25216902329353" lon="-5.337082748779397"><ele>314.0</ele><time>2026-04-28T09:51:32.999Z</time></trkpt><trkpt lat="35.252058506537885" lon="-5.336959316059926"><ele>314.0</ele><time>2026-04-28T09:51:33.999Z</time></trkpt><trkpt lat="35.25194757023448" lon="-5.336836036311425"><ele>314.0</ele><time>2026-04-28T09:51:34.999Z</time></trkpt><trkpt lat="35.25183325822784" lon="-5.336713203653342"><ele>314.0</ele><time>2026-04-28T09:51:35.999Z</time></trkpt><trkpt lat="35.25172206409039" lon="-5.336584093650561"><ele>314.0</ele><time>2026-04-28T09:51:36.999Z</time></trkpt><trkpt lat="35.251609258166226" lon="-5.336454725060456"><ele>314.0</ele><time>2026-04-28T09:51:37.999Z</time></trkpt><trkpt lat="35.25149400967605" lon="-5.336326495870645"><ele>313.33333333333337</ele><time>2026-04-28T09:51:38.999Z</time></trkpt><trkpt lat="35.25137471530999" lon="-5.336198579631067"><ele>312.6666666666667</ele><time>2026-04-28T09:51:39.999Z</time></trkpt><trkpt lat="35.251260622585214" lon="-5.3360639659488776"><ele>312.0</ele><time>2026-04-28T09:51:40.999Z</time></trkpt><trkpt lat="35.2511467533643" lon="-5.335926628789623"><ele>312.0</ele><time>2026-04-28T09:51:41.999Z</time></trkpt><trkpt lat="35.251028375425875" lon="-5.335792625503761"><ele>312.0</ele><time>2026-04-28T09:51:42.999Z</time></trkpt><trkpt lat="35.250907661487226" lon="-5.3356613870893845"><ele>312.0</ele><time>2026-04-28T09:51:43.999Z</time></trkpt><trkpt lat="35.25078666129945" lon="-5.335525465610563"><ele>311.6666666666667</ele><time>2026-04-28T09:51:44.999Z</time></trkpt><trkpt lat="35.25066621830582" lon="-5.3353910524253"><ele>311.33333333333337</ele><time>2026-04-28T09:51:45.999Z</time></trkpt><trkpt lat="35.25054862240933" lon="-5.335253627906896"><ele>311.0</ele><time>2026-04-28T09:51:46.999Z</time></trkpt><trkpt lat="35.250426500221614" lon="-5.335118999679865"><ele>311.0</ele><time>2026-04-28T09:51:47.999Z</time></trkpt><trkpt lat="35.250307717976476" lon="-5.334984906510576"><ele>311.0</ele><time>2026-04-28T09:51:48.999Z</time></trkpt><trkpt lat="35.25019568121929" lon="-5.334856827733995"><ele>311.0</ele><time>2026-04-28T09:51:49.999Z</time></trkpt><trkpt lat="35.25008530277176" lon="-5.334726338631731"><ele>311.33333333333337</ele><time>2026-04-28T09:51:50.999Z</time></trkpt><trkpt lat="35.24997397968572" lon="-5.3345975996498005"><ele>311.6666666666667</ele><time>2026-04-28T09:51:51.999Z</time></trkpt><trkpt lat="35.24986106374812" lon="-5.3344683494602325"><ele>312.0</ele><time>2026-04-28T09:51:52.999Z</time></trkpt><trkpt lat="35.249745294465555" lon="-5.334340189591344"><ele>311.0</ele><time>2026-04-28T09:51:53.999Z</time></trkpt><trkpt lat="35.24963358790608" lon="-5.334210181631441"><ele>310.0</ele><time>2026-04-28T09:51:54.999Z</time></trkpt><trkpt lat="35.24951905078863" lon="-5.334078214965136"><ele>309.0</ele><time>2026-04-28T09:51:55.999Z</time></trkpt><trkpt lat="35.249401376603174" lon="-5.3339485100877075"><ele>310.6666666666667</ele><time>2026-04-28T09:51:56.999Z</time></trkpt><trkpt lat="35.24927838652111" lon="-5.333825622413112"><ele>312.33333333333337</ele><time>2026-04-28T09:51:57.999Z</time></trkpt><trkpt lat="35.249145340277195" lon="-5.333715292409873"><ele>314.0</ele><time>2026-04-28T09:51:58.999Z</time></trkpt><trkpt lat="35.24900759412988" lon="-5.333613087465191"><ele>313.0</ele><time>2026-04-28T09:51:59.999Z</time></trkpt><trkpt lat="35.248872548143" lon="-5.3335223489293035"><ele>312.0</ele><time>2026-04-28T09:52:00.999Z</time></trkpt><trkpt lat="35.248744568446995" lon="-5.3334345869052795"><ele>311.0</ele><time>2026-04-28T09:52:01.999Z</time></trkpt><trkpt lat="35.24861974490707" lon="-5.333346715072997"><ele>310.0</ele><time>2026-04-28T09:52:02.999Z</time></trkpt><trkpt lat="35.24848976085364" lon="-5.3332631151198475"><ele>310.0</ele><time>2026-04-28T09:52:03.999Z</time></trkpt><trkpt lat="35.24835716888176" lon="-5.333175096965326"><ele>310.0</ele><time>2026-04-28T09:52:04.999Z</time></trkpt><trkpt lat="35.248222202346255" lon="-5.3330796478770575"><ele>310.0</ele><time>2026-04-28T09:52:05.999Z</time></trkpt><trkpt lat="35.2480860733667" lon="-5.332984274341307"><ele>310.3333333333333</ele><time>2026-04-28T09:52:06.999Z</time></trkpt><trkpt lat="35.2479441791421" lon="-5.332891083084703"><ele>310.6666666666667</ele><time>2026-04-28T09:52:07.999Z</time></trkpt><trkpt lat="35.247800306797664" lon="-5.332796881261954"><ele>311.0</ele><time>2026-04-28T09:52:08.999Z</time></trkpt><trkpt lat="35.24765874510029" lon="-5.332700188349906"><ele>311.0</ele><time>2026-04-28T09:52:09.999Z</time></trkpt><trkpt lat="35.24751670428571" lon="-5.332601091972394"><ele>311.0</ele><time>2026-04-28T09:52:10.999Z</time></trkpt><trkpt lat="35.2473721652799" lon="-5.332504677584106"><ele>311.0</ele><time>2026-04-28T09:52:11.999Z</time></trkpt><trkpt lat="35.24723529017115" lon="-5.332407178981933"><ele>309.6666666666667</ele><time>2026-04-28T09:52:12.999Z</time></trkpt><trkpt lat="35.24711768593277" lon="-5.332284613078681"><ele>308.3333333333333</ele><time>2026-04-28T09:52:13.999Z</time></trkpt><trkpt lat="35.24701692516078" lon="-5.332145160460488"><ele>307.0</ele><time>2026-04-28T09:52:14.999Z</time></trkpt><trkpt lat="35.246922148775646" lon="-5.331991795516115"><ele>307.0</ele><time>2026-04-28T09:52:15.999Z</time></trkpt><trkpt lat="35.246829971416865" lon="-5.331833055551518"><ele>307.0</ele><time>2026-04-28T09:52:16.999Z</time></trkpt><trkpt lat="35.2467400876123" lon="-5.3316750096173315"><ele>307.0</ele><time>2026-04-28T09:52:17.999Z</time></trkpt><trkpt lat="35.24663940549409" lon="-5.331526028723848"><ele>306.66666666666663</ele><time>2026-04-28T09:52:18.999Z</time></trkpt><trkpt lat="35.246548435902874" lon="-5.331369043266697"><ele>306.3333333333333</ele><time>2026-04-28T09:52:19.999Z</time></trkpt><trkpt lat="35.24645705294394" lon="-5.331211344622264"><ele>306.0</ele><time>2026-04-28T09:52:20.999Z</time></trkpt><trkpt lat="35.24637794638052" lon="-5.331048144258082"><ele>306.0</ele><time>2026-04-28T09:52:21.999Z</time></trkpt><trkpt lat="35.24626112584865" lon="-5.330931416704616"><ele>306.0</ele><time>2026-04-28T09:52:22.999Z</time></trkpt><trkpt lat="35.24613829775783" lon="-5.330824222054942"><ele>306.0</ele><time>2026-04-28T09:52:23.999Z</time></trkpt><trkpt lat="35.24600412310336" lon="-5.330727750275629"><ele>306.0</ele><time>2026-04-28T09:52:24.999Z</time></trkpt><trkpt lat="35.24584980830899" lon="-5.330679148257042"><ele>306.0</ele><time>2026-04-28T09:52:25.999Z</time></trkpt><trkpt lat="35.24569595933622" lon="-5.330634982048398"><ele>306.0</ele><time>2026-04-28T09:52:26.999Z</time></trkpt><trkpt lat="35.24554386593543" lon="-5.330593718352334"><ele>307.5</ele><time>2026-04-28T09:52:27.999Z</time></trkpt><trkpt lat="35.2453996315797" lon="-5.330555967848279"><ele>309.0</ele><time>2026-04-28T09:52:28.999Z</time></trkpt><trkpt lat="35.24525809061618" lon="-5.330516070712281"><ele>310.5</ele><time>2026-04-28T09:52:29.999Z</time></trkpt><trkpt lat="35.24511842513679" lon="-5.330478295639354"><ele>312.0</ele><time>2026-04-28T09:52:30.999Z</time></trkpt><trkpt lat="35.2449856080456" lon="-5.3304428291081525"><ele>312.0</ele><time>2026-04-28T09:52:31.999Z</time></trkpt><trkpt lat="35.24485880038114" lon="-5.330404963376978"><ele>312.0</ele><time>2026-04-28T09:52:32.999Z</time></trkpt><trkpt lat="35.24473710518016" lon="-5.330349651614347"><ele>312.0</ele><time>2026-04-28T09:52:33.999Z</time></trkpt><trkpt lat="35.24462371375902" lon="-5.330273537120311"><ele>312.0</ele><time>2026-04-28T09:52:35Z</time></trkpt><trkpt lat="35.24452332210163" lon="-5.330168906740218"><ele>310.25</ele><time>2026-04-28T09:52:36Z</time></trkpt><trkpt lat="35.244437227665884" lon="-5.330034828360776"><ele>308.5</ele><time>2026-04-28T09:52:37Z</time></trkpt><trkpt lat="35.244365259800404" lon="-5.329881023168055"><ele>306.75</ele><time>2026-04-28T09:52:38Z</time></trkpt><trkpt lat="35.24430230298864" lon="-5.329715557667547"><ele>305.0</ele><time>2026-04-28T09:52:39Z</time></trkpt><trkpt lat="35.24423730141398" lon="-5.3295469487567075"><ele>305.0</ele><time>2026-04-28T09:52:40Z</time></trkpt><trkpt lat="35.244169437926864" lon="-5.329383701884011"><ele>305.0</ele><time>2026-04-28T09:52:41Z</time></trkpt><trkpt lat="35.24410356340293" lon="-5.329220219637075"><ele>305.0</ele><time>2026-04-28T09:52:42Z</time></trkpt><trkpt lat="35.24403741680126" lon="-5.329050564999829"><ele>303.33333333333337</ele><time>2026-04-28T09:52:43Z</time></trkpt><trkpt lat="35.24396473482698" lon="-5.328879038832122"><ele>301.6666666666667</ele><time>2026-04-28T09:52:44Z</time></trkpt><trkpt lat="35.243893878451104" lon="-5.3287127004978245"><ele>300.0</ele><time>2026-04-28T09:52:45Z</time></trkpt><trkpt lat="35.24382771992093" lon="-5.328547140378943"><ele>300.0</ele><time>2026-04-28T09:52:46Z</time></trkpt><trkpt lat="35.24376026098082" lon="-5.328383161901253"><ele>300.0</ele><time>2026-04-28T09:52:47Z</time></trkpt><trkpt lat="35.24369350507885" lon="-5.328220518832634"><ele>300.0</ele><time>2026-04-28T09:52:48Z</time></trkpt><trkpt lat="35.24362617254136" lon="-5.328055763572214"><ele>300.0</ele><time>2026-04-28T09:52:49Z</time></trkpt><trkpt lat="35.24355957546851" lon="-5.327890359312138"><ele>301.3333333333333</ele><time>2026-04-28T09:52:50Z</time></trkpt><trkpt lat="35.24349081314457" lon="-5.327727249308285"><ele>302.66666666666663</ele><time>2026-04-28T09:52:51Z</time></trkpt><trkpt lat="35.243419627983926" lon="-5.327564449449684"><ele>304.0</ele><time>2026-04-28T09:52:52Z</time></trkpt><trkpt lat="35.24334921842137" lon="-5.327398691838551"><ele>305.66666666666663</ele><time>2026-04-28T09:52:53Z</time></trkpt><trkpt lat="35.24328312344021" lon="-5.32722727223912"><ele>307.3333333333333</ele><time>2026-04-28T09:52:54Z</time></trkpt><trkpt lat="35.243217067051866" lon="-5.327052957611279"><ele>309.0</ele><time>2026-04-28T09:52:55Z</time></trkpt><trkpt lat="35.243152581101164" lon="-5.32688408809561"><ele>309.25</ele><time>2026-04-28T09:52:56Z</time></trkpt><trkpt lat="35.24308630512569" lon="-5.3267268118356705"><ele>309.5</ele><time>2026-04-28T09:52:57Z</time></trkpt><trkpt lat="35.24300439015211" lon="-5.326577454644073"><ele>309.75</ele><time>2026-04-28T09:52:58Z</time></trkpt><trkpt lat="35.24290068066999" lon="-5.326448219022874"><ele>310.0</ele><time>2026-04-28T09:52:59Z</time></trkpt><trkpt lat="35.24278024298085" lon="-5.326344104976777"><ele>310.0</ele><time>2026-04-28T09:53:00Z</time></trkpt><trkpt lat="35.24265524075221" lon="-5.326251122537275"><ele>310.0</ele><time>2026-04-28T09:53:01Z</time></trkpt><trkpt lat="35.242528189425585" lon="-5.326165308788267"><ele>310.0</ele><time>2026-04-28T09:53:02Z</time></trkpt><trkpt lat="35.24240331271503" lon="-5.326081502975213"><ele>310.0</ele><time>2026-04-28T09:53:03Z</time></trkpt><trkpt lat="35.24228284538741" lon="-5.325997820059209"><ele>307.0</ele><time>2026-04-28T09:53:04Z</time></trkpt><trkpt lat="35.24216059405071" lon="-5.32591620968102"><ele>304.0</ele><time>2026-04-28T09:53:05Z</time></trkpt><trkpt lat="35.24203822997413" lon="-5.325832466011852"><ele>301.0</ele><time>2026-04-28T09:53:06Z</time></trkpt><trkpt lat="35.2419140701615" lon="-5.325751025314009"><ele>298.0</ele><time>2026-04-28T09:53:07Z</time></trkpt><trkpt lat="35.241791723892476" lon="-5.325670222529337"><ele>298.0</ele><time>2026-04-28T09:53:08Z</time></trkpt><trkpt lat="35.241667532317" lon="-5.325587787206978"><ele>298.0</ele><time>2026-04-28T09:53:09Z</time></trkpt><trkpt lat="35.241544199431786" lon="-5.325501878611771"><ele>298.0</ele><time>2026-04-28T09:53:10Z</time></trkpt><trkpt lat="35.2414192186524" lon="-5.325421575230907"><ele>298.0</ele><time>2026-04-28T09:53:11Z</time></trkpt><trkpt lat="35.24129033257072" lon="-5.325349028483895"><ele>298.5</ele><time>2026-04-28T09:53:12Z</time></trkpt><trkpt lat="35.241162995458275" lon="-5.325289164121974"><ele>299.0</ele><time>2026-04-28T09:53:13Z</time></trkpt><trkpt lat="35.241032484741105" lon="-5.325251892264796"><ele>299.5</ele><time>2026-04-28T09:53:14Z</time></trkpt><trkpt lat="35.24089650371199" lon="-5.325236745077452"><ele>300.0</ele><time>2026-04-28T09:53:15Z</time></trkpt><trkpt lat="35.24075741296704" lon="-5.3252338238279435"><ele>299.75</ele><time>2026-04-28T09:53:16Z</time></trkpt><trkpt lat="35.24061941599677" lon="-5.325233204570799"><ele>299.5</ele><time>2026-04-28T09:53:17Z</time></trkpt><trkpt lat="35.240482978731215" lon="-5.325229560188821"><ele>299.25</ele><time>2026-04-28T09:53:17.999Z</time></trkpt><trkpt lat="35.24034546078301" lon="-5.325227014789178"><ele>299.0</ele><time>2026-04-28T09:53:18.999Z</time></trkpt><trkpt lat="35.24020941267744" lon="-5.325215684766979"><ele>299.0</ele><time>2026-04-28T09:53:19.999Z</time></trkpt><trkpt lat="35.24007490495158" lon="-5.325191313008632"><ele>299.0</ele><time>2026-04-28T09:53:20.999Z</time></trkpt><trkpt lat="35.23993813551286" lon="-5.325151370291222"><ele>299.0</ele><time>2026-04-28T09:53:21.999Z</time></trkpt><trkpt lat="35.2398023520058" lon="-5.3250882863871825"><ele>299.0</ele><time>2026-04-28T09:53:22.999Z</time></trkpt><trkpt lat="35.23966950317395" lon="-5.325001137415979"><ele>298.25</ele><time>2026-04-28T09:53:23.999Z</time></trkpt><trkpt lat="35.23953605133198" lon="-5.324920664083701"><ele>297.5</ele><time>2026-04-28T09:53:24.999Z</time></trkpt><trkpt lat="35.23939926237292" lon="-5.324850110076196"><ele>296.75</ele><time>2026-04-28T09:53:25.999Z</time></trkpt><trkpt lat="35.23926212967209" lon="-5.324784437956059"><ele>296.0</ele><time>2026-04-28T09:53:26.999Z</time></trkpt><trkpt lat="35.23912565604748" lon="-5.3247162225183"><ele>299.33333333333337</ele><time>2026-04-28T09:53:27.999Z</time></trkpt><trkpt lat="35.23898734025005" lon="-5.32464927184955"><ele>302.6666666666667</ele><time>2026-04-28T09:53:28.999Z</time></trkpt><trkpt lat="35.23884092414541" lon="-5.3246014409052425"><ele>306.0</ele><time>2026-04-28T09:53:29.999Z</time></trkpt><trkpt lat="35.23869217345023" lon="-5.324584820169729"><ele>306.0</ele><time>2026-04-28T09:53:30.999Z</time></trkpt><trkpt lat="35.238542434726796" lon="-5.324587934422711"><ele>306.0</ele><time>2026-04-28T09:53:31.999Z</time></trkpt><trkpt lat="35.2383899531679" lon="-5.324582682117489"><ele>306.0</ele><time>2026-04-28T09:53:32.999Z</time></trkpt><trkpt lat="35.23823611817224" lon="-5.3245642341794195"><ele>302.3333333333333</ele><time>2026-04-28T09:53:33.999Z</time></trkpt><trkpt lat="35.23808163337104" lon="-5.324540515798947"><ele>298.66666666666663</ele><time>2026-04-28T09:53:34.999Z</time></trkpt><trkpt lat="35.237926025009095" lon="-5.3245075040259655"><ele>295.0</ele><time>2026-04-28T09:53:35.999Z</time></trkpt><trkpt lat="35.237772270861896" lon="-5.3244681309505495"><ele>295.0</ele><time>2026-04-28T09:53:36.999Z</time></trkpt><trkpt lat="35.23761881454241" lon="-5.324423372074922"><ele>295.0</ele><time>2026-04-28T09:53:37.999Z</time></trkpt><trkpt lat="35.23746618481715" lon="-5.3243796695400745"><ele>295.0</ele><time>2026-04-28T09:53:38.999Z</time></trkpt><trkpt lat="35.2373115474744" lon="-5.324337260788755"><ele>294.0</ele><time>2026-04-28T09:53:39.999Z</time></trkpt><trkpt lat="35.237156183837406" lon="-5.324292071470088"><ele>293.0</ele><time>2026-04-28T09:53:40.999Z</time></trkpt><trkpt lat="35.237000522678045" lon="-5.324249321911651"><ele>292.0</ele><time>2026-04-28T09:53:41.999Z</time></trkpt><trkpt lat="35.23684608388576" lon="-5.324206001192097"><ele>292.0</ele><time>2026-04-28T09:53:42.999Z</time></trkpt><trkpt lat="35.236690940516624" lon="-5.324160377825149"><ele>292.0</ele><time>2026-04-28T09:53:43.999Z</time></trkpt><trkpt lat="35.236537555550704" lon="-5.324113475950621"><ele>292.0</ele><time>2026-04-28T09:53:44.999Z</time></trkpt><trkpt lat="35.23638612558243" lon="-5.3240680552167206"><ele>291.66666666666663</ele><time>2026-04-28T09:53:45.999Z</time></trkpt><trkpt lat="35.2362372089934" lon="-5.324030285208761"><ele>291.3333333333333</ele><time>2026-04-28T09:53:46.999Z</time></trkpt><trkpt lat="35.23608690158338" lon="-5.323999720081249"><ele>291.0</ele><time>2026-04-28T09:53:47.999Z</time></trkpt><trkpt lat="35.23593669761489" lon="-5.323979313681804"><ele>291.0</ele><time>2026-04-28T09:53:48.999Z</time></trkpt><trkpt lat="35.23579143294197" lon="-5.323976393354196"><ele>291.0</ele><time>2026-04-28T09:53:49.999Z</time></trkpt><trkpt lat="35.23564700908272" lon="-5.323983390924461"><ele>291.0</ele><time>2026-04-28T09:53:50.999Z</time></trkpt><trkpt lat="35.23550230095565" lon="-5.32399318548712"><ele>291.0</ele><time>2026-04-28T09:53:51.999Z</time></trkpt><trkpt lat="35.2353588650836" lon="-5.324003452586"><ele>290.75</ele><time>2026-04-28T09:53:52.999Z</time></trkpt><trkpt lat="35.23521285744465" lon="-5.324012637587727"><ele>290.5</ele><time>2026-04-28T09:53:53.999Z</time></trkpt><trkpt lat="35.23506890368008" lon="-5.324021160438205"><ele>290.25</ele><time>2026-04-28T09:53:54.999Z</time></trkpt><trkpt lat="35.23492540272842" lon="-5.324032918372878"><ele>290.0</ele><time>2026-04-28T09:53:55.999Z</time></trkpt><trkpt lat="35.23478610976356" lon="-5.324042891230108"><ele>291.0</ele><time>2026-04-28T09:53:56.999Z</time></trkpt><trkpt lat="35.23464982250521" lon="-5.3240616423440015"><ele>292.0</ele><time>2026-04-28T09:53:57.999Z</time></trkpt><trkpt lat="35.234514676008075" lon="-5.3240909694687995"><ele>293.0</ele><time>2026-04-28T09:53:58.999Z</time></trkpt><trkpt lat="35.23438016681927" lon="-5.324134011115196"><ele>294.0</ele><time>2026-04-28T09:53:59.999Z</time></trkpt><trkpt lat="35.23424878693994" lon="-5.324185669221364"><ele>294.0</ele><time>2026-04-28T09:54:00.999Z</time></trkpt><trkpt lat="35.23411652861008" lon="-5.324237618302696"><ele>294.0</ele><time>2026-04-28T09:54:01.999Z</time></trkpt><trkpt lat="35.23397974327675" lon="-5.324289393079111"><ele>294.0</ele><time>2026-04-28T09:54:02.999Z</time></trkpt><trkpt lat="35.23384259289481" lon="-5.324339782195506"><ele>294.0</ele><time>2026-04-28T09:54:03.999Z</time></trkpt><trkpt lat="35.233705244076404" lon="-5.324391764155717"><ele>295.0</ele><time>2026-04-28T09:54:04.999Z</time></trkpt><trkpt lat="35.233569263094786" lon="-5.324443779998757"><ele>296.0</ele><time>2026-04-28T09:54:05.999Z</time></trkpt><trkpt lat="35.233433952723495" lon="-5.324496730739556"><ele>297.0</ele><time>2026-04-28T09:54:06.999Z</time></trkpt><trkpt lat="35.23329691264575" lon="-5.324551306852494"><ele>298.0</ele><time>2026-04-28T09:54:07.999Z</time></trkpt><trkpt lat="35.23315872220307" lon="-5.324595887485369"><ele>296.5</ele><time>2026-04-28T09:54:08.999Z</time></trkpt><trkpt lat="35.233015038311464" lon="-5.324611356552943"><ele>295.0</ele><time>2026-04-28T09:54:09.999Z</time></trkpt><trkpt lat="35.23287279320569" lon="-5.324609062892543"><ele>293.5</ele><time>2026-04-28T09:54:10.999Z</time></trkpt><trkpt lat="35.23272763109834" lon="-5.324572997297011"><ele>292.0</ele><time>2026-04-28T09:54:11.999Z</time></trkpt><trkpt lat="35.232583096240774" lon="-5.324523273957226"><ele>292.0</ele><time>2026-04-28T09:54:12.999Z</time></trkpt><trkpt lat="35.23244107827459" lon="-5.324459124352241"><ele>292.0</ele><time>2026-04-28T09:54:13.999Z</time></trkpt><trkpt lat="35.23230107024352" lon="-5.324383475280102"><ele>292.0</ele><time>2026-04-28T09:54:14.999Z</time></trkpt><trkpt lat="35.232165905262065" lon="-5.324297116601686"><ele>289.0</ele><time>2026-04-28T09:54:15.999Z</time></trkpt><trkpt lat="35.23202966611405" lon="-5.324211980754616"><ele>286.0</ele><time>2026-04-28T09:54:16.999Z</time></trkpt><trkpt lat="35.23189116173177" lon="-5.324128935109365"><ele>283.0</ele><time>2026-04-28T09:54:17.999Z</time></trkpt><trkpt lat="35.23175176810137" lon="-5.324042890828945"><ele>283.0</ele><time>2026-04-28T09:54:18.999Z</time></trkpt><trkpt lat="35.23161179723769" lon="-5.323954112738103"><ele>283.0</ele><time>2026-04-28T09:54:19.999Z</time></trkpt><trkpt lat="35.23146990140007" lon="-5.3238688039881295"><ele>283.0</ele><time>2026-04-28T09:54:20.999Z</time></trkpt><trkpt lat="35.23132973896902" lon="-5.323780671249118"><ele>283.75</ele><time>2026-04-28T09:54:21.999Z</time></trkpt><trkpt lat="35.2311925818453" lon="-5.323700007031163"><ele>284.5</ele><time>2026-04-28T09:54:22.999Z</time></trkpt><trkpt lat="35.23106158358611" lon="-5.323621842264428"><ele>285.25</ele><time>2026-04-28T09:54:23.999Z</time></trkpt><trkpt lat="35.23093749854106" lon="-5.323544523399259"><ele>286.0</ele><time>2026-04-28T09:54:24.999Z</time></trkpt><trkpt lat="35.230819023290955" lon="-5.323466553351899"><ele>286.0</ele><time>2026-04-28T09:54:25.999Z</time></trkpt><trkpt lat="35.230702973097955" lon="-5.323392877763666"><ele>286.0</ele><time>2026-04-28T09:54:26.999Z</time></trkpt><trkpt lat="35.23058792703574" lon="-5.32332497351802"><ele>286.0</ele><time>2026-04-28T09:54:27.999Z</time></trkpt><trkpt lat="35.230472607792734" lon="-5.323254046206933"><ele>286.0</ele><time>2026-04-28T09:54:28.999Z</time></trkpt><trkpt lat="35.23035616292076" lon="-5.323183404601199"><ele>286.75</ele><time>2026-04-28T09:54:29.999Z</time></trkpt><trkpt lat="35.23024000452343" lon="-5.323111396697299"><ele>287.5</ele><time>2026-04-28T09:54:30.999Z</time></trkpt><trkpt lat="35.23012413159604" lon="-5.32303732174682"><ele>288.25</ele><time>2026-04-28T09:54:31.999Z</time></trkpt><trkpt lat="35.23000959872139" lon="-5.322963288909754"><ele>289.0</ele><time>2026-04-28T09:54:32.999Z</time></trkpt><trkpt lat="35.229894040622746" lon="-5.322892939628456"><ele>287.0</ele><time>2026-04-28T09:54:33.999Z</time></trkpt><trkpt lat="35.2297836292" lon="-5.32283309616814"><ele>285.0</ele><time>2026-04-28T09:54:34.999Z</time></trkpt><trkpt lat="35.22967917579443" lon="-5.32278202469355"><ele>283.0</ele><time>2026-04-28T09:54:35.999Z</time></trkpt><trkpt lat="35.22957840078875" lon="-5.322736613433003"><ele>281.0</ele><time>2026-04-28T09:54:36.999Z</time></trkpt><trkpt lat="35.229474204496455" lon="-5.322697761757998"><ele>281.0</ele><time>2026-04-28T09:54:37.999Z</time></trkpt><trkpt lat="35.2293683152199" lon="-5.322654021512681"><ele>281.0</ele><time>2026-04-28T09:54:38.999Z</time></trkpt><trkpt lat="35.22926215155086" lon="-5.322606449478708"><ele>281.0</ele><time>2026-04-28T09:54:39.999Z</time></trkpt><trkpt lat="35.22915268474261" lon="-5.322561024008664"><ele>281.0</ele><time>2026-04-28T09:54:41Z</time></trkpt><trkpt lat="35.22903652512313" lon="-5.322519391980416"><ele>280.5</ele><time>2026-04-28T09:54:42Z</time></trkpt><trkpt lat="35.22891399651657" lon="-5.322484719975266"><ele>280.0</ele><time>2026-04-28T09:54:43Z</time></trkpt><trkpt lat="35.22879191536383" lon="-5.3224548492714865"><ele>279.5</ele><time>2026-04-28T09:54:44Z</time></trkpt><trkpt lat="35.22866968986069" lon="-5.32242970167384"><ele>279.0</ele><time>2026-04-28T09:54:45Z</time></trkpt><trkpt lat="35.22854733257058" lon="-5.322402839742637"><ele>279.0</ele><time>2026-04-28T09:54:46Z</time></trkpt><trkpt lat="35.22842443456655" lon="-5.322372378607612"><ele>279.0</ele><time>2026-04-28T09:54:47Z</time></trkpt><trkpt lat="35.228224960733506" lon="-5.322442212197368"><ele>279.0</ele><time>2026-04-28T09:54:48Z</time></trkpt><trkpt lat="35.22807654938037" lon="-5.322436633392669"><ele>278.6666666666667</ele><time>2026-04-28T09:54:49Z</time></trkpt><trkpt lat="35.227923342624315" lon="-5.32242975568008"><ele>278.33333333333337</ele><time>2026-04-28T09:54:50Z</time></trkpt><trkpt lat="35.227765541564615" lon="-5.322421341498974"><ele>278.0</ele><time>2026-04-28T09:54:51Z</time></trkpt><trkpt lat="35.22761093438286" lon="-5.322418687236568"><ele>278.0</ele><time>2026-04-28T09:54:52Z</time></trkpt><trkpt lat="35.227461595710906" lon="-5.322419881558794"><ele>278.0</ele><time>2026-04-28T09:54:53Z</time></trkpt><trkpt lat="35.22730622830021" lon="-5.322428632806415"><ele>278.0</ele><time>2026-04-28T09:54:54Z</time></trkpt><trkpt lat="35.227152463727634" lon="-5.322437527526781"><ele>278.0</ele><time>2026-04-28T09:54:55Z</time></trkpt><trkpt lat="35.22699435416987" lon="-5.322441627351358"><ele>278.0</ele><time>2026-04-28T09:54:56Z</time></trkpt><trkpt lat="35.22682579789061" lon="-5.322435450773232"><ele>278.0</ele><time>2026-04-28T09:54:57Z</time></trkpt><trkpt lat="35.2266507161584" lon="-5.32242366492178"><ele>277.6666666666667</ele><time>2026-04-28T09:54:58Z</time></trkpt><trkpt lat="35.22646296027005" lon="-5.3224185873206"><ele>277.3333333333333</ele><time>2026-04-28T09:54:59Z</time></trkpt><trkpt lat="35.22627390885194" lon="-5.3224153541976005"><ele>277.0</ele><time>2026-04-28T09:55:00Z</time></trkpt><trkpt lat="35.226097049645205" lon="-5.3224028993402515"><ele>277.0</ele><time>2026-04-28T09:55:01Z</time></trkpt><trkpt lat="35.22591965077503" lon="-5.322385802778954"><ele>277.0</ele><time>2026-04-28T09:55:02Z</time></trkpt><trkpt lat="35.225738374029525" lon="-5.322380836682732"><ele>277.0</ele><time>2026-04-28T09:55:03Z</time></trkpt><trkpt lat="35.225562845269884" lon="-5.3223742933842315"><ele>277.66666666666663</ele><time>2026-04-28T09:55:04Z</time></trkpt><trkpt lat="35.22539001230402" lon="-5.32236878511637"><ele>278.3333333333333</ele><time>2026-04-28T09:55:05Z</time></trkpt><trkpt lat="35.225217789148985" lon="-5.32235992330132"><ele>279.0</ele><time>2026-04-28T09:55:06Z</time></trkpt><trkpt lat="35.22504866090985" lon="-5.322340932632524"><ele>279.0</ele><time>2026-04-28T09:55:07Z</time></trkpt><trkpt lat="35.224879391621705" lon="-5.322314306243473"><ele>279.0</ele><time>2026-04-28T09:55:08Z</time></trkpt><trkpt lat="35.22471416421014" lon="-5.322283077732718"><ele>279.0</ele><time>2026-04-28T09:55:09Z</time></trkpt><trkpt lat="35.224553778760935" lon="-5.322218308554256"><ele>279.0</ele><time>2026-04-28T09:55:10Z</time></trkpt><trkpt lat="35.22439201029149" lon="-5.322137378346451"><ele>279.0</ele><time>2026-04-28T09:55:11Z</time></trkpt><trkpt lat="35.22423552507798" lon="-5.322026404585267"><ele>279.0</ele><time>2026-04-28T09:55:12Z</time></trkpt><trkpt lat="35.22409236312785" lon="-5.321887266750506"><ele>279.6666666666667</ele><time>2026-04-28T09:55:13Z</time></trkpt><trkpt lat="35.223961232221576" lon="-5.321733105688191"><ele>280.33333333333337</ele><time>2026-04-28T09:55:14Z</time></trkpt><trkpt lat="35.22384046131543" lon="-5.321565887156998"><ele>281.0</ele><time>2026-04-28T09:55:15Z</time></trkpt><trkpt lat="35.22373199744576" lon="-5.321384270456491"><ele>281.0</ele><time>2026-04-28T09:55:16Z</time></trkpt><trkpt lat="35.22362980374854" lon="-5.321190566632775"><ele>281.0</ele><time>2026-04-28T09:55:17Z</time></trkpt><trkpt lat="35.22352992406966" lon="-5.320994675251425"><ele>281.0</ele><time>2026-04-28T09:55:18Z</time></trkpt><trkpt lat="35.22342980919965" lon="-5.320795187445266"><ele>281.0</ele><time>2026-04-28T09:55:19Z</time></trkpt><trkpt lat="35.223328388776515" lon="-5.320594840535554"><ele>281.0</ele><time>2026-04-28T09:55:20Z</time></trkpt><trkpt lat="35.22322851272832" lon="-5.320396476758309"><ele>281.0</ele><time>2026-04-28T09:55:21Z</time></trkpt><trkpt lat="35.22312677587151" lon="-5.320195141404737"><ele>280.0</ele><time>2026-04-28T09:55:22Z</time></trkpt><trkpt lat="35.22302484391763" lon="-5.31999616256512"><ele>279.0</ele><time>2026-04-28T09:55:23Z</time></trkpt><trkpt lat="35.222923759382645" lon="-5.319796971404994"><ele>278.0</ele><time>2026-04-28T09:55:24Z</time></trkpt><trkpt lat="35.22282349797316" lon="-5.319596205701662"><ele>278.0</ele><time>2026-04-28T09:55:25Z</time></trkpt><trkpt lat="35.2227250045003" lon="-5.31939726318942"><ele>278.0</ele><time>2026-04-28T09:55:26Z</time></trkpt><trkpt lat="35.2226345044521" lon="-5.319205709681587"><ele>278.0</ele><time>2026-04-28T09:55:27Z</time></trkpt><trkpt lat="35.222542472905864" lon="-5.319023165535924"><ele>276.6666666666667</ele><time>2026-04-28T09:55:28Z</time></trkpt><trkpt lat="35.22245403418192" lon="-5.318845553868128"><ele>275.3333333333333</ele><time>2026-04-28T09:55:29Z</time></trkpt><trkpt lat="35.22236922844465" lon="-5.3186732816982625"><ele>274.0</ele><time>2026-04-28T09:55:29.999Z</time></trkpt><trkpt lat="35.2222860015513" lon="-5.3185053059388"><ele>276.3333333333333</ele><time>2026-04-28T09:55:30.999Z</time></trkpt><trkpt lat="35.22220174943191" lon="-5.3183382178961365"><ele>278.6666666666667</ele><time>2026-04-28T09:55:31.999Z</time></trkpt><trkpt lat="35.22212198889514" lon="-5.318175574615761"><ele>281.0</ele><time>2026-04-28T09:55:32.999Z</time></trkpt><trkpt lat="35.22204820253546" lon="-5.318019012343956"><ele>281.0</ele><time>2026-04-28T09:55:33.999Z</time></trkpt><trkpt lat="35.221978112956215" lon="-5.317871902815938"><ele>281.0</ele><time>2026-04-28T09:55:34.999Z</time></trkpt><trkpt lat="35.221907146713285" lon="-5.317733006969638"><ele>281.0</ele><time>2026-04-28T09:55:35.999Z</time></trkpt><trkpt lat="35.22183824732653" lon="-5.317601392074736"><ele>281.0</ele><time>2026-04-28T09:55:36.999Z</time></trkpt><trkpt lat="35.22177356845614" lon="-5.317472504012931"><ele>281.0</ele><time>2026-04-28T09:55:37.999Z</time></trkpt><trkpt lat="35.22170880481508" lon="-5.317341851508703"><ele>281.0</ele><time>2026-04-28T09:55:38.999Z</time></trkpt><trkpt lat="35.22163634998783" lon="-5.317201179991899"><ele>281.0</ele><time>2026-04-28T09:55:39.999Z</time></trkpt><trkpt lat="35.221558594235546" lon="-5.31704553916665"><ele>281.0</ele><time>2026-04-28T09:55:40.999Z</time></trkpt><trkpt lat="35.22147697488396" lon="-5.316877379995764"><ele>280.0</ele><time>2026-04-28T09:55:41.999Z</time></trkpt><trkpt lat="35.221389544984476" lon="-5.3166999743988645"><ele>279.0</ele><time>2026-04-28T09:55:42.999Z</time></trkpt><trkpt lat="35.221300346996586" lon="-5.316515091843138"><ele>278.0</ele><time>2026-04-28T09:55:43.999Z</time></trkpt><trkpt lat="35.22121252079624" lon="-5.31633149159714"><ele>278.0</ele><time>2026-04-28T09:55:44.999Z</time></trkpt><trkpt lat="35.22112332473552" lon="-5.316149102654839"><ele>278.0</ele><time>2026-04-28T09:55:45.999Z</time></trkpt><trkpt lat="35.22103405606333" lon="-5.315970322473092"><ele>278.0</ele><time>2026-04-28T09:55:46.999Z</time></trkpt><trkpt lat="35.220943825764806" lon="-5.315796299821832"><ele>278.0</ele><time>2026-04-28T09:55:47.999Z</time></trkpt><trkpt lat="35.220853769621556" lon="-5.3156274982591"><ele>278.0</ele><time>2026-04-28T09:55:48.999Z</time></trkpt><trkpt lat="35.22075654220109" lon="-5.315469413282317"><ele>278.0</ele><time>2026-04-28T09:55:49.999Z</time></trkpt><trkpt lat="35.220638895831996" lon="-5.3153215727411425"><ele>277.6666666666667</ele><time>2026-04-28T09:55:50.999Z</time></trkpt><trkpt lat="35.22050287523252" lon="-5.315199525692126"><ele>277.3333333333333</ele><time>2026-04-28T09:55:51.999Z</time></trkpt><trkpt lat="35.220353954312735" lon="-5.315109468097944"><ele>277.0</ele><time>2026-04-28T09:55:52.999Z</time></trkpt><trkpt lat="35.220203234364384" lon="-5.3150490091906715"><ele>277.0</ele><time>2026-04-28T09:55:53.999Z</time></trkpt><trkpt lat="35.22004641794579" lon="-5.3150138520032435"><ele>277.0</ele><time>2026-04-28T09:55:54.999Z</time></trkpt><trkpt lat="35.219883507148175" lon="-5.3150091294555715"><ele>277.0</ele><time>2026-04-28T09:55:55.999Z</time></trkpt><trkpt lat="35.219713837637904" lon="-5.315027298451546"><ele>275.66666666666663</ele><time>2026-04-28T09:55:56.999Z</time></trkpt><trkpt lat="35.219546229430655" lon="-5.315076608804838"><ele>274.3333333333333</ele><time>2026-04-28T09:55:57.999Z</time></trkpt><trkpt lat="35.21937417705579" lon="-5.3151496130938005"><ele>273.0</ele><time>2026-04-28T09:55:58.999Z</time></trkpt><trkpt lat="35.21919870638637" lon="-5.315232988973846"><ele>273.0</ele><time>2026-04-28T09:55:59.999Z</time></trkpt><trkpt lat="35.219017770149506" lon="-5.315317659945458"><ele>273.0</ele><time>2026-04-28T09:56:00.999Z</time></trkpt><trkpt lat="35.218844773541996" lon="-5.3154012738869305"><ele>273.0</ele><time>2026-04-28T09:56:01.999Z</time></trkpt><trkpt lat="35.2186712221757" lon="-5.315480154649268"><ele>272.3333333333333</ele><time>2026-04-28T09:56:02.999Z</time></trkpt><trkpt lat="35.218491814397346" lon="-5.315545638131872"><ele>271.66666666666663</ele><time>2026-04-28T09:56:03.999Z</time></trkpt><trkpt lat="35.21831038299535" lon="-5.31560609459432"><ele>271.0</ele><time>2026-04-28T09:56:04.999Z</time></trkpt><trkpt lat="35.21813329052993" lon="-5.315654139267146"><ele>270.3333333333333</ele><time>2026-04-28T09:56:05.999Z</time></trkpt><trkpt lat="35.21795201070866" lon="-5.315689176965841"><ele>269.6666666666667</ele><time>2026-04-28T09:56:06.999Z</time></trkpt><trkpt lat="35.21776909617079" lon="-5.315716805814735"><ele>269.0</ele><time>2026-04-28T09:56:07.999Z</time></trkpt><trkpt lat="35.21758939886026" lon="-5.315753363959815"><ele>269.0</ele><time>2026-04-28T09:56:08.999Z</time></trkpt><trkpt lat="35.21740606279691" lon="-5.315785126642697"><ele>269.0</ele><time>2026-04-28T09:56:09.999Z</time></trkpt><trkpt lat="35.21721810188573" lon="-5.315820872294285"><ele>269.0</ele><time>2026-04-28T09:56:10.999Z</time></trkpt><trkpt lat="35.21703061474209" lon="-5.315854834754774"><ele>269.0</ele><time>2026-04-28T09:56:11.999Z</time></trkpt><trkpt lat="35.2168422917041" lon="-5.315887171782294"><ele>269.0</ele><time>2026-04-28T09:56:12.999Z</time></trkpt><trkpt lat="35.21665708638242" lon="-5.315917156399048"><ele>269.0</ele><time>2026-04-28T09:56:13.999Z</time></trkpt><trkpt lat="35.2164722428293" lon="-5.315952123925386"><ele>269.33333333333337</ele><time>2026-04-28T09:56:14.999Z</time></trkpt><trkpt lat="35.21628744444549" lon="-5.315984609372294"><ele>269.6666666666667</ele><time>2026-04-28T09:56:15.999Z</time></trkpt><trkpt lat="35.2161036020573" lon="-5.3160171227584065"><ele>270.0</ele><time>2026-04-28T09:56:16.999Z</time></trkpt><trkpt lat="35.21592106753782" lon="-5.316050628525488"><ele>270.0</ele><time>2026-04-28T09:56:17.999Z</time></trkpt><trkpt lat="35.21573960563986" lon="-5.316083667798329"><ele>270.0</ele><time>2026-04-28T09:56:18.999Z</time></trkpt><trkpt lat="35.21555578584786" lon="-5.316116341942586"><ele>270.0</ele><time>2026-04-28T09:56:19.999Z</time></trkpt><trkpt lat="35.215371489009634" lon="-5.3161507294759565"><ele>269.3333333333333</ele><time>2026-04-28T09:56:20.999Z</time></trkpt><trkpt lat="35.215187124791974" lon="-5.31618408231528"><ele>268.66666666666663</ele><time>2026-04-28T09:56:21.999Z</time></trkpt><trkpt lat="35.215000028146314" lon="-5.316215793931093"><ele>268.0</ele><time>2026-04-28T09:56:22.999Z</time></trkpt><trkpt lat="35.21481302326973" lon="-5.316249874396405"><ele>267.66666666666663</ele><time>2026-04-28T09:56:23.999Z</time></trkpt><trkpt lat="35.21462938206958" lon="-5.316283552410984"><ele>267.3333333333333</ele><time>2026-04-28T09:56:24.999Z</time></trkpt><trkpt lat="35.2144432298735" lon="-5.316317920380219"><ele>267.0</ele><time>2026-04-28T09:56:25.999Z</time></trkpt><trkpt lat="35.21425953867053" lon="-5.316353184859307"><ele>267.0</ele><time>2026-04-28T09:56:26.999Z</time></trkpt><trkpt lat="35.21407543031935" lon="-5.316387510466407"><ele>267.0</ele><time>2026-04-28T09:56:27.999Z</time></trkpt><trkpt lat="35.213891950466525" lon="-5.316423240622322"><ele>267.0</ele><time>2026-04-28T09:56:28.999Z</time></trkpt><trkpt lat="35.213711253063565" lon="-5.316457719669831"><ele>267.6666666666667</ele><time>2026-04-28T09:56:29.999Z</time></trkpt><trkpt lat="35.213527656573014" lon="-5.316491990005113"><ele>268.33333333333337</ele><time>2026-04-28T09:56:30.999Z</time></trkpt><trkpt lat="35.21334503571717" lon="-5.316523404568382"><ele>269.0</ele><time>2026-04-28T09:56:31.999Z</time></trkpt><trkpt lat="35.213159356202176" lon="-5.316556477497221"><ele>269.0</ele><time>2026-04-28T09:56:32.999Z</time></trkpt><trkpt lat="35.212973027115105" lon="-5.316589189026483"><ele>269.0</ele><time>2026-04-28T09:56:33.999Z</time></trkpt><trkpt lat="35.21278768711906" lon="-5.316622328975206"><ele>269.0</ele><time>2026-04-28T09:56:34.999Z</time></trkpt><trkpt lat="35.21260459685068" lon="-5.31665543814065"><ele>269.0</ele><time>2026-04-28T09:56:35.999Z</time></trkpt><trkpt lat="35.212424198492556" lon="-5.316688198579778"><ele>269.0</ele><time>2026-04-28T09:56:36.999Z</time></trkpt><trkpt lat="35.2122459729105" lon="-5.316721624373039"><ele>269.0</ele><time>2026-04-28T09:56:37.999Z</time></trkpt><trkpt lat="35.21206854331928" lon="-5.316752561499189"><ele>269.33333333333337</ele><time>2026-04-28T09:56:38.999Z</time></trkpt><trkpt lat="35.21189110264953" lon="-5.3167868103880265"><ele>269.6666666666667</ele><time>2026-04-28T09:56:39.999Z</time></trkpt><trkpt lat="35.211715112414645" lon="-5.316819411490297"><ele>270.0</ele><time>2026-04-28T09:56:40.999Z</time></trkpt><trkpt lat="35.21153468667951" lon="-5.316851606205313"><ele>270.0</ele><time>2026-04-28T09:56:41.999Z</time></trkpt><trkpt lat="35.21135626691703" lon="-5.316880850099332"><ele>270.0</ele><time>2026-04-28T09:56:42.999Z</time></trkpt><trkpt lat="35.21118158776934" lon="-5.316912353352191"><ele>270.0</ele><time>2026-04-28T09:56:43.999Z</time></trkpt><trkpt lat="35.21100712009374" lon="-5.316944773107"><ele>270.0</ele><time>2026-04-28T09:56:44.999Z</time></trkpt><trkpt lat="35.210832184830736" lon="-5.316981901687394"><ele>270.0</ele><time>2026-04-28T09:56:46Z</time></trkpt><trkpt lat="35.21065694665375" lon="-5.317021270351931"><ele>270.0</ele><time>2026-04-28T09:56:47Z</time></trkpt><trkpt lat="35.210484413368015" lon="-5.317070075421105"><ele>269.6666666666667</ele><time>2026-04-28T09:56:48Z</time></trkpt><trkpt lat="35.21031325387612" lon="-5.3171305219531915"><ele>269.33333333333337</ele><time>2026-04-28T09:56:49Z</time></trkpt><trkpt lat="35.21014825221722" lon="-5.317187182188592"><ele>269.0</ele><time>2026-04-28T09:56:50Z</time></trkpt><trkpt lat="35.209975638662655" lon="-5.317272800378623"><ele>270.33333333333337</ele><time>2026-04-28T09:56:51Z</time></trkpt><trkpt lat="35.20979717180173" lon="-5.317365492506267"><ele>271.6666666666667</ele><time>2026-04-28T09:56:52Z</time></trkpt><trkpt lat="35.20961546761608" lon="-5.317450854630747"><ele>273.0</ele><time>2026-04-28T09:56:53Z</time></trkpt><trkpt lat="35.20943885572939" lon="-5.317537169775921"><ele>273.0</ele><time>2026-04-28T09:56:54Z</time></trkpt><trkpt lat="35.20926146921164" lon="-5.317627349563552"><ele>273.0</ele><time>2026-04-28T09:56:55Z</time></trkpt><trkpt lat="35.20908618647623" lon="-5.317717523651998"><ele>273.0</ele><time>2026-04-28T09:56:56Z</time></trkpt><trkpt lat="35.208911238228445" lon="-5.317806634226202"><ele>273.0</ele><time>2026-04-28T09:56:57Z</time></trkpt><trkpt lat="35.2087383441109" lon="-5.317891450735602"><ele>273.0</ele><time>2026-04-28T09:56:58Z</time></trkpt><trkpt lat="35.208566179334404" lon="-5.317970229021837"><ele>273.0</ele><time>2026-04-28T09:56:59Z</time></trkpt><trkpt lat="35.208394210837774" lon="-5.318031542198117"><ele>273.3333333333333</ele><time>2026-04-28T09:57:00Z</time></trkpt><trkpt lat="35.20821791503083" lon="-5.318068592569736"><ele>273.66666666666663</ele><time>2026-04-28T09:57:01Z</time></trkpt><trkpt lat="35.20803903661856" lon="-5.3180788529407295"><ele>274.0</ele><time>2026-04-28T09:57:02Z</time></trkpt><trkpt lat="35.20785795725764" lon="-5.318061827356817"><ele>274.0</ele><time>2026-04-28T09:57:03Z</time></trkpt><trkpt lat="35.20767737056617" lon="-5.318013894482385"><ele>274.0</ele><time>2026-04-28T09:57:04Z</time></trkpt><trkpt lat="35.20749726251569" lon="-5.317959054097096"><ele>274.0</ele><time>2026-04-28T09:57:05Z</time></trkpt><trkpt lat="35.20731706089544" lon="-5.3178950265787375"><ele>276.0</ele><time>2026-04-28T09:57:06Z</time></trkpt><trkpt lat="35.20713873165619" lon="-5.317817842552981"><ele>278.0</ele><time>2026-04-28T09:57:07Z</time></trkpt><trkpt lat="35.20696260158626" lon="-5.317724445323433"><ele>280.0</ele><time>2026-04-28T09:57:08Z</time></trkpt><trkpt lat="35.20679088364297" lon="-5.317611159875354"><ele>280.0</ele><time>2026-04-28T09:57:09Z</time></trkpt><trkpt lat="35.20662268712695" lon="-5.317481074221109"><ele>280.0</ele><time>2026-04-28T09:57:10Z</time></trkpt><trkpt lat="35.206456121590186" lon="-5.317344135387816"><ele>280.0</ele><time>2026-04-28T09:57:11Z</time></trkpt><trkpt lat="35.20629197778593" lon="-5.317201964743015"><ele>278.0</ele><time>2026-04-28T09:57:12Z</time></trkpt><trkpt lat="35.206129587177" lon="-5.317057211941911"><ele>276.0</ele><time>2026-04-28T09:57:13Z</time></trkpt><trkpt lat="35.205964746940985" lon="-5.31691716350974"><ele>274.0</ele><time>2026-04-28T09:57:14Z</time></trkpt><trkpt lat="35.20579983170778" lon="-5.316777628356514"><ele>273.66666666666663</ele><time>2026-04-28T09:57:15Z</time></trkpt><trkpt lat="35.205637965355464" lon="-5.3166373863032055"><ele>273.3333333333333</ele><time>2026-04-28T09:57:16Z</time></trkpt><trkpt lat="35.20547676990954" lon="-5.316496126183085"><ele>273.0</ele><time>2026-04-28T09:57:17Z</time></trkpt><trkpt lat="35.205316721957885" lon="-5.316356528927589"><ele>273.0</ele><time>2026-04-28T09:57:18Z</time></trkpt><trkpt lat="35.205156370193414" lon="-5.316219291269214"><ele>273.0</ele><time>2026-04-28T09:57:19Z</time></trkpt><trkpt lat="35.20499771048461" lon="-5.3160834545140725"><ele>273.0</ele><time>2026-04-28T09:57:20Z</time></trkpt><trkpt lat="35.20484431716659" lon="-5.315936712532308"><ele>273.6666666666667</ele><time>2026-04-28T09:57:21Z</time></trkpt><trkpt lat="35.20469994662725" lon="-5.315777682919599"><ele>274.33333333333337</ele><time>2026-04-28T09:57:22Z</time></trkpt><trkpt lat="35.20455825049105" lon="-5.315616121042612"><ele>275.0</ele><time>2026-04-28T09:57:23Z</time></trkpt><trkpt lat="35.204410831786554" lon="-5.315465036866897"><ele>275.0</ele><time>2026-04-28T09:57:24Z</time></trkpt><trkpt lat="35.20425385716073" lon="-5.31532401625798"><ele>275.0</ele><time>2026-04-28T09:57:25Z</time></trkpt><trkpt lat="35.20409106634789" lon="-5.315193062368424"><ele>275.0</ele><time>2026-04-28T09:57:26Z</time></trkpt><trkpt lat="35.20392852334669" lon="-5.315060976729764"><ele>275.0</ele><time>2026-04-28T09:57:27Z</time></trkpt><trkpt lat="35.203767382656075" lon="-5.314926366001004"><ele>275.0</ele><time>2026-04-28T09:57:28Z</time></trkpt><trkpt lat="35.20360554151593" lon="-5.314793775191383"><ele>275.0</ele><time>2026-04-28T09:57:29Z</time></trkpt><trkpt lat="35.20344631403136" lon="-5.314662771989703"><ele>275.0</ele><time>2026-04-28T09:57:30Z</time></trkpt><trkpt lat="35.20328715166555" lon="-5.314527327677753"><ele>275.0</ele><time>2026-04-28T09:57:31Z</time></trkpt><trkpt lat="35.203127712142326" lon="-5.314393385148864"><ele>275.0</ele><time>2026-04-28T09:57:32Z</time></trkpt><trkpt lat="35.20296688411751" lon="-5.314258818260064"><ele>276.0</ele><time>2026-04-28T09:57:33Z</time></trkpt><trkpt lat="35.20280635382134" lon="-5.314125099997122"><ele>277.0</ele><time>2026-04-28T09:57:34Z</time></trkpt><trkpt lat="35.20264518762908" lon="-5.313993337756959"><ele>278.0</ele><time>2026-04-28T09:57:34.999Z</time></trkpt><trkpt lat="35.202482957423165" lon="-5.313860727467925"><ele>277.6666666666667</ele><time>2026-04-28T09:57:35.999Z</time></trkpt><trkpt lat="35.2023199782317" lon="-5.313725399870791"><ele>277.3333333333333</ele><time>2026-04-28T09:57:36.999Z</time></trkpt><trkpt lat="35.202157991511314" lon="-5.31358869812312"><ele>277.0</ele><time>2026-04-28T09:57:37.999Z</time></trkpt><trkpt lat="35.201994294667074" lon="-5.313451518978476"><ele>277.0</ele><time>2026-04-28T09:57:38.999Z</time></trkpt><trkpt lat="35.20183031962163" lon="-5.313314947352761"><ele>277.0</ele><time>2026-04-28T09:57:39.999Z</time></trkpt><trkpt lat="35.201666578847686" lon="-5.313183120105407"><ele>277.0</ele><time>2026-04-28T09:57:40.999Z</time></trkpt><trkpt lat="35.20149702067045" lon="-5.313059892221435"><ele>276.0</ele><time>2026-04-28T09:57:41.999Z</time></trkpt><trkpt lat="35.20132311095352" lon="-5.312952334161625"><ele>275.0</ele><time>2026-04-28T09:57:42.999Z</time></trkpt><trkpt lat="35.201144964265" lon="-5.312868964828411"><ele>274.0</ele><time>2026-04-28T09:57:43.999Z</time></trkpt><trkpt lat="35.20096816263494" lon="-5.312806033994104"><ele>274.0</ele><time>2026-04-28T09:57:44.999Z</time></trkpt><trkpt lat="35.20078658605378" lon="-5.312745641818847"><ele>274.0</ele><time>2026-04-28T09:57:45.999Z</time></trkpt><trkpt lat="35.200606273478186" lon="-5.312676608321542"><ele>274.0</ele><time>2026-04-28T09:57:46.999Z</time></trkpt><trkpt lat="35.20043468980818" lon="-5.312586541914562"><ele>274.0</ele><time>2026-04-28T09:57:47.999Z</time></trkpt><trkpt lat="35.200267983427416" lon="-5.31247547189825"><ele>274.0</ele><time>2026-04-28T09:57:48.999Z</time></trkpt><trkpt lat="35.20011817897413" lon="-5.312352477421656"><ele>274.0</ele><time>2026-04-28T09:57:49.999Z</time></trkpt><trkpt lat="35.199967208809504" lon="-5.312235533636572"><ele>275.3333333333333</ele><time>2026-04-28T09:57:50.999Z</time></trkpt><trkpt lat="35.199807140438196" lon="-5.312141138495589"><ele>276.6666666666667</ele><time>2026-04-28T09:57:51.999Z</time></trkpt><trkpt lat="35.199637778219824" lon="-5.312063152464264"><ele>278.0</ele><time>2026-04-28T09:57:52.999Z</time></trkpt><trkpt lat="35.19946148632368" lon="-5.312008799363091"><ele>278.0</ele><time>2026-04-28T09:57:53.999Z</time></trkpt><trkpt lat="35.19927792701756" lon="-5.311978068630338"><ele>278.0</ele><time>2026-04-28T09:57:54.999Z</time></trkpt><trkpt lat="35.19908716852666" lon="-5.31195744279329"><ele>278.0</ele><time>2026-04-28T09:57:55.999Z</time></trkpt><trkpt lat="35.19889603920829" lon="-5.3119342051164775"><ele>278.33333333333337</ele><time>2026-04-28T09:57:56.999Z</time></trkpt><trkpt lat="35.198704085472144" lon="-5.311903338758829"><ele>278.6666666666667</ele><time>2026-04-28T09:57:57.999Z</time></trkpt><trkpt lat="35.19851191295422" lon="-5.311870909138793"><ele>279.0</ele><time>2026-04-28T09:57:58.999Z</time></trkpt><trkpt lat="35.198319502167514" lon="-5.3118347666000725"><ele>282.0</ele><time>2026-04-28T09:57:59.999Z</time></trkpt><trkpt lat="35.198136593951084" lon="-5.311789875256484"><ele>285.0</ele><time>2026-04-28T09:58:00.999Z</time></trkpt><trkpt lat="35.19795397901602" lon="-5.311734711078519"><ele>288.0</ele><time>2026-04-28T09:58:01.999Z</time></trkpt><trkpt lat="35.197778177816204" lon="-5.311674423012527"><ele>288.0</ele><time>2026-04-28T09:58:02.999Z</time></trkpt><trkpt lat="35.197605876418" lon="-5.3116103736644655"><ele>288.0</ele><time>2026-04-28T09:58:03.999Z</time></trkpt><trkpt lat="35.197435193718974" lon="-5.311542781450158"><ele>288.0</ele><time>2026-04-28T09:58:04.999Z</time></trkpt><trkpt lat="35.19726736756038" lon="-5.311472646195889"><ele>284.0</ele><time>2026-04-28T09:58:05.999Z</time></trkpt><trkpt lat="35.19710297314072" lon="-5.311404409776597"><ele>280.0</ele><time>2026-04-28T09:58:06.999Z</time></trkpt><trkpt lat="35.196946374751704" lon="-5.3113428017982685"><ele>276.0</ele><time>2026-04-28T09:58:07.999Z</time></trkpt><trkpt lat="35.19679305139055" lon="-5.311281950869932"><ele>276.0</ele><time>2026-04-28T09:58:08.999Z</time></trkpt><trkpt lat="35.196635319777066" lon="-5.311206495388631"><ele>276.0</ele><time>2026-04-28T09:58:09.999Z</time></trkpt><trkpt lat="35.19646033196707" lon="-5.311131119455858"><ele>276.0</ele><time>2026-04-28T09:58:10.999Z</time></trkpt><trkpt lat="35.19627445653789" lon="-5.311057969341482"><ele>276.6666666666667</ele><time>2026-04-28T09:58:11.999Z</time></trkpt><trkpt lat="35.19609413942612" lon="-5.310990499427357"><ele>277.33333333333337</ele><time>2026-04-28T09:58:12.999Z</time></trkpt><trkpt lat="35.19592225332353" lon="-5.310928475876986"><ele>278.0</ele><time>2026-04-28T09:58:13.999Z</time></trkpt><trkpt lat="35.19575547840262" lon="-5.310867684364608"><ele>278.6666666666667</ele><time>2026-04-28T09:58:14.999Z</time></trkpt><trkpt lat="35.19559576202966" lon="-5.31080979632897"><ele>279.3333333333333</ele><time>2026-04-28T09:58:15.999Z</time></trkpt><trkpt lat="35.19544248969122" lon="-5.310756153219539"><ele>280.0</ele><time>2026-04-28T09:58:16.999Z</time></trkpt><trkpt lat="35.19529476970296" lon="-5.31069998094852"><ele>280.0</ele><time>2026-04-28T09:58:17.999Z</time></trkpt><trkpt lat="35.19515186368238" lon="-5.310642741969162"><ele>280.0</ele><time>2026-04-28T09:58:18.999Z</time></trkpt><trkpt lat="35.1950149507813" lon="-5.310587331832889"><ele>280.0</ele><time>2026-04-28T09:58:19.999Z</time></trkpt><trkpt lat="35.19488623539291" lon="-5.310532944906889"><ele>280.0</ele><time>2026-04-28T09:58:20.999Z</time></trkpt><trkpt lat="35.19476604997974" lon="-5.3104790683428815"><ele>279.2</ele><time>2026-04-28T09:58:21.999Z</time></trkpt><trkpt lat="35.19465282668226" lon="-5.310430658453261"><ele>278.4</ele><time>2026-04-28T09:58:22.999Z</time></trkpt><trkpt lat="35.19454859233278" lon="-5.310397651158719"><ele>277.6</ele><time>2026-04-28T09:58:23.999Z</time></trkpt><trkpt lat="35.19444720424128" lon="-5.310370001668584"><ele>276.8</ele><time>2026-04-28T09:58:24.999Z</time></trkpt><trkpt lat="35.19435361289235" lon="-5.31034390114514"><ele>276.0</ele><time>2026-04-28T09:58:25.999Z</time></trkpt><trkpt lat="35.19427762749308" lon="-5.310296525642396"><ele>276.0</ele><time>2026-04-28T09:58:26.999Z</time></trkpt><trkpt lat="35.19421834062091" lon="-5.310117339831532"><ele>276.0</ele><time>2026-04-28T09:58:28.999Z</time></trkpt><trkpt lat="35.19422052121371" lon="-5.310011406107961"><ele>276.0</ele><time>2026-04-28T09:58:29.999Z</time></trkpt><trkpt lat="35.194198091088566" lon="-5.30989934263295"><ele>276.0</ele><time>2026-04-28T09:58:30.999Z</time></trkpt><trkpt lat="35.194145204801615" lon="-5.309788455777839"><ele>276.0</ele><time>2026-04-28T09:58:31.999Z</time></trkpt><trkpt lat="35.19407394726141" lon="-5.309674003079949"><ele>275.75</ele><time>2026-04-28T09:58:32.999Z</time></trkpt><trkpt lat="35.19399068099583" lon="-5.309546836308953"><ele>275.5</ele><time>2026-04-28T09:58:33.999Z</time></trkpt><trkpt lat="35.19389566740006" lon="-5.309416895962784"><ele>275.25</ele><time>2026-04-28T09:58:34.999Z</time></trkpt><trkpt lat="35.193790622063844" lon="-5.309277807436597"><ele>275.0</ele><time>2026-04-28T09:58:35.999Z</time></trkpt><trkpt lat="35.19369563503997" lon="-5.3091364920297455"><ele>275.0</ele><time>2026-04-28T09:58:36.999Z</time></trkpt><trkpt lat="35.19360904143559" lon="-5.309011176594009"><ele>275.0</ele><time>2026-04-28T09:58:37.999Z</time></trkpt><trkpt lat="35.19352903276718" lon="-5.308890473654463"><ele>275.0</ele><time>2026-04-28T09:58:38.999Z</time></trkpt><trkpt lat="35.19347684422728" lon="-5.308757185262577"><ele>275.0</ele><time>2026-04-28T09:58:39.999Z</time></trkpt><trkpt lat="35.19345067621057" lon="-5.308608095762286"><ele>275.25</ele><time>2026-04-28T09:58:40.999Z</time></trkpt><trkpt lat="35.193443921755765" lon="-5.308450366152024"><ele>275.5</ele><time>2026-04-28T09:58:41.999Z</time></trkpt><trkpt lat="35.19345806219767" lon="-5.308287234395214"><ele>275.75</ele><time>2026-04-28T09:58:42.999Z</time></trkpt><trkpt lat="35.19350611580294" lon="-5.308131643805725"><ele>276.0</ele><time>2026-04-28T09:58:43.999Z</time></trkpt><trkpt lat="35.19359313534827" lon="-5.307995924195747"><ele>275.5</ele><time>2026-04-28T09:58:44.999Z</time></trkpt><trkpt lat="35.19367861511794" lon="-5.307877763207772"><ele>275.0</ele><time>2026-04-28T09:58:45.999Z</time></trkpt><trkpt lat="35.193754980176514" lon="-5.3077655097406495"><ele>274.5</ele><time>2026-04-28T09:58:46.999Z</time></trkpt><trkpt lat="35.19382439119112" lon="-5.307662915260226"><ele>274.0</ele><time>2026-04-28T09:58:47.999Z</time></trkpt><trkpt lat="35.19388301280293" lon="-5.3075725723143"><ele>274.0</ele><time>2026-04-28T09:58:48.999Z</time></trkpt><trkpt lat="35.19394138253626" lon="-5.307485167744474"><ele>274.0</ele><time>2026-04-28T09:58:49.999Z</time></trkpt><trkpt lat="35.19399650011635" lon="-5.307391408265322"><ele>274.0</ele><time>2026-04-28T09:58:50.999Z</time></trkpt><trkpt lat="35.19404519973323" lon="-5.307280193572536"><ele>274.0</ele><time>2026-04-28T09:58:52Z</time></trkpt><trkpt lat="35.194080576526034" lon="-5.307146300098388"><ele>274.0</ele><time>2026-04-28T09:58:53Z</time></trkpt><trkpt lat="35.19410202689047" lon="-5.306996327411765"><ele>275.0</ele><time>2026-04-28T09:58:54Z</time></trkpt><trkpt lat="35.19410336976958" lon="-5.306834659390304"><ele>276.0</ele><time>2026-04-28T09:58:55Z</time></trkpt><trkpt lat="35.19407932725079" lon="-5.306670059435615"><ele>277.0</ele><time>2026-04-28T09:58:56Z</time></trkpt><trkpt lat="35.194035136930836" lon="-5.306514439776651"><ele>278.0</ele><time>2026-04-28T09:58:57Z</time></trkpt><trkpt lat="35.19397453486615" lon="-5.306368967938088"><ele>279.75</ele><time>2026-04-28T09:58:58Z</time></trkpt><trkpt lat="35.19390758756349" lon="-5.306219809322351"><ele>281.5</ele><time>2026-04-28T09:58:59Z</time></trkpt><trkpt lat="35.193837643182725" lon="-5.306063571205301"><ele>283.25</ele><time>2026-04-28T09:59:00Z</time></trkpt><trkpt lat="35.19377074870991" lon="-5.305914355165484"><ele>285.0</ele><time>2026-04-28T09:59:01Z</time></trkpt><trkpt lat="35.19370248694549" lon="-5.305756169979136"><ele>285.0</ele><time>2026-04-28T09:59:02Z</time></trkpt><trkpt lat="35.19362874929894" lon="-5.305596199458536"><ele>285.0</ele><time>2026-04-28T09:59:03Z</time></trkpt><trkpt lat="35.19355346281088" lon="-5.3054356463581325"><ele>285.0</ele><time>2026-04-28T09:59:04Z</time></trkpt><trkpt lat="35.1934751770196" lon="-5.305275718789815"><ele>287.3333333333333</ele><time>2026-04-28T09:59:05Z</time></trkpt><trkpt lat="35.19338964763529" lon="-5.305123379508553"><ele>289.66666666666663</ele><time>2026-04-28T09:59:06Z</time></trkpt><trkpt lat="35.19329696759608" lon="-5.304973270651008"><ele>292.0</ele><time>2026-04-28T09:59:07Z</time></trkpt><trkpt lat="35.193198258104935" lon="-5.304827325835035"><ele>296.0</ele><time>2026-04-28T09:59:08Z</time></trkpt><trkpt lat="35.19309681356337" lon="-5.3046817767975325"><ele>300.0</ele><time>2026-04-28T09:59:09Z</time></trkpt><trkpt lat="35.19299535968528" lon="-5.304535448378679"><ele>304.0</ele><time>2026-04-28T09:59:10Z</time></trkpt><trkpt lat="35.192894929756974" lon="-5.3043854648552085"><ele>304.0</ele><time>2026-04-28T09:59:11Z</time></trkpt><trkpt lat="35.19279614226785" lon="-5.304230723398504"><ele>304.0</ele><time>2026-04-28T09:59:12Z</time></trkpt><trkpt lat="35.19269618088738" lon="-5.304077362198842"><ele>304.0</ele><time>2026-04-28T09:59:13Z</time></trkpt><trkpt lat="35.19259351691682" lon="-5.303932119136161"><ele>305.75</ele><time>2026-04-28T09:59:14Z</time></trkpt><trkpt lat="35.1924847156033" lon="-5.303803709845366"><ele>307.5</ele><time>2026-04-28T09:59:15Z</time></trkpt><trkpt lat="35.19236212097861" lon="-5.303710971429788"><ele>309.25</ele><time>2026-04-28T09:59:16Z</time></trkpt><trkpt lat="35.192223692794336" lon="-5.303652211466377"><ele>311.0</ele><time>2026-04-28T09:59:17Z</time></trkpt><trkpt lat="35.192076807341905" lon="-5.30362623854342"><ele>314.25</ele><time>2026-04-28T09:59:18Z</time></trkpt><trkpt lat="35.191930637475394" lon="-5.303642284756758"><ele>317.5</ele><time>2026-04-28T09:59:19Z</time></trkpt><trkpt lat="35.191793967311604" lon="-5.303691810426127"><ele>320.75</ele><time>2026-04-28T09:59:20Z</time></trkpt><trkpt lat="35.19166635154975" lon="-5.303763954051004"><ele>324.0</ele><time>2026-04-28T09:59:21Z</time></trkpt><trkpt lat="35.19155307960889" lon="-5.30383801990243"><ele>323.4</ele><time>2026-04-28T09:59:22Z</time></trkpt><trkpt lat="35.191433860095465" lon="-5.303858123086701"><ele>322.79999999999995</ele><time>2026-04-28T09:59:23Z</time></trkpt><trkpt lat="35.19134267678617" lon="-5.303872341896814"><ele>322.20000000000005</ele><time>2026-04-28T09:59:24Z</time></trkpt><trkpt lat="35.191250289903685" lon="-5.3038514471214215"><ele>321.6</ele><time>2026-04-28T09:59:25Z</time></trkpt><trkpt lat="35.191153809524394" lon="-5.303794822931221"><ele>321.0</ele><time>2026-04-28T09:59:26Z</time></trkpt><trkpt lat="35.19107300929457" lon="-5.30368399749539"><ele>321.0</ele><time>2026-04-28T09:59:27Z</time></trkpt><trkpt lat="35.190980978980626" lon="-5.303570424403142"><ele>321.0</ele><time>2026-04-28T09:59:28Z</time></trkpt><trkpt lat="35.19089364600989" lon="-5.303441718747131"><ele>321.0</ele><time>2026-04-28T09:59:29Z</time></trkpt><trkpt lat="35.19079672647238" lon="-5.3033110722258305"><ele>321.0</ele><time>2026-04-28T09:59:30Z</time></trkpt><trkpt lat="35.19070023504623" lon="-5.303171825980416"><ele>317.75</ele><time>2026-04-28T09:59:31Z</time></trkpt><trkpt lat="35.19062419390626" lon="-5.303019311002552"><ele>314.5</ele><time>2026-04-28T09:59:32Z</time></trkpt><trkpt lat="35.19057704719413" lon="-5.302851854776067"><ele>311.25</ele><time>2026-04-28T09:59:33Z</time></trkpt><trkpt lat="35.190574818518805" lon="-5.302658887990699"><ele>308.0</ele><time>2026-04-28T09:59:33.999Z</time></trkpt><trkpt lat="35.19061515587228" lon="-5.302459799311716"><ele>308.0</ele><time>2026-04-28T09:59:34.999Z</time></trkpt><trkpt lat="35.19066805914766" lon="-5.302262430241178"><ele>308.0</ele><time>2026-04-28T09:59:35.999Z</time></trkpt><trkpt lat="35.19072540201322" lon="-5.302068035814721"><ele>308.0</ele><time>2026-04-28T09:59:36.999Z</time></trkpt><trkpt lat="35.190769574890034" lon="-5.301879530968195"><ele>316.33333333333337</ele><time>2026-04-28T09:59:37.999Z</time></trkpt><trkpt lat="35.19081294414171" lon="-5.301683362876732"><ele>324.6666666666667</ele><time>2026-04-28T09:59:38.999Z</time></trkpt><trkpt lat="35.19085273550781" lon="-5.3014883176294685"><ele>333.0</ele><time>2026-04-28T09:59:39.999Z</time></trkpt><trkpt lat="35.19090595220931" lon="-5.30129347625868"><ele>333.0</ele><time>2026-04-28T09:59:40.999Z</time></trkpt><trkpt lat="35.19094994970497" lon="-5.3010957268141725"><ele>333.0</ele><time>2026-04-28T09:59:41.999Z</time></trkpt><trkpt lat="35.190990182487404" lon="-5.300901877958217"><ele>333.0</ele><time>2026-04-28T09:59:42.999Z</time></trkpt><trkpt lat="35.19102914706993" lon="-5.3007147209878225"><ele>332.5</ele><time>2026-04-28T09:59:43.999Z</time></trkpt><trkpt lat="35.19107716295912" lon="-5.300541164791695"><ele>332.0</ele><time>2026-04-28T09:59:44.999Z</time></trkpt><trkpt lat="35.191104806500725" lon="-5.300370503658134"><ele>331.5</ele><time>2026-04-28T09:59:45.999Z</time></trkpt><trkpt lat="35.19113619032315" lon="-5.300216694442227"><ele>331.0</ele><time>2026-04-28T09:59:46.999Z</time></trkpt><trkpt lat="35.19118036361089" lon="-5.300058824259158"><ele>331.0</ele><time>2026-04-28T09:59:47.999Z</time></trkpt><trkpt lat="35.191248022148" lon="-5.299910524138004"><ele>331.0</ele><time>2026-04-28T09:59:48.999Z</time></trkpt><trkpt lat="35.19134531348206" lon="-5.299783946048707"><ele>331.0</ele><time>2026-04-28T09:59:49.999Z</time></trkpt><trkpt lat="35.191468618604155" lon="-5.299683573914876"><ele>331.0</ele><time>2026-04-28T09:59:50.999Z</time></trkpt><trkpt lat="35.19159614755533" lon="-5.299586503093004"><ele>336.0</ele><time>2026-04-28T09:59:51.999Z</time></trkpt><trkpt lat="35.19172151779051" lon="-5.29947465964659"><ele>341.0</ele><time>2026-04-28T09:59:52.999Z</time></trkpt><trkpt lat="35.191842484187504" lon="-5.29934131130354"><ele>346.0</ele><time>2026-04-28T09:59:53.999Z</time></trkpt><trkpt lat="35.19195750627039" lon="-5.299195363101359"><ele>346.0</ele><time>2026-04-28T09:59:54.999Z</time></trkpt><trkpt lat="35.192052845293276" lon="-5.299030030835522"><ele>346.0</ele><time>2026-04-28T09:59:55.999Z</time></trkpt><trkpt lat="35.19211236784102" lon="-5.298844409980297"><ele>346.0</ele><time>2026-04-28T09:59:56.999Z</time></trkpt><trkpt lat="35.192142583951544" lon="-5.298649457259962"><ele>344.0</ele><time>2026-04-28T09:59:57.999Z</time></trkpt><trkpt lat="35.1921702123128" lon="-5.298459116016967"><ele>342.0</ele><time>2026-04-28T09:59:58.999Z</time></trkpt><trkpt lat="35.19220598391561" lon="-5.298273041794926"><ele>340.0</ele><time>2026-04-28T09:59:59.999Z</time></trkpt><trkpt lat="35.19223009702533" lon="-5.298083348821442"><ele>339.66666666666663</ele><time>2026-04-28T10:00:00.999Z</time></trkpt><trkpt lat="35.19225928936336" lon="-5.297901044626838"><ele>339.3333333333333</ele><time>2026-04-28T10:00:01.999Z</time></trkpt><trkpt lat="35.19229551552231" lon="-5.297720069638319"><ele>339.0</ele><time>2026-04-28T10:00:02.999Z</time></trkpt><trkpt lat="35.19233558372441" lon="-5.297541331895425"><ele>346.0</ele><time>2026-04-28T10:00:03.999Z</time></trkpt><trkpt lat="35.19237160981454" lon="-5.297365714509286"><ele>353.0</ele><time>2026-04-28T10:00:04.999Z</time></trkpt><trkpt lat="35.19241809636766" lon="-5.297195304144048"><ele>360.0</ele><time>2026-04-28T10:00:05.999Z</time></trkpt><trkpt lat="35.19248585193351" lon="-5.297034556190639"><ele>367.0</ele><time>2026-04-28T10:00:06.999Z</time></trkpt><trkpt lat="35.192568476017854" lon="-5.296883427296802"><ele>368.25</ele><time>2026-04-28T10:00:07.999Z</time></trkpt><trkpt lat="35.19264138930076" lon="-5.296738081747804"><ele>369.5</ele><time>2026-04-28T10:00:08.999Z</time></trkpt><trkpt lat="35.19271087941604" lon="-5.296598487035282"><ele>370.75</ele><time>2026-04-28T10:00:09.999Z</time></trkpt><trkpt lat="35.192766055210825" lon="-5.296454108894324"><ele>372.0</ele><time>2026-04-28T10:00:10.999Z</time></trkpt><trkpt lat="35.192788435534716" lon="-5.2962962330220495"><ele>373.75</ele><time>2026-04-28T10:00:11.999Z</time></trkpt><trkpt lat="35.19277179215704" lon="-5.296128422481181"><ele>375.5</ele><time>2026-04-28T10:00:12.999Z</time></trkpt><trkpt lat="35.19271969206551" lon="-5.295970208410977"><ele>377.25</ele><time>2026-04-28T10:00:13.999Z</time></trkpt><trkpt lat="35.19263663899291" lon="-5.2958278164433175"><ele>379.0</ele><time>2026-04-28T10:00:14.999Z</time></trkpt><trkpt lat="35.19253613351879" lon="-5.295696031166048"><ele>376.75</ele><time>2026-04-28T10:00:15.999Z</time></trkpt><trkpt lat="35.19244064369777" lon="-5.295559125768731"><ele>374.5</ele><time>2026-04-28T10:00:16.999Z</time></trkpt><trkpt lat="35.192360176975384" lon="-5.295421621752067"><ele>372.25</ele><time>2026-04-28T10:00:17.999Z</time></trkpt><trkpt lat="35.19228756178955" lon="-5.295289397505331"><ele>370.0</ele><time>2026-04-28T10:00:18.999Z</time></trkpt><trkpt lat="35.19223608728131" lon="-5.295149179843413"><ele>370.0</ele><time>2026-04-28T10:00:19.999Z</time></trkpt><trkpt lat="35.192214247481566" lon="-5.294989889980809"><ele>370.0</ele><time>2026-04-28T10:00:20.999Z</time></trkpt><trkpt lat="35.192221641579486" lon="-5.294818444021589"><ele>370.0</ele><time>2026-04-28T10:00:21.999Z</time></trkpt><trkpt lat="35.19226497147978" lon="-5.294647173898802"><ele>370.0</ele><time>2026-04-28T10:00:22.999Z</time></trkpt><trkpt lat="35.19232961602056" lon="-5.294474680227312"><ele>377.75</ele><time>2026-04-28T10:00:23.999Z</time></trkpt><trkpt lat="35.192394019476126" lon="-5.294301962908015"><ele>385.5</ele><time>2026-04-28T10:00:24.999Z</time></trkpt><trkpt lat="35.19244911880683" lon="-5.294133213840804"><ele>393.25</ele><time>2026-04-28T10:00:25.999Z</time></trkpt><trkpt lat="35.1925009835556" lon="-5.293974004697871"><ele>401.0</ele><time>2026-04-28T10:00:26.999Z</time></trkpt><trkpt lat="35.192527983643586" lon="-5.293824516376095"><ele>400.25</ele><time>2026-04-28T10:00:27.999Z</time></trkpt><trkpt lat="35.19251032050096" lon="-5.293678123238641"><ele>399.5</ele><time>2026-04-28T10:00:28.999Z</time></trkpt><trkpt lat="35.19244684776079" lon="-5.29353865439308"><ele>398.75</ele><time>2026-04-28T10:00:29.999Z</time></trkpt><trkpt lat="35.19235352710316" lon="-5.2934241617685815"><ele>398.0</ele><time>2026-04-28T10:00:30.999Z</time></trkpt><trkpt lat="35.19223524765199" lon="-5.293352696359915"><ele>398.0</ele><time>2026-04-28T10:00:31.999Z</time></trkpt><trkpt lat="35.192132154575006" lon="-5.293282298630264"><ele>398.0</ele><time>2026-04-28T10:00:32.999Z</time></trkpt><trkpt lat="35.19206947732006" lon="-5.29317070606234"><ele>398.0</ele><time>2026-04-28T10:00:33.999Z</time></trkpt><trkpt lat="35.19204696872125" lon="-5.293031524259401"><ele>398.0</ele><time>2026-04-28T10:00:34.999Z</time></trkpt><trkpt lat="35.19204968048231" lon="-5.292884383652555"><ele>401.25</ele><time>2026-04-28T10:00:35.999Z</time></trkpt><trkpt lat="35.19205424441091" lon="-5.292732519483874"><ele>404.5</ele><time>2026-04-28T10:00:36.999Z</time></trkpt><trkpt lat="35.19203097212207" lon="-5.292579998247626"><ele>407.75</ele><time>2026-04-28T10:00:37.999Z</time></trkpt><trkpt lat="35.19197728462205" lon="-5.292425465956788"><ele>411.0</ele><time>2026-04-28T10:00:38.999Z</time></trkpt><trkpt lat="35.19191077855044" lon="-5.292283129911617"><ele>414.5</ele><time>2026-04-28T10:00:39.999Z</time></trkpt><trkpt lat="35.19183036530764" lon="-5.292159298128339"><ele>418.0</ele><time>2026-04-28T10:00:40.999Z</time></trkpt><trkpt lat="35.191775947476614" lon="-5.292036744471216"><ele>421.5</ele><time>2026-04-28T10:00:41.999Z</time></trkpt><trkpt lat="35.19176156231131" lon="-5.291905311224703"><ele>425.0</ele><time>2026-04-28T10:00:42.999Z</time></trkpt><trkpt lat="35.191792543624416" lon="-5.291774094213219"><ele>425.0</ele><time>2026-04-28T10:00:43.999Z</time></trkpt><trkpt lat="35.19186173737358" lon="-5.291647852500968"><ele>425.0</ele><time>2026-04-28T10:00:44.999Z</time></trkpt><trkpt lat="35.1919382302191" lon="-5.29152532557099"><ele>425.0</ele><time>2026-04-28T10:00:45.999Z</time></trkpt><trkpt lat="35.19200569415583" lon="-5.291406226835452"><ele>425.0</ele><time>2026-04-28T10:00:46.999Z</time></trkpt><trkpt lat="35.1920454348494" lon="-5.291279271742608"><ele>427.5</ele><time>2026-04-28T10:00:47.999Z</time></trkpt><trkpt lat="35.19205216211115" lon="-5.2911333455669185"><ele>430.0</ele><time>2026-04-28T10:00:48.999Z</time></trkpt><trkpt lat="35.192030488504244" lon="-5.290977022056029"><ele>432.5</ele><time>2026-04-28T10:00:49.999Z</time></trkpt><trkpt lat="35.191983545406515" lon="-5.290819517322564"><ele>435.0</ele><time>2026-04-28T10:00:50.999Z</time></trkpt><trkpt lat="35.19190858911276" lon="-5.290668150853433"><ele>438.33333333333337</ele><time>2026-04-28T10:00:51.999Z</time></trkpt><trkpt lat="35.191815946248575" lon="-5.290520199206766"><ele>441.6666666666667</ele><time>2026-04-28T10:00:52.999Z</time></trkpt><trkpt lat="35.19173733484687" lon="-5.290356473180173"><ele>445.0</ele><time>2026-04-28T10:00:53.999Z</time></trkpt><trkpt lat="35.19167338985734" lon="-5.290176790918733"><ele>445.0</ele><time>2026-04-28T10:00:54.999Z</time></trkpt><trkpt lat="35.19161975738862" lon="-5.2899903784532105"><ele>445.0</ele><time>2026-04-28T10:00:55.999Z</time></trkpt><trkpt lat="35.191583396692884" lon="-5.289802564092025"><ele>445.0</ele><time>2026-04-28T10:00:56.999Z</time></trkpt><trkpt lat="35.19155750342073" lon="-5.289631742938667"><ele>446.25</ele><time>2026-04-28T10:00:58Z</time></trkpt><trkpt lat="35.19152601756313" lon="-5.289480625633849"><ele>447.5</ele><time>2026-04-28T10:00:59Z</time></trkpt><trkpt lat="35.191475921302235" lon="-5.289342591552807"><ele>448.75</ele><time>2026-04-28T10:01:00Z</time></trkpt><trkpt lat="35.19139066784995" lon="-5.289228591310254"><ele>450.0</ele><time>2026-04-28T10:01:01Z</time></trkpt><trkpt lat="35.19126929354932" lon="-5.289141629132553"><ele>450.0</ele><time>2026-04-28T10:01:02Z</time></trkpt><trkpt lat="35.191161073015486" lon="-5.289047315465491"><ele>450.0</ele><time>2026-04-28T10:01:03Z</time></trkpt><trkpt lat="35.19107679680867" lon="-5.2889304039087515"><ele>450.0</ele><time>2026-04-28T10:01:04Z</time></trkpt><trkpt lat="35.19102598263393" lon="-5.288783236806314"><ele>450.0</ele><time>2026-04-28T10:01:05Z</time></trkpt><trkpt lat="35.190987572810926" lon="-5.288612744837278"><ele>453.0</ele><time>2026-04-28T10:01:06Z</time></trkpt><trkpt lat="35.19096511783405" lon="-5.28842109193375"><ele>456.0</ele><time>2026-04-28T10:01:07Z</time></trkpt><trkpt lat="35.19094228427941" lon="-5.288215588351889"><ele>459.0</ele><time>2026-04-28T10:01:08Z</time></trkpt><trkpt lat="35.190908369647886" lon="-5.288016604445093"><ele>460.75</ele><time>2026-04-28T10:01:09Z</time></trkpt><trkpt lat="35.19087638496952" lon="-5.287841316813463"><ele>462.5</ele><time>2026-04-28T10:01:10Z</time></trkpt><trkpt lat="35.190846272282606" lon="-5.287685890767877"><ele>464.25</ele><time>2026-04-28T10:01:11Z</time></trkpt><trkpt lat="35.19080356980045" lon="-5.28755305972732"><ele>466.0</ele><time>2026-04-28T10:01:12Z</time></trkpt><trkpt lat="35.19073456183665" lon="-5.28744176211356"><ele>465.5</ele><time>2026-04-28T10:01:13Z</time></trkpt><trkpt lat="35.190654700907146" lon="-5.287351959952566"><ele>465.0</ele><time>2026-04-28T10:01:14Z</time></trkpt><trkpt lat="35.190559958164016" lon="-5.2872804017989266"><ele>464.5</ele><time>2026-04-28T10:01:15Z</time></trkpt><trkpt lat="35.19045612108605" lon="-5.287221827961462"><ele>464.0</ele><time>2026-04-28T10:01:16Z</time></trkpt><trkpt lat="35.19034781351414" lon="-5.287163467019481"><ele>466.0</ele><time>2026-04-28T10:01:17Z</time></trkpt><trkpt lat="35.1902405771834" lon="-5.287101215588986"><ele>468.0</ele><time>2026-04-28T10:01:18Z</time></trkpt><trkpt lat="35.19013860193452" lon="-5.287033998638739"><ele>470.0</ele><time>2026-04-28T10:01:19Z</time></trkpt><trkpt lat="35.19004777398372" lon="-5.286964865569828"><ele>472.0</ele><time>2026-04-28T10:01:20Z</time></trkpt><trkpt lat="35.18996826686182" lon="-5.2868979456188665"><ele>474.0</ele><time>2026-04-28T10:01:21Z</time></trkpt><trkpt lat="35.18989807390998" lon="-5.286833586583026"><ele>473.8333333333333</ele><time>2026-04-28T10:01:22Z</time></trkpt><trkpt lat="35.1898407834842" lon="-5.286774913093916"><ele>473.66666666666663</ele><time>2026-04-28T10:01:23Z</time></trkpt><trkpt lat="35.18978871699614" lon="-5.286722071828978"><ele>473.5</ele><time>2026-04-28T10:01:24Z</time></trkpt><trkpt lat="35.18973901974447" lon="-5.286672503271501"><ele>473.3333333333333</ele><time>2026-04-28T10:01:25Z</time></trkpt><trkpt lat="35.18966782313217" lon="-5.2865929668627025"><ele>473.16666666666663</ele><time>2026-04-28T10:01:27Z</time></trkpt><trkpt lat="35.189609195438415" lon="-5.286524045868156"><ele>473.0</ele><time>2026-04-28T10:01:29Z</time></trkpt><trkpt lat="35.18956342102246" lon="-5.286462057367758"><ele>474.79999999999995</ele><time>2026-04-28T10:01:31Z</time></trkpt><trkpt lat="35.189492509708664" lon="-5.286364630248884"><ele>476.59999999999997</ele><time>2026-04-28T10:01:34Z</time></trkpt><trkpt lat="35.1894169817972" lon="-5.2862661631654335"><ele>478.40000000000003</ele><time>2026-04-28T10:01:36Z</time></trkpt><trkpt lat="35.189330807045664" lon="-5.286157371390332"><ele>480.20000000000005</ele><time>2026-04-28T10:01:37.999Z</time></trkpt><trkpt lat="35.189281726762104" lon="-5.286099352414034"><ele>482.0</ele><time>2026-04-28T10:01:38.999Z</time></trkpt><trkpt lat="35.18922522120476" lon="-5.286036780013088"><ele>481.99999999999994</ele><time>2026-04-28T10:01:39.999Z</time></trkpt><trkpt lat="35.18916340385006" lon="-5.285972674611988"><ele>482.0</ele><time>2026-04-28T10:01:40.999Z</time></trkpt><trkpt lat="35.18910270806083" lon="-5.285915005086519"><ele>482.0</ele><time>2026-04-28T10:01:41.999Z</time></trkpt><trkpt lat="35.18903713286484" lon="-5.28586141300501"><ele>482.0</ele><time>2026-04-28T10:01:42.999Z</time></trkpt><trkpt lat="35.18896212266516" lon="-5.285821510711352"><ele>481.99999999999994</ele><time>2026-04-28T10:01:43.999Z</time></trkpt><trkpt lat="35.18887726673799" lon="-5.285789722927343"><ele>482.0</ele><time>2026-04-28T10:01:44.999Z</time></trkpt><trkpt lat="35.188786004380084" lon="-5.285761338611168"><ele>482.0</ele><time>2026-04-28T10:01:45.999Z</time></trkpt><trkpt lat="35.18869340323045" lon="-5.28573044108526"><ele>482.00000000000006</ele><time>2026-04-28T10:01:46.999Z</time></trkpt><trkpt lat="35.18860003614653" lon="-5.285695950429693"><ele>482.00000000000006</ele><time>2026-04-28T10:01:47.999Z</time></trkpt><trkpt lat="35.18850957919099" lon="-5.285661679830608"><ele>482.0</ele><time>2026-04-28T10:01:48.999Z</time></trkpt><trkpt lat="35.18840895522705" lon="-5.285627881287573"><ele>482.0</ele><time>2026-04-28T10:01:49.999Z</time></trkpt><trkpt lat="35.18831314518277" lon="-5.285598302129426"><ele>484.20000000000005</ele><time>2026-04-28T10:01:50.999Z</time></trkpt><trkpt lat="35.18821473226135" lon="-5.285566985077403"><ele>486.40000000000003</ele><time>2026-04-28T10:01:51.999Z</time></trkpt><trkpt lat="35.188119538154474" lon="-5.285534960004244"><ele>488.59999999999997</ele><time>2026-04-28T10:01:52.999Z</time></trkpt><trkpt lat="35.1880245291561" lon="-5.285500788485886"><ele>490.79999999999995</ele><time>2026-04-28T10:01:53.999Z</time></trkpt><trkpt lat="35.18792820754163" lon="-5.285467484052189"><ele>493.0</ele><time>2026-04-28T10:01:54.999Z</time></trkpt><trkpt lat="35.18783092251758" lon="-5.285435515657215"><ele>493.0</ele><time>2026-04-28T10:01:55.999Z</time></trkpt><trkpt lat="35.187733101510034" lon="-5.285406113838639"><ele>492.99999999999994</ele><time>2026-04-28T10:01:56.999Z</time></trkpt><trkpt lat="35.18763467053637" lon="-5.285374004030761"><ele>492.99999999999994</ele><time>2026-04-28T10:01:57.999Z</time></trkpt><trkpt lat="35.18753254031733" lon="-5.2853370498403045"><ele>493.0</ele><time>2026-04-28T10:01:58.999Z</time></trkpt><trkpt lat="35.18742777782213" lon="-5.285297092386868"><ele>493.0</ele><time>2026-04-28T10:01:59.999Z</time></trkpt><trkpt lat="35.18731861214593" lon="-5.2852593363184415"><ele>494.0</ele><time>2026-04-28T10:02:00.999Z</time></trkpt><trkpt lat="35.187204676459466" lon="-5.2852211087810534"><ele>495.0</ele><time>2026-04-28T10:02:01.999Z</time></trkpt><trkpt lat="35.187084838844264" lon="-5.285183050758208"><ele>496.0</ele><time>2026-04-28T10:02:02.999Z</time></trkpt><trkpt lat="35.18696550728636" lon="-5.285144542558131"><ele>497.0</ele><time>2026-04-28T10:02:03.999Z</time></trkpt><trkpt lat="35.186839105494705" lon="-5.285112298665163"><ele>497.0</ele><time>2026-04-28T10:02:04.999Z</time></trkpt><trkpt lat="35.186704137646934" lon="-5.285105234370822"><ele>497.0</ele><time>2026-04-28T10:02:05.999Z</time></trkpt><trkpt lat="35.186574266747215" lon="-5.28513266024485"><ele>497.0</ele><time>2026-04-28T10:02:06.999Z</time></trkpt><trkpt lat="35.18645060095659" lon="-5.285191752943926"><ele>497.0</ele><time>2026-04-28T10:02:07.999Z</time></trkpt><trkpt lat="35.18632493225852" lon="-5.28526612012697"><ele>498.75</ele><time>2026-04-28T10:02:08.999Z</time></trkpt><trkpt lat="35.186195492389245" lon="-5.2853377626184255"><ele>500.5</ele><time>2026-04-28T10:02:09.999Z</time></trkpt><trkpt lat="35.186056495661994" lon="-5.285383921139989"><ele>502.25</ele><time>2026-04-28T10:02:10.999Z</time></trkpt><trkpt lat="35.185913663021935" lon="-5.285400451179312"><ele>504.0</ele><time>2026-04-28T10:02:11.999Z</time></trkpt><trkpt lat="35.18576805341916" lon="-5.285401773784676"><ele>505.5</ele><time>2026-04-28T10:02:12.999Z</time></trkpt><trkpt lat="35.18561985794335" lon="-5.285390086090719"><ele>507.0</ele><time>2026-04-28T10:02:13.999Z</time></trkpt><trkpt lat="35.18547209561399" lon="-5.285375699513309"><ele>508.5</ele><time>2026-04-28T10:02:14.999Z</time></trkpt><trkpt lat="35.18532650019547" lon="-5.285364296213651"><ele>510.0</ele><time>2026-04-28T10:02:15.999Z</time></trkpt><trkpt lat="35.185187578809746" lon="-5.2853466370790985"><ele>510.0</ele><time>2026-04-28T10:02:16.999Z</time></trkpt><trkpt lat="35.18505627676406" lon="-5.285307096727284"><ele>510.0</ele><time>2026-04-28T10:02:17.999Z</time></trkpt><trkpt lat="35.18493433267609" lon="-5.285238920147558"><ele>510.0</ele><time>2026-04-28T10:02:18.999Z</time></trkpt><trkpt lat="35.184819189539006" lon="-5.285143708113624"><ele>510.0</ele><time>2026-04-28T10:02:19.999Z</time></trkpt><trkpt lat="35.18471459294334" lon="-5.285025005774227"><ele>508.33333333333337</ele><time>2026-04-28T10:02:20.999Z</time></trkpt><trkpt lat="35.18461261492978" lon="-5.284897293834032"><ele>506.6666666666667</ele><time>2026-04-28T10:02:21.999Z</time></trkpt><trkpt lat="35.184507624528415" lon="-5.284764381482778"><ele>505.0</ele><time>2026-04-28T10:02:22.999Z</time></trkpt><trkpt lat="35.1844010941367" lon="-5.284630221883358"><ele>508.75</ele><time>2026-04-28T10:02:23.999Z</time></trkpt><trkpt lat="35.18430064403892" lon="-5.284509754706955"><ele>512.5</ele><time>2026-04-28T10:02:24.999Z</time></trkpt><trkpt lat="35.184199535099495" lon="-5.284401300461836"><ele>516.25</ele><time>2026-04-28T10:02:25.999Z</time></trkpt><trkpt lat="35.18408367127195" lon="-5.284314842042498"><ele>520.0</ele><time>2026-04-28T10:02:26.999Z</time></trkpt><trkpt lat="35.18394832687674" lon="-5.2842715817799935"><ele>521.75</ele><time>2026-04-28T10:02:27.999Z</time></trkpt><trkpt lat="35.183809541059574" lon="-5.284244974216224"><ele>523.5</ele><time>2026-04-28T10:02:28.999Z</time></trkpt><trkpt lat="35.183668940432035" lon="-5.284295376487942"><ele>525.25</ele><time>2026-04-28T10:02:29.999Z</time></trkpt><trkpt lat="35.18353629982035" lon="-5.284368735625772"><ele>527.0</ele><time>2026-04-28T10:02:30.999Z</time></trkpt><trkpt lat="35.18341605202646" lon="-5.284477282238018"><ele>527.0</ele><time>2026-04-28T10:02:31.999Z</time></trkpt><trkpt lat="35.183297444568296" lon="-5.284596432549562"><ele>527.0</ele><time>2026-04-28T10:02:32.999Z</time></trkpt><trkpt lat="35.18317260634473" lon="-5.284709024669694"><ele>527.0</ele><time>2026-04-28T10:02:33.999Z</time></trkpt><trkpt lat="35.183051612985246" lon="-5.284813598493037"><ele>525.5</ele><time>2026-04-28T10:02:34.999Z</time></trkpt><trkpt lat="35.18293430194518" lon="-5.28490801500657"><ele>524.0</ele><time>2026-04-28T10:02:35.999Z</time></trkpt><trkpt lat="35.18281554759411" lon="-5.284986023825888"><ele>522.5</ele><time>2026-04-28T10:02:36.999Z</time></trkpt><trkpt lat="35.182696277950235" lon="-5.285039046410531"><ele>521.0</ele><time>2026-04-28T10:02:37.999Z</time></trkpt><trkpt lat="35.1825750539449" lon="-5.285058211241991"><ele>521.0</ele><time>2026-04-28T10:02:38.999Z</time></trkpt><trkpt lat="35.18245561468739" lon="-5.285047769891947"><ele>521.0</ele><time>2026-04-28T10:02:39.999Z</time></trkpt><trkpt lat="35.18233788823889" lon="-5.28503628042998"><ele>521.0</ele><time>2026-04-28T10:02:40.999Z</time></trkpt><trkpt lat="35.18222846658226" lon="-5.285030986839872"><ele>521.0</ele><time>2026-04-28T10:02:41.999Z</time></trkpt><trkpt lat="35.1821201969003" lon="-5.285033307298997"><ele>520.5</ele><time>2026-04-28T10:02:42.999Z</time></trkpt><trkpt lat="35.182094953451745" lon="-5.284927301382037"><ele>520.0</ele><time>2026-04-28T10:02:43.999Z</time></trkpt><trkpt lat="35.182021416040904" lon="-5.284914258029033"><ele>519.5</ele><time>2026-04-28T10:02:44.999Z</time></trkpt><trkpt lat="35.18194600303164" lon="-5.284877159261444"><ele>519.0</ele><time>2026-04-28T10:02:45.999Z</time></trkpt><trkpt lat="35.18188562660062" lon="-5.284810381625625"><ele>518.5</ele><time>2026-04-28T10:02:46.999Z</time></trkpt><trkpt lat="35.181862563962184" lon="-5.284727466697279"><ele>518.0</ele><time>2026-04-28T10:02:47.999Z</time></trkpt><trkpt lat="35.18186990023052" lon="-5.284637355779554"><ele>518.0</ele><time>2026-04-28T10:02:48.999Z</time></trkpt><trkpt lat="35.18190760932296" lon="-5.28455217504239"><ele>518.0</ele><time>2026-04-28T10:02:49.999Z</time></trkpt><trkpt lat="35.18197129733433" lon="-5.284471374874952"><ele>518.0</ele><time>2026-04-28T10:02:50.999Z</time></trkpt><trkpt lat="35.18203850845365" lon="-5.284383118219431"><ele>518.0</ele><time>2026-04-28T10:02:51.999Z</time></trkpt><trkpt lat="35.18208172230855" lon="-5.284269558496501"><ele>518.0</ele><time>2026-04-28T10:02:52.999Z</time></trkpt><trkpt lat="35.18209008295639" lon="-5.2841368506774655"><ele>518.0</ele><time>2026-04-28T10:02:53.999Z</time></trkpt><trkpt lat="35.18206038413932" lon="-5.283998653639597"><ele>518.0</ele><time>2026-04-28T10:02:54.999Z</time></trkpt><trkpt lat="35.182021171482134" lon="-5.2838551102004425"><ele>518.0</ele><time>2026-04-28T10:02:55.999Z</time></trkpt><trkpt lat="35.18188812930869" lon="-5.283780256883988"><ele>518.0</ele><time>2026-04-28T10:02:56.999Z</time></trkpt><trkpt lat="35.181780269935075" lon="-5.283690574473763"><ele>518.75</ele><time>2026-04-28T10:02:57.999Z</time></trkpt><trkpt lat="35.181681686653754" lon="-5.283589088176144"><ele>519.5</ele><time>2026-04-28T10:02:58.999Z</time></trkpt><trkpt lat="35.18157524574345" lon="-5.2835085072969745"><ele>520.25</ele><time>2026-04-28T10:02:59.999Z</time></trkpt><trkpt lat="35.181474996578785" lon="-5.283423180488848"><ele>521.0</ele><time>2026-04-28T10:03:00.999Z</time></trkpt><trkpt lat="35.18137264251509" lon="-5.283342112918427"><ele>521.0</ele><time>2026-04-28T10:03:01.999Z</time></trkpt><trkpt lat="35.18127361835797" lon="-5.283258747388953"><ele>521.0</ele><time>2026-04-28T10:03:03Z</time></trkpt><trkpt lat="35.18117487964256" lon="-5.283173377841009"><ele>521.0</ele><time>2026-04-28T10:03:04Z</time></trkpt><trkpt lat="35.18108062423667" lon="-5.283092888313833"><ele>521.0</ele><time>2026-04-28T10:03:05Z</time></trkpt><trkpt lat="35.180986113038195" lon="-5.283017168178964"><ele>525.25</ele><time>2026-04-28T10:03:06Z</time></trkpt><trkpt lat="35.180878735474934" lon="-5.282971326805588"><ele>529.5</ele><time>2026-04-28T10:03:07Z</time></trkpt><trkpt lat="35.18075951373745" lon="-5.282957147835757"><ele>533.75</ele><time>2026-04-28T10:03:08Z</time></trkpt><trkpt lat="35.18064487860076" lon="-5.283009937203621"><ele>538.0</ele><time>2026-04-28T10:03:09Z</time></trkpt><trkpt lat="35.18054033336953" lon="-5.283064312145899"><ele>536.6</ele><time>2026-04-28T10:03:10Z</time></trkpt><trkpt lat="35.180444965508" lon="-5.283122252077438"><ele>535.1999999999999</ele><time>2026-04-28T10:03:11Z</time></trkpt><trkpt lat="35.18034591397216" lon="-5.283184658259755"><ele>533.8</ele><time>2026-04-28T10:03:12Z</time></trkpt><trkpt lat="35.18024380798325" lon="-5.2832301875506635"><ele>532.4</ele><time>2026-04-28T10:03:13Z</time></trkpt><trkpt lat="35.1801521098776" lon="-5.283305019175147"><ele>531.0</ele><time>2026-04-28T10:03:14Z</time></trkpt><trkpt lat="35.180053606578404" lon="-5.283377231596399"><ele>531.0</ele><time>2026-04-28T10:03:15Z</time></trkpt><trkpt lat="35.17994641566218" lon="-5.283432529911191"><ele>531.0</ele><time>2026-04-28T10:03:16Z</time></trkpt><trkpt lat="35.17983265862078" lon="-5.283467722435636"><ele>531.0</ele><time>2026-04-28T10:03:17Z</time></trkpt><trkpt lat="35.179713674529246" lon="-5.283508984120366"><ele>531.0</ele><time>2026-04-28T10:03:18Z</time></trkpt><trkpt lat="35.17959255188497" lon="-5.283556643318042"><ele>532.0</ele><time>2026-04-28T10:03:19Z</time></trkpt><trkpt lat="35.17947226194245" lon="-5.2835952235540775"><ele>533.0</ele><time>2026-04-28T10:03:20Z</time></trkpt><trkpt lat="35.179365770471065" lon="-5.28362713874749"><ele>534.0</ele><time>2026-04-28T10:03:21Z</time></trkpt><trkpt lat="35.179254864177565" lon="-5.283647676473766"><ele>535.0</ele><time>2026-04-28T10:03:22Z</time></trkpt><trkpt lat="35.179139119845196" lon="-5.283660726039409"><ele>535.0</ele><time>2026-04-28T10:03:23Z</time></trkpt><trkpt lat="35.179021824112596" lon="-5.283661327799204"><ele>535.0</ele><time>2026-04-28T10:03:24Z</time></trkpt><trkpt lat="35.178903391923065" lon="-5.283652020704172"><ele>535.0</ele><time>2026-04-28T10:03:25Z</time></trkpt><trkpt lat="35.1787911188458" lon="-5.283639495810536"><ele>535.0</ele><time>2026-04-28T10:03:26Z</time></trkpt><trkpt lat="35.17868021169272" lon="-5.28362896214006"><ele>535.25</ele><time>2026-04-28T10:03:27Z</time></trkpt><trkpt lat="35.178570657588956" lon="-5.283593758469548"><ele>535.5</ele><time>2026-04-28T10:03:28Z</time></trkpt><trkpt lat="35.17845912904871" lon="-5.283565278443409"><ele>535.75</ele><time>2026-04-28T10:03:29Z</time></trkpt><trkpt lat="35.17834918071724" lon="-5.283542477601329"><ele>536.0</ele><time>2026-04-28T10:03:30Z</time></trkpt><trkpt lat="35.17823786066483" lon="-5.2835259938846555"><ele>535.25</ele><time>2026-04-28T10:03:31Z</time></trkpt><trkpt lat="35.178127581990495" lon="-5.283507630879906"><ele>534.5</ele><time>2026-04-28T10:03:32Z</time></trkpt><trkpt lat="35.178016126206494" lon="-5.2834867206992975"><ele>533.75</ele><time>2026-04-28T10:03:33Z</time></trkpt><trkpt lat="35.17790366123819" lon="-5.283473725667944"><ele>533.0</ele><time>2026-04-28T10:03:34Z</time></trkpt><trkpt lat="35.177788781846544" lon="-5.283467753865134"><ele>533.0</ele><time>2026-04-28T10:03:35Z</time></trkpt><trkpt lat="35.177677509001185" lon="-5.283465524269147"><ele>533.0</ele><time>2026-04-28T10:03:36Z</time></trkpt><trkpt lat="35.177569214169814" lon="-5.283459826328081"><ele>533.0</ele><time>2026-04-28T10:03:37Z</time></trkpt><trkpt lat="35.17746177176281" lon="-5.283452563107864"><ele>533.0</ele><time>2026-04-28T10:03:38Z</time></trkpt><trkpt lat="35.17735380251184" lon="-5.283447383770995"><ele>533.0</ele><time>2026-04-28T10:03:38.999Z</time></trkpt><trkpt lat="35.177242805461034" lon="-5.283446941028887"><ele>533.1999999999999</ele><time>2026-04-28T10:03:39.999Z</time></trkpt><trkpt lat="35.17713083848513" lon="-5.283448306147322"><ele>533.4</ele><time>2026-04-28T10:03:40.999Z</time></trkpt><trkpt lat="35.17701876960668" lon="-5.283452460265053"><ele>533.5999999999999</ele><time>2026-04-28T10:03:41.999Z</time></trkpt><trkpt lat="35.17690825000574" lon="-5.283464900836553"><ele>533.8</ele><time>2026-04-28T10:03:42.999Z</time></trkpt><trkpt lat="35.176798162638484" lon="-5.283483837894572"><ele>534.0</ele><time>2026-04-28T10:03:43.999Z</time></trkpt><trkpt lat="35.176693285948154" lon="-5.283500254578162"><ele>534.0</ele><time>2026-04-28T10:03:44.999Z</time></trkpt><trkpt lat="35.17658879412545" lon="-5.2835120109098295"><ele>534.0</ele><time>2026-04-28T10:03:45.999Z</time></trkpt><trkpt lat="35.17648211844432" lon="-5.283520774462419"><ele>534.0</ele><time>2026-04-28T10:03:46.999Z</time></trkpt><trkpt lat="35.176371545875845" lon="-5.28352249281266"><ele>534.0</ele><time>2026-04-28T10:03:47.999Z</time></trkpt><trkpt lat="35.17626167439853" lon="-5.2835141081351535"><ele>534.0</ele><time>2026-04-28T10:03:48.999Z</time></trkpt><trkpt lat="35.17615147844935" lon="-5.283489579580796"><ele>533.2</ele><time>2026-04-28T10:03:49.999Z</time></trkpt><trkpt lat="35.176046032839515" lon="-5.283450723341947"><ele>532.4</ele><time>2026-04-28T10:03:50.999Z</time></trkpt><trkpt lat="35.175945336071294" lon="-5.283393893107373"><ele>531.6</ele><time>2026-04-28T10:03:51.999Z</time></trkpt><trkpt lat="35.17585037940777" lon="-5.2833239885065275"><ele>530.8</ele><time>2026-04-28T10:03:52.999Z</time></trkpt><trkpt lat="35.175761985207565" lon="-5.283246161793362"><ele>530.0</ele><time>2026-04-28T10:03:53.999Z</time></trkpt><trkpt lat="35.175674439467514" lon="-5.283166812695107"><ele>531.0</ele><time>2026-04-28T10:03:54.999Z</time></trkpt><trkpt lat="35.17558938938204" lon="-5.28308660264827"><ele>532.0</ele><time>2026-04-28T10:03:55.999Z</time></trkpt><trkpt lat="35.17550423385583" lon="-5.2830088447178465"><ele>533.0</ele><time>2026-04-28T10:03:56.999Z</time></trkpt><trkpt lat="35.17542306039757" lon="-5.282927791439274"><ele>534.0</ele><time>2026-04-28T10:03:57.999Z</time></trkpt><trkpt lat="35.175350167152736" lon="-5.282835738204305"><ele>535.0</ele><time>2026-04-28T10:03:58.999Z</time></trkpt><trkpt lat="35.17529012468172" lon="-5.2827276190501715"><ele>535.0</ele><time>2026-04-28T10:03:59.999Z</time></trkpt><trkpt lat="35.17523050556082" lon="-5.2826157482052745"><ele>535.0</ele><time>2026-04-28T10:04:00.999Z</time></trkpt><trkpt lat="35.17522440630514" lon="-5.282472947009051"><ele>535.0</ele><time>2026-04-28T10:04:01.999Z</time></trkpt><trkpt lat="35.17521032630564" lon="-5.282366915010343"><ele>535.0</ele><time>2026-04-28T10:04:02.999Z</time></trkpt><trkpt lat="35.17521032630697" lon="-5.28228628200524"><ele>535.0</ele><time>2026-04-28T10:04:03.999Z</time></trkpt><trkpt lat="35.17521831626717" lon="-5.282125969869812"><ele>535.8333333333334</ele><time>2026-04-28T10:04:05.999Z</time></trkpt><trkpt lat="35.17522463232041" lon="-5.282037121486815"><ele>536.6666666666667</ele><time>2026-04-28T10:04:06.999Z</time></trkpt><trkpt lat="35.17523177222634" lon="-5.281936683933243"><ele>537.5</ele><time>2026-04-28T10:04:07.999Z</time></trkpt><trkpt lat="35.17523907868406" lon="-5.281833903088649"><ele>538.3333333333334</ele><time>2026-04-28T10:04:08.999Z</time></trkpt><trkpt lat="35.17524604076553" lon="-5.281728762863094"><ele>539.1666666666666</ele><time>2026-04-28T10:04:09.999Z</time></trkpt><trkpt lat="35.1752549165804" lon="-5.281627037135612"><ele>540.0</ele><time>2026-04-28T10:04:10.999Z</time></trkpt><trkpt lat="35.17526272927682" lon="-5.281524419313195"><ele>540.2</ele><time>2026-04-28T10:04:11.999Z</time></trkpt><trkpt lat="35.17527069114267" lon="-5.281417729775265"><ele>540.4</ele><time>2026-04-28T10:04:12.999Z</time></trkpt><trkpt lat="35.17527377425805" lon="-5.281308375961435"><ele>540.6</ele><time>2026-04-28T10:04:13.999Z</time></trkpt><trkpt lat="35.17527946786951" lon="-5.2811962155494845"><ele>540.8</ele><time>2026-04-28T10:04:14.999Z</time></trkpt><trkpt lat="35.17529099060977" lon="-5.2810784928799235"><ele>541.0</ele><time>2026-04-28T10:04:15.999Z</time></trkpt><trkpt lat="35.17530088270649" lon="-5.280962458232234"><ele>541.0</ele><time>2026-04-28T10:04:16.999Z</time></trkpt><trkpt lat="35.17531384745961" lon="-5.280836384507187"><ele>541.0</ele><time>2026-04-28T10:04:17.999Z</time></trkpt><trkpt lat="35.17532751884877" lon="-5.280711596047606"><ele>541.0</ele><time>2026-04-28T10:04:18.999Z</time></trkpt><trkpt lat="35.1753529896292" lon="-5.280586750100657"><ele>541.0</ele><time>2026-04-28T10:04:19.999Z</time></trkpt><trkpt lat="35.17535986294902" lon="-5.28046190389247"><ele>541.0</ele><time>2026-04-28T10:04:20.999Z</time></trkpt><trkpt lat="35.17536672010001" lon="-5.28033428477251"><ele>542.4</ele><time>2026-04-28T10:04:21.999Z</time></trkpt><trkpt lat="35.175362385151004" lon="-5.280205232034512"><ele>543.8</ele><time>2026-04-28T10:04:22.999Z</time></trkpt><trkpt lat="35.175329654132625" lon="-5.280083455662345"><ele>545.1999999999999</ele><time>2026-04-28T10:04:23.999Z</time></trkpt><trkpt lat="35.17527852146034" lon="-5.2799712294313945"><ele>546.6</ele><time>2026-04-28T10:04:24.999Z</time></trkpt><trkpt lat="35.17521419058005" lon="-5.27986597477299"><ele>548.0</ele><time>2026-04-28T10:04:25.999Z</time></trkpt><trkpt lat="35.17513811977716" lon="-5.279770052120569"><ele>548.8</ele><time>2026-04-28T10:04:26.999Z</time></trkpt><trkpt lat="35.17505519520086" lon="-5.279684346352977"><ele>549.5999999999999</ele><time>2026-04-28T10:04:27.999Z</time></trkpt><trkpt lat="35.174965288930316" lon="-5.279604556162694"><ele>550.4000000000001</ele><time>2026-04-28T10:04:28.999Z</time></trkpt><trkpt lat="35.17487503931568" lon="-5.27952289343574"><ele>551.2</ele><time>2026-04-28T10:04:29.999Z</time></trkpt><trkpt lat="35.174784003982765" lon="-5.279440976030424"><ele>552.0</ele><time>2026-04-28T10:04:30.999Z</time></trkpt><trkpt lat="35.17469015702678" lon="-5.279360681280085"><ele>552.0</ele><time>2026-04-28T10:04:31.999Z</time></trkpt><trkpt lat="35.17460299452917" lon="-5.279284946502197"><ele>552.0</ele><time>2026-04-28T10:04:32.999Z</time></trkpt><trkpt lat="35.174518558837676" lon="-5.279206544469848"><ele>552.0</ele><time>2026-04-28T10:04:33.999Z</time></trkpt><trkpt lat="35.17443523806647" lon="-5.279117928576716"><ele>552.0</ele><time>2026-04-28T10:04:34.999Z</time></trkpt><trkpt lat="35.1743532618601" lon="-5.279017144962013"><ele>552.0</ele><time>2026-04-28T10:04:35.999Z</time></trkpt><trkpt lat="35.17427365985125" lon="-5.278902689585569"><ele>551.0</ele><time>2026-04-28T10:04:36.999Z</time></trkpt><trkpt lat="35.17419347155935" lon="-5.278780725904162"><ele>550.0</ele><time>2026-04-28T10:04:37.999Z</time></trkpt><trkpt lat="35.17411887634446" lon="-5.278656163824725"><ele>549.0</ele><time>2026-04-28T10:04:38.999Z</time></trkpt><trkpt lat="35.174040399473206" lon="-5.278529580325352"><ele>548.0</ele><time>2026-04-28T10:04:39.999Z</time></trkpt><trkpt lat="35.17395877622608" lon="-5.278405224474881"><ele>548.0</ele><time>2026-04-28T10:04:40.999Z</time></trkpt><trkpt lat="35.17387751549897" lon="-5.278285680072581"><ele>548.0</ele><time>2026-04-28T10:04:41.999Z</time></trkpt><trkpt lat="35.17380352181736" lon="-5.278162534671093"><ele>548.0</ele><time>2026-04-28T10:04:42.999Z</time></trkpt><trkpt lat="35.173734136548546" lon="-5.278039129871806"><ele>548.0</ele><time>2026-04-28T10:04:43.999Z</time></trkpt><trkpt lat="35.17365766096039" lon="-5.277918877390168"><ele>549.25</ele><time>2026-04-28T10:04:44.999Z</time></trkpt><trkpt lat="35.17358505661604" lon="-5.277806955524558"><ele>550.5</ele><time>2026-04-28T10:04:45.999Z</time></trkpt><trkpt lat="35.1735133024675" lon="-5.27770004239865"><ele>551.75</ele><time>2026-04-28T10:04:46.999Z</time></trkpt><trkpt lat="35.173439347982445" lon="-5.277597424783705"><ele>553.0</ele><time>2026-04-28T10:04:47.999Z</time></trkpt><trkpt lat="35.17336512342774" lon="-5.277494048555016"><ele>553.0</ele><time>2026-04-28T10:04:48.999Z</time></trkpt><trkpt lat="35.17328474801973" lon="-5.277408953602537"><ele>553.0</ele><time>2026-04-28T10:04:49.999Z</time></trkpt><trkpt lat="35.17320257163015" lon="-5.277328617308496"><ele>553.0</ele><time>2026-04-28T10:04:50.999Z</time></trkpt><trkpt lat="35.1731139236454" lon="-5.277247303188218"><ele>553.0</ele><time>2026-04-28T10:04:51.999Z</time></trkpt><trkpt lat="35.17302519384224" lon="-5.277162730504614"><ele>553.0</ele><time>2026-04-28T10:04:52.999Z</time></trkpt><trkpt lat="35.172939799070825" lon="-5.277077412644588"><ele>553.1999999999999</ele><time>2026-04-28T10:04:53.999Z</time></trkpt><trkpt lat="35.172859774850565" lon="-5.277005111598006"><ele>553.4</ele><time>2026-04-28T10:04:54.999Z</time></trkpt><trkpt lat="35.17277924365975" lon="-5.2769311659038625"><ele>553.5999999999999</ele><time>2026-04-28T10:04:55.999Z</time></trkpt><trkpt lat="35.17270230253955" lon="-5.27685640399652"><ele>553.8</ele><time>2026-04-28T10:04:56.999Z</time></trkpt><trkpt lat="35.17262887278046" lon="-5.276778343183713"><ele>554.0</ele><time>2026-04-28T10:04:57.999Z</time></trkpt><trkpt lat="35.17255947694361" lon="-5.276695936531065"><ele>554.0</ele><time>2026-04-28T10:04:58.999Z</time></trkpt><trkpt lat="35.17250341233832" lon="-5.276599053423945"><ele>554.0</ele><time>2026-04-28T10:04:59.999Z</time></trkpt><trkpt lat="35.17248390324127" lon="-5.276479313463841"><ele>554.0</ele><time>2026-04-28T10:05:00.999Z</time></trkpt><trkpt lat="35.17249175975979" lon="-5.276359513178877"><ele>554.0</ele><time>2026-04-28T10:05:01.999Z</time></trkpt><trkpt lat="35.17252274982265" lon="-5.276241054933199"><ele>554.0</ele><time>2026-04-28T10:05:02.999Z</time></trkpt><trkpt lat="35.17254627097257" lon="-5.276121022608317"><ele>554.8</ele><time>2026-04-28T10:05:03.999Z</time></trkpt><trkpt lat="35.17256693148331" lon="-5.276000285294865"><ele>555.5999999999999</ele><time>2026-04-28T10:05:04.999Z</time></trkpt><trkpt lat="35.172589006921804" lon="-5.275880018270308"><ele>556.4</ele><time>2026-04-28T10:05:05.999Z</time></trkpt><trkpt lat="35.17261032502434" lon="-5.2757582365910904"><ele>557.1999999999999</ele><time>2026-04-28T10:05:06.999Z</time></trkpt><trkpt lat="35.17263144044381" lon="-5.275632098589797"><ele>558.0</ele><time>2026-04-28T10:05:07.999Z</time></trkpt><trkpt lat="35.17264773085114" lon="-5.275507652175472"><ele>558.0</ele><time>2026-04-28T10:05:09Z</time></trkpt><trkpt lat="35.17266436150211" lon="-5.2753787630074225"><ele>558.0</ele><time>2026-04-28T10:05:10Z</time></trkpt><trkpt lat="35.172669075600616" lon="-5.275246079185773"><ele>558.0</ele><time>2026-04-28T10:05:11Z</time></trkpt><trkpt lat="35.17265619130752" lon="-5.275107636375458"><ele>558.0</ele><time>2026-04-28T10:05:12Z</time></trkpt><trkpt lat="35.172636610743965" lon="-5.2749702172212665"><ele>558.0</ele><time>2026-04-28T10:05:13Z</time></trkpt><trkpt lat="35.17261791740939" lon="-5.274827710415571"><ele>557.5</ele><time>2026-04-28T10:05:14Z</time></trkpt><trkpt lat="35.17260535575286" lon="-5.274686231161853"><ele>557.0</ele><time>2026-04-28T10:05:15Z</time></trkpt><trkpt lat="35.17260773171428" lon="-5.274544776650431"><ele>556.5</ele><time>2026-04-28T10:05:16Z</time></trkpt><trkpt lat="35.17264440576456" lon="-5.274407824592438"><ele>556.0</ele><time>2026-04-28T10:05:17Z</time></trkpt><trkpt lat="35.17271284066536" lon="-5.27428393126169"><ele>556.0</ele><time>2026-04-28T10:05:18Z</time></trkpt><trkpt lat="35.17277833870728" lon="-5.2741665902670265"><ele>556.0</ele><time>2026-04-28T10:05:19Z</time></trkpt><trkpt lat="35.1728320491353" lon="-5.274056884324489"><ele>556.0</ele><time>2026-04-28T10:05:20Z</time></trkpt><trkpt lat="35.172925022747584" lon="-5.27398731428983"><ele>556.0</ele><time>2026-04-28T10:05:21Z</time></trkpt><trkpt lat="35.17296088426359" lon="-5.27388108586254"><ele>556.0</ele><time>2026-04-28T10:05:22Z</time></trkpt><trkpt lat="35.172998115693396" lon="-5.273789628380871"><ele>556.3333333333334</ele><time>2026-04-28T10:05:23Z</time></trkpt><trkpt lat="35.17302416934602" lon="-5.27370041785008"><ele>556.6666666666667</ele><time>2026-04-28T10:05:24Z</time></trkpt><trkpt lat="35.17304834495234" lon="-5.273612235179001"><ele>557.0</ele><time>2026-04-28T10:05:25Z</time></trkpt><trkpt lat="35.173070282577385" lon="-5.273529133947723"><ele>557.3333333333334</ele><time>2026-04-28T10:05:26Z</time></trkpt><trkpt lat="35.17306092380032" lon="-5.273439230671699"><ele>557.6666666666666</ele><time>2026-04-28T10:05:27Z</time></trkpt><trkpt lat="35.173050956423296" lon="-5.2733470345509526"><ele>558.0</ele><time>2026-04-28T10:05:28Z</time></trkpt><trkpt lat="35.17302168119322" lon="-5.273250113139825"><ele>558.0</ele><time>2026-04-28T10:05:29Z</time></trkpt><trkpt lat="35.17290512668733" lon="-5.273199223231664"><ele>558.0</ele><time>2026-04-28T10:05:30Z</time></trkpt><trkpt lat="35.172824962875936" lon="-5.273132558612495"><ele>558.0</ele><time>2026-04-28T10:05:31Z</time></trkpt><trkpt lat="35.17273399305701" lon="-5.273076162361189"><ele>558.0</ele><time>2026-04-28T10:05:32Z</time></trkpt><trkpt lat="35.17267293842057" lon="-5.272987110334585"><ele>558.0</ele><time>2026-04-28T10:05:33Z</time></trkpt><trkpt lat="35.1725208306639" lon="-5.273045078958995"><ele>558.0</ele><time>2026-04-28T10:05:34Z</time></trkpt><trkpt lat="35.172409022556906" lon="-5.273056599079062"><ele>558.0</ele><time>2026-04-28T10:05:35Z</time></trkpt><trkpt lat="35.17229861697596" lon="-5.273068969690492"><ele>558.0</ele><time>2026-04-28T10:05:36Z</time></trkpt><trkpt lat="35.172195081078726" lon="-5.2730869067195405"><ele>558.0</ele><time>2026-04-28T10:05:37Z</time></trkpt><trkpt lat="35.17209746242629" lon="-5.273120060175018"><ele>558.0</ele><time>2026-04-28T10:05:38Z</time></trkpt><trkpt lat="35.17200534788453" lon="-5.273164047901745"><ele>558.0</ele><time>2026-04-28T10:05:39Z</time></trkpt><trkpt lat="35.1719133914146" lon="-5.273209564620664"><ele>558.0</ele><time>2026-04-28T10:05:40Z</time></trkpt><trkpt lat="35.171814082011075" lon="-5.273242733692062"><ele>558.0</ele><time>2026-04-28T10:05:41Z</time></trkpt><trkpt lat="35.1717098538964" lon="-5.273257095473331"><ele>558.0</ele><time>2026-04-28T10:05:41.999Z</time></trkpt><trkpt lat="35.17160008627758" lon="-5.273250885200519"><ele>558.0</ele><time>2026-04-28T10:05:42.999Z</time></trkpt><trkpt lat="35.17149087271652" lon="-5.273225866037247"><ele>557.1999999999999</ele><time>2026-04-28T10:05:43.999Z</time></trkpt><trkpt lat="35.17138047332003" lon="-5.273191626418623"><ele>556.4</ele><time>2026-04-28T10:05:44.999Z</time></trkpt><trkpt lat="35.17127059939307" lon="-5.273162238601308"><ele>555.5999999999999</ele><time>2026-04-28T10:05:45.999Z</time></trkpt><trkpt lat="35.171164619087136" lon="-5.273131182154539"><ele>554.8</ele><time>2026-04-28T10:05:46.999Z</time></trkpt><trkpt lat="35.17105974570596" lon="-5.273098165191885"><ele>554.0</ele><time>2026-04-28T10:05:47.999Z</time></trkpt><trkpt lat="35.17095491418726" lon="-5.273066847241095"><ele>554.6</ele><time>2026-04-28T10:05:48.999Z</time></trkpt><trkpt lat="35.17085189401939" lon="-5.273039334973142"><ele>555.2</ele><time>2026-04-28T10:05:49.999Z</time></trkpt><trkpt lat="35.17075388785859" lon="-5.2730129336054965"><ele>555.8000000000001</ele><time>2026-04-28T10:05:50.999Z</time></trkpt><trkpt lat="35.1706618181197" lon="-5.27299741885797"><ele>556.4</ele><time>2026-04-28T10:05:51.999Z</time></trkpt><trkpt lat="35.17057369163394" lon="-5.272977293060807"><ele>557.0</ele><time>2026-04-28T10:05:52.999Z</time></trkpt><trkpt lat="35.170497986996594" lon="-5.272934389329997"><ele>557.0</ele><time>2026-04-28T10:05:53.999Z</time></trkpt><trkpt lat="35.17043392445138" lon="-5.272866743848892"><ele>557.0</ele><time>2026-04-28T10:05:54.999Z</time></trkpt><trkpt lat="35.170388345866144" lon="-5.272783905679113"><ele>557.0</ele><time>2026-04-28T10:05:55.999Z</time></trkpt><trkpt lat="35.170371313755105" lon="-5.272684376983606"><ele>557.0</ele><time>2026-04-28T10:05:56.999Z</time></trkpt><trkpt lat="35.17038075284662" lon="-5.2725807020530775"><ele>557.0</ele><time>2026-04-28T10:05:57.999Z</time></trkpt><trkpt lat="35.17039569867753" lon="-5.272482805057908"><ele>557.0</ele><time>2026-04-28T10:05:58.999Z</time></trkpt><trkpt lat="35.17041249202908" lon="-5.272387643906747"><ele>557.0</ele><time>2026-04-28T10:05:59.999Z</time></trkpt><trkpt lat="35.17043345914395" lon="-5.272289313751433"><ele>557.0</ele><time>2026-04-28T10:06:00.999Z</time></trkpt><trkpt lat="35.17045334575061" lon="-5.272195147946096"><ele>557.0</ele><time>2026-04-28T10:06:01.999Z</time></trkpt><trkpt lat="35.1704691101629" lon="-5.272108481881323"><ele>557.0</ele><time>2026-04-28T10:06:02.999Z</time></trkpt><trkpt lat="35.1704898821339" lon="-5.271971653691453"><ele>557.0</ele><time>2026-04-28T10:06:04.999Z</time></trkpt><trkpt lat="35.170487348436204" lon="-5.2718434631345765"><ele>557.8333333333333</ele><time>2026-04-28T10:06:06.999Z</time></trkpt><trkpt lat="35.1704947817074" lon="-5.27172793085185"><ele>558.6666666666666</ele><time>2026-04-28T10:06:08.999Z</time></trkpt><trkpt lat="35.170483637467164" lon="-5.2716396746533585"><ele>559.5</ele><time>2026-04-28T10:06:09.999Z</time></trkpt><trkpt lat="35.17048850728646" lon="-5.271558923220422"><ele>560.3333333333334</ele><time>2026-04-28T10:06:10.999Z</time></trkpt><trkpt lat="35.17049371705463" lon="-5.271472535190259"><ele>561.1666666666667</ele><time>2026-04-28T10:06:11.999Z</time></trkpt><trkpt lat="35.170493439821826" lon="-5.271378417142951"><ele>562.0</ele><time>2026-04-28T10:06:12.999Z</time></trkpt><trkpt lat="35.17049827001901" lon="-5.2712782267888265"><ele>562.0</ele><time>2026-04-28T10:06:13.999Z</time></trkpt><trkpt lat="35.17050304101358" lon="-5.271179263880649"><ele>562.0</ele><time>2026-04-28T10:06:14.999Z</time></trkpt><trkpt lat="35.17049468629392" lon="-5.271101187959457"><ele>562.0</ele><time>2026-04-28T10:06:15.999Z</time></trkpt><trkpt lat="35.17048989937249" lon="-5.271003752387504"><ele>562.0</ele><time>2026-04-28T10:06:16.999Z</time></trkpt><trkpt lat="35.17048508107127" lon="-5.270905676404325"><ele>562.0</ele><time>2026-04-28T10:06:17.999Z</time></trkpt><trkpt lat="35.17043682108828" lon="-5.27075827586732"><ele>562.0</ele><time>2026-04-28T10:06:19.999Z</time></trkpt><trkpt lat="35.17034180170289" lon="-5.2707024122967"><ele>562.0</ele><time>2026-04-28T10:06:21.999Z</time></trkpt><trkpt lat="35.170305804442826" lon="-5.2706260031045185"><ele>562.0</ele><time>2026-04-28T10:06:22.999Z</time></trkpt><trkpt lat="35.170348722359066" lon="-5.270346871722729"><ele>562.0</ele><time>2026-04-28T10:06:23.999Z</time></trkpt><trkpt lat="35.170342251934834" lon="-5.270246085072271"><ele>562.0</ele><time>2026-04-28T10:06:24.999Z</time></trkpt><trkpt lat="35.170332186475946" lon="-5.270148338529604"><ele>564.6666666666667</ele><time>2026-04-28T10:06:25.999Z</time></trkpt><trkpt lat="35.17033058505321" lon="-5.270042756602419"><ele>567.3333333333334</ele><time>2026-04-28T10:06:26.999Z</time></trkpt><trkpt lat="35.170634880832594" lon="-5.26984312391792"><ele>570.0</ele><time>2026-04-28T10:06:27.999Z</time></trkpt><trkpt lat="35.17061931487281" lon="-5.269739859667923"><ele>571.3333333333334</ele><time>2026-04-28T10:06:28.999Z</time></trkpt><trkpt lat="35.17058782091866" lon="-5.269645940487248"><ele>572.6666666666666</ele><time>2026-04-28T10:06:29.999Z</time></trkpt><trkpt lat="35.17055110683705" lon="-5.269554440116267"><ele>574.0</ele><time>2026-04-28T10:06:30.999Z</time></trkpt><trkpt lat="35.1705087268673" lon="-5.269468802591585"><ele>575.3333333333333</ele><time>2026-04-28T10:06:31.999Z</time></trkpt><trkpt lat="35.17045958303793" lon="-5.269392391483374"><ele>576.6666666666666</ele><time>2026-04-28T10:06:32.999Z</time></trkpt><trkpt lat="35.17041837989692" lon="-5.269310008595812"><ele>578.0</ele><time>2026-04-28T10:06:33.999Z</time></trkpt><trkpt lat="35.1703801902067" lon="-5.269234891850014"><ele>578.0</ele><time>2026-04-28T10:06:34.999Z</time></trkpt><trkpt lat="35.170322618345864" lon="-5.269112254192285"><ele>578.0</ele><time>2026-04-28T10:06:36.999Z</time></trkpt><trkpt lat="35.17012570706195" lon="-5.269116984198202"><ele>578.0</ele><time>2026-04-28T10:06:38.999Z</time></trkpt><trkpt lat="35.17007503285218" lon="-5.269013312751513"><ele>578.0</ele><time>2026-04-28T10:06:40.999Z</time></trkpt><trkpt lat="35.17002141667758" lon="-5.268903621419024"><ele>579.0</ele><time>2026-04-28T10:06:42.999Z</time></trkpt><trkpt lat="35.16997891796053" lon="-5.268816673968036"><ele>580.0</ele><time>2026-04-28T10:06:44.999Z</time></trkpt><trkpt lat="35.169942925608964" lon="-5.268743037826807"><ele>581.0</ele><time>2026-04-28T10:06:46.999Z</time></trkpt><trkpt lat="35.16990787066667" lon="-5.26867131950046"><ele>582.0</ele><time>2026-04-28T10:06:50.999Z</time></trkpt><trkpt lat="35.16986631946496" lon="-5.268586310572756"><ele>583.0</ele><time>2026-04-28T10:06:54.999Z</time></trkpt><trkpt lat="35.16983532950685" lon="-5.268502901127917"><ele>584.0</ele><time>2026-04-28T10:06:57.999Z</time></trkpt><trkpt lat="35.169759830822294" lon="-5.268545101323927"><ele>584.0</ele><time>2026-04-28T10:06:59.999Z</time></trkpt><trkpt lat="35.16971170601271" lon="-5.268635612943636"><ele>584.0</ele><time>2026-04-28T10:07:01.999Z</time></trkpt><trkpt lat="35.169684126487944" lon="-5.268737009921429"><ele>584.0</ele><time>2026-04-28T10:07:03.999Z</time></trkpt><trkpt lat="35.16964590269743" lon="-5.268842975759088"><ele>584.0</ele><time>2026-04-28T10:07:05.999Z</time></trkpt><trkpt lat="35.169596462822014" lon="-5.268949428322839"><ele>584.0</ele><time>2026-04-28T10:07:07.999Z</time></trkpt><trkpt lat="35.16954904510514" lon="-5.269045582488153"><ele>582.4</ele><time>2026-04-28T10:07:09.999Z</time></trkpt><trkpt lat="35.16947571695222" lon="-5.269113433828211"><ele>580.8</ele><time>2026-04-28T10:07:11.999Z</time></trkpt><trkpt lat="35.169389257579304" lon="-5.269159684250747"><ele>579.2</ele><time>2026-04-28T10:07:13.999Z</time></trkpt><trkpt lat="35.169297231357696" lon="-5.269216926713619"><ele>577.6</ele><time>2026-04-28T10:07:16Z</time></trkpt><trkpt lat="35.1691955434371" lon="-5.269271681638847"><ele>576.0</ele><time>2026-04-28T10:07:18Z</time></trkpt><trkpt lat="35.1691018047475" lon="-5.269325748610169"><ele>576.4</ele><time>2026-04-28T10:07:20Z</time></trkpt><trkpt lat="35.169019133507604" lon="-5.269385835515946"><ele>576.8</ele><time>2026-04-28T10:07:22Z</time></trkpt><trkpt lat="35.16892796058662" lon="-5.269443986861526"><ele>577.1999999999999</ele><time>2026-04-28T10:07:24Z</time></trkpt><trkpt lat="35.16882370971425" lon="-5.269500709398354"><ele>577.6</ele><time>2026-04-28T10:07:26Z</time></trkpt><trkpt lat="35.16871432358745" lon="-5.269549469924224"><ele>578.0</ele><time>2026-04-28T10:07:28Z</time></trkpt><trkpt lat="35.1686522837484" lon="-5.2695681672743815"><ele>578.0</ele><time>2026-04-28T10:07:29Z</time></trkpt><trkpt lat="35.1685864844224" lon="-5.269581323107709"><ele>578.0</ele><time>2026-04-28T10:07:30Z</time></trkpt><trkpt lat="35.16852091966857" lon="-5.269583344469765"><ele>578.0</ele><time>2026-04-28T10:07:31Z</time></trkpt><trkpt lat="35.16845776879643" lon="-5.269569624793701"><ele>578.0</ele><time>2026-04-28T10:07:32Z</time></trkpt><trkpt lat="35.16839855564192" lon="-5.269541000077384"><ele>578.0</ele><time>2026-04-28T10:07:33Z</time></trkpt><trkpt lat="35.16834174007762" lon="-5.269505280966415"><ele>578.0</ele><time>2026-04-28T10:07:34Z</time></trkpt><trkpt lat="35.168242755046954" lon="-5.269436210802897"><ele>578.0</ele><time>2026-04-28T10:07:36Z</time></trkpt><trkpt lat="35.168169203644844" lon="-5.2693638403885625"><ele>577.8</ele><time>2026-04-28T10:07:38Z</time></trkpt><trkpt lat="35.16810822516172" lon="-5.2692730348740815"><ele>577.5999999999999</ele><time>2026-04-28T10:07:40Z</time></trkpt><trkpt lat="35.16806041008166" lon="-5.2691619918604715"><ele>577.4000000000001</ele><time>2026-04-28T10:07:42Z</time></trkpt><trkpt lat="35.168023120269496" lon="-5.269051421399565"><ele>577.2</ele><time>2026-04-28T10:07:44Z</time></trkpt><trkpt lat="35.16800355870951" lon="-5.268952965528471"><ele>577.0</ele><time>2026-04-28T10:07:45.999Z</time></trkpt><trkpt lat="35.16808343589506" lon="-5.268846134147841"><ele>577.0</ele><time>2026-04-28T10:07:48.999Z</time></trkpt><trkpt lat="35.16817500586242" lon="-5.268787232217654"><ele>577.0</ele><time>2026-04-28T10:07:50.999Z</time></trkpt><trkpt lat="35.16826694708471" lon="-5.26871493863444"><ele>577.0</ele><time>2026-04-28T10:07:52.999Z</time></trkpt><trkpt lat="35.168360315752686" lon="-5.268658835756465"><ele>577.0</ele><time>2026-04-28T10:07:54.999Z</time></trkpt><trkpt lat="35.16842485108828" lon="-5.268608642694836"><ele>577.0</ele><time>2026-04-28T10:07:56.999Z</time></trkpt><trkpt lat="35.168465329571646" lon="-5.268546022923796"><ele>577.8333333333334</ele><time>2026-04-28T10:08:06.999Z</time></trkpt><trkpt lat="35.1684490194085" lon="-5.26841964363526"><ele>578.6666666666667</ele><time>2026-04-28T10:08:08.999Z</time></trkpt><trkpt lat="35.16843964996045" lon="-5.26831978454464"><ele>579.5</ele><time>2026-04-28T10:08:10.999Z</time></trkpt><trkpt lat="35.16845960063625" lon="-5.268209404747519"><ele>580.3333333333334</ele><time>2026-04-28T10:08:12.999Z</time></trkpt><trkpt lat="35.16849996642845" lon="-5.268103621303231"><ele>581.1666666666666</ele><time>2026-04-28T10:08:14.999Z</time></trkpt><trkpt lat="35.16854227191826" lon="-5.2680346332748895"><ele>582.0</ele><time>2026-04-28T10:08:16.999Z</time></trkpt><trkpt lat="35.16859184645551" lon="-5.2679848528635835"><ele>582.4</ele><time>2026-04-28T10:08:29.999Z</time></trkpt><trkpt lat="35.16864878733884" lon="-5.267926578041926"><ele>582.8000000000001</ele><time>2026-04-28T10:08:33.999Z</time></trkpt><trkpt lat="35.16867371867511" lon="-5.267806403196736"><ele>583.2</ele><time>2026-04-28T10:08:36.999Z</time></trkpt><trkpt lat="35.16864103936636" lon="-5.26768483810166"><ele>583.6</ele><time>2026-04-28T10:08:38.999Z</time></trkpt><trkpt lat="35.16861444448923" lon="-5.267573875902657"><ele>584.0</ele><time>2026-04-28T10:08:40.999Z</time></trkpt><trkpt lat="35.16859607116282" lon="-5.267445957300297"><ele>584.0</ele><time>2026-04-28T10:08:42.999Z</time></trkpt><trkpt lat="35.1685719750426" lon="-5.267297868286884"><ele>584.0</ele><time>2026-04-28T10:08:44.999Z</time></trkpt><trkpt lat="35.168546105310796" lon="-5.2671536656662346"><ele>584.0</ele><time>2026-04-28T10:08:46.999Z</time></trkpt><trkpt lat="35.1685153815038" lon="-5.26700488830977"><ele>584.0</ele><time>2026-04-28T10:08:48.999Z</time></trkpt><trkpt lat="35.16850107901199" lon="-5.266926392946267"><ele>584.0</ele><time>2026-04-28T10:08:49.999Z</time></trkpt><trkpt lat="35.16848788079862" lon="-5.266845067535492"><ele>584.0</ele><time>2026-04-28T10:08:50.999Z</time></trkpt><trkpt lat="35.168472666488746" lon="-5.266762933149159"><ele>584.0</ele><time>2026-04-28T10:08:51.999Z</time></trkpt><trkpt lat="35.16845776090555" lon="-5.26667761787494"><ele>584.0</ele><time>2026-04-28T10:08:52.999Z</time></trkpt><trkpt lat="35.16844490738185" lon="-5.266591751225144"><ele>584.0</ele><time>2026-04-28T10:08:53.999Z</time></trkpt><trkpt lat="35.16843275286622" lon="-5.266502355990035"><ele>584.0</ele><time>2026-04-28T10:08:54.999Z</time></trkpt><trkpt lat="35.168401162766465" lon="-5.266417405145607"><ele>584.0</ele><time>2026-04-28T10:08:55.999Z</time></trkpt><trkpt lat="35.16838530208947" lon="-5.266328159207366"><ele>584.0</ele><time>2026-04-28T10:08:56.999Z</time></trkpt><trkpt lat="35.16836967232655" lon="-5.26624021271561"><ele>584.8333333333333</ele><time>2026-04-28T10:08:57.999Z</time></trkpt><trkpt lat="35.16836518972379" lon="-5.266144440666621"><ele>585.6666666666666</ele><time>2026-04-28T10:08:58.999Z</time></trkpt><trkpt lat="35.16834961056738" lon="-5.266056580505669"><ele>586.5</ele><time>2026-04-28T10:08:59.999Z</time></trkpt><trkpt lat="35.168333588238525" lon="-5.2659704290536515"><ele>587.3333333333334</ele><time>2026-04-28T10:09:00.999Z</time></trkpt><trkpt lat="35.16831641330781" lon="-5.2658940630575"><ele>588.1666666666667</ele><time>2026-04-28T10:09:01.999Z</time></trkpt><trkpt lat="35.16829775540521" lon="-5.2658187385930875"><ele>589.0</ele><time>2026-04-28T10:09:02.999Z</time></trkpt><trkpt lat="35.16826764644788" lon="-5.265679957277102"><ele>589.8</ele><time>2026-04-28T10:09:04.999Z</time></trkpt><trkpt lat="35.16824032536173" lon="-5.265564545844327"><ele>590.5999999999999</ele><time>2026-04-28T10:09:06.999Z</time></trkpt><trkpt lat="35.16817734675055" lon="-5.265469513785645"><ele>591.4</ele><time>2026-04-28T10:09:08.999Z</time></trkpt><trkpt lat="35.168127111435254" lon="-5.265347028135424"><ele>592.1999999999999</ele><time>2026-04-28T10:09:10.999Z</time></trkpt><trkpt lat="35.16808850678325" lon="-5.265252900691776"><ele>593.0</ele><time>2026-04-28T10:09:12.999Z</time></trkpt><trkpt lat="35.168064823965324" lon="-5.265160207783289"><ele>591.3333333333333</ele><time>2026-04-28T10:09:14.999Z</time></trkpt><trkpt lat="35.16801263850668" lon="-5.265113631307515"><ele>589.6666666666666</ele><time>2026-04-28T10:09:16.999Z</time></trkpt><trkpt lat="35.16795154745291" lon="-5.265081727215674"><ele>588.0</ele><time>2026-04-28T10:09:18.999Z</time></trkpt><trkpt lat="35.16789840645186" lon="-5.265032517159105"><ele>586.3333333333334</ele><time>2026-04-28T10:09:23Z</time></trkpt><trkpt lat="35.16782024287163" lon="-5.26500148528261"><ele>584.6666666666667</ele><time>2026-04-28T10:09:26Z</time></trkpt><trkpt lat="35.16775887583369" lon="-5.265086726548279"><ele>583.0</ele><time>2026-04-28T10:09:27Z</time></trkpt><trkpt lat="35.167666992048545" lon="-5.265180423276459"><ele>583.0000000000001</ele><time>2026-04-28T10:09:29Z</time></trkpt><trkpt lat="35.16760781575545" lon="-5.2652399746590826"><ele>583.0</ele><time>2026-04-28T10:09:30Z</time></trkpt><trkpt lat="35.167551009478586" lon="-5.265304096838682"><ele>583.0</ele><time>2026-04-28T10:09:31Z</time></trkpt><trkpt lat="35.16748901863229" lon="-5.265350106866645"><ele>583.0</ele><time>2026-04-28T10:09:32Z</time></trkpt><trkpt lat="35.16743253271309" lon="-5.265407214507269"><ele>583.0</ele><time>2026-04-28T10:09:33Z</time></trkpt><trkpt lat="35.1673777302353" lon="-5.265462615527879"><ele>583.0000000000001</ele><time>2026-04-28T10:09:34Z</time></trkpt><trkpt lat="35.16732861619633" lon="-5.265512266071516"><ele>583.0</ele><time>2026-04-28T10:09:35Z</time></trkpt><trkpt lat="35.16727938820599" lon="-5.2655618432502616"><ele>582.1999999999999</ele><time>2026-04-28T10:09:36Z</time></trkpt><trkpt lat="35.16720306341126" lon="-5.265660867060642"><ele>581.4</ele><time>2026-04-28T10:09:38Z</time></trkpt><trkpt lat="35.16714478830863" lon="-5.265715650509084"><ele>580.5999999999999</ele><time>2026-04-28T10:09:40Z</time></trkpt><trkpt lat="35.1670786637904" lon="-5.265781709909617"><ele>579.8</ele><time>2026-04-28T10:09:43Z</time></trkpt><trkpt lat="35.16699153713369" lon="-5.265775937651119"><ele>579.0</ele><time>2026-04-28T10:09:45.999Z</time></trkpt><trkpt lat="35.16689397876483" lon="-5.2657199218569035"><ele>579.0</ele><time>2026-04-28T10:09:47.999Z</time></trkpt><trkpt lat="35.16682843654143" lon="-5.26570153288324"><ele>579.0</ele><time>2026-04-28T10:09:48.999Z</time></trkpt><trkpt lat="35.16676226958992" lon="-5.265684414325807"><ele>579.0</ele><time>2026-04-28T10:09:49.999Z</time></trkpt><trkpt lat="35.16664575329908" lon="-5.265650722647622"><ele>579.0</ele><time>2026-04-28T10:09:51.999Z</time></trkpt><trkpt lat="35.16654809350331" lon="-5.265592064933058"><ele>579.0</ele><time>2026-04-28T10:09:53.999Z</time></trkpt><trkpt lat="35.16649415626142" lon="-5.26548915765425"><ele>577.6</ele><time>2026-04-28T10:09:55.999Z</time></trkpt><trkpt lat="35.166476407993926" lon="-5.265345743470339"><ele>576.2</ele><time>2026-04-28T10:09:57.999Z</time></trkpt><trkpt lat="35.1664680320625" lon="-5.265265361291084"><ele>574.8000000000001</ele><time>2026-04-28T10:09:58.999Z</time></trkpt><trkpt lat="35.1664613495487" lon="-5.265187655906539"><ele>573.4</ele><time>2026-04-28T10:09:59.999Z</time></trkpt><trkpt lat="35.166440475958375" lon="-5.265044521501043"><ele>572.0</ele><time>2026-04-28T10:10:01.999Z</time></trkpt><trkpt lat="35.16642319972537" lon="-5.264896284182609"><ele>570.0</ele><time>2026-04-28T10:10:03.999Z</time></trkpt><trkpt lat="35.16640751065149" lon="-5.2647563129443204"><ele>568.0</ele><time>2026-04-28T10:10:05.999Z</time></trkpt><trkpt lat="35.16639343996334" lon="-5.264630391872724"><ele>566.0</ele><time>2026-04-28T10:10:07.999Z</time></trkpt><trkpt lat="35.16638511700771" lon="-5.264545995082032"><ele>564.0</ele><time>2026-04-28T10:10:09.999Z</time></trkpt><trkpt lat="35.16637331804702" lon="-5.264428008134227"><ele>562.0</ele><time>2026-04-28T10:10:11.999Z</time></trkpt><trkpt lat="35.16636507512504" lon="-5.264346114152147"><ele>562.0</ele><time>2026-04-28T10:10:12.999Z</time></trkpt><trkpt lat="35.166372044224474" lon="-5.264262493078416"><ele>562.0</ele><time>2026-04-28T10:10:13.999Z</time></trkpt><trkpt lat="35.16635992195728" lon="-5.264168616702696"><ele>562.0</ele><time>2026-04-28T10:10:14.999Z</time></trkpt><trkpt lat="35.16634571812308" lon="-5.264071341032538"><ele>562.0</ele><time>2026-04-28T10:10:15.999Z</time></trkpt><trkpt lat="35.16633732774401" lon="-5.263977734580997"><ele>562.0</ele><time>2026-04-28T10:10:16.999Z</time></trkpt><trkpt lat="35.16632901519981" lon="-5.263878741073366"><ele>562.0</ele><time>2026-04-28T10:10:17.999Z</time></trkpt><trkpt lat="35.16631691973609" lon="-5.263787618910046"><ele>560.8571428571429</ele><time>2026-04-28T10:10:18.999Z</time></trkpt><trkpt lat="35.166313807001806" lon="-5.263696656520102"><ele>559.7142857142858</ele><time>2026-04-28T10:10:19.999Z</time></trkpt><trkpt lat="35.16628753280659" lon="-5.263616029680378"><ele>558.5714285714286</ele><time>2026-04-28T10:10:20.999Z</time></trkpt><trkpt lat="35.1662895574546" lon="-5.263524276570315"><ele>557.4285714285714</ele><time>2026-04-28T10:10:21.999Z</time></trkpt><trkpt lat="35.166277317134764" lon="-5.263438366543172"><ele>556.2857142857142</ele><time>2026-04-28T10:10:22.999Z</time></trkpt><trkpt lat="35.166267992839344" lon="-5.263353372656765"><ele>555.1428571428571</ele><time>2026-04-28T10:10:23.999Z</time></trkpt><trkpt lat="35.16626366981521" lon="-5.26326830229781"><ele>554.0</ele><time>2026-04-28T10:10:24.999Z</time></trkpt><trkpt lat="35.16625628268304" lon="-5.263183860849961"><ele>553.7142857142857</ele><time>2026-04-28T10:10:25.999Z</time></trkpt><trkpt lat="35.166233378862835" lon="-5.263104682654229"><ele>553.4285714285713</ele><time>2026-04-28T10:10:26.999Z</time></trkpt><trkpt lat="35.16624016873025" lon="-5.263015508343254"><ele>553.1428571428571</ele><time>2026-04-28T10:10:27.999Z</time></trkpt><trkpt lat="35.1662316347088" lon="-5.262936732299968"><ele>552.8571428571429</ele><time>2026-04-28T10:10:28.999Z</time></trkpt><trkpt lat="35.166219420954356" lon="-5.262852126374689"><ele>552.5714285714287</ele><time>2026-04-28T10:10:29.999Z</time></trkpt><trkpt lat="35.16621046247994" lon="-5.262772641010963"><ele>552.2857142857143</ele><time>2026-04-28T10:10:30.999Z</time></trkpt><trkpt lat="35.16619890516195" lon="-5.262691934642297"><ele>552.0</ele><time>2026-04-28T10:10:31.999Z</time></trkpt><trkpt lat="35.16617586348074" lon="-5.262614669920453"><ele>552.0</ele><time>2026-04-28T10:10:32.999Z</time></trkpt><trkpt lat="35.166144814926795" lon="-5.26254387906441"><ele>552.0</ele><time>2026-04-28T10:10:33.999Z</time></trkpt><trkpt lat="35.166111337066205" lon="-5.262473650058873"><ele>552.0</ele><time>2026-04-28T10:10:34.999Z</time></trkpt><trkpt lat="35.16606001996259" lon="-5.262411619944584"><ele>552.0</ele><time>2026-04-28T10:10:35.999Z</time></trkpt><trkpt lat="35.166009233128065" lon="-5.262354950684576"><ele>552.0</ele><time>2026-04-28T10:10:36.999Z</time></trkpt><trkpt lat="35.165948304824354" lon="-5.262309117936708"><ele>552.0</ele><time>2026-04-28T10:10:37.999Z</time></trkpt><trkpt lat="35.165877281550046" lon="-5.262268843010823"><ele>552.0</ele><time>2026-04-28T10:10:38.999Z</time></trkpt><trkpt lat="35.165805814469735" lon="-5.262220124710528"><ele>551.6666666666666</ele><time>2026-04-28T10:10:39.999Z</time></trkpt><trkpt lat="35.16573198028072" lon="-5.262187703327611"><ele>551.3333333333334</ele><time>2026-04-28T10:10:40.999Z</time></trkpt><trkpt lat="35.165662412524995" lon="-5.2621444246136955"><ele>551.0</ele><time>2026-04-28T10:10:41.999Z</time></trkpt><trkpt lat="35.16558945664087" lon="-5.262095184158311"><ele>550.6666666666667</ele><time>2026-04-28T10:10:42.999Z</time></trkpt><trkpt lat="35.165507441160244" lon="-5.2620515645275345"><ele>550.3333333333334</ele><time>2026-04-28T10:10:43.999Z</time></trkpt><trkpt lat="35.16542491229297" lon="-5.262010544763607"><ele>550.0</ele><time>2026-04-28T10:10:44.999Z</time></trkpt><trkpt lat="35.165345620994394" lon="-5.261972556586019"><ele>550.0</ele><time>2026-04-28T10:10:45.999Z</time></trkpt><trkpt lat="35.16526899274157" lon="-5.2619381452467335"><ele>550.0</ele><time>2026-04-28T10:10:46.999Z</time></trkpt><trkpt lat="35.16519905557575" lon="-5.26190330438593"><ele>550.0</ele><time>2026-04-28T10:10:47.999Z</time></trkpt><trkpt lat="35.16513140730036" lon="-5.261867687146536"><ele>550.0</ele><time>2026-04-28T10:10:48.999Z</time></trkpt><trkpt lat="35.16506491251806" lon="-5.261831781642037"><ele>550.0</ele><time>2026-04-28T10:10:49.999Z</time></trkpt><trkpt lat="35.164997215065554" lon="-5.2617973358719725"><ele>550.0</ele><time>2026-04-28T10:10:50.999Z</time></trkpt><trkpt lat="35.16492826795679" lon="-5.261761713691491"><ele>551.0</ele><time>2026-04-28T10:10:51.999Z</time></trkpt><trkpt lat="35.16485912943664" lon="-5.2617219669878414"><ele>552.0</ele><time>2026-04-28T10:10:52.999Z</time></trkpt><trkpt lat="35.164788903179385" lon="-5.261679308698437"><ele>553.0</ele><time>2026-04-28T10:10:53.999Z</time></trkpt><trkpt lat="35.1647124642674" lon="-5.261635013230984"><ele>554.0</ele><time>2026-04-28T10:10:54.999Z</time></trkpt><trkpt lat="35.16463225456342" lon="-5.261597247033202"><ele>555.0</ele><time>2026-04-28T10:10:55.999Z</time></trkpt><trkpt lat="35.16454308676836" lon="-5.261571415531682"><ele>556.0</ele><time>2026-04-28T10:10:56.999Z</time></trkpt><trkpt lat="35.1644480724172" lon="-5.261561310243327"><ele>556.0</ele><time>2026-04-28T10:10:57.999Z</time></trkpt><trkpt lat="35.16434954986907" lon="-5.26155493796459"><ele>556.0</ele><time>2026-04-28T10:10:58.999Z</time></trkpt><trkpt lat="35.16424730729292" lon="-5.261544415945421"><ele>556.0</ele><time>2026-04-28T10:10:59.999Z</time></trkpt><trkpt lat="35.16414325868709" lon="-5.261524855379879"><ele>556.0</ele><time>2026-04-28T10:11:00.999Z</time></trkpt><trkpt lat="35.164036578249956" lon="-5.261487126709103"><ele>556.0</ele><time>2026-04-28T10:11:01.999Z</time></trkpt><trkpt lat="35.163929816670205" lon="-5.261443303312278"><ele>559.5</ele><time>2026-04-28T10:11:02.999Z</time></trkpt><trkpt lat="35.16382207337467" lon="-5.261394906138189"><ele>563.0</ele><time>2026-04-28T10:11:03.999Z</time></trkpt><trkpt lat="35.16371400200257" lon="-5.261344984795671"><ele>566.5</ele><time>2026-04-28T10:11:04.999Z</time></trkpt><trkpt lat="35.16360510563" lon="-5.261291490730428"><ele>570.0</ele><time>2026-04-28T10:11:05.999Z</time></trkpt><trkpt lat="35.16349587038286" lon="-5.261236683739542"><ele>570.0</ele><time>2026-04-28T10:11:06.999Z</time></trkpt><trkpt lat="35.16338374313423" lon="-5.261181252474783"><ele>570.0</ele><time>2026-04-28T10:11:07.999Z</time></trkpt><trkpt lat="35.16326984165993" lon="-5.2611284575446415"><ele>570.0</ele><time>2026-04-28T10:11:08.999Z</time></trkpt><trkpt lat="35.16315589421268" lon="-5.261093326444452"><ele>570.0</ele><time>2026-04-28T10:11:09.999Z</time></trkpt><trkpt lat="35.16304377683352" lon="-5.261083117785746"><ele>571.2</ele><time>2026-04-28T10:11:10.999Z</time></trkpt><trkpt lat="35.1629323519356" lon="-5.261105670547381"><ele>572.4</ele><time>2026-04-28T10:11:11.999Z</time></trkpt><trkpt lat="35.16282593442783" lon="-5.261150485861673"><ele>573.6</ele><time>2026-04-28T10:11:12.999Z</time></trkpt><trkpt lat="35.16273159158313" lon="-5.261216444567949"><ele>574.8</ele><time>2026-04-28T10:11:13.999Z</time></trkpt><trkpt lat="35.162657345815234" lon="-5.261300573734529"><ele>576.0</ele><time>2026-04-28T10:11:14.999Z</time></trkpt><trkpt lat="35.16260535312607" lon="-5.2613982029081585"><ele>576.1666666666666</ele><time>2026-04-28T10:11:15.999Z</time></trkpt><trkpt lat="35.16257059235146" lon="-5.261505718446297"><ele>576.3333333333334</ele><time>2026-04-28T10:11:16.999Z</time></trkpt><trkpt lat="35.162533149107006" lon="-5.2615923635779716"><ele>576.5</ele><time>2026-04-28T10:11:17.999Z</time></trkpt><trkpt lat="35.16247659017792" lon="-5.261660979404764"><ele>576.6666666666667</ele><time>2026-04-28T10:11:18.999Z</time></trkpt><trkpt lat="35.16240203261489" lon="-5.261713221425902"><ele>576.8333333333334</ele><time>2026-04-28T10:11:19.999Z</time></trkpt><trkpt lat="35.16232232800137" lon="-5.261745215124278"><ele>577.0</ele><time>2026-04-28T10:11:20.999Z</time></trkpt><trkpt lat="35.16223961579707" lon="-5.261768185831219"><ele>577.0</ele><time>2026-04-28T10:11:21.999Z</time></trkpt><trkpt lat="35.16215600608264" lon="-5.261782253419101"><ele>577.0</ele><time>2026-04-28T10:11:22.999Z</time></trkpt><trkpt lat="35.16207177440856" lon="-5.261793253037333"><ele>577.0</ele><time>2026-04-28T10:11:23.999Z</time></trkpt><trkpt lat="35.16199389922649" lon="-5.261801544374255"><ele>577.0</ele><time>2026-04-28T10:11:24.999Z</time></trkpt><trkpt lat="35.161917417797824" lon="-5.261807747890319"><ele>577.0</ele><time>2026-04-28T10:11:26Z</time></trkpt><trkpt lat="35.16183822347387" lon="-5.261804587217651"><ele>577.0</ele><time>2026-04-28T10:11:27Z</time></trkpt><trkpt lat="35.161753907231216" lon="-5.261801388942975"><ele>577.0</ele><time>2026-04-28T10:11:28Z</time></trkpt><trkpt lat="35.16166235880877" lon="-5.261800949751251"><ele>577.0</ele><time>2026-04-28T10:11:29Z</time></trkpt><trkpt lat="35.16155992503816" lon="-5.261801244169868"><ele>577.0</ele><time>2026-04-28T10:11:30Z</time></trkpt><trkpt lat="35.16145087041943" lon="-5.261811518786559"><ele>577.0</ele><time>2026-04-28T10:11:31Z</time></trkpt><trkpt lat="35.1613397689534" lon="-5.261825526853285"><ele>577.0</ele><time>2026-04-28T10:11:32Z</time></trkpt><trkpt lat="35.16122681331315" lon="-5.261848357644325"><ele>578.8000000000001</ele><time>2026-04-28T10:11:33Z</time></trkpt><trkpt lat="35.1611144332148" lon="-5.261885811080819"><ele>580.6</ele><time>2026-04-28T10:11:34Z</time></trkpt><trkpt lat="35.16100763158839" lon="-5.261928367913677"><ele>582.4000000000001</ele><time>2026-04-28T10:11:35Z</time></trkpt><trkpt lat="35.16091341091864" lon="-5.261965808452621"><ele>584.2</ele><time>2026-04-28T10:11:36Z</time></trkpt><trkpt lat="35.16083385863153" lon="-5.26199287387148"><ele>586.0</ele><time>2026-04-28T10:11:37Z</time></trkpt><trkpt lat="35.16076293610206" lon="-5.262009839453743"><ele>586.6666666666667</ele><time>2026-04-28T10:11:38Z</time></trkpt><trkpt lat="35.16068935998179" lon="-5.262018294270416"><ele>587.3333333333334</ele><time>2026-04-28T10:11:39Z</time></trkpt><trkpt lat="35.16061401635425" lon="-5.262012374443987"><ele>588.0</ele><time>2026-04-28T10:11:40Z</time></trkpt><trkpt lat="35.16053612607308" lon="-5.261984963604711"><ele>588.6666666666666</ele><time>2026-04-28T10:11:41Z</time></trkpt><trkpt lat="35.16045799513888" lon="-5.26194627243843"><ele>589.3333333333333</ele><time>2026-04-28T10:11:42Z</time></trkpt><trkpt lat="35.16038166775906" lon="-5.261890319932259"><ele>590.0</ele><time>2026-04-28T10:11:43Z</time></trkpt><trkpt lat="35.160296903853556" lon="-5.261817368353639"><ele>590.0</ele><time>2026-04-28T10:11:44Z</time></trkpt><trkpt lat="35.16019243988162" lon="-5.26175504017995"><ele>590.0</ele><time>2026-04-28T10:11:45Z</time></trkpt><trkpt lat="35.160074086081345" lon="-5.261697864866545"><ele>590.0</ele><time>2026-04-28T10:11:46Z</time></trkpt><trkpt lat="35.15996171646271" lon="-5.261658283253266"><ele>590.0</ele><time>2026-04-28T10:11:47Z</time></trkpt><trkpt lat="35.159871422535026" lon="-5.261636491392113"><ele>590.1428571428572</ele><time>2026-04-28T10:11:48Z</time></trkpt><trkpt lat="35.15978987636938" lon="-5.261629387923098"><ele>590.2857142857143</ele><time>2026-04-28T10:11:49Z</time></trkpt><trkpt lat="35.159711032917556" lon="-5.261638157340468"><ele>590.4285714285714</ele><time>2026-04-28T10:11:49.999Z</time></trkpt><trkpt lat="35.159635460330264" lon="-5.261648192359034"><ele>590.5714285714287</ele><time>2026-04-28T10:11:50.999Z</time></trkpt><trkpt lat="35.159566903257925" lon="-5.261646551630487"><ele>590.7142857142858</ele><time>2026-04-28T10:11:51.999Z</time></trkpt><trkpt lat="35.15950139524819" lon="-5.261640949426229"><ele>590.8571428571429</ele><time>2026-04-28T10:11:52.999Z</time></trkpt><trkpt lat="35.159432382498615" lon="-5.2616306959354135"><ele>591.0</ele><time>2026-04-28T10:11:53.999Z</time></trkpt><trkpt lat="35.159358181071596" lon="-5.26161485092947"><ele>591.0</ele><time>2026-04-28T10:11:54.999Z</time></trkpt><trkpt lat="35.1592810899104" lon="-5.261589224754297"><ele>591.0</ele><time>2026-04-28T10:11:55.999Z</time></trkpt><trkpt lat="35.159200456571426" lon="-5.261553794367896"><ele>591.0</ele><time>2026-04-28T10:11:56.999Z</time></trkpt><trkpt lat="35.15911247616481" lon="-5.261511399164959"><ele>591.0</ele><time>2026-04-28T10:11:57.999Z</time></trkpt><trkpt lat="35.15901057633266" lon="-5.2614590529681315"><ele>591.0</ele><time>2026-04-28T10:11:58.999Z</time></trkpt><trkpt lat="35.15891578476583" lon="-5.261415889841252"><ele>591.1666666666666</ele><time>2026-04-28T10:11:59.999Z</time></trkpt><trkpt lat="35.15883041564018" lon="-5.261379602669413"><ele>591.3333333333334</ele><time>2026-04-28T10:12:00.999Z</time></trkpt><trkpt lat="35.15874488690309" lon="-5.261368117218212"><ele>591.5</ele><time>2026-04-28T10:12:01.999Z</time></trkpt><trkpt lat="35.158664238055266" lon="-5.261393118647775"><ele>591.6666666666667</ele><time>2026-04-28T10:12:02.999Z</time></trkpt><trkpt lat="35.15859102656161" lon="-5.261438110823843"><ele>591.8333333333334</ele><time>2026-04-28T10:12:03.999Z</time></trkpt><trkpt lat="35.15852424943732" lon="-5.261492884432508"><ele>592.0</ele><time>2026-04-28T10:12:04.999Z</time></trkpt><trkpt lat="35.158462699131235" lon="-5.261540994906368"><ele>592.0</ele><time>2026-04-28T10:12:05.999Z</time></trkpt><trkpt lat="35.15839803605236" lon="-5.261581021250791"><ele>592.0</ele><time>2026-04-28T10:12:06.999Z</time></trkpt><trkpt lat="35.15833609119066" lon="-5.2616178654834735"><ele>592.0</ele><time>2026-04-28T10:12:07.999Z</time></trkpt><trkpt lat="35.158233379879576" lon="-5.2616827262749455"><ele>592.0</ele><time>2026-04-28T10:12:09.999Z</time></trkpt><trkpt lat="35.15812956098457" lon="-5.261745592146816"><ele>592.0</ele><time>2026-04-28T10:12:11.999Z</time></trkpt><trkpt lat="35.158063657619344" lon="-5.2617837760561175"><ele>592.0</ele><time>2026-04-28T10:12:12.999Z</time></trkpt><trkpt lat="35.15799369716029" lon="-5.261819765278732"><ele>593.1666666666667</ele><time>2026-04-28T10:12:13.999Z</time></trkpt><trkpt lat="35.157917056061365" lon="-5.26185735563502"><ele>594.3333333333334</ele><time>2026-04-28T10:12:14.999Z</time></trkpt><trkpt lat="35.157839093946414" lon="-5.26189630266342"><ele>595.5</ele><time>2026-04-28T10:12:15.999Z</time></trkpt><trkpt lat="35.15776461044424" lon="-5.261928904868525"><ele>596.6666666666666</ele><time>2026-04-28T10:12:16.999Z</time></trkpt><trkpt lat="35.15770039215178" lon="-5.2619511856919505"><ele>597.8333333333333</ele><time>2026-04-28T10:12:17.999Z</time></trkpt><trkpt lat="35.157633693757006" lon="-5.261969310131252"><ele>599.0</ele><time>2026-04-28T10:12:18.999Z</time></trkpt><trkpt lat="35.15756163755219" lon="-5.2619907884707615"><ele>599.0</ele><time>2026-04-28T10:12:19.999Z</time></trkpt><trkpt lat="35.15748130987471" lon="-5.262014774629876"><ele>599.0</ele><time>2026-04-28T10:12:20.999Z</time></trkpt><trkpt lat="35.15739918989365" lon="-5.262048614229366"><ele>599.0</ele><time>2026-04-28T10:12:21.999Z</time></trkpt><trkpt lat="35.1573176195189" lon="-5.262081294633019"><ele>599.0</ele><time>2026-04-28T10:12:22.999Z</time></trkpt><trkpt lat="35.157235995122846" lon="-5.262123572699913"><ele>599.0</ele><time>2026-04-28T10:12:23.999Z</time></trkpt><trkpt lat="35.15716081816425" lon="-5.262182534797612"><ele>599.0</ele><time>2026-04-28T10:12:24.999Z</time></trkpt><trkpt lat="35.15709602635373" lon="-5.262258303312963"><ele>598.4</ele><time>2026-04-28T10:12:25.999Z</time></trkpt><trkpt lat="35.1570426099618" lon="-5.262348164893806"><ele>597.8</ele><time>2026-04-28T10:12:26.999Z</time></trkpt><trkpt lat="35.156998826453865" lon="-5.262448478955238"><ele>597.2</ele><time>2026-04-28T10:12:27.999Z</time></trkpt><trkpt lat="35.15695936717736" lon="-5.262552335078844"><ele>596.6</ele><time>2026-04-28T10:12:28.999Z</time></trkpt><trkpt lat="35.15692160997932" lon="-5.262652301088245"><ele>596.0</ele><time>2026-04-28T10:12:29.999Z</time></trkpt><trkpt lat="35.15688407429571" lon="-5.2627493128614855"><ele>596.0</ele><time>2026-04-28T10:12:30.999Z</time></trkpt><trkpt lat="35.156846951818025" lon="-5.262844511542506"><ele>596.0</ele><time>2026-04-28T10:12:31.999Z</time></trkpt><trkpt lat="35.15681004890213" lon="-5.262932100917228"><ele>596.0</ele><time>2026-04-28T10:12:32.999Z</time></trkpt><trkpt lat="35.156766961721345" lon="-5.263021405458316"><ele>596.0</ele><time>2026-04-28T10:12:33.999Z</time></trkpt><trkpt lat="35.156719991763715" lon="-5.263097947167173"><ele>596.0</ele><time>2026-04-28T10:12:34.999Z</time></trkpt><trkpt lat="35.15666929142758" lon="-5.263169825830923"><ele>596.0</ele><time>2026-04-28T10:12:35.999Z</time></trkpt><trkpt lat="35.15661770746347" lon="-5.263244257680231"><ele>596.5</ele><time>2026-04-28T10:12:36.999Z</time></trkpt><trkpt lat="35.1565596185533" lon="-5.2633215499441635"><ele>597.0</ele><time>2026-04-28T10:12:37.999Z</time></trkpt><trkpt lat="35.15649912265012" lon="-5.263403118391314"><ele>597.5</ele><time>2026-04-28T10:12:38.999Z</time></trkpt><trkpt lat="35.1564343737167" lon="-5.2634851824397995"><ele>598.0</ele><time>2026-04-28T10:12:39.999Z</time></trkpt><trkpt lat="35.156367748773484" lon="-5.263549722915181"><ele>598.5</ele><time>2026-04-28T10:12:40.999Z</time></trkpt><trkpt lat="35.15629757073912" lon="-5.263590601172032"><ele>599.0</ele><time>2026-04-28T10:12:41.999Z</time></trkpt><trkpt lat="35.156216403734966" lon="-5.2635975022232495"><ele>599.0</ele><time>2026-04-28T10:12:42.999Z</time></trkpt><trkpt lat="35.15616139477326" lon="-5.263652897970149"><ele>599.0</ele><time>2026-04-28T10:12:43.999Z</time></trkpt><trkpt lat="35.15609612177976" lon="-5.263685629120198"><ele>599.0</ele><time>2026-04-28T10:12:44.999Z</time></trkpt><trkpt lat="35.1560263133138" lon="-5.263721834237128"><ele>599.0</ele><time>2026-04-28T10:12:45.999Z</time></trkpt><trkpt lat="35.155954887190994" lon="-5.263757996310063"><ele>599.0</ele><time>2026-04-28T10:12:46.999Z</time></trkpt><trkpt lat="35.15588835238113" lon="-5.263793857749434"><ele>599.0</ele><time>2026-04-28T10:12:47.999Z</time></trkpt><trkpt lat="35.155814553303394" lon="-5.263808486202075"><ele>599.0</ele><time>2026-04-28T10:12:48.999Z</time></trkpt><trkpt lat="35.15574952075395" lon="-5.263858532792823"><ele>600.8333333333333</ele><time>2026-04-28T10:12:49.999Z</time></trkpt><trkpt lat="35.155673797179105" lon="-5.263878597901154"><ele>602.6666666666666</ele><time>2026-04-28T10:12:50.999Z</time></trkpt><trkpt lat="35.15559311444991" lon="-5.263888422015339"><ele>604.5</ele><time>2026-04-28T10:12:51.999Z</time></trkpt><trkpt lat="35.15550706966564" lon="-5.263893122697628"><ele>606.3333333333334</ele><time>2026-04-28T10:12:52.999Z</time></trkpt><trkpt lat="35.155421222113645" lon="-5.263898592875046"><ele>608.1666666666667</ele><time>2026-04-28T10:12:53.999Z</time></trkpt><trkpt lat="35.15533253745597" lon="-5.263909647192856"><ele>610.0</ele><time>2026-04-28T10:12:54.999Z</time></trkpt><trkpt lat="35.15524481337333" lon="-5.263927009900102"><ele>609.0</ele><time>2026-04-28T10:12:55.999Z</time></trkpt><trkpt lat="35.15516550409782" lon="-5.2639491705659704"><ele>608.0</ele><time>2026-04-28T10:12:56.999Z</time></trkpt><trkpt lat="35.1550966455342" lon="-5.263987500198754"><ele>607.0</ele><time>2026-04-28T10:12:57.999Z</time></trkpt><trkpt lat="35.155038300283415" lon="-5.264044244769913"><ele>606.0</ele><time>2026-04-28T10:12:58.999Z</time></trkpt><trkpt lat="35.155006779282374" lon="-5.264126172829159"><ele>605.0</ele><time>2026-04-28T10:12:59.999Z</time></trkpt><trkpt lat="35.155006647748934" lon="-5.2642217479689855"><ele>604.0</ele><time>2026-04-28T10:13:00.999Z</time></trkpt><trkpt lat="35.155037073538104" lon="-5.264317371333146"><ele>604.0</ele><time>2026-04-28T10:13:01.999Z</time></trkpt><trkpt lat="35.15508571138167" lon="-5.264394513456532"><ele>604.0</ele><time>2026-04-28T10:13:02.999Z</time></trkpt><trkpt lat="35.15513800355427" lon="-5.264460272363004"><ele>604.0</ele><time>2026-04-28T10:13:03.999Z</time></trkpt><trkpt lat="35.155187862259815" lon="-5.264528294821133"><ele>604.0</ele><time>2026-04-28T10:13:04.999Z</time></trkpt><trkpt lat="35.155228399817496" lon="-5.26460690655171"><ele>604.0</ele><time>2026-04-28T10:13:05.999Z</time></trkpt><trkpt lat="35.155256198540975" lon="-5.264691115072899"><ele>604.0</ele><time>2026-04-28T10:13:06.999Z</time></trkpt><trkpt lat="35.155272621397145" lon="-5.264776786417628"><ele>604.6666666666667</ele><time>2026-04-28T10:13:07.999Z</time></trkpt><trkpt lat="35.155283194182694" lon="-5.264862810475886"><ele>605.3333333333334</ele><time>2026-04-28T10:13:08.999Z</time></trkpt><trkpt lat="35.15528727487474" lon="-5.264944774535198"><ele>606.0</ele><time>2026-04-28T10:13:09.999Z</time></trkpt><trkpt lat="35.155280519236065" lon="-5.2650668326749885"><ele>606.6666666666666</ele><time>2026-04-28T10:13:11.999Z</time></trkpt><trkpt lat="35.15527115610089" lon="-5.265161912370532"><ele>607.3333333333333</ele><time>2026-04-28T10:14:05Z</time></trkpt><trkpt lat="35.15525061457132" lon="-5.265307349879987"><ele>608.0</ele><time>2026-04-28T10:14:07Z</time></trkpt><trkpt lat="35.155240853753654" lon="-5.265400306302309"><ele>608.0</ele><time>2026-04-28T10:14:08Z</time></trkpt><trkpt lat="35.155233670207835" lon="-5.265484999481629"><ele>608.0</ele><time>2026-04-28T10:14:09Z</time></trkpt><trkpt lat="35.15522471186966" lon="-5.265579501835865"><ele>608.0</ele><time>2026-04-28T10:14:10Z</time></trkpt><trkpt lat="35.15520861467718" lon="-5.265686984207509"><ele>608.0</ele><time>2026-04-28T10:14:11Z</time></trkpt><trkpt lat="35.15519347706803" lon="-5.265784964663322"><ele>608.0</ele><time>2026-04-28T10:14:12Z</time></trkpt><trkpt lat="35.155203308888716" lon="-5.265884791694197"><ele>608.0</ele><time>2026-04-28T10:14:13Z</time></trkpt><trkpt lat="35.15518672824639" lon="-5.265994177170626"><ele>607.8</ele><time>2026-04-28T10:14:14Z</time></trkpt><trkpt lat="35.15518330625445" lon="-5.266102280190434"><ele>607.5999999999999</ele><time>2026-04-28T10:14:15Z</time></trkpt><trkpt lat="35.15515699788299" lon="-5.266207429424659"><ele>607.4000000000001</ele><time>2026-04-28T10:14:16Z</time></trkpt><trkpt lat="35.155116545479686" lon="-5.26630696856486"><ele>607.2</ele><time>2026-04-28T10:14:17Z</time></trkpt><trkpt lat="35.15505486473461" lon="-5.266397040027862"><ele>607.0</ele><time>2026-04-28T10:14:18Z</time></trkpt><trkpt lat="35.154977100595815" lon="-5.266476964729617"><ele>606.8000000000001</ele><time>2026-04-28T10:14:19Z</time></trkpt><trkpt lat="35.154885112780775" lon="-5.266535088411625"><ele>606.6</ele><time>2026-04-28T10:14:20Z</time></trkpt><trkpt lat="35.15478282374829" lon="-5.26655423742679"><ele>606.4000000000001</ele><time>2026-04-28T10:14:21Z</time></trkpt><trkpt lat="35.154674806642895" lon="-5.266555607876394"><ele>606.2</ele><time>2026-04-28T10:14:22Z</time></trkpt><trkpt lat="35.154561489852014" lon="-5.266546939338483"><ele>606.0</ele><time>2026-04-28T10:14:23Z</time></trkpt><trkpt lat="35.15444343783105" lon="-5.266536769532831"><ele>606.0</ele><time>2026-04-28T10:14:24Z</time></trkpt><trkpt lat="35.154322264453484" lon="-5.266524648809107"><ele>606.0</ele><time>2026-04-28T10:14:25Z</time></trkpt><trkpt lat="35.15420448875697" lon="-5.2665180363030615"><ele>606.0</ele><time>2026-04-28T10:14:26Z</time></trkpt><trkpt lat="35.154087286095056" lon="-5.266507039828469"><ele>606.0</ele><time>2026-04-28T10:14:27Z</time></trkpt><trkpt lat="35.15398117260062" lon="-5.266489450935515"><ele>609.6</ele><time>2026-04-28T10:14:28Z</time></trkpt><trkpt lat="35.153884893890776" lon="-5.266482318312822"><ele>613.2</ele><time>2026-04-28T10:14:29Z</time></trkpt><trkpt lat="35.1537889165936" lon="-5.26650990332342"><ele>616.8</ele><time>2026-04-28T10:14:30Z</time></trkpt><trkpt lat="35.15369898109934" lon="-5.2665782043275415"><ele>620.4</ele><time>2026-04-28T10:14:31Z</time></trkpt><trkpt lat="35.15365819702713" lon="-5.266705373675171"><ele>624.0</ele><time>2026-04-28T10:14:32Z</time></trkpt><trkpt lat="35.15362255361594" lon="-5.266822399945011"><ele>624.0</ele><time>2026-04-28T10:14:33Z</time></trkpt><trkpt lat="35.15359245872419" lon="-5.266944632524668"><ele>624.0</ele><time>2026-04-28T10:14:34Z</time></trkpt><trkpt lat="35.15361977355564" lon="-5.267077698131472"><ele>624.0</ele><time>2026-04-28T10:14:35Z</time></trkpt><trkpt lat="35.15360936898189" lon="-5.2672084955475915"><ele>624.0</ele><time>2026-04-28T10:14:36Z</time></trkpt><trkpt lat="35.15361392635766" lon="-5.2673281409855415"><ele>624.0</ele><time>2026-04-28T10:14:37Z</time></trkpt><trkpt lat="35.1536186891954" lon="-5.267434381154779"><ele>623.1666666666666</ele><time>2026-04-28T10:14:38Z</time></trkpt><trkpt lat="35.15362030444661" lon="-5.2675260481041795"><ele>622.3333333333334</ele><time>2026-04-28T10:14:39Z</time></trkpt><trkpt lat="35.15361765861923" lon="-5.267607341744436"><ele>621.5</ele><time>2026-04-28T10:14:40Z</time></trkpt><trkpt lat="35.15360812155897" lon="-5.267725004950964"><ele>620.6666666666667</ele><time>2026-04-28T10:14:42Z</time></trkpt><trkpt lat="35.15359655908157" lon="-5.267813458961976"><ele>619.8333333333334</ele><time>2026-04-28T10:14:45Z</time></trkpt><trkpt lat="35.15356672178054" lon="-5.267899918802775"><ele>619.0</ele><time>2026-04-28T10:15:54Z</time></trkpt><trkpt lat="35.15349546991688" lon="-5.26799155708503"><ele>619.0</ele><time>2026-04-28T10:15:57Z</time></trkpt><trkpt lat="35.15343824817379" lon="-5.268052351676478"><ele>619.0</ele><time>2026-04-28T10:15:58Z</time></trkpt><trkpt lat="35.153383048833064" lon="-5.268118495536932"><ele>619.0</ele><time>2026-04-28T10:15:59Z</time></trkpt><trkpt lat="35.15330866418142" lon="-5.268164928946782"><ele>619.0</ele><time>2026-04-28T10:16:01Z</time></trkpt><trkpt lat="35.15318148429488" lon="-5.2681449013706585"><ele>619.0</ele><time>2026-04-28T10:16:03Z</time></trkpt><trkpt lat="35.15308655306047" lon="-5.268085986576662"><ele>620.0</ele><time>2026-04-28T10:16:04Z</time></trkpt><trkpt lat="35.15300196807896" lon="-5.268020633513427"><ele>621.0</ele><time>2026-04-28T10:16:05Z</time></trkpt><trkpt lat="35.152933640558246" lon="-5.267945132831142"><ele>622.0</ele><time>2026-04-28T10:16:06Z</time></trkpt><trkpt lat="35.15285782234672" lon="-5.267917305978108"><ele>623.0</ele><time>2026-04-28T10:16:07Z</time></trkpt><trkpt lat="35.15264122832034" lon="-5.267987315480316"><ele>623.0</ele><time>2026-04-28T10:16:09Z</time></trkpt><trkpt lat="35.15255489136105" lon="-5.268094295690441"><ele>623.0</ele><time>2026-04-28T10:16:10Z</time></trkpt><trkpt lat="35.15252079185071" lon="-5.268251391925148"><ele>623.0</ele><time>2026-04-28T10:16:11Z</time></trkpt><trkpt lat="35.15251189215831" lon="-5.2684221996295575"><ele>623.0</ele><time>2026-04-28T10:16:12Z</time></trkpt><trkpt lat="35.152465921647845" lon="-5.26860465912627"><ele>620.6666666666666</ele><time>2026-04-28T10:16:13Z</time></trkpt><trkpt lat="35.152438144619914" lon="-5.268802346833316"><ele>618.3333333333334</ele><time>2026-04-28T10:16:14Z</time></trkpt><trkpt lat="35.152394871400396" lon="-5.268973750594581"><ele>616.0</ele><time>2026-04-28T10:16:15Z</time></trkpt><trkpt lat="35.15235720375038" lon="-5.269138515555575"><ele>616.0</ele><time>2026-04-28T10:16:16Z</time></trkpt><trkpt lat="35.152316689654015" lon="-5.269300537563381"><ele>616.0</ele><time>2026-04-28T10:16:17Z</time></trkpt><trkpt lat="35.152278487139974" lon="-5.269458482064201"><ele>616.0</ele><time>2026-04-28T10:16:18Z</time></trkpt><trkpt lat="35.15223809709499" lon="-5.269616932996441"><ele>616.0</ele><time>2026-04-28T10:16:19Z</time></trkpt><trkpt lat="35.152199956530254" lon="-5.26977775603779"><ele>613.25</ele><time>2026-04-28T10:16:20Z</time></trkpt><trkpt lat="35.15215137223389" lon="-5.269938561297278"><ele>610.5</ele><time>2026-04-28T10:16:21Z</time></trkpt><trkpt lat="35.152084933997465" lon="-5.270095149569768"><ele>607.75</ele><time>2026-04-28T10:16:22Z</time></trkpt><trkpt lat="35.152002228907556" lon="-5.270240404435174"><ele>605.0</ele><time>2026-04-28T10:16:23Z</time></trkpt><trkpt lat="35.151910914054014" lon="-5.270377768510008"><ele>605.0</ele><time>2026-04-28T10:16:24Z</time></trkpt><trkpt lat="35.151819302492775" lon="-5.270498260493413"><ele>605.0</ele><time>2026-04-28T10:16:25Z</time></trkpt><trkpt lat="35.15172662132198" lon="-5.270619526016664"><ele>605.0</ele><time>2026-04-28T10:16:26Z</time></trkpt><trkpt lat="35.15163348127083" lon="-5.270741932729596"><ele>605.0</ele><time>2026-04-28T10:16:27Z</time></trkpt><trkpt lat="35.151544807634096" lon="-5.270863198604078"><ele>604.5</ele><time>2026-04-28T10:16:28Z</time></trkpt><trkpt lat="35.15145601289449" lon="-5.270979371168271"><ele>604.0</ele><time>2026-04-28T10:16:29Z</time></trkpt><trkpt lat="35.15137266311502" lon="-5.27109484412015"><ele>603.5</ele><time>2026-04-28T10:16:30Z</time></trkpt><trkpt lat="35.15129249502198" lon="-5.271202823791996"><ele>603.0</ele><time>2026-04-28T10:16:31Z</time></trkpt><trkpt lat="35.15120693080782" lon="-5.2713055868032095"><ele>603.0</ele><time>2026-04-28T10:16:32Z</time></trkpt><trkpt lat="35.1511224259873" lon="-5.271410537451568"><ele>603.0</ele><time>2026-04-28T10:16:33Z</time></trkpt><trkpt lat="35.15103477406284" lon="-5.271521742562893"><ele>603.0</ele><time>2026-04-28T10:16:34Z</time></trkpt><trkpt lat="35.15095155094368" lon="-5.2716290784283855"><ele>603.0</ele><time>2026-04-28T10:16:35Z</time></trkpt><trkpt lat="35.15086610199118" lon="-5.2717189229417265"><ele>599.75</ele><time>2026-04-28T10:16:36Z</time></trkpt><trkpt lat="35.150773561059175" lon="-5.271818593944498"><ele>596.5</ele><time>2026-04-28T10:16:37Z</time></trkpt><trkpt lat="35.15068136706812" lon="-5.271935089015963"><ele>593.25</ele><time>2026-04-28T10:16:38Z</time></trkpt><trkpt lat="35.15056948340415" lon="-5.272045004764729"><ele>590.0</ele><time>2026-04-28T10:16:39Z</time></trkpt><trkpt lat="35.15044815609079" lon="-5.272158562551742"><ele>586.6666666666666</ele><time>2026-04-28T10:16:40Z</time></trkpt><trkpt lat="35.15032338289148" lon="-5.2722825085785985"><ele>583.3333333333334</ele><time>2026-04-28T10:16:41Z</time></trkpt><trkpt lat="35.150195163976676" lon="-5.272411491343899"><ele>580.0</ele><time>2026-04-28T10:16:42Z</time></trkpt><trkpt lat="35.150069731311284" lon="-5.272537269323484"><ele>580.0</ele><time>2026-04-28T10:16:43Z</time></trkpt><trkpt lat="35.14994789879092" lon="-5.272663695336925"><ele>580.0</ele><time>2026-04-28T10:16:44Z</time></trkpt><trkpt lat="35.149830130051896" lon="-5.272788773473793"><ele>580.0</ele><time>2026-04-28T10:16:45Z</time></trkpt><trkpt lat="35.149715234309184" lon="-5.272909864821202"><ele>579.5</ele><time>2026-04-28T10:16:46Z</time></trkpt><trkpt lat="35.14960730452425" lon="-5.273021726588907"><ele>579.0</ele><time>2026-04-28T10:16:47Z</time></trkpt><trkpt lat="35.149508774218624" lon="-5.2731215159453155"><ele>578.5</ele><time>2026-04-28T10:16:48Z</time></trkpt><trkpt lat="35.14941579576502" lon="-5.273203032157598"><ele>578.0</ele><time>2026-04-28T10:16:49Z</time></trkpt><trkpt lat="35.14932428202193" lon="-5.273259503717391"><ele>576.6</ele><time>2026-04-28T10:16:50Z</time></trkpt><trkpt lat="35.149223728972885" lon="-5.273277821402201"><ele>575.1999999999999</ele><time>2026-04-28T10:16:51Z</time></trkpt><trkpt lat="35.14911726958936" lon="-5.2732526100840715"><ele>573.8</ele><time>2026-04-28T10:16:52Z</time></trkpt><trkpt lat="35.14901873645073" lon="-5.27318965293744"><ele>572.4</ele><time>2026-04-28T10:16:53Z</time></trkpt><trkpt lat="35.14892591510946" lon="-5.2731027985964785"><ele>571.0</ele><time>2026-04-28T10:16:54Z</time></trkpt><trkpt lat="35.148851712407975" lon="-5.272977085713332"><ele>568.0</ele><time>2026-04-28T10:16:55Z</time></trkpt><trkpt lat="35.148796037913534" lon="-5.272825485043968"><ele>565.0</ele><time>2026-04-28T10:16:56Z</time></trkpt><trkpt lat="35.14874621139845" lon="-5.272665623531587"><ele>562.0</ele><time>2026-04-28T10:16:57Z</time></trkpt><trkpt lat="35.14869743174755" lon="-5.27251453686898"><ele>559.0</ele><time>2026-04-28T10:16:58Z</time></trkpt><trkpt lat="35.14864136015394" lon="-5.272369815607636"><ele>561.0</ele><time>2026-04-28T10:16:59Z</time></trkpt><trkpt lat="35.14857760380413" lon="-5.2722289286642425"><ele>563.0</ele><time>2026-04-28T10:17:00Z</time></trkpt><trkpt lat="35.148506928667466" lon="-5.272093424725591"><ele>565.0</ele><time>2026-04-28T10:17:01Z</time></trkpt><trkpt lat="35.148416534529076" lon="-5.271980281716029"><ele>567.0</ele><time>2026-04-28T10:17:02Z</time></trkpt><trkpt lat="35.14830339731836" lon="-5.271898142930173"><ele>566.75</ele><time>2026-04-28T10:17:03Z</time></trkpt><trkpt lat="35.14817538959801" lon="-5.271845780340173"><ele>566.5</ele><time>2026-04-28T10:17:04Z</time></trkpt><trkpt lat="35.14804845349709" lon="-5.27183071606221"><ele>566.25</ele><time>2026-04-28T10:17:05Z</time></trkpt><trkpt lat="35.14793600000139" lon="-5.271863766279971"><ele>566.0</ele><time>2026-04-28T10:17:06Z</time></trkpt><trkpt lat="35.147850365720174" lon="-5.271959100286875"><ele>566.0</ele><time>2026-04-28T10:17:07Z</time></trkpt><trkpt lat="35.14777680055893" lon="-5.272063791370943"><ele>566.0</ele><time>2026-04-28T10:17:08Z</time></trkpt><trkpt lat="35.14773600667723" lon="-5.272215293969484"><ele>566.0</ele><time>2026-04-28T10:17:09Z</time></trkpt><trkpt lat="35.14769977969669" lon="-5.272373921469753"><ele>566.0</ele><time>2026-04-28T10:17:10Z</time></trkpt><trkpt lat="35.147647945318255" lon="-5.272529192750044"><ele>565.0</ele><time>2026-04-28T10:17:11Z</time></trkpt><trkpt lat="35.147579559205774" lon="-5.272658826135851"><ele>564.0</ele><time>2026-04-28T10:17:12Z</time></trkpt><trkpt lat="35.14749078990941" lon="-5.272764895030901"><ele>563.0</ele><time>2026-04-28T10:17:13Z</time></trkpt><trkpt lat="35.14739315601262" lon="-5.2728363305436785"><ele>562.0</ele><time>2026-04-28T10:17:14Z</time></trkpt><trkpt lat="35.147285725189334" lon="-5.272880900768228"><ele>562.0</ele><time>2026-04-28T10:17:15Z</time></trkpt><trkpt lat="35.147174326602794" lon="-5.272897221826059"><ele>562.0</ele><time>2026-04-28T10:17:16Z</time></trkpt><trkpt lat="35.14705475000648" lon="-5.272888594419615"><ele>562.0</ele><time>2026-04-28T10:17:17Z</time></trkpt><trkpt lat="35.146930755444" lon="-5.272846163102098"><ele>562.0</ele><time>2026-04-28T10:17:18Z</time></trkpt><trkpt lat="35.14680101049431" lon="-5.272771899006393"><ele>562.0</ele><time>2026-04-28T10:17:19Z</time></trkpt><trkpt lat="35.146667008154196" lon="-5.272681519746953"><ele>562.0</ele><time>2026-04-28T10:17:20Z</time></trkpt><trkpt lat="35.14652645850749" lon="-5.272592949575245"><ele>562.0</ele><time>2026-04-28T10:17:21Z</time></trkpt><trkpt lat="35.146388079483536" lon="-5.2725060321911625"><ele>560.6666666666667</ele><time>2026-04-28T10:17:22Z</time></trkpt><trkpt lat="35.146241416287026" lon="-5.272407608856273"><ele>559.3333333333334</ele><time>2026-04-28T10:17:23Z</time></trkpt><trkpt lat="35.14608719325851" lon="-5.272322374910893"><ele>558.0</ele><time>2026-04-28T10:17:24Z</time></trkpt><trkpt lat="35.14592441872162" lon="-5.272266419357597"><ele>558.6666666666666</ele><time>2026-04-28T10:17:25Z</time></trkpt><trkpt lat="35.14575745886615" lon="-5.272253502126714"><ele>559.3333333333333</ele><time>2026-04-28T10:17:26Z</time></trkpt><trkpt lat="35.14559506021651" lon="-5.272277683754024"><ele>560.0</ele><time>2026-04-28T10:17:27Z</time></trkpt><trkpt lat="35.14544681336506" lon="-5.272341478319208"><ele>560.0</ele><time>2026-04-28T10:17:28Z</time></trkpt><trkpt lat="35.14531536543683" lon="-5.2724133795701285"><ele>560.0</ele><time>2026-04-28T10:17:29Z</time></trkpt><trkpt lat="35.14518930363695" lon="-5.2724745550584275"><ele>560.0</ele><time>2026-04-28T10:17:30Z</time></trkpt><trkpt lat="35.145072938132316" lon="-5.272537100676519"><ele>560.0</ele><time>2026-04-28T10:17:31Z</time></trkpt><trkpt lat="35.14495040979236" lon="-5.272582840711219"><ele>559.25</ele><time>2026-04-28T10:17:32Z</time></trkpt><trkpt lat="35.14481826602621" lon="-5.272606577380123"><ele>558.5</ele><time>2026-04-28T10:17:33Z</time></trkpt><trkpt lat="35.14467673962722" lon="-5.272606386277928"><ele>557.75</ele><time>2026-04-28T10:17:34Z</time></trkpt><trkpt lat="35.14451792210584" lon="-5.27258752064509"><ele>557.0</ele><time>2026-04-28T10:17:35Z</time></trkpt><trkpt lat="35.14435086578746" lon="-5.272563178364434"><ele>557.0</ele><time>2026-04-28T10:17:36Z</time></trkpt><trkpt lat="35.14418518518015" lon="-5.272544617269659"><ele>557.0</ele><time>2026-04-28T10:17:37Z</time></trkpt><trkpt lat="35.14402655452705" lon="-5.272529017646048"><ele>557.0</ele><time>2026-04-28T10:17:38Z</time></trkpt><trkpt lat="35.14387497885596" lon="-5.272511566202365"><ele>556.5</ele><time>2026-04-28T10:17:39Z</time></trkpt><trkpt lat="35.14372934941671" lon="-5.2724863088525735"><ele>556.0</ele><time>2026-04-28T10:17:40Z</time></trkpt><trkpt lat="35.143588448457564" lon="-5.2724462164458545"><ele>555.5</ele><time>2026-04-28T10:17:41Z</time></trkpt><trkpt lat="35.143459592254246" lon="-5.272385678671051"><ele>555.0</ele><time>2026-04-28T10:17:42Z</time></trkpt><trkpt lat="35.143346471928005" lon="-5.272294941983936"><ele>555.75</ele><time>2026-04-28T10:17:43Z</time></trkpt><trkpt lat="35.143237782235026" lon="-5.272221370840092"><ele>556.5</ele><time>2026-04-28T10:17:44Z</time></trkpt><trkpt lat="35.143127305277275" lon="-5.272234832725582"><ele>557.25</ele><time>2026-04-28T10:17:45Z</time></trkpt><trkpt lat="35.143015900716286" lon="-5.272217659311251"><ele>558.0</ele><time>2026-04-28T10:17:46Z</time></trkpt><trkpt lat="35.142924608674015" lon="-5.272320162264972"><ele>558.0</ele><time>2026-04-28T10:17:47Z</time></trkpt><trkpt lat="35.14284653404958" lon="-5.272424004639146"><ele>558.0</ele><time>2026-04-28T10:17:48Z</time></trkpt><trkpt lat="35.142787371762296" lon="-5.27256694305104"><ele>558.0</ele><time>2026-04-28T10:17:49Z</time></trkpt><trkpt lat="35.142727712721346" lon="-5.272731259214116"><ele>558.0</ele><time>2026-04-28T10:17:50Z</time></trkpt><trkpt lat="35.142689757902815" lon="-5.272899031002858"><ele>558.0</ele><time>2026-04-28T10:17:51Z</time></trkpt><trkpt lat="35.142626163744524" lon="-5.273047737273675"><ele>558.0</ele><time>2026-04-28T10:17:52Z</time></trkpt><trkpt lat="35.142531046907116" lon="-5.273183463799482"><ele>558.0</ele><time>2026-04-28T10:17:53Z</time></trkpt><trkpt lat="35.14240565568185" lon="-5.273292530310924"><ele>558.0</ele><time>2026-04-28T10:17:54Z</time></trkpt><trkpt lat="35.142260512019035" lon="-5.2733739498109315"><ele>553.3333333333334</ele><time>2026-04-28T10:17:55Z</time></trkpt><trkpt lat="35.14209734788522" lon="-5.273419124001413"><ele>548.6666666666667</ele><time>2026-04-28T10:17:56Z</time></trkpt><trkpt lat="35.14192064601658" lon="-5.273443906976919"><ele>544.0</ele><time>2026-04-28T10:17:57Z</time></trkpt><trkpt lat="35.14174021822473" lon="-5.273470997724161"><ele>544.0</ele><time>2026-04-28T10:17:58Z</time></trkpt><trkpt lat="35.14156921426352" lon="-5.273502771862411"><ele>544.0</ele><time>2026-04-28T10:17:59Z</time></trkpt><trkpt lat="35.141409489286424" lon="-5.273531024904894"><ele>544.0</ele><time>2026-04-28T10:18:00Z</time></trkpt><trkpt lat="35.14125872861492" lon="-5.273558139553839"><ele>543.25</ele><time>2026-04-28T10:18:01Z</time></trkpt><trkpt lat="35.14112669839892" lon="-5.273577105880338"><ele>542.5</ele><time>2026-04-28T10:18:02Z</time></trkpt><trkpt lat="35.14101762869372" lon="-5.273561894810569"><ele>541.75</ele><time>2026-04-28T10:18:03Z</time></trkpt><trkpt lat="35.14091367164421" lon="-5.273506496316255"><ele>541.0</ele><time>2026-04-28T10:18:04Z</time></trkpt><trkpt lat="35.14081949240354" lon="-5.273422605725561"><ele>541.0</ele><time>2026-04-28T10:18:05Z</time></trkpt><trkpt lat="35.140743888243186" lon="-5.273305189043372"><ele>541.0</ele><time>2026-04-28T10:18:06Z</time></trkpt><trkpt lat="35.14070564993872" lon="-5.273155266670516"><ele>541.0</ele><time>2026-04-28T10:18:07Z</time></trkpt><trkpt lat="35.14069629885218" lon="-5.2729947830005806"><ele>541.0</ele><time>2026-04-28T10:18:08Z</time></trkpt><trkpt lat="35.140701286899045" lon="-5.272846109214878"><ele>541.4</ele><time>2026-04-28T10:18:09Z</time></trkpt><trkpt lat="35.14069304730875" lon="-5.272711564133194"><ele>541.8</ele><time>2026-04-28T10:18:10Z</time></trkpt><trkpt lat="35.14065098069873" lon="-5.272596932374123"><ele>542.1999999999999</ele><time>2026-04-28T10:18:11Z</time></trkpt><trkpt lat="35.14057122054641" lon="-5.2725179405196645"><ele>542.6</ele><time>2026-04-28T10:18:12Z</time></trkpt><trkpt lat="35.14047260174616" lon="-5.272480829093123"><ele>543.0</ele><time>2026-04-28T10:18:13Z</time></trkpt><trkpt lat="35.140359802378455" lon="-5.27251355904176"><ele>543.0</ele><time>2026-04-28T10:18:14Z</time></trkpt><trkpt lat="35.14025897490077" lon="-5.272593421618315"><ele>543.0</ele><time>2026-04-28T10:18:15Z</time></trkpt><trkpt lat="35.140170940115745" lon="-5.272721181474102"><ele>543.0</ele><time>2026-04-28T10:18:16Z</time></trkpt><trkpt lat="35.14007293511152" lon="-5.272863438326775"><ele>543.0</ele><time>2026-04-28T10:18:17Z</time></trkpt><trkpt lat="35.13995881332506" lon="-5.273016781378639"><ele>543.0</ele><time>2026-04-28T10:18:18Z</time></trkpt><trkpt lat="35.13984260060586" lon="-5.273166228000007"><ele>543.0</ele><time>2026-04-28T10:18:19Z</time></trkpt><trkpt lat="35.139726365576124" lon="-5.2733128623267005"><ele>543.0</ele><time>2026-04-28T10:18:20Z</time></trkpt><trkpt lat="35.139605846300036" lon="-5.273464749024495"><ele>543.0</ele><time>2026-04-28T10:18:21Z</time></trkpt><trkpt lat="35.139491949266514" lon="-5.2736113777338804"><ele>543.0</ele><time>2026-04-28T10:18:22Z</time></trkpt><trkpt lat="35.139372936622266" lon="-5.273740015179644"><ele>543.0</ele><time>2026-04-28T10:18:23Z</time></trkpt><trkpt lat="35.139234044254835" lon="-5.273840597222026"><ele>543.0</ele><time>2026-04-28T10:18:24Z</time></trkpt><trkpt lat="35.13908096159458" lon="-5.273919264059956"><ele>543.0</ele><time>2026-04-28T10:18:25Z</time></trkpt><trkpt lat="35.13892048373765" lon="-5.274016998199011"><ele>543.0</ele><time>2026-04-28T10:18:26Z</time></trkpt><trkpt lat="35.13876622933995" lon="-5.274128889003816"><ele>540.6666666666666</ele><time>2026-04-28T10:18:27Z</time></trkpt><trkpt lat="35.1385953024106" lon="-5.274133242115794"><ele>538.3333333333333</ele><time>2026-04-28T10:18:28Z</time></trkpt><trkpt lat="35.138436671706785" lon="-5.274231007874593"><ele>536.0</ele><time>2026-04-28T10:18:29Z</time></trkpt><trkpt lat="35.13828350556347" lon="-5.274335716759049"><ele>536.3333333333333</ele><time>2026-04-28T10:18:30Z</time></trkpt><trkpt lat="35.138129293010174" lon="-5.274431676843988"><ele>536.6666666666666</ele><time>2026-04-28T10:18:31Z</time></trkpt><trkpt lat="35.137985783596065" lon="-5.274537324142623"><ele>537.0</ele><time>2026-04-28T10:18:32Z</time></trkpt><trkpt lat="35.13784440244654" lon="-5.2746254924134925"><ele>537.0</ele><time>2026-04-28T10:18:33Z</time></trkpt><trkpt lat="35.13772826557571" lon="-5.274739508674873"><ele>537.0</ele><time>2026-04-28T10:18:34Z</time></trkpt><trkpt lat="35.13762100130708" lon="-5.2748746174688375"><ele>537.0</ele><time>2026-04-28T10:18:35Z</time></trkpt><trkpt lat="35.13753184190483" lon="-5.27503731588478"><ele>537.0</ele><time>2026-04-28T10:18:36Z</time></trkpt><trkpt lat="35.13744895074144" lon="-5.275208022827353"><ele>537.0</ele><time>2026-04-28T10:18:37Z</time></trkpt><trkpt lat="35.13737118340919" lon="-5.275389873006416"><ele>537.0</ele><time>2026-04-28T10:18:38Z</time></trkpt><trkpt lat="35.13728621051242" lon="-5.2755629918010385"><ele>534.3333333333334</ele><time>2026-04-28T10:18:39Z</time></trkpt><trkpt lat="35.13722589943534" lon="-5.275735913356765"><ele>531.6666666666667</ele><time>2026-04-28T10:18:40Z</time></trkpt><trkpt lat="35.13718624980659" lon="-5.275914345259398"><ele>529.0</ele><time>2026-04-28T10:18:41Z</time></trkpt><trkpt lat="35.13716069620254" lon="-5.276112389686301"><ele>529.0</ele><time>2026-04-28T10:18:42Z</time></trkpt><trkpt lat="35.1371314095567" lon="-5.276322621254867"><ele>529.0</ele><time>2026-04-28T10:18:43Z</time></trkpt><trkpt lat="35.13709957923968" lon="-5.276507896830918"><ele>529.0</ele><time>2026-04-28T10:18:44Z</time></trkpt><trkpt lat="35.13706981376196" lon="-5.276685526151494"><ele>526.0</ele><time>2026-04-28T10:18:45Z</time></trkpt><trkpt lat="35.13697278663757" lon="-5.276875141697517"><ele>523.0</ele><time>2026-04-28T10:18:46Z</time></trkpt><trkpt lat="35.13689009259585" lon="-5.277066653521076"><ele>520.0</ele><time>2026-04-28T10:18:47Z</time></trkpt><trkpt lat="35.13680686441928" lon="-5.277257974092521"><ele>517.3333333333334</ele><time>2026-04-28T10:18:48Z</time></trkpt><trkpt lat="35.136724070222456" lon="-5.277443338078563"><ele>514.6666666666666</ele><time>2026-04-28T10:18:49Z</time></trkpt><trkpt lat="35.13665153074091" lon="-5.277619649799345"><ele>512.0</ele><time>2026-04-28T10:18:50Z</time></trkpt><trkpt lat="35.1365915806105" lon="-5.277794861979301"><ele>515.3333333333333</ele><time>2026-04-28T10:18:51Z</time></trkpt><trkpt lat="35.13652087064858" lon="-5.277969069362266"><ele>518.6666666666666</ele><time>2026-04-28T10:18:52Z</time></trkpt><trkpt lat="35.13647399091814" lon="-5.278153539081144"><ele>522.0</ele><time>2026-04-28T10:18:53Z</time></trkpt><trkpt lat="35.13646633118282" lon="-5.278347037733626"><ele>522.0</ele><time>2026-04-28T10:18:54Z</time></trkpt><trkpt lat="35.136495054624206" lon="-5.278540132562717"><ele>522.0</ele><time>2026-04-28T10:18:55Z</time></trkpt><trkpt lat="35.13652839119963" lon="-5.278725910864169"><ele>522.0</ele><time>2026-04-28T10:18:56Z</time></trkpt><trkpt lat="35.13654390013048" lon="-5.278917374651279"><ele>514.6666666666666</ele><time>2026-04-28T10:18:57Z</time></trkpt><trkpt lat="35.1365792452049" lon="-5.279104215009904"><ele>507.3333333333333</ele><time>2026-04-28T10:18:58Z</time></trkpt><trkpt lat="35.13661188495646" lon="-5.279294486258679"><ele>500.0</ele><time>2026-04-28T10:18:59Z</time></trkpt><trkpt lat="35.136643804539155" lon="-5.279484285055173"><ele>500.0</ele><time>2026-04-28T10:19:00Z</time></trkpt><trkpt lat="35.13667365870249" lon="-5.279670018004856"><ele>500.0</ele><time>2026-04-28T10:19:01Z</time></trkpt><trkpt lat="35.13669847529687" lon="-5.279856986861694"><ele>500.0</ele><time>2026-04-28T10:19:02Z</time></trkpt><trkpt lat="35.13672008397161" lon="-5.280036974932822"><ele>500.0</ele><time>2026-04-28T10:19:03Z</time></trkpt><trkpt lat="35.13673503932467" lon="-5.280217140837887"><ele>500.0</ele><time>2026-04-28T10:19:04Z</time></trkpt><trkpt lat="35.13672536420376" lon="-5.280399266903385"><ele>500.0</ele><time>2026-04-28T10:19:05Z</time></trkpt><trkpt lat="35.13668451861733" lon="-5.280583608946368"><ele>498.66666666666663</ele><time>2026-04-28T10:19:06Z</time></trkpt><trkpt lat="35.1366247682257" lon="-5.280769090674891"><ele>497.33333333333337</ele><time>2026-04-28T10:19:07Z</time></trkpt><trkpt lat="35.136557570776645" lon="-5.280955050051012"><ele>496.0</ele><time>2026-04-28T10:19:08Z</time></trkpt><trkpt lat="35.13649305588988" lon="-5.281144875099524"><ele>495.6666666666667</ele><time>2026-04-28T10:19:09Z</time></trkpt><trkpt lat="35.13643615296687" lon="-5.281332346392185"><ele>495.33333333333337</ele><time>2026-04-28T10:19:10Z</time></trkpt><trkpt lat="35.13638253356921" lon="-5.2815145470555445"><ele>495.0</ele><time>2026-04-28T10:19:11Z</time></trkpt><trkpt lat="35.13633423216624" lon="-5.281687113088992"><ele>495.0</ele><time>2026-04-28T10:19:12Z</time></trkpt><trkpt lat="35.13628627630291" lon="-5.28184148892531"><ele>495.0</ele><time>2026-04-28T10:19:13Z</time></trkpt><trkpt lat="35.13622470925317" lon="-5.281980849352681"><ele>495.0</ele><time>2026-04-28T10:19:14Z</time></trkpt><trkpt lat="35.13614022986554" lon="-5.282104832180694"><ele>495.0</ele><time>2026-04-28T10:19:15Z</time></trkpt><trkpt lat="35.13603089583391" lon="-5.2822070026172945"><ele>491.66666666666663</ele><time>2026-04-28T10:19:16Z</time></trkpt><trkpt lat="35.135899508291494" lon="-5.282283951813648"><ele>488.3333333333333</ele><time>2026-04-28T10:19:17Z</time></trkpt><trkpt lat="35.13575088208106" lon="-5.282328868641648"><ele>485.0</ele><time>2026-04-28T10:19:18Z</time></trkpt><trkpt lat="35.135595628263374" lon="-5.282345078183883"><ele>484.66666666666663</ele><time>2026-04-28T10:19:19Z</time></trkpt><trkpt lat="35.135439863896" lon="-5.2823446707646005"><ele>484.33333333333337</ele><time>2026-04-28T10:19:20Z</time></trkpt><trkpt lat="35.135287880047585" lon="-5.282332871969668"><ele>484.0</ele><time>2026-04-28T10:19:21Z</time></trkpt><trkpt lat="35.13514120286176" lon="-5.282356396969187"><ele>484.0</ele><time>2026-04-28T10:19:22Z</time></trkpt><trkpt lat="35.13500882819588" lon="-5.282422245858244"><ele>484.0</ele><time>2026-04-28T10:19:23Z</time></trkpt><trkpt lat="35.134888443758875" lon="-5.282516157539613"><ele>484.0</ele><time>2026-04-28T10:19:24Z</time></trkpt><trkpt lat="35.13480227556612" lon="-5.282656906307292"><ele>484.0</ele><time>2026-04-28T10:19:25Z</time></trkpt><trkpt lat="35.134698566341505" lon="-5.282799604670344"><ele>485.0</ele><time>2026-04-28T10:19:26Z</time></trkpt><trkpt lat="35.13458318575101" lon="-5.282931340449419"><ele>486.0</ele><time>2026-04-28T10:19:27Z</time></trkpt><trkpt lat="35.1344747834702" lon="-5.283077696144093"><ele>487.0</ele><time>2026-04-28T10:19:28Z</time></trkpt><trkpt lat="35.13437979759458" lon="-5.283237459477836"><ele>483.33333333333337</ele><time>2026-04-28T10:19:29Z</time></trkpt><trkpt lat="35.134277140656394" lon="-5.283378626550316"><ele>479.66666666666663</ele><time>2026-04-28T10:19:30Z</time></trkpt><trkpt lat="35.13416917167843" lon="-5.283513037754782"><ele>476.0</ele><time>2026-04-28T10:19:31Z</time></trkpt><trkpt lat="35.13411313989046" lon="-5.283687926931767"><ele>476.0</ele><time>2026-04-28T10:19:32Z</time></trkpt><trkpt lat="35.13407699679358" lon="-5.283866071698244"><ele>476.0</ele><time>2026-04-28T10:19:33Z</time></trkpt><trkpt lat="35.13404831377438" lon="-5.28405568686535"><ele>476.0</ele><time>2026-04-28T10:19:34Z</time></trkpt><trkpt lat="35.13401923080712" lon="-5.2842483975417"><ele>476.75</ele><time>2026-04-28T10:19:35Z</time></trkpt><trkpt lat="35.13397876219398" lon="-5.284426719502145"><ele>477.5</ele><time>2026-04-28T10:19:36Z</time></trkpt><trkpt lat="35.13395512197323" lon="-5.284602594181275"><ele>478.25</ele><time>2026-04-28T10:19:37Z</time></trkpt><trkpt lat="35.13392202857065" lon="-5.284770818125784"><ele>479.0</ele><time>2026-04-28T10:19:38Z</time></trkpt><trkpt lat="35.133860405396554" lon="-5.2849236085305185"><ele>475.0</ele><time>2026-04-28T10:19:39Z</time></trkpt><trkpt lat="35.133765668800834" lon="-5.285055914405509"><ele>471.0</ele><time>2026-04-28T10:19:40Z</time></trkpt><trkpt lat="35.13364314112142" lon="-5.285171360804322"><ele>467.0</ele><time>2026-04-28T10:19:41Z</time></trkpt><trkpt lat="35.13350604904771" lon="-5.2852828584134635"><ele>467.0</ele><time>2026-04-28T10:19:42Z</time></trkpt><trkpt lat="35.13336445967601" lon="-5.285400160416729"><ele>467.0</ele><time>2026-04-28T10:19:43Z</time></trkpt><trkpt lat="35.13322366769335" lon="-5.285533251568618"><ele>467.0</ele><time>2026-04-28T10:19:44Z</time></trkpt><trkpt lat="35.13308706191543" lon="-5.285666738723433"><ele>465.0</ele><time>2026-04-28T10:19:45Z</time></trkpt><trkpt lat="35.13295347156029" lon="-5.285794411883838"><ele>463.0</ele><time>2026-04-28T10:19:46Z</time></trkpt><trkpt lat="35.13283295467838" lon="-5.285932269565433"><ele>461.0</ele><time>2026-04-28T10:19:47Z</time></trkpt><trkpt lat="35.13270449959971" lon="-5.286056653713813"><ele>461.0</ele><time>2026-04-28T10:19:48Z</time></trkpt><trkpt lat="35.13257974814673" lon="-5.2861774644288015"><ele>461.0</ele><time>2026-04-28T10:19:49Z</time></trkpt><trkpt lat="35.132454029911045" lon="-5.286288933094555"><ele>461.0</ele><time>2026-04-28T10:19:50Z</time></trkpt><trkpt lat="35.132359543765254" lon="-5.286443054860805"><ele>458.75</ele><time>2026-04-28T10:19:51Z</time></trkpt><trkpt lat="35.132270275957524" lon="-5.286598134613555"><ele>456.5</ele><time>2026-04-28T10:19:52Z</time></trkpt><trkpt lat="35.13217642610806" lon="-5.286737014215839"><ele>454.25</ele><time>2026-04-28T10:19:53Z</time></trkpt><trkpt lat="35.13205915908639" lon="-5.286844975787889"><ele>452.0</ele><time>2026-04-28T10:19:54Z</time></trkpt><trkpt lat="35.131928381886766" lon="-5.286928209719271"><ele>452.0</ele><time>2026-04-28T10:19:55Z</time></trkpt><trkpt lat="35.131786718209945" lon="-5.286971090449639"><ele>452.0</ele><time>2026-04-28T10:19:56Z</time></trkpt><trkpt lat="35.13164293004302" lon="-5.286997415938572"><ele>452.0</ele><time>2026-04-28T10:19:57Z</time></trkpt><trkpt lat="35.13153191575157" lon="-5.287096577632495"><ele>452.0</ele><time>2026-04-28T10:19:58Z</time></trkpt><trkpt lat="35.1314588460795" lon="-5.28723459703394"><ele>450.0</ele><time>2026-04-28T10:19:59Z</time></trkpt><trkpt lat="35.13138815254594" lon="-5.287386226272563"><ele>448.0</ele><time>2026-04-28T10:20:00Z</time></trkpt><trkpt lat="35.131290433234014" lon="-5.287496083228625"><ele>446.0</ele><time>2026-04-28T10:20:01Z</time></trkpt><trkpt lat="35.13120061965695" lon="-5.287606541080277"><ele>444.0</ele><time>2026-04-28T10:20:02Z</time></trkpt><trkpt lat="35.1310917576199" lon="-5.28769353389787"><ele>444.0</ele><time>2026-04-28T10:20:03Z</time></trkpt><trkpt lat="35.13097795394053" lon="-5.287777789071464"><ele>444.0</ele><time>2026-04-28T10:20:04Z</time></trkpt><trkpt lat="35.13086730640976" lon="-5.287854388355729"><ele>444.0</ele><time>2026-04-28T10:20:05Z</time></trkpt><trkpt lat="35.13075948409776" lon="-5.287929385273599"><ele>444.0</ele><time>2026-04-28T10:20:06Z</time></trkpt><trkpt lat="35.13065736885107" lon="-5.2880098577133285"><ele>444.75</ele><time>2026-04-28T10:20:07Z</time></trkpt><trkpt lat="35.13055506879305" lon="-5.28808863656287"><ele>445.5</ele><time>2026-04-28T10:20:08Z</time></trkpt><trkpt lat="35.130445344303155" lon="-5.288161951279608"><ele>446.25</ele><time>2026-04-28T10:20:09Z</time></trkpt><trkpt lat="35.13032869391955" lon="-5.288233764885643"><ele>447.0</ele><time>2026-04-28T10:20:10Z</time></trkpt><trkpt lat="35.130208050456865" lon="-5.288302086071038"><ele>443.75</ele><time>2026-04-28T10:20:11Z</time></trkpt><trkpt lat="35.13008409148512" lon="-5.288367055794783"><ele>440.5</ele><time>2026-04-28T10:20:12Z</time></trkpt><trkpt lat="35.12995708986633" lon="-5.288434359822136"><ele>437.25</ele><time>2026-04-28T10:20:13Z</time></trkpt><trkpt lat="35.129836677795204" lon="-5.288492712499354"><ele>434.0</ele><time>2026-04-28T10:20:14Z</time></trkpt><trkpt lat="35.12972825473928" lon="-5.288529154956986"><ele>432.4</ele><time>2026-04-28T10:20:15Z</time></trkpt><trkpt lat="35.129625168032575" lon="-5.2885382142564"><ele>430.79999999999995</ele><time>2026-04-28T10:20:16Z</time></trkpt><trkpt lat="35.12951924685854" lon="-5.288513603300508"><ele>429.20000000000005</ele><time>2026-04-28T10:20:17Z</time></trkpt><trkpt lat="35.12941188956821" lon="-5.288487630394118"><ele>427.6</ele><time>2026-04-28T10:20:18Z</time></trkpt><trkpt lat="35.12930984999829" lon="-5.288400786628732"><ele>426.0</ele><time>2026-04-28T10:20:19Z</time></trkpt><trkpt lat="35.129208781192396" lon="-5.288327617934509"><ele>426.0</ele><time>2026-04-28T10:20:20Z</time></trkpt><trkpt lat="35.129101083895605" lon="-5.288244787878663"><ele>426.0</ele><time>2026-04-28T10:20:21Z</time></trkpt><trkpt lat="35.128987460035944" lon="-5.2881688678885865"><ele>426.0</ele><time>2026-04-28T10:20:22Z</time></trkpt><trkpt lat="35.12885846723551" lon="-5.288142973685747"><ele>426.0</ele><time>2026-04-28T10:20:23Z</time></trkpt><trkpt lat="35.12873596158037" lon="-5.288139063885529"><ele>423.25</ele><time>2026-04-28T10:20:24Z</time></trkpt><trkpt lat="35.128607806710484" lon="-5.288135387901717"><ele>420.5</ele><time>2026-04-28T10:20:25Z</time></trkpt><trkpt lat="35.128477830731825" lon="-5.288127304136218"><ele>417.75</ele><time>2026-04-28T10:20:26Z</time></trkpt><trkpt lat="35.12834111932197" lon="-5.288131597717303"><ele>415.0</ele><time>2026-04-28T10:20:27Z</time></trkpt><trkpt lat="35.12820632607427" lon="-5.288122797028447"><ele>416.25</ele><time>2026-04-28T10:20:28Z</time></trkpt><trkpt lat="35.128073422916174" lon="-5.288101852458537"><ele>417.5</ele><time>2026-04-28T10:20:29Z</time></trkpt><trkpt lat="35.12794400914595" lon="-5.2880690543143425"><ele>418.75</ele><time>2026-04-28T10:20:30Z</time></trkpt><trkpt lat="35.127820344426034" lon="-5.288031535095004"><ele>420.0</ele><time>2026-04-28T10:20:31Z</time></trkpt><trkpt lat="35.127697612969385" lon="-5.287985858238923"><ele>420.0</ele><time>2026-04-28T10:20:32Z</time></trkpt><trkpt lat="35.127583787561015" lon="-5.2879162351464934"><ele>420.0</ele><time>2026-04-28T10:20:33Z</time></trkpt><trkpt lat="35.12747675535121" lon="-5.28783383630232"><ele>420.0</ele><time>2026-04-28T10:20:34Z</time></trkpt><trkpt lat="35.12736961897077" lon="-5.287752858668417"><ele>420.0</ele><time>2026-04-28T10:20:35Z</time></trkpt><trkpt lat="35.127262954176636" lon="-5.287676986662722"><ele>416.75</ele><time>2026-04-28T10:20:36Z</time></trkpt><trkpt lat="35.12715096954315" lon="-5.287615543512396"><ele>413.5</ele><time>2026-04-28T10:20:37Z</time></trkpt><trkpt lat="35.127033250997485" lon="-5.287562421720441"><ele>410.25</ele><time>2026-04-28T10:20:38Z</time></trkpt><trkpt lat="35.126909745595604" lon="-5.2875185212633"><ele>407.0</ele><time>2026-04-28T10:20:39Z</time></trkpt><trkpt lat="35.12677424927588" lon="-5.2874969287655755"><ele>407.0</ele><time>2026-04-28T10:20:40Z</time></trkpt><trkpt lat="35.126630226953026" lon="-5.287507506899625"><ele>407.0</ele><time>2026-04-28T10:20:41Z</time></trkpt><trkpt lat="35.12649115021098" lon="-5.287547024967556"><ele>407.0</ele><time>2026-04-28T10:20:42Z</time></trkpt><trkpt lat="35.126362801375514" lon="-5.287602675541032"><ele>407.0</ele><time>2026-04-28T10:20:43Z</time></trkpt><trkpt lat="35.12623679530449" lon="-5.287652171897505"><ele>406.25</ele><time>2026-04-28T10:20:44Z</time></trkpt><trkpt lat="35.12611418211224" lon="-5.287704068924572"><ele>405.5</ele><time>2026-04-28T10:20:45Z</time></trkpt><trkpt lat="35.12599243666918" lon="-5.287756321758377"><ele>404.75</ele><time>2026-04-28T10:20:46Z</time></trkpt><trkpt lat="35.12586991240612" lon="-5.287805345761429"><ele>404.0</ele><time>2026-04-28T10:20:47Z</time></trkpt><trkpt lat="35.12574944183898" lon="-5.287851329943056"><ele>405.5</ele><time>2026-04-28T10:20:48Z</time></trkpt><trkpt lat="35.125629895387476" lon="-5.287898021728031"><ele>407.0</ele><time>2026-04-28T10:20:49Z</time></trkpt><trkpt lat="35.12551269879966" lon="-5.287946675321888"><ele>408.5</ele><time>2026-04-28T10:20:50Z</time></trkpt><trkpt lat="35.12539723822144" lon="-5.287998757636579"><ele>410.0</ele><time>2026-04-28T10:20:51Z</time></trkpt><trkpt lat="35.12528527349165" lon="-5.28805853676522"><ele>407.75</ele><time>2026-04-28T10:20:52Z</time></trkpt><trkpt lat="35.125181652204006" lon="-5.288126165197623"><ele>405.5</ele><time>2026-04-28T10:20:53Z</time></trkpt><trkpt lat="35.12508303517078" lon="-5.288197115555481"><ele>403.25</ele><time>2026-04-28T10:20:54Z</time></trkpt><trkpt lat="35.12498622837911" lon="-5.288274570630841"><ele>401.0</ele><time>2026-04-28T10:20:55Z</time></trkpt><trkpt lat="35.12488974565894" lon="-5.288361813037824"><ele>401.0</ele><time>2026-04-28T10:20:56Z</time></trkpt><trkpt lat="35.12479377061337" lon="-5.288450273942546"><ele>401.0</ele><time>2026-04-28T10:20:57Z</time></trkpt><trkpt lat="35.124689760329126" lon="-5.288529136850663"><ele>401.0</ele><time>2026-04-28T10:20:58Z</time></trkpt><trkpt lat="35.12457951880438" lon="-5.288594794121182"><ele>401.0</ele><time>2026-04-28T10:20:59Z</time></trkpt><trkpt lat="35.124463742675296" lon="-5.288658848118701"><ele>401.0</ele><time>2026-04-28T10:21:00Z</time></trkpt><trkpt lat="35.12435408927417" lon="-5.288734784795858"><ele>401.0</ele><time>2026-04-28T10:21:01Z</time></trkpt><trkpt lat="35.12424984313513" lon="-5.288830578324786"><ele>401.0</ele><time>2026-04-28T10:21:02Z</time></trkpt><trkpt lat="35.12414827961953" lon="-5.288932173634451"><ele>401.0</ele><time>2026-04-28T10:21:03Z</time></trkpt><trkpt lat="35.12404283559499" lon="-5.289036152744961"><ele>397.75</ele><time>2026-04-28T10:21:04Z</time></trkpt><trkpt lat="35.12393763017323" lon="-5.289144976690834"><ele>394.5</ele><time>2026-04-28T10:21:05Z</time></trkpt><trkpt lat="35.12383126155842" lon="-5.289255990449275"><ele>391.25</ele><time>2026-04-28T10:21:06Z</time></trkpt><trkpt lat="35.12372166762571" lon="-5.289365389190802"><ele>388.0</ele><time>2026-04-28T10:21:07Z</time></trkpt><trkpt lat="35.12361512586399" lon="-5.289475162181534"><ele>388.0</ele><time>2026-04-28T10:21:08Z</time></trkpt><trkpt lat="35.12350912879693" lon="-5.289582682158822"><ele>388.0</ele><time>2026-04-28T10:21:09Z</time></trkpt><trkpt lat="35.1234076582076" lon="-5.289681116105031"><ele>388.0</ele><time>2026-04-28T10:21:10Z</time></trkpt><trkpt lat="35.1233151201433" lon="-5.2897605210838945"><ele>388.0</ele><time>2026-04-28T10:21:11Z</time></trkpt><trkpt lat="35.12322084658583" lon="-5.289812223028721"><ele>387.4</ele><time>2026-04-28T10:21:12Z</time></trkpt><trkpt lat="35.123122350618814" lon="-5.289836654346078"><ele>386.79999999999995</ele><time>2026-04-28T10:21:13Z</time></trkpt><trkpt lat="35.123020642715176" lon="-5.289831173080345"><ele>386.2</ele><time>2026-04-28T10:21:14Z</time></trkpt><trkpt lat="35.12292340502254" lon="-5.289789066337434"><ele>385.6</ele><time>2026-04-28T10:21:15Z</time></trkpt><trkpt lat="35.122830551923194" lon="-5.289730120231647"><ele>385.0</ele><time>2026-04-28T10:21:16Z</time></trkpt><trkpt lat="35.1227390101646" lon="-5.289660278416629"><ele>385.0</ele><time>2026-04-28T10:21:17Z</time></trkpt><trkpt lat="35.12265093825049" lon="-5.289576310098304"><ele>385.0</ele><time>2026-04-28T10:21:18Z</time></trkpt><trkpt lat="35.12256213714939" lon="-5.289485838947934"><ele>385.0</ele><time>2026-04-28T10:21:19Z</time></trkpt><trkpt lat="35.122466983672076" lon="-5.28939643884936"><ele>385.0</ele><time>2026-04-28T10:21:20Z</time></trkpt><trkpt lat="35.12236209488447" lon="-5.289313110244735"><ele>383.0</ele><time>2026-04-28T10:21:21Z</time></trkpt><trkpt lat="35.12224852036744" lon="-5.289239856750854"><ele>381.0</ele><time>2026-04-28T10:21:22Z</time></trkpt><trkpt lat="35.122127471333734" lon="-5.289175990659245"><ele>379.0</ele><time>2026-04-28T10:21:23Z</time></trkpt><trkpt lat="35.122008208837826" lon="-5.289116576536956"><ele>377.0</ele><time>2026-04-28T10:21:24Z</time></trkpt><trkpt lat="35.121890585015166" lon="-5.289055413706973"><ele>377.0</ele><time>2026-04-28T10:21:25Z</time></trkpt><trkpt lat="35.12176650021116" lon="-5.289015296959772"><ele>377.0</ele><time>2026-04-28T10:21:26Z</time></trkpt><trkpt lat="35.12163713538042" lon="-5.289043960262472"><ele>377.0</ele><time>2026-04-28T10:21:27Z</time></trkpt><trkpt lat="35.121510944691586" lon="-5.289052739626294"><ele>377.0</ele><time>2026-04-28T10:21:28Z</time></trkpt><trkpt lat="35.12138700725686" lon="-5.289049756137485"><ele>376.0</ele><time>2026-04-28T10:21:29Z</time></trkpt><trkpt lat="35.121263052570264" lon="-5.289057902081342"><ele>375.0</ele><time>2026-04-28T10:21:30Z</time></trkpt><trkpt lat="35.121139655322594" lon="-5.289061536984615"><ele>374.0</ele><time>2026-04-28T10:21:31Z</time></trkpt><trkpt lat="35.12101612959355" lon="-5.289088799068275"><ele>373.0</ele><time>2026-04-28T10:21:32Z</time></trkpt><trkpt lat="35.12089028852759" lon="-5.289073918539105"><ele>373.0</ele><time>2026-04-28T10:21:33Z</time></trkpt><trkpt lat="35.120765303526284" lon="-5.289071893365557"><ele>373.0</ele><time>2026-04-28T10:21:34Z</time></trkpt><trkpt lat="35.12064225489207" lon="-5.2890553746581155"><ele>373.0</ele><time>2026-04-28T10:21:35Z</time></trkpt><trkpt lat="35.12052185707324" lon="-5.289021732896643"><ele>373.0</ele><time>2026-04-28T10:21:36Z</time></trkpt><trkpt lat="35.12040221342655" lon="-5.2889821817677225"><ele>371.25</ele><time>2026-04-28T10:21:37Z</time></trkpt><trkpt lat="35.12027685852625" lon="-5.288970943213621"><ele>369.5</ele><time>2026-04-28T10:21:38Z</time></trkpt><trkpt lat="35.120160105985114" lon="-5.288928932107204"><ele>367.75</ele><time>2026-04-28T10:21:39Z</time></trkpt><trkpt lat="35.12004052352985" lon="-5.288962349409739"><ele>366.0</ele><time>2026-04-28T10:21:40Z</time></trkpt><trkpt lat="35.1199214118115" lon="-5.288973773685722"><ele>365.0</ele><time>2026-04-28T10:21:41Z</time></trkpt><trkpt lat="35.11980298178032" lon="-5.288966826407289"><ele>364.0</ele><time>2026-04-28T10:21:42Z</time></trkpt><trkpt lat="35.119689055344" lon="-5.288980782893763"><ele>363.0</ele><time>2026-04-28T10:21:43Z</time></trkpt><trkpt lat="35.11957951879535" lon="-5.288996565211588"><ele>362.0</ele><time>2026-04-28T10:21:44Z</time></trkpt><trkpt lat="35.11947248706224" lon="-5.289013610345889"><ele>362.0</ele><time>2026-04-28T10:21:45Z</time></trkpt><trkpt lat="35.11936535615254" lon="-5.289029832417634"><ele>362.0</ele><time>2026-04-28T10:21:46Z</time></trkpt><trkpt lat="35.119259531436875" lon="-5.28904623561407"><ele>362.0</ele><time>2026-04-28T10:21:47Z</time></trkpt><trkpt lat="35.119153233573044" lon="-5.289062543592707"><ele>362.0</ele><time>2026-04-28T10:21:48Z</time></trkpt><trkpt lat="35.11904891401285" lon="-5.289077632781139"><ele>362.0</ele><time>2026-04-28T10:21:49Z</time></trkpt><trkpt lat="35.118945911140756" lon="-5.289089482862428"><ele>362.20000000000005</ele><time>2026-04-28T10:21:50Z</time></trkpt><trkpt lat="35.11885064432279" lon="-5.289102752685297"><ele>362.4</ele><time>2026-04-28T10:21:51Z</time></trkpt><trkpt lat="35.118758796474225" lon="-5.289116315693215"><ele>362.6</ele><time>2026-04-28T10:21:52Z</time></trkpt><trkpt lat="35.118666891414726" lon="-5.289129310957817"><ele>362.79999999999995</ele><time>2026-04-28T10:21:53Z</time></trkpt><trkpt lat="35.11857557178823" lon="-5.28914197102214"><ele>363.0</ele><time>2026-04-28T10:21:54Z</time></trkpt><trkpt lat="35.11848065997879" lon="-5.2891539158567324"><ele>363.0</ele><time>2026-04-28T10:21:55.001Z</time></trkpt><trkpt lat="35.11839115331447" lon="-5.289168843390082"><ele>363.0</ele><time>2026-04-28T10:21:56.001Z</time></trkpt><trkpt lat="35.1183078824156" lon="-5.289181949033168"><ele>363.0</ele><time>2026-04-28T10:21:57.001Z</time></trkpt><trkpt lat="35.11822334452416" lon="-5.289195259273728"><ele>363.0</ele><time>2026-04-28T10:21:58.001Z</time></trkpt><trkpt lat="35.118132942977496" lon="-5.289208080082237"><ele>363.0</ele><time>2026-04-28T10:21:59.001Z</time></trkpt><trkpt lat="35.11803885652756" lon="-5.2892205402538215"><ele>363.0</ele><time>2026-04-28T10:22:00.001Z</time></trkpt><trkpt lat="35.11794301891309" lon="-5.289235862856633"><ele>363.5</ele><time>2026-04-28T10:22:01.001Z</time></trkpt><trkpt lat="35.11785061834865" lon="-5.28925303860451"><ele>364.0</ele><time>2026-04-28T10:22:02.001Z</time></trkpt><trkpt lat="35.11777395226446" lon="-5.28926849658977"><ele>364.5</ele><time>2026-04-28T10:22:03.001Z</time></trkpt><trkpt lat="35.11770781249199" lon="-5.289289100509681"><ele>365.0</ele><time>2026-04-28T10:22:04.001Z</time></trkpt><trkpt lat="35.11761156973718" lon="-5.289362873528547"><ele>365.5</ele><time>2026-04-28T10:22:06.001Z</time></trkpt><trkpt lat="35.117565623954526" lon="-5.289455332246001"><ele>366.0</ele><time>2026-04-28T10:22:08.001Z</time></trkpt><trkpt lat="35.11755708634908" lon="-5.289563554679213"><ele>366.0</ele><time>2026-04-28T10:22:10.001Z</time></trkpt><trkpt lat="35.11757126481954" lon="-5.289690804241929"><ele>366.0</ele><time>2026-04-28T10:22:12.001Z</time></trkpt><trkpt lat="35.11756762510012" lon="-5.289832916021785"><ele>366.0</ele><time>2026-04-28T10:22:14.001Z</time></trkpt><trkpt lat="35.1175120531027" lon="-5.289940047960684"><ele>366.0</ele><time>2026-04-28T10:22:16.001Z</time></trkpt><trkpt lat="35.117418308564204" lon="-5.289970246598876"><ele>366.0</ele><time>2026-04-28T10:22:18Z</time></trkpt><trkpt lat="35.11732140136758" lon="-5.289925559376711"><ele>366.8333333333333</ele><time>2026-04-28T10:22:20Z</time></trkpt><trkpt lat="35.11726882684372" lon="-5.289880614573821"><ele>367.6666666666667</ele><time>2026-04-28T10:22:21Z</time></trkpt><trkpt lat="35.11721588672379" lon="-5.289827567988518"><ele>368.5</ele><time>2026-04-28T10:22:22Z</time></trkpt><trkpt lat="35.11714902516714" lon="-5.2897651834244925"><ele>369.33333333333337</ele><time>2026-04-28T10:22:23Z</time></trkpt><trkpt lat="35.117079423191356" lon="-5.289708847396356"><ele>370.1666666666667</ele><time>2026-04-28T10:22:24Z</time></trkpt><trkpt lat="35.11699312880561" lon="-5.289659259681304"><ele>371.0</ele><time>2026-04-28T10:22:25Z</time></trkpt><trkpt lat="35.116936806332625" lon="-5.289596427322415"><ele>371.0</ele><time>2026-04-28T10:22:26Z</time></trkpt><trkpt lat="35.11682524373116" lon="-5.2895175952164495"><ele>371.0</ele><time>2026-04-28T10:22:27Z</time></trkpt><trkpt lat="35.11672345723687" lon="-5.289423836222268"><ele>371.0</ele><time>2026-04-28T10:22:28Z</time></trkpt><trkpt lat="35.11663514903439" lon="-5.289343165125246"><ele>371.0</ele><time>2026-04-28T10:22:29Z</time></trkpt><trkpt lat="35.11653688401787" lon="-5.289257441273931"><ele>371.0</ele><time>2026-04-28T10:22:30Z</time></trkpt><trkpt lat="35.116445925138336" lon="-5.289176996741648"><ele>371.0</ele><time>2026-04-28T10:22:31Z</time></trkpt><trkpt lat="35.11636260823786" lon="-5.289102172766742"><ele>371.0</ele><time>2026-04-28T10:22:32Z</time></trkpt><trkpt lat="35.11628908770615" lon="-5.289019903195731"><ele>371.0</ele><time>2026-04-28T10:22:33Z</time></trkpt><trkpt lat="35.11621344252036" lon="-5.288931556827283"><ele>371.0</ele><time>2026-04-28T10:22:34Z</time></trkpt><trkpt lat="35.11613816489687" lon="-5.288849563887086"><ele>371.0</ele><time>2026-04-28T10:22:35Z</time></trkpt><trkpt lat="35.11606242729244" lon="-5.288765224175651"><ele>371.0</ele><time>2026-04-28T10:22:36Z</time></trkpt><trkpt lat="35.11597878681047" lon="-5.288671150830426"><ele>371.0</ele><time>2026-04-28T10:22:37Z</time></trkpt><trkpt lat="35.115897115972025" lon="-5.288581696074353"><ele>371.0</ele><time>2026-04-28T10:22:38Z</time></trkpt><trkpt lat="35.11579326430387" lon="-5.288508870616922"><ele>371.0</ele><time>2026-04-28T10:22:39Z</time></trkpt><trkpt lat="35.1156747336302" lon="-5.288436753831618"><ele>373.0</ele><time>2026-04-28T10:22:40Z</time></trkpt><trkpt lat="35.11553993371321" lon="-5.288371307985131"><ele>375.0</ele><time>2026-04-28T10:22:41Z</time></trkpt><trkpt lat="35.11538802096267" lon="-5.288300277394602"><ele>377.0</ele><time>2026-04-28T10:22:42Z</time></trkpt><trkpt lat="35.11521743247895" lon="-5.288209618405422"><ele>377.0</ele><time>2026-04-28T10:22:43Z</time></trkpt><trkpt lat="35.115024576105576" lon="-5.288109537695173"><ele>377.0</ele><time>2026-04-28T10:22:44Z</time></trkpt><trkpt lat="35.114823988974614" lon="-5.288000737667306"><ele>377.0</ele><time>2026-04-28T10:22:45Z</time></trkpt><trkpt lat="35.114639616858184" lon="-5.287912989264293"><ele>376.33333333333337</ele><time>2026-04-28T10:22:46Z</time></trkpt><trkpt lat="35.11446676688301" lon="-5.287841785248965"><ele>375.6666666666667</ele><time>2026-04-28T10:22:47Z</time></trkpt><trkpt lat="35.114298702418516" lon="-5.287791642554858"><ele>375.0</ele><time>2026-04-28T10:22:48Z</time></trkpt><trkpt lat="35.114134383696104" lon="-5.2877706511901845"><ele>376.0</ele><time>2026-04-28T10:22:49Z</time></trkpt><trkpt lat="35.113979073774544" lon="-5.287746638341256"><ele>377.0</ele><time>2026-04-28T10:22:50Z</time></trkpt><trkpt lat="35.11383072357658" lon="-5.287714246497477"><ele>378.0</ele><time>2026-04-28T10:22:51Z</time></trkpt><trkpt lat="35.113678965454696" lon="-5.287682895008909"><ele>378.0</ele><time>2026-04-28T10:22:52Z</time></trkpt><trkpt lat="35.11352964847213" lon="-5.287652014739598"><ele>378.0</ele><time>2026-04-28T10:22:53Z</time></trkpt><trkpt lat="35.11338195473832" lon="-5.287624203936351"><ele>378.0</ele><time>2026-04-28T10:22:54Z</time></trkpt><trkpt lat="35.11323459409449" lon="-5.28759943057842"><ele>378.75</ele><time>2026-04-28T10:22:55Z</time></trkpt><trkpt lat="35.11308679891324" lon="-5.287570435011737"><ele>379.5</ele><time>2026-04-28T10:22:56Z</time></trkpt><trkpt lat="35.112940242888136" lon="-5.2875392972117"><ele>380.25</ele><time>2026-04-28T10:22:57Z</time></trkpt><trkpt lat="35.11279408978665" lon="-5.287509910874649"><ele>381.0</ele><time>2026-04-28T10:22:58Z</time></trkpt><trkpt lat="35.11264884985269" lon="-5.2874830632604"><ele>381.0</ele><time>2026-04-28T10:22:59Z</time></trkpt><trkpt lat="35.11250544843862" lon="-5.287454838369617"><ele>381.0</ele><time>2026-04-28T10:23:00Z</time></trkpt><trkpt lat="35.1123638413312" lon="-5.287427742822216"><ele>381.0</ele><time>2026-04-28T10:23:01Z</time></trkpt><trkpt lat="35.11222455338052" lon="-5.287403938079078"><ele>381.0</ele><time>2026-04-28T10:23:02Z</time></trkpt><trkpt lat="35.11208722069161" lon="-5.287378959662878"><ele>381.5</ele><time>2026-04-28T10:23:03Z</time></trkpt><trkpt lat="35.11195261129041" lon="-5.287351470566989"><ele>382.0</ele><time>2026-04-28T10:23:04Z</time></trkpt><trkpt lat="35.11181951442238" lon="-5.287327173554181"><ele>382.5</ele><time>2026-04-28T10:23:05Z</time></trkpt><trkpt lat="35.111687947480505" lon="-5.287305954373448"><ele>383.0</ele><time>2026-04-28T10:23:06Z</time></trkpt><trkpt lat="35.11156071120997" lon="-5.2872869376361376"><ele>383.0</ele><time>2026-04-28T10:23:07Z</time></trkpt><trkpt lat="35.11144000912576" lon="-5.287267015915519"><ele>383.0</ele><time>2026-04-28T10:23:08Z</time></trkpt><trkpt lat="35.11132837628161" lon="-5.287255397879868"><ele>383.0</ele><time>2026-04-28T10:23:09Z</time></trkpt><trkpt lat="35.11122556542424" lon="-5.287251945043418"><ele>383.0</ele><time>2026-04-28T10:23:10Z</time></trkpt><trkpt lat="35.11112816682111" lon="-5.287256294235944"><ele>383.0</ele><time>2026-04-28T10:23:11Z</time></trkpt><trkpt lat="35.111037008395506" lon="-5.287262518626044"><ele>383.0</ele><time>2026-04-28T10:23:12Z</time></trkpt><trkpt lat="35.110947603786954" lon="-5.2872692082597865"><ele>383.0</ele><time>2026-04-28T10:23:13Z</time></trkpt><trkpt lat="35.11085719456596" lon="-5.28727891424946"><ele>383.0</ele><time>2026-04-28T10:23:14Z</time></trkpt><trkpt lat="35.11077363520828" lon="-5.287287357635354"><ele>383.0</ele><time>2026-04-28T10:23:15Z</time></trkpt><trkpt lat="35.110698408490656" lon="-5.287275850485676"><ele>383.0</ele><time>2026-04-28T10:23:16Z</time></trkpt><trkpt lat="35.11063340387339" lon="-5.287225935483216"><ele>383.0</ele><time>2026-04-28T10:23:17Z</time></trkpt><trkpt lat="35.11057920692538" lon="-5.287137608832405"><ele>382.59999999999997</ele><time>2026-04-28T10:23:18Z</time></trkpt><trkpt lat="35.110532211041914" lon="-5.2870358173135505"><ele>382.2</ele><time>2026-04-28T10:23:19Z</time></trkpt><trkpt lat="35.110480455534336" lon="-5.286932119384907"><ele>381.8</ele><time>2026-04-28T10:23:20Z</time></trkpt><trkpt lat="35.110417877840234" lon="-5.286829246085839"><ele>381.4</ele><time>2026-04-28T10:23:21Z</time></trkpt><trkpt lat="35.1103499397692" lon="-5.286727111512434"><ele>381.0</ele><time>2026-04-28T10:23:22Z</time></trkpt><trkpt lat="35.11028011075812" lon="-5.286620674679051"><ele>381.0</ele><time>2026-04-28T10:23:23Z</time></trkpt><trkpt lat="35.11020430022777" lon="-5.286515242653822"><ele>381.0</ele><time>2026-04-28T10:23:24Z</time></trkpt><trkpt lat="35.11011792880993" lon="-5.2864132628079865"><ele>381.0</ele><time>2026-04-28T10:23:25Z</time></trkpt><trkpt lat="35.11002953207924" lon="-5.286318804329034"><ele>381.0</ele><time>2026-04-28T10:23:26Z</time></trkpt><trkpt lat="35.1099481746112" lon="-5.286229967058224"><ele>381.4</ele><time>2026-04-28T10:23:27Z</time></trkpt><trkpt lat="35.1098744127245" lon="-5.286143370000942"><ele>381.8</ele><time>2026-04-28T10:23:28Z</time></trkpt><trkpt lat="35.10980411754494" lon="-5.286060984878845"><ele>382.2</ele><time>2026-04-28T10:23:29Z</time></trkpt><trkpt lat="35.10973560448872" lon="-5.2859809242853535"><ele>382.59999999999997</ele><time>2026-04-28T10:23:30Z</time></trkpt><trkpt lat="35.109666981328154" lon="-5.28590075714529"><ele>383.0</ele><time>2026-04-28T10:23:31Z</time></trkpt><trkpt lat="35.10959794712483" lon="-5.285815285939478"><ele>383.0</ele><time>2026-04-28T10:23:32Z</time></trkpt><trkpt lat="35.10951141796037" lon="-5.285738869669993"><ele>383.0</ele><time>2026-04-28T10:23:33Z</time></trkpt><trkpt lat="35.10943367439455" lon="-5.285629155011362"><ele>383.0</ele><time>2026-04-28T10:23:34Z</time></trkpt><trkpt lat="35.10932926349319" lon="-5.285528784702394"><ele>383.0</ele><time>2026-04-28T10:23:35Z</time></trkpt><trkpt lat="35.10921829024525" lon="-5.285412845066161"><ele>382.0</ele><time>2026-04-28T10:23:36Z</time></trkpt><trkpt lat="35.10910495193328" lon="-5.285282425307693"><ele>381.0</ele><time>2026-04-28T10:23:37Z</time></trkpt><trkpt lat="35.108989133835514" lon="-5.2851465731676806"><ele>380.0</ele><time>2026-04-28T10:23:38Z</time></trkpt><trkpt lat="35.10887590791111" lon="-5.285021619747452"><ele>381.33333333333337</ele><time>2026-04-28T10:23:39Z</time></trkpt><trkpt lat="35.10875415495331" lon="-5.284890625439304"><ele>382.6666666666667</ele><time>2026-04-28T10:23:40Z</time></trkpt><trkpt lat="35.108631972129956" lon="-5.284752510054352"><ele>384.0</ele><time>2026-04-28T10:23:41Z</time></trkpt><trkpt lat="35.10850901856343" lon="-5.284607088581851"><ele>384.0</ele><time>2026-04-28T10:23:42Z</time></trkpt><trkpt lat="35.10838147157926" lon="-5.284459031766799"><ele>384.0</ele><time>2026-04-28T10:23:43Z</time></trkpt><trkpt lat="35.10825583815595" lon="-5.2843133395530035"><ele>384.0</ele><time>2026-04-28T10:23:44Z</time></trkpt><trkpt lat="35.10813216019433" lon="-5.284170052992542"><ele>383.0</ele><time>2026-04-28T10:23:45Z</time></trkpt><trkpt lat="35.10800833152652" lon="-5.284034836977092"><ele>382.0</ele><time>2026-04-28T10:23:46Z</time></trkpt><trkpt lat="35.10787642779276" lon="-5.283911740868743"><ele>381.0</ele><time>2026-04-28T10:23:47Z</time></trkpt><trkpt lat="35.10773084961664" lon="-5.283798590231942"><ele>381.0</ele><time>2026-04-28T10:23:48Z</time></trkpt><trkpt lat="35.10757473826296" lon="-5.283693229205059"><ele>381.0</ele><time>2026-04-28T10:23:49Z</time></trkpt><trkpt lat="35.10741633430484" lon="-5.28358106237684"><ele>381.0</ele><time>2026-04-28T10:23:50Z</time></trkpt><trkpt lat="35.107257996531295" lon="-5.283462831453906"><ele>382.66666666666663</ele><time>2026-04-28T10:23:51Z</time></trkpt><trkpt lat="35.10708498330471" lon="-5.283369868552904"><ele>384.3333333333333</ele><time>2026-04-28T10:23:52Z</time></trkpt><trkpt lat="35.106915094315724" lon="-5.283266377477932"><ele>386.0</ele><time>2026-04-28T10:23:53Z</time></trkpt><trkpt lat="35.106739652967974" lon="-5.283170424000598"><ele>386.0</ele><time>2026-04-28T10:23:54Z</time></trkpt><trkpt lat="35.10656206254616" lon="-5.283072877639488"><ele>386.0</ele><time>2026-04-28T10:23:55Z</time></trkpt><trkpt lat="35.10638030033513" lon="-5.282937860671303"><ele>386.0</ele><time>2026-04-28T10:23:56Z</time></trkpt><trkpt lat="35.10623741358948" lon="-5.282785943747923"><ele>386.0</ele><time>2026-04-28T10:23:57Z</time></trkpt><trkpt lat="35.10609273790827" lon="-5.2826318090616295"><ele>386.0</ele><time>2026-04-28T10:23:58Z</time></trkpt><trkpt lat="35.10596939559117" lon="-5.2824361758699485"><ele>386.0</ele><time>2026-04-28T10:23:59Z</time></trkpt><trkpt lat="35.10582221353127" lon="-5.282253837489982"><ele>388.3333333333333</ele><time>2026-04-28T10:24:00.001Z</time></trkpt><trkpt lat="35.10567279679265" lon="-5.282060619403614"><ele>390.66666666666663</ele><time>2026-04-28T10:24:01.001Z</time></trkpt><trkpt lat="35.10551881726376" lon="-5.281864764290742"><ele>393.0</ele><time>2026-04-28T10:24:02.001Z</time></trkpt><trkpt lat="35.10535633051015" lon="-5.281660546617348"><ele>393.0</ele><time>2026-04-28T10:24:03.001Z</time></trkpt><trkpt lat="35.105223269758326" lon="-5.281443209084109"><ele>393.0</ele><time>2026-04-28T10:24:04.001Z</time></trkpt><trkpt lat="35.10508714665729" lon="-5.281221572242937"><ele>393.0</ele><time>2026-04-28T10:24:05.001Z</time></trkpt><trkpt lat="35.104950804662195" lon="-5.281000655251536"><ele>393.66666666666663</ele><time>2026-04-28T10:24:06.001Z</time></trkpt><trkpt lat="35.104799731867985" lon="-5.2808013369858875"><ele>394.3333333333333</ele><time>2026-04-28T10:24:07.001Z</time></trkpt><trkpt lat="35.10464576771259" lon="-5.280603364079625"><ele>395.0</ele><time>2026-04-28T10:24:08.001Z</time></trkpt><trkpt lat="35.1044893202898" lon="-5.280397777591266"><ele>394.66666666666663</ele><time>2026-04-28T10:24:09.001Z</time></trkpt><trkpt lat="35.10435350535677" lon="-5.280184041853211"><ele>394.33333333333337</ele><time>2026-04-28T10:24:10.001Z</time></trkpt><trkpt lat="35.10421534227255" lon="-5.279968383919116"><ele>394.0</ele><time>2026-04-28T10:24:11.001Z</time></trkpt><trkpt lat="35.104075781932536" lon="-5.279749648452568"><ele>394.0</ele><time>2026-04-28T10:24:12.001Z</time></trkpt><trkpt lat="35.10393623411567" lon="-5.2795306091031895"><ele>394.0</ele><time>2026-04-28T10:24:13.001Z</time></trkpt><trkpt lat="35.103796590151035" lon="-5.279311733456784"><ele>394.0</ele><time>2026-04-28T10:24:14.001Z</time></trkpt><trkpt lat="35.10365808986572" lon="-5.279094608322346"><ele>394.0</ele><time>2026-04-28T10:24:15.001Z</time></trkpt><trkpt lat="35.10352139042708" lon="-5.2788794468234945"><ele>394.0</ele><time>2026-04-28T10:24:16.001Z</time></trkpt><trkpt lat="35.10339852918772" lon="-5.278653362012738"><ele>395.0</ele><time>2026-04-28T10:24:17.001Z</time></trkpt><trkpt lat="35.103259497871406" lon="-5.278445167309133"><ele>396.0</ele><time>2026-04-28T10:24:18.001Z</time></trkpt><trkpt lat="35.10312452529321" lon="-5.278245222042024"><ele>397.0</ele><time>2026-04-28T10:24:19Z</time></trkpt><trkpt lat="35.10299580062872" lon="-5.278058580666539"><ele>394.0</ele><time>2026-04-28T10:24:20Z</time></trkpt><trkpt lat="35.10285548063541" lon="-5.277894937569597"><ele>391.0</ele><time>2026-04-28T10:24:21Z</time></trkpt><trkpt lat="35.10271466252775" lon="-5.277743817133202"><ele>388.0</ele><time>2026-04-28T10:24:22Z</time></trkpt><trkpt lat="35.10258495634094" lon="-5.27758753165652"><ele>388.0</ele><time>2026-04-28T10:24:23Z</time></trkpt><trkpt lat="35.10243584607927" lon="-5.277465963571541"><ele>388.0</ele><time>2026-04-28T10:24:24Z</time></trkpt><trkpt lat="35.10228665249386" lon="-5.277342296152851"><ele>388.0</ele><time>2026-04-28T10:24:25Z</time></trkpt><trkpt lat="35.102139893710046" lon="-5.27721546219329"><ele>388.0</ele><time>2026-04-28T10:24:26Z</time></trkpt><trkpt lat="35.101993371502935" lon="-5.277090646450254"><ele>388.0</ele><time>2026-04-28T10:24:27Z</time></trkpt><trkpt lat="35.101848957743144" lon="-5.2769690210803635"><ele>388.0</ele><time>2026-04-28T10:24:28Z</time></trkpt><trkpt lat="35.10171285923595" lon="-5.276846480276255"><ele>388.0</ele><time>2026-04-28T10:24:29Z</time></trkpt><trkpt lat="35.10158602423023" lon="-5.276722112939081"><ele>388.0</ele><time>2026-04-28T10:24:30Z</time></trkpt><trkpt lat="35.10146669429999" lon="-5.276594745711265"><ele>388.0</ele><time>2026-04-28T10:24:31Z</time></trkpt><trkpt lat="35.10135860826701" lon="-5.276450181133404"><ele>391.6666666666667</ele><time>2026-04-28T10:24:32Z</time></trkpt><trkpt lat="35.10125439853035" lon="-5.276286381986836"><ele>395.33333333333337</ele><time>2026-04-28T10:24:33Z</time></trkpt><trkpt lat="35.10114975399378" lon="-5.276105556135037"><ele>399.0</ele><time>2026-04-28T10:24:34Z</time></trkpt><trkpt lat="35.1010449964097" lon="-5.275913151339135"><ele>399.0</ele><time>2026-04-28T10:24:35Z</time></trkpt><trkpt lat="35.10093004499445" lon="-5.275717412428309"><ele>399.0</ele><time>2026-04-28T10:24:36Z</time></trkpt><trkpt lat="35.10080947926371" lon="-5.2755163425968545"><ele>399.0</ele><time>2026-04-28T10:24:37Z</time></trkpt><trkpt lat="35.100691205049486" lon="-5.275306122754067"><ele>399.33333333333337</ele><time>2026-04-28T10:24:38Z</time></trkpt><trkpt lat="35.10056838842691" lon="-5.275086519838183"><ele>399.6666666666667</ele><time>2026-04-28T10:24:39Z</time></trkpt><trkpt lat="35.10044294002031" lon="-5.274864242503381"><ele>400.0</ele><time>2026-04-28T10:24:40Z</time></trkpt><trkpt lat="35.10032070651062" lon="-5.2746452888426285"><ele>400.0</ele><time>2026-04-28T10:24:41Z</time></trkpt><trkpt lat="35.100196950040825" lon="-5.274424642406677"><ele>400.0</ele><time>2026-04-28T10:24:42Z</time></trkpt><trkpt lat="35.10007394157478" lon="-5.274201873489821"><ele>400.0</ele><time>2026-04-28T10:24:43Z</time></trkpt><trkpt lat="35.09994986549839" lon="-5.273977636524565"><ele>401.6666666666667</ele><time>2026-04-28T10:24:44Z</time></trkpt><trkpt lat="35.09982240601714" lon="-5.273753888126693"><ele>403.33333333333337</ele><time>2026-04-28T10:24:45Z</time></trkpt><trkpt lat="35.099693123590036" lon="-5.273528098276162"><ele>405.0</ele><time>2026-04-28T10:24:46Z</time></trkpt><trkpt lat="35.0995637389384" lon="-5.273299485291134"><ele>403.66666666666663</ele><time>2026-04-28T10:24:47Z</time></trkpt><trkpt lat="35.099437979585936" lon="-5.273073904201975"><ele>402.3333333333333</ele><time>2026-04-28T10:24:48Z</time></trkpt><trkpt lat="35.099311971946314" lon="-5.272849013895472"><ele>401.0</ele><time>2026-04-28T10:24:49Z</time></trkpt><trkpt lat="35.09918697098656" lon="-5.27263189089871"><ele>404.0</ele><time>2026-04-28T10:24:50Z</time></trkpt><trkpt lat="35.09906506229425" lon="-5.272420674450255"><ele>407.0</ele><time>2026-04-28T10:24:51Z</time></trkpt><trkpt lat="35.098948430740876" lon="-5.272207365523921"><ele>410.0</ele><time>2026-04-28T10:24:52Z</time></trkpt><trkpt lat="35.098839567256256" lon="-5.271988541011473"><ele>410.0</ele><time>2026-04-28T10:24:53Z</time></trkpt><trkpt lat="35.09875086315972" lon="-5.2717586632907745"><ele>410.0</ele><time>2026-04-28T10:24:54Z</time></trkpt><trkpt lat="35.098688187904294" lon="-5.2715107486945065"><ele>410.0</ele><time>2026-04-28T10:24:55Z</time></trkpt><trkpt lat="35.09863843922971" lon="-5.271251352593686"><ele>408.3333333333333</ele><time>2026-04-28T10:24:56Z</time></trkpt><trkpt lat="35.09857862548232" lon="-5.270990958564229"><ele>406.66666666666663</ele><time>2026-04-28T10:24:57Z</time></trkpt><trkpt lat="35.09851340878813" lon="-5.270732656508053"><ele>405.0</ele><time>2026-04-28T10:24:58Z</time></trkpt><trkpt lat="35.098451586900175" lon="-5.270478964237092"><ele>403.33333333333337</ele><time>2026-04-28T10:24:59Z</time></trkpt><trkpt lat="35.098393522143716" lon="-5.270226098650218"><ele>401.6666666666667</ele><time>2026-04-28T10:25:00Z</time></trkpt><trkpt lat="35.098335465035" lon="-5.269973690561427"><ele>400.0</ele><time>2026-04-28T10:25:01Z</time></trkpt><trkpt lat="35.0982775200834" lon="-5.269726449906345"><ele>405.33333333333337</ele><time>2026-04-28T10:25:02Z</time></trkpt><trkpt lat="35.098214429760716" lon="-5.269482645193625"><ele>410.66666666666663</ele><time>2026-04-28T10:25:03Z</time></trkpt><trkpt lat="35.09815786220787" lon="-5.26923539224583"><ele>416.0</ele><time>2026-04-28T10:25:04Z</time></trkpt><trkpt lat="35.09813028204659" lon="-5.268980497290801"><ele>415.66666666666663</ele><time>2026-04-28T10:25:05Z</time></trkpt><trkpt lat="35.09813081443438" lon="-5.2687188429377985"><ele>415.33333333333337</ele><time>2026-04-28T10:25:06Z</time></trkpt><trkpt lat="35.09813921470945" lon="-5.268456140743761"><ele>415.0</ele><time>2026-04-28T10:25:07Z</time></trkpt><trkpt lat="35.098148248724605" lon="-5.268200438569014"><ele>415.0</ele><time>2026-04-28T10:25:08Z</time></trkpt><trkpt lat="35.098147234600305" lon="-5.2679590177764455"><ele>415.0</ele><time>2026-04-28T10:25:09Z</time></trkpt><trkpt lat="35.0981435409483" lon="-5.267729857427572"><ele>415.0</ele><time>2026-04-28T10:25:10Z</time></trkpt><trkpt lat="35.09814318468668" lon="-5.2675137887154015"><ele>415.0</ele><time>2026-04-28T10:25:11Z</time></trkpt><trkpt lat="35.09814045618958" lon="-5.2673074715742745"><ele>415.0</ele><time>2026-04-28T10:25:12Z</time></trkpt><trkpt lat="35.09813395412452" lon="-5.267108464823134"><ele>415.0</ele><time>2026-04-28T10:25:13Z</time></trkpt><trkpt lat="35.098121200924076" lon="-5.266921150319156"><ele>414.5</ele><time>2026-04-28T10:25:14Z</time></trkpt><trkpt lat="35.09810254130158" lon="-5.266741961075091"><ele>414.0</ele><time>2026-04-28T10:25:15Z</time></trkpt><trkpt lat="35.09807407656982" lon="-5.266576069667195"><ele>413.5</ele><time>2026-04-28T10:25:16Z</time></trkpt><trkpt lat="35.098032266449586" lon="-5.266420839975602"><ele>413.0</ele><time>2026-04-28T10:25:17Z</time></trkpt><trkpt lat="35.09798100674181" lon="-5.266271268825525"><ele>410.25</ele><time>2026-04-28T10:25:18Z</time></trkpt><trkpt lat="35.09791568441802" lon="-5.2661296374496125"><ele>407.5</ele><time>2026-04-28T10:25:19Z</time></trkpt><trkpt lat="35.09783944222254" lon="-5.265987691313207"><ele>404.75</ele><time>2026-04-28T10:25:20Z</time></trkpt><trkpt lat="35.097763506133" lon="-5.265840502458595"><ele>402.0</ele><time>2026-04-28T10:25:21Z</time></trkpt><trkpt lat="35.097694468628696" lon="-5.265686089970437"><ele>401.25</ele><time>2026-04-28T10:25:22Z</time></trkpt><trkpt lat="35.09762860059771" lon="-5.265529942061046"><ele>400.5</ele><time>2026-04-28T10:25:23Z</time></trkpt><trkpt lat="35.097563842579675" lon="-5.265378371446474"><ele>399.75</ele><time>2026-04-28T10:25:24Z</time></trkpt><trkpt lat="35.09751440870287" lon="-5.265218596642812"><ele>399.0</ele><time>2026-04-28T10:25:25Z</time></trkpt><trkpt lat="35.09749626324184" lon="-5.265048893750334"><ele>399.0</ele><time>2026-04-28T10:25:26Z</time></trkpt><trkpt lat="35.097516198445774" lon="-5.264877580934982"><ele>399.0</ele><time>2026-04-28T10:25:27Z</time></trkpt><trkpt lat="35.09754985046265" lon="-5.264709828529332"><ele>399.0</ele><time>2026-04-28T10:25:28Z</time></trkpt><trkpt lat="35.09758429717652" lon="-5.264541770584945"><ele>399.0</ele><time>2026-04-28T10:25:29Z</time></trkpt><trkpt lat="35.09761028467747" lon="-5.264376506365098"><ele>400.75</ele><time>2026-04-28T10:25:30Z</time></trkpt><trkpt lat="35.09763827409267" lon="-5.264222315582994"><ele>402.5</ele><time>2026-04-28T10:25:31Z</time></trkpt><trkpt lat="35.097669150482865" lon="-5.264072483381495"><ele>404.25</ele><time>2026-04-28T10:25:32Z</time></trkpt><trkpt lat="35.09769385233751" lon="-5.263926416119973"><ele>406.0</ele><time>2026-04-28T10:25:33Z</time></trkpt><trkpt lat="35.09771821985972" lon="-5.263787368306307"><ele>406.75</ele><time>2026-04-28T10:25:34Z</time></trkpt><trkpt lat="35.09774654150304" lon="-5.263645684204849"><ele>407.5</ele><time>2026-04-28T10:25:35Z</time></trkpt><trkpt lat="35.09777525825572" lon="-5.263490697796021"><ele>408.25</ele><time>2026-04-28T10:25:36Z</time></trkpt><trkpt lat="35.09780819226847" lon="-5.263322858612925"><ele>409.0</ele><time>2026-04-28T10:25:37Z</time></trkpt><trkpt lat="35.09784477976401" lon="-5.26314825924399"><ele>410.25</ele><time>2026-04-28T10:25:38Z</time></trkpt><trkpt lat="35.097877987099714" lon="-5.262982859082064"><ele>411.5</ele><time>2026-04-28T10:25:39Z</time></trkpt><trkpt lat="35.09790717907741" lon="-5.262823763558931"><ele>412.75</ele><time>2026-04-28T10:25:40Z</time></trkpt><trkpt lat="35.09793195223762" lon="-5.262673369290825"><ele>414.0</ele><time>2026-04-28T10:25:41Z</time></trkpt><trkpt lat="35.09795536232739" lon="-5.262539896839738"><ele>414.0</ele><time>2026-04-28T10:25:42Z</time></trkpt><trkpt lat="35.09797902287168" lon="-5.2624201115983915"><ele>414.0</ele><time>2026-04-28T10:25:43Z</time></trkpt><trkpt lat="35.09799604314653" lon="-5.262310816327425"><ele>414.0</ele><time>2026-04-28T10:25:44Z</time></trkpt><trkpt lat="35.09795777601316" lon="-5.262208742787292"><ele>414.0</ele><time>2026-04-28T10:25:45Z</time></trkpt><trkpt lat="35.097977654712714" lon="-5.2621108061263335"><ele>414.0</ele><time>2026-04-28T10:25:47Z</time></trkpt><trkpt lat="35.09810363165467" lon="-5.262288503130143"><ele>414.0</ele><time>2026-04-28T10:25:51Z</time></trkpt><trkpt lat="35.09805423021661" lon="-5.262356749097814"><ele>414.0</ele><time>2026-04-28T10:25:54Z</time></trkpt><trkpt lat="35.09799784713502" lon="-5.262447237772383"><ele>414.0</ele><time>2026-04-28T10:25:57Z</time></trkpt><trkpt lat="35.0979582400286" lon="-5.262531293378175"><ele>414.0</ele><time>2026-04-28T10:25:58Z</time></trkpt><trkpt lat="35.09793228907376" lon="-5.262666687004025"><ele>414.0</ele><time>2026-04-28T10:25:59Z</time></trkpt><trkpt lat="35.0979162642946" lon="-5.262818015588438"><ele>414.0</ele><time>2026-04-28T10:26:00Z</time></trkpt><trkpt lat="35.097881915612376" lon="-5.263004594143556"><ele>414.0</ele><time>2026-04-28T10:26:01Z</time></trkpt><trkpt lat="35.09784284852998" lon="-5.263206671382859"><ele>414.0</ele><time>2026-04-28T10:26:02Z</time></trkpt><trkpt lat="35.09780130260223" lon="-5.263431088514876"><ele>412.33333333333337</ele><time>2026-04-28T10:26:03Z</time></trkpt><trkpt lat="35.09776515050971" lon="-5.263632640492366"><ele>410.6666666666667</ele><time>2026-04-28T10:26:04Z</time></trkpt><trkpt lat="35.0977312769534" lon="-5.263815838217475"><ele>409.0</ele><time>2026-04-28T10:26:05Z</time></trkpt><trkpt lat="35.09770154182144" lon="-5.263994924941103"><ele>408.25</ele><time>2026-04-28T10:26:06Z</time></trkpt><trkpt lat="35.09766774900226" lon="-5.264167366259067"><ele>407.5</ele><time>2026-04-28T10:26:07Z</time></trkpt><trkpt lat="35.097641424983" lon="-5.264325762021212"><ele>406.75</ele><time>2026-04-28T10:26:08Z</time></trkpt><trkpt lat="35.097612783805374" lon="-5.264477059058911"><ele>406.0</ele><time>2026-04-28T10:26:09Z</time></trkpt><trkpt lat="35.09758924319666" lon="-5.26460361980553"><ele>406.00000000000006</ele><time>2026-04-28T10:26:10Z</time></trkpt><trkpt lat="35.097568365498965" lon="-5.264718651080199"><ele>406.0</ele><time>2026-04-28T10:26:11Z</time></trkpt><trkpt lat="35.09755388668022" lon="-5.264798517276612"><ele>406.0</ele><time>2026-04-28T10:26:12Z</time></trkpt><trkpt lat="35.09751585728962" lon="-5.264874633178674"><ele>406.0</ele><time>2026-04-28T10:26:20Z</time></trkpt><trkpt lat="35.09745442597132" lon="-5.264904156177282"><ele>406.00000000000006</ele><time>2026-04-28T10:26:22Z</time></trkpt><trkpt lat="35.097368344550716" lon="-5.264956035138467"><ele>406.0</ele><time>2026-04-28T10:26:24Z</time></trkpt><trkpt lat="35.0972741662317" lon="-5.265012718593445"><ele>406.4</ele><time>2026-04-28T10:26:26Z</time></trkpt><trkpt lat="35.09716932856578" lon="-5.265075219303362"><ele>406.8</ele><time>2026-04-28T10:26:28Z</time></trkpt><trkpt lat="35.097070419091956" lon="-5.265132062670846"><ele>407.2</ele><time>2026-04-28T10:26:30Z</time></trkpt><trkpt lat="35.096990585059736" lon="-5.265163628950717"><ele>407.59999999999997</ele><time>2026-04-28T10:26:32Z</time></trkpt><trkpt lat="35.096909653444584" lon="-5.265221031743872"><ele>408.0</ele><time>2026-04-28T10:26:34Z</time></trkpt><trkpt lat="35.096807125515475" lon="-5.265264605285962"><ele>408.0</ele><time>2026-04-28T10:26:36Z</time></trkpt><trkpt lat="35.09673270683203" lon="-5.26528571755216"><ele>408.0</ele><time>2026-04-28T10:26:37Z</time></trkpt><trkpt lat="35.09666368336788" lon="-5.265305274196669"><ele>408.0</ele><time>2026-04-28T10:26:38Z</time></trkpt><trkpt lat="35.096538047606714" lon="-5.265287629001597"><ele>408.0</ele><time>2026-04-28T10:26:40Z</time></trkpt><trkpt lat="35.09643459344722" lon="-5.265263487178278"><ele>408.0</ele><time>2026-04-28T10:26:42Z</time></trkpt><trkpt lat="35.096352671478805" lon="-5.265251961373546"><ele>408.1666666666667</ele><time>2026-04-28T10:27:22Z</time></trkpt><trkpt lat="35.09628970124409" lon="-5.265239236813695"><ele>408.33333333333337</ele><time>2026-04-28T10:27:23Z</time></trkpt><trkpt lat="35.096225269203096" lon="-5.265222787499914"><ele>408.5</ele><time>2026-04-28T10:27:24Z</time></trkpt><trkpt lat="35.09614421215339" lon="-5.265210331463511"><ele>408.6666666666667</ele><time>2026-04-28T10:27:25Z</time></trkpt><trkpt lat="35.096056265221726" lon="-5.265202867489375"><ele>408.83333333333337</ele><time>2026-04-28T10:27:26Z</time></trkpt><trkpt lat="35.09596362615836" lon="-5.265197635660857"><ele>409.0</ele><time>2026-04-28T10:27:27Z</time></trkpt><trkpt lat="35.09588211207336" lon="-5.2651951557365875"><ele>409.0</ele><time>2026-04-28T10:27:28Z</time></trkpt><trkpt lat="35.09581387225775" lon="-5.265184019829726"><ele>409.0</ele><time>2026-04-28T10:27:29Z</time></trkpt><trkpt lat="35.095697361926014" lon="-5.265164337463136"><ele>409.0</ele><time>2026-04-28T10:27:31Z</time></trkpt><trkpt lat="35.09556370613736" lon="-5.2651531972405845"><ele>409.0</ele><time>2026-04-28T10:27:33Z</time></trkpt><trkpt lat="35.09548875599946" lon="-5.265132687506937"><ele>409.0</ele><time>2026-04-28T10:27:34Z</time></trkpt><trkpt lat="35.095409947551914" lon="-5.265110070440962"><ele>409.0</ele><time>2026-04-28T10:27:35Z</time></trkpt><trkpt lat="35.09532498477647" lon="-5.265079885748675"><ele>409.0</ele><time>2026-04-28T10:27:36Z</time></trkpt><trkpt lat="35.095234591981026" lon="-5.265049187717796"><ele>409.0</ele><time>2026-04-28T10:27:37Z</time></trkpt><trkpt lat="35.09514255017083" lon="-5.2650253969983245"><ele>409.0</ele><time>2026-04-28T10:27:38Z</time></trkpt><trkpt lat="35.095055198730385" lon="-5.265005789432333"><ele>409.0</ele><time>2026-04-28T10:27:39Z</time></trkpt><trkpt lat="35.09496893700419" lon="-5.2649886470818466"><ele>408.83333333333337</ele><time>2026-04-28T10:27:40Z</time></trkpt><trkpt lat="35.094882771928674" lon="-5.2649679370248785"><ele>408.6666666666667</ele><time>2026-04-28T10:27:41Z</time></trkpt><trkpt lat="35.09480880934732" lon="-5.264950238527832"><ele>408.5</ele><time>2026-04-28T10:27:42Z</time></trkpt><trkpt lat="35.0947369115497" lon="-5.264925268327263"><ele>408.33333333333337</ele><time>2026-04-28T10:27:43Z</time></trkpt><trkpt lat="35.09463679553728" lon="-5.264867599549562"><ele>408.1666666666667</ele><time>2026-04-28T10:27:45Z</time></trkpt><trkpt lat="35.09457340297621" lon="-5.264797990057801"><ele>408.0</ele><time>2026-04-28T10:27:47Z</time></trkpt><trkpt lat="35.09454687194406" lon="-5.264684484829805"><ele>408.5</ele><time>2026-04-28T10:27:48Z</time></trkpt><trkpt lat="35.09455457793766" lon="-5.264565312784008"><ele>409.0</ele><time>2026-04-28T10:27:49Z</time></trkpt><trkpt lat="35.094567016728135" lon="-5.264474713922641"><ele>409.5</ele><time>2026-04-28T10:27:50Z</time></trkpt><trkpt lat="35.094582454014166" lon="-5.264379524299298"><ele>410.0</ele><time>2026-04-28T10:27:51Z</time></trkpt><trkpt lat="35.09460065411362" lon="-5.264281683223017"><ele>410.5</ele><time>2026-04-28T10:27:52Z</time></trkpt><trkpt lat="35.094619892776414" lon="-5.264178259000914"><ele>411.0</ele><time>2026-04-28T10:27:53Z</time></trkpt><trkpt lat="35.094637567883254" lon="-5.264083240327368"><ele>411.0</ele><time>2026-04-28T10:27:54Z</time></trkpt><trkpt lat="35.09471411262983" lon="-5.264023878659431"><ele>411.0</ele><time>2026-04-28T10:27:55Z</time></trkpt><trkpt lat="35.09481518940012" lon="-5.263936185115747"><ele>411.0</ele><time>2026-04-28T10:27:57Z</time></trkpt><trkpt lat="35.09489000998404" lon="-5.263884521020174"><ele>411.0</ele><time>2026-04-28T10:27:58Z</time></trkpt><trkpt lat="35.09496246695367" lon="-5.263841328616244"><ele>411.0</ele><time>2026-04-28T10:27:59Z</time></trkpt><trkpt lat="35.09503287249935" lon="-5.263801558600323"><ele>414.4</ele><time>2026-04-28T10:28:00Z</time></trkpt><trkpt lat="35.09515208815033" lon="-5.263747363293862"><ele>417.8</ele><time>2026-04-28T10:28:02Z</time></trkpt><trkpt lat="35.09521591854535" lon="-5.263671969683354"><ele>421.19999999999993</ele><time>2026-04-28T10:28:04Z</time></trkpt><trkpt lat="35.09528628757264" lon="-5.2635404603679055"><ele>424.59999999999997</ele><time>2026-04-28T10:28:06Z</time></trkpt><trkpt lat="35.09532757723486" lon="-5.263463611760492"><ele>428.0</ele><time>2026-04-28T10:28:07Z</time></trkpt><trkpt lat="35.09535138997233" lon="-5.263391800910973"><ele>427.99999999999994</ele><time>2026-04-28T10:28:08Z</time></trkpt><trkpt lat="35.09538220522205" lon="-5.263319997511402"><ele>428.0</ele><time>2026-04-28T10:28:09Z</time></trkpt><trkpt lat="35.09541888386853" lon="-5.263242563165431"><ele>428.0</ele><time>2026-04-28T10:28:10Z</time></trkpt><trkpt lat="35.09543190849407" lon="-5.263152471934529"><ele>428.0</ele><time>2026-04-28T10:28:11Z</time></trkpt><trkpt lat="35.09545604323716" lon="-5.263077236410643"><ele>427.99999999999994</ele><time>2026-04-28T10:28:12Z</time></trkpt><trkpt lat="35.095479125801454" lon="-5.262930734648324"><ele>428.0</ele><time>2026-04-28T10:28:14Z</time></trkpt><trkpt lat="35.0954791258016" lon="-5.262842182926166"><ele>429.16666666666663</ele><time>2026-04-28T10:28:15Z</time></trkpt><trkpt lat="35.09547912580289" lon="-5.2627536560532695"><ele>430.3333333333333</ele><time>2026-04-28T10:28:16Z</time></trkpt><trkpt lat="35.0954791258036" lon="-5.262662392759727"><ele>431.5</ele><time>2026-04-28T10:28:17Z</time></trkpt><trkpt lat="35.09548595042036" lon="-5.2625671024713965"><ele>432.66666666666663</ele><time>2026-04-28T10:28:18Z</time></trkpt><trkpt lat="35.09546690154674" lon="-5.262468496751579"><ele>433.8333333333333</ele><time>2026-04-28T10:28:19Z</time></trkpt><trkpt lat="35.09545879162935" lon="-5.26237087496817"><ele>435.0</ele><time>2026-04-28T10:28:20Z</time></trkpt><trkpt lat="35.095454537260224" lon="-5.262260277292789"><ele>435.5</ele><time>2026-04-28T10:28:21Z</time></trkpt><trkpt lat="35.09545950889484" lon="-5.2621510514701795"><ele>436.0</ele><time>2026-04-28T10:28:22Z</time></trkpt><trkpt lat="35.09547201342393" lon="-5.2620674940875345"><ele>436.5</ele><time>2026-04-28T10:28:23Z</time></trkpt><trkpt lat="35.09548682360668" lon="-5.2619863443963455"><ele>437.0</ele><time>2026-04-28T10:28:24Z</time></trkpt><trkpt lat="35.09551463690511" lon="-5.261851909600152"><ele>437.5</ele><time>2026-04-28T10:28:26Z</time></trkpt><trkpt lat="35.095534020896444" lon="-5.261758987304451"><ele>438.0</ele><time>2026-04-28T10:28:27Z</time></trkpt><trkpt lat="35.09555736090116" lon="-5.26165085821507"><ele>438.0</ele><time>2026-04-28T10:28:28Z</time></trkpt><trkpt lat="35.09557594047601" lon="-5.261546343675859"><ele>438.0</ele><time>2026-04-28T10:28:29Z</time></trkpt><trkpt lat="35.0955916430655" lon="-5.261451871327837"><ele>438.0</ele><time>2026-04-28T10:28:30Z</time></trkpt><trkpt lat="35.095606965094326" lon="-5.261359306149861"><ele>438.0</ele><time>2026-04-28T10:28:31Z</time></trkpt><trkpt lat="35.095620187116296" lon="-5.261277665413386"><ele>438.0</ele><time>2026-04-28T10:28:32Z</time></trkpt><trkpt lat="35.09564110204807" lon="-5.2611458572426555"><ele>438.0</ele><time>2026-04-28T10:28:34Z</time></trkpt><trkpt lat="35.09561827794148" lon="-5.261049701618648"><ele>438.6666666666667</ele><time>2026-04-28T10:28:36Z</time></trkpt><trkpt lat="35.09554469418943" lon="-5.260952762219338"><ele>439.33333333333337</ele><time>2026-04-28T10:28:38Z</time></trkpt><trkpt lat="35.095488842444944" lon="-5.260906561162682"><ele>440.0</ele><time>2026-04-28T10:28:39Z</time></trkpt><trkpt lat="35.095433127463494" lon="-5.260850158861671"><ele>440.6666666666667</ele><time>2026-04-28T10:28:40Z</time></trkpt><trkpt lat="35.09537980467912" lon="-5.26078592808326"><ele>441.33333333333337</ele><time>2026-04-28T10:28:41Z</time></trkpt><trkpt lat="35.09533046418932" lon="-5.260713292024349"><ele>442.0</ele><time>2026-04-28T10:28:42Z</time></trkpt><trkpt lat="35.09527789914126" lon="-5.260660163412148"><ele>442.8571428571429</ele><time>2026-04-28T10:28:43Z</time></trkpt><trkpt lat="35.09523384447334" lon="-5.260597310170939"><ele>443.7142857142857</ele><time>2026-04-28T10:28:44Z</time></trkpt><trkpt lat="35.09519127457692" lon="-5.260523964192908"><ele>444.57142857142856</ele><time>2026-04-28T10:28:45Z</time></trkpt><trkpt lat="35.09516562424148" lon="-5.260442782954118"><ele>445.42857142857144</ele><time>2026-04-28T10:28:46Z</time></trkpt><trkpt lat="35.095133601834846" lon="-5.26036649444383"><ele>446.2857142857143</ele><time>2026-04-28T10:28:47Z</time></trkpt><trkpt lat="35.095111709995685" lon="-5.26028862834196"><ele>447.14285714285717</ele><time>2026-04-28T10:28:48Z</time></trkpt><trkpt lat="35.09510011795044" lon="-5.260207424103398"><ele>448.0</ele><time>2026-04-28T10:28:49Z</time></trkpt><trkpt lat="35.09510102588499" lon="-5.260124574580224"><ele>448.0</ele><time>2026-04-28T10:28:50Z</time></trkpt><trkpt lat="35.095101370367054" lon="-5.260033150260211"><ele>448.0</ele><time>2026-04-28T10:28:51Z</time></trkpt><trkpt lat="35.09508061709584" lon="-5.259943711200447"><ele>448.0</ele><time>2026-04-28T10:28:52Z</time></trkpt><trkpt lat="35.09507654840862" lon="-5.259858533326252"><ele>448.0</ele><time>2026-04-28T10:28:53Z</time></trkpt><trkpt lat="35.09507160379356" lon="-5.259780746064971"><ele>448.0</ele><time>2026-04-28T10:28:54Z</time></trkpt><trkpt lat="35.09506403617329" lon="-5.25969307958114"><ele>448.0</ele><time>2026-04-28T10:28:55Z</time></trkpt><trkpt lat="35.095056644807144" lon="-5.259607454913416"><ele>448.0</ele><time>2026-04-28T10:28:56Z</time></trkpt><trkpt lat="35.09502365718978" lon="-5.259464511726904"><ele>448.83333333333337</ele><time>2026-04-28T10:28:58Z</time></trkpt><trkpt lat="35.095012893606196" lon="-5.259374119290773"><ele>449.6666666666667</ele><time>2026-04-28T10:28:59Z</time></trkpt><trkpt lat="35.09498746391527" lon="-5.2592959534061805"><ele>450.5</ele><time>2026-04-28T10:29:00Z</time></trkpt><trkpt lat="35.09496055837108" lon="-5.259218634008631"><ele>451.33333333333337</ele><time>2026-04-28T10:29:01Z</time></trkpt><trkpt lat="35.09490331596577" lon="-5.259086247097191"><ele>452.1666666666667</ele><time>2026-04-28T10:29:03Z</time></trkpt><trkpt lat="35.094854607011676" lon="-5.259026886987269"><ele>453.0</ele><time>2026-04-28T10:29:04Z</time></trkpt><trkpt lat="35.09480659815518" lon="-5.258967800783698"><ele>455.0</ele><time>2026-04-28T10:29:05Z</time></trkpt><trkpt lat="35.09474951857452" lon="-5.258841640334894"><ele>457.0</ele><time>2026-04-28T10:29:07Z</time></trkpt><trkpt lat="35.09474694756066" lon="-5.258763419004865"><ele>459.0</ele><time>2026-04-28T10:29:08Z</time></trkpt><trkpt lat="35.094757910363164" lon="-5.258677699667796"><ele>461.0</ele><time>2026-04-28T10:29:09Z</time></trkpt><trkpt lat="35.09478586507641" lon="-5.258590711102553"><ele>463.0</ele><time>2026-04-28T10:29:10Z</time></trkpt><trkpt lat="35.09478795353227" lon="-5.258494795167119"><ele>465.0</ele><time>2026-04-28T10:29:11Z</time></trkpt><trkpt lat="35.09479495327661" lon="-5.258395207924808"><ele>465.0</ele><time>2026-04-28T10:29:12Z</time></trkpt><trkpt lat="35.09477389010097" lon="-5.258303283046378"><ele>465.0</ele><time>2026-04-28T10:29:13Z</time></trkpt><trkpt lat="35.094762001646345" lon="-5.258181591091195"><ele>465.0</ele><time>2026-04-28T10:29:14Z</time></trkpt><trkpt lat="35.09475061523611" lon="-5.25806506737924"><ele>465.0</ele><time>2026-04-28T10:29:15Z</time></trkpt><trkpt lat="35.09473973469301" lon="-5.257951626104737"><ele>465.0</ele><time>2026-04-28T10:29:16Z</time></trkpt><trkpt lat="35.094757359106026" lon="-5.257844324075491"><ele>466.1666666666667</ele><time>2026-04-28T10:29:17Z</time></trkpt><trkpt lat="35.09476106392275" lon="-5.257738598920245"><ele>467.33333333333337</ele><time>2026-04-28T10:29:18Z</time></trkpt><trkpt lat="35.09476722539014" lon="-5.257637063806146"><ele>468.5</ele><time>2026-04-28T10:29:19Z</time></trkpt><trkpt lat="35.094769679456704" lon="-5.257539264467637"><ele>469.6666666666667</ele><time>2026-04-28T10:29:20Z</time></trkpt><trkpt lat="35.09477722852641" lon="-5.2574409184658615"><ele>470.83333333333337</ele><time>2026-04-28T10:29:21Z</time></trkpt><trkpt lat="35.094789472717295" lon="-5.257330452676877"><ele>472.0</ele><time>2026-04-28T10:29:22Z</time></trkpt><trkpt lat="35.09480975830495" lon="-5.257217625336542"><ele>473.1666666666667</ele><time>2026-04-28T10:29:23Z</time></trkpt><trkpt lat="35.094819063898726" lon="-5.257112245285529"><ele>474.33333333333337</ele><time>2026-04-28T10:29:24Z</time></trkpt><trkpt lat="35.094825635323915" lon="-5.257012838276418"><ele>475.5</ele><time>2026-04-28T10:29:25Z</time></trkpt><trkpt lat="35.094834047708304" lon="-5.256924431432475"><ele>476.66666666666663</ele><time>2026-04-28T10:29:26Z</time></trkpt><trkpt lat="35.09484573042412" lon="-5.256845365099507"><ele>477.8333333333333</ele><time>2026-04-28T10:29:27Z</time></trkpt><trkpt lat="35.0948488298035" lon="-5.256768442342213"><ele>479.0</ele><time>2026-04-28T10:29:28Z</time></trkpt><trkpt lat="35.09479408193764" lon="-5.256645463407604"><ele>478.99999999999994</ele><time>2026-04-28T10:29:30Z</time></trkpt><trkpt lat="35.09473035198745" lon="-5.2565966262669175"><ele>479.0</ele><time>2026-04-28T10:29:31Z</time></trkpt><trkpt lat="35.09467725398092" lon="-5.256510257488067"><ele>479.0</ele><time>2026-04-28T10:29:32Z</time></trkpt><trkpt lat="35.09461936742383" lon="-5.25644483024156"><ele>479.0</ele><time>2026-04-28T10:29:33Z</time></trkpt><trkpt lat="35.094569976866" lon="-5.256389005731005"><ele>478.99999999999994</ele><time>2026-04-28T10:29:34Z</time></trkpt><trkpt lat="35.094496609519865" lon="-5.256312355342709"><ele>479.0</ele><time>2026-04-28T10:29:36Z</time></trkpt><trkpt lat="35.094423945127474" lon="-5.256200330022075"><ele>479.99999999999994</ele><time>2026-04-28T10:29:38Z</time></trkpt><trkpt lat="35.09434583257591" lon="-5.256075145034637"><ele>481.0</ele><time>2026-04-28T10:29:40Z</time></trkpt><trkpt lat="35.09430364028656" lon="-5.256001398001325"><ele>482.0</ele><time>2026-04-28T10:29:41Z</time></trkpt><trkpt lat="35.09426884115281" lon="-5.255936973088302"><ele>483.0</ele><time>2026-04-28T10:29:42Z</time></trkpt><trkpt lat="35.09423438413804" lon="-5.255854798141835"><ele>483.99999999999994</ele><time>2026-04-28T10:29:43Z</time></trkpt><trkpt lat="35.094199489070675" lon="-5.255772088128416"><ele>485.0</ele><time>2026-04-28T10:29:44Z</time></trkpt><trkpt lat="35.09416282959698" lon="-5.255679101553478"><ele>484.99999999999994</ele><time>2026-04-28T10:29:45Z</time></trkpt><trkpt lat="35.09412947190449" lon="-5.255575958539992"><ele>485.0</ele><time>2026-04-28T10:29:46Z</time></trkpt><trkpt lat="35.0940883450657" lon="-5.255490186009155"><ele>485.0</ele><time>2026-04-28T10:29:47Z</time></trkpt><trkpt lat="35.094074053672934" lon="-5.2553952556488035"><ele>485.0</ele><time>2026-04-28T10:29:48Z</time></trkpt><trkpt lat="35.09404330061663" lon="-5.2553173646799145"><ele>484.99999999999994</ele><time>2026-04-28T10:29:49Z</time></trkpt><trkpt lat="35.09401094798346" lon="-5.255232270746326"><ele>485.0</ele><time>2026-04-28T10:29:50Z</time></trkpt><trkpt lat="35.09398260942042" lon="-5.255139857804934"><ele>487.3333333333333</ele><time>2026-04-28T10:29:51Z</time></trkpt><trkpt lat="35.093952735690124" lon="-5.2550537815357"><ele>489.66666666666663</ele><time>2026-04-28T10:29:52Z</time></trkpt><trkpt lat="35.09390858877739" lon="-5.254947789688941"><ele>492.0</ele><time>2026-04-28T10:29:53Z</time></trkpt><trkpt lat="35.093876982948025" lon="-5.254838643799644"><ele>494.33333333333337</ele><time>2026-04-28T10:29:54Z</time></trkpt><trkpt lat="35.09384582455884" lon="-5.254747459146761"><ele>496.6666666666667</ele><time>2026-04-28T10:29:55Z</time></trkpt><trkpt lat="35.09382332975921" lon="-5.25466938597088"><ele>499.0</ele><time>2026-04-28T10:29:56Z</time></trkpt><trkpt lat="35.09378697314299" lon="-5.254587115722086"><ele>499.00000000000006</ele><time>2026-04-28T10:29:57Z</time></trkpt><trkpt lat="35.09375871068844" lon="-5.2544996346460975"><ele>499.0</ele><time>2026-04-28T10:29:58Z</time></trkpt><trkpt lat="35.09372807530262" lon="-5.254421741919448"><ele>499.0</ele><time>2026-04-28T10:29:59Z</time></trkpt><trkpt lat="35.09368987949466" lon="-5.254348779860258"><ele>499.0</ele><time>2026-04-28T10:30:00Z</time></trkpt><trkpt lat="35.09364827694262" lon="-5.254279859252883"><ele>499.00000000000006</ele><time>2026-04-28T10:30:01Z</time></trkpt><trkpt lat="35.09359423262676" lon="-5.254210766995811"><ele>499.0</ele><time>2026-04-28T10:30:02Z</time></trkpt><trkpt lat="35.09352802877788" lon="-5.254141064378679"><ele>499.00000000000006</ele><time>2026-04-28T10:30:03Z</time></trkpt><trkpt lat="35.09346518196917" lon="-5.2540661487401294"><ele>499.0</ele><time>2026-04-28T10:30:04Z</time></trkpt><trkpt lat="35.09340332200185" lon="-5.254000597343378"><ele>499.0</ele><time>2026-04-28T10:30:05Z</time></trkpt><trkpt lat="35.09334192854509" lon="-5.253936557945246"><ele>499.0</ele><time>2026-04-28T10:30:06Z</time></trkpt><trkpt lat="35.09328619216602" lon="-5.253869800112238"><ele>499.00000000000006</ele><time>2026-04-28T10:30:07Z</time></trkpt><trkpt lat="35.093224277838715" lon="-5.253822693391045"><ele>499.0</ele><time>2026-04-28T10:30:08Z</time></trkpt><trkpt lat="35.093155961344664" lon="-5.253774816737927"><ele>500.00000000000006</ele><time>2026-04-28T10:30:09Z</time></trkpt><trkpt lat="35.09307312094353" lon="-5.253725561193339"><ele>501.0</ele><time>2026-04-28T10:30:10Z</time></trkpt><trkpt lat="35.092999956301675" lon="-5.253690934857626"><ele>502.0</ele><time>2026-04-28T10:30:11Z</time></trkpt><trkpt lat="35.09291781738318" lon="-5.253655161385746"><ele>503.0</ele><time>2026-04-28T10:30:12Z</time></trkpt><trkpt lat="35.09284467287473" lon="-5.253615953589899"><ele>504.00000000000006</ele><time>2026-04-28T10:30:13Z</time></trkpt><trkpt lat="35.092762093446304" lon="-5.253589940009299"><ele>505.0</ele><time>2026-04-28T10:30:14Z</time></trkpt><trkpt lat="35.09267323446079" lon="-5.253563811190938"><ele>505.00000000000006</ele><time>2026-04-28T10:30:15Z</time></trkpt><trkpt lat="35.09259045565273" lon="-5.253548307448871"><ele>505.0</ele><time>2026-04-28T10:30:16Z</time></trkpt><trkpt lat="35.09251432133342" lon="-5.253533922536764"><ele>505.0</ele><time>2026-04-28T10:30:17Z</time></trkpt><trkpt lat="35.0924399891937" lon="-5.253507096414091"><ele>505.0</ele><time>2026-04-28T10:30:18Z</time></trkpt><trkpt lat="35.092372773212084" lon="-5.253477284724168"><ele>505.00000000000006</ele><time>2026-04-28T10:30:19Z</time></trkpt><trkpt lat="35.09227645542686" lon="-5.253389302370957"><ele>505.0</ele><time>2026-04-28T10:30:21Z</time></trkpt><trkpt lat="35.092219762544055" lon="-5.253342301620986"><ele>504.6</ele><time>2026-04-28T10:30:22Z</time></trkpt><trkpt lat="35.09216649008291" lon="-5.25329533684013"><ele>504.2</ele><time>2026-04-28T10:30:23Z</time></trkpt><trkpt lat="35.09207494300057" lon="-5.253194891711192"><ele>503.79999999999995</ele><time>2026-04-28T10:30:25Z</time></trkpt><trkpt lat="35.09199819091735" lon="-5.253083574653402"><ele>503.4</ele><time>2026-04-28T10:30:27Z</time></trkpt><trkpt lat="35.09192121355741" lon="-5.252985194025741"><ele>503.0</ele><time>2026-04-28T10:30:29Z</time></trkpt><trkpt lat="35.091835646860744" lon="-5.252876759405249"><ele>502.99999999999994</ele><time>2026-04-28T10:30:31Z</time></trkpt><trkpt lat="35.091792315675136" lon="-5.252820757357204"><ele>503.0</ele><time>2026-04-28T10:30:32Z</time></trkpt><trkpt lat="35.09172404583776" lon="-5.252734695289795"><ele>503.0</ele><time>2026-04-28T10:30:34Z</time></trkpt><trkpt lat="35.09166359936898" lon="-5.252674463477724"><ele>503.0</ele><time>2026-04-28T10:30:36Z</time></trkpt><trkpt lat="35.09160574175848" lon="-5.2525946795464415"><ele>502.99999999999994</ele><time>2026-04-28T10:30:38Z</time></trkpt><trkpt lat="35.09155249435892" lon="-5.252529079006871"><ele>503.0</ele><time>2026-04-28T10:30:40Z</time></trkpt><trkpt lat="35.09148128758705" lon="-5.252436996608757"><ele>501.4</ele><time>2026-04-28T10:30:42Z</time></trkpt><trkpt lat="35.091411521174514" lon="-5.252327065869997"><ele>499.79999999999995</ele><time>2026-04-28T10:30:44Z</time></trkpt><trkpt lat="35.09134283769849" lon="-5.252221047258382"><ele>498.2</ele><time>2026-04-28T10:30:46Z</time></trkpt><trkpt lat="35.091272006389985" lon="-5.252109773314283"><ele>496.6</ele><time>2026-04-28T10:30:48Z</time></trkpt><trkpt lat="35.091218754889084" lon="-5.252018468980849"><ele>495.0</ele><time>2026-04-28T10:30:50Z</time></trkpt><trkpt lat="35.09117793754357" lon="-5.25192943099387"><ele>495.0</ele><time>2026-04-28T10:30:52Z</time></trkpt><trkpt lat="35.09113609853415" lon="-5.251847299852066"><ele>495.0</ele><time>2026-04-28T10:30:55Z</time></trkpt><trkpt lat="35.091104178465365" lon="-5.251766962161052"><ele>495.0</ele><time>2026-04-28T10:30:59Z</time></trkpt><trkpt lat="35.09107172974846" lon="-5.251660673301775"><ele>495.0</ele><time>2026-04-28T10:31:03Z</time></trkpt><trkpt lat="35.091023095171494" lon="-5.25153979543724"><ele>495.0</ele><time>2026-04-28T10:31:05Z</time></trkpt><trkpt lat="35.09100254280099" lon="-5.251383580053644"><ele>496.2857142857142</ele><time>2026-04-28T10:31:07Z</time></trkpt><trkpt lat="35.09098565640934" lon="-5.251302091310247"><ele>497.57142857142856</ele><time>2026-04-28T10:31:08Z</time></trkpt><trkpt lat="35.090963646185294" lon="-5.251219582604014"><ele>498.85714285714283</ele><time>2026-04-28T10:31:09Z</time></trkpt><trkpt lat="35.09093381620797" lon="-5.251137812626911"><ele>500.1428571428571</ele><time>2026-04-28T10:31:10Z</time></trkpt><trkpt lat="35.09091930000451" lon="-5.251049051058222"><ele>501.42857142857144</ele><time>2026-04-28T10:31:11Z</time></trkpt><trkpt lat="35.09088607039339" lon="-5.250972395972717"><ele>502.7142857142857</ele><time>2026-04-28T10:31:12Z</time></trkpt><trkpt lat="35.090848998381865" lon="-5.250903781555599"><ele>504.0</ele><time>2026-04-28T10:31:13Z</time></trkpt><trkpt lat="35.09076934971895" lon="-5.250778392765855"><ele>503.5</ele><time>2026-04-28T10:31:15Z</time></trkpt><trkpt lat="35.090717678448954" lon="-5.250728889915756"><ele>503.0</ele><time>2026-04-28T10:31:16Z</time></trkpt><trkpt lat="35.090679873030155" lon="-5.250649768118509"><ele>502.5</ele><time>2026-04-28T10:31:17Z</time></trkpt><trkpt lat="35.09064649255126" lon="-5.250565400758702"><ele>502.0</ele><time>2026-04-28T10:31:18Z</time></trkpt><trkpt lat="35.0906132212766" lon="-5.250482018803119"><ele>501.5</ele><time>2026-04-28T10:31:19Z</time></trkpt><trkpt lat="35.09056955588656" lon="-5.250366690262445"><ele>501.0</ele><time>2026-04-28T10:31:21Z</time></trkpt><trkpt lat="35.09054792746131" lon="-5.250292437783267"><ele>501.0</ele><time>2026-04-28T10:31:23Z</time></trkpt><trkpt lat="35.09054660532905" lon="-5.250202923961839"><ele>501.0</ele><time>2026-04-28T10:31:32Z</time></trkpt><trkpt lat="35.09053712098569" lon="-5.250124531605433"><ele>501.0</ele><time>2026-04-28T10:31:34Z</time></trkpt><trkpt lat="35.09054326026167" lon="-5.250025072599398"><ele>501.0</ele><time>2026-04-28T10:31:36Z</time></trkpt><trkpt lat="35.09054024678855" lon="-5.249933246993005"><ele>501.0</ele><time>2026-04-28T10:31:38Z</time></trkpt><trkpt lat="35.090535416554616" lon="-5.249824758600853"><ele>501.0</ele><time>2026-04-28T10:31:40Z</time></trkpt><trkpt lat="35.090540960311195" lon="-5.249695485155181"><ele>501.42857142857144</ele><time>2026-04-28T10:31:42Z</time></trkpt><trkpt lat="35.09054610406828" lon="-5.249566361032746"><ele>501.85714285714283</ele><time>2026-04-28T10:31:44Z</time></trkpt><trkpt lat="35.090537779006745" lon="-5.249489337845"><ele>502.2857142857143</ele><time>2026-04-28T10:31:45Z</time></trkpt><trkpt lat="35.09052227409268" lon="-5.249412417275127"><ele>502.7142857142857</ele><time>2026-04-28T10:31:46Z</time></trkpt><trkpt lat="35.09047519823396" lon="-5.249348241361343"><ele>503.1428571428571</ele><time>2026-04-28T10:31:47Z</time></trkpt><trkpt lat="35.09044103686147" lon="-5.2492738314980025"><ele>503.57142857142856</ele><time>2026-04-28T10:31:49Z</time></trkpt><trkpt lat="35.09040699235523" lon="-5.249207302547192"><ele>504.0</ele><time>2026-04-28T10:31:51Z</time></trkpt><trkpt lat="35.09036984729841" lon="-5.249128534870491"><ele>504.0</ele><time>2026-04-28T10:31:53Z</time></trkpt><trkpt lat="35.09032231628421" lon="-5.249034650150877"><ele>504.0</ele><time>2026-04-28T10:31:55Z</time></trkpt><trkpt lat="35.09027330289043" lon="-5.248945485439053"><ele>504.0</ele><time>2026-04-28T10:31:57Z</time></trkpt><trkpt lat="35.09022769775546" lon="-5.248855971983394"><ele>504.0</ele><time>2026-04-28T10:31:59Z</time></trkpt><trkpt lat="35.09018998729859" lon="-5.248774718831614"><ele>504.0</ele><time>2026-04-28T10:32:01Z</time></trkpt><trkpt lat="35.09014912421489" lon="-5.248696038631063"><ele>504.0</ele><time>2026-04-28T10:32:03Z</time></trkpt><trkpt lat="35.090101649037564" lon="-5.2486184280643515"><ele>504.2</ele><time>2026-04-28T10:32:05Z</time></trkpt><trkpt lat="35.09005798494775" lon="-5.248545945461824"><ele>504.4</ele><time>2026-04-28T10:32:07Z</time></trkpt><trkpt lat="35.089992525775166" lon="-5.248428963625117"><ele>504.6</ele><time>2026-04-28T10:32:09Z</time></trkpt><trkpt lat="35.08996779378831" lon="-5.248356050071181"><ele>504.8</ele><time>2026-04-28T10:32:10Z</time></trkpt><trkpt lat="35.08989547430846" lon="-5.2482394281564755"><ele>505.0</ele><time>2026-04-28T10:32:12Z</time></trkpt><trkpt lat="35.08984789780043" lon="-5.248138315338497"><ele>505.4</ele><time>2026-04-28T10:32:14Z</time></trkpt><trkpt lat="35.08979737051245" lon="-5.248030557183447"><ele>505.8</ele><time>2026-04-28T10:32:16Z</time></trkpt><trkpt lat="35.08974569373258" lon="-5.247911143573002"><ele>506.20000000000005</ele><time>2026-04-28T10:32:18Z</time></trkpt><trkpt lat="35.08969681280582" lon="-5.247795260538794"><ele>506.6</ele><time>2026-04-28T10:32:20Z</time></trkpt><trkpt lat="35.08965158986701" lon="-5.247663919719094"><ele>507.0</ele><time>2026-04-28T10:32:22Z</time></trkpt><trkpt lat="35.089622192774726" lon="-5.247586585566782"><ele>507.0</ele><time>2026-04-28T10:32:23Z</time></trkpt><trkpt lat="35.08959133161794" lon="-5.24750743963993"><ele>507.0</ele><time>2026-04-28T10:32:24Z</time></trkpt><trkpt lat="35.08955872490058" lon="-5.247433041839831"><ele>507.0</ele><time>2026-04-28T10:32:25Z</time></trkpt><trkpt lat="35.08952772614707" lon="-5.247355277625177"><ele>507.0</ele><time>2026-04-28T10:32:26Z</time></trkpt><trkpt lat="35.089491171923434" lon="-5.247273362566323"><ele>507.0</ele><time>2026-04-28T10:32:27Z</time></trkpt><trkpt lat="35.08945872127742" lon="-5.247195943072063"><ele>507.0</ele><time>2026-04-28T10:32:28Z</time></trkpt><trkpt lat="35.08942793431721" lon="-5.247125299674571"><ele>507.0</ele><time>2026-04-28T10:32:29Z</time></trkpt><trkpt lat="35.089413701216884" lon="-5.247049851849251"><ele>507.85714285714283</ele><time>2026-04-28T10:32:30Z</time></trkpt><trkpt lat="35.08935216179009" lon="-5.246964977872718"><ele>508.7142857142858</ele><time>2026-04-28T10:32:31Z</time></trkpt><trkpt lat="35.089320985459636" lon="-5.246895337246191"><ele>509.5714285714286</ele><time>2026-04-28T10:32:32Z</time></trkpt><trkpt lat="35.089286699682276" lon="-5.246825741691239"><ele>510.42857142857144</ele><time>2026-04-28T10:32:33Z</time></trkpt><trkpt lat="35.08924633993994" lon="-5.246757399460784"><ele>511.28571428571433</ele><time>2026-04-28T10:32:34Z</time></trkpt><trkpt lat="35.089207744149206" lon="-5.246686952775262"><ele>512.1428571428572</ele><time>2026-04-28T10:32:35Z</time></trkpt><trkpt lat="35.08917111472607" lon="-5.246621477475956"><ele>513.0</ele><time>2026-04-28T10:32:36Z</time></trkpt><trkpt lat="35.08911160620781" lon="-5.246524682561576"><ele>513.8</ele><time>2026-04-28T10:32:38Z</time></trkpt><trkpt lat="35.08906406289313" lon="-5.246437756960496"><ele>514.5999999999999</ele><time>2026-04-28T10:32:40Z</time></trkpt><trkpt lat="35.089008909013444" lon="-5.246343853022076"><ele>515.4000000000001</ele><time>2026-04-28T10:32:42Z</time></trkpt><trkpt lat="35.08896196998463" lon="-5.246241517544608"><ele>516.2</ele><time>2026-04-28T10:32:44Z</time></trkpt><trkpt lat="35.08891045092" lon="-5.246130897153059"><ele>517.0</ele><time>2026-04-28T10:32:46Z</time></trkpt><trkpt lat="35.088854761956995" lon="-5.246002936749285"><ele>517.0</ele><time>2026-04-28T10:32:48Z</time></trkpt><trkpt lat="35.08882432881201" lon="-5.245919359341936"><ele>517.0</ele><time>2026-04-28T10:32:49Z</time></trkpt><trkpt lat="35.088788601542475" lon="-5.245832537302301"><ele>517.0</ele><time>2026-04-28T10:32:50Z</time></trkpt><trkpt lat="35.08875621609841" lon="-5.2457502781146275"><ele>517.0</ele><time>2026-04-28T10:32:51Z</time></trkpt><trkpt lat="35.08872527865745" lon="-5.245671612412429"><ele>517.0</ele><time>2026-04-28T10:32:52Z</time></trkpt><trkpt lat="35.08869049407033" lon="-5.245590405162909"><ele>517.0</ele><time>2026-04-28T10:32:53Z</time></trkpt><trkpt lat="35.08866428714692" lon="-5.245502272024512"><ele>518.3333333333334</ele><time>2026-04-28T10:32:54Z</time></trkpt><trkpt lat="35.08863428420837" lon="-5.2454147706099725"><ele>519.6666666666667</ele><time>2026-04-28T10:32:55Z</time></trkpt><trkpt lat="35.088604630225895" lon="-5.245323066199323"><ele>521.0</ele><time>2026-04-28T10:32:56Z</time></trkpt><trkpt lat="35.0885704130421" lon="-5.245230843227892"><ele>522.3333333333334</ele><time>2026-04-28T10:32:57Z</time></trkpt><trkpt lat="35.088541759495776" lon="-5.245139868485221"><ele>523.6666666666666</ele><time>2026-04-28T10:32:58Z</time></trkpt><trkpt lat="35.08850986512027" lon="-5.245047943179071"><ele>525.0</ele><time>2026-04-28T10:32:59Z</time></trkpt><trkpt lat="35.08847227246113" lon="-5.244959164405314"><ele>525.0</ele><time>2026-04-28T10:33:00Z</time></trkpt><trkpt lat="35.08842912430464" lon="-5.244869694204705"><ele>525.0</ele><time>2026-04-28T10:33:01Z</time></trkpt><trkpt lat="35.08840379122509" lon="-5.244780185752552"><ele>525.0</ele><time>2026-04-28T10:33:02Z</time></trkpt><trkpt lat="35.08832979794542" lon="-5.244646926349951"><ele>525.0</ele><time>2026-04-28T10:33:04Z</time></trkpt><trkpt lat="35.088292352868045" lon="-5.244583933445734"><ele>525.0</ele><time>2026-04-28T10:33:05Z</time></trkpt><trkpt lat="35.08825027272797" lon="-5.244513780861383"><ele>525.0</ele><time>2026-04-28T10:33:06Z</time></trkpt><trkpt lat="35.08820485312666" lon="-5.244444167802066"><ele>525.5714285714286</ele><time>2026-04-28T10:33:07Z</time></trkpt><trkpt lat="35.08816422017682" lon="-5.244382140783151"><ele>526.1428571428571</ele><time>2026-04-28T10:33:08Z</time></trkpt><trkpt lat="35.088119206464334" lon="-5.244313678993304"><ele>526.7142857142858</ele><time>2026-04-28T10:33:09Z</time></trkpt><trkpt lat="35.08807554388295" lon="-5.2442472720932924"><ele>527.2857142857142</ele><time>2026-04-28T10:33:10Z</time></trkpt><trkpt lat="35.088029478866275" lon="-5.244177211434973"><ele>527.8571428571429</ele><time>2026-04-28T10:33:11Z</time></trkpt><trkpt lat="35.08796678614883" lon="-5.2441140414915415"><ele>528.4285714285714</ele><time>2026-04-28T10:33:12Z</time></trkpt><trkpt lat="35.087922960115854" lon="-5.24403445656767"><ele>529.0</ele><time>2026-04-28T10:33:13Z</time></trkpt><trkpt lat="35.087881659168865" lon="-5.24395996505777"><ele>530.6666666666667</ele><time>2026-04-28T10:33:14Z</time></trkpt><trkpt lat="35.08784091698559" lon="-5.2438976640458375"><ele>532.3333333333334</ele><time>2026-04-28T10:33:15Z</time></trkpt><trkpt lat="35.08775895299102" lon="-5.243789831058197"><ele>534.0</ele><time>2026-04-28T10:33:17Z</time></trkpt><trkpt lat="35.087715431388304" lon="-5.243732562811491"><ele>535.6666666666666</ele><time>2026-04-28T10:33:18Z</time></trkpt><trkpt lat="35.087669291144266" lon="-5.24366876380592"><ele>537.3333333333333</ele><time>2026-04-28T10:33:19Z</time></trkpt><trkpt lat="35.087622746922946" lon="-5.243607979219444"><ele>539.0</ele><time>2026-04-28T10:33:20Z</time></trkpt><trkpt lat="35.08758192135675" lon="-5.243532167867664"><ele>539.0</ele><time>2026-04-28T10:33:21Z</time></trkpt><trkpt lat="35.087536386376435" lon="-5.2434607109634594"><ele>539.0</ele><time>2026-04-28T10:33:22Z</time></trkpt><trkpt lat="35.08748566469286" lon="-5.2433774799266075"><ele>539.0</ele><time>2026-04-28T10:33:23Z</time></trkpt><trkpt lat="35.08743211953381" lon="-5.243289615481223"><ele>539.0</ele><time>2026-04-28T10:33:24Z</time></trkpt><trkpt lat="35.08738220329309" lon="-5.243199310210309"><ele>539.0</ele><time>2026-04-28T10:33:25Z</time></trkpt><trkpt lat="35.08733252435435" lon="-5.243111142048371"><ele>539.0</ele><time>2026-04-28T10:33:26Z</time></trkpt><trkpt lat="35.087289387455925" lon="-5.243039359499921"><ele>540.1666666666666</ele><time>2026-04-28T10:33:27Z</time></trkpt><trkpt lat="35.08724907334081" lon="-5.2429721213705465"><ele>541.3333333333333</ele><time>2026-04-28T10:33:28Z</time></trkpt><trkpt lat="35.08721079648866" lon="-5.2429081249198415"><ele>542.5</ele><time>2026-04-28T10:33:29Z</time></trkpt><trkpt lat="35.087121648455735" lon="-5.242789207654683"><ele>543.6666666666666</ele><time>2026-04-28T10:33:31Z</time></trkpt><trkpt lat="35.0870798835999" lon="-5.2427085862617995"><ele>544.8333333333334</ele><time>2026-04-28T10:33:32Z</time></trkpt><trkpt lat="35.087047019914664" lon="-5.242624709846764"><ele>546.0</ele><time>2026-04-28T10:33:33Z</time></trkpt><trkpt lat="35.08700644719829" lon="-5.242549194639624"><ele>546.0</ele><time>2026-04-28T10:33:34Z</time></trkpt><trkpt lat="35.08695685222437" lon="-5.242479984565135"><ele>546.0</ele><time>2026-04-28T10:33:35Z</time></trkpt><trkpt lat="35.08691913322963" lon="-5.242394603388635"><ele>546.0</ele><time>2026-04-28T10:33:36Z</time></trkpt><trkpt lat="35.08687204601232" lon="-5.2422970613519935"><ele>546.0</ele><time>2026-04-28T10:33:37Z</time></trkpt><trkpt lat="35.086824746204286" lon="-5.242208480502777"><ele>546.0</ele><time>2026-04-28T10:33:38Z</time></trkpt><trkpt lat="35.086786219160565" lon="-5.242135349679641"><ele>546.0</ele><time>2026-04-28T10:33:39Z</time></trkpt><trkpt lat="35.08671049005995" lon="-5.2420260417361915"><ele>546.8333333333334</ele><time>2026-04-28T10:33:41Z</time></trkpt><trkpt lat="35.086666957441395" lon="-5.2419332992276155"><ele>547.6666666666666</ele><time>2026-04-28T10:33:43Z</time></trkpt><trkpt lat="35.08661837484641" lon="-5.241834194193669"><ele>548.5</ele><time>2026-04-28T10:33:45Z</time></trkpt><trkpt lat="35.086593233374224" lon="-5.241743730282352"><ele>549.3333333333333</ele><time>2026-04-28T10:33:47Z</time></trkpt><trkpt lat="35.08656700455939" lon="-5.2416581759977525"><ele>550.1666666666666</ele><time>2026-04-28T10:33:49Z</time></trkpt><trkpt lat="35.08654419628107" lon="-5.241575569668064"><ele>551.0</ele><time>2026-04-28T10:33:51Z</time></trkpt><trkpt lat="35.08651958101403" lon="-5.241484870559144"><ele>547.8333333333333</ele><time>2026-04-28T10:33:53Z</time></trkpt><trkpt lat="35.0864913629999" lon="-5.241361335523316"><ele>544.6666666666666</ele><time>2026-04-28T10:33:55Z</time></trkpt><trkpt lat="35.08646318670902" lon="-5.241253236129887"><ele>541.5</ele><time>2026-04-28T10:33:57Z</time></trkpt><trkpt lat="35.086434794519576" lon="-5.241154858105274"><ele>538.3333333333334</ele><time>2026-04-28T10:33:59Z</time></trkpt><trkpt lat="35.08639983147694" lon="-5.24106417741337"><ele>535.1666666666667</ele><time>2026-04-28T10:34:01Z</time></trkpt><trkpt lat="35.08637232071321" lon="-5.240991134120518"><ele>532.0</ele><time>2026-04-28T10:34:03Z</time></trkpt><trkpt lat="35.08632349195425" lon="-5.240901244980775"><ele>532.0</ele><time>2026-04-28T10:34:06Z</time></trkpt><trkpt lat="35.086372301906785" lon="-5.240794600025008"><ele>532.0</ele><time>2026-04-28T10:34:09Z</time></trkpt><trkpt lat="35.086428672089085" lon="-5.240725385237533"><ele>532.0</ele><time>2026-04-28T10:34:11Z</time></trkpt><trkpt lat="35.0864917865287" lon="-5.240653768819197"><ele>532.0</ele><time>2026-04-28T10:34:13Z</time></trkpt><trkpt lat="35.08654332067667" lon="-5.240599090690521"><ele>532.0</ele><time>2026-04-28T10:34:15Z</time></trkpt><trkpt lat="35.086599538519906" lon="-5.240556219297694"><ele>532.0</ele><time>2026-04-28T10:34:17Z</time></trkpt><trkpt lat="35.08665316440301" lon="-5.240481194274013"><ele>531.0</ele><time>2026-04-28T10:34:19Z</time></trkpt><trkpt lat="35.08668880627115" lon="-5.240393313934296"><ele>530.0</ele><time>2026-04-28T10:34:21Z</time></trkpt><trkpt lat="35.08670153475255" lon="-5.240282312504902"><ele>529.0</ele><time>2026-04-28T10:34:23Z</time></trkpt><trkpt lat="35.08668962250002" lon="-5.24016405005792"><ele>528.0</ele><time>2026-04-28T10:34:25Z</time></trkpt><trkpt lat="35.0866897597598" lon="-5.2400379245902515"><ele>527.0</ele><time>2026-04-28T10:34:27Z</time></trkpt><trkpt lat="35.08666398037716" lon="-5.239931887320225"><ele>527.0</ele><time>2026-04-28T10:34:29Z</time></trkpt><trkpt lat="35.08663924943353" lon="-5.239830740018196"><ele>527.0</ele><time>2026-04-28T10:34:31Z</time></trkpt><trkpt lat="35.08660434037353" lon="-5.239740322767794"><ele>527.0</ele><time>2026-04-28T10:34:33Z</time></trkpt><trkpt lat="35.08658518724739" lon="-5.239645224061391"><ele>527.0</ele><time>2026-04-28T10:34:35Z</time></trkpt><trkpt lat="35.0865634715131" lon="-5.239543552174328"><ele>527.0</ele><time>2026-04-28T10:34:37Z</time></trkpt><trkpt lat="35.08654548491597" lon="-5.239442981072484"><ele>527.0</ele><time>2026-04-28T10:34:39Z</time></trkpt><trkpt lat="35.08653598929625" lon="-5.239338146378621"><ele>525.2</ele><time>2026-04-28T10:34:41Z</time></trkpt><trkpt lat="35.08655894565482" lon="-5.239239489986044"><ele>523.4000000000001</ele><time>2026-04-28T10:34:43Z</time></trkpt><trkpt lat="35.08660891576441" lon="-5.23910494025909"><ele>521.5999999999999</ele><time>2026-04-28T10:34:45Z</time></trkpt><trkpt lat="35.08666140660594" lon="-5.238985050330255"><ele>519.8</ele><time>2026-04-28T10:34:47Z</time></trkpt><trkpt lat="35.086696383656125" lon="-5.238876309408832"><ele>518.0</ele><time>2026-04-28T10:34:49Z</time></trkpt><trkpt lat="35.08674115727463" lon="-5.238793289772511"><ele>516.1999999999999</ele><time>2026-04-28T10:34:51Z</time></trkpt><trkpt lat="35.08680156410798" lon="-5.238693332383069"><ele>514.4</ele><time>2026-04-28T10:34:53Z</time></trkpt><trkpt lat="35.086850683528006" lon="-5.238588129323407"><ele>512.5999999999999</ele><time>2026-04-28T10:34:55Z</time></trkpt><trkpt lat="35.08689739075662" lon="-5.238470879501896"><ele>510.79999999999995</ele><time>2026-04-28T10:34:57Z</time></trkpt><trkpt lat="35.08691986070013" lon="-5.238347568244507"><ele>509.0</ele><time>2026-04-28T10:34:59Z</time></trkpt><trkpt lat="35.08688352421324" lon="-5.2382255172893135"><ele>507.3333333333333</ele><time>2026-04-28T10:35:01Z</time></trkpt><trkpt lat="35.08688405463231" lon="-5.23812013062786"><ele>505.66666666666663</ele><time>2026-04-28T10:35:03Z</time></trkpt><trkpt lat="35.08687101685944" lon="-5.238028580138177"><ele>504.0</ele><time>2026-04-28T10:35:05Z</time></trkpt><trkpt lat="35.08686624342159" lon="-5.237939811804097"><ele>502.33333333333337</ele><time>2026-04-28T10:35:07Z</time></trkpt><trkpt lat="35.08686957655821" lon="-5.237849574574367"><ele>500.6666666666667</ele><time>2026-04-28T10:35:09Z</time></trkpt><trkpt lat="35.086869967109024" lon="-5.237761979391159"><ele>499.0</ele><time>2026-04-28T10:35:11Z</time></trkpt><trkpt lat="35.086902825044895" lon="-5.237684235651654"><ele>499.0</ele><time>2026-04-28T10:35:13Z</time></trkpt><trkpt lat="35.08694632900619" lon="-5.237605014748069"><ele>499.0</ele><time>2026-04-28T10:35:15Z</time></trkpt><trkpt lat="35.0870185076538" lon="-5.23752880387087"><ele>499.0</ele><time>2026-04-28T10:35:17Z</time></trkpt><trkpt lat="35.08708712583062" lon="-5.237421375031803"><ele>499.0</ele><time>2026-04-28T10:35:19Z</time></trkpt><trkpt lat="35.08717895260701" lon="-5.237339495686546"><ele>499.0</ele><time>2026-04-28T10:35:21Z</time></trkpt><trkpt lat="35.087269643795324" lon="-5.237275952589417"><ele>498.33333333333337</ele><time>2026-04-28T10:35:23Z</time></trkpt><trkpt lat="35.087358678417" lon="-5.237218535491007"><ele>497.6666666666667</ele><time>2026-04-28T10:35:25Z</time></trkpt><trkpt lat="35.087434285324846" lon="-5.237159862682175"><ele>497.0</ele><time>2026-04-28T10:35:27Z</time></trkpt><trkpt lat="35.08748234812265" lon="-5.237105848319448"><ele>496.33333333333337</ele><time>2026-04-28T10:35:29Z</time></trkpt><trkpt lat="35.08752644541516" lon="-5.237043573939323"><ele>495.6666666666667</ele><time>2026-04-28T10:35:31Z</time></trkpt><trkpt lat="35.08755807318812" lon="-5.236962683523736"><ele>495.0</ele><time>2026-04-28T10:35:33Z</time></trkpt><trkpt lat="35.08758862404607" lon="-5.236867219148999"><ele>495.0</ele><time>2026-04-28T10:35:35Z</time></trkpt><trkpt lat="35.08760548450306" lon="-5.236751412659443"><ele>495.0</ele><time>2026-04-28T10:35:37Z</time></trkpt><trkpt lat="35.08759769292247" lon="-5.236644456287066"><ele>495.0</ele><time>2026-04-28T10:35:39Z</time></trkpt><trkpt lat="35.08758835405892" lon="-5.236539621187072"><ele>495.0</ele><time>2026-04-28T10:35:41Z</time></trkpt><trkpt lat="35.08753119355492" lon="-5.236440612114056"><ele>495.0</ele><time>2026-04-28T10:35:43Z</time></trkpt><trkpt lat="35.08748218398872" lon="-5.236351119309007"><ele>494.6666666666667</ele><time>2026-04-28T10:35:45Z</time></trkpt><trkpt lat="35.087452208225535" lon="-5.236260882253318"><ele>494.33333333333337</ele><time>2026-04-28T10:35:47Z</time></trkpt><trkpt lat="35.08743112205277" lon="-5.236168119551283"><ele>494.0</ele><time>2026-04-28T10:35:49Z</time></trkpt><trkpt lat="35.08742174086624" lon="-5.236083988537169"><ele>493.6666666666667</ele><time>2026-04-28T10:35:51Z</time></trkpt><trkpt lat="35.087412447659126" lon="-5.236006348544321"><ele>493.33333333333337</ele><time>2026-04-28T10:35:53Z</time></trkpt><trkpt lat="35.08740471494818" lon="-5.235924990136749"><ele>493.0</ele><time>2026-04-28T10:35:56Z</time></trkpt><trkpt lat="35.08720024626264" lon="-5.23585176746683"><ele>493.0</ele><time>2026-04-28T10:37:09Z</time></trkpt><trkpt lat="35.087129012402315" lon="-5.235821176268129"><ele>492.99999999999994</ele><time>2026-04-28T10:37:10Z</time></trkpt><trkpt lat="35.08705958436562" lon="-5.235769975845927"><ele>492.99999999999994</ele><time>2026-04-28T10:37:11Z</time></trkpt><trkpt lat="35.08699710483478" lon="-5.2356826559956025"><ele>493.0</ele><time>2026-04-28T10:37:12Z</time></trkpt><trkpt lat="35.08694937161976" lon="-5.235567229450157"><ele>493.0</ele><time>2026-04-28T10:37:13Z</time></trkpt><trkpt lat="35.086916703269935" lon="-5.235430280425669"><ele>493.33333333333337</ele><time>2026-04-28T10:37:14Z</time></trkpt><trkpt lat="35.086889267792905" lon="-5.235272062741167"><ele>493.66666666666663</ele><time>2026-04-28T10:37:15Z</time></trkpt><trkpt lat="35.08685011280393" lon="-5.235090287699132"><ele>494.0</ele><time>2026-04-28T10:37:16Z</time></trkpt><trkpt lat="35.086812247420916" lon="-5.234882845185417"><ele>494.0</ele><time>2026-04-28T10:37:17Z</time></trkpt><trkpt lat="35.08678055425949" lon="-5.23468815487813"><ele>494.0</ele><time>2026-04-28T10:37:18Z</time></trkpt><trkpt lat="35.08674458031176" lon="-5.234505943379918"><ele>494.0</ele><time>2026-04-28T10:37:19Z</time></trkpt><trkpt lat="35.0866993103031" lon="-5.234326266661359"><ele>494.0</ele><time>2026-04-28T10:37:20Z</time></trkpt><trkpt lat="35.086643801866025" lon="-5.234167937602657"><ele>494.0</ele><time>2026-04-28T10:37:21Z</time></trkpt><trkpt lat="35.08657546846764" lon="-5.234037711871243"><ele>494.0</ele><time>2026-04-28T10:37:22Z</time></trkpt><trkpt lat="35.08648611231152" lon="-5.233949018139084"><ele>494.0</ele><time>2026-04-28T10:37:23Z</time></trkpt><trkpt lat="35.08638470028447" lon="-5.2338729448745696"><ele>496.0</ele><time>2026-04-28T10:37:24Z</time></trkpt><trkpt lat="35.0862770446447" lon="-5.233788065872587"><ele>498.0</ele><time>2026-04-28T10:37:25Z</time></trkpt><trkpt lat="35.086157371021905" lon="-5.233683067497092"><ele>500.0</ele><time>2026-04-28T10:37:26Z</time></trkpt><trkpt lat="35.08603366420097" lon="-5.233569903496711"><ele>502.0</ele><time>2026-04-28T10:37:27Z</time></trkpt><trkpt lat="35.08592483845087" lon="-5.2334586979756486"><ele>502.0</ele><time>2026-04-28T10:37:28Z</time></trkpt><trkpt lat="35.08583560398256" lon="-5.233334776044487"><ele>502.0</ele><time>2026-04-28T10:37:29Z</time></trkpt><trkpt lat="35.08577360928174" lon="-5.233179414411823"><ele>502.0</ele><time>2026-04-28T10:37:30Z</time></trkpt><trkpt lat="35.085714985883946" lon="-5.233002147368047"><ele>502.0</ele><time>2026-04-28T10:37:31Z</time></trkpt><trkpt lat="35.08564191047675" lon="-5.232830357702245"><ele>503.75</ele><time>2026-04-28T10:37:32Z</time></trkpt><trkpt lat="35.08555607344511" lon="-5.232680533370747"><ele>505.5</ele><time>2026-04-28T10:37:33Z</time></trkpt><trkpt lat="35.085461176949664" lon="-5.232541655247932"><ele>507.25</ele><time>2026-04-28T10:37:34Z</time></trkpt><trkpt lat="35.08535207125115" lon="-5.2324146368575395"><ele>509.0</ele><time>2026-04-28T10:37:35Z</time></trkpt><trkpt lat="35.08522831042718" lon="-5.232297519583702"><ele>509.0</ele><time>2026-04-28T10:37:36Z</time></trkpt><trkpt lat="35.08509823866015" lon="-5.232208908404558"><ele>509.0</ele><time>2026-04-28T10:37:37Z</time></trkpt><trkpt lat="35.08497531813802" lon="-5.232117127688173"><ele>509.0</ele><time>2026-04-28T10:37:38Z</time></trkpt><trkpt lat="35.084860506644176" lon="-5.232015355085542"><ele>509.0</ele><time>2026-04-28T10:37:39Z</time></trkpt><trkpt lat="35.08471726964233" lon="-5.2319629435071535"><ele>510.0</ele><time>2026-04-28T10:37:40Z</time></trkpt><trkpt lat="35.084565041789546" lon="-5.231937394096472"><ele>511.0</ele><time>2026-04-28T10:37:41Z</time></trkpt><trkpt lat="35.08442336672814" lon="-5.231954714757863"><ele>512.0</ele><time>2026-04-28T10:37:42Z</time></trkpt><trkpt lat="35.084305681903274" lon="-5.232017693608536"><ele>513.0</ele><time>2026-04-28T10:37:43Z</time></trkpt><trkpt lat="35.084189305775816" lon="-5.232102571057517"><ele>515.25</ele><time>2026-04-28T10:37:44Z</time></trkpt><trkpt lat="35.08405054673804" lon="-5.232182936933075"><ele>517.5</ele><time>2026-04-28T10:37:45Z</time></trkpt><trkpt lat="35.08392684492672" lon="-5.232286442546774"><ele>519.75</ele><time>2026-04-28T10:37:46Z</time></trkpt><trkpt lat="35.08380721959399" lon="-5.23237662081717"><ele>522.0</ele><time>2026-04-28T10:37:47Z</time></trkpt><trkpt lat="35.08369883694377" lon="-5.2324493341324265"><ele>523.0</ele><time>2026-04-28T10:37:48Z</time></trkpt><trkpt lat="35.08359060747559" lon="-5.2324953257011035"><ele>524.0</ele><time>2026-04-28T10:37:49Z</time></trkpt><trkpt lat="35.083470318585476" lon="-5.232502023225823"><ele>525.0</ele><time>2026-04-28T10:37:50Z</time></trkpt><trkpt lat="35.08333958951362" lon="-5.232477987271538"><ele>526.0</ele><time>2026-04-28T10:37:51Z</time></trkpt><trkpt lat="35.083204989948264" lon="-5.232440108859864"><ele>528.25</ele><time>2026-04-28T10:37:52Z</time></trkpt><trkpt lat="35.08307915514066" lon="-5.232383144907015"><ele>530.5</ele><time>2026-04-28T10:37:53Z</time></trkpt><trkpt lat="35.0829757426578" lon="-5.232286943714632"><ele>532.75</ele><time>2026-04-28T10:37:54Z</time></trkpt><trkpt lat="35.08287972147442" lon="-5.23215043582893"><ele>535.0</ele><time>2026-04-28T10:37:55Z</time></trkpt><trkpt lat="35.082781622964134" lon="-5.231997616699492"><ele>535.0</ele><time>2026-04-28T10:37:56Z</time></trkpt><trkpt lat="35.08267561753787" lon="-5.231848580094055"><ele>535.0</ele><time>2026-04-28T10:37:57Z</time></trkpt><trkpt lat="35.08256228296857" lon="-5.231704001325084"><ele>535.0</ele><time>2026-04-28T10:37:58Z</time></trkpt><trkpt lat="35.0824518340341" lon="-5.23155479344279"><ele>538.6666666666667</ele><time>2026-04-28T10:37:59Z</time></trkpt><trkpt lat="35.082336950385766" lon="-5.231394423187891"><ele>542.3333333333334</ele><time>2026-04-28T10:38:00Z</time></trkpt><trkpt lat="35.08221539802299" lon="-5.231228006805295"><ele>546.0</ele><time>2026-04-28T10:38:01Z</time></trkpt><trkpt lat="35.08209170862562" lon="-5.231060323011013"><ele>546.0</ele><time>2026-04-28T10:38:02Z</time></trkpt><trkpt lat="35.0819823398359" lon="-5.2309043053929"><ele>546.0</ele><time>2026-04-28T10:38:03Z</time></trkpt><trkpt lat="35.0818824586115" lon="-5.2307669723382775"><ele>546.0</ele><time>2026-04-28T10:38:04Z</time></trkpt><trkpt lat="35.08177791199344" lon="-5.230663351859887"><ele>545.25</ele><time>2026-04-28T10:38:05Z</time></trkpt><trkpt lat="35.081662431907134" lon="-5.230602900473135"><ele>544.5</ele><time>2026-04-28T10:38:06Z</time></trkpt><trkpt lat="35.081526779521525" lon="-5.230572029063656"><ele>543.75</ele><time>2026-04-28T10:38:07Z</time></trkpt><trkpt lat="35.08137551993173" lon="-5.230552877079412"><ele>543.0</ele><time>2026-04-28T10:38:08Z</time></trkpt><trkpt lat="35.081217234927614" lon="-5.230523890012023"><ele>543.0</ele><time>2026-04-28T10:38:09Z</time></trkpt><trkpt lat="35.08104962918481" lon="-5.2304979561331555"><ele>543.0</ele><time>2026-04-28T10:38:10Z</time></trkpt><trkpt lat="35.08087238321597" lon="-5.23047962381543"><ele>543.0</ele><time>2026-04-28T10:38:11Z</time></trkpt><trkpt lat="35.08068716036445" lon="-5.230469965234768"><ele>545.3333333333334</ele><time>2026-04-28T10:38:12Z</time></trkpt><trkpt lat="35.08049669309052" lon="-5.2304609166137634"><ele>547.6666666666667</ele><time>2026-04-28T10:38:13Z</time></trkpt><trkpt lat="35.080309178269474" lon="-5.230456215117519"><ele>550.0</ele><time>2026-04-28T10:38:14Z</time></trkpt><trkpt lat="35.08012114975053" lon="-5.230453211192051"><ele>550.0</ele><time>2026-04-28T10:38:15Z</time></trkpt><trkpt lat="35.07993701984505" lon="-5.23044733702058"><ele>550.0</ele><time>2026-04-28T10:38:16Z</time></trkpt><trkpt lat="35.07975402250247" lon="-5.230438724632571"><ele>550.0</ele><time>2026-04-28T10:38:17Z</time></trkpt><trkpt lat="35.07957703335333" lon="-5.230430578179633"><ele>549.0</ele><time>2026-04-28T10:38:18Z</time></trkpt><trkpt lat="35.07940229520935" lon="-5.230427458821508"><ele>548.0</ele><time>2026-04-28T10:38:19Z</time></trkpt><trkpt lat="35.07923608755572" lon="-5.230429814115243"><ele>547.0</ele><time>2026-04-28T10:38:20Z</time></trkpt><trkpt lat="35.07907564209834" lon="-5.230453671796016"><ele>547.0</ele><time>2026-04-28T10:38:21Z</time></trkpt><trkpt lat="35.07891709198955" lon="-5.230512856735233"><ele>547.0</ele><time>2026-04-28T10:38:22Z</time></trkpt><trkpt lat="35.078770210575314" lon="-5.230617328531202"><ele>547.0</ele><time>2026-04-28T10:38:23Z</time></trkpt><trkpt lat="35.07860805255138" lon="-5.230720612656898"><ele>552.0</ele><time>2026-04-28T10:38:24Z</time></trkpt><trkpt lat="35.07843413918967" lon="-5.230806893617183"><ele>557.0</ele><time>2026-04-28T10:38:25Z</time></trkpt><trkpt lat="35.0782656214114" lon="-5.230921939588029"><ele>562.0</ele><time>2026-04-28T10:38:26Z</time></trkpt><trkpt lat="35.07809690215512" lon="-5.231030130077956"><ele>562.0</ele><time>2026-04-28T10:38:26.999Z</time></trkpt><trkpt lat="35.07792346397695" lon="-5.231136303532849"><ele>562.0</ele><time>2026-04-28T10:38:27.999Z</time></trkpt><trkpt lat="35.07774855729466" lon="-5.231243188527399"><ele>562.0</ele><time>2026-04-28T10:38:28.999Z</time></trkpt><trkpt lat="35.07758153604934" lon="-5.2313665293044"><ele>563.6666666666667</ele><time>2026-04-28T10:38:29.999Z</time></trkpt><trkpt lat="35.07741420987506" lon="-5.231479663245079"><ele>565.3333333333334</ele><time>2026-04-28T10:38:30.999Z</time></trkpt><trkpt lat="35.07726825833396" lon="-5.231607318799626"><ele>567.0</ele><time>2026-04-28T10:38:31.999Z</time></trkpt><trkpt lat="35.077124056771275" lon="-5.231745432391643"><ele>567.0</ele><time>2026-04-28T10:38:32.999Z</time></trkpt><trkpt lat="35.07698637453324" lon="-5.231894858332372"><ele>567.0</ele><time>2026-04-28T10:38:33.999Z</time></trkpt><trkpt lat="35.076849217992915" lon="-5.232050526778487"><ele>567.0</ele><time>2026-04-28T10:38:34.999Z</time></trkpt><trkpt lat="35.07672853590155" lon="-5.232214774908492"><ele>570.0</ele><time>2026-04-28T10:38:35.999Z</time></trkpt><trkpt lat="35.07663071174661" lon="-5.232381253486042"><ele>573.0</ele><time>2026-04-28T10:38:36.999Z</time></trkpt><trkpt lat="35.07655708533063" lon="-5.232561998552257"><ele>576.0</ele><time>2026-04-28T10:38:38Z</time></trkpt><trkpt lat="35.07649131421106" lon="-5.2327638724779835"><ele>576.6666666666666</ele><time>2026-04-28T10:38:39Z</time></trkpt><trkpt lat="35.07642964103337" lon="-5.2329743111829865"><ele>577.3333333333333</ele><time>2026-04-28T10:38:40Z</time></trkpt><trkpt lat="35.076377083413945" lon="-5.233163617538422"><ele>578.0</ele><time>2026-04-28T10:38:41Z</time></trkpt><trkpt lat="35.07632093712517" lon="-5.233335411640822"><ele>578.75</ele><time>2026-04-28T10:38:42Z</time></trkpt><trkpt lat="35.076263115477225" lon="-5.233501282221838"><ele>579.5</ele><time>2026-04-28T10:38:43Z</time></trkpt><trkpt lat="35.07617063266848" lon="-5.2336469064320275"><ele>580.25</ele><time>2026-04-28T10:38:44Z</time></trkpt><trkpt lat="35.07608087573415" lon="-5.2337782946193325"><ele>581.0</ele><time>2026-04-28T10:38:45Z</time></trkpt><trkpt lat="35.07598552485061" lon="-5.233883185870663"><ele>581.0</ele><time>2026-04-28T10:38:46Z</time></trkpt><trkpt lat="35.07588382182442" lon="-5.2339613989464935"><ele>581.0</ele><time>2026-04-28T10:38:47Z</time></trkpt><trkpt lat="35.075774265147956" lon="-5.234012398850189"><ele>581.0</ele><time>2026-04-28T10:38:48Z</time></trkpt><trkpt lat="35.07565610109982" lon="-5.234024787036096"><ele>581.0</ele><time>2026-04-28T10:38:49Z</time></trkpt><trkpt lat="35.07554057936874" lon="-5.233998309775378"><ele>583.75</ele><time>2026-04-28T10:38:50Z</time></trkpt><trkpt lat="35.07543457584817" lon="-5.233933547876701"><ele>586.5</ele><time>2026-04-28T10:38:51Z</time></trkpt><trkpt lat="35.07533346831489" lon="-5.233838905881358"><ele>589.25</ele><time>2026-04-28T10:38:52Z</time></trkpt><trkpt lat="35.075239955306" lon="-5.233719072670576"><ele>592.0</ele><time>2026-04-28T10:38:53Z</time></trkpt><trkpt lat="35.075152736676145" lon="-5.233578009408858"><ele>592.0</ele><time>2026-04-28T10:38:54Z</time></trkpt><trkpt lat="35.07506259188" lon="-5.233434827675333"><ele>592.0</ele><time>2026-04-28T10:38:55Z</time></trkpt><trkpt lat="35.074968349436396" lon="-5.233283745227016"><ele>592.0</ele><time>2026-04-28T10:38:56Z</time></trkpt><trkpt lat="35.07487545776697" lon="-5.233128249082332"><ele>593.5</ele><time>2026-04-28T10:38:57Z</time></trkpt><trkpt lat="35.07478246397398" lon="-5.232983704828012"><ele>595.0</ele><time>2026-04-28T10:38:58Z</time></trkpt><trkpt lat="35.07469661953323" lon="-5.232858901547534"><ele>596.5</ele><time>2026-04-28T10:38:59Z</time></trkpt><trkpt lat="35.07462150594146" lon="-5.232743832104171"><ele>598.0</ele><time>2026-04-28T10:39:00Z</time></trkpt><trkpt lat="35.074541900949875" lon="-5.23265241843589"><ele>598.0</ele><time>2026-04-28T10:39:01Z</time></trkpt><trkpt lat="35.074445050128375" lon="-5.232591731331166"><ele>598.0</ele><time>2026-04-28T10:39:02Z</time></trkpt><trkpt lat="35.074338743804894" lon="-5.2325498513065325"><ele>598.0</ele><time>2026-04-28T10:39:03Z</time></trkpt><trkpt lat="35.074217749755924" lon="-5.2325585507736445"><ele>598.0</ele><time>2026-04-28T10:39:04Z</time></trkpt><trkpt lat="35.074105834613185" lon="-5.2326259815173035"><ele>598.5</ele><time>2026-04-28T10:39:05Z</time></trkpt><trkpt lat="35.07400987000182" lon="-5.232729908723602"><ele>599.0</ele><time>2026-04-28T10:39:06Z</time></trkpt><trkpt lat="35.07392760904165" lon="-5.232859762484203"><ele>599.5</ele><time>2026-04-28T10:39:07Z</time></trkpt><trkpt lat="35.07384917340167" lon="-5.233022234772754"><ele>600.0</ele><time>2026-04-28T10:39:08Z</time></trkpt><trkpt lat="35.073765282797936" lon="-5.2331888760280005"><ele>600.0</ele><time>2026-04-28T10:39:09Z</time></trkpt><trkpt lat="35.07368343921718" lon="-5.233356134013941"><ele>600.0</ele><time>2026-04-28T10:39:10Z</time></trkpt><trkpt lat="35.07360489561471" lon="-5.233515633364419"><ele>600.0</ele><time>2026-04-28T10:39:11Z</time></trkpt><trkpt lat="35.07352921109333" lon="-5.233669326242338"><ele>600.0</ele><time>2026-04-28T10:39:12Z</time></trkpt><trkpt lat="35.0734542549819" lon="-5.233822393504685"><ele>600.0</ele><time>2026-04-28T10:39:13Z</time></trkpt><trkpt lat="35.07338191959057" lon="-5.233970880152471"><ele>600.0</ele><time>2026-04-28T10:39:14Z</time></trkpt><trkpt lat="35.073312005933566" lon="-5.23411684089582"><ele>600.0</ele><time>2026-04-28T10:39:15Z</time></trkpt><trkpt lat="35.07321588683777" lon="-5.234247299387826"><ele>600.5</ele><time>2026-04-28T10:39:16Z</time></trkpt><trkpt lat="35.07309600880091" lon="-5.234346242701859"><ele>601.0</ele><time>2026-04-28T10:39:17Z</time></trkpt><trkpt lat="35.07297834836849" lon="-5.2344425010416495"><ele>601.5</ele><time>2026-04-28T10:39:18Z</time></trkpt><trkpt lat="35.07286964487294" lon="-5.234552034352105"><ele>602.0</ele><time>2026-04-28T10:39:19Z</time></trkpt><trkpt lat="35.072755397539595" lon="-5.234652941362358"><ele>602.0</ele><time>2026-04-28T10:39:20Z</time></trkpt><trkpt lat="35.07263131812011" lon="-5.234737534300927"><ele>602.0</ele><time>2026-04-28T10:39:21Z</time></trkpt><trkpt lat="35.07252492630333" lon="-5.234854562256927"><ele>602.0</ele><time>2026-04-28T10:39:22Z</time></trkpt><trkpt lat="35.07241010270699" lon="-5.234953794814443"><ele>602.0</ele><time>2026-04-28T10:39:23Z</time></trkpt><trkpt lat="35.07230205915421" lon="-5.235046636535228"><ele>603.5</ele><time>2026-04-28T10:39:24Z</time></trkpt><trkpt lat="35.07219240496368" lon="-5.235139632505786"><ele>605.0</ele><time>2026-04-28T10:39:25Z</time></trkpt><trkpt lat="35.07208503021982" lon="-5.2352312330286015"><ele>606.5</ele><time>2026-04-28T10:39:26Z</time></trkpt><trkpt lat="35.07197761603955" lon="-5.235322120516089"><ele>608.0</ele><time>2026-04-28T10:39:27Z</time></trkpt><trkpt lat="35.07186411494633" lon="-5.235393300551859"><ele>608.0</ele><time>2026-04-28T10:39:28Z</time></trkpt><trkpt lat="35.07176215229793" lon="-5.235482450327375"><ele>608.0</ele><time>2026-04-28T10:39:29Z</time></trkpt><trkpt lat="35.0716595281774" lon="-5.235570170040438"><ele>608.0</ele><time>2026-04-28T10:39:30Z</time></trkpt><trkpt lat="35.071573809260535" lon="-5.235668420235296"><ele>608.0</ele><time>2026-04-28T10:39:31Z</time></trkpt><trkpt lat="35.071479112344925" lon="-5.2357513322608344"><ele>609.0</ele><time>2026-04-28T10:39:32Z</time></trkpt><trkpt lat="35.07138336511904" lon="-5.235834211387559"><ele>610.0</ele><time>2026-04-28T10:39:33Z</time></trkpt><trkpt lat="35.071284347637366" lon="-5.235918554338273"><ele>611.0</ele><time>2026-04-28T10:39:34Z</time></trkpt><trkpt lat="35.07119345248293" lon="-5.23600745833407"><ele>612.0</ele><time>2026-04-28T10:39:35Z</time></trkpt><trkpt lat="35.071109855278095" lon="-5.236100958678829"><ele>612.0</ele><time>2026-04-28T10:39:36Z</time></trkpt><trkpt lat="35.07103309012704" lon="-5.236196902319351"><ele>612.0</ele><time>2026-04-28T10:39:37Z</time></trkpt><trkpt lat="35.07096445190029" lon="-5.236298876154662"><ele>612.0</ele><time>2026-04-28T10:39:38Z</time></trkpt><trkpt lat="35.070893104930974" lon="-5.2364169460438506"><ele>612.0</ele><time>2026-04-28T10:39:39Z</time></trkpt><trkpt lat="35.070825870909964" lon="-5.236519634902707"><ele>612.0</ele><time>2026-04-28T10:39:40Z</time></trkpt><trkpt lat="35.07075447439458" lon="-5.236610400858808"><ele>614.2</ele><time>2026-04-28T10:39:41Z</time></trkpt><trkpt lat="35.0706664556825" lon="-5.236672323788706"><ele>616.4000000000001</ele><time>2026-04-28T10:39:42Z</time></trkpt><trkpt lat="35.07059101132763" lon="-5.23675283972379"><ele>618.5999999999999</ele><time>2026-04-28T10:39:43Z</time></trkpt><trkpt lat="35.07048660803875" lon="-5.236804053057913"><ele>620.8</ele><time>2026-04-28T10:39:44Z</time></trkpt><trkpt lat="35.070371353189564" lon="-5.236822185142214"><ele>623.0</ele><time>2026-04-28T10:39:45Z</time></trkpt><trkpt lat="35.070257681995706" lon="-5.236803470794648"><ele>623.0</ele><time>2026-04-28T10:39:46Z</time></trkpt><trkpt lat="35.070146133323064" lon="-5.236758914206118"><ele>623.0</ele><time>2026-04-28T10:39:47Z</time></trkpt><trkpt lat="35.070038154205825" lon="-5.236690637710632"><ele>623.0</ele><time>2026-04-28T10:39:48Z</time></trkpt><trkpt lat="35.06993190320398" lon="-5.236612016023498"><ele>623.0</ele><time>2026-04-28T10:39:49Z</time></trkpt><trkpt lat="35.06982785007047" lon="-5.236526857959824"><ele>623.25</ele><time>2026-04-28T10:39:50Z</time></trkpt><trkpt lat="35.06971897616515" lon="-5.236459183397019"><ele>623.5</ele><time>2026-04-28T10:39:51Z</time></trkpt><trkpt lat="35.069607774968915" lon="-5.2364897470139296"><ele>623.75</ele><time>2026-04-28T10:39:52Z</time></trkpt><trkpt lat="35.06950491292089" lon="-5.236523332434344"><ele>624.0</ele><time>2026-04-28T10:39:53Z</time></trkpt><trkpt lat="35.06940475957635" lon="-5.236581482759666"><ele>624.0</ele><time>2026-04-28T10:39:54Z</time></trkpt><trkpt lat="35.069278715787256" lon="-5.236651135683913"><ele>624.0</ele><time>2026-04-28T10:39:55Z</time></trkpt><trkpt lat="35.06916648780473" lon="-5.236731667248443"><ele>624.0</ele><time>2026-04-28T10:39:56Z</time></trkpt><trkpt lat="35.06905758126998" lon="-5.23681086480426"><ele>624.0</ele><time>2026-04-28T10:39:57Z</time></trkpt><trkpt lat="35.06895780796783" lon="-5.236893737205857"><ele>623.75</ele><time>2026-04-28T10:39:58Z</time></trkpt><trkpt lat="35.068867236315725" lon="-5.236972972936111"><ele>623.5</ele><time>2026-04-28T10:39:59Z</time></trkpt><trkpt lat="35.06877422573912" lon="-5.237061654113451"><ele>623.25</ele><time>2026-04-28T10:40:00Z</time></trkpt><trkpt lat="35.06867379388107" lon="-5.237153111423553"><ele>623.0</ele><time>2026-04-28T10:40:01Z</time></trkpt><trkpt lat="35.068571322476586" lon="-5.2372339348916785"><ele>626.0</ele><time>2026-04-28T10:40:02Z</time></trkpt><trkpt lat="35.06846680041478" lon="-5.23731250761174"><ele>629.0</ele><time>2026-04-28T10:40:03Z</time></trkpt><trkpt lat="35.06835199701222" lon="-5.237373660515444"><ele>632.0</ele><time>2026-04-28T10:40:04Z</time></trkpt><trkpt lat="35.068245780644716" lon="-5.2374518451853325"><ele>635.0</ele><time>2026-04-28T10:40:05Z</time></trkpt><trkpt lat="35.06813382748367" lon="-5.237513179734241"><ele>636.0</ele><time>2026-04-28T10:40:06Z</time></trkpt><trkpt lat="35.068020945737295" lon="-5.2375576429040684"><ele>637.0</ele><time>2026-04-28T10:40:07Z</time></trkpt><trkpt lat="35.06790659916335" lon="-5.237578994528413"><ele>638.0</ele><time>2026-04-28T10:40:08Z</time></trkpt><trkpt lat="35.06779066008487" lon="-5.237579644803409"><ele>639.0</ele><time>2026-04-28T10:40:09Z</time></trkpt><trkpt lat="35.0676750473571" lon="-5.237550693151939"><ele>639.0</ele><time>2026-04-28T10:40:10Z</time></trkpt><trkpt lat="35.06757226417514" lon="-5.237483269733061"><ele>639.0</ele><time>2026-04-28T10:40:11Z</time></trkpt><trkpt lat="35.06748795285005" lon="-5.237379067192506"><ele>639.0</ele><time>2026-04-28T10:40:12Z</time></trkpt><trkpt lat="35.06742017446935" lon="-5.2372535162534675"><ele>639.0</ele><time>2026-04-28T10:40:13Z</time></trkpt><trkpt lat="35.06737252119568" lon="-5.237113080899279"><ele>642.5</ele><time>2026-04-28T10:40:14Z</time></trkpt><trkpt lat="35.067336696360336" lon="-5.236952439700459"><ele>646.0</ele><time>2026-04-28T10:40:15Z</time></trkpt><trkpt lat="35.06730782076807" lon="-5.236788729844888"><ele>649.5</ele><time>2026-04-28T10:40:16Z</time></trkpt><trkpt lat="35.0672817768039" lon="-5.236635049432656"><ele>653.0</ele><time>2026-04-28T10:40:17Z</time></trkpt><trkpt lat="35.067258422031834" lon="-5.236486801318779"><ele>652.25</ele><time>2026-04-28T10:40:18Z</time></trkpt><trkpt lat="35.06723175692317" lon="-5.236336069361813"><ele>651.5</ele><time>2026-04-28T10:40:19Z</time></trkpt><trkpt lat="35.06719586623441" lon="-5.236186187829805"><ele>650.75</ele><time>2026-04-28T10:40:19.999Z</time></trkpt><trkpt lat="35.06716532481874" lon="-5.236038659435581"><ele>650.0</ele><time>2026-04-28T10:40:20.999Z</time></trkpt><trkpt lat="35.06714010380877" lon="-5.2358927593513584"><ele>650.0</ele><time>2026-04-28T10:40:21.999Z</time></trkpt><trkpt lat="35.06711711411951" lon="-5.235753422815857"><ele>650.0</ele><time>2026-04-28T10:40:22.999Z</time></trkpt><trkpt lat="35.06708594760033" lon="-5.235619607901259"><ele>650.0</ele><time>2026-04-28T10:40:23.999Z</time></trkpt><trkpt lat="35.06703498765666" lon="-5.235492479745407"><ele>650.0</ele><time>2026-04-28T10:40:24.999Z</time></trkpt><trkpt lat="35.0669654624834" lon="-5.235370262193024"><ele>651.5</ele><time>2026-04-28T10:40:25.999Z</time></trkpt><trkpt lat="35.06688049129127" lon="-5.235264018988466"><ele>653.0</ele><time>2026-04-28T10:40:26.999Z</time></trkpt><trkpt lat="35.066773061411304" lon="-5.23520219789619"><ele>654.5</ele><time>2026-04-28T10:40:27.999Z</time></trkpt><trkpt lat="35.06665399121886" lon="-5.235177851316563"><ele>656.0</ele><time>2026-04-28T10:40:28.999Z</time></trkpt><trkpt lat="35.06652646800924" lon="-5.235148800142299"><ele>656.0</ele><time>2026-04-28T10:40:29.999Z</time></trkpt><trkpt lat="35.0664050278286" lon="-5.235103283778918"><ele>656.0</ele><time>2026-04-28T10:40:30.999Z</time></trkpt><trkpt lat="35.06629623709155" lon="-5.2350387087979255"><ele>656.0</ele><time>2026-04-28T10:40:31.999Z</time></trkpt><trkpt lat="35.06620133732516" lon="-5.234953218828683"><ele>656.0</ele><time>2026-04-28T10:40:32.999Z</time></trkpt><trkpt lat="35.06611714886931" lon="-5.234850971634201"><ele>653.0</ele><time>2026-04-28T10:40:33.999Z</time></trkpt><trkpt lat="35.066039196344214" lon="-5.234745136386366"><ele>650.0</ele><time>2026-04-28T10:40:34.999Z</time></trkpt><trkpt lat="35.06596610245789" lon="-5.234631923567073"><ele>647.0</ele><time>2026-04-28T10:40:35.999Z</time></trkpt><trkpt lat="35.065899608832744" lon="-5.234519960231956"><ele>644.0</ele><time>2026-04-28T10:40:36.999Z</time></trkpt><trkpt lat="35.06582673547774" lon="-5.2344178450928895"><ele>645.75</ele><time>2026-04-28T10:40:37.999Z</time></trkpt><trkpt lat="35.065735603549705" lon="-5.234344913867231"><ele>647.5</ele><time>2026-04-28T10:40:38.999Z</time></trkpt><trkpt lat="35.0656270774632" lon="-5.234312881979251"><ele>649.25</ele><time>2026-04-28T10:40:39.999Z</time></trkpt><trkpt lat="35.065507018263986" lon="-5.23430293529055"><ele>651.0</ele><time>2026-04-28T10:40:40.999Z</time></trkpt><trkpt lat="35.06538903153355" lon="-5.2343097054230086"><ele>651.0</ele><time>2026-04-28T10:40:41.999Z</time></trkpt><trkpt lat="35.0652786357673" lon="-5.234325446773727"><ele>651.0</ele><time>2026-04-28T10:40:42.999Z</time></trkpt><trkpt lat="35.06517596067971" lon="-5.23433815778142"><ele>651.0</ele><time>2026-04-28T10:40:44Z</time></trkpt><trkpt lat="35.06506893824746" lon="-5.234349673607966"><ele>651.0</ele><time>2026-04-28T10:40:45Z</time></trkpt><trkpt lat="35.06496072894553" lon="-5.234361353737539"><ele>651.0</ele><time>2026-04-28T10:40:46Z</time></trkpt><trkpt lat="35.06485677256042" lon="-5.234406321943732"><ele>651.1999999999999</ele><time>2026-04-28T10:40:47Z</time></trkpt><trkpt lat="35.06475321377395" lon="-5.234437812338648"><ele>651.4</ele><time>2026-04-28T10:40:48Z</time></trkpt><trkpt lat="35.06464824101976" lon="-5.234473680531392"><ele>651.6</ele><time>2026-04-28T10:40:49Z</time></trkpt><trkpt lat="35.064541581977636" lon="-5.234510566947701"><ele>651.8</ele><time>2026-04-28T10:40:50Z</time></trkpt><trkpt lat="35.06443498565408" lon="-5.23454953514856"><ele>652.0</ele><time>2026-04-28T10:40:51Z</time></trkpt><trkpt lat="35.06432477935749" lon="-5.234591545801283"><ele>652.0</ele><time>2026-04-28T10:40:52Z</time></trkpt><trkpt lat="35.06421064319061" lon="-5.23463593970767"><ele>652.0</ele><time>2026-04-28T10:40:53Z</time></trkpt><trkpt lat="35.06409715957454" lon="-5.234683394337835"><ele>652.0</ele><time>2026-04-28T10:40:54Z</time></trkpt><trkpt lat="35.063979150438456" lon="-5.234717273170128"><ele>652.0</ele><time>2026-04-28T10:40:55Z</time></trkpt><trkpt lat="35.063858962077596" lon="-5.234726028718763"><ele>653.75</ele><time>2026-04-28T10:40:56Z</time></trkpt><trkpt lat="35.06374454805904" lon="-5.234755538703308"><ele>655.5</ele><time>2026-04-28T10:40:57Z</time></trkpt><trkpt lat="35.06362839248658" lon="-5.234782427950454"><ele>657.25</ele><time>2026-04-28T10:40:58Z</time></trkpt><trkpt lat="35.063511518789696" lon="-5.234813797072803"><ele>659.0</ele><time>2026-04-28T10:40:59Z</time></trkpt><trkpt lat="35.06339408398016" lon="-5.234844993758623"><ele>662.5</ele><time>2026-04-28T10:41:00Z</time></trkpt><trkpt lat="35.0632732743709" lon="-5.23488170560159"><ele>666.0</ele><time>2026-04-28T10:41:01Z</time></trkpt><trkpt lat="35.063153414873916" lon="-5.234920123792193"><ele>669.5</ele><time>2026-04-28T10:41:02Z</time></trkpt><trkpt lat="35.063035701085035" lon="-5.234956869671673"><ele>673.0</ele><time>2026-04-28T10:41:03Z</time></trkpt><trkpt lat="35.06291839901631" lon="-5.234994878834676"><ele>673.0</ele><time>2026-04-28T10:41:04Z</time></trkpt><trkpt lat="35.06279825952944" lon="-5.235029210568771"><ele>673.0</ele><time>2026-04-28T10:41:05Z</time></trkpt><trkpt lat="35.06267031637109" lon="-5.235057285434978"><ele>673.0</ele><time>2026-04-28T10:41:06Z</time></trkpt><trkpt lat="35.06253983399651" lon="-5.235070983046975"><ele>673.0</ele><time>2026-04-28T10:41:07Z</time></trkpt><trkpt lat="35.06241204529439" lon="-5.23505486813188"><ele>675.0</ele><time>2026-04-28T10:41:08Z</time></trkpt><trkpt lat="35.06228639931526" lon="-5.2350158161521545"><ele>677.0</ele><time>2026-04-28T10:41:09Z</time></trkpt><trkpt lat="35.062163120956896" lon="-5.234966660448496"><ele>679.0</ele><time>2026-04-28T10:41:10Z</time></trkpt><trkpt lat="35.06203895203074" lon="-5.234924788992197"><ele>681.0</ele><time>2026-04-28T10:41:11Z</time></trkpt><trkpt lat="35.06191371485491" lon="-5.234893919217416"><ele>681.0</ele><time>2026-04-28T10:41:12Z</time></trkpt><trkpt lat="35.061789102663475" lon="-5.2348813196118975"><ele>681.0</ele><time>2026-04-28T10:41:13Z</time></trkpt><trkpt lat="35.06166591776571" lon="-5.234883237932988"><ele>681.0</ele><time>2026-04-28T10:41:14Z</time></trkpt><trkpt lat="35.061540947853175" lon="-5.234879819983403"><ele>681.0</ele><time>2026-04-28T10:41:15Z</time></trkpt><trkpt lat="35.06142117763084" lon="-5.234859396641145"><ele>681.25</ele><time>2026-04-28T10:41:16Z</time></trkpt><trkpt lat="35.061306253339616" lon="-5.234821952706291"><ele>681.5</ele><time>2026-04-28T10:41:17Z</time></trkpt><trkpt lat="35.061193454527455" lon="-5.234780855531398"><ele>681.75</ele><time>2026-04-28T10:41:18Z</time></trkpt><trkpt lat="35.06108273660448" lon="-5.234742613158729"><ele>682.0</ele><time>2026-04-28T10:41:19Z</time></trkpt><trkpt lat="35.06097220408832" lon="-5.234708724078273"><ele>682.0</ele><time>2026-04-28T10:41:20Z</time></trkpt><trkpt lat="35.060858508504914" lon="-5.234671397753164"><ele>682.0</ele><time>2026-04-28T10:41:21Z</time></trkpt><trkpt lat="35.0607462728399" lon="-5.2346315115761675"><ele>682.0</ele><time>2026-04-28T10:41:22Z</time></trkpt><trkpt lat="35.0606313534129" lon="-5.234591970650153"><ele>682.0</ele><time>2026-04-28T10:41:23Z</time></trkpt><trkpt lat="35.06051792888018" lon="-5.2345465290908235"><ele>684.0</ele><time>2026-04-28T10:41:24Z</time></trkpt><trkpt lat="35.06041812750915" lon="-5.234486840117836"><ele>686.0</ele><time>2026-04-28T10:41:25Z</time></trkpt><trkpt lat="35.06033400775521" lon="-5.234407528069349"><ele>688.0</ele><time>2026-04-28T10:41:26Z</time></trkpt><trkpt lat="35.06026565127172" lon="-5.234316640695524"><ele>690.0</ele><time>2026-04-28T10:41:27Z</time></trkpt><trkpt lat="35.0602139486789" lon="-5.234219493485498"><ele>692.0</ele><time>2026-04-28T10:41:28Z</time></trkpt><trkpt lat="35.06019017272033" lon="-5.234110977057112"><ele>692.0</ele><time>2026-04-28T10:41:29Z</time></trkpt><trkpt lat="35.060181155430676" lon="-5.234003234671639"><ele>692.0</ele><time>2026-04-28T10:41:30Z</time></trkpt><trkpt lat="35.060188697082395" lon="-5.233897206421362"><ele>692.0</ele><time>2026-04-28T10:41:31Z</time></trkpt><trkpt lat="35.06019720164864" lon="-5.233790447523389"><ele>692.0</ele><time>2026-04-28T10:41:32Z</time></trkpt><trkpt lat="35.06020629824253" lon="-5.233681087668839"><ele>692.0</ele><time>2026-04-28T10:41:33Z</time></trkpt><trkpt lat="35.06021575927314" lon="-5.233561326672684"><ele>693.0</ele><time>2026-04-28T10:41:34Z</time></trkpt><trkpt lat="35.06023524403552" lon="-5.233436628666076"><ele>694.0</ele><time>2026-04-28T10:41:35Z</time></trkpt><trkpt lat="35.060260941594215" lon="-5.23332411263402"><ele>695.0</ele><time>2026-04-28T10:41:36Z</time></trkpt><trkpt lat="35.06029578262325" lon="-5.233187963395778"><ele>696.0</ele><time>2026-04-28T10:41:37Z</time></trkpt><trkpt lat="35.060381363143044" lon="-5.23306783205717"><ele>697.0</ele><time>2026-04-28T10:41:38Z</time></trkpt><trkpt lat="35.06048873532016" lon="-5.23297508303166"><ele>699.0</ele><time>2026-04-28T10:41:39Z</time></trkpt><trkpt lat="35.060633880578024" lon="-5.232919940336959"><ele>701.0</ele><time>2026-04-28T10:41:40Z</time></trkpt><trkpt lat="35.060777005323224" lon="-5.232906529113188"><ele>703.0</ele><time>2026-04-28T10:41:41Z</time></trkpt><trkpt lat="35.0609033186115" lon="-5.232884481157978"><ele>705.0</ele><time>2026-04-28T10:41:42Z</time></trkpt><trkpt lat="35.0610250531932" lon="-5.232858775677951"><ele>705.0</ele><time>2026-04-28T10:41:43Z</time></trkpt><trkpt lat="35.06114398070426" lon="-5.232824756420858"><ele>705.0</ele><time>2026-04-28T10:41:44Z</time></trkpt><trkpt lat="35.06126174674624" lon="-5.232790732526771"><ele>705.0</ele><time>2026-04-28T10:41:45Z</time></trkpt><trkpt lat="35.06136909066928" lon="-5.232731939878187"><ele>705.0</ele><time>2026-04-28T10:41:46Z</time></trkpt><trkpt lat="35.06148448625078" lon="-5.23267356484055"><ele>705.0</ele><time>2026-04-28T10:41:47Z</time></trkpt><trkpt lat="35.06159687777837" lon="-5.232613269910344"><ele>705.0</ele><time>2026-04-28T10:41:48Z</time></trkpt><trkpt lat="35.06170784525234" lon="-5.232554171749391"><ele>705.0</ele><time>2026-04-28T10:41:49Z</time></trkpt><trkpt lat="35.06181791122587" lon="-5.232493657518727"><ele>705.0</ele><time>2026-04-28T10:41:50Z</time></trkpt><trkpt lat="35.06192457584361" lon="-5.232431862877884"><ele>706.0</ele><time>2026-04-28T10:41:51Z</time></trkpt><trkpt lat="35.062031946061026" lon="-5.232369278974031"><ele>707.0</ele><time>2026-04-28T10:41:52Z</time></trkpt><trkpt lat="35.062130948030195" lon="-5.2323004582959864"><ele>708.0</ele><time>2026-04-28T10:41:53Z</time></trkpt><trkpt lat="35.06221619712907" lon="-5.2322087711600815"><ele>709.0</ele><time>2026-04-28T10:41:54Z</time></trkpt><trkpt lat="35.06228909851753" lon="-5.232087083603713"><ele>709.0</ele><time>2026-04-28T10:41:55Z</time></trkpt><trkpt lat="35.062340126847815" lon="-5.231933088424102"><ele>709.0</ele><time>2026-04-28T10:41:56Z</time></trkpt><trkpt lat="35.06238311612464" lon="-5.231769556630646"><ele>709.0</ele><time>2026-04-28T10:41:57Z</time></trkpt><trkpt lat="35.0624269004464" lon="-5.231600038680137"><ele>709.0</ele><time>2026-04-28T10:41:58Z</time></trkpt><trkpt lat="35.06247257158693" lon="-5.231429205986859"><ele>708.0</ele><time>2026-04-28T10:41:59Z</time></trkpt><trkpt lat="35.062519537386606" lon="-5.231261832304884"><ele>707.0</ele><time>2026-04-28T10:42:00Z</time></trkpt><trkpt lat="35.06255999339793" lon="-5.23109632560219"><ele>706.0</ele><time>2026-04-28T10:42:01Z</time></trkpt><trkpt lat="35.06259801475881" lon="-5.230933741236363"><ele>705.0</ele><time>2026-04-28T10:42:02Z</time></trkpt><trkpt lat="35.062623822626485" lon="-5.230773631418153"><ele>705.25</ele><time>2026-04-28T10:42:03Z</time></trkpt><trkpt lat="35.062624030517725" lon="-5.230610761341904"><ele>705.5</ele><time>2026-04-28T10:42:04Z</time></trkpt><trkpt lat="35.062600544206575" lon="-5.23045117516148"><ele>705.75</ele><time>2026-04-28T10:42:05Z</time></trkpt><trkpt lat="35.06256220863566" lon="-5.230295382527578"><ele>706.0</ele><time>2026-04-28T10:42:06Z</time></trkpt><trkpt lat="35.062517504207406" lon="-5.230150598561353"><ele>706.0</ele><time>2026-04-28T10:42:07Z</time></trkpt><trkpt lat="35.06246072530671" lon="-5.230016580596396"><ele>706.0</ele><time>2026-04-28T10:42:08Z</time></trkpt><trkpt lat="35.062405592158996" lon="-5.229886726362504"><ele>706.0</ele><time>2026-04-28T10:42:09Z</time></trkpt><trkpt lat="35.06235006934452" lon="-5.229755409014527"><ele>706.0</ele><time>2026-04-28T10:42:10Z</time></trkpt><trkpt lat="35.0622936038695" lon="-5.229625025006082"><ele>708.5</ele><time>2026-04-28T10:42:11Z</time></trkpt><trkpt lat="35.06223852183537" lon="-5.229491138393429"><ele>711.0</ele><time>2026-04-28T10:42:12Z</time></trkpt><trkpt lat="35.062184731273284" lon="-5.229358387660522"><ele>713.5</ele><time>2026-04-28T10:42:13Z</time></trkpt><trkpt lat="35.062129525434415" lon="-5.229227920609381"><ele>716.0</ele><time>2026-04-28T10:42:14Z</time></trkpt><trkpt lat="35.06208580277081" lon="-5.229091753729068"><ele>715.25</ele><time>2026-04-28T10:42:15Z</time></trkpt><trkpt lat="35.06206641473219" lon="-5.228943759766559"><ele>714.5</ele><time>2026-04-28T10:42:16Z</time></trkpt><trkpt lat="35.06207351016997" lon="-5.228787476367008"><ele>713.75</ele><time>2026-04-28T10:42:17Z</time></trkpt><trkpt lat="35.062100609350125" lon="-5.228630344758536"><ele>713.0</ele><time>2026-04-28T10:42:18Z</time></trkpt><trkpt lat="35.06214579243057" lon="-5.228474389211927"><ele>713.0</ele><time>2026-04-28T10:42:19Z</time></trkpt><trkpt lat="35.06220196118232" lon="-5.228321357568036"><ele>713.0</ele><time>2026-04-28T10:42:20Z</time></trkpt><trkpt lat="35.06225156111249" lon="-5.228159853185283"><ele>713.0</ele><time>2026-04-28T10:42:21Z</time></trkpt><trkpt lat="35.062293665651126" lon="-5.227993734069783"><ele>713.0</ele><time>2026-04-28T10:42:22Z</time></trkpt><trkpt lat="35.062335382284644" lon="-5.227822220967545"><ele>713.25</ele><time>2026-04-28T10:42:23Z</time></trkpt><trkpt lat="35.06238534214284" lon="-5.227653441349986"><ele>713.5</ele><time>2026-04-28T10:42:24Z</time></trkpt><trkpt lat="35.06244001709597" lon="-5.227496947049023"><ele>713.75</ele><time>2026-04-28T10:42:25Z</time></trkpt><trkpt lat="35.062525561643746" lon="-5.2273688689311255"><ele>714.0</ele><time>2026-04-28T10:42:26Z</time></trkpt><trkpt lat="35.06257507657011" lon="-5.227187863295254"><ele>714.0</ele><time>2026-04-28T10:42:27Z</time></trkpt><trkpt lat="35.06266688457457" lon="-5.227064362581666"><ele>714.0</ele><time>2026-04-28T10:42:28Z</time></trkpt><trkpt lat="35.0627728423107" lon="-5.2269690513451765"><ele>714.0</ele><time>2026-04-28T10:42:29Z</time></trkpt><trkpt lat="35.06287734105504" lon="-5.226880133419644"><ele>714.0</ele><time>2026-04-28T10:42:30Z</time></trkpt><trkpt lat="35.06298095651372" lon="-5.226788811613421"><ele>714.0</ele><time>2026-04-28T10:42:31Z</time></trkpt><trkpt lat="35.06308845577553" lon="-5.226701661438832"><ele>714.0</ele><time>2026-04-28T10:42:32Z</time></trkpt><trkpt lat="35.06319659380608" lon="-5.226610875859289"><ele>714.0</ele><time>2026-04-28T10:42:33Z</time></trkpt><trkpt lat="35.06330118542403" lon="-5.22651733437684"><ele>714.0</ele><time>2026-04-28T10:42:34Z</time></trkpt><trkpt lat="35.06339793224434" lon="-5.226408580080288"><ele>715.5</ele><time>2026-04-28T10:42:35Z</time></trkpt><trkpt lat="35.06348881879214" lon="-5.226285974408593"><ele>717.0</ele><time>2026-04-28T10:42:36Z</time></trkpt><trkpt lat="35.0635601453064" lon="-5.226146226299411"><ele>718.5</ele><time>2026-04-28T10:42:37Z</time></trkpt><trkpt lat="35.06359680459018" lon="-5.225991668519519"><ele>720.0</ele><time>2026-04-28T10:42:38Z</time></trkpt><trkpt lat="35.06360314883487" lon="-5.2258319230010795"><ele>720.0</ele><time>2026-04-28T10:42:39Z</time></trkpt><trkpt lat="35.06359122347551" lon="-5.22567292010539"><ele>720.0</ele><time>2026-04-28T10:42:40Z</time></trkpt><trkpt lat="35.0635703011253" lon="-5.225526597731739"><ele>720.0</ele><time>2026-04-28T10:42:41Z</time></trkpt><trkpt lat="35.06355690447326" lon="-5.225387125754002"><ele>720.0</ele><time>2026-04-28T10:42:42Z</time></trkpt><trkpt lat="35.063543485797034" lon="-5.225246517426908"><ele>721.0</ele><time>2026-04-28T10:42:43Z</time></trkpt><trkpt lat="35.06353206133842" lon="-5.225108069350027"><ele>722.0</ele><time>2026-04-28T10:42:44Z</time></trkpt><trkpt lat="35.06351649628228" lon="-5.2249771042099695"><ele>723.0</ele><time>2026-04-28T10:42:45Z</time></trkpt><trkpt lat="35.06350392486966" lon="-5.224847167848332"><ele>724.0</ele><time>2026-04-28T10:42:46Z</time></trkpt><trkpt lat="35.06350369263424" lon="-5.224709613033665"><ele>725.0</ele><time>2026-04-28T10:42:47Z</time></trkpt><trkpt lat="35.06352159601726" lon="-5.224577368693537"><ele>726.5</ele><time>2026-04-28T10:42:48Z</time></trkpt><trkpt lat="35.063562425119194" lon="-5.224448526712605"><ele>728.0</ele><time>2026-04-28T10:42:48.999Z</time></trkpt><trkpt lat="35.06364154420014" lon="-5.224341720661419"><ele>729.5</ele><time>2026-04-28T10:42:50Z</time></trkpt><trkpt lat="35.0637383195647" lon="-5.224264763020995"><ele>731.0</ele><time>2026-04-28T10:42:51Z</time></trkpt><trkpt lat="35.06385188047684" lon="-5.2242208344366485"><ele>731.0</ele><time>2026-04-28T10:42:52Z</time></trkpt><trkpt lat="35.06396940053235" lon="-5.224172081180522"><ele>731.0</ele><time>2026-04-28T10:42:53Z</time></trkpt><trkpt lat="35.06409700439338" lon="-5.22415254525527"><ele>731.0</ele><time>2026-04-28T10:42:54Z</time></trkpt><trkpt lat="35.064223310651805" lon="-5.2241365133561555"><ele>731.0</ele><time>2026-04-28T10:42:55Z</time></trkpt><trkpt lat="35.064351249296934" lon="-5.224121240669709"><ele>730.25</ele><time>2026-04-28T10:42:56Z</time></trkpt><trkpt lat="35.064479386073955" lon="-5.224106270239465"><ele>729.5</ele><time>2026-04-28T10:42:57Z</time></trkpt><trkpt lat="35.06460827266682" lon="-5.224090690301653"><ele>728.75</ele><time>2026-04-28T10:42:58Z</time></trkpt><trkpt lat="35.064737734580994" lon="-5.2240745618948905"><ele>728.0</ele><time>2026-04-28T10:42:59Z</time></trkpt><trkpt lat="35.064866820962" lon="-5.224054707372013"><ele>728.5</ele><time>2026-04-28T10:43:00Z</time></trkpt><trkpt lat="35.06499837212868" lon="-5.224034851177534"><ele>729.0</ele><time>2026-04-28T10:43:01Z</time></trkpt><trkpt lat="35.06511897313807" lon="-5.224016949935153"><ele>729.5</ele><time>2026-04-28T10:43:02Z</time></trkpt><trkpt lat="35.06523345950187" lon="-5.223998804504639"><ele>730.0</ele><time>2026-04-28T10:43:03Z</time></trkpt><trkpt lat="35.06534285955018" lon="-5.223982818599587"><ele>733.8</ele><time>2026-04-28T10:43:04Z</time></trkpt><trkpt lat="35.06544663901322" lon="-5.223967373750353"><ele>737.6</ele><time>2026-04-28T10:43:05Z</time></trkpt><trkpt lat="35.06555493275024" lon="-5.223951123132436"><ele>741.4000000000001</ele><time>2026-04-28T10:43:06Z</time></trkpt><trkpt lat="35.065666202918884" lon="-5.223935798496803"><ele>745.2</ele><time>2026-04-28T10:43:07Z</time></trkpt><trkpt lat="35.065776593963115" lon="-5.2239205949425545"><ele>749.0</ele><time>2026-04-28T10:43:08Z</time></trkpt><trkpt lat="35.065888678930065" lon="-5.223905468420202"><ele>749.0</ele><time>2026-04-28T10:43:09Z</time></trkpt><trkpt lat="35.06600142761583" lon="-5.223889983932241"><ele>749.0</ele><time>2026-04-28T10:43:10Z</time></trkpt><trkpt lat="35.06611287311048" lon="-5.22387551397074"><ele>749.0</ele><time>2026-04-28T10:43:11Z</time></trkpt><trkpt lat="35.06622018609713" lon="-5.223851081801165"><ele>749.0</ele><time>2026-04-28T10:43:12Z</time></trkpt><trkpt lat="35.066323467870355" lon="-5.223813134195435"><ele>749.0</ele><time>2026-04-28T10:43:13Z</time></trkpt><trkpt lat="35.06642385770488" lon="-5.223762289697651"><ele>749.0</ele><time>2026-04-28T10:43:14Z</time></trkpt><trkpt lat="35.06653248962061" lon="-5.22369700329859"><ele>749.0</ele><time>2026-04-28T10:43:15Z</time></trkpt><trkpt lat="35.066645517256255" lon="-5.2236290751716945"><ele>749.0</ele><time>2026-04-28T10:43:16Z</time></trkpt><trkpt lat="35.06676396937303" lon="-5.223557045746307"><ele>749.0</ele><time>2026-04-28T10:43:17Z</time></trkpt><trkpt lat="35.06688716082233" lon="-5.2234831308748175"><ele>746.5</ele><time>2026-04-28T10:43:18Z</time></trkpt><trkpt lat="35.06701310412952" lon="-5.223407569467312"><ele>744.0</ele><time>2026-04-28T10:43:19Z</time></trkpt><trkpt lat="35.06714278481724" lon="-5.223329851598414"><ele>741.5</ele><time>2026-04-28T10:43:20Z</time></trkpt><trkpt lat="35.067272666346305" lon="-5.223252013347886"><ele>739.0</ele><time>2026-04-28T10:43:21Z</time></trkpt><trkpt lat="35.06739636510139" lon="-5.22317079928822"><ele>740.5</ele><time>2026-04-28T10:43:22Z</time></trkpt><trkpt lat="35.06751667570177" lon="-5.223090894048576"><ele>742.0</ele><time>2026-04-28T10:43:23Z</time></trkpt><trkpt lat="35.06763483473914" lon="-5.223012975732463"><ele>743.5</ele><time>2026-04-28T10:43:24Z</time></trkpt><trkpt lat="35.06774635895209" lon="-5.22293384560684"><ele>745.0</ele><time>2026-04-28T10:43:25Z</time></trkpt><trkpt lat="35.067838372236906" lon="-5.2228226480825874"><ele>745.0</ele><time>2026-04-28T10:43:26Z</time></trkpt><trkpt lat="35.06792149017284" lon="-5.222698261566141"><ele>745.0</ele><time>2026-04-28T10:43:27Z</time></trkpt><trkpt lat="35.06799548509709" lon="-5.222565223507985"><ele>745.0</ele><time>2026-04-28T10:43:28Z</time></trkpt><trkpt lat="35.06805934291445" lon="-5.2224168097334225"><ele>745.0</ele><time>2026-04-28T10:43:29Z</time></trkpt><trkpt lat="35.068121354460935" lon="-5.222265993864079"><ele>746.75</ele><time>2026-04-28T10:43:30Z</time></trkpt><trkpt lat="35.06817305251157" lon="-5.222112547097413"><ele>748.5</ele><time>2026-04-28T10:43:31Z</time></trkpt><trkpt lat="35.068202791989265" lon="-5.2219499115317225"><ele>750.25</ele><time>2026-04-28T10:43:32Z</time></trkpt><trkpt lat="35.06822200541823" lon="-5.221782059058745"><ele>752.0</ele><time>2026-04-28T10:43:33Z</time></trkpt><trkpt lat="35.06824067717186" lon="-5.221621940469692"><ele>752.0</ele><time>2026-04-28T10:43:34Z</time></trkpt><trkpt lat="35.06824255808391" lon="-5.221469408594337"><ele>752.0</ele><time>2026-04-28T10:43:35Z</time></trkpt><trkpt lat="35.06820983006917" lon="-5.221328913972268"><ele>752.0</ele><time>2026-04-28T10:43:36Z</time></trkpt><trkpt lat="35.068145704035324" lon="-5.221198983454884"><ele>752.0</ele><time>2026-04-28T10:43:37Z</time></trkpt><trkpt lat="35.068060721232456" lon="-5.221082267945855"><ele>752.0</ele><time>2026-04-28T10:43:38Z</time></trkpt><trkpt lat="35.06796040624174" lon="-5.22097676800783"><ele>752.0</ele><time>2026-04-28T10:43:39Z</time></trkpt><trkpt lat="35.06785883230132" lon="-5.220869596173513"><ele>752.0</ele><time>2026-04-28T10:43:40Z</time></trkpt><trkpt lat="35.06775758092601" lon="-5.220758642975298"><ele>752.0</ele><time>2026-04-28T10:43:41Z</time></trkpt><trkpt lat="35.06765799776495" lon="-5.220642893260128"><ele>753.25</ele><time>2026-04-28T10:43:42Z</time></trkpt><trkpt lat="35.06756068391291" lon="-5.220518573639136"><ele>754.5</ele><time>2026-04-28T10:43:43Z</time></trkpt><trkpt lat="35.06746174294212" lon="-5.220395313703045"><ele>755.75</ele><time>2026-04-28T10:43:44Z</time></trkpt><trkpt lat="35.06735812107562" lon="-5.220272140238051"><ele>757.0</ele><time>2026-04-28T10:43:45Z</time></trkpt><trkpt lat="35.06725006147171" lon="-5.2201548891770475"><ele>757.0</ele><time>2026-04-28T10:43:46Z</time></trkpt><trkpt lat="35.06714547230925" lon="-5.220028408039629"><ele>757.0</ele><time>2026-04-28T10:43:47Z</time></trkpt><trkpt lat="35.06704336122173" lon="-5.219900790495004"><ele>757.0</ele><time>2026-04-28T10:43:48Z</time></trkpt><trkpt lat="35.06694358487759" lon="-5.2197778547023015"><ele>757.0</ele><time>2026-04-28T10:43:49Z</time></trkpt><trkpt lat="35.06684259521551" lon="-5.219673209009686"><ele>756.0</ele><time>2026-04-28T10:43:50Z</time></trkpt><trkpt lat="35.06673149598125" lon="-5.219596463203153"><ele>755.0</ele><time>2026-04-28T10:43:51Z</time></trkpt><trkpt lat="35.06660490065555" lon="-5.219531111430899"><ele>754.0</ele><time>2026-04-28T10:43:52Z</time></trkpt><trkpt lat="35.06645777416802" lon="-5.2194791216330785"><ele>753.0</ele><time>2026-04-28T10:43:53Z</time></trkpt><trkpt lat="35.066298081156425" lon="-5.219430508453615"><ele>756.6666666666666</ele><time>2026-04-28T10:43:54Z</time></trkpt><trkpt lat="35.06612830603106" lon="-5.21937321713933"><ele>760.3333333333333</ele><time>2026-04-28T10:43:55Z</time></trkpt><trkpt lat="35.06594775002971" lon="-5.2193098064639765"><ele>764.0</ele><time>2026-04-28T10:43:56Z</time></trkpt><trkpt lat="35.06577219626278" lon="-5.219242554696203"><ele>767.3333333333333</ele><time>2026-04-28T10:43:57Z</time></trkpt><trkpt lat="35.06561149635207" lon="-5.219176952089283"><ele>770.6666666666666</ele><time>2026-04-28T10:43:58Z</time></trkpt><trkpt lat="35.06546701121779" lon="-5.219108978295138"><ele>774.0</ele><time>2026-04-28T10:43:59Z</time></trkpt><trkpt lat="35.06534221591513" lon="-5.219013457538601"><ele>774.0</ele><time>2026-04-28T10:44:00Z</time></trkpt><trkpt lat="35.065222674007394" lon="-5.21888246185507"><ele>774.0</ele><time>2026-04-28T10:44:01Z</time></trkpt><trkpt lat="35.06510529882054" lon="-5.218723633255038"><ele>774.0</ele><time>2026-04-28T10:44:02Z</time></trkpt><trkpt lat="35.064992414430975" lon="-5.218551363069057"><ele>775.0</ele><time>2026-04-28T10:44:03Z</time></trkpt><trkpt lat="35.064871657133025" lon="-5.218379718043981"><ele>776.0</ele><time>2026-04-28T10:44:04Z</time></trkpt><trkpt lat="35.06473330429196" lon="-5.218201353723035"><ele>777.0</ele><time>2026-04-28T10:44:05Z</time></trkpt><trkpt lat="35.06458279285193" lon="-5.218012617713308"><ele>777.0</ele><time>2026-04-28T10:44:06Z</time></trkpt><trkpt lat="35.06442250863515" lon="-5.217825159982846"><ele>777.0</ele><time>2026-04-28T10:44:07Z</time></trkpt><trkpt lat="35.0642755367544" lon="-5.217668668223384"><ele>777.0</ele><time>2026-04-28T10:44:08Z</time></trkpt><trkpt lat="35.064153384241706" lon="-5.217534701286466"><ele>780.0</ele><time>2026-04-28T10:44:09Z</time></trkpt><trkpt lat="35.064053406863366" lon="-5.217413770095883"><ele>783.0</ele><time>2026-04-28T10:44:10Z</time></trkpt><trkpt lat="35.063962920194015" lon="-5.2172973882566"><ele>786.0</ele><time>2026-04-28T10:44:11Z</time></trkpt><trkpt lat="35.063881432331456" lon="-5.217187166446168"><ele>789.0</ele><time>2026-04-28T10:44:12Z</time></trkpt><trkpt lat="35.06380218757905" lon="-5.217087490598012"><ele>789.0</ele><time>2026-04-28T10:44:13Z</time></trkpt><trkpt lat="35.06372830386749" lon="-5.217000200545272"><ele>789.0</ele><time>2026-04-28T10:44:14Z</time></trkpt><trkpt lat="35.063658524900724" lon="-5.216915548524157"><ele>789.0</ele><time>2026-04-28T10:44:15Z</time></trkpt><trkpt lat="35.06358519089801" lon="-5.216823062456071"><ele>789.0</ele><time>2026-04-28T10:44:16Z</time></trkpt><trkpt lat="35.063510855263154" lon="-5.216722958222644"><ele>789.0</ele><time>2026-04-28T10:44:17Z</time></trkpt><trkpt lat="35.063436397038075" lon="-5.216625527874838"><ele>789.0</ele><time>2026-04-28T10:44:18Z</time></trkpt><trkpt lat="35.063359010992116" lon="-5.216538211501484"><ele>789.0</ele><time>2026-04-28T10:44:19Z</time></trkpt><trkpt lat="35.063272792105714" lon="-5.216468298392753"><ele>789.0</ele><time>2026-04-28T10:44:20Z</time></trkpt><trkpt lat="35.063187223872596" lon="-5.216402149286669"><ele>789.0</ele><time>2026-04-28T10:44:21Z</time></trkpt><trkpt lat="35.06310185162421" lon="-5.216331743682078"><ele>789.0</ele><time>2026-04-28T10:44:22Z</time></trkpt><trkpt lat="35.0630061864484" lon="-5.216254464466641"><ele>790.3333333333333</ele><time>2026-04-28T10:44:23Z</time></trkpt><trkpt lat="35.06289638378694" lon="-5.2161581303944775"><ele>791.6666666666666</ele><time>2026-04-28T10:44:24Z</time></trkpt><trkpt lat="35.062762484771014" lon="-5.216069268126905"><ele>793.0</ele><time>2026-04-28T10:44:25Z</time></trkpt><trkpt lat="35.06260913708116" lon="-5.215989020715177"><ele>793.0</ele><time>2026-04-28T10:44:26Z</time></trkpt><trkpt lat="35.062465634633" lon="-5.215898549107164"><ele>793.0</ele><time>2026-04-28T10:44:27Z</time></trkpt><trkpt lat="35.062342809344074" lon="-5.215794937989997"><ele>793.0</ele><time>2026-04-28T10:44:28Z</time></trkpt><trkpt lat="35.06223479233441" lon="-5.21567599453599"><ele>797.6666666666666</ele><time>2026-04-28T10:44:29Z</time></trkpt><trkpt lat="35.06214412513398" lon="-5.215531285651645"><ele>802.3333333333333</ele><time>2026-04-28T10:44:30Z</time></trkpt><trkpt lat="35.062069507998956" lon="-5.215357651213563"><ele>807.0</ele><time>2026-04-28T10:44:31Z</time></trkpt><trkpt lat="35.0620118610893" lon="-5.215171960159594"><ele>807.0</ele><time>2026-04-28T10:44:32Z</time></trkpt><trkpt lat="35.06196950022183" lon="-5.21497764544273"><ele>807.0</ele><time>2026-04-28T10:44:33Z</time></trkpt><trkpt lat="35.06193629997111" lon="-5.214773477390655"><ele>807.0</ele><time>2026-04-28T10:44:34Z</time></trkpt><trkpt lat="35.061876754283915" lon="-5.214583624584686"><ele>807.3333333333333</ele><time>2026-04-28T10:44:35Z</time></trkpt><trkpt lat="35.061781200939514" lon="-5.214413495332042"><ele>807.6666666666666</ele><time>2026-04-28T10:44:36Z</time></trkpt><trkpt lat="35.061674474032664" lon="-5.214253435637665"><ele>808.0</ele><time>2026-04-28T10:44:37Z</time></trkpt><trkpt lat="35.06158741120665" lon="-5.214106285546268"><ele>810.25</ele><time>2026-04-28T10:44:38Z</time></trkpt><trkpt lat="35.06151898426826" lon="-5.213968719178758"><ele>812.5</ele><time>2026-04-28T10:44:39Z</time></trkpt><trkpt lat="35.06147752732283" lon="-5.213829706522347"><ele>814.75</ele><time>2026-04-28T10:44:40Z</time></trkpt><trkpt lat="35.06147556289966" lon="-5.2136872566798695"><ele>817.0</ele><time>2026-04-28T10:44:41Z</time></trkpt><trkpt lat="35.061502336106166" lon="-5.213534859724096"><ele>817.0</ele><time>2026-04-28T10:44:42Z</time></trkpt><trkpt lat="35.06155239857585" lon="-5.213376192881436"><ele>817.0</ele><time>2026-04-28T10:44:43Z</time></trkpt><trkpt lat="35.06162055078133" lon="-5.213215731743831"><ele>817.0</ele><time>2026-04-28T10:44:44Z</time></trkpt><trkpt lat="35.06166770912464" lon="-5.213044265104968"><ele>817.0</ele><time>2026-04-28T10:44:45Z</time></trkpt><trkpt lat="35.06172125857239" lon="-5.212882184621064"><ele>816.75</ele><time>2026-04-28T10:44:46Z</time></trkpt><trkpt lat="35.061765480671724" lon="-5.21273279038577"><ele>816.5</ele><time>2026-04-28T10:44:47Z</time></trkpt><trkpt lat="35.06175810489574" lon="-5.212579557373589"><ele>816.25</ele><time>2026-04-28T10:44:48Z</time></trkpt><trkpt lat="35.061735371489405" lon="-5.212420992373642"><ele>816.0</ele><time>2026-04-28T10:44:49Z</time></trkpt><trkpt lat="35.06170025288201" lon="-5.212261152811478"><ele>816.0</ele><time>2026-04-28T10:44:50Z</time></trkpt><trkpt lat="35.06166212939598" lon="-5.212091200218968"><ele>816.0</ele><time>2026-04-28T10:44:51Z</time></trkpt><trkpt lat="35.06162806189572" lon="-5.211924164286766"><ele>816.0</ele><time>2026-04-28T10:44:52Z</time></trkpt><trkpt lat="35.06160071420979" lon="-5.211781038452003"><ele>816.0</ele><time>2026-04-28T10:44:53Z</time></trkpt><trkpt lat="35.061543786836914" lon="-5.21164833668442"><ele>817.75</ele><time>2026-04-28T10:44:54Z</time></trkpt><trkpt lat="35.061459136793516" lon="-5.211522248419665"><ele>819.5</ele><time>2026-04-28T10:44:55Z</time></trkpt><trkpt lat="35.061344959860044" lon="-5.211404896235273"><ele>821.25</ele><time>2026-04-28T10:44:56Z</time></trkpt><trkpt lat="35.061210057736496" lon="-5.211300738101345"><ele>823.0</ele><time>2026-04-28T10:44:57Z</time></trkpt><trkpt lat="35.06106329686693" lon="-5.211201612503398"><ele>823.0</ele><time>2026-04-28T10:44:58Z</time></trkpt><trkpt lat="35.06091104244931" lon="-5.2110909808946975"><ele>823.0</ele><time>2026-04-28T10:44:59Z</time></trkpt><trkpt lat="35.06075551087863" lon="-5.210966986791977"><ele>823.0</ele><time>2026-04-28T10:45:00Z</time></trkpt><trkpt lat="35.06056677952174" lon="-5.210879205318169"><ele>825.3333333333333</ele><time>2026-04-28T10:45:01Z</time></trkpt><trkpt lat="35.060402576763245" lon="-5.210746889932401"><ele>827.6666666666667</ele><time>2026-04-28T10:45:02Z</time></trkpt><trkpt lat="35.06024992590434" lon="-5.210622550079353"><ele>830.0</ele><time>2026-04-28T10:45:03Z</time></trkpt><trkpt lat="35.060104617212765" lon="-5.210504543923042"><ele>830.0</ele><time>2026-04-28T10:45:04Z</time></trkpt><trkpt lat="35.05996940008695" lon="-5.210370164958827"><ele>830.0</ele><time>2026-04-28T10:45:05Z</time></trkpt><trkpt lat="35.05984639075196" lon="-5.210212158569574"><ele>830.0</ele><time>2026-04-28T10:45:06Z</time></trkpt><trkpt lat="35.05974041391439" lon="-5.210055185896912"><ele>833.0</ele><time>2026-04-28T10:45:07Z</time></trkpt><trkpt lat="35.059636497157555" lon="-5.209901782458812"><ele>836.0</ele><time>2026-04-28T10:45:08Z</time></trkpt><trkpt lat="35.05953345105906" lon="-5.209780767133516"><ele>839.0</ele><time>2026-04-28T10:45:09Z</time></trkpt><trkpt lat="35.05941719206589" lon="-5.209661149375315"><ele>839.0</ele><time>2026-04-28T10:45:10Z</time></trkpt><trkpt lat="35.05929854135769" lon="-5.209570137156311"><ele>839.0</ele><time>2026-04-28T10:45:11Z</time></trkpt><trkpt lat="35.05915488942647" lon="-5.2094882622116545"><ele>839.0</ele><time>2026-04-28T10:45:12Z</time></trkpt><trkpt lat="35.059017617379105" lon="-5.209410023654962"><ele>842.0</ele><time>2026-04-28T10:45:13Z</time></trkpt><trkpt lat="35.05888560922712" lon="-5.209334580925009"><ele>845.0</ele><time>2026-04-28T10:45:14Z</time></trkpt><trkpt lat="35.05876928563785" lon="-5.2092672337436925"><ele>848.0</ele><time>2026-04-28T10:45:15Z</time></trkpt><trkpt lat="35.05866059978295" lon="-5.209204783594745"><ele>851.0</ele><time>2026-04-28T10:45:16Z</time></trkpt><trkpt lat="35.058574308102195" lon="-5.209098665302066"><ele>851.0</ele><time>2026-04-28T10:45:17Z</time></trkpt><trkpt lat="35.058488986881706" lon="-5.209014706542234"><ele>851.0</ele><time>2026-04-28T10:45:18Z</time></trkpt><trkpt lat="35.05840791895268" lon="-5.208934952450814"><ele>851.0</ele><time>2026-04-28T10:45:19Z</time></trkpt><trkpt lat="35.058332083579245" lon="-5.208860471316304"><ele>851.0</ele><time>2026-04-28T10:45:20Z</time></trkpt><trkpt lat="35.05825426587174" lon="-5.208784043172985"><ele>851.0</ele><time>2026-04-28T10:45:21Z</time></trkpt><trkpt lat="35.058177525042865" lon="-5.2087093387825325"><ele>851.8</ele><time>2026-04-28T10:45:22Z</time></trkpt><trkpt lat="35.058163254276394" lon="-5.20855323050499"><ele>852.5999999999999</ele><time>2026-04-28T10:45:23Z</time></trkpt><trkpt lat="35.05812852921115" lon="-5.2084455446007105"><ele>853.4</ele><time>2026-04-28T10:45:24Z</time></trkpt><trkpt lat="35.05811394520714" lon="-5.208333454035815"><ele>854.2</ele><time>2026-04-28T10:45:25Z</time></trkpt><trkpt lat="35.05812164824246" lon="-5.2082280741490345"><ele>855.0</ele><time>2026-04-28T10:45:26Z</time></trkpt><trkpt lat="35.058140787262516" lon="-5.2081348029079155"><ele>854.5</ele><time>2026-04-28T10:45:27Z</time></trkpt><trkpt lat="35.05817536597831" lon="-5.208044248553955"><ele>854.0</ele><time>2026-04-28T10:45:28Z</time></trkpt><trkpt lat="35.05822256601353" lon="-5.207973222811898"><ele>853.5</ele><time>2026-04-28T10:45:29Z</time></trkpt><trkpt lat="35.058271480075994" lon="-5.207913817675033"><ele>853.0</ele><time>2026-04-28T10:45:30Z</time></trkpt><trkpt lat="35.05832166984518" lon="-5.207852602971972"><ele>852.5</ele><time>2026-04-28T10:45:31Z</time></trkpt><trkpt lat="35.05837627810687" lon="-5.2077845273423895"><ele>852.0</ele><time>2026-04-28T10:45:32Z</time></trkpt><trkpt lat="35.058433371425835" lon="-5.2077136852208055"><ele>852.0</ele><time>2026-04-28T10:45:33Z</time></trkpt><trkpt lat="35.058484866797166" lon="-5.207631010890414"><ele>852.0</ele><time>2026-04-28T10:45:34Z</time></trkpt><trkpt lat="35.058526063581645" lon="-5.207536569043547"><ele>852.0</ele><time>2026-04-28T10:45:35Z</time></trkpt><trkpt lat="35.058555156376656" lon="-5.207435209068032"><ele>852.0</ele><time>2026-04-28T10:45:36Z</time></trkpt><trkpt lat="35.05856764793728" lon="-5.207324272795647"><ele>852.0</ele><time>2026-04-28T10:45:37Z</time></trkpt><trkpt lat="35.058554259758516" lon="-5.207219939341411"><ele>852.0</ele><time>2026-04-28T10:45:38Z</time></trkpt><trkpt lat="35.05852148486822" lon="-5.207132426163793"><ele>852.1666666666666</ele><time>2026-04-28T10:45:39Z</time></trkpt><trkpt lat="35.058475866802596" lon="-5.207055912805525"><ele>852.3333333333333</ele><time>2026-04-28T10:45:40Z</time></trkpt><trkpt lat="35.05841826229614" lon="-5.206983705008146"><ele>852.5</ele><time>2026-04-28T10:45:41Z</time></trkpt><trkpt lat="35.05835525782476" lon="-5.206914262084646"><ele>852.6666666666666</ele><time>2026-04-28T10:45:42Z</time></trkpt><trkpt lat="35.058288341064035" lon="-5.206843973335338"><ele>852.8333333333333</ele><time>2026-04-28T10:45:43Z</time></trkpt><trkpt lat="35.05821784252283" lon="-5.20677608530565"><ele>853.0</ele><time>2026-04-28T10:45:44Z</time></trkpt><trkpt lat="35.05814413253793" lon="-5.20670997326432"><ele>852.9999999999999</ele><time>2026-04-28T10:45:45Z</time></trkpt><trkpt lat="35.058068323528104" lon="-5.206646937611677"><ele>853.0</ele><time>2026-04-28T10:45:46Z</time></trkpt><trkpt lat="35.05799769289453" lon="-5.206588521065381"><ele>853.0</ele><time>2026-04-28T10:45:47Z</time></trkpt><trkpt lat="35.057934099171355" lon="-5.206535732649343"><ele>853.0</ele><time>2026-04-28T10:45:48Z</time></trkpt><trkpt lat="35.05787290535731" lon="-5.206490646398847"><ele>852.9999999999999</ele><time>2026-04-28T10:45:49Z</time></trkpt><trkpt lat="35.0578137070714" lon="-5.206455015757165"><ele>853.0</ele><time>2026-04-28T10:45:50Z</time></trkpt><trkpt lat="35.057706285216284" lon="-5.206413103733153"><ele>852.4</ele><time>2026-04-28T10:45:52Z</time></trkpt><trkpt lat="35.057603145139495" lon="-5.206400922100378"><ele>851.8</ele><time>2026-04-28T10:45:54Z</time></trkpt><trkpt lat="35.05750749629719" lon="-5.206416616439319"><ele>851.2</ele><time>2026-04-28T10:45:56Z</time></trkpt><trkpt lat="35.05740188237837" lon="-5.206428945747126"><ele>850.6</ele><time>2026-04-28T10:45:58Z</time></trkpt><trkpt lat="35.05729970333867" lon="-5.2064470416353705"><ele>850.0</ele><time>2026-04-28T10:46:00Z</time></trkpt><trkpt lat="35.05721138009513" lon="-5.206495313810794"><ele>849.1666666666666</ele><time>2026-04-28T10:46:02Z</time></trkpt><trkpt lat="35.05714389822243" lon="-5.206620037874195"><ele>848.3333333333333</ele><time>2026-04-28T10:46:04Z</time></trkpt><trkpt lat="35.05711042515222" lon="-5.20670186010399"><ele>847.5</ele><time>2026-04-28T10:46:05Z</time></trkpt><trkpt lat="35.057077129868034" lon="-5.206780930106803"><ele>846.6666666666667</ele><time>2026-04-28T10:46:06Z</time></trkpt><trkpt lat="35.057039599156674" lon="-5.2068515941317495"><ele>845.8333333333334</ele><time>2026-04-28T10:46:07Z</time></trkpt><trkpt lat="35.056986830689" lon="-5.206958271960699"><ele>845.0</ele><time>2026-04-28T10:46:09Z</time></trkpt><trkpt lat="35.05691380082981" lon="-5.207037151394141"><ele>845.0</ele><time>2026-04-28T10:46:11Z</time></trkpt><trkpt lat="35.056835675342434" lon="-5.207102031286457"><ele>845.0</ele><time>2026-04-28T10:46:13Z</time></trkpt><trkpt lat="35.05677428486192" lon="-5.20715005624444"><ele>845.0</ele><time>2026-04-28T10:46:15Z</time></trkpt><trkpt lat="35.05668911649011" lon="-5.207178723407782"><ele>845.0</ele><time>2026-04-28T10:46:17Z</time></trkpt><trkpt lat="35.05657631786685" lon="-5.207256954206274"><ele>845.0</ele><time>2026-04-28T10:46:19Z</time></trkpt><trkpt lat="35.05650227308412" lon="-5.2073025656950485"><ele>844.5000000000001</ele><time>2026-04-28T10:46:20Z</time></trkpt><trkpt lat="35.05644015526915" lon="-5.20734595992847"><ele>844.0</ele><time>2026-04-28T10:46:21Z</time></trkpt><trkpt lat="35.056375511190886" lon="-5.207390515082005"><ele>843.5</ele><time>2026-04-28T10:46:22Z</time></trkpt><trkpt lat="35.056302324294194" lon="-5.207440710139598"><ele>843.0</ele><time>2026-04-28T10:46:23Z</time></trkpt><trkpt lat="35.056226591935534" lon="-5.2075068315319175"><ele>842.5000000000001</ele><time>2026-04-28T10:46:24Z</time></trkpt><trkpt lat="35.05615840593196" lon="-5.207565252451882"><ele>842.0</ele><time>2026-04-28T10:46:25Z</time></trkpt><trkpt lat="35.05610902179933" lon="-5.2076301198998625"><ele>842.0</ele><time>2026-04-28T10:46:26Z</time></trkpt><trkpt lat="35.05605516556545" lon="-5.207695007620653"><ele>842.0</ele><time>2026-04-28T10:46:27Z</time></trkpt><trkpt lat="35.05598378594213" lon="-5.207821220694517"><ele>842.0</ele><time>2026-04-28T10:46:29Z</time></trkpt><trkpt lat="35.055886100931424" lon="-5.207918504474508"><ele>842.0</ele><time>2026-04-28T10:46:31Z</time></trkpt><trkpt lat="35.05582787577479" lon="-5.207962068990636"><ele>842.0</ele><time>2026-04-28T10:46:32Z</time></trkpt><trkpt lat="35.055746617755744" lon="-5.207983039596033"><ele>841.0000000000001</ele><time>2026-04-28T10:46:33Z</time></trkpt><trkpt lat="35.05566043832015" lon="-5.207984867204163"><ele>840.0</ele><time>2026-04-28T10:46:34Z</time></trkpt><trkpt lat="35.05557568385578" lon="-5.207979418888097"><ele>839.0</ele><time>2026-04-28T10:46:35Z</time></trkpt><trkpt lat="35.05548977250968" lon="-5.207982344196427"><ele>838.0</ele><time>2026-04-28T10:46:36Z</time></trkpt><trkpt lat="35.05540403972742" lon="-5.207990497427215"><ele>837.0000000000001</ele><time>2026-04-28T10:46:37Z</time></trkpt><trkpt lat="35.05533185507769" lon="-5.207999461016127"><ele>836.0</ele><time>2026-04-28T10:46:38Z</time></trkpt><trkpt lat="35.05525969891952" lon="-5.20800783934"><ele>836.0</ele><time>2026-04-28T10:46:39Z</time></trkpt><trkpt lat="35.05519624141619" lon="-5.208028132194974"><ele>836.0</ele><time>2026-04-28T10:46:40Z</time></trkpt><trkpt lat="35.0551362356916" lon="-5.208056517754402"><ele>836.0</ele><time>2026-04-28T10:46:41Z</time></trkpt><trkpt lat="35.05503637101818" lon="-5.208119522204061"><ele>836.0</ele><time>2026-04-28T10:46:43Z</time></trkpt><trkpt lat="35.054978693703745" lon="-5.20815482022884"><ele>836.0</ele><time>2026-04-28T10:46:44Z</time></trkpt><trkpt lat="35.0549177202618" lon="-5.208196274647524"><ele>836.0</ele><time>2026-04-28T10:46:45Z</time></trkpt><trkpt lat="35.054858553947014" lon="-5.208243311377601"><ele>836.0</ele><time>2026-04-28T10:46:46Z</time></trkpt><trkpt lat="35.054792253723505" lon="-5.208271011300156"><ele>835.5000000000001</ele><time>2026-04-28T10:46:47Z</time></trkpt><trkpt lat="35.054673325656275" lon="-5.20829270676808"><ele>835.0</ele><time>2026-04-28T10:46:49Z</time></trkpt><trkpt lat="35.05460218570974" lon="-5.208280688989617"><ele>834.5</ele><time>2026-04-28T10:46:50Z</time></trkpt><trkpt lat="35.05452238224667" lon="-5.208239311329151"><ele>834.0</ele><time>2026-04-28T10:46:51Z</time></trkpt><trkpt lat="35.05445741438557" lon="-5.208184623578261"><ele>833.5000000000001</ele><time>2026-04-28T10:46:52Z</time></trkpt><trkpt lat="35.054404249047586" lon="-5.20813769084869"><ele>833.0</ele><time>2026-04-28T10:46:53Z</time></trkpt><trkpt lat="35.05430185893466" lon="-5.208066013395679"><ele>833.0</ele><time>2026-04-28T10:46:55Z</time></trkpt><trkpt lat="35.0542074582435" lon="-5.208014437792258"><ele>833.0</ele><time>2026-04-28T10:46:57Z</time></trkpt><trkpt lat="35.05411692921125" lon="-5.207969888965902"><ele>833.0</ele><time>2026-04-28T10:46:59Z</time></trkpt><trkpt lat="35.05401114722236" lon="-5.207911882972774"><ele>833.0</ele><time>2026-04-28T10:47:01Z</time></trkpt><trkpt lat="35.05393906393092" lon="-5.207899525469711"><ele>833.0</ele><time>2026-04-28T10:47:02Z</time></trkpt><trkpt lat="35.05386100489506" lon="-5.207879694918308"><ele>834.0</ele><time>2026-04-28T10:47:03Z</time></trkpt><trkpt lat="35.05377770305729" lon="-5.207861663464958"><ele>835.0</ele><time>2026-04-28T10:47:04Z</time></trkpt><trkpt lat="35.053684041641404" lon="-5.207854854843016"><ele>836.0</ele><time>2026-04-28T10:47:05Z</time></trkpt><trkpt lat="35.05358109467931" lon="-5.207854874304573"><ele>837.0</ele><time>2026-04-28T10:47:06Z</time></trkpt><trkpt lat="35.053478385752655" lon="-5.207861360300193"><ele>838.0</ele><time>2026-04-28T10:47:07Z</time></trkpt><trkpt lat="35.05336440119627" lon="-5.207833259453098"><ele>837.9999999999999</ele><time>2026-04-28T10:47:09Z</time></trkpt><trkpt lat="35.0532965750067" lon="-5.207834939297115"><ele>838.0</ele><time>2026-04-28T10:47:10Z</time></trkpt><trkpt lat="35.05323135837542" lon="-5.207835341369752"><ele>838.0</ele><time>2026-04-28T10:47:11Z</time></trkpt><trkpt lat="35.053104580231626" lon="-5.207827553815786"><ele>838.0</ele><time>2026-04-28T10:47:13Z</time></trkpt><trkpt lat="35.053038957958954" lon="-5.207812317793029"><ele>837.9999999999999</ele><time>2026-04-28T10:47:14Z</time></trkpt><trkpt lat="35.05297302039711" lon="-5.207785578331855"><ele>838.0</ele><time>2026-04-28T10:47:15Z</time></trkpt><trkpt lat="35.052898851057286" lon="-5.207853151170381"><ele>838.8333333333333</ele><time>2026-04-28T10:47:16Z</time></trkpt><trkpt lat="35.05282710917926" lon="-5.2078473920113115"><ele>839.6666666666666</ele><time>2026-04-28T10:47:17Z</time></trkpt><trkpt lat="35.05275948171133" lon="-5.207836132092547"><ele>840.5</ele><time>2026-04-28T10:47:18Z</time></trkpt><trkpt lat="35.052684372108004" lon="-5.207818368106991"><ele>841.3333333333333</ele><time>2026-04-28T10:47:19Z</time></trkpt><trkpt lat="35.05259013361749" lon="-5.207797291344787"><ele>842.1666666666666</ele><time>2026-04-28T10:47:20Z</time></trkpt><trkpt lat="35.052503837600675" lon="-5.207796188644214"><ele>843.0</ele><time>2026-04-28T10:47:21Z</time></trkpt><trkpt lat="35.05238770505576" lon="-5.207798516101198"><ele>843.0</ele><time>2026-04-28T10:47:23Z</time></trkpt><trkpt lat="35.052299554237216" lon="-5.207780106167189"><ele>843.0</ele><time>2026-04-28T10:47:25Z</time></trkpt><trkpt lat="35.05218959940717" lon="-5.207767652794057"><ele>843.0</ele><time>2026-04-28T10:47:27Z</time></trkpt><trkpt lat="35.052096756706824" lon="-5.207754898739733"><ele>843.0</ele><time>2026-04-28T10:47:29Z</time></trkpt><trkpt lat="35.05200989987461" lon="-5.207725276150393"><ele>843.0</ele><time>2026-04-28T10:47:32Z</time></trkpt><trkpt lat="35.0519296492164" lon="-5.207702866311119"><ele>843.0</ele><time>2026-04-28T10:47:35Z</time></trkpt><trkpt lat="35.0518575550812" lon="-5.207691407497658"><ele>843.0</ele><time>2026-04-28T10:47:37Z</time></trkpt><trkpt lat="35.05176405226725" lon="-5.207631349351768"><ele>843.0</ele><time>2026-04-28T10:50:02Z</time></trkpt><trkpt lat="35.051704160040266" lon="-5.207584475430389"><ele>843.0</ele><time>2026-04-28T10:50:03Z</time></trkpt><trkpt lat="35.05162706236524" lon="-5.207522215894007"><ele>843.0</ele><time>2026-04-28T10:50:04Z</time></trkpt><trkpt lat="35.051523112834964" lon="-5.207444707459794"><ele>843.75</ele><time>2026-04-28T10:50:05Z</time></trkpt><trkpt lat="35.05141220809729" lon="-5.207361441035666"><ele>844.5</ele><time>2026-04-28T10:50:06Z</time></trkpt><trkpt lat="35.05130172059331" lon="-5.2072653281640315"><ele>845.25</ele><time>2026-04-28T10:50:07Z</time></trkpt><trkpt lat="35.051207624641194" lon="-5.2071684888831715"><ele>846.0</ele><time>2026-04-28T10:50:08Z</time></trkpt><trkpt lat="35.051107894249874" lon="-5.207075757897313"><ele>845.5</ele><time>2026-04-28T10:50:09Z</time></trkpt><trkpt lat="35.05100048598939" lon="-5.206989089926394"><ele>845.0</ele><time>2026-04-28T10:50:10Z</time></trkpt><trkpt lat="35.0508915523666" lon="-5.206896200202508"><ele>844.5</ele><time>2026-04-28T10:50:11Z</time></trkpt><trkpt lat="35.0507956758422" lon="-5.206796856607597"><ele>844.0</ele><time>2026-04-28T10:50:12Z</time></trkpt><trkpt lat="35.050712527392385" lon="-5.206696610750957"><ele>844.0</ele><time>2026-04-28T10:50:13Z</time></trkpt><trkpt lat="35.050630211565235" lon="-5.20659662433312"><ele>844.0</ele><time>2026-04-28T10:50:14Z</time></trkpt><trkpt lat="35.05054587218422" lon="-5.206494357226994"><ele>844.0</ele><time>2026-04-28T10:50:15Z</time></trkpt><trkpt lat="35.05045909057491" lon="-5.20639070816744"><ele>844.0</ele><time>2026-04-28T10:50:16Z</time></trkpt><trkpt lat="35.050373455210234" lon="-5.206282171938297"><ele>842.5</ele><time>2026-04-28T10:50:17Z</time></trkpt><trkpt lat="35.050263587297565" lon="-5.206197070876508"><ele>841.0</ele><time>2026-04-28T10:50:18Z</time></trkpt><trkpt lat="35.05018563962217" lon="-5.206080058299599"><ele>839.5</ele><time>2026-04-28T10:50:19Z</time></trkpt><trkpt lat="35.050115068698844" lon="-5.205960673638665"><ele>838.0</ele><time>2026-04-28T10:50:20Z</time></trkpt><trkpt lat="35.05006565992158" lon="-5.205835240231227"><ele>838.0</ele><time>2026-04-28T10:50:21Z</time></trkpt><trkpt lat="35.050012489611625" lon="-5.205716073140721"><ele>838.0</ele><time>2026-04-28T10:50:22Z</time></trkpt><trkpt lat="35.049949108292076" lon="-5.205596736681884"><ele>838.0</ele><time>2026-04-28T10:50:23Z</time></trkpt><trkpt lat="35.04994151233809" lon="-5.205435316654896"><ele>838.0</ele><time>2026-04-28T10:50:24Z</time></trkpt><trkpt lat="35.04991457289146" lon="-5.2052833288926985"><ele>841.25</ele><time>2026-04-28T10:50:25Z</time></trkpt><trkpt lat="35.049894633361774" lon="-5.205130324851442"><ele>844.5</ele><time>2026-04-28T10:50:26Z</time></trkpt><trkpt lat="35.04986911488913" lon="-5.204982408970937"><ele>847.75</ele><time>2026-04-28T10:50:27Z</time></trkpt><trkpt lat="35.04984147870424" lon="-5.204833769352988"><ele>851.0</ele><time>2026-04-28T10:50:28Z</time></trkpt><trkpt lat="35.049820613241074" lon="-5.2046875346010655"><ele>851.25</ele><time>2026-04-28T10:50:29Z</time></trkpt><trkpt lat="35.04980111669565" lon="-5.204543861107918"><ele>851.5</ele><time>2026-04-28T10:50:30Z</time></trkpt><trkpt lat="35.049784320629236" lon="-5.2044075933580265"><ele>851.75</ele><time>2026-04-28T10:50:31Z</time></trkpt><trkpt lat="35.04977620072495" lon="-5.204273828644009"><ele>852.0</ele><time>2026-04-28T10:50:32Z</time></trkpt><trkpt lat="35.04978021567418" lon="-5.2041358911741975"><ele>853.2</ele><time>2026-04-28T10:50:33Z</time></trkpt><trkpt lat="35.049800156558575" lon="-5.203994196465709"><ele>854.4000000000001</ele><time>2026-04-28T10:50:34Z</time></trkpt><trkpt lat="35.04983975199635" lon="-5.203863709891208"><ele>855.5999999999999</ele><time>2026-04-28T10:50:35Z</time></trkpt><trkpt lat="35.04989045539724" lon="-5.203749501361387"><ele>856.8</ele><time>2026-04-28T10:50:36Z</time></trkpt><trkpt lat="35.04994332290442" lon="-5.203646597777674"><ele>858.0</ele><time>2026-04-28T10:50:37Z</time></trkpt><trkpt lat="35.049976625704325" lon="-5.203538839347983"><ele>855.2</ele><time>2026-04-28T10:50:38Z</time></trkpt><trkpt lat="35.05002659297685" lon="-5.203441522634438"><ele>852.4</ele><time>2026-04-28T10:50:39Z</time></trkpt><trkpt lat="35.05008180410359" lon="-5.203350900941857"><ele>849.6</ele><time>2026-04-28T10:50:40Z</time></trkpt><trkpt lat="35.05013406563817" lon="-5.203266390019323"><ele>846.8000000000001</ele><time>2026-04-28T10:50:41Z</time></trkpt><trkpt lat="35.05019220177" lon="-5.203174772515409"><ele>844.0</ele><time>2026-04-28T10:50:42Z</time></trkpt><trkpt lat="35.05025460427842" lon="-5.203076468653894"><ele>844.0</ele><time>2026-04-28T10:50:43Z</time></trkpt><trkpt lat="35.05031671060668" lon="-5.202976775199985"><ele>844.0</ele><time>2026-04-28T10:50:44Z</time></trkpt><trkpt lat="35.05037630221121" lon="-5.202875334707277"><ele>844.0</ele><time>2026-04-28T10:50:45Z</time></trkpt><trkpt lat="35.05043961051715" lon="-5.202773351628621"><ele>844.0</ele><time>2026-04-28T10:50:46Z</time></trkpt><trkpt lat="35.05046988380619" lon="-5.202658550501916"><ele>844.0</ele><time>2026-04-28T10:50:47Z</time></trkpt><trkpt lat="35.05050047151983" lon="-5.202541502330153"><ele>844.0</ele><time>2026-04-28T10:50:48Z</time></trkpt><trkpt lat="35.05051499194325" lon="-5.202421569989242"><ele>844.0</ele><time>2026-04-28T10:50:49Z</time></trkpt><trkpt lat="35.050510298530064" lon="-5.202286516513628"><ele>844.0</ele><time>2026-04-28T10:50:50Z</time></trkpt><trkpt lat="35.050493329973065" lon="-5.202146009086901"><ele>844.0</ele><time>2026-04-28T10:50:51Z</time></trkpt><trkpt lat="35.050465291909624" lon="-5.202003590738403"><ele>844.0</ele><time>2026-04-28T10:50:52Z</time></trkpt><trkpt lat="35.05042230798941" lon="-5.20186690408874"><ele>842.25</ele><time>2026-04-28T10:50:53Z</time></trkpt><trkpt lat="35.05038165862049" lon="-5.201734482021602"><ele>840.5</ele><time>2026-04-28T10:50:54Z</time></trkpt><trkpt lat="35.05035050789708" lon="-5.2015946119950325"><ele>838.75</ele><time>2026-04-28T10:50:55Z</time></trkpt><trkpt lat="35.05031663816762" lon="-5.201463306027811"><ele>837.0</ele><time>2026-04-28T10:50:56Z</time></trkpt><trkpt lat="35.05027913903872" lon="-5.201337842941678"><ele>836.0</ele><time>2026-04-28T10:50:57Z</time></trkpt><trkpt lat="35.05023504531526" lon="-5.201208281314168"><ele>835.0</ele><time>2026-04-28T10:50:58Z</time></trkpt><trkpt lat="35.05019311962416" lon="-5.2010762357150435"><ele>834.0</ele><time>2026-04-28T10:50:59Z</time></trkpt><trkpt lat="35.05015865845069" lon="-5.200958178521953"><ele>833.0</ele><time>2026-04-28T10:51:00Z</time></trkpt><trkpt lat="35.050129509978156" lon="-5.200838900011442"><ele>832.0</ele><time>2026-04-28T10:51:01Z</time></trkpt><trkpt lat="35.05009012584531" lon="-5.20071687602475"><ele>831.0</ele><time>2026-04-28T10:51:02Z</time></trkpt><trkpt lat="35.05004991635281" lon="-5.200601591750317"><ele>830.0</ele><time>2026-04-28T10:51:03Z</time></trkpt><trkpt lat="35.05000882534948" lon="-5.200486638801568"><ele>829.0</ele><time>2026-04-28T10:51:04Z</time></trkpt><trkpt lat="35.049966740191515" lon="-5.200377290457188"><ele>828.0</ele><time>2026-04-28T10:51:05Z</time></trkpt><trkpt lat="35.049914496789036" lon="-5.200265460925278"><ele>827.0</ele><time>2026-04-28T10:51:06Z</time></trkpt><trkpt lat="35.04984866424838" lon="-5.200167434785664"><ele>829.75</ele><time>2026-04-28T10:51:07Z</time></trkpt><trkpt lat="35.04976567087856" lon="-5.200086058313646"><ele>832.5</ele><time>2026-04-28T10:51:07.999Z</time></trkpt><trkpt lat="35.04966581899367" lon="-5.200012204076492"><ele>835.25</ele><time>2026-04-28T10:51:08.999Z</time></trkpt><trkpt lat="35.04956126525699" lon="-5.199942786222184"><ele>838.0</ele><time>2026-04-28T10:51:09.999Z</time></trkpt><trkpt lat="35.04946263569214" lon="-5.199866855434529"><ele>839.0</ele><time>2026-04-28T10:51:10.999Z</time></trkpt><trkpt lat="35.04936992920875" lon="-5.1997867689821105"><ele>840.0</ele><time>2026-04-28T10:51:11.999Z</time></trkpt><trkpt lat="35.04927827515101" lon="-5.199703913194469"><ele>841.0</ele><time>2026-04-28T10:51:13Z</time></trkpt><trkpt lat="35.04920484877315" lon="-5.199608411582859"><ele>842.0</ele><time>2026-04-28T10:51:14Z</time></trkpt><trkpt lat="35.04914115469264" lon="-5.19949317425545"><ele>843.0</ele><time>2026-04-28T10:51:15Z</time></trkpt><trkpt lat="35.04908626003155" lon="-5.199366090413896"><ele>843.0</ele><time>2026-04-28T10:51:16Z</time></trkpt><trkpt lat="35.04905525819081" lon="-5.199231459313461"><ele>843.0</ele><time>2026-04-28T10:51:17Z</time></trkpt><trkpt lat="35.04903703796256" lon="-5.199100563364225"><ele>843.0</ele><time>2026-04-28T10:51:18Z</time></trkpt><trkpt lat="35.049023794962714" lon="-5.1989612503258655"><ele>843.0</ele><time>2026-04-28T10:51:19Z</time></trkpt><trkpt lat="35.049025743897396" lon="-5.198837703624826"><ele>843.0</ele><time>2026-04-28T10:51:20Z</time></trkpt><trkpt lat="35.04904012530184" lon="-5.198716477358839"><ele>842.2</ele><time>2026-04-28T10:51:21Z</time></trkpt><trkpt lat="35.04905838390935" lon="-5.198596818497283"><ele>841.4</ele><time>2026-04-28T10:51:22Z</time></trkpt><trkpt lat="35.04908166074958" lon="-5.1984730686794975"><ele>840.6</ele><time>2026-04-28T10:51:23Z</time></trkpt><trkpt lat="35.04911218004843" lon="-5.19834885533229"><ele>839.8000000000001</ele><time>2026-04-28T10:51:24Z</time></trkpt><trkpt lat="35.04915052282277" lon="-5.1982272717774425"><ele>839.0</ele><time>2026-04-28T10:51:25Z</time></trkpt><trkpt lat="35.04919737316099" lon="-5.198106359799261"><ele>835.5</ele><time>2026-04-28T10:51:26Z</time></trkpt><trkpt lat="35.04922963071732" lon="-5.197959452930088"><ele>832.0</ele><time>2026-04-28T10:51:27Z</time></trkpt><trkpt lat="35.049289147358806" lon="-5.197798651676905"><ele>828.5</ele><time>2026-04-28T10:51:28Z</time></trkpt><trkpt lat="35.04933940922616" lon="-5.197595215027597"><ele>825.0</ele><time>2026-04-28T10:51:29Z</time></trkpt><trkpt lat="35.0493862479385" lon="-5.197382834734556"><ele>825.5</ele><time>2026-04-28T10:51:30Z</time></trkpt><trkpt lat="35.0494242439055" lon="-5.197191899592509"><ele>826.0</ele><time>2026-04-28T10:51:31Z</time></trkpt><trkpt lat="35.0494618080209" lon="-5.197020098223429"><ele>826.5</ele><time>2026-04-28T10:51:32Z</time></trkpt><trkpt lat="35.04950189933643" lon="-5.196861593160459"><ele>827.0</ele><time>2026-04-28T10:51:33Z</time></trkpt><trkpt lat="35.04954212068136" lon="-5.196712469977874"><ele>827.0</ele><time>2026-04-28T10:51:34Z</time></trkpt><trkpt lat="35.049581597138015" lon="-5.196573878809399"><ele>827.0</ele><time>2026-04-28T10:51:35Z</time></trkpt><trkpt lat="35.049617038764936" lon="-5.1964415223331075"><ele>827.0</ele><time>2026-04-28T10:51:36Z</time></trkpt><trkpt lat="35.049642830552436" lon="-5.196311966795863"><ele>827.0</ele><time>2026-04-28T10:51:37Z</time></trkpt><trkpt lat="35.04964499398081" lon="-5.196178261195921"><ele>825.5</ele><time>2026-04-28T10:51:38Z</time></trkpt><trkpt lat="35.04962099627099" lon="-5.196035783020469"><ele>824.0</ele><time>2026-04-28T10:51:39Z</time></trkpt><trkpt lat="35.049586553015324" lon="-5.1958830365524555"><ele>822.5</ele><time>2026-04-28T10:51:40Z</time></trkpt><trkpt lat="35.049557907545655" lon="-5.195710925055773"><ele>821.0</ele><time>2026-04-28T10:51:41Z</time></trkpt><trkpt lat="35.04952644409122" lon="-5.195541250520218"><ele>819.0</ele><time>2026-04-28T10:51:42Z</time></trkpt><trkpt lat="35.04949131744799" lon="-5.195390653086904"><ele>817.0</ele><time>2026-04-28T10:51:43Z</time></trkpt><trkpt lat="35.04943729406369" lon="-5.1952626509649535"><ele>815.0</ele><time>2026-04-28T10:51:44Z</time></trkpt><trkpt lat="35.04935743843254" lon="-5.195160963218814"><ele>813.0</ele><time>2026-04-28T10:51:45Z</time></trkpt><trkpt lat="35.04925757650935" lon="-5.195080954959475"><ele>813.0</ele><time>2026-04-28T10:51:46Z</time></trkpt><trkpt lat="35.049134670108764" lon="-5.195025955061098"><ele>813.0</ele><time>2026-04-28T10:51:47Z</time></trkpt><trkpt lat="35.049013050052395" lon="-5.194966111232432"><ele>813.0</ele><time>2026-04-28T10:51:48Z</time></trkpt><trkpt lat="35.04890694916482" lon="-5.194886293854834"><ele>813.0</ele><time>2026-04-28T10:51:49Z</time></trkpt><trkpt lat="35.04881281176991" lon="-5.194778053440924"><ele>813.0</ele><time>2026-04-28T10:51:50Z</time></trkpt><trkpt lat="35.04871626394317" lon="-5.194645487848968"><ele>813.0</ele><time>2026-04-28T10:51:51Z</time></trkpt><trkpt lat="35.04861400818329" lon="-5.194517724818826"><ele>813.0</ele><time>2026-04-28T10:51:52Z</time></trkpt><trkpt lat="35.04851547338438" lon="-5.194373353427477"><ele>813.0</ele><time>2026-04-28T10:51:53Z</time></trkpt><trkpt lat="35.048417665033945" lon="-5.194210144775154"><ele>813.0</ele><time>2026-04-28T10:51:54Z</time></trkpt><trkpt lat="35.04833455552476" lon="-5.194044143529645"><ele>813.0</ele><time>2026-04-28T10:51:55Z</time></trkpt><trkpt lat="35.04827025913239" lon="-5.193876130340438"><ele>813.0</ele><time>2026-04-28T10:51:56Z</time></trkpt><trkpt lat="35.04821141925633" lon="-5.193702327441026"><ele>816.6666666666667</ele><time>2026-04-28T10:51:57Z</time></trkpt><trkpt lat="35.04815670406074" lon="-5.193512236301117"><ele>820.3333333333334</ele><time>2026-04-28T10:51:58Z</time></trkpt><trkpt lat="35.04811751988709" lon="-5.193310325779001"><ele>824.0</ele><time>2026-04-28T10:51:59Z</time></trkpt><trkpt lat="35.048097895485874" lon="-5.193094508050509"><ele>824.0</ele><time>2026-04-28T10:52:00Z</time></trkpt><trkpt lat="35.04809885197627" lon="-5.192868946984245"><ele>824.0</ele><time>2026-04-28T10:52:01Z</time></trkpt><trkpt lat="35.048113469678405" lon="-5.192639557732368"><ele>824.0</ele><time>2026-04-28T10:52:02Z</time></trkpt><trkpt lat="35.04812458540443" lon="-5.192426228977917"><ele>823.0</ele><time>2026-04-28T10:52:03Z</time></trkpt><trkpt lat="35.04813219352075" lon="-5.192225543464348"><ele>822.0</ele><time>2026-04-28T10:52:04Z</time></trkpt><trkpt lat="35.04813536181047" lon="-5.192045083176998"><ele>821.0</ele><time>2026-04-28T10:52:05Z</time></trkpt><trkpt lat="35.04813768889556" lon="-5.191875771678525"><ele>821.0</ele><time>2026-04-28T10:52:06Z</time></trkpt><trkpt lat="35.04813507321045" lon="-5.191705541086942"><ele>821.0</ele><time>2026-04-28T10:52:07Z</time></trkpt><trkpt lat="35.04812596811555" lon="-5.191534897560948"><ele>821.0</ele><time>2026-04-28T10:52:08Z</time></trkpt><trkpt lat="35.04809297607133" lon="-5.191352830588956"><ele>821.0</ele><time>2026-04-28T10:52:09Z</time></trkpt><trkpt lat="35.048030053665094" lon="-5.191171876752745"><ele>819.5</ele><time>2026-04-28T10:52:10Z</time></trkpt><trkpt lat="35.04795510952134" lon="-5.191016840730539"><ele>818.0</ele><time>2026-04-28T10:52:11Z</time></trkpt><trkpt lat="35.04790032067492" lon="-5.1908670350357085"><ele>816.5</ele><time>2026-04-28T10:52:12Z</time></trkpt><trkpt lat="35.04787000934461" lon="-5.190707885728812"><ele>815.0</ele><time>2026-04-28T10:52:13Z</time></trkpt><trkpt lat="35.04786021261994" lon="-5.190553520216165"><ele>813.5</ele><time>2026-04-28T10:52:14Z</time></trkpt><trkpt lat="35.047862198164026" lon="-5.190402357028132"><ele>812.0</ele><time>2026-04-28T10:52:15Z</time></trkpt><trkpt lat="35.0478575606002" lon="-5.19025686665442"><ele>810.5</ele><time>2026-04-28T10:52:16Z</time></trkpt><trkpt lat="35.04784729330243" lon="-5.190102023305246"><ele>809.0</ele><time>2026-04-28T10:52:17Z</time></trkpt><trkpt lat="35.047841353400266" lon="-5.189939984484724"><ele>806.25</ele><time>2026-04-28T10:52:18Z</time></trkpt><trkpt lat="35.04782960758209" lon="-5.189781727738187"><ele>803.5</ele><time>2026-04-28T10:52:19Z</time></trkpt><trkpt lat="35.04781288697257" lon="-5.189629430847102"><ele>800.75</ele><time>2026-04-28T10:52:20Z</time></trkpt><trkpt lat="35.047796347121704" lon="-5.189479153526726"><ele>798.0</ele><time>2026-04-28T10:52:21Z</time></trkpt><trkpt lat="35.04778278702979" lon="-5.189329834724684"><ele>798.0</ele><time>2026-04-28T10:52:22Z</time></trkpt><trkpt lat="35.04776445199291" lon="-5.189183751970497"><ele>798.0</ele><time>2026-04-28T10:52:23Z</time></trkpt><trkpt lat="35.04774867284014" lon="-5.189035144675791"><ele>798.0</ele><time>2026-04-28T10:52:24Z</time></trkpt><trkpt lat="35.04773292941139" lon="-5.188892142543686"><ele>798.0</ele><time>2026-04-28T10:52:25Z</time></trkpt><trkpt lat="35.04771260769442" lon="-5.18874936329546"><ele>796.8</ele><time>2026-04-28T10:52:26Z</time></trkpt><trkpt lat="35.04769673938794" lon="-5.188612736792674"><ele>795.5999999999999</ele><time>2026-04-28T10:52:27Z</time></trkpt><trkpt lat="35.047683572876856" lon="-5.188497647937513"><ele>794.4000000000001</ele><time>2026-04-28T10:52:28Z</time></trkpt><trkpt lat="35.0476699816856" lon="-5.188401323961625"><ele>793.2</ele><time>2026-04-28T10:52:29Z</time></trkpt><trkpt lat="35.04765857805834" lon="-5.188304099811987"><ele>792.0</ele><time>2026-04-28T10:52:30Z</time></trkpt><trkpt lat="35.047648112465936" lon="-5.188204179848485"><ele>790.0</ele><time>2026-04-28T10:52:31Z</time></trkpt><trkpt lat="35.04763405146788" lon="-5.188099307409236"><ele>788.0</ele><time>2026-04-28T10:52:32Z</time></trkpt><trkpt lat="35.04761066136967" lon="-5.187979619338811"><ele>786.0</ele><time>2026-04-28T10:52:33Z</time></trkpt><trkpt lat="35.0475766207027" lon="-5.18785498158437"><ele>784.0</ele><time>2026-04-28T10:52:34Z</time></trkpt><trkpt lat="35.04752506272278" lon="-5.187724684585305"><ele>782.0</ele><time>2026-04-28T10:52:35Z</time></trkpt><trkpt lat="35.04746841140109" lon="-5.187597186492249"><ele>783.0</ele><time>2026-04-28T10:52:36Z</time></trkpt><trkpt lat="35.047408361311454" lon="-5.187485936217433"><ele>784.0</ele><time>2026-04-28T10:52:37Z</time></trkpt><trkpt lat="35.04734440843941" lon="-5.187384057442998"><ele>785.0</ele><time>2026-04-28T10:52:38Z</time></trkpt><trkpt lat="35.047293489982806" lon="-5.187273953927847"><ele>786.0</ele><time>2026-04-28T10:52:39Z</time></trkpt><trkpt lat="35.0472511696617" lon="-5.187130626947395"><ele>787.0</ele><time>2026-04-28T10:52:40Z</time></trkpt><trkpt lat="35.04720293850323" lon="-5.1869549426263175"><ele>787.0</ele><time>2026-04-28T10:52:41Z</time></trkpt><trkpt lat="35.047148309722" lon="-5.186764234993773"><ele>787.0</ele><time>2026-04-28T10:52:42Z</time></trkpt><trkpt lat="35.04709639437857" lon="-5.186573409776006"><ele>787.0</ele><time>2026-04-28T10:52:43Z</time></trkpt><trkpt lat="35.04704315934887" lon="-5.186394953230066"><ele>785.6666666666666</ele><time>2026-04-28T10:52:44Z</time></trkpt><trkpt lat="35.04698177117743" lon="-5.186212923430919"><ele>784.3333333333333</ele><time>2026-04-28T10:52:45Z</time></trkpt><trkpt lat="35.0469252616974" lon="-5.186024085921491"><ele>783.0</ele><time>2026-04-28T10:52:46Z</time></trkpt><trkpt lat="35.04687810748064" lon="-5.185833196589597"><ele>781.0</ele><time>2026-04-28T10:52:47Z</time></trkpt><trkpt lat="35.046819892984736" lon="-5.185637819975332"><ele>779.0</ele><time>2026-04-28T10:52:48Z</time></trkpt><trkpt lat="35.046773514356595" lon="-5.185458711831524"><ele>777.0</ele><time>2026-04-28T10:52:49Z</time></trkpt><trkpt lat="35.04673236280934" lon="-5.1852886627182215"><ele>777.0</ele><time>2026-04-28T10:52:50Z</time></trkpt><trkpt lat="35.04668948379371" lon="-5.185116436056748"><ele>777.0</ele><time>2026-04-28T10:52:51Z</time></trkpt><trkpt lat="35.04665122609836" lon="-5.1849424124310115"><ele>777.0</ele><time>2026-04-28T10:52:52Z</time></trkpt><trkpt lat="35.046608112502746" lon="-5.184755917157149"><ele>777.6666666666667</ele><time>2026-04-28T10:52:53Z</time></trkpt><trkpt lat="35.04655948913197" lon="-5.184555694335713"><ele>778.3333333333334</ele><time>2026-04-28T10:52:54Z</time></trkpt><trkpt lat="35.046518951393885" lon="-5.184361857359365"><ele>779.0</ele><time>2026-04-28T10:52:55Z</time></trkpt><trkpt lat="35.046479881443474" lon="-5.184178194353786"><ele>776.6666666666667</ele><time>2026-04-28T10:52:56Z</time></trkpt><trkpt lat="35.04641937522669" lon="-5.184000214458697"><ele>774.3333333333333</ele><time>2026-04-28T10:52:57Z</time></trkpt><trkpt lat="35.046374886172785" lon="-5.183815856672086"><ele>772.0</ele><time>2026-04-28T10:52:58Z</time></trkpt><trkpt lat="35.04633045077078" lon="-5.183630196436798"><ele>772.0</ele><time>2026-04-28T10:52:59Z</time></trkpt><trkpt lat="35.04630292085541" lon="-5.183446109267187"><ele>772.0</ele><time>2026-04-28T10:53:00Z</time></trkpt><trkpt lat="35.046255919380144" lon="-5.18327651082476"><ele>772.0</ele><time>2026-04-28T10:53:01Z</time></trkpt><trkpt lat="35.04621981043761" lon="-5.1831131784289255"><ele>772.0</ele><time>2026-04-28T10:53:02Z</time></trkpt><trkpt lat="35.04616498097042" lon="-5.182965060741815"><ele>771.0</ele><time>2026-04-28T10:53:03Z</time></trkpt><trkpt lat="35.04611923085015" lon="-5.182838253457809"><ele>770.0</ele><time>2026-04-28T10:53:04Z</time></trkpt><trkpt lat="35.04605575544793" lon="-5.182729797673968"><ele>769.0</ele><time>2026-04-28T10:53:05Z</time></trkpt><trkpt lat="35.0459747951051" lon="-5.182641669849163"><ele>768.0</ele><time>2026-04-28T10:53:06Z</time></trkpt><trkpt lat="35.04588137617344" lon="-5.182585645438827"><ele>767.0</ele><time>2026-04-28T10:53:06.999Z</time></trkpt><trkpt lat="35.045785038329896" lon="-5.182522720472807"><ele>767.0</ele><time>2026-04-28T10:53:07.999Z</time></trkpt><trkpt lat="35.04568458619182" lon="-5.182451485768696"><ele>767.0</ele><time>2026-04-28T10:53:08.999Z</time></trkpt><trkpt lat="35.04557663895652" lon="-5.182376769793435"><ele>767.0</ele><time>2026-04-28T10:53:09.999Z</time></trkpt><trkpt lat="35.04545220982002" lon="-5.182302983603517"><ele>767.0</ele><time>2026-04-28T10:53:10.999Z</time></trkpt><trkpt lat="35.04531645922091" lon="-5.182229624656772"><ele>764.6666666666666</ele><time>2026-04-28T10:53:11.999Z</time></trkpt><trkpt lat="35.04517475809262" lon="-5.182154075961944"><ele>762.3333333333334</ele><time>2026-04-28T10:53:12.999Z</time></trkpt><trkpt lat="35.04501701821403" lon="-5.182106560400971"><ele>760.0</ele><time>2026-04-28T10:53:13.999Z</time></trkpt><trkpt lat="35.044852190454726" lon="-5.182060760355239"><ele>759.3333333333334</ele><time>2026-04-28T10:53:14.999Z</time></trkpt><trkpt lat="35.044698676466474" lon="-5.1820178632738365"><ele>758.6666666666666</ele><time>2026-04-28T10:53:15.999Z</time></trkpt><trkpt lat="35.044552276418074" lon="-5.181977205373924"><ele>758.0</ele><time>2026-04-28T10:53:16.999Z</time></trkpt><trkpt lat="35.04441041808841" lon="-5.181937959737454"><ele>758.0</ele><time>2026-04-28T10:53:17.999Z</time></trkpt><trkpt lat="35.04427255500991" lon="-5.181898993960044"><ele>758.0</ele><time>2026-04-28T10:53:19Z</time></trkpt><trkpt lat="35.04413731082808" lon="-5.181860410014629"><ele>758.0</ele><time>2026-04-28T10:53:20Z</time></trkpt><trkpt lat="35.04400600447995" lon="-5.18182294949765"><ele>758.0</ele><time>2026-04-28T10:53:21Z</time></trkpt><trkpt lat="35.04387769983608" lon="-5.181786122592965"><ele>757.75</ele><time>2026-04-28T10:53:22Z</time></trkpt><trkpt lat="35.04374909793902" lon="-5.181748531242969"><ele>757.5</ele><time>2026-04-28T10:53:23Z</time></trkpt><trkpt lat="35.043623697352054" lon="-5.181710537237996"><ele>757.25</ele><time>2026-04-28T10:53:24Z</time></trkpt><trkpt lat="35.0434950008271" lon="-5.181657660663699"><ele>757.0</ele><time>2026-04-28T10:53:25Z</time></trkpt><trkpt lat="35.04336074960011" lon="-5.181586135653765"><ele>755.75</ele><time>2026-04-28T10:53:26Z</time></trkpt><trkpt lat="35.04323915445498" lon="-5.1815075275948725"><ele>754.5</ele><time>2026-04-28T10:53:27Z</time></trkpt><trkpt lat="35.04312361629227" lon="-5.181423098062912"><ele>753.25</ele><time>2026-04-28T10:53:28Z</time></trkpt><trkpt lat="35.04300707472661" lon="-5.1813186309907"><ele>752.0</ele><time>2026-04-28T10:53:29Z</time></trkpt><trkpt lat="35.04289454532663" lon="-5.181205056260341"><ele>752.0</ele><time>2026-04-28T10:53:30Z</time></trkpt><trkpt lat="35.04277700520019" lon="-5.181076619856823"><ele>752.0</ele><time>2026-04-28T10:53:31Z</time></trkpt><trkpt lat="35.04265919283262" lon="-5.180942785843371"><ele>752.0</ele><time>2026-04-28T10:53:32Z</time></trkpt><trkpt lat="35.042535162368786" lon="-5.1808012396283685"><ele>750.0</ele><time>2026-04-28T10:53:33Z</time></trkpt><trkpt lat="35.04240022052386" lon="-5.180662273590729"><ele>748.0</ele><time>2026-04-28T10:53:34Z</time></trkpt><trkpt lat="35.04227075790624" lon="-5.180533298183257"><ele>746.0</ele><time>2026-04-28T10:53:35Z</time></trkpt><trkpt lat="35.04214500866177" lon="-5.180406938271791"><ele>746.0</ele><time>2026-04-28T10:53:36Z</time></trkpt><trkpt lat="35.04203008827544" lon="-5.180280501677085"><ele>746.0</ele><time>2026-04-28T10:53:37Z</time></trkpt><trkpt lat="35.04191481779551" lon="-5.180155781792752"><ele>746.0</ele><time>2026-04-28T10:53:38Z</time></trkpt><trkpt lat="35.04179391951606" lon="-5.1800255177302015"><ele>746.0</ele><time>2026-04-28T10:53:39Z</time></trkpt><trkpt lat="35.04167001270269" lon="-5.179891570342505"><ele>746.0</ele><time>2026-04-28T10:53:40Z</time></trkpt><trkpt lat="35.04154574933415" lon="-5.179757156464108"><ele>746.0</ele><time>2026-04-28T10:53:41Z</time></trkpt><trkpt lat="35.041423371660244" lon="-5.17962585841751"><ele>745.0</ele><time>2026-04-28T10:53:42Z</time></trkpt><trkpt lat="35.04130048632551" lon="-5.1794992669400015"><ele>744.0</ele><time>2026-04-28T10:53:43Z</time></trkpt><trkpt lat="35.04118220911879" lon="-5.179378787672463"><ele>743.0</ele><time>2026-04-28T10:53:44Z</time></trkpt><trkpt lat="35.041062082791356" lon="-5.179257316170615"><ele>743.0</ele><time>2026-04-28T10:53:45Z</time></trkpt><trkpt lat="35.04094752937731" lon="-5.179141480147121"><ele>743.0</ele><time>2026-04-28T10:53:46Z</time></trkpt><trkpt lat="35.040857308837744" lon="-5.179007995855348"><ele>743.0</ele><time>2026-04-28T10:53:47Z</time></trkpt><trkpt lat="35.04075640155066" lon="-5.178896458510262"><ele>743.0</ele><time>2026-04-28T10:53:48Z</time></trkpt><trkpt lat="35.040660907541884" lon="-5.178772831194192"><ele>742.25</ele><time>2026-04-28T10:53:49Z</time></trkpt><trkpt lat="35.04057373282007" lon="-5.178637758866854"><ele>741.5</ele><time>2026-04-28T10:53:50Z</time></trkpt><trkpt lat="35.04049607777716" lon="-5.1784873208332165"><ele>740.75</ele><time>2026-04-28T10:53:51Z</time></trkpt><trkpt lat="35.040429637009346" lon="-5.1783251461823125"><ele>740.0</ele><time>2026-04-28T10:53:52Z</time></trkpt><trkpt lat="35.04037492929048" lon="-5.1781627927855425"><ele>740.0</ele><time>2026-04-28T10:53:53Z</time></trkpt><trkpt lat="35.040355823376466" lon="-5.178017048228554"><ele>740.0</ele><time>2026-04-28T10:53:54Z</time></trkpt><trkpt lat="35.04031506789587" lon="-5.177857165992787"><ele>740.0</ele><time>2026-04-28T10:53:55Z</time></trkpt><trkpt lat="35.04027699441779" lon="-5.177707522781058"><ele>740.0</ele><time>2026-04-28T10:53:56Z</time></trkpt><trkpt lat="35.040258198251614" lon="-5.177551018268578"><ele>740.0</ele><time>2026-04-28T10:53:57Z</time></trkpt><trkpt lat="35.040243419438504" lon="-5.177385220053066"><ele>740.0</ele><time>2026-04-28T10:53:58Z</time></trkpt><trkpt lat="35.04022325748433" lon="-5.17721991135177"><ele>740.0</ele><time>2026-04-28T10:53:59Z</time></trkpt><trkpt lat="35.04020083820274" lon="-5.177056359485123"><ele>740.0</ele><time>2026-04-28T10:54:00Z</time></trkpt><trkpt lat="35.04018138497574" lon="-5.176896184615512"><ele>738.75</ele><time>2026-04-28T10:54:01Z</time></trkpt><trkpt lat="35.0401675231429" lon="-5.176741202972027"><ele>737.5</ele><time>2026-04-28T10:54:02Z</time></trkpt><trkpt lat="35.0401570470051" lon="-5.176584684679558"><ele>736.25</ele><time>2026-04-28T10:54:03Z</time></trkpt><trkpt lat="35.04013843295519" lon="-5.176428304750916"><ele>735.0</ele><time>2026-04-28T10:54:04Z</time></trkpt><trkpt lat="35.04012003355933" lon="-5.176274995204047"><ele>733.75</ele><time>2026-04-28T10:54:05Z</time></trkpt><trkpt lat="35.04009593789737" lon="-5.176130104137011"><ele>732.5</ele><time>2026-04-28T10:54:06Z</time></trkpt><trkpt lat="35.040069807564585" lon="-5.175990318702494"><ele>731.25</ele><time>2026-04-28T10:54:07Z</time></trkpt><trkpt lat="35.04002717328171" lon="-5.175858678352849"><ele>730.0</ele><time>2026-04-28T10:54:08Z</time></trkpt><trkpt lat="35.039957543050924" lon="-5.175746846491391"><ele>727.0</ele><time>2026-04-28T10:54:09Z</time></trkpt><trkpt lat="35.03986727863963" lon="-5.175646078014843"><ele>724.0</ele><time>2026-04-28T10:54:10Z</time></trkpt><trkpt lat="35.039773979817205" lon="-5.175543971559014"><ele>721.0</ele><time>2026-04-28T10:54:11Z</time></trkpt><trkpt lat="35.039697422749896" lon="-5.175440495948234"><ele>718.0</ele><time>2026-04-28T10:54:12Z</time></trkpt><trkpt lat="35.039626386381656" lon="-5.175344356105685"><ele>718.0</ele><time>2026-04-28T10:54:13Z</time></trkpt><trkpt lat="35.03957138739834" lon="-5.175259255509773"><ele>718.0</ele><time>2026-04-28T10:54:14Z</time></trkpt><trkpt lat="35.039536538573316" lon="-5.175155231955494"><ele>718.0</ele><time>2026-04-28T10:54:15Z</time></trkpt><trkpt lat="35.03952022874823" lon="-5.175034536207569"><ele>718.0</ele><time>2026-04-28T10:54:16Z</time></trkpt><trkpt lat="35.03952778627717" lon="-5.174905691196949"><ele>718.0</ele><time>2026-04-28T10:54:17Z</time></trkpt><trkpt lat="35.039563034764576" lon="-5.174789279524108"><ele>717.2</ele><time>2026-04-28T10:54:18Z</time></trkpt><trkpt lat="35.03960366834236" lon="-5.174682828291833"><ele>716.4</ele><time>2026-04-28T10:54:19Z</time></trkpt><trkpt lat="35.03966553317854" lon="-5.174591335781757"><ele>715.6</ele><time>2026-04-28T10:54:20Z</time></trkpt><trkpt lat="35.039755852822715" lon="-5.174529893199907"><ele>714.8000000000001</ele><time>2026-04-28T10:54:21Z</time></trkpt><trkpt lat="35.039862518928985" lon="-5.174486261999544"><ele>714.0</ele><time>2026-04-28T10:54:22Z</time></trkpt><trkpt lat="35.03997966620429" lon="-5.174459496531305"><ele>714.0</ele><time>2026-04-28T10:54:23Z</time></trkpt><trkpt lat="35.040101113347525" lon="-5.174443655257118"><ele>714.0</ele><time>2026-04-28T10:54:24Z</time></trkpt><trkpt lat="35.04022420195842" lon="-5.174438021733063"><ele>714.0</ele><time>2026-04-28T10:54:25Z</time></trkpt><trkpt lat="35.040346052637744" lon="-5.174433351515017"><ele>714.0</ele><time>2026-04-28T10:54:26Z</time></trkpt><trkpt lat="35.04046393990516" lon="-5.174424435815446"><ele>714.0</ele><time>2026-04-28T10:54:27Z</time></trkpt><trkpt lat="35.040570514089076" lon="-5.174416063045801"><ele>714.0</ele><time>2026-04-28T10:54:28Z</time></trkpt><trkpt lat="35.04066476209859" lon="-5.174407508135251"><ele>714.0</ele><time>2026-04-28T10:54:29Z</time></trkpt><trkpt lat="35.04075063293499" lon="-5.174397889633182"><ele>714.0</ele><time>2026-04-28T10:54:30Z</time></trkpt><trkpt lat="35.04082977926118" lon="-5.174366034849489"><ele>714.0</ele><time>2026-04-28T10:54:31Z</time></trkpt><trkpt lat="35.04089829984655" lon="-5.174305796363576"><ele>712.8000000000001</ele><time>2026-04-28T10:54:32Z</time></trkpt><trkpt lat="35.040941857114234" lon="-5.174211761521177"><ele>711.6</ele><time>2026-04-28T10:54:33Z</time></trkpt><trkpt lat="35.040955249434354" lon="-5.174103134183973"><ele>710.4</ele><time>2026-04-28T10:54:34Z</time></trkpt><trkpt lat="35.04093503552224" lon="-5.173990000841841"><ele>709.2</ele><time>2026-04-28T10:54:35Z</time></trkpt><trkpt lat="35.040888588803746" lon="-5.173872590371904"><ele>708.0</ele><time>2026-04-28T10:54:36Z</time></trkpt><trkpt lat="35.040824372083264" lon="-5.173755909764899"><ele>707.75</ele><time>2026-04-28T10:54:37Z</time></trkpt><trkpt lat="35.04074714908012" lon="-5.173637219482213"><ele>707.5</ele><time>2026-04-28T10:54:38Z</time></trkpt><trkpt lat="35.040668941045844" lon="-5.17351824363966"><ele>707.25</ele><time>2026-04-28T10:54:39Z</time></trkpt><trkpt lat="35.040581372252504" lon="-5.173401719123131"><ele>707.0</ele><time>2026-04-28T10:54:40Z</time></trkpt><trkpt lat="35.040482312138366" lon="-5.1732982251063655"><ele>707.0</ele><time>2026-04-28T10:54:41Z</time></trkpt><trkpt lat="35.040366321316625" lon="-5.173219536911565"><ele>707.0</ele><time>2026-04-28T10:54:42Z</time></trkpt><trkpt lat="35.04024369174074" lon="-5.173165014678618"><ele>707.0</ele><time>2026-04-28T10:54:43Z</time></trkpt><trkpt lat="35.04010962524099" lon="-5.173118084931342"><ele>707.0</ele><time>2026-04-28T10:54:44Z</time></trkpt><trkpt lat="35.03996990116131" lon="-5.173073088436922"><ele>703.75</ele><time>2026-04-28T10:54:45Z</time></trkpt><trkpt lat="35.039838860589775" lon="-5.173027620841345"><ele>700.5</ele><time>2026-04-28T10:54:46Z</time></trkpt><trkpt lat="35.03971601465326" lon="-5.172979749730268"><ele>697.25</ele><time>2026-04-28T10:54:47Z</time></trkpt><trkpt lat="35.03959987029509" lon="-5.17292856535616"><ele>694.0</ele><time>2026-04-28T10:54:48Z</time></trkpt><trkpt lat="35.039488560248095" lon="-5.172875399149213"><ele>694.0</ele><time>2026-04-28T10:54:49Z</time></trkpt><trkpt lat="35.03938102319712" lon="-5.172819273860718"><ele>694.0</ele><time>2026-04-28T10:54:50Z</time></trkpt><trkpt lat="35.0392580770683" lon="-5.1728126022847345"><ele>694.0</ele><time>2026-04-28T10:54:51Z</time></trkpt><trkpt lat="35.03914215223906" lon="-5.172808414569134"><ele>694.0</ele><time>2026-04-28T10:54:52Z</time></trkpt><trkpt lat="35.03904357689301" lon="-5.172832820737341"><ele>692.2</ele><time>2026-04-28T10:54:53Z</time></trkpt><trkpt lat="35.03896529798218" lon="-5.172854560923742"><ele>690.4000000000001</ele><time>2026-04-28T10:54:54Z</time></trkpt><trkpt lat="35.03886513886594" lon="-5.172904061986234"><ele>688.6</ele><time>2026-04-28T10:54:56Z</time></trkpt><trkpt lat="35.038742260714834" lon="-5.172969276853311"><ele>686.8</ele><time>2026-04-28T10:54:58Z</time></trkpt><trkpt lat="35.03865905715866" lon="-5.173016707576182"><ele>685.0</ele><time>2026-04-28T10:54:59Z</time></trkpt><trkpt lat="35.03857499148963" lon="-5.173072203387528"><ele>685.0</ele><time>2026-04-28T10:55:00Z</time></trkpt><trkpt lat="35.03848724491318" lon="-5.173136145991831"><ele>685.0</ele><time>2026-04-28T10:55:01Z</time></trkpt><trkpt lat="35.03839081313704" lon="-5.173216035367134"><ele>685.0</ele><time>2026-04-28T10:55:02Z</time></trkpt><trkpt lat="35.03830345336932" lon="-5.173296422645042"><ele>685.0</ele><time>2026-04-28T10:55:02.999Z</time></trkpt><trkpt lat="35.0382225840987" lon="-5.173369818740755"><ele>685.0</ele><time>2026-04-28T10:55:03.999Z</time></trkpt><trkpt lat="35.03815243710192" lon="-5.1734335379326435"><ele>683.8</ele><time>2026-04-28T10:55:04.999Z</time></trkpt><trkpt lat="35.038084101509156" lon="-5.1734990545214155"><ele>682.6</ele><time>2026-04-28T10:55:05.999Z</time></trkpt><trkpt lat="35.03801840093325" lon="-5.173564245424935"><ele>681.4000000000001</ele><time>2026-04-28T10:55:06.999Z</time></trkpt><trkpt lat="35.03795483358356" lon="-5.173624726869565"><ele>680.2</ele><time>2026-04-28T10:55:07.999Z</time></trkpt><trkpt lat="35.037862453138175" lon="-5.173706186014539"><ele>679.0</ele><time>2026-04-28T10:55:08.999Z</time></trkpt><trkpt lat="35.037775956612" lon="-5.173781780111882"><ele>679.0</ele><time>2026-04-28T10:55:09.999Z</time></trkpt><trkpt lat="35.03769179399238" lon="-5.17385391134881"><ele>679.0</ele><time>2026-04-28T10:55:10.999Z</time></trkpt><trkpt lat="35.03759029853674" lon="-5.17388361144174"><ele>679.0</ele><time>2026-04-28T10:55:11.999Z</time></trkpt><trkpt lat="35.037488293900076" lon="-5.173907603998752"><ele>679.0</ele><time>2026-04-28T10:55:12.999Z</time></trkpt><trkpt lat="35.03737033780152" lon="-5.173916585905832"><ele>679.0</ele><time>2026-04-28T10:55:13.999Z</time></trkpt><trkpt lat="35.03725325828154" lon="-5.17388973371833"><ele>677.75</ele><time>2026-04-28T10:55:14.999Z</time></trkpt><trkpt lat="35.03712863275351" lon="-5.1738336558375995"><ele>676.5</ele><time>2026-04-28T10:55:15.999Z</time></trkpt><trkpt lat="35.03701412893195" lon="-5.173776300413715"><ele>675.25</ele><time>2026-04-28T10:55:16.999Z</time></trkpt><trkpt lat="35.03691388417089" lon="-5.173722808996107"><ele>674.0</ele><time>2026-04-28T10:55:17.999Z</time></trkpt><trkpt lat="35.03682274549873" lon="-5.1736576568712165"><ele>674.0</ele><time>2026-04-28T10:55:18.999Z</time></trkpt><trkpt lat="35.03672757113041" lon="-5.17359993543131"><ele>674.0</ele><time>2026-04-28T10:55:19.999Z</time></trkpt><trkpt lat="35.03662143660344" lon="-5.173580823559706"><ele>674.0</ele><time>2026-04-28T10:55:20.999Z</time></trkpt><trkpt lat="35.03652417358665" lon="-5.173645053823272"><ele>674.0</ele><time>2026-04-28T10:55:21.999Z</time></trkpt><trkpt lat="35.03643019620607" lon="-5.17371728710551"><ele>674.0</ele><time>2026-04-28T10:55:22.999Z</time></trkpt><trkpt lat="35.036327560102166" lon="-5.173759947709361"><ele>673.25</ele><time>2026-04-28T10:55:23.999Z</time></trkpt><trkpt lat="35.03623501433849" lon="-5.173819701456331"><ele>672.5</ele><time>2026-04-28T10:55:25Z</time></trkpt><trkpt lat="35.03613642397156" lon="-5.173852899050844"><ele>671.75</ele><time>2026-04-28T10:55:26Z</time></trkpt><trkpt lat="35.03601901879728" lon="-5.173842303296587"><ele>671.0</ele><time>2026-04-28T10:55:27Z</time></trkpt><trkpt lat="35.03588521998131" lon="-5.17380436353944"><ele>667.6666666666666</ele><time>2026-04-28T10:55:28Z</time></trkpt><trkpt lat="35.035739048811735" lon="-5.173775034303198"><ele>664.3333333333334</ele><time>2026-04-28T10:55:29Z</time></trkpt><trkpt lat="35.03559107608319" lon="-5.173757565931198"><ele>661.0</ele><time>2026-04-28T10:55:30Z</time></trkpt><trkpt lat="35.035436353565665" lon="-5.1737445428348785"><ele>661.0</ele><time>2026-04-28T10:55:31Z</time></trkpt><trkpt lat="35.0352901907077" lon="-5.173741268743006"><ele>661.0</ele><time>2026-04-28T10:55:32Z</time></trkpt><trkpt lat="35.03515509854225" lon="-5.173763731764948"><ele>661.0</ele><time>2026-04-28T10:55:33Z</time></trkpt><trkpt lat="35.035033321476746" lon="-5.173782344710599"><ele>661.0</ele><time>2026-04-28T10:55:34Z</time></trkpt><trkpt lat="35.03492794918364" lon="-5.173816598781911"><ele>660.8</ele><time>2026-04-28T10:55:35Z</time></trkpt><trkpt lat="35.034824096502675" lon="-5.173860736743991"><ele>660.5999999999999</ele><time>2026-04-28T10:55:36Z</time></trkpt><trkpt lat="35.0347390196216" lon="-5.173911857026191"><ele>660.4</ele><time>2026-04-28T10:55:37Z</time></trkpt><trkpt lat="35.034656984427144" lon="-5.173976449257512"><ele>660.2</ele><time>2026-04-28T10:55:38Z</time></trkpt><trkpt lat="35.03458903289674" lon="-5.174057880461645"><ele>660.0</ele><time>2026-04-28T10:55:39Z</time></trkpt><trkpt lat="35.03455085059399" lon="-5.174153714008515"><ele>662.0</ele><time>2026-04-28T10:55:40Z</time></trkpt><trkpt lat="35.03450002791693" lon="-5.174255739578879"><ele>664.0</ele><time>2026-04-28T10:55:41Z</time></trkpt><trkpt lat="35.03444475354129" lon="-5.1743435592150355"><ele>666.0</ele><time>2026-04-28T10:55:42Z</time></trkpt><trkpt lat="35.03438664287407" lon="-5.17442509054156"><ele>668.0</ele><time>2026-04-28T10:55:43Z</time></trkpt><trkpt lat="35.03430297393329" lon="-5.174489482728894"><ele>670.0</ele><time>2026-04-28T10:55:44Z</time></trkpt><trkpt lat="35.03420829844709" lon="-5.174529487174198"><ele>670.2</ele><time>2026-04-28T10:55:45Z</time></trkpt><trkpt lat="35.034111727630744" lon="-5.174543088785083"><ele>670.4</ele><time>2026-04-28T10:55:46Z</time></trkpt><trkpt lat="35.03403417363127" lon="-5.174559762117105"><ele>670.5999999999999</ele><time>2026-04-28T10:55:47Z</time></trkpt><trkpt lat="35.03392820355641" lon="-5.174564006505439"><ele>670.8</ele><time>2026-04-28T10:55:48Z</time></trkpt><trkpt lat="35.03380388412657" lon="-5.174554980722286"><ele>671.0</ele><time>2026-04-28T10:55:49Z</time></trkpt><trkpt lat="35.033667862568734" lon="-5.174543609257227"><ele>671.0</ele><time>2026-04-28T10:55:50Z</time></trkpt><trkpt lat="35.033528281263045" lon="-5.1745361418779305"><ele>671.0</ele><time>2026-04-28T10:55:51Z</time></trkpt><trkpt lat="35.033382907458936" lon="-5.17453314436807"><ele>671.0</ele><time>2026-04-28T10:55:52Z</time></trkpt><trkpt lat="35.033243484232344" lon="-5.174527203057823"><ele>671.0</ele><time>2026-04-28T10:55:53Z</time></trkpt><trkpt lat="35.03310119248138" lon="-5.174515567574055"><ele>673.25</ele><time>2026-04-28T10:55:54Z</time></trkpt><trkpt lat="35.032948412678365" lon="-5.174499567329546"><ele>675.5</ele><time>2026-04-28T10:55:55Z</time></trkpt><trkpt lat="35.0328120856655" lon="-5.174519491920818"><ele>677.75</ele><time>2026-04-28T10:55:56Z</time></trkpt><trkpt lat="35.032690734696786" lon="-5.174532517743333"><ele>680.0</ele><time>2026-04-28T10:55:57Z</time></trkpt><trkpt lat="35.0325790106047" lon="-5.1745441712227285"><ele>680.0</ele><time>2026-04-28T10:55:58Z</time></trkpt><trkpt lat="35.03248213578099" lon="-5.174583710355531"><ele>680.0</ele><time>2026-04-28T10:55:59Z</time></trkpt><trkpt lat="35.0323897475233" lon="-5.174594982046297"><ele>680.0</ele><time>2026-04-28T10:56:00Z</time></trkpt><trkpt lat="35.032299481311505" lon="-5.174589272098937"><ele>680.0</ele><time>2026-04-28T10:56:01Z</time></trkpt><trkpt lat="35.032217600969794" lon="-5.174556060609162"><ele>680.0</ele><time>2026-04-28T10:56:02Z</time></trkpt><trkpt lat="35.03215277567587" lon="-5.174490353730916"><ele>681.0</ele><time>2026-04-28T10:56:03Z</time></trkpt><trkpt lat="35.03211203608899" lon="-5.174400901128318"><ele>682.0</ele><time>2026-04-28T10:56:04Z</time></trkpt><trkpt lat="35.03210041711916" lon="-5.174297358805335"><ele>683.0</ele><time>2026-04-28T10:56:05Z</time></trkpt><trkpt lat="35.03213149591876" lon="-5.17418694170248"><ele>684.0</ele><time>2026-04-28T10:56:06Z</time></trkpt><trkpt lat="35.03220114077463" lon="-5.174078499067369"><ele>685.0</ele><time>2026-04-28T10:56:07Z</time></trkpt><trkpt lat="35.032299266999274" lon="-5.173960896020261"><ele>683.3333333333334</ele><time>2026-04-28T10:56:08Z</time></trkpt><trkpt lat="35.03240604630791" lon="-5.17382611142308"><ele>681.6666666666666</ele><time>2026-04-28T10:56:09Z</time></trkpt><trkpt lat="35.03251589063772" lon="-5.173678345591125"><ele>680.0</ele><time>2026-04-28T10:56:10Z</time></trkpt><trkpt lat="35.032611719858956" lon="-5.17354472825472"><ele>680.0</ele><time>2026-04-28T10:56:11Z</time></trkpt><trkpt lat="35.03269500460178" lon="-5.173419062854239"><ele>680.0</ele><time>2026-04-28T10:56:12Z</time></trkpt><trkpt lat="35.032770415341325" lon="-5.173298133708029"><ele>680.0</ele><time>2026-04-28T10:56:13Z</time></trkpt><trkpt lat="35.03282933452755" lon="-5.1731855165993"><ele>680.0</ele><time>2026-04-28T10:56:14Z</time></trkpt><trkpt lat="35.032866794819284" lon="-5.173084068835063"><ele>679.4</ele><time>2026-04-28T10:56:15Z</time></trkpt><trkpt lat="35.03288329246765" lon="-5.172979082811618"><ele>678.8</ele><time>2026-04-28T10:56:16Z</time></trkpt><trkpt lat="35.03288416016839" lon="-5.1728622962957305"><ele>678.2</ele><time>2026-04-28T10:56:17Z</time></trkpt><trkpt lat="35.03287455282751" lon="-5.172747780180997"><ele>677.6</ele><time>2026-04-28T10:56:18Z</time></trkpt><trkpt lat="35.03284265216215" lon="-5.172635090987796"><ele>677.0</ele><time>2026-04-28T10:56:19Z</time></trkpt><trkpt lat="35.03279177949756" lon="-5.172506042657795"><ele>677.0</ele><time>2026-04-28T10:56:20Z</time></trkpt><trkpt lat="35.032719355227606" lon="-5.172362522371995"><ele>677.0</ele><time>2026-04-28T10:56:21Z</time></trkpt><trkpt lat="35.032640051316214" lon="-5.172210431011786"><ele>677.0</ele><time>2026-04-28T10:56:22Z</time></trkpt><trkpt lat="35.03255922116031" lon="-5.172048728494438"><ele>677.0</ele><time>2026-04-28T10:56:23Z</time></trkpt><trkpt lat="35.03248139197122" lon="-5.171895385434438"><ele>675.5</ele><time>2026-04-28T10:56:24Z</time></trkpt><trkpt lat="35.032399295985" lon="-5.1717513819545236"><ele>674.0</ele><time>2026-04-28T10:56:25Z</time></trkpt><trkpt lat="35.032311495630836" lon="-5.171619257289383"><ele>672.5</ele><time>2026-04-28T10:56:26Z</time></trkpt><trkpt lat="35.03222316706393" lon="-5.171497884775091"><ele>671.0</ele><time>2026-04-28T10:56:27Z</time></trkpt><trkpt lat="35.032137731679335" lon="-5.1713868516921515"><ele>671.0</ele><time>2026-04-28T10:56:28Z</time></trkpt><trkpt lat="35.03205277802678" lon="-5.171279986960317"><ele>671.0</ele><time>2026-04-28T10:56:29Z</time></trkpt><trkpt lat="35.03196247330721" lon="-5.171182327120582"><ele>671.0</ele><time>2026-04-28T10:56:30Z</time></trkpt><trkpt lat="35.031857143519915" lon="-5.1710883025156384"><ele>671.0</ele><time>2026-04-28T10:56:31Z</time></trkpt><trkpt lat="35.03174933820337" lon="-5.171005857872923"><ele>671.0</ele><time>2026-04-28T10:56:32Z</time></trkpt><trkpt lat="35.03164861220112" lon="-5.170942628981919"><ele>671.0</ele><time>2026-04-28T10:56:33Z</time></trkpt><trkpt lat="35.031559860671685" lon="-5.1708709350466275"><ele>671.0</ele><time>2026-04-28T10:56:34Z</time></trkpt><trkpt lat="35.03148956775261" lon="-5.170787803707109"><ele>671.0</ele><time>2026-04-28T10:56:35Z</time></trkpt><trkpt lat="35.031434359490504" lon="-5.170685371950705"><ele>671.0</ele><time>2026-04-28T10:56:36Z</time></trkpt><trkpt lat="35.0313940525685" lon="-5.170554016428095"><ele>674.75</ele><time>2026-04-28T10:56:37Z</time></trkpt><trkpt lat="35.03136630274309" lon="-5.1703960164753715"><ele>678.5</ele><time>2026-04-28T10:56:38Z</time></trkpt><trkpt lat="35.03134550373039" lon="-5.170215064397271"><ele>682.25</ele><time>2026-04-28T10:56:39Z</time></trkpt><trkpt lat="35.03131501989175" lon="-5.170039551457258"><ele>686.0</ele><time>2026-04-28T10:56:40Z</time></trkpt><trkpt lat="35.031259433028715" lon="-5.169896824331614"><ele>687.4</ele><time>2026-04-28T10:56:41Z</time></trkpt><trkpt lat="35.031203787148584" lon="-5.169772044812209"><ele>688.8</ele><time>2026-04-28T10:56:42Z</time></trkpt><trkpt lat="35.03116484426381" lon="-5.169649433763531"><ele>690.1999999999999</ele><time>2026-04-28T10:56:43Z</time></trkpt><trkpt lat="35.03115681057649" lon="-5.169520219203647"><ele>691.5999999999999</ele><time>2026-04-28T10:56:44Z</time></trkpt><trkpt lat="35.031191207589146" lon="-5.169384892531575"><ele>693.0</ele><time>2026-04-28T10:56:45Z</time></trkpt><trkpt lat="35.03122249807018" lon="-5.169237891649996"><ele>693.0</ele><time>2026-04-28T10:56:46Z</time></trkpt><trkpt lat="35.031267271640644" lon="-5.169116311056668"><ele>693.0</ele><time>2026-04-28T10:56:47Z</time></trkpt><trkpt lat="35.031317594878956" lon="-5.169009633954596"><ele>693.0</ele><time>2026-04-28T10:56:48Z</time></trkpt><trkpt lat="35.03138271591209" lon="-5.16891833511474"><ele>693.0</ele><time>2026-04-28T10:56:49Z</time></trkpt><trkpt lat="35.03148810946124" lon="-5.168842365545803"><ele>693.0</ele><time>2026-04-28T10:56:50Z</time></trkpt><trkpt lat="35.03164554305763" lon="-5.168862356433537"><ele>691.3333333333334</ele><time>2026-04-28T10:56:51Z</time></trkpt><trkpt lat="35.03175936949061" lon="-5.168873504142856"><ele>689.6666666666666</ele><time>2026-04-28T10:56:52Z</time></trkpt><trkpt lat="35.03185588876891" lon="-5.168879872696458"><ele>688.0</ele><time>2026-04-28T10:56:53Z</time></trkpt><trkpt lat="35.0319216659724" lon="-5.168843071694707"><ele>686.3333333333333</ele><time>2026-04-28T10:56:54Z</time></trkpt><trkpt lat="35.031989914596586" lon="-5.16878914606738"><ele>684.6666666666666</ele><time>2026-04-28T10:56:55Z</time></trkpt><trkpt lat="35.03202145001721" lon="-5.168706117503924"><ele>683.0</ele><time>2026-04-28T10:56:56Z</time></trkpt><trkpt lat="35.032072125634585" lon="-5.168547606684416"><ele>683.0</ele><time>2026-04-28T10:56:58Z</time></trkpt><trkpt lat="35.032099014019906" lon="-5.168417944916375"><ele>683.0</ele><time>2026-04-28T10:56:59Z</time></trkpt><trkpt lat="35.03212942871213" lon="-5.16828096614825"><ele>683.0</ele><time>2026-04-28T10:57:00Z</time></trkpt><trkpt lat="35.032149656323064" lon="-5.168164406274231"><ele>683.0</ele><time>2026-04-28T10:57:01Z</time></trkpt><trkpt lat="35.03215170015704" lon="-5.168049641195432"><ele>683.0</ele><time>2026-04-28T10:57:02Z</time></trkpt><trkpt lat="35.03214257270195" lon="-5.167941666815353"><ele>683.2</ele><time>2026-04-28T10:57:02.999Z</time></trkpt><trkpt lat="35.032103823512784" lon="-5.167835668610753"><ele>683.4</ele><time>2026-04-28T10:57:03.999Z</time></trkpt><trkpt lat="35.03203181130686" lon="-5.167720501889329"><ele>683.6</ele><time>2026-04-28T10:57:04.999Z</time></trkpt><trkpt lat="35.03194864323984" lon="-5.1676065880853725"><ele>683.8000000000001</ele><time>2026-04-28T10:57:05.999Z</time></trkpt><trkpt lat="35.03189857330551" lon="-5.167493969824225"><ele>684.0</ele><time>2026-04-28T10:57:06.999Z</time></trkpt><trkpt lat="35.031873931127805" lon="-5.167365412992378"><ele>683.6</ele><time>2026-04-28T10:57:07.999Z</time></trkpt><trkpt lat="35.03187045420107" lon="-5.167223038626127"><ele>683.2</ele><time>2026-04-28T10:57:08.999Z</time></trkpt><trkpt lat="35.03188344330097" lon="-5.167088124600044"><ele>682.8000000000001</ele><time>2026-04-28T10:57:09.999Z</time></trkpt><trkpt lat="35.03190412065668" lon="-5.1669631027849885"><ele>682.4000000000001</ele><time>2026-04-28T10:57:10.999Z</time></trkpt><trkpt lat="35.03192437450578" lon="-5.166849381248562"><ele>682.0</ele><time>2026-04-28T10:57:11.999Z</time></trkpt><trkpt lat="35.03194290668385" lon="-5.1667352135632"><ele>682.0</ele><time>2026-04-28T10:57:12.999Z</time></trkpt><trkpt lat="35.03195670922602" lon="-5.166615733533095"><ele>682.0</ele><time>2026-04-28T10:57:13.999Z</time></trkpt><trkpt lat="35.03198517670366" lon="-5.166479754564876"><ele>682.0</ele><time>2026-04-28T10:57:14.999Z</time></trkpt><trkpt lat="35.03202516739485" lon="-5.166343616122107"><ele>682.0</ele><time>2026-04-28T10:57:15.999Z</time></trkpt><trkpt lat="35.032080533509806" lon="-5.166209202280171"><ele>684.25</ele><time>2026-04-28T10:57:16.999Z</time></trkpt><trkpt lat="35.032123602743305" lon="-5.1660804134657985"><ele>686.5</ele><time>2026-04-28T10:57:17.999Z</time></trkpt><trkpt lat="35.0321853157948" lon="-5.165967292272256"><ele>688.75</ele><time>2026-04-28T10:57:18.999Z</time></trkpt><trkpt lat="35.03226601628458" lon="-5.165867609978255"><ele>691.0</ele><time>2026-04-28T10:57:19.999Z</time></trkpt><trkpt lat="35.03237147645171" lon="-5.165781273499817"><ele>689.0</ele><time>2026-04-28T10:57:20.999Z</time></trkpt><trkpt lat="35.0324993218145" lon="-5.165716174040482"><ele>687.0</ele><time>2026-04-28T10:57:21.999Z</time></trkpt><trkpt lat="35.03263647500922" lon="-5.165669561046528"><ele>685.0</ele><time>2026-04-28T10:57:22.999Z</time></trkpt><trkpt lat="35.032756013416964" lon="-5.165638701893142"><ele>683.0</ele><time>2026-04-28T10:57:23.999Z</time></trkpt><trkpt lat="35.03287038847615" lon="-5.165619456231437"><ele>683.0</ele><time>2026-04-28T10:57:24.999Z</time></trkpt><trkpt lat="35.03297603417587" lon="-5.165594588018697"><ele>683.0</ele><time>2026-04-28T10:57:25.999Z</time></trkpt><trkpt lat="35.03306994789947" lon="-5.165566345046086"><ele>683.0</ele><time>2026-04-28T10:57:26.999Z</time></trkpt><trkpt lat="35.033148823197116" lon="-5.165531490757511"><ele>683.0</ele><time>2026-04-28T10:57:27.999Z</time></trkpt><trkpt lat="35.03320375077473" lon="-5.1654742443107935"><ele>683.0</ele><time>2026-04-28T10:57:28.999Z</time></trkpt><trkpt lat="35.03326349286029" lon="-5.165409695592692"><ele>683.0</ele><time>2026-04-28T10:57:29.999Z</time></trkpt><trkpt lat="35.03327273158863" lon="-5.16530757922947"><ele>683.0</ele><time>2026-04-28T10:57:31Z</time></trkpt><trkpt lat="35.03325315660338" lon="-5.165201831206347"><ele>683.0</ele><time>2026-04-28T10:57:32Z</time></trkpt><trkpt lat="35.03320712910895" lon="-5.16510269178807"><ele>683.0</ele><time>2026-04-28T10:57:33Z</time></trkpt><trkpt lat="35.03314748611385" lon="-5.1649932698269"><ele>683.0</ele><time>2026-04-28T10:57:34Z</time></trkpt><trkpt lat="35.033080361053464" lon="-5.164888961020888"><ele>683.0</ele><time>2026-04-28T10:57:35Z</time></trkpt><trkpt lat="35.0330082985561" lon="-5.164781903507867"><ele>681.25</ele><time>2026-04-28T10:57:36Z</time></trkpt><trkpt lat="35.03294921474545" lon="-5.164655684346313"><ele>679.5</ele><time>2026-04-28T10:57:37Z</time></trkpt><trkpt lat="35.03290749571452" lon="-5.164525707567097"><ele>677.75</ele><time>2026-04-28T10:57:38Z</time></trkpt><trkpt lat="35.03285868429745" lon="-5.164396941889505"><ele>676.0</ele><time>2026-04-28T10:57:39Z</time></trkpt><trkpt lat="35.032779317008114" lon="-5.1642717626340096"><ele>676.0</ele><time>2026-04-28T10:57:40Z</time></trkpt><trkpt lat="35.03269775855124" lon="-5.164142991696533"><ele>676.0</ele><time>2026-04-28T10:57:41Z</time></trkpt><trkpt lat="35.03263778622984" lon="-5.164018736534555"><ele>676.0</ele><time>2026-04-28T10:57:42Z</time></trkpt><trkpt lat="35.032590494286985" lon="-5.163904139128949"><ele>676.0</ele><time>2026-04-28T10:57:43Z</time></trkpt><trkpt lat="35.032563520310156" lon="-5.163787880046492"><ele>676.4</ele><time>2026-04-28T10:57:44Z</time></trkpt><trkpt lat="35.03256025687888" lon="-5.1636639316932955"><ele>676.8</ele><time>2026-04-28T10:57:45Z</time></trkpt><trkpt lat="35.03257921898276" lon="-5.1635362022677675"><ele>677.1999999999999</ele><time>2026-04-28T10:57:46Z</time></trkpt><trkpt lat="35.03261346267407" lon="-5.163417760599402"><ele>677.5999999999999</ele><time>2026-04-28T10:57:47Z</time></trkpt><trkpt lat="35.032655777228165" lon="-5.163305874952909"><ele>678.0</ele><time>2026-04-28T10:57:48Z</time></trkpt><trkpt lat="35.0327047546137" lon="-5.163201054980196"><ele>680.2</ele><time>2026-04-28T10:57:49Z</time></trkpt><trkpt lat="35.0327393508583" lon="-5.163089532716531"><ele>682.4</ele><time>2026-04-28T10:57:50Z</time></trkpt><trkpt lat="35.03277821374255" lon="-5.162987836777564"><ele>684.6</ele><time>2026-04-28T10:57:51Z</time></trkpt><trkpt lat="35.0328132204739" lon="-5.1628940717040726"><ele>686.8000000000001</ele><time>2026-04-28T10:57:52Z</time></trkpt><trkpt lat="35.03286323744998" lon="-5.162805226023314"><ele>689.0</ele><time>2026-04-28T10:57:53Z</time></trkpt><trkpt lat="35.03289100546491" lon="-5.162696833151563"><ele>689.0</ele><time>2026-04-28T10:57:54Z</time></trkpt><trkpt lat="35.03292266633473" lon="-5.16258256299011"><ele>689.0</ele><time>2026-04-28T10:57:55Z</time></trkpt><trkpt lat="35.032961973765346" lon="-5.162460239349518"><ele>689.0</ele><time>2026-04-28T10:57:56Z</time></trkpt><trkpt lat="35.03300924748709" lon="-5.162334734531967"><ele>689.0</ele><time>2026-04-28T10:57:57Z</time></trkpt><trkpt lat="35.03305442776999" lon="-5.162218350381406"><ele>689.0</ele><time>2026-04-28T10:57:58Z</time></trkpt><trkpt lat="35.033102608556376" lon="-5.162112481437115"><ele>688.6</ele><time>2026-04-28T10:57:59Z</time></trkpt><trkpt lat="35.03315185344946" lon="-5.162012827580291"><ele>688.2</ele><time>2026-04-28T10:58:00Z</time></trkpt><trkpt lat="35.0332038331901" lon="-5.161925015913936"><ele>687.8000000000001</ele><time>2026-04-28T10:58:01Z</time></trkpt><trkpt lat="35.033262020979365" lon="-5.1618448625956415"><ele>687.4000000000001</ele><time>2026-04-28T10:58:02Z</time></trkpt><trkpt lat="35.033359874416554" lon="-5.161771268123303"><ele>687.0</ele><time>2026-04-28T10:58:03Z</time></trkpt><trkpt lat="35.0334482368778" lon="-5.161698228823813"><ele>687.0</ele><time>2026-04-28T10:58:04Z</time></trkpt><trkpt lat="35.033531424907416" lon="-5.161634446153767"><ele>687.0</ele><time>2026-04-28T10:58:05Z</time></trkpt><trkpt lat="35.03358788782072" lon="-5.161531372345283"><ele>687.0</ele><time>2026-04-28T10:58:06Z</time></trkpt><trkpt lat="35.03362295132851" lon="-5.161419550874363"><ele>687.0</ele><time>2026-04-28T10:58:07Z</time></trkpt><trkpt lat="35.03364614265605" lon="-5.161303626760092"><ele>687.0</ele><time>2026-04-28T10:58:08Z</time></trkpt><trkpt lat="35.03365142792003" lon="-5.1611788311366995"><ele>687.6</ele><time>2026-04-28T10:58:09Z</time></trkpt><trkpt lat="35.03363899735161" lon="-5.161034754662231"><ele>688.2</ele><time>2026-04-28T10:58:10Z</time></trkpt><trkpt lat="35.03362184673906" lon="-5.160892192238056"><ele>688.8</ele><time>2026-04-28T10:58:11Z</time></trkpt><trkpt lat="35.03361632768556" lon="-5.160760531587128"><ele>689.4</ele><time>2026-04-28T10:58:12Z</time></trkpt><trkpt lat="35.03361715083885" lon="-5.160643194501747"><ele>690.0</ele><time>2026-04-28T10:58:13Z</time></trkpt><trkpt lat="35.033615103344" lon="-5.1605198622656365"><ele>690.0</ele><time>2026-04-28T10:58:14Z</time></trkpt><trkpt lat="35.033600666615364" lon="-5.160400412974704"><ele>690.0</ele><time>2026-04-28T10:58:15Z</time></trkpt><trkpt lat="35.03357032049222" lon="-5.160286108353054"><ele>690.0</ele><time>2026-04-28T10:58:16Z</time></trkpt><trkpt lat="35.03351772932367" lon="-5.160169255995658"><ele>690.0</ele><time>2026-04-28T10:58:17Z</time></trkpt><trkpt lat="35.03345573613965" lon="-5.160048410361945"><ele>690.0</ele><time>2026-04-28T10:58:18Z</time></trkpt><trkpt lat="35.03339177448642" lon="-5.1599247548176415"><ele>689.4</ele><time>2026-04-28T10:58:19Z</time></trkpt><trkpt lat="35.03333692172388" lon="-5.15980097874401"><ele>688.8</ele><time>2026-04-28T10:58:20Z</time></trkpt><trkpt lat="35.03328459187319" lon="-5.159684701446628"><ele>688.2</ele><time>2026-04-28T10:58:21Z</time></trkpt><trkpt lat="35.03323199953135" lon="-5.159569217742617"><ele>687.6</ele><time>2026-04-28T10:58:22Z</time></trkpt><trkpt lat="35.03317695039941" lon="-5.159444413522392"><ele>687.0</ele><time>2026-04-28T10:58:23Z</time></trkpt><trkpt lat="35.033123581319266" lon="-5.159310622306455"><ele>683.75</ele><time>2026-04-28T10:58:24Z</time></trkpt><trkpt lat="35.033084662174" lon="-5.159174502030881"><ele>680.5</ele><time>2026-04-28T10:58:25Z</time></trkpt><trkpt lat="35.033058833874094" lon="-5.159036651946605"><ele>677.25</ele><time>2026-04-28T10:58:26Z</time></trkpt><trkpt lat="35.03303769282948" lon="-5.158897938578201"><ele>674.0</ele><time>2026-04-28T10:58:27Z</time></trkpt><trkpt lat="35.03301434131531" lon="-5.158763157675509"><ele>672.6</ele><time>2026-04-28T10:58:28Z</time></trkpt><trkpt lat="35.0329905415787" lon="-5.158627808109318"><ele>671.2</ele><time>2026-04-28T10:58:29Z</time></trkpt><trkpt lat="35.032974957711225" lon="-5.15849285337643"><ele>669.8000000000001</ele><time>2026-04-28T10:58:30Z</time></trkpt><trkpt lat="35.03297729342691" lon="-5.158359263331443"><ele>668.4000000000001</ele><time>2026-04-28T10:58:31Z</time></trkpt><trkpt lat="35.033000489758045" lon="-5.158227195283689"><ele>667.0</ele><time>2026-04-28T10:58:32Z</time></trkpt><trkpt lat="35.033031121323155" lon="-5.158102088039777"><ele>666.6</ele><time>2026-04-28T10:58:33Z</time></trkpt><trkpt lat="35.033071481009934" lon="-5.157982498070115"><ele>666.2</ele><time>2026-04-28T10:58:34Z</time></trkpt><trkpt lat="35.03312706870564" lon="-5.157875146083365"><ele>665.8</ele><time>2026-04-28T10:58:35Z</time></trkpt><trkpt lat="35.033202306118696" lon="-5.157780861074364"><ele>665.4</ele><time>2026-04-28T10:58:36Z</time></trkpt><trkpt lat="35.03329076847301" lon="-5.15771050633921"><ele>665.0</ele><time>2026-04-28T10:58:37Z</time></trkpt><trkpt lat="35.033392550099045" lon="-5.157664351944769"><ele>665.0</ele><time>2026-04-28T10:58:38Z</time></trkpt><trkpt lat="35.033495107654105" lon="-5.157640085585103"><ele>665.0</ele><time>2026-04-28T10:58:39Z</time></trkpt><trkpt lat="35.033591956894675" lon="-5.157634347340098"><ele>665.0</ele><time>2026-04-28T10:58:40Z</time></trkpt><trkpt lat="35.03368208663939" lon="-5.157627089506646"><ele>665.0</ele><time>2026-04-28T10:58:41Z</time></trkpt><trkpt lat="35.03375981559309" lon="-5.157605067329"><ele>665.0</ele><time>2026-04-28T10:58:42Z</time></trkpt><trkpt lat="35.03382378850511" lon="-5.157560064855774"><ele>665.0</ele><time>2026-04-28T10:58:43Z</time></trkpt><trkpt lat="35.033878062354326" lon="-5.157484754811683"><ele>665.0</ele><time>2026-04-28T10:58:44Z</time></trkpt><trkpt lat="35.03390390164808" lon="-5.157390078616862"><ele>665.0</ele><time>2026-04-28T10:58:45Z</time></trkpt><trkpt lat="35.03390327108991" lon="-5.157276964375628"><ele>665.0</ele><time>2026-04-28T10:58:46Z</time></trkpt><trkpt lat="35.03387724627183" lon="-5.157146774158985"><ele>665.0</ele><time>2026-04-28T10:58:47Z</time></trkpt><trkpt lat="35.0338326609856" lon="-5.157015173054945"><ele>665.0</ele><time>2026-04-28T10:58:48Z</time></trkpt><trkpt lat="35.03378882686844" lon="-5.156886299747699"><ele>662.0</ele><time>2026-04-28T10:58:49Z</time></trkpt><trkpt lat="35.03374399268969" lon="-5.1567534145089455"><ele>659.0</ele><time>2026-04-28T10:58:50Z</time></trkpt><trkpt lat="35.0337015133942" lon="-5.156622745650504"><ele>656.0</ele><time>2026-04-28T10:58:51Z</time></trkpt><trkpt lat="35.03366430807894" lon="-5.156491283928846"><ele>653.0</ele><time>2026-04-28T10:58:52Z</time></trkpt><trkpt lat="35.03362278778688" lon="-5.156362634017818"><ele>651.5999999999999</ele><time>2026-04-28T10:58:53Z</time></trkpt><trkpt lat="35.03357737759646" lon="-5.156238591007866"><ele>650.1999999999999</ele><time>2026-04-28T10:58:54Z</time></trkpt><trkpt lat="35.033532748218114" lon="-5.156126013351731"><ele>648.8</ele><time>2026-04-28T10:58:55Z</time></trkpt><trkpt lat="35.033479373651055" lon="-5.156019582463979"><ele>647.4</ele><time>2026-04-28T10:58:56Z</time></trkpt><trkpt lat="35.03341694615429" lon="-5.1559225371321515"><ele>646.0</ele><time>2026-04-28T10:58:56.999Z</time></trkpt><trkpt lat="35.03333825831027" lon="-5.155845208388668"><ele>644.75</ele><time>2026-04-28T10:58:57.999Z</time></trkpt><trkpt lat="35.03324160792483" lon="-5.155798646392261"><ele>643.5</ele><time>2026-04-28T10:58:58.999Z</time></trkpt><trkpt lat="35.033129393959335" lon="-5.155776958577529"><ele>642.25</ele><time>2026-04-28T10:58:59.999Z</time></trkpt><trkpt lat="35.03300208357081" lon="-5.155777259712555"><ele>641.0</ele><time>2026-04-28T10:59:00.999Z</time></trkpt><trkpt lat="35.03286981373846" lon="-5.155783163634708"><ele>641.0</ele><time>2026-04-28T10:59:01.999Z</time></trkpt><trkpt lat="35.032741595373366" lon="-5.155790224291755"><ele>641.0</ele><time>2026-04-28T10:59:02.999Z</time></trkpt><trkpt lat="35.03261870329895" lon="-5.155796116313733"><ele>641.0</ele><time>2026-04-28T10:59:03.999Z</time></trkpt><trkpt lat="35.03249573604094" lon="-5.155800332836091"><ele>641.0</ele><time>2026-04-28T10:59:04.999Z</time></trkpt><trkpt lat="35.03237589216627" lon="-5.155798462135472"><ele>639.0</ele><time>2026-04-28T10:59:05.999Z</time></trkpt><trkpt lat="35.032258899016206" lon="-5.155780683624236"><ele>637.0</ele><time>2026-04-28T10:59:06.999Z</time></trkpt><trkpt lat="35.03214849474754" lon="-5.15574711552609"><ele>635.0</ele><time>2026-04-28T10:59:07.999Z</time></trkpt><trkpt lat="35.032040331419246" lon="-5.155687844503686"><ele>633.0</ele><time>2026-04-28T10:59:08.999Z</time></trkpt><trkpt lat="35.031932837326586" lon="-5.1555915376452575"><ele>631.0</ele><time>2026-04-28T10:59:09.999Z</time></trkpt><trkpt lat="35.03182127984249" lon="-5.1554678750213485"><ele>629.0</ele><time>2026-04-28T10:59:10.999Z</time></trkpt><trkpt lat="35.031704462702805" lon="-5.155331486486287"><ele>627.0</ele><time>2026-04-28T10:59:11.999Z</time></trkpt><trkpt lat="35.03158207460723" lon="-5.155194993606903"><ele>624.3333333333334</ele><time>2026-04-28T10:59:12.999Z</time></trkpt><trkpt lat="35.03145617861333" lon="-5.155058624254108"><ele>621.6666666666667</ele><time>2026-04-28T10:59:13.999Z</time></trkpt><trkpt lat="35.031334614938245" lon="-5.154925981394616"><ele>619.0</ele><time>2026-04-28T10:59:14.999Z</time></trkpt><trkpt lat="35.03121312312224" lon="-5.154793430598906"><ele>618.6666666666667</ele><time>2026-04-28T10:59:15.999Z</time></trkpt><trkpt lat="35.031094661858575" lon="-5.154655379228069"><ele>618.3333333333334</ele><time>2026-04-28T10:59:16.999Z</time></trkpt><trkpt lat="35.03097788200957" lon="-5.154512564020443"><ele>618.0</ele><time>2026-04-28T10:59:17.999Z</time></trkpt><trkpt lat="35.03086390387649" lon="-5.154356878184266"><ele>618.0</ele><time>2026-04-28T10:59:18.999Z</time></trkpt><trkpt lat="35.03075330483175" lon="-5.1541923898065365"><ele>618.0</ele><time>2026-04-28T10:59:19.999Z</time></trkpt><trkpt lat="35.03064019896116" lon="-5.154016494869203"><ele>618.0</ele><time>2026-04-28T10:59:20.999Z</time></trkpt><trkpt lat="35.03052672664249" lon="-5.1538359894534596"><ele>617.6666666666666</ele><time>2026-04-28T10:59:21.999Z</time></trkpt><trkpt lat="35.03040668514301" lon="-5.153657868415625"><ele>617.3333333333333</ele><time>2026-04-28T10:59:22.999Z</time></trkpt><trkpt lat="35.03028710692497" lon="-5.153480548771964"><ele>617.0</ele><time>2026-04-28T10:59:23.999Z</time></trkpt><trkpt lat="35.03017542970116" lon="-5.1533047728387285"><ele>619.0</ele><time>2026-04-28T10:59:24.999Z</time></trkpt><trkpt lat="35.03006587385131" lon="-5.153123491540143"><ele>621.0</ele><time>2026-04-28T10:59:25.999Z</time></trkpt><trkpt lat="35.02995921827031" lon="-5.1529376194640095"><ele>623.0</ele><time>2026-04-28T10:59:26.999Z</time></trkpt><trkpt lat="35.02986396456868" lon="-5.1527476643043375"><ele>618.6666666666666</ele><time>2026-04-28T10:59:27.999Z</time></trkpt><trkpt lat="35.029774183897494" lon="-5.152555863902269"><ele>614.3333333333334</ele><time>2026-04-28T10:59:28.999Z</time></trkpt><trkpt lat="35.029695350825335" lon="-5.152380549768066"><ele>610.0</ele><time>2026-04-28T10:59:29.999Z</time></trkpt><trkpt lat="35.02963156373235" lon="-5.152222275429635"><ele>610.0</ele><time>2026-04-28T10:59:30.999Z</time></trkpt><trkpt lat="35.0295877132551" lon="-5.152066193951894"><ele>610.0</ele><time>2026-04-28T10:59:31.999Z</time></trkpt><trkpt lat="35.029563543800535" lon="-5.1518966573956995"><ele>610.0</ele><time>2026-04-28T10:59:32.999Z</time></trkpt><trkpt lat="35.029557768422315" lon="-5.151699178484014"><ele>610.0</ele><time>2026-04-28T10:59:33.999Z</time></trkpt><trkpt lat="35.02955763888884" lon="-5.151488268380171"><ele>610.0</ele><time>2026-04-28T10:59:34.999Z</time></trkpt><trkpt lat="35.02956351747221" lon="-5.151274417694346"><ele>610.0</ele><time>2026-04-28T10:59:35.999Z</time></trkpt><trkpt lat="35.029561946089494" lon="-5.151076881481816"><ele>610.0</ele><time>2026-04-28T10:59:37Z</time></trkpt><trkpt lat="35.02954527548461" lon="-5.15089461916781"><ele>610.0</ele><time>2026-04-28T10:59:38Z</time></trkpt><trkpt lat="35.02951410353693" lon="-5.1507194851712415"><ele>610.0</ele><time>2026-04-28T10:59:39Z</time></trkpt><trkpt lat="35.02946410242742" lon="-5.1505596851368605"><ele>610.0</ele><time>2026-04-28T10:59:40Z</time></trkpt><trkpt lat="35.02939071310445" lon="-5.150398515933482"><ele>610.0</ele><time>2026-04-28T10:59:41Z</time></trkpt><trkpt lat="35.02930720315427" lon="-5.150241763688113"><ele>611.0</ele><time>2026-04-28T10:59:42Z</time></trkpt><trkpt lat="35.029224736957296" lon="-5.150089555138571"><ele>612.0</ele><time>2026-04-28T10:59:43Z</time></trkpt><trkpt lat="35.02914793205324" lon="-5.149943583691253"><ele>613.0</ele><time>2026-04-28T10:59:44Z</time></trkpt><trkpt lat="35.029076380517466" lon="-5.149797773754982"><ele>614.0</ele><time>2026-04-28T10:59:45Z</time></trkpt><trkpt lat="35.029008028778534" lon="-5.149650052785328"><ele>609.25</ele><time>2026-04-28T10:59:46Z</time></trkpt><trkpt lat="35.02893904258293" lon="-5.149505641863068"><ele>604.5</ele><time>2026-04-28T10:59:47Z</time></trkpt><trkpt lat="35.02886261093732" lon="-5.149369657837247"><ele>599.75</ele><time>2026-04-28T10:59:48Z</time></trkpt><trkpt lat="35.028791169297186" lon="-5.149230085051963"><ele>595.0</ele><time>2026-04-28T10:59:49Z</time></trkpt><trkpt lat="35.02872687662275" lon="-5.149085053957309"><ele>595.75</ele><time>2026-04-28T10:59:50Z</time></trkpt><trkpt lat="35.028670724395916" lon="-5.148943086141849"><ele>596.5</ele><time>2026-04-28T10:59:51Z</time></trkpt><trkpt lat="35.02862100675744" lon="-5.148795549999643"><ele>597.25</ele><time>2026-04-28T10:59:52Z</time></trkpt><trkpt lat="35.028588343751046" lon="-5.148651778963675"><ele>598.0</ele><time>2026-04-28T10:59:53Z</time></trkpt><trkpt lat="35.02858383089591" lon="-5.148496176980726"><ele>598.0</ele><time>2026-04-28T10:59:54Z</time></trkpt><trkpt lat="35.02859917502521" lon="-5.148325259755176"><ele>598.0</ele><time>2026-04-28T10:59:55Z</time></trkpt><trkpt lat="35.02861935757524" lon="-5.148151548668774"><ele>598.0</ele><time>2026-04-28T10:59:56Z</time></trkpt><trkpt lat="35.02863791586972" lon="-5.147979233277036"><ele>598.0</ele><time>2026-04-28T10:59:57Z</time></trkpt><trkpt lat="35.028638509526665" lon="-5.147807204154001"><ele>597.25</ele><time>2026-04-28T10:59:58Z</time></trkpt><trkpt lat="35.02861683085473" lon="-5.147640949579787"><ele>596.5</ele><time>2026-04-28T10:59:59Z</time></trkpt><trkpt lat="35.02857983922839" lon="-5.14747011534037"><ele>595.75</ele><time>2026-04-28T11:00:00Z</time></trkpt><trkpt lat="35.02853807384963" lon="-5.14729495945315"><ele>595.0</ele><time>2026-04-28T11:00:01Z</time></trkpt><trkpt lat="35.02849719720989" lon="-5.1471259900591715"><ele>594.25</ele><time>2026-04-28T11:00:02Z</time></trkpt><trkpt lat="35.028448198440174" lon="-5.146965908937641"><ele>593.5</ele><time>2026-04-28T11:00:03Z</time></trkpt><trkpt lat="35.028394343656544" lon="-5.146804327785507"><ele>592.75</ele><time>2026-04-28T11:00:04Z</time></trkpt><trkpt lat="35.02834579591769" lon="-5.146641558561945"><ele>592.0</ele><time>2026-04-28T11:00:05Z</time></trkpt><trkpt lat="35.0283011758553" lon="-5.1464817043911495"><ele>589.75</ele><time>2026-04-28T11:00:06Z</time></trkpt><trkpt lat="35.028250557559005" lon="-5.146330623165866"><ele>587.5</ele><time>2026-04-28T11:00:07Z</time></trkpt><trkpt lat="35.02818813805056" lon="-5.146175870204381"><ele>585.25</ele><time>2026-04-28T11:00:08Z</time></trkpt><trkpt lat="35.02812327025936" lon="-5.1460244460235725"><ele>583.0</ele><time>2026-04-28T11:00:09Z</time></trkpt><trkpt lat="35.02804366824965" lon="-5.145877443724381"><ele>583.0</ele><time>2026-04-28T11:00:10Z</time></trkpt><trkpt lat="35.027952488924754" lon="-5.1457319558937185"><ele>583.0</ele><time>2026-04-28T11:00:11Z</time></trkpt><trkpt lat="35.02786496060595" lon="-5.145586828100102"><ele>583.0</ele><time>2026-04-28T11:00:12Z</time></trkpt><trkpt lat="35.02777719963798" lon="-5.145444358337548"><ele>583.0</ele><time>2026-04-28T11:00:13Z</time></trkpt><trkpt lat="35.02770037941887" lon="-5.145305447227789"><ele>582.75</ele><time>2026-04-28T11:00:14Z</time></trkpt><trkpt lat="35.02760920176905" lon="-5.145165946896096"><ele>582.5</ele><time>2026-04-28T11:00:15Z</time></trkpt><trkpt lat="35.027524291637484" lon="-5.145019668968843"><ele>582.25</ele><time>2026-04-28T11:00:16Z</time></trkpt><trkpt lat="35.0274444176066" lon="-5.14488175389165"><ele>582.0</ele><time>2026-04-28T11:00:17Z</time></trkpt><trkpt lat="35.02736909992992" lon="-5.144731835572134"><ele>582.0</ele><time>2026-04-28T11:00:18Z</time></trkpt><trkpt lat="35.02731920026321" lon="-5.144575903405381"><ele>582.0</ele><time>2026-04-28T11:00:19Z</time></trkpt><trkpt lat="35.027275012232636" lon="-5.144399581629733"><ele>582.0</ele><time>2026-04-28T11:00:20Z</time></trkpt><trkpt lat="35.02723836585523" lon="-5.144213328401816"><ele>582.0</ele><time>2026-04-28T11:00:21Z</time></trkpt><trkpt lat="35.02721530463151" lon="-5.144017093132336"><ele>584.0</ele><time>2026-04-28T11:00:22Z</time></trkpt><trkpt lat="35.02719985329914" lon="-5.143819400345948"><ele>586.0</ele><time>2026-04-28T11:00:23Z</time></trkpt><trkpt lat="35.02717632640135" lon="-5.143632097182767"><ele>588.0</ele><time>2026-04-28T11:00:24Z</time></trkpt><trkpt lat="35.027155508184414" lon="-5.143455455046239"><ele>588.0</ele><time>2026-04-28T11:00:25Z</time></trkpt><trkpt lat="35.02715171521206" lon="-5.143287704894547"><ele>588.0</ele><time>2026-04-28T11:00:26Z</time></trkpt><trkpt lat="35.027159029082185" lon="-5.143105789777645"><ele>588.0</ele><time>2026-04-28T11:00:27Z</time></trkpt><trkpt lat="35.02721841040202" lon="-5.142935706142893"><ele>588.0</ele><time>2026-04-28T11:00:28Z</time></trkpt><trkpt lat="35.027287193764515" lon="-5.142756819657557"><ele>589.0</ele><time>2026-04-28T11:00:29Z</time></trkpt><trkpt lat="35.02735571538762" lon="-5.14256286823713"><ele>590.0</ele><time>2026-04-28T11:00:30Z</time></trkpt><trkpt lat="35.02741009106818" lon="-5.1423674527991095"><ele>591.0</ele><time>2026-04-28T11:00:31Z</time></trkpt><trkpt lat="35.02744778022147" lon="-5.142183786638342"><ele>591.0</ele><time>2026-04-28T11:00:32Z</time></trkpt><trkpt lat="35.02746864819657" lon="-5.142010987142856"><ele>591.0</ele><time>2026-04-28T11:00:33Z</time></trkpt><trkpt lat="35.0274708631662" lon="-5.1418432836218715"><ele>591.0</ele><time>2026-04-28T11:00:34Z</time></trkpt><trkpt lat="35.02744578450071" lon="-5.1416879809780625"><ele>591.0</ele><time>2026-04-28T11:00:35Z</time></trkpt><trkpt lat="35.027393583433536" lon="-5.141526521999339"><ele>590.6666666666666</ele><time>2026-04-28T11:00:36Z</time></trkpt><trkpt lat="35.027326465091505" lon="-5.141359357535616"><ele>590.3333333333333</ele><time>2026-04-28T11:00:37Z</time></trkpt><trkpt lat="35.027266198269864" lon="-5.141181764418678"><ele>590.0</ele><time>2026-04-28T11:00:38Z</time></trkpt><trkpt lat="35.02720137597786" lon="-5.141001219348776"><ele>590.0</ele><time>2026-04-28T11:00:39Z</time></trkpt><trkpt lat="35.02712447181781" lon="-5.1408243038352275"><ele>590.0</ele><time>2026-04-28T11:00:40Z</time></trkpt><trkpt lat="35.02705184500672" lon="-5.1406395197136705"><ele>590.0</ele><time>2026-04-28T11:00:41Z</time></trkpt><trkpt lat="35.026988944039914" lon="-5.140449203575375"><ele>588.3333333333333</ele><time>2026-04-28T11:00:42Z</time></trkpt><trkpt lat="35.02692901186051" lon="-5.140258373785132"><ele>586.6666666666666</ele><time>2026-04-28T11:00:43Z</time></trkpt><trkpt lat="35.02686618621117" lon="-5.140074424328137"><ele>585.0</ele><time>2026-04-28T11:00:44Z</time></trkpt><trkpt lat="35.02680194937732" lon="-5.13989204335175"><ele>586.0</ele><time>2026-04-28T11:00:45Z</time></trkpt><trkpt lat="35.02673873954476" lon="-5.139713734576107"><ele>587.0</ele><time>2026-04-28T11:00:46Z</time></trkpt><trkpt lat="35.02667758413285" lon="-5.139539067142957"><ele>588.0</ele><time>2026-04-28T11:00:47Z</time></trkpt><trkpt lat="35.02661901079869" lon="-5.1393685215282785"><ele>588.0</ele><time>2026-04-28T11:00:48Z</time></trkpt><trkpt lat="35.026558395786004" lon="-5.139197740460451"><ele>588.0</ele><time>2026-04-28T11:00:49Z</time></trkpt><trkpt lat="35.026497519163776" lon="-5.13902452743747"><ele>588.0</ele><time>2026-04-28T11:00:50Z</time></trkpt><trkpt lat="35.026432691288264" lon="-5.138855461027444"><ele>586.3333333333334</ele><time>2026-04-28T11:00:51Z</time></trkpt><trkpt lat="35.02635168156822" lon="-5.138695620728972"><ele>584.6666666666667</ele><time>2026-04-28T11:00:52Z</time></trkpt><trkpt lat="35.026254569806774" lon="-5.138547530605397"><ele>583.0</ele><time>2026-04-28T11:00:53Z</time></trkpt><trkpt lat="35.026153398718506" lon="-5.138404339817104"><ele>583.0</ele><time>2026-04-28T11:00:54Z</time></trkpt><trkpt lat="35.02605387544622" lon="-5.138258545692999"><ele>583.0</ele><time>2026-04-28T11:00:55Z</time></trkpt><trkpt lat="35.02595964029636" lon="-5.1381037131363465"><ele>583.0</ele><time>2026-04-28T11:00:56Z</time></trkpt><trkpt lat="35.02586831234821" lon="-5.137944975372586"><ele>583.0</ele><time>2026-04-28T11:00:57Z</time></trkpt><trkpt lat="35.025778762596715" lon="-5.137776328142298"><ele>583.0</ele><time>2026-04-28T11:00:57.999Z</time></trkpt><trkpt lat="35.02569402035183" lon="-5.1376044727436785"><ele>583.0</ele><time>2026-04-28T11:00:58.999Z</time></trkpt><trkpt lat="35.02561914915937" lon="-5.1374245815204675"><ele>581.0</ele><time>2026-04-28T11:00:59.999Z</time></trkpt><trkpt lat="35.02555386412681" lon="-5.137238291383678"><ele>579.0</ele><time>2026-04-28T11:01:00.999Z</time></trkpt><trkpt lat="35.02549521991233" lon="-5.137051219822912"><ele>577.0</ele><time>2026-04-28T11:01:01.999Z</time></trkpt><trkpt lat="35.025436435265945" lon="-5.136871531404423"><ele>577.0</ele><time>2026-04-28T11:01:02.999Z</time></trkpt><trkpt lat="35.02537264193225" lon="-5.1367032818517036"><ele>577.0</ele><time>2026-04-28T11:01:03.999Z</time></trkpt><trkpt lat="35.025295433401205" lon="-5.136550198855455"><ele>577.0</ele><time>2026-04-28T11:01:04.999Z</time></trkpt><trkpt lat="35.025211970688964" lon="-5.136394704362208"><ele>575.3333333333334</ele><time>2026-04-28T11:01:05.999Z</time></trkpt><trkpt lat="35.0251309077205" lon="-5.1362286013019745"><ele>573.6666666666666</ele><time>2026-04-28T11:01:06.999Z</time></trkpt><trkpt lat="35.025059917237186" lon="-5.136052585628683"><ele>572.0</ele><time>2026-04-28T11:01:07.999Z</time></trkpt><trkpt lat="35.02499557862727" lon="-5.135869969468797"><ele>573.75</ele><time>2026-04-28T11:01:08.999Z</time></trkpt><trkpt lat="35.0249393493496" lon="-5.135695126595142"><ele>575.5</ele><time>2026-04-28T11:01:09.999Z</time></trkpt><trkpt lat="35.02488989189719" lon="-5.135525550797731"><ele>577.25</ele><time>2026-04-28T11:01:10.999Z</time></trkpt><trkpt lat="35.02484494482721" lon="-5.135361889761439"><ele>579.0</ele><time>2026-04-28T11:01:11.999Z</time></trkpt><trkpt lat="35.024807744413245" lon="-5.135199362319118"><ele>579.0</ele><time>2026-04-28T11:01:12.999Z</time></trkpt><trkpt lat="35.024790321811" lon="-5.1350394057603586"><ele>579.0</ele><time>2026-04-28T11:01:13.999Z</time></trkpt><trkpt lat="35.02479292821096" lon="-5.134880737140693"><ele>579.0</ele><time>2026-04-28T11:01:14.999Z</time></trkpt><trkpt lat="35.024810018896474" lon="-5.13472238221375"><ele>579.0</ele><time>2026-04-28T11:01:15.999Z</time></trkpt><trkpt lat="35.0248365138238" lon="-5.134569533596428"><ele>578.0</ele><time>2026-04-28T11:01:16.999Z</time></trkpt><trkpt lat="35.02486480842188" lon="-5.134419250928327"><ele>577.0</ele><time>2026-04-28T11:01:17.999Z</time></trkpt><trkpt lat="35.0248902374996" lon="-5.134272495734473"><ele>576.0</ele><time>2026-04-28T11:01:18.999Z</time></trkpt><trkpt lat="35.024918821966445" lon="-5.134131735257035"><ele>575.0</ele><time>2026-04-28T11:01:19.999Z</time></trkpt><trkpt lat="35.024949234689394" lon="-5.134002612932517"><ele>574.4</ele><time>2026-04-28T11:01:20.999Z</time></trkpt><trkpt lat="35.024978083187406" lon="-5.133891560375676"><ele>573.8</ele><time>2026-04-28T11:01:21.999Z</time></trkpt><trkpt lat="35.02502855915511" lon="-5.133799647963212"><ele>573.2</ele><time>2026-04-28T11:01:22.999Z</time></trkpt><trkpt lat="35.02510127695954" lon="-5.1337282836458815"><ele>572.6</ele><time>2026-04-28T11:01:23.999Z</time></trkpt><trkpt lat="35.025187996219046" lon="-5.133693898562653"><ele>572.0</ele><time>2026-04-28T11:01:24.999Z</time></trkpt><trkpt lat="35.02529958639504" lon="-5.133688236573614"><ele>570.6</ele><time>2026-04-28T11:01:25.999Z</time></trkpt><trkpt lat="35.02541595704984" lon="-5.133689328042608"><ele>569.2</ele><time>2026-04-28T11:01:26.999Z</time></trkpt><trkpt lat="35.02552779626879" lon="-5.133692160743718"><ele>567.8</ele><time>2026-04-28T11:01:27.999Z</time></trkpt><trkpt lat="35.02563516481335" lon="-5.133686508011762"><ele>566.4</ele><time>2026-04-28T11:01:28.999Z</time></trkpt><trkpt lat="35.02573990270777" lon="-5.133654025507027"><ele>565.0</ele><time>2026-04-28T11:01:29.999Z</time></trkpt><trkpt lat="35.025837983782516" lon="-5.133592387515218"><ele>565.0</ele><time>2026-04-28T11:01:30.999Z</time></trkpt><trkpt lat="35.02593050752893" lon="-5.133501821193429"><ele>565.0</ele><time>2026-04-28T11:01:31.999Z</time></trkpt><trkpt lat="35.02602646144912" lon="-5.133402626269892"><ele>565.0</ele><time>2026-04-28T11:01:32.999Z</time></trkpt><trkpt lat="35.026127035210244" lon="-5.1333041857766855"><ele>565.0</ele><time>2026-04-28T11:01:33.999Z</time></trkpt><trkpt lat="35.02621061833583" lon="-5.133178516587913"><ele>565.0</ele><time>2026-04-28T11:01:34.999Z</time></trkpt><trkpt lat="35.026291799635175" lon="-5.133053018400163"><ele>565.0</ele><time>2026-04-28T11:01:35.999Z</time></trkpt><trkpt lat="35.0263722129859" lon="-5.132927249333465"><ele>565.0</ele><time>2026-04-28T11:01:36.999Z</time></trkpt><trkpt lat="35.026452584849636" lon="-5.132801302081895"><ele>565.0</ele><time>2026-04-28T11:01:37.999Z</time></trkpt><trkpt lat="35.026535171585444" lon="-5.132677694044833"><ele>565.0</ele><time>2026-04-28T11:01:38.999Z</time></trkpt><trkpt lat="35.02662006681392" lon="-5.132559135092462"><ele>565.0</ele><time>2026-04-28T11:01:39.999Z</time></trkpt><trkpt lat="35.026704101959744" lon="-5.1324420114510225"><ele>565.0</ele><time>2026-04-28T11:01:40.999Z</time></trkpt><trkpt lat="35.026775474636715" lon="-5.132322876264746"><ele>565.0</ele><time>2026-04-28T11:01:42Z</time></trkpt><trkpt lat="35.0268380014156" lon="-5.132204523736255"><ele>562.4</ele><time>2026-04-28T11:01:43Z</time></trkpt><trkpt lat="35.026898551179976" lon="-5.132092166108156"><ele>559.8</ele><time>2026-04-28T11:01:44Z</time></trkpt><trkpt lat="35.026947226300706" lon="-5.131993465091404"><ele>557.2</ele><time>2026-04-28T11:01:45Z</time></trkpt><trkpt lat="35.026988563518195" lon="-5.131899058627459"><ele>554.6</ele><time>2026-04-28T11:01:46Z</time></trkpt><trkpt lat="35.02702594271415" lon="-5.13180512146909"><ele>552.0</ele><time>2026-04-28T11:01:47Z</time></trkpt><trkpt lat="35.02704761054488" lon="-5.131706853349837"><ele>552.0</ele><time>2026-04-28T11:01:48Z</time></trkpt><trkpt lat="35.02704671793316" lon="-5.131602506728443"><ele>552.0</ele><time>2026-04-28T11:01:49Z</time></trkpt><trkpt lat="35.02702812738083" lon="-5.13150225869753"><ele>552.0</ele><time>2026-04-28T11:01:50Z</time></trkpt><trkpt lat="35.02699417233704" lon="-5.1313968291593195"><ele>552.0</ele><time>2026-04-28T11:01:51Z</time></trkpt><trkpt lat="35.026941556529806" lon="-5.131296826309772"><ele>552.0</ele><time>2026-04-28T11:01:52Z</time></trkpt><trkpt lat="35.02687835383138" lon="-5.131218130990468"><ele>551.0</ele><time>2026-04-28T11:01:53Z</time></trkpt><trkpt lat="35.026801979253634" lon="-5.131154490705169"><ele>550.0</ele><time>2026-04-28T11:01:54Z</time></trkpt><trkpt lat="35.026706763744784" lon="-5.131125350801826"><ele>549.0</ele><time>2026-04-28T11:01:55Z</time></trkpt><trkpt lat="35.02660062388225" lon="-5.131135730294962"><ele>548.0</ele><time>2026-04-28T11:01:56Z</time></trkpt><trkpt lat="35.02650526215466" lon="-5.131225535269581"><ele>547.0</ele><time>2026-04-28T11:01:57Z</time></trkpt><trkpt lat="35.026398181152295" lon="-5.131283839647992"><ele>544.0</ele><time>2026-04-28T11:01:58Z</time></trkpt><trkpt lat="35.02626993253682" lon="-5.131363454153195"><ele>541.0</ele><time>2026-04-28T11:01:59Z</time></trkpt><trkpt lat="35.02613656992324" lon="-5.131442532377148"><ele>538.0</ele><time>2026-04-28T11:02:00Z</time></trkpt><trkpt lat="35.02600961692232" lon="-5.131501683897281"><ele>535.0</ele><time>2026-04-28T11:02:01Z</time></trkpt><trkpt lat="35.02588476415847" lon="-5.1315339935585795"><ele>535.25</ele><time>2026-04-28T11:02:02Z</time></trkpt><trkpt lat="35.025760330335785" lon="-5.1315663289893605"><ele>535.5</ele><time>2026-04-28T11:02:03Z</time></trkpt><trkpt lat="35.02562527155983" lon="-5.131570948778822"><ele>535.75</ele><time>2026-04-28T11:02:04Z</time></trkpt><trkpt lat="35.025482050645365" lon="-5.131543723251708"><ele>536.0</ele><time>2026-04-28T11:02:05Z</time></trkpt><trkpt lat="35.02533076426732" lon="-5.1314949528646245"><ele>536.0</ele><time>2026-04-28T11:02:06Z</time></trkpt><trkpt lat="35.0251780118857" lon="-5.131449776557162"><ele>536.0</ele><time>2026-04-28T11:02:07Z</time></trkpt><trkpt lat="35.025023591748315" lon="-5.131430385734853"><ele>536.0</ele><time>2026-04-28T11:02:08Z</time></trkpt><trkpt lat="35.02486582191965" lon="-5.131432761215533"><ele>537.3333333333333</ele><time>2026-04-28T11:02:09Z</time></trkpt><trkpt lat="35.024715454381095" lon="-5.131428536564288"><ele>538.6666666666666</ele><time>2026-04-28T11:02:10Z</time></trkpt><trkpt lat="35.02456624046082" lon="-5.1314095108848"><ele>540.0</ele><time>2026-04-28T11:02:11Z</time></trkpt><trkpt lat="35.02442053933529" lon="-5.131364180997621"><ele>540.0</ele><time>2026-04-28T11:02:12Z</time></trkpt><trkpt lat="35.02427623262694" lon="-5.131276190458707"><ele>540.0</ele><time>2026-04-28T11:02:13Z</time></trkpt><trkpt lat="35.02412614524102" lon="-5.131177871600734"><ele>540.0</ele><time>2026-04-28T11:02:14Z</time></trkpt><trkpt lat="35.02397605798603" lon="-5.1311062013689295"><ele>541.25</ele><time>2026-04-28T11:02:15Z</time></trkpt><trkpt lat="35.023834614588836" lon="-5.131042771048688"><ele>542.5</ele><time>2026-04-28T11:02:16Z</time></trkpt><trkpt lat="35.02371418353222" lon="-5.130965567348421"><ele>543.75</ele><time>2026-04-28T11:02:17Z</time></trkpt><trkpt lat="35.023606638580915" lon="-5.130871127075138"><ele>545.0</ele><time>2026-04-28T11:02:18Z</time></trkpt><trkpt lat="35.02351394637387" lon="-5.130760891823831"><ele>543.5</ele><time>2026-04-28T11:02:19Z</time></trkpt><trkpt lat="35.023442644223685" lon="-5.130621904125394"><ele>542.0</ele><time>2026-04-28T11:02:20Z</time></trkpt><trkpt lat="35.02339353491826" lon="-5.1304536972437305"><ele>540.5</ele><time>2026-04-28T11:02:21Z</time></trkpt><trkpt lat="35.02336072121254" lon="-5.1302679664906785"><ele>539.0</ele><time>2026-04-28T11:02:22Z</time></trkpt><trkpt lat="35.023322535958144" lon="-5.130086602783473"><ele>541.0</ele><time>2026-04-28T11:02:23Z</time></trkpt><trkpt lat="35.023278135609274" lon="-5.129908884978701"><ele>543.0</ele><time>2026-04-28T11:02:24Z</time></trkpt><trkpt lat="35.023232118837655" lon="-5.129721743186084"><ele>545.0</ele><time>2026-04-28T11:02:25Z</time></trkpt><trkpt lat="35.02318826806423" lon="-5.129524765313995"><ele>545.0</ele><time>2026-04-28T11:02:26Z</time></trkpt><trkpt lat="35.02314603410162" lon="-5.129326937672701"><ele>545.0</ele><time>2026-04-28T11:02:27Z</time></trkpt><trkpt lat="35.02309793971052" lon="-5.12913716898931"><ele>545.0</ele><time>2026-04-28T11:02:28Z</time></trkpt><trkpt lat="35.02304063188614" lon="-5.128958596091545"><ele>540.0</ele><time>2026-04-28T11:02:29Z</time></trkpt><trkpt lat="35.022966633310034" lon="-5.1287958777575176"><ele>535.0</ele><time>2026-04-28T11:02:30Z</time></trkpt><trkpt lat="35.022877785250756" lon="-5.128644573866727"><ele>530.0</ele><time>2026-04-28T11:02:31Z</time></trkpt><trkpt lat="35.02278600950584" lon="-5.1285069630047015"><ele>530.0</ele><time>2026-04-28T11:02:32Z</time></trkpt><trkpt lat="35.022700990905996" lon="-5.128375096345575"><ele>530.0</ele><time>2026-04-28T11:02:33Z</time></trkpt><trkpt lat="35.02262113986012" lon="-5.128247953001662"><ele>530.0</ele><time>2026-04-28T11:02:34Z</time></trkpt><trkpt lat="35.022549493734665" lon="-5.128119568515296"><ele>530.0</ele><time>2026-04-28T11:02:35Z</time></trkpt><trkpt lat="35.02247817080342" lon="-5.127992320175748"><ele>526.4</ele><time>2026-04-28T11:02:36Z</time></trkpt><trkpt lat="35.02239842691124" lon="-5.127883965810865"><ele>522.8</ele><time>2026-04-28T11:02:37Z</time></trkpt><trkpt lat="35.02231575065338" lon="-5.127801989369079"><ele>519.2</ele><time>2026-04-28T11:02:38Z</time></trkpt><trkpt lat="35.02221687353047" lon="-5.127756276877612"><ele>515.6</ele><time>2026-04-28T11:02:39Z</time></trkpt><trkpt lat="35.022115371115525" lon="-5.127715947285686"><ele>512.0</ele><time>2026-04-28T11:02:40Z</time></trkpt><trkpt lat="35.02200405924443" lon="-5.1276766577440425"><ele>512.0</ele><time>2026-04-28T11:02:41Z</time></trkpt><trkpt lat="35.021914282196455" lon="-5.127636093774163"><ele>512.0</ele><time>2026-04-28T11:02:42Z</time></trkpt><trkpt lat="35.021836548384236" lon="-5.127616981338333"><ele>512.0</ele><time>2026-04-28T11:02:43Z</time></trkpt><trkpt lat="35.021742494924126" lon="-5.127576917815137"><ele>512.0</ele><time>2026-04-28T11:02:44Z</time></trkpt><trkpt lat="35.021625817304475" lon="-5.1275156546111775"><ele>512.0</ele><time>2026-04-28T11:02:45Z</time></trkpt><trkpt lat="35.021509439080326" lon="-5.127454934323462"><ele>511.8</ele><time>2026-04-28T11:02:46Z</time></trkpt><trkpt lat="35.0213998004044" lon="-5.127390292858543"><ele>511.6</ele><time>2026-04-28T11:02:47Z</time></trkpt><trkpt lat="35.02131172367239" lon="-5.127311201740359"><ele>511.40000000000003</ele><time>2026-04-28T11:02:48Z</time></trkpt><trkpt lat="35.021248745802076" lon="-5.127220990788244"><ele>511.20000000000005</ele><time>2026-04-28T11:02:49Z</time></trkpt><trkpt lat="35.02120884439413" lon="-5.1271206008828365"><ele>511.0</ele><time>2026-04-28T11:02:50Z</time></trkpt><trkpt lat="35.02118071015459" lon="-5.127004997087721"><ele>511.0</ele><time>2026-04-28T11:02:51Z</time></trkpt><trkpt lat="35.02116183273533" lon="-5.1268692613367115"><ele>511.0</ele><time>2026-04-28T11:02:52Z</time></trkpt><trkpt lat="35.021145017308875" lon="-5.126723658536302"><ele>511.0</ele><time>2026-04-28T11:02:53Z</time></trkpt><trkpt lat="35.0211292256793" lon="-5.126578449950417"><ele>511.0</ele><time>2026-04-28T11:02:54Z</time></trkpt><trkpt lat="35.02110456416203" lon="-5.126432425834836"><ele>510.0</ele><time>2026-04-28T11:02:55Z</time></trkpt><trkpt lat="35.021068585926805" lon="-5.126308165502152"><ele>509.0</ele><time>2026-04-28T11:02:56Z</time></trkpt><trkpt lat="35.02103248297958" lon="-5.126196870554047"><ele>508.0</ele><time>2026-04-28T11:02:57Z</time></trkpt><trkpt lat="35.02100013121371" lon="-5.126088652071318"><ele>507.0</ele><time>2026-04-28T11:02:58Z</time></trkpt><trkpt lat="35.02095272277813" lon="-5.125973064241471"><ele>506.0</ele><time>2026-04-28T11:02:58.999Z</time></trkpt><trkpt lat="35.020889402977495" lon="-5.125849542671614"><ele>505.75</ele><time>2026-04-28T11:02:59.999Z</time></trkpt><trkpt lat="35.02082194883095" lon="-5.125720866704868"><ele>505.5</ele><time>2026-04-28T11:03:00.999Z</time></trkpt><trkpt lat="35.02076017326804" lon="-5.12559863616896"><ele>505.25</ele><time>2026-04-28T11:03:01.999Z</time></trkpt><trkpt lat="35.020711088393035" lon="-5.1254674308890245"><ele>505.0</ele><time>2026-04-28T11:03:02.999Z</time></trkpt><trkpt lat="35.02068801755969" lon="-5.125323267543934"><ele>505.0</ele><time>2026-04-28T11:03:03.999Z</time></trkpt><trkpt lat="35.02069323534882" lon="-5.125167289365754"><ele>505.0</ele><time>2026-04-28T11:03:04.999Z</time></trkpt><trkpt lat="35.02070620235301" lon="-5.125023790249125"><ele>505.0</ele><time>2026-04-28T11:03:05.999Z</time></trkpt><trkpt lat="35.020718051108304" lon="-5.124893943645438"><ele>505.0</ele><time>2026-04-28T11:03:06.999Z</time></trkpt><trkpt lat="35.02071251859229" lon="-5.124770423913414"><ele>501.6</ele><time>2026-04-28T11:03:07.999Z</time></trkpt><trkpt lat="35.02069194475869" lon="-5.124639641971092"><ele>498.2</ele><time>2026-04-28T11:03:08.999Z</time></trkpt><trkpt lat="35.020664799458" lon="-5.124514739109974"><ele>494.79999999999995</ele><time>2026-04-28T11:03:09.999Z</time></trkpt><trkpt lat="35.020630971716685" lon="-5.1244001243657085"><ele>491.4</ele><time>2026-04-28T11:03:10.999Z</time></trkpt><trkpt lat="35.0205952126491" lon="-5.12430428553439"><ele>488.0</ele><time>2026-04-28T11:03:11.999Z</time></trkpt><trkpt lat="35.02055268289141" lon="-5.124231047788882"><ele>487.99999999999994</ele><time>2026-04-28T11:03:12.999Z</time></trkpt><trkpt lat="35.020488552690544" lon="-5.124201565718986"><ele>488.0</ele><time>2026-04-28T11:03:13.999Z</time></trkpt><trkpt lat="35.02041537526828" lon="-5.124215080094247"><ele>488.0</ele><time>2026-04-28T11:03:14.999Z</time></trkpt><trkpt lat="35.020356008753495" lon="-5.124269648107379"><ele>488.0</ele><time>2026-04-28T11:03:15.999Z</time></trkpt><trkpt lat="35.020284564439805" lon="-5.124330271808058"><ele>487.99999999999994</ele><time>2026-04-28T11:03:16.999Z</time></trkpt><trkpt lat="35.02019189976229" lon="-5.124405540902922"><ele>488.0</ele><time>2026-04-28T11:03:17.999Z</time></trkpt><trkpt lat="35.02009414088656" lon="-5.124493253781364"><ele>488.0</ele><time>2026-04-28T11:03:18.999Z</time></trkpt><trkpt lat="35.01998700009891" lon="-5.1245652407105"><ele>487.99999999999994</ele><time>2026-04-28T11:03:19.999Z</time></trkpt><trkpt lat="35.0199075490085" lon="-5.124643352525221"><ele>487.99999999999994</ele><time>2026-04-28T11:03:20.999Z</time></trkpt><trkpt lat="35.01983997878709" lon="-5.124712572677917"><ele>488.0</ele><time>2026-04-28T11:03:21.999Z</time></trkpt><trkpt lat="35.019776223017026" lon="-5.124765304668863"><ele>488.0</ele><time>2026-04-28T11:03:22.999Z</time></trkpt><trkpt lat="35.01971366568003" lon="-5.124788441447442"><ele>489.8333333333333</ele><time>2026-04-28T11:03:23.999Z</time></trkpt><trkpt lat="35.019648135134965" lon="-5.124769119909926"><ele>491.66666666666663</ele><time>2026-04-28T11:03:24.999Z</time></trkpt><trkpt lat="35.01959745914513" lon="-5.124709241384459"><ele>493.5</ele><time>2026-04-28T11:03:25.999Z</time></trkpt><trkpt lat="35.01956729955256" lon="-5.12461397318194"><ele>495.33333333333337</ele><time>2026-04-28T11:03:26.999Z</time></trkpt><trkpt lat="35.01955391858955" lon="-5.124493982589079"><ele>497.1666666666667</ele><time>2026-04-28T11:03:27.999Z</time></trkpt><trkpt lat="35.01954967126571" lon="-5.124365169824135"><ele>499.0</ele><time>2026-04-28T11:03:28.999Z</time></trkpt><trkpt lat="35.0195506761093" lon="-5.124224984599551"><ele>499.0</ele><time>2026-04-28T11:03:29.999Z</time></trkpt><trkpt lat="35.01955081079891" lon="-5.124071516240003"><ele>499.0</ele><time>2026-04-28T11:03:30.999Z</time></trkpt><trkpt lat="35.01954879744839" lon="-5.123919095117735"><ele>499.0</ele><time>2026-04-28T11:03:31.999Z</time></trkpt><trkpt lat="35.01954760194943" lon="-5.123779105356569"><ele>499.0</ele><time>2026-04-28T11:03:32.999Z</time></trkpt><trkpt lat="35.019547558393505" lon="-5.123643876215458"><ele>497.79999999999995</ele><time>2026-04-28T11:03:33.999Z</time></trkpt><trkpt lat="35.01954659552027" lon="-5.123516211962971"><ele>496.59999999999997</ele><time>2026-04-28T11:03:34.999Z</time></trkpt><trkpt lat="35.01954745523285" lon="-5.123391188208499"><ele>495.4</ele><time>2026-04-28T11:03:35.999Z</time></trkpt><trkpt lat="35.01954648494285" lon="-5.123268864293576"><ele>494.2</ele><time>2026-04-28T11:03:36.999Z</time></trkpt><trkpt lat="35.01953725205453" lon="-5.123147668525837"><ele>493.0</ele><time>2026-04-28T11:03:37.999Z</time></trkpt><trkpt lat="35.01950972403017" lon="-5.123022450367942"><ele>489.25</ele><time>2026-04-28T11:03:38.999Z</time></trkpt><trkpt lat="35.019455711560035" lon="-5.122899748142681"><ele>485.5</ele><time>2026-04-28T11:03:39.999Z</time></trkpt><trkpt lat="35.01937176867322" lon="-5.1227850167970255"><ele>481.75</ele><time>2026-04-28T11:03:40.999Z</time></trkpt><trkpt lat="35.019267200258845" lon="-5.122674640602572"><ele>478.0</ele><time>2026-04-28T11:03:41.999Z</time></trkpt><trkpt lat="35.019160808492515" lon="-5.122577457593295"><ele>476.2</ele><time>2026-04-28T11:03:42.999Z</time></trkpt><trkpt lat="35.01906234905826" lon="-5.122483189550039"><ele>474.4</ele><time>2026-04-28T11:03:43.999Z</time></trkpt><trkpt lat="35.01897688623525" lon="-5.122402066587326"><ele>472.59999999999997</ele><time>2026-04-28T11:03:44.999Z</time></trkpt><trkpt lat="35.018898632137216" lon="-5.122341619792675"><ele>470.79999999999995</ele><time>2026-04-28T11:03:45.999Z</time></trkpt><trkpt lat="35.01880710565326" lon="-5.122341035013148"><ele>469.0</ele><time>2026-04-28T11:03:46.999Z</time></trkpt><trkpt lat="35.018724371311755" lon="-5.1223786936221085"><ele>469.0</ele><time>2026-04-28T11:03:48Z</time></trkpt><trkpt lat="35.018640418702105" lon="-5.122435314816784"><ele>469.0</ele><time>2026-04-28T11:03:49Z</time></trkpt><trkpt lat="35.01856503047028" lon="-5.122519908552767"><ele>469.0</ele><time>2026-04-28T11:03:50Z</time></trkpt><trkpt lat="35.018500197995536" lon="-5.122607105885138"><ele>469.0</ele><time>2026-04-28T11:03:51Z</time></trkpt><trkpt lat="35.01844273728999" lon="-5.122681833379295"><ele>469.0</ele><time>2026-04-28T11:03:52Z</time></trkpt><trkpt lat="35.01838277194259" lon="-5.122735925965341"><ele>465.79999999999995</ele><time>2026-04-28T11:03:53Z</time></trkpt><trkpt lat="35.01825388620185" lon="-5.122781980817178"><ele>462.59999999999997</ele><time>2026-04-28T11:03:55Z</time></trkpt><trkpt lat="35.01817650795035" lon="-5.12268169946726"><ele>459.4</ele><time>2026-04-28T11:03:56Z</time></trkpt><trkpt lat="35.01812979551698" lon="-5.122598087776591"><ele>456.2</ele><time>2026-04-28T11:03:57Z</time></trkpt><trkpt lat="35.01810958851498" lon="-5.122489653631866"><ele>453.0</ele><time>2026-04-28T11:03:58Z</time></trkpt><trkpt lat="35.01811746773374" lon="-5.12236349380088"><ele>452.0</ele><time>2026-04-28T11:03:59Z</time></trkpt><trkpt lat="35.01813514675217" lon="-5.122231834311706"><ele>450.99999999999994</ele><time>2026-04-28T11:04:00Z</time></trkpt><trkpt lat="35.018157331564595" lon="-5.122103220202163"><ele>449.99999999999994</ele><time>2026-04-28T11:04:01Z</time></trkpt><trkpt lat="35.018192335887214" lon="-5.121988246069869"><ele>449.0</ele><time>2026-04-28T11:04:02Z</time></trkpt><trkpt lat="35.018246271159725" lon="-5.121883793552673"><ele>448.0</ele><time>2026-04-28T11:04:03Z</time></trkpt><trkpt lat="35.01831718812306" lon="-5.121783548923925"><ele>447.4</ele><time>2026-04-28T11:04:04Z</time></trkpt><trkpt lat="35.01840524051821" lon="-5.121684776081734"><ele>446.79999999999995</ele><time>2026-04-28T11:04:05Z</time></trkpt><trkpt lat="35.01849255118301" lon="-5.1215989585830135"><ele>446.2</ele><time>2026-04-28T11:04:06Z</time></trkpt><trkpt lat="35.01857757095347" lon="-5.121515325848419"><ele>445.6</ele><time>2026-04-28T11:04:07Z</time></trkpt><trkpt lat="35.018659029214525" lon="-5.121437482054514"><ele>445.0</ele><time>2026-04-28T11:04:08Z</time></trkpt><trkpt lat="35.01873973381893" lon="-5.1213603948782485"><ele>445.0</ele><time>2026-04-28T11:04:09Z</time></trkpt><trkpt lat="35.01882085254801" lon="-5.1212896034304025"><ele>445.0</ele><time>2026-04-28T11:04:10Z</time></trkpt><trkpt lat="35.01890777771487" lon="-5.121238415076274"><ele>445.0</ele><time>2026-04-28T11:04:11Z</time></trkpt><trkpt lat="35.01899872309084" lon="-5.121217141077255"><ele>445.0</ele><time>2026-04-28T11:04:12Z</time></trkpt><trkpt lat="35.01909891244942" lon="-5.121219194286046"><ele>445.0</ele><time>2026-04-28T11:04:13Z</time></trkpt><trkpt lat="35.01920434401987" lon="-5.121226091872155"><ele>446.0</ele><time>2026-04-28T11:04:14Z</time></trkpt><trkpt lat="35.01931050911163" lon="-5.121237136120107"><ele>447.0</ele><time>2026-04-28T11:04:15Z</time></trkpt><trkpt lat="35.01941172062054" lon="-5.121253481736424"><ele>448.0</ele><time>2026-04-28T11:04:16Z</time></trkpt><trkpt lat="35.01951024544432" lon="-5.121261176178785"><ele>449.0</ele><time>2026-04-28T11:04:17Z</time></trkpt><trkpt lat="35.01959952078722" lon="-5.121251028860924"><ele>450.0</ele><time>2026-04-28T11:04:18Z</time></trkpt><trkpt lat="35.01966962466606" lon="-5.121196528077191"><ele>450.0</ele><time>2026-04-28T11:04:19Z</time></trkpt><trkpt lat="35.01972907528628" lon="-5.121144886486574"><ele>450.0</ele><time>2026-04-28T11:04:20Z</time></trkpt><trkpt lat="35.01975228471383" lon="-5.121042817291589"><ele>450.0</ele><time>2026-04-28T11:04:21Z</time></trkpt><trkpt lat="35.01974117032861" lon="-5.1209232139935965"><ele>450.0</ele><time>2026-04-28T11:04:22Z</time></trkpt><trkpt lat="35.01969667700079" lon="-5.12079874638783"><ele>450.0</ele><time>2026-04-28T11:04:23Z</time></trkpt><trkpt lat="35.01962775318635" lon="-5.1206799303666095"><ele>448.5</ele><time>2026-04-28T11:04:24Z</time></trkpt><trkpt lat="35.01954732376751" lon="-5.120558561214978"><ele>447.0</ele><time>2026-04-28T11:04:25Z</time></trkpt><trkpt lat="35.01946024816603" lon="-5.120461018347291"><ele>445.5</ele><time>2026-04-28T11:04:26Z</time></trkpt><trkpt lat="35.01936477917922" lon="-5.1203864326816575"><ele>444.0</ele><time>2026-04-28T11:04:27Z</time></trkpt><trkpt lat="35.01925412725977" lon="-5.120337992640488"><ele>443.79999999999995</ele><time>2026-04-28T11:04:28Z</time></trkpt><trkpt lat="35.01913436224481" lon="-5.120354047918079"><ele>443.59999999999997</ele><time>2026-04-28T11:04:29Z</time></trkpt><trkpt lat="35.01902673386692" lon="-5.120335183219727"><ele>443.4</ele><time>2026-04-28T11:04:30Z</time></trkpt><trkpt lat="35.0189255550601" lon="-5.120338549457732"><ele>443.2</ele><time>2026-04-28T11:04:31Z</time></trkpt><trkpt lat="35.01883128072561" lon="-5.120346250942866"><ele>443.0</ele><time>2026-04-28T11:04:32Z</time></trkpt><trkpt lat="35.018738354775024" lon="-5.120345627270329"><ele>443.0</ele><time>2026-04-28T11:04:33Z</time></trkpt><trkpt lat="35.01863496738568" lon="-5.120330315572614"><ele>442.99999999999994</ele><time>2026-04-28T11:04:34Z</time></trkpt><trkpt lat="35.01853327979074" lon="-5.120301514334498"><ele>442.99999999999994</ele><time>2026-04-28T11:04:35Z</time></trkpt><trkpt lat="35.01843418734545" lon="-5.120238690526044"><ele>443.0</ele><time>2026-04-28T11:04:36Z</time></trkpt><trkpt lat="35.01834495466505" lon="-5.120144847754694"><ele>443.0</ele><time>2026-04-28T11:04:37Z</time></trkpt><trkpt lat="35.018263192014395" lon="-5.120039024031591"><ele>444.0</ele><time>2026-04-28T11:04:38Z</time></trkpt><trkpt lat="35.01818119579299" lon="-5.119927029865917"><ele>445.0</ele><time>2026-04-28T11:04:39Z</time></trkpt><trkpt lat="35.01810040717584" lon="-5.119802355189055"><ele>446.0</ele><time>2026-04-28T11:04:40Z</time></trkpt><trkpt lat="35.01802550171491" lon="-5.119675618383983"><ele>447.0</ele><time>2026-04-28T11:04:41Z</time></trkpt><trkpt lat="35.01796795079983" lon="-5.119550776713578"><ele>446.75</ele><time>2026-04-28T11:04:42Z</time></trkpt><trkpt lat="35.01793531004324" lon="-5.119404773906582"><ele>446.5</ele><time>2026-04-28T11:04:43Z</time></trkpt><trkpt lat="35.01792154919878" lon="-5.1192354511597475"><ele>446.25</ele><time>2026-04-28T11:04:44Z</time></trkpt><trkpt lat="35.01792060123215" lon="-5.1190726782243665"><ele>446.0</ele><time>2026-04-28T11:04:45Z</time></trkpt><trkpt lat="35.017916375373076" lon="-5.118926222882426"><ele>446.0</ele><time>2026-04-28T11:04:46Z</time></trkpt><trkpt lat="35.01789833852542" lon="-5.118794853901625"><ele>446.0</ele><time>2026-04-28T11:04:47Z</time></trkpt><trkpt lat="35.017855200789626" lon="-5.1186763613039306"><ele>446.0</ele><time>2026-04-28T11:04:48Z</time></trkpt><trkpt lat="35.017782103726375" lon="-5.118572411146115"><ele>446.0</ele><time>2026-04-28T11:04:49Z</time></trkpt><trkpt lat="35.01767781269425" lon="-5.118491489137301"><ele>446.0</ele><time>2026-04-28T11:04:50Z</time></trkpt><trkpt lat="35.01755826606108" lon="-5.118427432086117"><ele>446.0</ele><time>2026-04-28T11:04:51Z</time></trkpt><trkpt lat="35.01743723374306" lon="-5.118347345911363"><ele>446.0</ele><time>2026-04-28T11:04:52Z</time></trkpt><trkpt lat="35.01731292762997" lon="-5.118253280597982"><ele>446.0</ele><time>2026-04-28T11:04:53Z</time></trkpt><trkpt lat="35.01718535378961" lon="-5.118156511894358"><ele>444.5</ele><time>2026-04-28T11:04:54Z</time></trkpt><trkpt lat="35.01705464714287" lon="-5.118071672401226"><ele>443.0</ele><time>2026-04-28T11:04:55Z</time></trkpt><trkpt lat="35.016926973244296" lon="-5.117981259192903"><ele>441.5</ele><time>2026-04-28T11:04:56Z</time></trkpt><trkpt lat="35.016794612868644" lon="-5.11789017738422"><ele>440.0</ele><time>2026-04-28T11:04:57Z</time></trkpt><trkpt lat="35.016665008145424" lon="-5.117801881649817"><ele>440.0</ele><time>2026-04-28T11:04:58Z</time></trkpt><trkpt lat="35.01652941812494" lon="-5.117709892284039"><ele>440.0</ele><time>2026-04-28T11:04:59Z</time></trkpt><trkpt lat="35.01639096704473" lon="-5.117617972038797"><ele>440.0</ele><time>2026-04-28T11:05:00Z</time></trkpt><trkpt lat="35.0162469050726" lon="-5.117535236556711"><ele>440.0</ele><time>2026-04-28T11:05:00.999Z</time></trkpt><trkpt lat="35.016097705100755" lon="-5.1174678326458665"><ele>440.0</ele><time>2026-04-28T11:05:01.999Z</time></trkpt><trkpt lat="35.01595300325229" lon="-5.117399771528611"><ele>440.0</ele><time>2026-04-28T11:05:02.999Z</time></trkpt><trkpt lat="35.0158111939581" lon="-5.117332530237018"><ele>439.25</ele><time>2026-04-28T11:05:03.999Z</time></trkpt><trkpt lat="35.01567942986046" lon="-5.1172672853128365"><ele>438.5</ele><time>2026-04-28T11:05:04.999Z</time></trkpt><trkpt lat="35.01555522406893" lon="-5.117206921484455"><ele>437.75</ele><time>2026-04-28T11:05:05.999Z</time></trkpt><trkpt lat="35.015430469196886" lon="-5.1171519531945755"><ele>437.0</ele><time>2026-04-28T11:05:06.999Z</time></trkpt><trkpt lat="35.015302220665944" lon="-5.117104975785232"><ele>437.0</ele><time>2026-04-28T11:05:07.999Z</time></trkpt><trkpt lat="35.01517095628672" lon="-5.1170660608461365"><ele>437.0</ele><time>2026-04-28T11:05:08.999Z</time></trkpt><trkpt lat="35.01503262510362" lon="-5.117043959113778"><ele>437.0</ele><time>2026-04-28T11:05:09.999Z</time></trkpt><trkpt lat="35.01489225317905" lon="-5.117043505389307"><ele>437.0</ele><time>2026-04-28T11:05:10.999Z</time></trkpt><trkpt lat="35.01474971213621" lon="-5.117044313923651"><ele>437.0</ele><time>2026-04-28T11:05:11.999Z</time></trkpt><trkpt lat="35.014605676550175" lon="-5.117038526297912"><ele>437.0</ele><time>2026-04-28T11:05:12.999Z</time></trkpt><trkpt lat="35.014459973745204" lon="-5.11703594822687"><ele>437.0</ele><time>2026-04-28T11:05:13.999Z</time></trkpt><trkpt lat="35.01431296614895" lon="-5.117035208087074"><ele>437.0</ele><time>2026-04-28T11:05:14.999Z</time></trkpt><trkpt lat="35.01416326985703" lon="-5.117032824081081"><ele>435.66666666666663</ele><time>2026-04-28T11:05:15.999Z</time></trkpt><trkpt lat="35.01401086960714" lon="-5.117027938949595"><ele>434.33333333333337</ele><time>2026-04-28T11:05:16.999Z</time></trkpt><trkpt lat="35.013857592463886" lon="-5.117017786275868"><ele>433.0</ele><time>2026-04-28T11:05:17.999Z</time></trkpt><trkpt lat="35.013704364518134" lon="-5.117008157396301"><ele>433.0</ele><time>2026-04-28T11:05:18.999Z</time></trkpt><trkpt lat="35.01355037781835" lon="-5.117001810077176"><ele>433.0</ele><time>2026-04-28T11:05:19.999Z</time></trkpt><trkpt lat="35.013401493666514" lon="-5.116994520390799"><ele>433.0</ele><time>2026-04-28T11:05:20.999Z</time></trkpt><trkpt lat="35.01325837146446" lon="-5.116984628616999"><ele>433.0</ele><time>2026-04-28T11:05:21.999Z</time></trkpt><trkpt lat="35.01311733870587" lon="-5.11696771571126"><ele>433.0</ele><time>2026-04-28T11:05:22.999Z</time></trkpt><trkpt lat="35.012979100527254" lon="-5.116948520115058"><ele>433.0</ele><time>2026-04-28T11:05:23.999Z</time></trkpt><trkpt lat="35.01284021773586" lon="-5.116947166978302"><ele>433.0</ele><time>2026-04-28T11:05:24.999Z</time></trkpt><trkpt lat="35.012697334133584" lon="-5.116960891206896"><ele>433.0</ele><time>2026-04-28T11:05:25.999Z</time></trkpt><trkpt lat="35.01255618687449" lon="-5.116978075172853"><ele>433.25</ele><time>2026-04-28T11:05:26.999Z</time></trkpt><trkpt lat="35.01242165703398" lon="-5.116993567852235"><ele>433.5</ele><time>2026-04-28T11:05:27.999Z</time></trkpt><trkpt lat="35.012291498341156" lon="-5.117005967632423"><ele>433.75</ele><time>2026-04-28T11:05:28.999Z</time></trkpt><trkpt lat="35.012165295131254" lon="-5.117012919116808"><ele>434.0</ele><time>2026-04-28T11:05:29.999Z</time></trkpt><trkpt lat="35.01204596752368" lon="-5.11701058195253"><ele>434.0</ele><time>2026-04-28T11:05:30.999Z</time></trkpt><trkpt lat="35.01192974901958" lon="-5.11698730266125"><ele>434.0</ele><time>2026-04-28T11:05:31.999Z</time></trkpt><trkpt lat="35.01181705319471" lon="-5.116939765744937"><ele>434.0</ele><time>2026-04-28T11:05:32.999Z</time></trkpt><trkpt lat="35.01169427714144" lon="-5.116885440434984"><ele>434.0</ele><time>2026-04-28T11:05:33.999Z</time></trkpt><trkpt lat="35.0115546653226" lon="-5.116826846892232"><ele>435.75</ele><time>2026-04-28T11:05:34.999Z</time></trkpt><trkpt lat="35.01142000146107" lon="-5.1167761094144915"><ele>437.5</ele><time>2026-04-28T11:05:35.999Z</time></trkpt><trkpt lat="35.01128834812291" lon="-5.1167201487307485"><ele>439.25</ele><time>2026-04-28T11:05:36.999Z</time></trkpt><trkpt lat="35.01116199151216" lon="-5.116655230248062"><ele>441.0</ele><time>2026-04-28T11:05:37.999Z</time></trkpt><trkpt lat="35.01104615832101" lon="-5.116585215045502"><ele>439.75</ele><time>2026-04-28T11:05:38.999Z</time></trkpt><trkpt lat="35.01094198513731" lon="-5.116506480921192"><ele>438.5</ele><time>2026-04-28T11:05:39.999Z</time></trkpt><trkpt lat="35.01084494708921" lon="-5.116402770597514"><ele>437.25</ele><time>2026-04-28T11:05:40.999Z</time></trkpt><trkpt lat="35.01076359849775" lon="-5.1162791669908705"><ele>436.0</ele><time>2026-04-28T11:05:41.999Z</time></trkpt><trkpt lat="35.01068540632491" lon="-5.116126630265779"><ele>436.75</ele><time>2026-04-28T11:05:42.999Z</time></trkpt><trkpt lat="35.01060863319093" lon="-5.11597626940897"><ele>437.5</ele><time>2026-04-28T11:05:43.999Z</time></trkpt><trkpt lat="35.01053251160346" lon="-5.115851957944366"><ele>438.25</ele><time>2026-04-28T11:05:44.999Z</time></trkpt><trkpt lat="35.01044704022531" lon="-5.115752469467041"><ele>439.0</ele><time>2026-04-28T11:05:45.999Z</time></trkpt><trkpt lat="35.01035361862503" lon="-5.115673483544895"><ele>439.0</ele><time>2026-04-28T11:05:46.999Z</time></trkpt><trkpt lat="35.01023540700247" lon="-5.115599511168029"><ele>439.0</ele><time>2026-04-28T11:05:47.999Z</time></trkpt><trkpt lat="35.01009485653806" lon="-5.115521562598757"><ele>439.0</ele><time>2026-04-28T11:05:48.999Z</time></trkpt><trkpt lat="35.009940987702805" lon="-5.115439370951282"><ele>440.0</ele><time>2026-04-28T11:05:49.999Z</time></trkpt><trkpt lat="35.009785024874745" lon="-5.115357823923859"><ele>441.0</ele><time>2026-04-28T11:05:50.999Z</time></trkpt><trkpt lat="35.009641417713524" lon="-5.115288797479878"><ele>442.0</ele><time>2026-04-28T11:05:51.999Z</time></trkpt><trkpt lat="35.009506867889" lon="-5.115228434839163"><ele>442.0</ele><time>2026-04-28T11:05:52.999Z</time></trkpt><trkpt lat="35.00938073977724" lon="-5.115171822769521"><ele>442.0</ele><time>2026-04-28T11:05:54Z</time></trkpt><trkpt lat="35.009253246090196" lon="-5.115116040966858"><ele>442.0</ele><time>2026-04-28T11:05:55Z</time></trkpt><trkpt lat="35.009125676996106" lon="-5.115073558417074"><ele>442.0</ele><time>2026-04-28T11:05:56Z</time></trkpt><trkpt lat="35.00900541236331" lon="-5.1150267310410005"><ele>442.0</ele><time>2026-04-28T11:05:57Z</time></trkpt><trkpt lat="35.00888709839509" lon="-5.114975826275823"><ele>442.0</ele><time>2026-04-28T11:05:58Z</time></trkpt><trkpt lat="35.008766162013956" lon="-5.114931943822494"><ele>442.0</ele><time>2026-04-28T11:05:59Z</time></trkpt><trkpt lat="35.00865880935703" lon="-5.114896062436619"><ele>442.0</ele><time>2026-04-28T11:06:00Z</time></trkpt><trkpt lat="35.00856263333996" lon="-5.114861087401292"><ele>441.0</ele><time>2026-04-28T11:06:01Z</time></trkpt><trkpt lat="35.00846727931972" lon="-5.114821476506435"><ele>440.00000000000006</ele><time>2026-04-28T11:06:02Z</time></trkpt><trkpt lat="35.008369165435845" lon="-5.1147697323102355"><ele>439.00000000000006</ele><time>2026-04-28T11:06:03Z</time></trkpt><trkpt lat="35.008255951300185" lon="-5.114716137975081"><ele>438.0</ele><time>2026-04-28T11:06:04Z</time></trkpt><trkpt lat="35.00814221150142" lon="-5.114667645015706"><ele>437.0</ele><time>2026-04-28T11:06:05Z</time></trkpt><trkpt lat="35.00803355827633" lon="-5.114616224968958"><ele>436.6</ele><time>2026-04-28T11:06:06Z</time></trkpt><trkpt lat="35.00793675901073" lon="-5.1145580703517135"><ele>436.20000000000005</ele><time>2026-04-28T11:06:07Z</time></trkpt><trkpt lat="35.00784416488963" lon="-5.114501437281253"><ele>435.8</ele><time>2026-04-28T11:06:08Z</time></trkpt><trkpt lat="35.007748327100444" lon="-5.1144474530684505"><ele>435.4</ele><time>2026-04-28T11:06:09Z</time></trkpt><trkpt lat="35.00765120001423" lon="-5.114379919866058"><ele>435.0</ele><time>2026-04-28T11:06:10Z</time></trkpt><trkpt lat="35.007558553547405" lon="-5.1142924144649875"><ele>435.4</ele><time>2026-04-28T11:06:11Z</time></trkpt><trkpt lat="35.00747791333325" lon="-5.114199909619056"><ele>435.8</ele><time>2026-04-28T11:06:12Z</time></trkpt><trkpt lat="35.00740642953588" lon="-5.1141103088409"><ele>436.20000000000005</ele><time>2026-04-28T11:06:13Z</time></trkpt><trkpt lat="35.0073413118705" lon="-5.114028872736062"><ele>436.6</ele><time>2026-04-28T11:06:14Z</time></trkpt><trkpt lat="35.00727894239802" lon="-5.113958887822421"><ele>437.0</ele><time>2026-04-28T11:06:15Z</time></trkpt><trkpt lat="35.00722255565563" lon="-5.113895521538824"><ele>436.99999999999994</ele><time>2026-04-28T11:06:16Z</time></trkpt><trkpt lat="35.00717521507026" lon="-5.113833938071395"><ele>437.0</ele><time>2026-04-28T11:06:17Z</time></trkpt><trkpt lat="35.00713490129198" lon="-5.1137720432804725"><ele>437.0</ele><time>2026-04-28T11:06:18Z</time></trkpt><trkpt lat="35.007087041409385" lon="-5.113702158227175"><ele>437.0</ele><time>2026-04-28T11:06:19Z</time></trkpt><trkpt lat="35.007041463108024" lon="-5.113628720578858"><ele>436.99999999999994</ele><time>2026-04-28T11:06:20Z</time></trkpt><trkpt lat="35.00699277813286" lon="-5.113543541380596"><ele>437.0</ele><time>2026-04-28T11:06:21Z</time></trkpt><trkpt lat="35.00692754104598" lon="-5.113443698005143"><ele>437.0</ele><time>2026-04-28T11:06:22Z</time></trkpt><trkpt lat="35.006841711054435" lon="-5.113347728157477"><ele>437.0</ele><time>2026-04-28T11:06:23Z</time></trkpt><trkpt lat="35.006764351327114" lon="-5.1132462081810806"><ele>437.0</ele><time>2026-04-28T11:06:24Z</time></trkpt><trkpt lat="35.00668672550589" lon="-5.113137217338377"><ele>437.0</ele><time>2026-04-28T11:06:25Z</time></trkpt><trkpt lat="35.006593500863964" lon="-5.1130268999444555"><ele>437.5</ele><time>2026-04-28T11:06:26Z</time></trkpt><trkpt lat="35.00650078002253" lon="-5.112905090679624"><ele>438.0</ele><time>2026-04-28T11:06:27Z</time></trkpt><trkpt lat="35.006412978996025" lon="-5.11277092903663"><ele>438.5</ele><time>2026-04-28T11:06:28Z</time></trkpt><trkpt lat="35.00633639583332" lon="-5.112633542069918"><ele>439.0</ele><time>2026-04-28T11:06:29Z</time></trkpt><trkpt lat="35.006271216751536" lon="-5.112481353546091"><ele>438.5</ele><time>2026-04-28T11:06:30Z</time></trkpt><trkpt lat="35.006224867844466" lon="-5.112314931078208"><ele>438.0</ele><time>2026-04-28T11:06:31Z</time></trkpt><trkpt lat="35.00619568675705" lon="-5.112142664325576"><ele>437.5</ele><time>2026-04-28T11:06:32Z</time></trkpt><trkpt lat="35.006175577682946" lon="-5.111967715912953"><ele>437.0</ele><time>2026-04-28T11:06:33Z</time></trkpt><trkpt lat="35.00614959317978" lon="-5.111786508510991"><ele>437.0</ele><time>2026-04-28T11:06:34Z</time></trkpt><trkpt lat="35.00611271882702" lon="-5.111607542195468"><ele>437.0</ele><time>2026-04-28T11:06:35Z</time></trkpt><trkpt lat="35.00606725014261" lon="-5.111431639572084"><ele>437.0</ele><time>2026-04-28T11:06:36Z</time></trkpt><trkpt lat="35.00601179914527" lon="-5.111272502225477"><ele>437.0</ele><time>2026-04-28T11:06:37Z</time></trkpt><trkpt lat="35.00594941211447" lon="-5.11111794076595"><ele>436.0</ele><time>2026-04-28T11:06:38Z</time></trkpt><trkpt lat="35.00589220139713" lon="-5.110965574170953"><ele>435.0</ele><time>2026-04-28T11:06:39Z</time></trkpt><trkpt lat="35.00585044136949" lon="-5.110808312576272"><ele>434.0</ele><time>2026-04-28T11:06:40Z</time></trkpt><trkpt lat="35.00582413307032" lon="-5.110656799896193"><ele>433.0</ele><time>2026-04-28T11:06:41Z</time></trkpt><trkpt lat="35.005813413689026" lon="-5.110512203114175"><ele>436.5</ele><time>2026-04-28T11:06:42Z</time></trkpt><trkpt lat="35.00580908063362" lon="-5.110369695418442"><ele>440.0</ele><time>2026-04-28T11:06:43Z</time></trkpt><trkpt lat="35.00580658863153" lon="-5.11022094501655"><ele>443.5</ele><time>2026-04-28T11:06:44Z</time></trkpt><trkpt lat="35.005804915146825" lon="-5.1100677112919435"><ele>447.0</ele><time>2026-04-28T11:06:45Z</time></trkpt><trkpt lat="35.00580026347546" lon="-5.109908240400074"><ele>447.25</ele><time>2026-04-28T11:06:46Z</time></trkpt><trkpt lat="35.0058017503567" lon="-5.109754963869219"><ele>447.5</ele><time>2026-04-28T11:06:47Z</time></trkpt><trkpt lat="35.00580986088414" lon="-5.10960907850586"><ele>447.75</ele><time>2026-04-28T11:06:48Z</time></trkpt><trkpt lat="35.005824723461686" lon="-5.109474325344231"><ele>448.0</ele><time>2026-04-28T11:06:49Z</time></trkpt><trkpt lat="35.00584806231576" lon="-5.109343174842399"><ele>443.25</ele><time>2026-04-28T11:06:50Z</time></trkpt><trkpt lat="35.005877094377155" lon="-5.109210476526042"><ele>438.5</ele><time>2026-04-28T11:06:51Z</time></trkpt><trkpt lat="35.00590565636753" lon="-5.1090725306767615"><ele>433.75</ele><time>2026-04-28T11:06:52Z</time></trkpt><trkpt lat="35.005929180274286" lon="-5.108931308877343"><ele>429.0</ele><time>2026-04-28T11:06:53Z</time></trkpt><trkpt lat="35.00595101151728" lon="-5.108796045885134"><ele>429.0</ele><time>2026-04-28T11:06:54Z</time></trkpt><trkpt lat="35.00596579902512" lon="-5.108691395408097"><ele>429.0</ele><time>2026-04-28T11:06:55Z</time></trkpt><trkpt lat="35.00598269906557" lon="-5.10854775009727"><ele>429.0</ele><time>2026-04-28T11:06:57Z</time></trkpt><trkpt lat="35.005993532176866" lon="-5.10841249706167"><ele>429.0</ele><time>2026-04-28T11:06:59Z</time></trkpt><trkpt lat="35.00600383910691" lon="-5.108277428719405"><ele>429.0</ele><time>2026-04-28T11:07:01Z</time></trkpt><trkpt lat="35.00601400200787" lon="-5.108200205860226"><ele>428.4</ele><time>2026-04-28T11:07:01.999Z</time></trkpt><trkpt lat="35.0060273545991" lon="-5.108101674944006"><ele>427.79999999999995</ele><time>2026-04-28T11:07:02.999Z</time></trkpt><trkpt lat="35.006033028270075" lon="-5.107990830989377"><ele>427.20000000000005</ele><time>2026-04-28T11:07:03.999Z</time></trkpt><trkpt lat="35.006027416837576" lon="-5.107879931345588"><ele>426.6</ele><time>2026-04-28T11:07:04.999Z</time></trkpt><trkpt lat="35.00600463337648" lon="-5.107772988854075"><ele>426.0</ele><time>2026-04-28T11:07:05.999Z</time></trkpt><trkpt lat="35.00595953438749" lon="-5.107667625931074"><ele>426.0</ele><time>2026-04-28T11:07:06.999Z</time></trkpt><trkpt lat="35.00589056976717" lon="-5.107566354156145"><ele>426.0</ele><time>2026-04-28T11:07:07.999Z</time></trkpt><trkpt lat="35.00580532601322" lon="-5.107477788786748"><ele>426.0</ele><time>2026-04-28T11:07:08.999Z</time></trkpt><trkpt lat="35.00570998204399" lon="-5.107393647430053"><ele>426.0</ele><time>2026-04-28T11:07:09.999Z</time></trkpt><trkpt lat="35.00561276051441" lon="-5.1073139799306"><ele>425.25</ele><time>2026-04-28T11:07:10.999Z</time></trkpt><trkpt lat="35.005488916061665" lon="-5.10721225785579"><ele>424.5</ele><time>2026-04-28T11:07:11.999Z</time></trkpt><trkpt lat="35.00537489562355" lon="-5.107112313985708"><ele>423.75</ele><time>2026-04-28T11:07:12.999Z</time></trkpt><trkpt lat="35.00524415611181" lon="-5.1070078433268655"><ele>423.0</ele><time>2026-04-28T11:07:13.999Z</time></trkpt><trkpt lat="35.00511437402869" lon="-5.106914453308577"><ele>425.25</ele><time>2026-04-28T11:07:14.999Z</time></trkpt><trkpt lat="35.00497542359521" lon="-5.106844103037218"><ele>427.5</ele><time>2026-04-28T11:07:15.999Z</time></trkpt><trkpt lat="35.004835542219126" lon="-5.106790414229928"><ele>429.75</ele><time>2026-04-28T11:07:16.999Z</time></trkpt><trkpt lat="35.004707649774815" lon="-5.106741828241377"><ele>432.0</ele><time>2026-04-28T11:07:17.999Z</time></trkpt><trkpt lat="35.00459232121324" lon="-5.106690457876607"><ele>432.0</ele><time>2026-04-28T11:07:18.999Z</time></trkpt><trkpt lat="35.004485254933726" lon="-5.106646299809514"><ele>432.00000000000006</ele><time>2026-04-28T11:07:19.999Z</time></trkpt><trkpt lat="35.004386660720016" lon="-5.106605827912126"><ele>432.00000000000006</ele><time>2026-04-28T11:07:20.999Z</time></trkpt><trkpt lat="35.00429240067976" lon="-5.106572930407359"><ele>432.0</ele><time>2026-04-28T11:07:21.999Z</time></trkpt><trkpt lat="35.00419442263664" lon="-5.106535602584333"><ele>432.0</ele><time>2026-04-28T11:07:22.999Z</time></trkpt><trkpt lat="35.004095460672055" lon="-5.106493699006908"><ele>432.1666666666667</ele><time>2026-04-28T11:07:23.999Z</time></trkpt><trkpt lat="35.00400699010039" lon="-5.106449304443043"><ele>432.33333333333337</ele><time>2026-04-28T11:07:24.999Z</time></trkpt><trkpt lat="35.003928619102105" lon="-5.106397727478458"><ele>432.5</ele><time>2026-04-28T11:07:25.999Z</time></trkpt><trkpt lat="35.00385800272946" lon="-5.1063462398000015"><ele>432.6666666666667</ele><time>2026-04-28T11:07:26.999Z</time></trkpt><trkpt lat="35.003791841211985" lon="-5.1062965446119915"><ele>432.83333333333337</ele><time>2026-04-28T11:07:27.999Z</time></trkpt><trkpt lat="35.00372894425879" lon="-5.106252934027478"><ele>433.0</ele><time>2026-04-28T11:07:28.999Z</time></trkpt><trkpt lat="35.00366700505904" lon="-5.10621665455268"><ele>433.00000000000006</ele><time>2026-04-28T11:07:29.999Z</time></trkpt><trkpt lat="35.00360420725976" lon="-5.106178622008394"><ele>433.0</ele><time>2026-04-28T11:07:30.999Z</time></trkpt><trkpt lat="35.00353485386889" lon="-5.106132003206726"><ele>433.0</ele><time>2026-04-28T11:07:31.999Z</time></trkpt><trkpt lat="35.00347285061499" lon="-5.106070598961915"><ele>433.0</ele><time>2026-04-28T11:07:32.999Z</time></trkpt><trkpt lat="35.00341780732197" lon="-5.105989612537881"><ele>433.00000000000006</ele><time>2026-04-28T11:07:33.999Z</time></trkpt><trkpt lat="35.00337257428647" lon="-5.105873496173683"><ele>433.0</ele><time>2026-04-28T11:07:34.999Z</time></trkpt><trkpt lat="35.003325304704035" lon="-5.105714068479878"><ele>435.5</ele><time>2026-04-28T11:07:35.999Z</time></trkpt><trkpt lat="35.0032700699917" lon="-5.105544618714179"><ele>438.0</ele><time>2026-04-28T11:07:36.999Z</time></trkpt><trkpt lat="35.00321022366822" lon="-5.105386106657927"><ele>440.5</ele><time>2026-04-28T11:07:37.999Z</time></trkpt><trkpt lat="35.00314468704703" lon="-5.1052368074198595"><ele>443.0</ele><time>2026-04-28T11:07:38.999Z</time></trkpt><trkpt lat="35.003058444834494" lon="-5.1050923432045865"><ele>443.0</ele><time>2026-04-28T11:07:39.999Z</time></trkpt><trkpt lat="35.00295277948154" lon="-5.104952634573475"><ele>443.0</ele><time>2026-04-28T11:07:40.999Z</time></trkpt><trkpt lat="35.002839268497745" lon="-5.104819553409231"><ele>443.0</ele><time>2026-04-28T11:07:41.999Z</time></trkpt><trkpt lat="35.00272638734224" lon="-5.104688023902764"><ele>442.5</ele><time>2026-04-28T11:07:42.999Z</time></trkpt><trkpt lat="35.00262098972723" lon="-5.104562105050094"><ele>442.0</ele><time>2026-04-28T11:07:43.999Z</time></trkpt><trkpt lat="35.00252807739264" lon="-5.104445622527903"><ele>441.5</ele><time>2026-04-28T11:07:44.999Z</time></trkpt><trkpt lat="35.002437933844185" lon="-5.104331450199838"><ele>441.0</ele><time>2026-04-28T11:07:45.999Z</time></trkpt><trkpt lat="35.002348537617756" lon="-5.104225958104201"><ele>441.0</ele><time>2026-04-28T11:07:46.999Z</time></trkpt><trkpt lat="35.002256739229054" lon="-5.104138624837681"><ele>441.0</ele><time>2026-04-28T11:07:47.999Z</time></trkpt><trkpt lat="35.00215656429365" lon="-5.104085274226882"><ele>441.0</ele><time>2026-04-28T11:07:48.999Z</time></trkpt><trkpt lat="35.00205850868423" lon="-5.104060765049931"><ele>441.0</ele><time>2026-04-28T11:07:49.999Z</time></trkpt><trkpt lat="35.00194583693116" lon="-5.104049451278431"><ele>441.0</ele><time>2026-04-28T11:07:50.999Z</time></trkpt><trkpt lat="35.001836634672614" lon="-5.104032945423644"><ele>441.6</ele><time>2026-04-28T11:07:51.999Z</time></trkpt><trkpt lat="35.001736903680495" lon="-5.10399568191581"><ele>442.20000000000005</ele><time>2026-04-28T11:07:52.999Z</time></trkpt><trkpt lat="35.001652521118636" lon="-5.103931358230274"><ele>442.79999999999995</ele><time>2026-04-28T11:07:53.999Z</time></trkpt><trkpt lat="35.001570125601724" lon="-5.103833993587117"><ele>443.4</ele><time>2026-04-28T11:07:54.999Z</time></trkpt><trkpt lat="35.001500512335326" lon="-5.103716622177325"><ele>444.0</ele><time>2026-04-28T11:07:55.999Z</time></trkpt><trkpt lat="35.00145201006315" lon="-5.103583719479828"><ele>444.0</ele><time>2026-04-28T11:07:56.999Z</time></trkpt><trkpt lat="35.001420209311334" lon="-5.10343887587446"><ele>444.0</ele><time>2026-04-28T11:07:57.999Z</time></trkpt><trkpt lat="35.001392654657415" lon="-5.103290773986914"><ele>444.0</ele><time>2026-04-28T11:07:58.999Z</time></trkpt><trkpt lat="35.00134780736851" lon="-5.103147986087385"><ele>444.0</ele><time>2026-04-28T11:08:00Z</time></trkpt><trkpt lat="35.00128222124649" lon="-5.103004734253719"><ele>440.75</ele><time>2026-04-28T11:08:01Z</time></trkpt><trkpt lat="35.00120804174383" lon="-5.102863439474289"><ele>437.5</ele><time>2026-04-28T11:08:02Z</time></trkpt><trkpt lat="35.00112219525413" lon="-5.102719356538759"><ele>434.25</ele><time>2026-04-28T11:08:03Z</time></trkpt><trkpt lat="35.001031273345255" lon="-5.10257908527401"><ele>431.0</ele><time>2026-04-28T11:08:04Z</time></trkpt><trkpt lat="35.00093602361734" lon="-5.102444541145671"><ele>429.5</ele><time>2026-04-28T11:08:05Z</time></trkpt><trkpt lat="35.00084746441545" lon="-5.1023149074016425"><ele>428.0</ele><time>2026-04-28T11:08:06Z</time></trkpt><trkpt lat="35.00076915572113" lon="-5.102185709941616"><ele>426.5</ele><time>2026-04-28T11:08:07Z</time></trkpt><trkpt lat="35.000689056598254" lon="-5.102049941847421"><ele>425.0</ele><time>2026-04-28T11:08:08Z</time></trkpt><trkpt lat="35.000610035791084" lon="-5.10191183582815"><ele>424.75</ele><time>2026-04-28T11:08:09Z</time></trkpt><trkpt lat="35.0005384076651" lon="-5.101773756082263"><ele>424.5</ele><time>2026-04-28T11:08:10Z</time></trkpt><trkpt lat="35.00047321480762" lon="-5.101634888112283"><ele>424.25</ele><time>2026-04-28T11:08:11Z</time></trkpt><trkpt lat="35.00041117014201" lon="-5.101491314904658"><ele>424.0</ele><time>2026-04-28T11:08:12Z</time></trkpt><trkpt lat="35.00035516939048" lon="-5.101341702923208"><ele>423.0</ele><time>2026-04-28T11:08:13Z</time></trkpt><trkpt lat="35.00030663426767" lon="-5.101188646963795"><ele>422.0</ele><time>2026-04-28T11:08:14Z</time></trkpt><trkpt lat="35.00026287743909" lon="-5.101028038779228"><ele>421.0</ele><time>2026-04-28T11:08:15Z</time></trkpt><trkpt lat="35.00021870377371" lon="-5.100864375339284"><ele>420.0</ele><time>2026-04-28T11:08:16Z</time></trkpt><trkpt lat="35.00016940106006" lon="-5.100696103499112"><ele>419.5</ele><time>2026-04-28T11:08:17Z</time></trkpt><trkpt lat="35.00010992705792" lon="-5.100536483426412"><ele>419.0</ele><time>2026-04-28T11:08:18Z</time></trkpt><trkpt lat="35.000045768933305" lon="-5.100382655612588"><ele>418.5</ele><time>2026-04-28T11:08:19Z</time></trkpt><trkpt lat="34.99998500968947" lon="-5.100237660274168"><ele>418.0</ele><time>2026-04-28T11:08:20Z</time></trkpt><trkpt lat="34.9999213194053" lon="-5.100101284822861"><ele>418.0</ele><time>2026-04-28T11:08:21Z</time></trkpt><trkpt lat="34.99983963969451" lon="-5.099984902898474"><ele>418.0</ele><time>2026-04-28T11:08:22Z</time></trkpt><trkpt lat="34.99977986928252" lon="-5.099858063131321"><ele>418.0</ele><time>2026-04-28T11:08:23Z</time></trkpt><trkpt lat="34.99969102531294" lon="-5.099779965652247"><ele>418.0</ele><time>2026-04-28T11:08:24Z</time></trkpt><trkpt lat="34.99961529858712" lon="-5.0997048446565385"><ele>417.5</ele><time>2026-04-28T11:08:25Z</time></trkpt><trkpt lat="34.99952869998639" lon="-5.099651920874342"><ele>417.0</ele><time>2026-04-28T11:08:26Z</time></trkpt><trkpt lat="34.9994293703923" lon="-5.099589836347189"><ele>416.5</ele><time>2026-04-28T11:08:27Z</time></trkpt><trkpt lat="34.99931178868088" lon="-5.099635064761921"><ele>416.0</ele><time>2026-04-28T11:08:28Z</time></trkpt><trkpt lat="34.99918356480739" lon="-5.099644608033195"><ele>414.25</ele><time>2026-04-28T11:08:29Z</time></trkpt><trkpt lat="34.99905943238277" lon="-5.099661057844744"><ele>412.5</ele><time>2026-04-28T11:08:30Z</time></trkpt><trkpt lat="34.99894146891867" lon="-5.099655852588908"><ele>410.75</ele><time>2026-04-28T11:08:31Z</time></trkpt><trkpt lat="34.99883708269986" lon="-5.099659988211329"><ele>409.0</ele><time>2026-04-28T11:08:32Z</time></trkpt><trkpt lat="34.99872719876891" lon="-5.09963341725875"><ele>409.0</ele><time>2026-04-28T11:08:33Z</time></trkpt><trkpt lat="34.998625241423376" lon="-5.0995675250902135"><ele>409.0</ele><time>2026-04-28T11:08:34Z</time></trkpt><trkpt lat="34.99852611171078" lon="-5.099470724452579"><ele>409.0</ele><time>2026-04-28T11:08:35Z</time></trkpt><trkpt lat="34.998434433342865" lon="-5.0993590312246075"><ele>409.0</ele><time>2026-04-28T11:08:36Z</time></trkpt><trkpt lat="34.99833685124812" lon="-5.0992430648645"><ele>409.0</ele><time>2026-04-28T11:08:37Z</time></trkpt><trkpt lat="34.99823975060522" lon="-5.099128892430307"><ele>409.0</ele><time>2026-04-28T11:08:38Z</time></trkpt><trkpt lat="34.99814201726492" lon="-5.099004712321426"><ele>409.0</ele><time>2026-04-28T11:08:39Z</time></trkpt><trkpt lat="34.99803772593496" lon="-5.09886575676447"><ele>409.0</ele><time>2026-04-28T11:08:40Z</time></trkpt><trkpt lat="34.99793130108691" lon="-5.0987178400928"><ele>409.0</ele><time>2026-04-28T11:08:41Z</time></trkpt><trkpt lat="34.997820928502016" lon="-5.098569159210122"><ele>409.0</ele><time>2026-04-28T11:08:42Z</time></trkpt><trkpt lat="34.99771589554614" lon="-5.098424013203595"><ele>409.0</ele><time>2026-04-28T11:08:43Z</time></trkpt><trkpt lat="34.99760573763673" lon="-5.0982784470184095"><ele>410.0</ele><time>2026-04-28T11:08:44Z</time></trkpt><trkpt lat="34.997494110079096" lon="-5.0981281057797725"><ele>411.0</ele><time>2026-04-28T11:08:45Z</time></trkpt><trkpt lat="34.997387543622146" lon="-5.097975642198641"><ele>412.0</ele><time>2026-04-28T11:08:46Z</time></trkpt><trkpt lat="34.99728191210074" lon="-5.09782660706904"><ele>412.0</ele><time>2026-04-28T11:08:47Z</time></trkpt><trkpt lat="34.997175602176334" lon="-5.097682859559572"><ele>412.0</ele><time>2026-04-28T11:08:48Z</time></trkpt><trkpt lat="34.997067494725584" lon="-5.097539721848846"><ele>412.0</ele><time>2026-04-28T11:08:49Z</time></trkpt><trkpt lat="34.9969605621171" lon="-5.09739892610689"><ele>411.6666666666667</ele><time>2026-04-28T11:08:50Z</time></trkpt><trkpt lat="34.9968563203343" lon="-5.097249931547181"><ele>411.33333333333337</ele><time>2026-04-28T11:08:51Z</time></trkpt><trkpt lat="34.996743684852916" lon="-5.0971159686783984"><ele>411.0</ele><time>2026-04-28T11:08:52Z</time></trkpt><trkpt lat="34.99664398557442" lon="-5.096981737785571"><ele>411.0</ele><time>2026-04-28T11:08:53Z</time></trkpt><trkpt lat="34.99654800989641" lon="-5.096846804991955"><ele>411.0</ele><time>2026-04-28T11:08:54Z</time></trkpt><trkpt lat="34.9964599251856" lon="-5.096695245533784"><ele>411.0</ele><time>2026-04-28T11:08:55Z</time></trkpt><trkpt lat="34.99635729712632" lon="-5.096554681429635"><ele>410.75</ele><time>2026-04-28T11:08:56Z</time></trkpt><trkpt lat="34.99625101513714" lon="-5.096411070778387"><ele>410.5</ele><time>2026-04-28T11:08:57Z</time></trkpt><trkpt lat="34.996155745542254" lon="-5.09628608074602"><ele>410.25</ele><time>2026-04-28T11:08:58Z</time></trkpt><trkpt lat="34.99607051601633" lon="-5.096174249883813"><ele>410.0</ele><time>2026-04-28T11:08:59Z</time></trkpt><trkpt lat="34.995990451946945" lon="-5.096064704575802"><ele>410.0</ele><time>2026-04-28T11:09:00Z</time></trkpt><trkpt lat="34.995912253137114" lon="-5.095946637378367"><ele>410.0</ele><time>2026-04-28T11:09:01Z</time></trkpt><trkpt lat="34.99582968553435" lon="-5.095827738397357"><ele>410.0</ele><time>2026-04-28T11:09:02Z</time></trkpt><trkpt lat="34.995756814977454" lon="-5.095687487546325"><ele>410.0</ele><time>2026-04-28T11:09:03Z</time></trkpt><trkpt lat="34.99569613505137" lon="-5.09554052845535"><ele>409.6</ele><time>2026-04-28T11:09:04Z</time></trkpt><trkpt lat="34.99564506880614" lon="-5.095405342131935"><ele>409.2</ele><time>2026-04-28T11:09:05Z</time></trkpt><trkpt lat="34.99559348999439" lon="-5.095286280366423"><ele>408.79999999999995</ele><time>2026-04-28T11:09:06Z</time></trkpt><trkpt lat="34.995542810202764" lon="-5.095178068801487"><ele>408.4</ele><time>2026-04-28T11:09:06.999Z</time></trkpt><trkpt lat="34.995494677045755" lon="-5.09507934141559"><ele>408.0</ele><time>2026-04-28T11:09:07.999Z</time></trkpt><trkpt lat="34.99543527351205" lon="-5.0949829747126385"><ele>406.75</ele><time>2026-04-28T11:09:08.999Z</time></trkpt><trkpt lat="34.99536323435844" lon="-5.0948898287333595"><ele>405.5</ele><time>2026-04-28T11:09:09.999Z</time></trkpt><trkpt lat="34.995278181508844" lon="-5.094800867327385"><ele>404.25</ele><time>2026-04-28T11:09:10.999Z</time></trkpt><trkpt lat="34.99518556653792" lon="-5.0947164964199025"><ele>403.0</ele><time>2026-04-28T11:09:11.999Z</time></trkpt><trkpt lat="34.99508156743148" lon="-5.094634888702234"><ele>403.0</ele><time>2026-04-28T11:09:12.999Z</time></trkpt><trkpt lat="34.99496007122681" lon="-5.094548304262467"><ele>403.0</ele><time>2026-04-28T11:09:13.999Z</time></trkpt><trkpt lat="34.99483029046987" lon="-5.094470900471541"><ele>403.0</ele><time>2026-04-28T11:09:14.999Z</time></trkpt><trkpt lat="34.994682399547756" lon="-5.094433707616217"><ele>403.0</ele><time>2026-04-28T11:09:15.999Z</time></trkpt><trkpt lat="34.99454675745187" lon="-5.0943652170306235"><ele>403.0</ele><time>2026-04-28T11:09:16.999Z</time></trkpt><trkpt lat="34.99441598147172" lon="-5.094331701760799"><ele>403.0</ele><time>2026-04-28T11:09:17.999Z</time></trkpt><trkpt lat="34.99430073635209" lon="-5.094299799626761"><ele>403.0</ele><time>2026-04-28T11:09:18.999Z</time></trkpt><trkpt lat="34.9941865975599" lon="-5.094268407656668"><ele>403.0</ele><time>2026-04-28T11:09:19.999Z</time></trkpt><trkpt lat="34.99406567604894" lon="-5.094262756640615"><ele>403.59999999999997</ele><time>2026-04-28T11:09:20.999Z</time></trkpt><trkpt lat="34.993952312121074" lon="-5.09423915556911"><ele>404.2</ele><time>2026-04-28T11:09:21.999Z</time></trkpt><trkpt lat="34.9938471395646" lon="-5.094205141124718"><ele>404.8</ele><time>2026-04-28T11:09:22.999Z</time></trkpt><trkpt lat="34.99374301856302" lon="-5.094191624972024"><ele>405.4</ele><time>2026-04-28T11:09:23.999Z</time></trkpt><trkpt lat="34.99363281540793" lon="-5.094182927374737"><ele>406.0</ele><time>2026-04-28T11:09:24.999Z</time></trkpt><trkpt lat="34.99352106467057" lon="-5.094182321422577"><ele>406.0</ele><time>2026-04-28T11:09:25.999Z</time></trkpt><trkpt lat="34.99339911424016" lon="-5.094173562314645"><ele>406.0</ele><time>2026-04-28T11:09:26.999Z</time></trkpt><trkpt lat="34.99326915942294" lon="-5.094160225203211"><ele>406.0</ele><time>2026-04-28T11:09:27.999Z</time></trkpt><trkpt lat="34.99313206884995" lon="-5.094147643681231"><ele>406.0</ele><time>2026-04-28T11:09:28.999Z</time></trkpt><trkpt lat="34.99298818742111" lon="-5.094147191711173"><ele>406.75</ele><time>2026-04-28T11:09:29.999Z</time></trkpt><trkpt lat="34.99284414992939" lon="-5.0941441369576665"><ele>407.5</ele><time>2026-04-28T11:09:30.999Z</time></trkpt><trkpt lat="34.99271116122546" lon="-5.094135729540033"><ele>408.25</ele><time>2026-04-28T11:09:31.999Z</time></trkpt><trkpt lat="34.992599688757295" lon="-5.094132638449762"><ele>409.0</ele><time>2026-04-28T11:09:32.999Z</time></trkpt><trkpt lat="34.99252020883032" lon="-5.094124222124664"><ele>409.4</ele><time>2026-04-28T11:09:33.999Z</time></trkpt><trkpt lat="34.99245881105772" lon="-5.09410528182391"><ele>409.79999999999995</ele><time>2026-04-28T11:09:34.999Z</time></trkpt><trkpt lat="34.99238592309486" lon="-5.094062814024788"><ele>410.20000000000005</ele><time>2026-04-28T11:09:35.999Z</time></trkpt><trkpt lat="34.992293242711796" lon="-5.094004897965187"><ele>410.6</ele><time>2026-04-28T11:09:36.999Z</time></trkpt><trkpt lat="34.99219077195537" lon="-5.093932571681702"><ele>411.0</ele><time>2026-04-28T11:09:37.999Z</time></trkpt><trkpt lat="34.992075096734744" lon="-5.093849742581009"><ele>410.5</ele><time>2026-04-28T11:09:38.999Z</time></trkpt><trkpt lat="34.99195766087803" lon="-5.093750684713929"><ele>410.0</ele><time>2026-04-28T11:09:39.999Z</time></trkpt><trkpt lat="34.9918389830611" lon="-5.093653457829744"><ele>409.5</ele><time>2026-04-28T11:09:40.999Z</time></trkpt><trkpt lat="34.99172088679892" lon="-5.09355850640439"><ele>409.0</ele><time>2026-04-28T11:09:41.999Z</time></trkpt><trkpt lat="34.99160347998312" lon="-5.093463572989841"><ele>409.0</ele><time>2026-04-28T11:09:42.999Z</time></trkpt><trkpt lat="34.991493398422186" lon="-5.093375633121395"><ele>409.0</ele><time>2026-04-28T11:09:43.999Z</time></trkpt><trkpt lat="34.99138878079378" lon="-5.093288312343587"><ele>409.0</ele><time>2026-04-28T11:09:44.999Z</time></trkpt><trkpt lat="34.991289421417555" lon="-5.093202296529101"><ele>409.0</ele><time>2026-04-28T11:09:45.999Z</time></trkpt><trkpt lat="34.991202352148875" lon="-5.093117865891323"><ele>407.0</ele><time>2026-04-28T11:09:46.999Z</time></trkpt><trkpt lat="34.991118662305816" lon="-5.093027705076394"><ele>405.0</ele><time>2026-04-28T11:09:47.999Z</time></trkpt><trkpt lat="34.99104299163882" lon="-5.092930689761247"><ele>403.0</ele><time>2026-04-28T11:09:48.999Z</time></trkpt><trkpt lat="34.990983095858766" lon="-5.0928076485913785"><ele>401.0</ele><time>2026-04-28T11:09:49.999Z</time></trkpt><trkpt lat="34.99094799088256" lon="-5.092666157014012"><ele>401.0</ele><time>2026-04-28T11:09:50.999Z</time></trkpt><trkpt lat="34.99092192508035" lon="-5.092508486775127"><ele>401.0</ele><time>2026-04-28T11:09:51.999Z</time></trkpt><trkpt lat="34.99090071412653" lon="-5.092346984235626"><ele>401.0</ele><time>2026-04-28T11:09:52.999Z</time></trkpt><trkpt lat="34.99088811998867" lon="-5.092197694073123"><ele>401.0</ele><time>2026-04-28T11:09:53.999Z</time></trkpt><trkpt lat="34.990879383473306" lon="-5.092059342960039"><ele>401.20000000000005</ele><time>2026-04-28T11:09:54.999Z</time></trkpt><trkpt lat="34.99086365544337" lon="-5.091926232946826"><ele>401.40000000000003</ele><time>2026-04-28T11:09:55.999Z</time></trkpt><trkpt lat="34.9908322846584" lon="-5.0917998624917455"><ele>401.6</ele><time>2026-04-28T11:09:56.999Z</time></trkpt><trkpt lat="34.990766599197876" lon="-5.091700686225308"><ele>401.8</ele><time>2026-04-28T11:09:57.999Z</time></trkpt><trkpt lat="34.99070666571006" lon="-5.091583534202295"><ele>402.0</ele><time>2026-04-28T11:09:58.999Z</time></trkpt><trkpt lat="34.990599144810176" lon="-5.091506501535268"><ele>400.5</ele><time>2026-04-28T11:09:59.999Z</time></trkpt><trkpt lat="34.990500783965494" lon="-5.091397903947899"><ele>399.0</ele><time>2026-04-28T11:10:00.999Z</time></trkpt><trkpt lat="34.990401374578916" lon="-5.091305752604956"><ele>397.5</ele><time>2026-04-28T11:10:01.999Z</time></trkpt><trkpt lat="34.990316707772884" lon="-5.0911687973522985"><ele>396.0</ele><time>2026-04-28T11:10:02.999Z</time></trkpt><trkpt lat="34.990246949574875" lon="-5.090991974663184"><ele>396.0</ele><time>2026-04-28T11:10:03.999Z</time></trkpt><trkpt lat="34.990171622104874" lon="-5.090801654296807"><ele>396.0</ele><time>2026-04-28T11:10:04.999Z</time></trkpt><trkpt lat="34.99008845852183" lon="-5.0906291157753385"><ele>396.0</ele><time>2026-04-28T11:10:06Z</time></trkpt><trkpt lat="34.99000476455205" lon="-5.090469315273454"><ele>396.0</ele><time>2026-04-28T11:10:07Z</time></trkpt><trkpt lat="34.98995212507888" lon="-5.090307139832925"><ele>396.0</ele><time>2026-04-28T11:10:08Z</time></trkpt><trkpt lat="34.98989065546749" lon="-5.090156498130939"><ele>396.0</ele><time>2026-04-28T11:10:09Z</time></trkpt><trkpt lat="34.989827366869164" lon="-5.0900088132994314"><ele>396.0</ele><time>2026-04-28T11:10:10Z</time></trkpt><trkpt lat="34.98976255818859" lon="-5.089862925460463"><ele>396.0</ele><time>2026-04-28T11:10:11Z</time></trkpt><trkpt lat="34.989689402750955" lon="-5.089719130645932"><ele>396.0</ele><time>2026-04-28T11:10:12Z</time></trkpt><trkpt lat="34.9896096246412" lon="-5.089578285586173"><ele>396.0</ele><time>2026-04-28T11:10:13Z</time></trkpt><trkpt lat="34.98952736818153" lon="-5.089443200197478"><ele>396.0</ele><time>2026-04-28T11:10:14Z</time></trkpt><trkpt lat="34.989442998430526" lon="-5.089304905285664"><ele>396.0</ele><time>2026-04-28T11:10:15Z</time></trkpt><trkpt lat="34.989358898407964" lon="-5.089163600541959"><ele>396.0</ele><time>2026-04-28T11:10:16Z</time></trkpt><trkpt lat="34.98927396109352" lon="-5.089027198867122"><ele>396.0</ele><time>2026-04-28T11:10:17Z</time></trkpt><trkpt lat="34.989196199134426" lon="-5.0889034397841435"><ele>396.0</ele><time>2026-04-28T11:10:18Z</time></trkpt><trkpt lat="34.989127775388816" lon="-5.088781161738182"><ele>396.25</ele><time>2026-04-28T11:10:19Z</time></trkpt><trkpt lat="34.98906358565977" lon="-5.088639337867326"><ele>396.5</ele><time>2026-04-28T11:10:20Z</time></trkpt><trkpt lat="34.98899613822065" lon="-5.088495696744448"><ele>396.75</ele><time>2026-04-28T11:10:21Z</time></trkpt><trkpt lat="34.98893523512416" lon="-5.088359049157609"><ele>397.0</ele><time>2026-04-28T11:10:22Z</time></trkpt><trkpt lat="34.98887955743049" lon="-5.088228199755629"><ele>397.0</ele><time>2026-04-28T11:10:23Z</time></trkpt><trkpt lat="34.98882555882981" lon="-5.088106152995698"><ele>397.0</ele><time>2026-04-28T11:10:24Z</time></trkpt><trkpt lat="34.988765686164655" lon="-5.087994071771291"><ele>397.0</ele><time>2026-04-28T11:10:25Z</time></trkpt><trkpt lat="34.98870610105222" lon="-5.087887955966253"><ele>397.0</ele><time>2026-04-28T11:10:26Z</time></trkpt><trkpt lat="34.98864352685924" lon="-5.0877884800266315"><ele>397.0</ele><time>2026-04-28T11:10:27Z</time></trkpt><trkpt lat="34.98858865035113" lon="-5.087695916944125"><ele>397.00000000000006</ele><time>2026-04-28T11:10:28Z</time></trkpt><trkpt lat="34.98851476425202" lon="-5.08763436923432"><ele>397.0</ele><time>2026-04-28T11:10:29Z</time></trkpt><trkpt lat="34.98844805582619" lon="-5.087563822569915"><ele>397.0</ele><time>2026-04-28T11:10:30Z</time></trkpt><trkpt lat="34.98837634488022" lon="-5.087489715615166"><ele>397.0</ele><time>2026-04-28T11:10:31Z</time></trkpt><trkpt lat="34.98830996454303" lon="-5.087427067735506"><ele>397.00000000000006</ele><time>2026-04-28T11:10:32Z</time></trkpt><trkpt lat="34.98824193370496" lon="-5.087358615381685"><ele>397.0</ele><time>2026-04-28T11:10:33Z</time></trkpt><trkpt lat="34.98816315550211" lon="-5.087295283158119"><ele>397.40000000000003</ele><time>2026-04-28T11:10:34Z</time></trkpt><trkpt lat="34.98809029582517" lon="-5.087224668512219"><ele>397.8</ele><time>2026-04-28T11:10:35Z</time></trkpt><trkpt lat="34.98802519089261" lon="-5.08715376898454"><ele>398.2</ele><time>2026-04-28T11:10:36Z</time></trkpt><trkpt lat="34.987961616596365" lon="-5.087080494502721"><ele>398.6</ele><time>2026-04-28T11:10:37Z</time></trkpt><trkpt lat="34.98789246835838" lon="-5.086992689795675"><ele>399.0</ele><time>2026-04-28T11:10:38Z</time></trkpt><trkpt lat="34.98783050329461" lon="-5.086904923935322"><ele>399.0</ele><time>2026-04-28T11:10:39Z</time></trkpt><trkpt lat="34.987779176889816" lon="-5.08682148319408"><ele>399.0</ele><time>2026-04-28T11:10:40Z</time></trkpt><trkpt lat="34.98771991860392" lon="-5.086736185187427"><ele>399.0</ele><time>2026-04-28T11:10:41Z</time></trkpt><trkpt lat="34.9876590818369" lon="-5.086654056332202"><ele>399.0</ele><time>2026-04-28T11:10:42Z</time></trkpt><trkpt lat="34.987594788987124" lon="-5.086571034031766"><ele>399.0</ele><time>2026-04-28T11:10:43Z</time></trkpt><trkpt lat="34.98752857250557" lon="-5.086489468331029"><ele>399.1666666666667</ele><time>2026-04-28T11:10:44Z</time></trkpt><trkpt lat="34.98746257417321" lon="-5.086411094253719"><ele>399.33333333333337</ele><time>2026-04-28T11:10:45Z</time></trkpt><trkpt lat="34.98739842553596" lon="-5.086331912151944"><ele>399.5</ele><time>2026-04-28T11:10:46Z</time></trkpt><trkpt lat="34.98733604534443" lon="-5.086258085344787"><ele>399.6666666666667</ele><time>2026-04-28T11:10:47Z</time></trkpt><trkpt lat="34.98726537755541" lon="-5.086194233709823"><ele>399.83333333333337</ele><time>2026-04-28T11:10:48Z</time></trkpt><trkpt lat="34.98719299400523" lon="-5.086128622771158"><ele>400.0</ele><time>2026-04-28T11:10:49Z</time></trkpt><trkpt lat="34.98711836364335" lon="-5.086062232837985"><ele>400.0</ele><time>2026-04-28T11:10:50Z</time></trkpt><trkpt lat="34.98704302452196" lon="-5.085998590246088"><ele>400.0</ele><time>2026-04-28T11:10:51Z</time></trkpt><trkpt lat="34.986961810196405" lon="-5.08593210365804"><ele>400.0</ele><time>2026-04-28T11:10:52Z</time></trkpt><trkpt lat="34.98688454421541" lon="-5.085871105209212"><ele>400.0</ele><time>2026-04-28T11:10:53Z</time></trkpt><trkpt lat="34.98680711925401" lon="-5.085816752465266"><ele>400.0</ele><time>2026-04-28T11:10:54Z</time></trkpt><trkpt lat="34.98673086091621" lon="-5.085765882173073"><ele>400.33333333333337</ele><time>2026-04-28T11:10:55Z</time></trkpt><trkpt lat="34.98665691527351" lon="-5.085721161253432"><ele>400.6666666666667</ele><time>2026-04-28T11:10:56Z</time></trkpt><trkpt lat="34.986586100666834" lon="-5.085676693548603"><ele>401.0</ele><time>2026-04-28T11:10:57Z</time></trkpt><trkpt lat="34.98651094557964" lon="-5.0856487496927665"><ele>401.33333333333337</ele><time>2026-04-28T11:10:58Z</time></trkpt><trkpt lat="34.986441125997835" lon="-5.085612604978423"><ele>401.6666666666667</ele><time>2026-04-28T11:10:59Z</time></trkpt><trkpt lat="34.98636542341617" lon="-5.0855783417060545"><ele>402.0</ele><time>2026-04-28T11:11:00Z</time></trkpt><trkpt lat="34.98628370279141" lon="-5.085550761275737"><ele>402.0</ele><time>2026-04-28T11:11:01Z</time></trkpt><trkpt lat="34.986195789746006" lon="-5.085529007975196"><ele>402.0</ele><time>2026-04-28T11:11:02Z</time></trkpt><trkpt lat="34.986109640812245" lon="-5.085529446534914"><ele>402.0</ele><time>2026-04-28T11:11:03Z</time></trkpt><trkpt lat="34.98602223622487" lon="-5.085528444096702"><ele>402.0</ele><time>2026-04-28T11:11:04Z</time></trkpt><trkpt lat="34.985942447958884" lon="-5.085547826444147"><ele>402.0</ele><time>2026-04-28T11:11:05Z</time></trkpt><trkpt lat="34.985858716223184" lon="-5.085584206446329"><ele>402.0</ele><time>2026-04-28T11:11:06Z</time></trkpt><trkpt lat="34.98577246137925" lon="-5.085621725285604"><ele>402.0</ele><time>2026-04-28T11:11:06.999Z</time></trkpt><trkpt lat="34.98568370938369" lon="-5.085647330899532"><ele>402.0</ele><time>2026-04-28T11:11:07.999Z</time></trkpt><trkpt lat="34.98559991328552" lon="-5.085685213885229"><ele>402.0</ele><time>2026-04-28T11:11:08.999Z</time></trkpt><trkpt lat="34.98551358318249" lon="-5.085706512310875"><ele>402.0</ele><time>2026-04-28T11:11:09.999Z</time></trkpt><trkpt lat="34.98543170598978" lon="-5.085715715158735"><ele>402.0</ele><time>2026-04-28T11:11:10.999Z</time></trkpt><trkpt lat="34.98535064748872" lon="-5.085708986413511"><ele>402.0</ele><time>2026-04-28T11:11:11.999Z</time></trkpt><trkpt lat="34.98525837382177" lon="-5.085700083120937"><ele>402.0</ele><time>2026-04-28T11:11:12.999Z</time></trkpt><trkpt lat="34.98515395438363" lon="-5.08566980420799"><ele>402.0</ele><time>2026-04-28T11:11:13.999Z</time></trkpt><trkpt lat="34.98503390743373" lon="-5.085636421387762"><ele>402.0</ele><time>2026-04-28T11:11:14.999Z</time></trkpt><trkpt lat="34.984907431490846" lon="-5.085591804184786"><ele>402.0</ele><time>2026-04-28T11:11:15.999Z</time></trkpt><trkpt lat="34.98476898173714" lon="-5.085572175692183"><ele>403.25</ele><time>2026-04-28T11:11:16.999Z</time></trkpt><trkpt lat="34.9846312391247" lon="-5.085544331739681"><ele>404.5</ele><time>2026-04-28T11:11:17.999Z</time></trkpt><trkpt lat="34.98450500619639" lon="-5.085527890095958"><ele>405.75</ele><time>2026-04-28T11:11:18.999Z</time></trkpt><trkpt lat="34.98437635970755" lon="-5.085512527987035"><ele>407.0</ele><time>2026-04-28T11:11:19.999Z</time></trkpt><trkpt lat="34.984248433754665" lon="-5.085507874702872"><ele>408.75</ele><time>2026-04-28T11:11:20.999Z</time></trkpt><trkpt lat="34.984124391618806" lon="-5.085515783996551"><ele>410.5</ele><time>2026-04-28T11:11:21.999Z</time></trkpt><trkpt lat="34.98400797795266" lon="-5.085515184650479"><ele>412.25</ele><time>2026-04-28T11:11:22.999Z</time></trkpt><trkpt lat="34.98388823020961" lon="-5.085502082472696"><ele>414.0</ele><time>2026-04-28T11:11:23.999Z</time></trkpt><trkpt lat="34.98375720805825" lon="-5.085470381701882"><ele>414.0</ele><time>2026-04-28T11:11:24.999Z</time></trkpt><trkpt lat="34.98362514826184" lon="-5.085423486598295"><ele>414.0</ele><time>2026-04-28T11:11:25.999Z</time></trkpt><trkpt lat="34.98350001960858" lon="-5.085380426536336"><ele>414.0</ele><time>2026-04-28T11:11:26.999Z</time></trkpt><trkpt lat="34.98337474842218" lon="-5.085326890443423"><ele>414.0</ele><time>2026-04-28T11:11:27.999Z</time></trkpt><trkpt lat="34.98326402453993" lon="-5.085269625770223"><ele>414.0</ele><time>2026-04-28T11:11:28.999Z</time></trkpt><trkpt lat="34.98317183661302" lon="-5.085234565576439"><ele>414.0</ele><time>2026-04-28T11:11:29.999Z</time></trkpt><trkpt lat="34.98309890146049" lon="-5.085207095066987"><ele>414.0</ele><time>2026-04-28T11:11:30.999Z</time></trkpt><trkpt lat="34.98304565173335" lon="-5.085159775595915"><ele>414.0</ele><time>2026-04-28T11:11:31.999Z</time></trkpt><trkpt lat="34.98300410424622" lon="-5.08508324523726"><ele>414.0</ele><time>2026-04-28T11:11:32.999Z</time></trkpt><trkpt lat="34.98299064763445" lon="-5.085003465954752"><ele>414.0</ele><time>2026-04-28T11:11:33.999Z</time></trkpt><trkpt lat="34.98298670454942" lon="-5.08489898601722"><ele>414.0</ele><time>2026-04-28T11:11:34.999Z</time></trkpt><trkpt lat="34.98300304855078" lon="-5.0847762924214575"><ele>414.0</ele><time>2026-04-28T11:11:35.999Z</time></trkpt><trkpt lat="34.98302903094489" lon="-5.084637573394569"><ele>414.0</ele><time>2026-04-28T11:11:36.999Z</time></trkpt><trkpt lat="34.983042244438685" lon="-5.0845096762999"><ele>414.0</ele><time>2026-04-28T11:11:37.999Z</time></trkpt><trkpt lat="34.98303863270631" lon="-5.084387634459842"><ele>414.0</ele><time>2026-04-28T11:11:38.999Z</time></trkpt><trkpt lat="34.98302598073919" lon="-5.084270288132477"><ele>414.0</ele><time>2026-04-28T11:11:39.999Z</time></trkpt><trkpt lat="34.98300869666778" lon="-5.084155182858511"><ele>414.0</ele><time>2026-04-28T11:11:40.999Z</time></trkpt><trkpt lat="34.982990654991234" lon="-5.084039972463807"><ele>414.0</ele><time>2026-04-28T11:11:41.999Z</time></trkpt><trkpt lat="34.98296960768994" lon="-5.08392720645741"><ele>414.0</ele><time>2026-04-28T11:11:42.999Z</time></trkpt><trkpt lat="34.98292773113272" lon="-5.083808360074473"><ele>414.0</ele><time>2026-04-28T11:11:43.999Z</time></trkpt><trkpt lat="34.982863775216984" lon="-5.083688973739512"><ele>412.4</ele><time>2026-04-28T11:11:44.999Z</time></trkpt><trkpt lat="34.98279340906142" lon="-5.083573046723337"><ele>410.79999999999995</ele><time>2026-04-28T11:11:45.999Z</time></trkpt><trkpt lat="34.9827257705796" lon="-5.083461498755526"><ele>409.20000000000005</ele><time>2026-04-28T11:11:46.999Z</time></trkpt><trkpt lat="34.98266788986247" lon="-5.083349986699988"><ele>407.6</ele><time>2026-04-28T11:11:47.999Z</time></trkpt><trkpt lat="34.98261531939109" lon="-5.083243001746898"><ele>406.0</ele><time>2026-04-28T11:11:48.999Z</time></trkpt><trkpt lat="34.98255825030782" lon="-5.083146603890496"><ele>407.20000000000005</ele><time>2026-04-28T11:11:49.999Z</time></trkpt><trkpt lat="34.9824842931993" lon="-5.08306046047667"><ele>408.40000000000003</ele><time>2026-04-28T11:11:50.999Z</time></trkpt><trkpt lat="34.98239158471563" lon="-5.082992733908638"><ele>409.6</ele><time>2026-04-28T11:11:51.999Z</time></trkpt><trkpt lat="34.98228619446476" lon="-5.0829467613689046"><ele>410.8</ele><time>2026-04-28T11:11:52.999Z</time></trkpt><trkpt lat="34.982180410481085" lon="-5.082919869183876"><ele>412.0</ele><time>2026-04-28T11:11:53.999Z</time></trkpt><trkpt lat="34.98207183288671" lon="-5.082914687005696"><ele>412.0</ele><time>2026-04-28T11:11:54.999Z</time></trkpt><trkpt lat="34.981971945617104" lon="-5.082953658669665"><ele>412.0</ele><time>2026-04-28T11:11:55.999Z</time></trkpt><trkpt lat="34.981879272847685" lon="-5.08298584302753"><ele>412.0</ele><time>2026-04-28T11:11:56.999Z</time></trkpt><trkpt lat="34.98177612863668" lon="-5.083007111028406"><ele>412.0</ele><time>2026-04-28T11:11:57.999Z</time></trkpt><trkpt lat="34.981665667715895" lon="-5.083045350206485"><ele>412.0</ele><time>2026-04-28T11:11:58.999Z</time></trkpt><trkpt lat="34.98155922440202" lon="-5.083058624809394"><ele>410.75</ele><time>2026-04-28T11:11:59.999Z</time></trkpt><trkpt lat="34.98145006389341" lon="-5.083048312787457"><ele>409.5</ele><time>2026-04-28T11:12:00.999Z</time></trkpt><trkpt lat="34.98133253369075" lon="-5.083011755319275"><ele>408.25</ele><time>2026-04-28T11:12:01.999Z</time></trkpt><trkpt lat="34.98121629259525" lon="-5.082948593706756"><ele>407.0</ele><time>2026-04-28T11:12:02.999Z</time></trkpt><trkpt lat="34.981105097496254" lon="-5.082860601007316"><ele>407.0</ele><time>2026-04-28T11:12:03.999Z</time></trkpt><trkpt lat="34.98101194879823" lon="-5.0827501419280186"><ele>407.0</ele><time>2026-04-28T11:12:04.999Z</time></trkpt><trkpt lat="34.98093847004152" lon="-5.082633269638268"><ele>407.0</ele><time>2026-04-28T11:12:05.999Z</time></trkpt><trkpt lat="34.98087490517212" lon="-5.082521776194854"><ele>407.0</ele><time>2026-04-28T11:12:06.999Z</time></trkpt><trkpt lat="34.98081328306032" lon="-5.082415879860394"><ele>407.6</ele><time>2026-04-28T11:12:07.999Z</time></trkpt><trkpt lat="34.98075138423103" lon="-5.082310901763714"><ele>408.20000000000005</ele><time>2026-04-28T11:12:08.999Z</time></trkpt><trkpt lat="34.98070147810744" lon="-5.082209586968239"><ele>408.8</ele><time>2026-04-28T11:12:09.999Z</time></trkpt><trkpt lat="34.98067039666673" lon="-5.082108393905557"><ele>409.4</ele><time>2026-04-28T11:12:10.999Z</time></trkpt><trkpt lat="34.9806683734985" lon="-5.081985842178485"><ele>410.0</ele><time>2026-04-28T11:12:12Z</time></trkpt><trkpt lat="34.98070557093919" lon="-5.0818501254784545"><ele>410.0</ele><time>2026-04-28T11:12:13Z</time></trkpt><trkpt lat="34.98075594626004" lon="-5.081707959567107"><ele>410.0</ele><time>2026-04-28T11:12:14Z</time></trkpt><trkpt lat="34.98077292397344" lon="-5.081566808920708"><ele>410.0</ele><time>2026-04-28T11:12:15Z</time></trkpt><trkpt lat="34.980791316371494" lon="-5.081446413373123"><ele>410.0</ele><time>2026-04-28T11:12:16Z</time></trkpt><trkpt lat="34.98079842542983" lon="-5.0813304247980025"><ele>410.0</ele><time>2026-04-28T11:12:17Z</time></trkpt><trkpt lat="34.980803131858494" lon="-5.081211382652979"><ele>408.25</ele><time>2026-04-28T11:12:18Z</time></trkpt><trkpt lat="34.98075883152926" lon="-5.0810879654225625"><ele>406.5</ele><time>2026-04-28T11:12:19Z</time></trkpt><trkpt lat="34.98069553250164" lon="-5.080965077875543"><ele>404.75</ele><time>2026-04-28T11:12:20Z</time></trkpt><trkpt lat="34.98062422552962" lon="-5.080840620264505"><ele>403.0</ele><time>2026-04-28T11:12:21Z</time></trkpt><trkpt lat="34.980551701591295" lon="-5.080702532056164"><ele>401.5</ele><time>2026-04-28T11:12:22Z</time></trkpt><trkpt lat="34.980485879982346" lon="-5.080564075171464"><ele>400.0</ele><time>2026-04-28T11:12:23Z</time></trkpt><trkpt lat="34.98042589833743" lon="-5.080433509281597"><ele>398.5</ele><time>2026-04-28T11:12:24Z</time></trkpt><trkpt lat="34.980373530165046" lon="-5.080317930534636"><ele>397.0</ele><time>2026-04-28T11:12:25Z</time></trkpt><trkpt lat="34.980325032782524" lon="-5.080215551110139"><ele>397.0</ele><time>2026-04-28T11:12:26Z</time></trkpt><trkpt lat="34.980289988849854" lon="-5.080118103760221"><ele>397.0</ele><time>2026-04-28T11:12:27Z</time></trkpt><trkpt lat="34.98026672699955" lon="-5.080021235196827"><ele>397.0</ele><time>2026-04-28T11:12:28Z</time></trkpt><trkpt lat="34.98025688465816" lon="-5.0799070721307515"><ele>397.0</ele><time>2026-04-28T11:12:29Z</time></trkpt><trkpt lat="34.980256121744695" lon="-5.079778135056272"><ele>397.0</ele><time>2026-04-28T11:12:30Z</time></trkpt><trkpt lat="34.98025991770281" lon="-5.07965323540444"><ele>396.6</ele><time>2026-04-28T11:12:31Z</time></trkpt><trkpt lat="34.98026114407231" lon="-5.0795358204893155"><ele>396.20000000000005</ele><time>2026-04-28T11:12:32Z</time></trkpt><trkpt lat="34.980256244836056" lon="-5.079417326206564"><ele>395.8</ele><time>2026-04-28T11:12:33Z</time></trkpt><trkpt lat="34.98025312001757" lon="-5.079296264316469"><ele>395.4</ele><time>2026-04-28T11:12:34Z</time></trkpt><trkpt lat="34.980244518699045" lon="-5.0791650883765795"><ele>395.0</ele><time>2026-04-28T11:12:35Z</time></trkpt><trkpt lat="34.98023087081595" lon="-5.0790275001647665"><ele>393.75</ele><time>2026-04-28T11:12:36Z</time></trkpt><trkpt lat="34.980209537010595" lon="-5.078893693960344"><ele>392.5</ele><time>2026-04-28T11:12:37Z</time></trkpt><trkpt lat="34.98018067956" lon="-5.078763538572136"><ele>391.25</ele><time>2026-04-28T11:12:38Z</time></trkpt><trkpt lat="34.98014717694046" lon="-5.078634485352103"><ele>390.0</ele><time>2026-04-28T11:12:39Z</time></trkpt><trkpt lat="34.980110618134205" lon="-5.078498885456882"><ele>390.0</ele><time>2026-04-28T11:12:40Z</time></trkpt><trkpt lat="34.9800628855631" lon="-5.078362368098815"><ele>390.0</ele><time>2026-04-28T11:12:41Z</time></trkpt><trkpt lat="34.9800037720293" lon="-5.07822329672099"><ele>390.0</ele><time>2026-04-28T11:12:42Z</time></trkpt><trkpt lat="34.97994836012229" lon="-5.0780797424987645"><ele>390.0</ele><time>2026-04-28T11:12:43Z</time></trkpt><trkpt lat="34.97989167747976" lon="-5.077943526545017"><ele>389.75</ele><time>2026-04-28T11:12:44Z</time></trkpt><trkpt lat="34.979830411165636" lon="-5.0777993907018795"><ele>389.5</ele><time>2026-04-28T11:12:45Z</time></trkpt><trkpt lat="34.979763680724474" lon="-5.0776469481243005"><ele>389.25</ele><time>2026-04-28T11:12:46Z</time></trkpt><trkpt lat="34.979698762822885" lon="-5.077491717542478"><ele>389.0</ele><time>2026-04-28T11:12:47Z</time></trkpt><trkpt lat="34.979638376921585" lon="-5.077337291387249"><ele>389.0</ele><time>2026-04-28T11:12:48Z</time></trkpt><trkpt lat="34.9795785092216" lon="-5.0771829210539146"><ele>389.0</ele><time>2026-04-28T11:12:49Z</time></trkpt><trkpt lat="34.97951715882052" lon="-5.077022042832745"><ele>389.0</ele><time>2026-04-28T11:12:50Z</time></trkpt><trkpt lat="34.9794613963716" lon="-5.076857736842576"><ele>389.0</ele><time>2026-04-28T11:12:51Z</time></trkpt><trkpt lat="34.97941264915625" lon="-5.076684565910278"><ele>388.0</ele><time>2026-04-28T11:12:52Z</time></trkpt><trkpt lat="34.97937732273199" lon="-5.07650721592638"><ele>387.0</ele><time>2026-04-28T11:12:53Z</time></trkpt><trkpt lat="34.9793510842314" lon="-5.076325811224489"><ele>386.0</ele><time>2026-04-28T11:12:54Z</time></trkpt><trkpt lat="34.9793280244279" lon="-5.0761457654173165"><ele>386.0</ele><time>2026-04-28T11:12:55Z</time></trkpt><trkpt lat="34.97930161436194" lon="-5.075966667519325"><ele>386.0</ele><time>2026-04-28T11:12:56Z</time></trkpt><trkpt lat="34.97927413922808" lon="-5.0757875419727"><ele>386.0</ele><time>2026-04-28T11:12:57Z</time></trkpt><trkpt lat="34.97924527829413" lon="-5.07561152171399"><ele>386.0</ele><time>2026-04-28T11:12:58Z</time></trkpt><trkpt lat="34.97921625919721" lon="-5.075438620707748"><ele>386.0</ele><time>2026-04-28T11:12:59Z</time></trkpt><trkpt lat="34.97918913925751" lon="-5.075266327582192"><ele>386.0</ele><time>2026-04-28T11:13:00Z</time></trkpt><trkpt lat="34.979162194460834" lon="-5.075100121512844"><ele>386.0</ele><time>2026-04-28T11:13:01Z</time></trkpt><trkpt lat="34.97912593952469" lon="-5.074942686539206"><ele>386.0</ele><time>2026-04-28T11:13:02Z</time></trkpt><trkpt lat="34.979081486513756" lon="-5.074783704236905"><ele>386.5</ele><time>2026-04-28T11:13:03Z</time></trkpt><trkpt lat="34.97902748204712" lon="-5.0746384826570665"><ele>387.0</ele><time>2026-04-28T11:13:04Z</time></trkpt><trkpt lat="34.97897338042923" lon="-5.07450442418934"><ele>387.5</ele><time>2026-04-28T11:13:05Z</time></trkpt><trkpt lat="34.978913475422125" lon="-5.074381839852334"><ele>388.0</ele><time>2026-04-28T11:13:06Z</time></trkpt><trkpt lat="34.97883905787982" lon="-5.074277483741376"><ele>388.0</ele><time>2026-04-28T11:13:07Z</time></trkpt><trkpt lat="34.97875802944204" lon="-5.074161017021135"><ele>388.0</ele><time>2026-04-28T11:13:08Z</time></trkpt><trkpt lat="34.97868178610104" lon="-5.074058936483404"><ele>388.0</ele><time>2026-04-28T11:13:09Z</time></trkpt><trkpt lat="34.978587958337506" lon="-5.073972208532246"><ele>388.0</ele><time>2026-04-28T11:13:10Z</time></trkpt><trkpt lat="34.97848566560698" lon="-5.073895808989754"><ele>388.25</ele><time>2026-04-28T11:13:11Z</time></trkpt><trkpt lat="34.978373273226524" lon="-5.073833243980909"><ele>388.5</ele><time>2026-04-28T11:13:12Z</time></trkpt><trkpt lat="34.978256578436216" lon="-5.073792241765595"><ele>388.75</ele><time>2026-04-28T11:13:13Z</time></trkpt><trkpt lat="34.978141080090744" lon="-5.073803454831266"><ele>389.0</ele><time>2026-04-28T11:13:13.999Z</time></trkpt><trkpt lat="34.9780367964631" lon="-5.073792839127735"><ele>389.0</ele><time>2026-04-28T11:13:14.999Z</time></trkpt><trkpt lat="34.97793969249506" lon="-5.073767446489785"><ele>389.0</ele><time>2026-04-28T11:13:15.999Z</time></trkpt><trkpt lat="34.97784234083409" lon="-5.073762052046181"><ele>389.0</ele><time>2026-04-28T11:13:16.999Z</time></trkpt><trkpt lat="34.97773665248166" lon="-5.073747778270748"><ele>389.0</ele><time>2026-04-28T11:13:17.999Z</time></trkpt><trkpt lat="34.97761850915908" lon="-5.073759468512579"><ele>389.0</ele><time>2026-04-28T11:13:18.999Z</time></trkpt><trkpt lat="34.97749485083649" lon="-5.073732999924832"><ele>389.25</ele><time>2026-04-28T11:13:19.999Z</time></trkpt><trkpt lat="34.97736457337271" lon="-5.073742085839963"><ele>389.5</ele><time>2026-04-28T11:13:20.999Z</time></trkpt><trkpt lat="34.977232370277456" lon="-5.073776699943151"><ele>389.75</ele><time>2026-04-28T11:13:21.999Z</time></trkpt><trkpt lat="34.977104057026615" lon="-5.0737919088494525"><ele>390.0</ele><time>2026-04-28T11:13:22.999Z</time></trkpt><trkpt lat="34.97698068450475" lon="-5.073792587942248"><ele>390.0</ele><time>2026-04-28T11:13:23.999Z</time></trkpt><trkpt lat="34.976863965385064" lon="-5.073814896966968"><ele>390.0</ele><time>2026-04-28T11:13:24.999Z</time></trkpt><trkpt lat="34.97675053513601" lon="-5.073839242403549"><ele>390.0</ele><time>2026-04-28T11:13:25.999Z</time></trkpt><trkpt lat="34.976641271856295" lon="-5.073859129458919"><ele>390.0</ele><time>2026-04-28T11:13:26.999Z</time></trkpt><trkpt lat="34.97653984043187" lon="-5.073879732573178"><ele>390.0</ele><time>2026-04-28T11:13:27.999Z</time></trkpt><trkpt lat="34.976446343971915" lon="-5.0739066938970465"><ele>390.0</ele><time>2026-04-28T11:13:28.999Z</time></trkpt><trkpt lat="34.97636108183967" lon="-5.073940135507898"><ele>390.0</ele><time>2026-04-28T11:13:29.999Z</time></trkpt><trkpt lat="34.97628645716276" lon="-5.073973952987844"><ele>390.0</ele><time>2026-04-28T11:13:30.999Z</time></trkpt><trkpt lat="34.97617541997363" lon="-5.073965442930428"><ele>390.0</ele><time>2026-04-28T11:13:32.999Z</time></trkpt><trkpt lat="34.976097082961104" lon="-5.073907638369761"><ele>390.0</ele><time>2026-04-28T11:13:34.999Z</time></trkpt><trkpt lat="34.97604098179769" lon="-5.073872120479846"><ele>390.0</ele><time>2026-04-28T11:13:35.999Z</time></trkpt><trkpt lat="34.975988653836545" lon="-5.073777661869353"><ele>390.0</ele><time>2026-04-28T11:13:37.999Z</time></trkpt><trkpt lat="34.97594146698926" lon="-5.0737211317194015"><ele>390.0</ele><time>2026-04-28T11:13:38.999Z</time></trkpt><trkpt lat="34.97593150989584" lon="-5.073630827418364"><ele>390.0</ele><time>2026-04-28T11:13:39.999Z</time></trkpt><trkpt lat="34.97591819404159" lon="-5.07354729234394"><ele>390.0</ele><time>2026-04-28T11:13:40.999Z</time></trkpt><trkpt lat="34.97589639284896" lon="-5.073458304554024"><ele>390.0</ele><time>2026-04-28T11:13:41.999Z</time></trkpt><trkpt lat="34.975855452114516" lon="-5.073372913505217"><ele>390.0</ele><time>2026-04-28T11:13:42.999Z</time></trkpt><trkpt lat="34.9757984318121" lon="-5.0732832929340965"><ele>391.0</ele><time>2026-04-28T11:13:43.999Z</time></trkpt><trkpt lat="34.97573215545713" lon="-5.073183720301687"><ele>392.0</ele><time>2026-04-28T11:13:44.999Z</time></trkpt><trkpt lat="34.97566500947184" lon="-5.073069841613403"><ele>393.0</ele><time>2026-04-28T11:13:45.999Z</time></trkpt><trkpt lat="34.975606206184416" lon="-5.072940367309875"><ele>394.0</ele><time>2026-04-28T11:13:46.999Z</time></trkpt><trkpt lat="34.975540315500375" lon="-5.072793218999769"><ele>394.0</ele><time>2026-04-28T11:13:47.999Z</time></trkpt><trkpt lat="34.97547084522431" lon="-5.072649560012987"><ele>394.0</ele><time>2026-04-28T11:13:48.999Z</time></trkpt><trkpt lat="34.97540246564379" lon="-5.072511966244288"><ele>394.0</ele><time>2026-04-28T11:13:49.999Z</time></trkpt><trkpt lat="34.97533836457466" lon="-5.072384312666897"><ele>394.0</ele><time>2026-04-28T11:13:50.999Z</time></trkpt><trkpt lat="34.97527839643716" lon="-5.072265822063898"><ele>394.5</ele><time>2026-04-28T11:13:51.999Z</time></trkpt><trkpt lat="34.97521293394899" lon="-5.072134735475783"><ele>395.0</ele><time>2026-04-28T11:13:52.999Z</time></trkpt><trkpt lat="34.97514036381963" lon="-5.072023597386547"><ele>395.5</ele><time>2026-04-28T11:13:53.999Z</time></trkpt><trkpt lat="34.97506741037534" lon="-5.07192186296443"><ele>396.0</ele><time>2026-04-28T11:13:54.999Z</time></trkpt><trkpt lat="34.974986414509516" lon="-5.07180673050188"><ele>396.0</ele><time>2026-04-28T11:13:55.999Z</time></trkpt><trkpt lat="34.97491391572802" lon="-5.071685648869448"><ele>396.0</ele><time>2026-04-28T11:13:56.999Z</time></trkpt><trkpt lat="34.974843588212785" lon="-5.071553232708688"><ele>396.0</ele><time>2026-04-28T11:13:57.999Z</time></trkpt><trkpt lat="34.97477072332452" lon="-5.071417924392301"><ele>396.0</ele><time>2026-04-28T11:13:58.999Z</time></trkpt><trkpt lat="34.97470989056541" lon="-5.071286091146002"><ele>393.0</ele><time>2026-04-28T11:13:59.999Z</time></trkpt><trkpt lat="34.97467209260696" lon="-5.07115126542276"><ele>390.0</ele><time>2026-04-28T11:14:00.999Z</time></trkpt><trkpt lat="34.97463980310677" lon="-5.070996857870327"><ele>387.0</ele><time>2026-04-28T11:14:01.999Z</time></trkpt><trkpt lat="34.9745971690857" lon="-5.070836247876309"><ele>384.0</ele><time>2026-04-28T11:14:02.999Z</time></trkpt><trkpt lat="34.974546851524195" lon="-5.07067912112881"><ele>383.25</ele><time>2026-04-28T11:14:03.999Z</time></trkpt><trkpt lat="34.97449771342068" lon="-5.070527655279615"><ele>382.5</ele><time>2026-04-28T11:14:04.999Z</time></trkpt><trkpt lat="34.97445815124871" lon="-5.07037385774351"><ele>381.75</ele><time>2026-04-28T11:14:05.999Z</time></trkpt><trkpt lat="34.97442834719898" lon="-5.070228454491091"><ele>381.0</ele><time>2026-04-28T11:14:06.999Z</time></trkpt><trkpt lat="34.97439139102129" lon="-5.0700799322675785"><ele>380.25</ele><time>2026-04-28T11:14:07.999Z</time></trkpt><trkpt lat="34.97434152761572" lon="-5.0699324647329576"><ele>379.5</ele><time>2026-04-28T11:14:08.999Z</time></trkpt><trkpt lat="34.97429487201848" lon="-5.069799055278722"><ele>378.75</ele><time>2026-04-28T11:14:09.999Z</time></trkpt><trkpt lat="34.97424343645089" lon="-5.069671233963925"><ele>378.0</ele><time>2026-04-28T11:14:10.999Z</time></trkpt><trkpt lat="34.97418026103759" lon="-5.0695561957068165"><ele>381.5</ele><time>2026-04-28T11:14:11.999Z</time></trkpt><trkpt lat="34.97410041529933" lon="-5.069443634729375"><ele>385.0</ele><time>2026-04-28T11:14:12.999Z</time></trkpt><trkpt lat="34.974005097765684" lon="-5.069346434920407"><ele>388.5</ele><time>2026-04-28T11:14:13.999Z</time></trkpt><trkpt lat="34.9738926725863" lon="-5.069260045801256"><ele>392.0</ele><time>2026-04-28T11:14:14.999Z</time></trkpt><trkpt lat="34.97377797712244" lon="-5.069169358751121"><ele>393.5</ele><time>2026-04-28T11:14:15.999Z</time></trkpt><trkpt lat="34.973663031236065" lon="-5.069071280442873"><ele>395.0</ele><time>2026-04-28T11:14:16.999Z</time></trkpt><trkpt lat="34.97354456158056" lon="-5.068972191462326"><ele>396.5</ele><time>2026-04-28T11:14:18Z</time></trkpt><trkpt lat="34.97342379129841" lon="-5.0688717676650406"><ele>398.0</ele><time>2026-04-28T11:14:19Z</time></trkpt><trkpt lat="34.973315247924184" lon="-5.068782119112591"><ele>398.0</ele><time>2026-04-28T11:14:20Z</time></trkpt><trkpt lat="34.97320991220042" lon="-5.068691855204396"><ele>398.0</ele><time>2026-04-28T11:14:21Z</time></trkpt><trkpt lat="34.9731051982892" lon="-5.068596797910796"><ele>398.0</ele><time>2026-04-28T11:14:22Z</time></trkpt><trkpt lat="34.97300077666171" lon="-5.068498787011397"><ele>398.0</ele><time>2026-04-28T11:14:23Z</time></trkpt><trkpt lat="34.972890615067136" lon="-5.068399760602505"><ele>398.0</ele><time>2026-04-28T11:14:24Z</time></trkpt><trkpt lat="34.972773868202786" lon="-5.068301164786276"><ele>398.0</ele><time>2026-04-28T11:14:25Z</time></trkpt><trkpt lat="34.972650909777464" lon="-5.068207055437823"><ele>398.0</ele><time>2026-04-28T11:14:26Z</time></trkpt><trkpt lat="34.97253025850398" lon="-5.0681139231859795"><ele>398.0</ele><time>2026-04-28T11:14:27Z</time></trkpt><trkpt lat="34.97240899676727" lon="-5.068030720188534"><ele>396.5</ele><time>2026-04-28T11:14:28Z</time></trkpt><trkpt lat="34.972271788521084" lon="-5.0679970141282915"><ele>395.0</ele><time>2026-04-28T11:14:29Z</time></trkpt><trkpt lat="34.97213461391469" lon="-5.06794141795773"><ele>393.5</ele><time>2026-04-28T11:14:30Z</time></trkpt><trkpt lat="34.971993652596225" lon="-5.067997142919682"><ele>392.0</ele><time>2026-04-28T11:14:31Z</time></trkpt><trkpt lat="34.971858902509744" lon="-5.06800640680005"><ele>392.0</ele><time>2026-04-28T11:14:32Z</time></trkpt><trkpt lat="34.971733767522956" lon="-5.068002036192899"><ele>392.0</ele><time>2026-04-28T11:14:33Z</time></trkpt><trkpt lat="34.971616638689426" lon="-5.068007245109117"><ele>392.0</ele><time>2026-04-28T11:14:34Z</time></trkpt><trkpt lat="34.971495416191594" lon="-5.067975239078958"><ele>392.0</ele><time>2026-04-28T11:14:35Z</time></trkpt><trkpt lat="34.97138286777326" lon="-5.067914185718616"><ele>391.6</ele><time>2026-04-28T11:14:36Z</time></trkpt><trkpt lat="34.97128218155905" lon="-5.0678487542496375"><ele>391.20000000000005</ele><time>2026-04-28T11:14:37Z</time></trkpt><trkpt lat="34.97118307063568" lon="-5.067811861480409"><ele>390.8</ele><time>2026-04-28T11:14:38Z</time></trkpt><trkpt lat="34.97108334399194" lon="-5.067835938742601"><ele>390.4</ele><time>2026-04-28T11:14:39Z</time></trkpt><trkpt lat="34.970983919755916" lon="-5.067846725080651"><ele>390.0</ele><time>2026-04-28T11:14:40Z</time></trkpt><trkpt lat="34.970895345161395" lon="-5.067846600264624"><ele>391.0</ele><time>2026-04-28T11:14:41Z</time></trkpt><trkpt lat="34.97080633812313" lon="-5.067845438165364"><ele>392.0</ele><time>2026-04-28T11:14:42Z</time></trkpt><trkpt lat="34.97073047976447" lon="-5.067813602901354"><ele>393.0</ele><time>2026-04-28T11:14:43Z</time></trkpt><trkpt lat="34.9706698040503" lon="-5.067753032060462"><ele>394.0</ele><time>2026-04-28T11:14:44Z</time></trkpt><trkpt lat="34.97060598564522" lon="-5.067676128648354"><ele>395.0</ele><time>2026-04-28T11:14:45Z</time></trkpt><trkpt lat="34.97052403098191" lon="-5.067595451957416"><ele>396.0</ele><time>2026-04-28T11:14:46Z</time></trkpt><trkpt lat="34.97043365545932" lon="-5.067524044707474"><ele>396.0</ele><time>2026-04-28T11:14:47Z</time></trkpt><trkpt lat="34.97033740581514" lon="-5.067471386469263"><ele>396.0</ele><time>2026-04-28T11:14:48Z</time></trkpt><trkpt lat="34.970245289699605" lon="-5.067454578462127"><ele>396.0</ele><time>2026-04-28T11:14:49Z</time></trkpt><trkpt lat="34.970152744315286" lon="-5.0674555095109595"><ele>396.0</ele><time>2026-04-28T11:14:50Z</time></trkpt><trkpt lat="34.970065282406324" lon="-5.067465148346066"><ele>396.0</ele><time>2026-04-28T11:14:51Z</time></trkpt><trkpt lat="34.969992373600995" lon="-5.067443259960764"><ele>394.6666666666667</ele><time>2026-04-28T11:14:52Z</time></trkpt><trkpt lat="34.96992644803053" lon="-5.067429449570945"><ele>393.33333333333337</ele><time>2026-04-28T11:14:53Z</time></trkpt><trkpt lat="34.96986240687321" lon="-5.067393439017007"><ele>392.0</ele><time>2026-04-28T11:14:54Z</time></trkpt><trkpt lat="34.96978939676319" lon="-5.06735839427173"><ele>390.6666666666667</ele><time>2026-04-28T11:14:55Z</time></trkpt><trkpt lat="34.969716319323176" lon="-5.067280875286239"><ele>389.33333333333337</ele><time>2026-04-28T11:14:56Z</time></trkpt><trkpt lat="34.96963675818884" lon="-5.067194778933578"><ele>388.0</ele><time>2026-04-28T11:14:57Z</time></trkpt><trkpt lat="34.969550882254914" lon="-5.067133039155876"><ele>388.0</ele><time>2026-04-28T11:14:58Z</time></trkpt><trkpt lat="34.969463019379916" lon="-5.067091705336903"><ele>388.0</ele><time>2026-04-28T11:14:59Z</time></trkpt><trkpt lat="34.96936453910298" lon="-5.067056285035064"><ele>388.0</ele><time>2026-04-28T11:15:00Z</time></trkpt><trkpt lat="34.969263145980555" lon="-5.067017672769729"><ele>388.0</ele><time>2026-04-28T11:15:01Z</time></trkpt><trkpt lat="34.96916231323049" lon="-5.067018223259442"><ele>388.0</ele><time>2026-04-28T11:15:02Z</time></trkpt><trkpt lat="34.96905632855739" lon="-5.067007672904155"><ele>390.25</ele><time>2026-04-28T11:15:03Z</time></trkpt><trkpt lat="34.9689427080334" lon="-5.066996239492082"><ele>392.5</ele><time>2026-04-28T11:15:04Z</time></trkpt><trkpt lat="34.96882108884934" lon="-5.0669846409327475"><ele>394.75</ele><time>2026-04-28T11:15:05Z</time></trkpt><trkpt lat="34.968696268010426" lon="-5.066977303632161"><ele>397.0</ele><time>2026-04-28T11:15:06Z</time></trkpt><trkpt lat="34.96857435181076" lon="-5.06695744220041"><ele>397.0</ele><time>2026-04-28T11:15:07Z</time></trkpt><trkpt lat="34.968444612352414" lon="-5.066958064261384"><ele>397.0</ele><time>2026-04-28T11:15:08Z</time></trkpt><trkpt lat="34.96830547002318" lon="-5.066959956203725"><ele>397.0</ele><time>2026-04-28T11:15:09Z</time></trkpt><trkpt lat="34.96815567954455" lon="-5.0669613028593155"><ele>397.0</ele><time>2026-04-28T11:15:10Z</time></trkpt><trkpt lat="34.96799958101221" lon="-5.066962787854531"><ele>399.6666666666667</ele><time>2026-04-28T11:15:11Z</time></trkpt><trkpt lat="34.96784470132203" lon="-5.06696796347135"><ele>402.33333333333337</ele><time>2026-04-28T11:15:11.999Z</time></trkpt><trkpt lat="34.967690569090884" lon="-5.066967761323137"><ele>405.0</ele><time>2026-04-28T11:15:12.999Z</time></trkpt><trkpt lat="34.96753265228671" lon="-5.066968186670507"><ele>406.0</ele><time>2026-04-28T11:15:13.999Z</time></trkpt><trkpt lat="34.96737944552158" lon="-5.06696857010247"><ele>407.0</ele><time>2026-04-28T11:15:14.999Z</time></trkpt><trkpt lat="34.96723109646938" lon="-5.066972168687138"><ele>408.0</ele><time>2026-04-28T11:15:15.999Z</time></trkpt><trkpt lat="34.967084408096085" lon="-5.066975882136591"><ele>409.0</ele><time>2026-04-28T11:15:16.999Z</time></trkpt><trkpt lat="34.96694114129299" lon="-5.066979080366553"><ele>409.0</ele><time>2026-04-28T11:15:17.999Z</time></trkpt><trkpt lat="34.966791400421386" lon="-5.066979340027257"><ele>409.0</ele><time>2026-04-28T11:15:18.999Z</time></trkpt><trkpt lat="34.966645043601865" lon="-5.066978155306053"><ele>409.0</ele><time>2026-04-28T11:15:19.999Z</time></trkpt><trkpt lat="34.9664917390869" lon="-5.066984699308949"><ele>409.0</ele><time>2026-04-28T11:15:20.999Z</time></trkpt><trkpt lat="34.96633673199757" lon="-5.0669944697436"><ele>411.6666666666667</ele><time>2026-04-28T11:15:21.999Z</time></trkpt><trkpt lat="34.96618439120581" lon="-5.067006518820516"><ele>414.33333333333337</ele><time>2026-04-28T11:15:22.999Z</time></trkpt><trkpt lat="34.96603533768716" lon="-5.067047693392251"><ele>417.0</ele><time>2026-04-28T11:15:23.999Z</time></trkpt><trkpt lat="34.96589314626659" lon="-5.067114435512614"><ele>419.33333333333337</ele><time>2026-04-28T11:15:24.999Z</time></trkpt><trkpt lat="34.96575327468241" lon="-5.067194306115258"><ele>421.6666666666667</ele><time>2026-04-28T11:15:25.999Z</time></trkpt><trkpt lat="34.965617238607436" lon="-5.067286319025023"><ele>424.0</ele><time>2026-04-28T11:15:26.999Z</time></trkpt><trkpt lat="34.965486062125755" lon="-5.067374648443534"><ele>426.5</ele><time>2026-04-28T11:15:27.999Z</time></trkpt><trkpt lat="34.96535631577824" lon="-5.067464020017399"><ele>429.0</ele><time>2026-04-28T11:15:28.999Z</time></trkpt><trkpt lat="34.965227806270214" lon="-5.067559636924583"><ele>431.5</ele><time>2026-04-28T11:15:29.999Z</time></trkpt><trkpt lat="34.965100532929746" lon="-5.067643871455621"><ele>434.0</ele><time>2026-04-28T11:15:30.999Z</time></trkpt><trkpt lat="34.964965544372454" lon="-5.067721995791006"><ele>434.3333333333333</ele><time>2026-04-28T11:15:31.999Z</time></trkpt><trkpt lat="34.96481874563906" lon="-5.067773898091453"><ele>434.66666666666663</ele><time>2026-04-28T11:15:32.999Z</time></trkpt><trkpt lat="34.96466402344666" lon="-5.067779049001541"><ele>435.0</ele><time>2026-04-28T11:15:33.999Z</time></trkpt><trkpt lat="34.964498204455246" lon="-5.06775740460328"><ele>435.0</ele><time>2026-04-28T11:15:34.999Z</time></trkpt><trkpt lat="34.96433062471565" lon="-5.0677291281854595"><ele>435.0</ele><time>2026-04-28T11:15:35.999Z</time></trkpt><trkpt lat="34.96417035117545" lon="-5.067700100967861"><ele>435.0</ele><time>2026-04-28T11:15:36.999Z</time></trkpt><trkpt lat="34.964012386556846" lon="-5.067665157995932"><ele>436.0</ele><time>2026-04-28T11:15:37.999Z</time></trkpt><trkpt lat="34.96385405211482" lon="-5.067659217624011"><ele>437.0</ele><time>2026-04-28T11:15:38.999Z</time></trkpt><trkpt lat="34.963691655505144" lon="-5.067640483015662"><ele>438.0</ele><time>2026-04-28T11:15:39.999Z</time></trkpt><trkpt lat="34.96353763016863" lon="-5.0676190475718625"><ele>438.0</ele><time>2026-04-28T11:15:40.999Z</time></trkpt><trkpt lat="34.963390108546825" lon="-5.0676046744087655"><ele>438.0</ele><time>2026-04-28T11:15:41.999Z</time></trkpt><trkpt lat="34.96324337718281" lon="-5.067611451851983"><ele>438.0</ele><time>2026-04-28T11:15:42.999Z</time></trkpt><trkpt lat="34.96310025430585" lon="-5.067639987777147"><ele>438.0</ele><time>2026-04-28T11:15:43.999Z</time></trkpt><trkpt lat="34.962968918135374" lon="-5.067700554743845"><ele>437.75</ele><time>2026-04-28T11:15:44.999Z</time></trkpt><trkpt lat="34.962850380467174" lon="-5.067792906047724"><ele>437.5</ele><time>2026-04-28T11:15:45.999Z</time></trkpt><trkpt lat="34.96273848634373" lon="-5.067886017146511"><ele>437.25</ele><time>2026-04-28T11:15:46.999Z</time></trkpt><trkpt lat="34.96265947994447" lon="-5.067999696219698"><ele>437.0</ele><time>2026-04-28T11:15:47.999Z</time></trkpt><trkpt lat="34.96258000378979" lon="-5.068087066413973"><ele>437.20000000000005</ele><time>2026-04-28T11:15:48.999Z</time></trkpt><trkpt lat="34.962497571284935" lon="-5.068132528074108"><ele>437.40000000000003</ele><time>2026-04-28T11:15:49.999Z</time></trkpt><trkpt lat="34.96239980643125" lon="-5.068146396560891"><ele>437.59999999999997</ele><time>2026-04-28T11:15:50.999Z</time></trkpt><trkpt lat="34.96228980080169" lon="-5.068127249027977"><ele>437.79999999999995</ele><time>2026-04-28T11:15:51.999Z</time></trkpt><trkpt lat="34.9621755313623" lon="-5.068075508090194"><ele>438.0</ele><time>2026-04-28T11:15:52.999Z</time></trkpt><trkpt lat="34.962050514638534" lon="-5.068025745925677"><ele>438.0</ele><time>2026-04-28T11:15:53.999Z</time></trkpt><trkpt lat="34.961935540531385" lon="-5.067912395807978"><ele>438.0</ele><time>2026-04-28T11:15:54.999Z</time></trkpt><trkpt lat="34.96183378815008" lon="-5.067764328307955"><ele>438.0</ele><time>2026-04-28T11:15:55.999Z</time></trkpt><trkpt lat="34.96171437873038" lon="-5.067624998487279"><ele>439.33333333333337</ele><time>2026-04-28T11:15:56.999Z</time></trkpt><trkpt lat="34.961591040568216" lon="-5.067475449328258"><ele>440.6666666666667</ele><time>2026-04-28T11:15:57.999Z</time></trkpt><trkpt lat="34.961471554346744" lon="-5.067325966937667"><ele>442.0</ele><time>2026-04-28T11:15:58.999Z</time></trkpt><trkpt lat="34.96136128579411" lon="-5.06719995981393"><ele>442.0</ele><time>2026-04-28T11:15:59.999Z</time></trkpt><trkpt lat="34.96126153640532" lon="-5.067086952928681"><ele>442.0</ele><time>2026-04-28T11:16:00.999Z</time></trkpt><trkpt lat="34.96117404042943" lon="-5.0669810714109795"><ele>442.0</ele><time>2026-04-28T11:16:01.999Z</time></trkpt><trkpt lat="34.96110015404049" lon="-5.066872875121511"><ele>442.0</ele><time>2026-04-28T11:16:02.999Z</time></trkpt><trkpt lat="34.96104776978568" lon="-5.0667575102901035"><ele>442.0</ele><time>2026-04-28T11:16:03.999Z</time></trkpt><trkpt lat="34.961029382388745" lon="-5.066626692457148"><ele>442.0</ele><time>2026-04-28T11:16:04.999Z</time></trkpt><trkpt lat="34.96105190522619" lon="-5.066491545942774"><ele>442.0</ele><time>2026-04-28T11:16:05.999Z</time></trkpt><trkpt lat="34.96110584746192" lon="-5.066357856500879"><ele>442.0</ele><time>2026-04-28T11:16:06.999Z</time></trkpt><trkpt lat="34.96117362237684" lon="-5.066212875178362"><ele>442.25</ele><time>2026-04-28T11:16:07.999Z</time></trkpt><trkpt lat="34.961234635457735" lon="-5.066050858835023"><ele>442.5</ele><time>2026-04-28T11:16:08.999Z</time></trkpt><trkpt lat="34.96128851394661" lon="-5.06589435903127"><ele>442.75</ele><time>2026-04-28T11:16:09.999Z</time></trkpt><trkpt lat="34.96133910755322" lon="-5.065752144701515"><ele>443.0</ele><time>2026-04-28T11:16:10.999Z</time></trkpt><trkpt lat="34.96137459792421" lon="-5.065603209148683"><ele>445.75</ele><time>2026-04-28T11:16:11.999Z</time></trkpt><trkpt lat="34.961419992082824" lon="-5.065459294879695"><ele>448.5</ele><time>2026-04-28T11:16:12.999Z</time></trkpt><trkpt lat="34.961465681139344" lon="-5.065312625288017"><ele>451.25</ele><time>2026-04-28T11:16:13.999Z</time></trkpt><trkpt lat="34.96152037266193" lon="-5.065177310031602"><ele>454.0</ele><time>2026-04-28T11:16:14.999Z</time></trkpt><trkpt lat="34.96154707806328" lon="-5.065054159722452"><ele>454.00000000000006</ele><time>2026-04-28T11:16:15.999Z</time></trkpt><trkpt lat="34.96156819765338" lon="-5.064962727288612"><ele>454.0</ele><time>2026-04-28T11:16:16.999Z</time></trkpt><trkpt lat="34.96157775897019" lon="-5.064862827288683"><ele>454.0</ele><time>2026-04-28T11:16:18.999Z</time></trkpt><trkpt lat="34.961566917057674" lon="-5.064756349696621"><ele>454.0</ele><time>2026-04-28T11:16:21.999Z</time></trkpt><trkpt lat="34.96156551684908" lon="-5.064677688810493"><ele>454.00000000000006</ele><time>2026-04-28T11:16:58Z</time></trkpt><trkpt lat="34.9615572387589" lon="-5.064511708912306"><ele>454.0</ele><time>2026-04-28T11:17:00Z</time></trkpt><trkpt lat="34.96155078785831" lon="-5.0643994202801705"><ele>453.79999999999995</ele><time>2026-04-28T11:17:01Z</time></trkpt><trkpt lat="34.96154154576854" lon="-5.064260704523161"><ele>453.59999999999997</ele><time>2026-04-28T11:17:02Z</time></trkpt><trkpt lat="34.961538423509" lon="-5.064131620450704"><ele>453.4</ele><time>2026-04-28T11:17:03Z</time></trkpt><trkpt lat="34.961525292810265" lon="-5.0640246922055745"><ele>453.2</ele><time>2026-04-28T11:17:04Z</time></trkpt><trkpt lat="34.961499386949576" lon="-5.063930830481571"><ele>453.0</ele><time>2026-04-28T11:17:05Z</time></trkpt><trkpt lat="34.96145625213232" lon="-5.063845712169225"><ele>452.2</ele><time>2026-04-28T11:17:06Z</time></trkpt><trkpt lat="34.96140576483225" lon="-5.063761318459654"><ele>451.4</ele><time>2026-04-28T11:17:07Z</time></trkpt><trkpt lat="34.96133889151032" lon="-5.063663687697942"><ele>450.59999999999997</ele><time>2026-04-28T11:17:08Z</time></trkpt><trkpt lat="34.961237614272264" lon="-5.063595851612994"><ele>449.79999999999995</ele><time>2026-04-28T11:17:09Z</time></trkpt><trkpt lat="34.96112170395628" lon="-5.063527150044924"><ele>449.0</ele><time>2026-04-28T11:17:10Z</time></trkpt><trkpt lat="34.96099893492004" lon="-5.063457696502984"><ele>449.0</ele><time>2026-04-28T11:17:11Z</time></trkpt><trkpt lat="34.96086812507871" lon="-5.063383710351648"><ele>449.0</ele><time>2026-04-28T11:17:12Z</time></trkpt><trkpt lat="34.96071903977517" lon="-5.06329844470055"><ele>449.0</ele><time>2026-04-28T11:17:12.999Z</time></trkpt><trkpt lat="34.96057248644173" lon="-5.063222156439467"><ele>447.5</ele><time>2026-04-28T11:17:13.999Z</time></trkpt><trkpt lat="34.960441473185945" lon="-5.06314354571564"><ele>446.0</ele><time>2026-04-28T11:17:14.999Z</time></trkpt><trkpt lat="34.96033323088937" lon="-5.0630410334013405"><ele>444.5</ele><time>2026-04-28T11:17:15.999Z</time></trkpt><trkpt lat="34.96024180164922" lon="-5.062917770554154"><ele>443.0</ele><time>2026-04-28T11:17:16.999Z</time></trkpt><trkpt lat="34.96012600577372" lon="-5.062827360872873"><ele>444.5</ele><time>2026-04-28T11:17:17.999Z</time></trkpt><trkpt lat="34.960012946298065" lon="-5.062739963270844"><ele>446.0</ele><time>2026-04-28T11:17:18.999Z</time></trkpt><trkpt lat="34.95988805550609" lon="-5.062739894513584"><ele>447.5</ele><time>2026-04-28T11:17:19.999Z</time></trkpt><trkpt lat="34.959756854128614" lon="-5.062732934775818"><ele>449.0</ele><time>2026-04-28T11:17:20.999Z</time></trkpt><trkpt lat="34.95962719930973" lon="-5.062754704431402"><ele>449.0</ele><time>2026-04-28T11:17:21.999Z</time></trkpt><trkpt lat="34.95950128002632" lon="-5.062799266836046"><ele>449.0</ele><time>2026-04-28T11:17:22.999Z</time></trkpt><trkpt lat="34.959390750232934" lon="-5.062881020198291"><ele>449.0</ele><time>2026-04-28T11:17:23.999Z</time></trkpt><trkpt lat="34.959264879959534" lon="-5.062957677000439"><ele>449.0</ele><time>2026-04-28T11:17:24.999Z</time></trkpt><trkpt lat="34.9591372775111" lon="-5.0630413176122335"><ele>449.0</ele><time>2026-04-28T11:17:25.999Z</time></trkpt><trkpt lat="34.95901253150679" lon="-5.063140809740971"><ele>449.0</ele><time>2026-04-28T11:17:26.999Z</time></trkpt><trkpt lat="34.958887097325615" lon="-5.063229374808706"><ele>449.0</ele><time>2026-04-28T11:17:27.999Z</time></trkpt><trkpt lat="34.95877270825571" lon="-5.063317245050169"><ele>449.0</ele><time>2026-04-28T11:17:28.999Z</time></trkpt><trkpt lat="34.9586702465442" lon="-5.06340401196538"><ele>451.6</ele><time>2026-04-28T11:17:29.999Z</time></trkpt><trkpt lat="34.95857412737237" lon="-5.063474644159846"><ele>454.2</ele><time>2026-04-28T11:17:30.999Z</time></trkpt><trkpt lat="34.95848355484223" lon="-5.063513420849981"><ele>456.80000000000007</ele><time>2026-04-28T11:17:31.999Z</time></trkpt><trkpt lat="34.958390585962526" lon="-5.06352968249996"><ele>459.40000000000003</ele><time>2026-04-28T11:17:32.999Z</time></trkpt><trkpt lat="34.95829317063292" lon="-5.063529416155149"><ele>462.0</ele><time>2026-04-28T11:17:33.999Z</time></trkpt><trkpt lat="34.958189449386" lon="-5.063507770215221"><ele>462.0</ele><time>2026-04-28T11:17:34.999Z</time></trkpt><trkpt lat="34.95807415678919" lon="-5.063476124555713"><ele>462.0</ele><time>2026-04-28T11:17:35.999Z</time></trkpt><trkpt lat="34.95795449464324" lon="-5.063436828060833"><ele>462.0</ele><time>2026-04-28T11:17:36.999Z</time></trkpt><trkpt lat="34.95783782151441" lon="-5.063408475731207"><ele>462.0</ele><time>2026-04-28T11:17:37.999Z</time></trkpt><trkpt lat="34.957721561620126" lon="-5.063392270282352"><ele>462.0</ele><time>2026-04-28T11:17:38.999Z</time></trkpt><trkpt lat="34.95761109862099" lon="-5.063376525024758"><ele>462.00000000000006</ele><time>2026-04-28T11:17:39.999Z</time></trkpt><trkpt lat="34.95751148741504" lon="-5.063355043411904"><ele>462.00000000000006</ele><time>2026-04-28T11:17:40.999Z</time></trkpt><trkpt lat="34.95741978526063" lon="-5.063322584694965"><ele>462.0</ele><time>2026-04-28T11:17:41.999Z</time></trkpt><trkpt lat="34.95732753813746" lon="-5.063273410197621"><ele>462.0</ele><time>2026-04-28T11:17:42.999Z</time></trkpt><trkpt lat="34.957241286412575" lon="-5.063199883421135"><ele>459.40000000000003</ele><time>2026-04-28T11:17:43.999Z</time></trkpt><trkpt lat="34.95716066261626" lon="-5.063109213239439"><ele>456.80000000000007</ele><time>2026-04-28T11:17:44.999Z</time></trkpt><trkpt lat="34.957088199148025" lon="-5.063015054903873"><ele>454.2</ele><time>2026-04-28T11:17:45.999Z</time></trkpt><trkpt lat="34.957017914949716" lon="-5.062918766247241"><ele>451.6</ele><time>2026-04-28T11:17:46.999Z</time></trkpt><trkpt lat="34.956946317731834" lon="-5.0628285375452835"><ele>449.0</ele><time>2026-04-28T11:17:47.999Z</time></trkpt><trkpt lat="34.956842347160844" lon="-5.062810501786667"><ele>449.0</ele><time>2026-04-28T11:17:48.999Z</time></trkpt><trkpt lat="34.95675051526464" lon="-5.062790392066547"><ele>449.0</ele><time>2026-04-28T11:17:49.999Z</time></trkpt><trkpt lat="34.95663800279372" lon="-5.0627808279214035"><ele>449.0</ele><time>2026-04-28T11:17:50.999Z</time></trkpt><trkpt lat="34.956522693615966" lon="-5.062790894105355"><ele>449.0</ele><time>2026-04-28T11:17:51.999Z</time></trkpt><trkpt lat="34.95640611668816" lon="-5.062796784313292"><ele>449.0</ele><time>2026-04-28T11:17:52.999Z</time></trkpt><trkpt lat="34.956298601459714" lon="-5.062784259247449"><ele>450.2</ele><time>2026-04-28T11:17:53.999Z</time></trkpt><trkpt lat="34.95621192605713" lon="-5.0628581449286845"><ele>451.4</ele><time>2026-04-28T11:17:54.999Z</time></trkpt><trkpt lat="34.956117571191804" lon="-5.062906209195434"><ele>452.6</ele><time>2026-04-28T11:17:55.999Z</time></trkpt><trkpt lat="34.95604046298479" lon="-5.0629962828404365"><ele>453.8</ele><time>2026-04-28T11:17:56.999Z</time></trkpt><trkpt lat="34.95597955402162" lon="-5.063105853887385"><ele>455.0</ele><time>2026-04-28T11:17:57.999Z</time></trkpt><trkpt lat="34.955937391902175" lon="-5.06323160579396"><ele>457.8</ele><time>2026-04-28T11:17:58.999Z</time></trkpt><trkpt lat="34.955921147540145" lon="-5.063371940992427"><ele>460.6</ele><time>2026-04-28T11:17:59.999Z</time></trkpt><trkpt lat="34.95593657609202" lon="-5.063504031210373"><ele>463.4</ele><time>2026-04-28T11:18:00.999Z</time></trkpt><trkpt lat="34.9559783073862" lon="-5.0636230096528125"><ele>466.2</ele><time>2026-04-28T11:18:01.999Z</time></trkpt><trkpt lat="34.95602789665533" lon="-5.0637402715233435"><ele>469.0</ele><time>2026-04-28T11:18:02.999Z</time></trkpt><trkpt lat="34.95605836444531" lon="-5.063865811868967"><ele>469.0</ele><time>2026-04-28T11:18:03.999Z</time></trkpt><trkpt lat="34.95608715617016" lon="-5.0639980401485385"><ele>469.0</ele><time>2026-04-28T11:18:04.999Z</time></trkpt><trkpt lat="34.95606904857942" lon="-5.064148320455597"><ele>469.0</ele><time>2026-04-28T11:18:05.999Z</time></trkpt><trkpt lat="34.956034000322425" lon="-5.064296219457138"><ele>469.0</ele><time>2026-04-28T11:18:06.999Z</time></trkpt><trkpt lat="34.955979863442515" lon="-5.064452554716623"><ele>469.5</ele><time>2026-04-28T11:18:07.999Z</time></trkpt><trkpt lat="34.95591749753146" lon="-5.064598014940211"><ele>470.0</ele><time>2026-04-28T11:18:08.999Z</time></trkpt><trkpt lat="34.95585431445815" lon="-5.064740840107875"><ele>470.5</ele><time>2026-04-28T11:18:09.999Z</time></trkpt><trkpt lat="34.95578536465609" lon="-5.0648701091682415"><ele>471.0</ele><time>2026-04-28T11:18:10.999Z</time></trkpt><trkpt lat="34.95571771752143" lon="-5.064996243915414"><ele>466.75</ele><time>2026-04-28T11:18:11.999Z</time></trkpt><trkpt lat="34.9556490266594" lon="-5.065116100006574"><ele>462.5</ele><time>2026-04-28T11:18:12.999Z</time></trkpt><trkpt lat="34.95557150771851" lon="-5.065221753988669"><ele>458.25</ele><time>2026-04-28T11:18:13.999Z</time></trkpt><trkpt lat="34.955479743052116" lon="-5.065300851111968"><ele>454.0</ele><time>2026-04-28T11:18:14.999Z</time></trkpt><trkpt lat="34.95537267647981" lon="-5.065354421959033"><ele>454.0</ele><time>2026-04-28T11:18:15.999Z</time></trkpt><trkpt lat="34.95525428654627" lon="-5.065378733139674"><ele>454.0</ele><time>2026-04-28T11:18:16.999Z</time></trkpt><trkpt lat="34.95513188449117" lon="-5.065414128924142"><ele>454.0</ele><time>2026-04-28T11:18:17.999Z</time></trkpt><trkpt lat="34.95500275239075" lon="-5.065428230854007"><ele>454.0</ele><time>2026-04-28T11:18:18.999Z</time></trkpt><trkpt lat="34.95487232069314" lon="-5.065461099775657"><ele>450.5</ele><time>2026-04-28T11:18:19.999Z</time></trkpt><trkpt lat="34.95474512210851" lon="-5.065494294516664"><ele>447.0</ele><time>2026-04-28T11:18:20.999Z</time></trkpt><trkpt lat="34.95461766715526" lon="-5.065507190244165"><ele>443.5</ele><time>2026-04-28T11:18:21.999Z</time></trkpt><trkpt lat="34.95450225858765" lon="-5.0655407050917525"><ele>440.0</ele><time>2026-04-28T11:18:22.999Z</time></trkpt><trkpt lat="34.95439645247504" lon="-5.065580301013228"><ele>440.0</ele><time>2026-04-28T11:18:23.999Z</time></trkpt><trkpt lat="34.954287372001644" lon="-5.065569831005746"><ele>440.0</ele><time>2026-04-28T11:18:24.999Z</time></trkpt><trkpt lat="34.95419064265931" lon="-5.065497124110465"><ele>440.0</ele><time>2026-04-28T11:18:25.999Z</time></trkpt><trkpt lat="34.95410410057198" lon="-5.06541537700321"><ele>440.0</ele><time>2026-04-28T11:18:26.999Z</time></trkpt><trkpt lat="34.95403526288717" lon="-5.065300784361589"><ele>440.0</ele><time>2026-04-28T11:18:27.999Z</time></trkpt><trkpt lat="34.95399112993866" lon="-5.065160185035594"><ele>438.75</ele><time>2026-04-28T11:18:28.999Z</time></trkpt><trkpt lat="34.95394569587363" lon="-5.065004272150805"><ele>437.5</ele><time>2026-04-28T11:18:30Z</time></trkpt><trkpt lat="34.95390169055172" lon="-5.064837715552832"><ele>436.25</ele><time>2026-04-28T11:18:31Z</time></trkpt><trkpt lat="34.95387024660267" lon="-5.064665914202654"><ele>435.0</ele><time>2026-04-28T11:18:32Z</time></trkpt><trkpt lat="34.95385677491133" lon="-5.064489697495004"><ele>433.75</ele><time>2026-04-28T11:18:33Z</time></trkpt><trkpt lat="34.953813511329884" lon="-5.064336182386373"><ele>432.5</ele><time>2026-04-28T11:18:34Z</time></trkpt><trkpt lat="34.953784803295065" lon="-5.064191278519625"><ele>431.25</ele><time>2026-04-28T11:18:35Z</time></trkpt><trkpt lat="34.95375696466851" lon="-5.064051598410076"><ele>430.0</ele><time>2026-04-28T11:18:36Z</time></trkpt><trkpt lat="34.95366759262159" lon="-5.063792932049295"><ele>427.33333333333337</ele><time>2026-04-28T11:18:37Z</time></trkpt><trkpt lat="34.953600463826405" lon="-5.063611580163974"><ele>424.66666666666663</ele><time>2026-04-28T11:18:38Z</time></trkpt><trkpt lat="34.953525024298045" lon="-5.063436774315774"><ele>422.0</ele><time>2026-04-28T11:18:39Z</time></trkpt><trkpt lat="34.95345602742793" lon="-5.063271052206573"><ele>423.0</ele><time>2026-04-28T11:18:40Z</time></trkpt><trkpt lat="34.95339618018519" lon="-5.0631079110377195"><ele>424.0</ele><time>2026-04-28T11:18:41Z</time></trkpt><trkpt lat="34.95335753370633" lon="-5.0629615921045925"><ele>425.0</ele><time>2026-04-28T11:18:42Z</time></trkpt><trkpt lat="34.953327963378484" lon="-5.062817746750301"><ele>426.0</ele><time>2026-04-28T11:18:43Z</time></trkpt><trkpt lat="34.95330029522204" lon="-5.062690822129027"><ele>426.0</ele><time>2026-04-28T11:18:44Z</time></trkpt><trkpt lat="34.95327040479497" lon="-5.062566649752328"><ele>426.0</ele><time>2026-04-28T11:18:45Z</time></trkpt><trkpt lat="34.95324847128577" lon="-5.062441678954933"><ele>426.0</ele><time>2026-04-28T11:18:46Z</time></trkpt><trkpt lat="34.95323577493275" lon="-5.062312726613432"><ele>426.0</ele><time>2026-04-28T11:18:47Z</time></trkpt><trkpt lat="34.953222495319764" lon="-5.062181986414143"><ele>426.0</ele><time>2026-04-28T11:18:48Z</time></trkpt><trkpt lat="34.95321306333382" lon="-5.062058365268006"><ele>424.75</ele><time>2026-04-28T11:18:49Z</time></trkpt><trkpt lat="34.95320014798562" lon="-5.061932036246865"><ele>423.5</ele><time>2026-04-28T11:18:50Z</time></trkpt><trkpt lat="34.95317267457053" lon="-5.061797386305946"><ele>422.25</ele><time>2026-04-28T11:18:51Z</time></trkpt><trkpt lat="34.95313217630217" lon="-5.061659606662073"><ele>421.0</ele><time>2026-04-28T11:18:52Z</time></trkpt><trkpt lat="34.95307897470202" lon="-5.061535129747902"><ele>419.25</ele><time>2026-04-28T11:18:53Z</time></trkpt><trkpt lat="34.953046717840046" lon="-5.061411834648466"><ele>417.5</ele><time>2026-04-28T11:18:54Z</time></trkpt><trkpt lat="34.95296086463381" lon="-5.061321562455067"><ele>415.75</ele><time>2026-04-28T11:18:55Z</time></trkpt><trkpt lat="34.95286824295624" lon="-5.061219653656247"><ele>414.0</ele><time>2026-04-28T11:18:56Z</time></trkpt><trkpt lat="34.952736148647475" lon="-5.061193633643861"><ele>414.0</ele><time>2026-04-28T11:18:57Z</time></trkpt><trkpt lat="34.95261810051614" lon="-5.061164678839805"><ele>414.0</ele><time>2026-04-28T11:18:58Z</time></trkpt><trkpt lat="34.952516421219514" lon="-5.0611271940384155"><ele>414.0</ele><time>2026-04-28T11:18:59Z</time></trkpt><trkpt lat="34.952426985644856" lon="-5.061066590066745"><ele>414.0</ele><time>2026-04-28T11:19:00Z</time></trkpt><trkpt lat="34.952332637088894" lon="-5.060998958442466"><ele>414.0</ele><time>2026-04-28T11:19:01Z</time></trkpt><trkpt lat="34.9522623595358" lon="-5.060878314309239"><ele>415.5</ele><time>2026-04-28T11:19:02Z</time></trkpt><trkpt lat="34.95219706737493" lon="-5.060754867228167"><ele>417.0</ele><time>2026-04-28T11:19:03Z</time></trkpt><trkpt lat="34.952161864518104" lon="-5.060613838002638"><ele>418.5</ele><time>2026-04-28T11:19:04Z</time></trkpt><trkpt lat="34.95215535988938" lon="-5.060462827898699"><ele>420.0</ele><time>2026-04-28T11:19:05Z</time></trkpt><trkpt lat="34.9521703058429" lon="-5.060313782237529"><ele>420.0</ele><time>2026-04-28T11:19:06Z</time></trkpt><trkpt lat="34.95221656749041" lon="-5.060175238037465"><ele>420.0</ele><time>2026-04-28T11:19:07Z</time></trkpt><trkpt lat="34.95230055838671" lon="-5.060057276159919"><ele>420.0</ele><time>2026-04-28T11:19:08Z</time></trkpt><trkpt lat="34.95238662717365" lon="-5.059938110304402"><ele>420.0</ele><time>2026-04-28T11:19:08.999Z</time></trkpt><trkpt lat="34.95250980539752" lon="-5.059862520894858"><ele>416.0</ele><time>2026-04-28T11:19:09.999Z</time></trkpt><trkpt lat="34.95259612542866" lon="-5.059755445530273"><ele>412.0</ele><time>2026-04-28T11:19:10.999Z</time></trkpt><trkpt lat="34.95265737591589" lon="-5.059623338447876"><ele>408.0</ele><time>2026-04-28T11:19:11.999Z</time></trkpt><trkpt lat="34.952699278860614" lon="-5.059475171093697"><ele>404.0</ele><time>2026-04-28T11:19:12.999Z</time></trkpt><trkpt lat="34.952699860917036" lon="-5.0593132429684005"><ele>404.0</ele><time>2026-04-28T11:19:13.999Z</time></trkpt><trkpt lat="34.952714309631354" lon="-5.059153879294741"><ele>404.0</ele><time>2026-04-28T11:19:14.999Z</time></trkpt><trkpt lat="34.95270160992144" lon="-5.059003540770472"><ele>404.0</ele><time>2026-04-28T11:19:15.999Z</time></trkpt><trkpt lat="34.95267681143462" lon="-5.058864822406728"><ele>404.0</ele><time>2026-04-28T11:19:16.999Z</time></trkpt><trkpt lat="34.952636454283216" lon="-5.058726341874808"><ele>404.25</ele><time>2026-04-28T11:19:17.999Z</time></trkpt><trkpt lat="34.95258172857648" lon="-5.058587236631889"><ele>404.5</ele><time>2026-04-28T11:19:18.999Z</time></trkpt><trkpt lat="34.95251572341065" lon="-5.058460901074543"><ele>404.75</ele><time>2026-04-28T11:19:19.999Z</time></trkpt><trkpt lat="34.95243877472872" lon="-5.058349436466348"><ele>405.0</ele><time>2026-04-28T11:19:20.999Z</time></trkpt><trkpt lat="34.952347813935226" lon="-5.058254426133861"><ele>405.4</ele><time>2026-04-28T11:19:21.999Z</time></trkpt><trkpt lat="34.952232400373745" lon="-5.058216040012636"><ele>405.8</ele><time>2026-04-28T11:19:22.999Z</time></trkpt><trkpt lat="34.952125265393406" lon="-5.058160250267016"><ele>406.20000000000005</ele><time>2026-04-28T11:19:23.999Z</time></trkpt><trkpt lat="34.952027034823324" lon="-5.0581043171037114"><ele>406.6</ele><time>2026-04-28T11:19:24.999Z</time></trkpt><trkpt lat="34.95193783385727" lon="-5.058038115970607"><ele>407.0</ele><time>2026-04-28T11:19:25.999Z</time></trkpt><trkpt lat="34.951848180528856" lon="-5.057979237653223"><ele>407.0</ele><time>2026-04-28T11:19:26.999Z</time></trkpt><trkpt lat="34.95177169933172" lon="-5.0579002939132085"><ele>407.0</ele><time>2026-04-28T11:19:27.999Z</time></trkpt><trkpt lat="34.95168472181309" lon="-5.057836352739034"><ele>407.0</ele><time>2026-04-28T11:19:28.999Z</time></trkpt><trkpt lat="34.951686253151394" lon="-5.05766521351071"><ele>407.0</ele><time>2026-04-28T11:19:29.999Z</time></trkpt><trkpt lat="34.95169949661933" lon="-5.057530723338614"><ele>405.5</ele><time>2026-04-28T11:19:30.999Z</time></trkpt><trkpt lat="34.951747926935916" lon="-5.057404618806875"><ele>404.0</ele><time>2026-04-28T11:19:31.999Z</time></trkpt><trkpt lat="34.951818503094884" lon="-5.05727275655072"><ele>402.5</ele><time>2026-04-28T11:19:32.999Z</time></trkpt><trkpt lat="34.95188834733771" lon="-5.0571430408628695"><ele>401.0</ele><time>2026-04-28T11:19:33.999Z</time></trkpt><trkpt lat="34.951938135983134" lon="-5.057006321060978"><ele>401.0</ele><time>2026-04-28T11:19:34.999Z</time></trkpt><trkpt lat="34.95196401306578" lon="-5.056855218732512"><ele>401.0</ele><time>2026-04-28T11:19:35.999Z</time></trkpt><trkpt lat="34.95198189635112" lon="-5.056693207786012"><ele>401.0</ele><time>2026-04-28T11:19:36.999Z</time></trkpt><trkpt lat="34.95200556531118" lon="-5.0565280671626995"><ele>401.0</ele><time>2026-04-28T11:19:37.999Z</time></trkpt><trkpt lat="34.95203753280958" lon="-5.056358628492758"><ele>400.75</ele><time>2026-04-28T11:19:38.999Z</time></trkpt><trkpt lat="34.952058221657765" lon="-5.056184257012133"><ele>400.5</ele><time>2026-04-28T11:19:39.999Z</time></trkpt><trkpt lat="34.95207647756302" lon="-5.056004434248676"><ele>400.25</ele><time>2026-04-28T11:19:40.999Z</time></trkpt><trkpt lat="34.95209999129732" lon="-5.055822433771013"><ele>400.0</ele><time>2026-04-28T11:19:41.999Z</time></trkpt><trkpt lat="34.952125957711175" lon="-5.055643136989902"><ele>399.25</ele><time>2026-04-28T11:19:42.999Z</time></trkpt><trkpt lat="34.9521244190836" lon="-5.055474346295723"><ele>398.5</ele><time>2026-04-28T11:19:43.999Z</time></trkpt><trkpt lat="34.95211208957496" lon="-5.055310292665537"><ele>397.75</ele><time>2026-04-28T11:19:44.999Z</time></trkpt><trkpt lat="34.95210552671175" lon="-5.055150427084891"><ele>397.0</ele><time>2026-04-28T11:19:45.999Z</time></trkpt><trkpt lat="34.95209981587683" lon="-5.054993172506205"><ele>395.0</ele><time>2026-04-28T11:19:46.999Z</time></trkpt><trkpt lat="34.95208308217043" lon="-5.054830738894002"><ele>393.0</ele><time>2026-04-28T11:19:47.999Z</time></trkpt><trkpt lat="34.952065484583684" lon="-5.0546672773112675"><ele>391.0</ele><time>2026-04-28T11:19:48.999Z</time></trkpt><trkpt lat="34.952041638513485" lon="-5.054500397061156"><ele>389.0</ele><time>2026-04-28T11:19:49.999Z</time></trkpt><trkpt lat="34.95200913774151" lon="-5.054337808650499"><ele>389.0</ele><time>2026-04-28T11:19:50.999Z</time></trkpt><trkpt lat="34.95196985713217" lon="-5.054179425501598"><ele>389.0</ele><time>2026-04-28T11:19:51.999Z</time></trkpt><trkpt lat="34.95192504742798" lon="-5.0540203596847455"><ele>389.0</ele><time>2026-04-28T11:19:52.999Z</time></trkpt><trkpt lat="34.95187710639275" lon="-5.0538678100060075"><ele>389.0</ele><time>2026-04-28T11:19:53.999Z</time></trkpt><trkpt lat="34.951818943786876" lon="-5.0537211123605"><ele>389.75</ele><time>2026-04-28T11:19:54.999Z</time></trkpt><trkpt lat="34.95173892884925" lon="-5.053591632684372"><ele>390.5</ele><time>2026-04-28T11:19:55.999Z</time></trkpt><trkpt lat="34.95164532441824" lon="-5.053470040810893"><ele>391.25</ele><time>2026-04-28T11:19:56.999Z</time></trkpt><trkpt lat="34.951553403490486" lon="-5.053346577502321"><ele>392.0</ele><time>2026-04-28T11:19:57.999Z</time></trkpt><trkpt lat="34.95146525120424" lon="-5.053219745341773"><ele>392.0</ele><time>2026-04-28T11:19:58.999Z</time></trkpt><trkpt lat="34.95137751963353" lon="-5.0530922343560345"><ele>392.0</ele><time>2026-04-28T11:19:59.999Z</time></trkpt><trkpt lat="34.951292254434286" lon="-5.052961726672201"><ele>392.0</ele><time>2026-04-28T11:20:00.999Z</time></trkpt><trkpt lat="34.951204465602686" lon="-5.052834768190619"><ele>392.0</ele><time>2026-04-28T11:20:01.999Z</time></trkpt><trkpt lat="34.95111806750886" lon="-5.0527112262562115"><ele>392.0</ele><time>2026-04-28T11:20:02.999Z</time></trkpt><trkpt lat="34.951032459104546" lon="-5.052589009555334"><ele>392.0</ele><time>2026-04-28T11:20:03.999Z</time></trkpt><trkpt lat="34.95094729769216" lon="-5.052467030236335"><ele>392.0</ele><time>2026-04-28T11:20:04.999Z</time></trkpt><trkpt lat="34.95086260041705" lon="-5.052347974226861"><ele>392.0</ele><time>2026-04-28T11:20:05.999Z</time></trkpt><trkpt lat="34.95077462078149" lon="-5.052229279858332"><ele>393.0</ele><time>2026-04-28T11:20:06.999Z</time></trkpt><trkpt lat="34.9506877282894" lon="-5.052113955799696"><ele>394.0</ele><time>2026-04-28T11:20:07.999Z</time></trkpt><trkpt lat="34.95060336332664" lon="-5.051994358147397"><ele>395.0</ele><time>2026-04-28T11:20:08.999Z</time></trkpt><trkpt lat="34.95052932553995" lon="-5.051868451145722"><ele>396.0</ele><time>2026-04-28T11:20:09.999Z</time></trkpt><trkpt lat="34.95046782201021" lon="-5.051730085749262"><ele>394.0</ele><time>2026-04-28T11:20:10.999Z</time></trkpt><trkpt lat="34.95040378373472" lon="-5.051583083835457"><ele>392.0</ele><time>2026-04-28T11:20:11.999Z</time></trkpt><trkpt lat="34.950341333515716" lon="-5.051438635839551"><ele>390.0</ele><time>2026-04-28T11:20:12.999Z</time></trkpt><trkpt lat="34.95027349611467" lon="-5.051295779513418"><ele>388.0</ele><time>2026-04-28T11:20:13.999Z</time></trkpt><trkpt lat="34.95020372655578" lon="-5.051148716730357"><ele>388.0</ele><time>2026-04-28T11:20:14.999Z</time></trkpt><trkpt lat="34.950138070869095" lon="-5.050994458162933"><ele>388.0</ele><time>2026-04-28T11:20:15.999Z</time></trkpt><trkpt lat="34.95006829714017" lon="-5.050841005234384"><ele>388.0</ele><time>2026-04-28T11:20:16.999Z</time></trkpt><trkpt lat="34.94999466226651" lon="-5.0506919098346135"><ele>388.0</ele><time>2026-04-28T11:20:17.999Z</time></trkpt><trkpt lat="34.94992104881359" lon="-5.050537402956144"><ele>388.0</ele><time>2026-04-28T11:20:18.999Z</time></trkpt><trkpt lat="34.94984138583226" lon="-5.050386953216734"><ele>388.0</ele><time>2026-04-28T11:20:19.999Z</time></trkpt><trkpt lat="34.9497630040567" lon="-5.050236375752269"><ele>388.0</ele><time>2026-04-28T11:20:20.999Z</time></trkpt><trkpt lat="34.94969962159396" lon="-5.050077530803712"><ele>388.0</ele><time>2026-04-28T11:20:21.999Z</time></trkpt><trkpt lat="34.94965021685601" lon="-5.049904731689359"><ele>386.25</ele><time>2026-04-28T11:20:22.999Z</time></trkpt><trkpt lat="34.94961826613173" lon="-5.049725476756943"><ele>384.5</ele><time>2026-04-28T11:20:23.999Z</time></trkpt><trkpt lat="34.94960186649052" lon="-5.0495457764710645"><ele>382.75</ele><time>2026-04-28T11:20:24.999Z</time></trkpt><trkpt lat="34.94958469621684" lon="-5.049370752393666"><ele>381.0</ele><time>2026-04-28T11:20:25.999Z</time></trkpt><trkpt lat="34.94955431871483" lon="-5.049202825092295"><ele>379.75</ele><time>2026-04-28T11:20:26.999Z</time></trkpt><trkpt lat="34.94951403160728" lon="-5.049039432944217"><ele>378.5</ele><time>2026-04-28T11:20:27.999Z</time></trkpt><trkpt lat="34.949433888719554" lon="-5.048897105649659"><ele>377.25</ele><time>2026-04-28T11:20:28.999Z</time></trkpt><trkpt lat="34.9493732192307" lon="-5.048737894701252"><ele>376.0</ele><time>2026-04-28T11:20:29.999Z</time></trkpt><trkpt lat="34.94927608106568" lon="-5.0486004854879"><ele>377.75</ele><time>2026-04-28T11:20:30.999Z</time></trkpt><trkpt lat="34.94917349204452" lon="-5.048469852535282"><ele>379.5</ele><time>2026-04-28T11:20:31.999Z</time></trkpt><trkpt lat="34.94908181895896" lon="-5.048332121719697"><ele>381.25</ele><time>2026-04-28T11:20:32.999Z</time></trkpt><trkpt lat="34.948993174212326" lon="-5.048185731412574"><ele>383.0</ele><time>2026-04-28T11:20:33.999Z</time></trkpt><trkpt lat="34.948908456001675" lon="-5.0480468216213605"><ele>383.0</ele><time>2026-04-28T11:20:34.999Z</time></trkpt><trkpt lat="34.948820232380086" lon="-5.047911172040568"><ele>383.0</ele><time>2026-04-28T11:20:36Z</time></trkpt><trkpt lat="34.94873104461362" lon="-5.047778267155594"><ele>383.0</ele><time>2026-04-28T11:20:37Z</time></trkpt><trkpt lat="34.948644688487306" lon="-5.0476422058605905"><ele>383.0</ele><time>2026-04-28T11:20:38Z</time></trkpt><trkpt lat="34.94855774443553" lon="-5.047511089133825"><ele>382.25</ele><time>2026-04-28T11:20:39Z</time></trkpt><trkpt lat="34.948473040891386" lon="-5.047380172099057"><ele>381.5</ele><time>2026-04-28T11:20:40Z</time></trkpt><trkpt lat="34.94838522625778" lon="-5.047250367143752"><ele>380.75</ele><time>2026-04-28T11:20:41Z</time></trkpt><trkpt lat="34.94828704457097" lon="-5.047137007638708"><ele>380.0</ele><time>2026-04-28T11:20:42Z</time></trkpt><trkpt lat="34.94817028431059" lon="-5.04704009148298"><ele>380.0</ele><time>2026-04-28T11:20:43Z</time></trkpt><trkpt lat="34.94804631797027" lon="-5.04694595574228"><ele>380.0</ele><time>2026-04-28T11:20:44Z</time></trkpt><trkpt lat="34.94791791417756" lon="-5.04685408528108"><ele>380.0</ele><time>2026-04-28T11:20:45Z</time></trkpt><trkpt lat="34.94777540582201" lon="-5.0467936768863435"><ele>380.0</ele><time>2026-04-28T11:20:46Z</time></trkpt><trkpt lat="34.94763448556901" lon="-5.046738980237188"><ele>381.5</ele><time>2026-04-28T11:20:47Z</time></trkpt><trkpt lat="34.94749581839762" lon="-5.046709521314667"><ele>383.0</ele><time>2026-04-28T11:20:48Z</time></trkpt><trkpt lat="34.94735361763762" lon="-5.046678632028434"><ele>384.5</ele><time>2026-04-28T11:20:49Z</time></trkpt><trkpt lat="34.94721575919724" lon="-5.0466732921592925"><ele>386.0</ele><time>2026-04-28T11:20:50Z</time></trkpt><trkpt lat="34.94707324820088" lon="-5.046644680363566"><ele>380.3333333333333</ele><time>2026-04-28T11:20:51Z</time></trkpt><trkpt lat="34.9469285683703" lon="-5.046583377342713"><ele>374.66666666666663</ele><time>2026-04-28T11:20:52Z</time></trkpt><trkpt lat="34.94678836267519" lon="-5.046494301235713"><ele>369.0</ele><time>2026-04-28T11:20:53Z</time></trkpt><trkpt lat="34.94664930067756" lon="-5.046391537291325"><ele>369.0</ele><time>2026-04-28T11:20:54Z</time></trkpt><trkpt lat="34.94650364634009" lon="-5.046294782802184"><ele>369.0</ele><time>2026-04-28T11:20:55Z</time></trkpt><trkpt lat="34.9463503657892" lon="-5.046213555743918"><ele>369.0</ele><time>2026-04-28T11:20:56Z</time></trkpt><trkpt lat="34.94618821554596" lon="-5.046153847205506"><ele>369.0</ele><time>2026-04-28T11:20:57Z</time></trkpt><trkpt lat="34.946021705172825" lon="-5.046149168490435"><ele>369.0</ele><time>2026-04-28T11:20:58Z</time></trkpt><trkpt lat="34.94585401046637" lon="-5.046122181827706"><ele>369.0</ele><time>2026-04-28T11:20:59Z</time></trkpt><trkpt lat="34.945690911527926" lon="-5.046111071032098"><ele>370.0</ele><time>2026-04-28T11:21:00Z</time></trkpt><trkpt lat="34.94552617513654" lon="-5.046083193297103"><ele>371.0</ele><time>2026-04-28T11:21:01Z</time></trkpt><trkpt lat="34.94536322221204" lon="-5.046050429068256"><ele>372.0</ele><time>2026-04-28T11:21:02Z</time></trkpt><trkpt lat="34.94520120460956" lon="-5.046019563088856"><ele>373.6666666666667</ele><time>2026-04-28T11:21:03Z</time></trkpt><trkpt lat="34.94504242337976" lon="-5.045991701177837"><ele>375.33333333333337</ele><time>2026-04-28T11:21:04Z</time></trkpt><trkpt lat="34.94488438085241" lon="-5.045961433330627"><ele>377.0</ele><time>2026-04-28T11:21:05Z</time></trkpt><trkpt lat="34.944728536315544" lon="-5.045936148383503"><ele>377.0</ele><time>2026-04-28T11:21:06Z</time></trkpt><trkpt lat="34.94457301678685" lon="-5.045908724634787"><ele>377.0</ele><time>2026-04-28T11:21:07Z</time></trkpt><trkpt lat="34.944414534155655" lon="-5.045900597826615"><ele>377.0</ele><time>2026-04-28T11:21:08Z</time></trkpt><trkpt lat="34.94425747251412" lon="-5.045878563009549"><ele>378.33333333333337</ele><time>2026-04-28T11:21:09Z</time></trkpt><trkpt lat="34.944098891642874" lon="-5.045855909822826"><ele>379.6666666666667</ele><time>2026-04-28T11:21:10Z</time></trkpt><trkpt lat="34.94394342044729" lon="-5.045814958511645"><ele>381.0</ele><time>2026-04-28T11:21:11Z</time></trkpt><trkpt lat="34.94378419120349" lon="-5.045796256903442"><ele>376.3333333333333</ele><time>2026-04-28T11:21:12Z</time></trkpt><trkpt lat="34.943627197251764" lon="-5.045777225738852"><ele>371.66666666666663</ele><time>2026-04-28T11:21:13Z</time></trkpt><trkpt lat="34.94346693743228" lon="-5.045755904876247"><ele>367.0</ele><time>2026-04-28T11:21:14Z</time></trkpt><trkpt lat="34.94330386628064" lon="-5.045734977617374"><ele>367.0</ele><time>2026-04-28T11:21:14.999Z</time></trkpt><trkpt lat="34.94314008955535" lon="-5.045708553649248"><ele>367.0</ele><time>2026-04-28T11:21:15.999Z</time></trkpt><trkpt lat="34.94297174186792" lon="-5.045679375028214"><ele>367.0</ele><time>2026-04-28T11:21:16.999Z</time></trkpt><trkpt lat="34.94280053066601" lon="-5.045652757203792"><ele>367.0</ele><time>2026-04-28T11:21:17.999Z</time></trkpt><trkpt lat="34.942624132063074" lon="-5.045629517807305"><ele>367.0</ele><time>2026-04-28T11:21:18.999Z</time></trkpt><trkpt lat="34.94244497378542" lon="-5.045603693754701"><ele>367.0</ele><time>2026-04-28T11:21:19.999Z</time></trkpt><trkpt lat="34.94227053946884" lon="-5.045578454122752"><ele>367.66666666666663</ele><time>2026-04-28T11:21:20.999Z</time></trkpt><trkpt lat="34.9420968081965" lon="-5.0455462144017424"><ele>368.3333333333333</ele><time>2026-04-28T11:21:21.999Z</time></trkpt><trkpt lat="34.94191940157733" lon="-5.0455289911561545"><ele>369.0</ele><time>2026-04-28T11:21:22.999Z</time></trkpt><trkpt lat="34.941744614905836" lon="-5.045497078025877"><ele>369.3333333333333</ele><time>2026-04-28T11:21:23.999Z</time></trkpt><trkpt lat="34.94156880634608" lon="-5.045465338111814"><ele>369.66666666666663</ele><time>2026-04-28T11:21:24.999Z</time></trkpt><trkpt lat="34.94139101862046" lon="-5.045433155882795"><ele>370.0</ele><time>2026-04-28T11:21:25.999Z</time></trkpt><trkpt lat="34.94121829267341" lon="-5.045385507295645"><ele>370.0</ele><time>2026-04-28T11:21:26.999Z</time></trkpt><trkpt lat="34.94104362535291" lon="-5.045360374134958"><ele>370.0</ele><time>2026-04-28T11:21:27.999Z</time></trkpt><trkpt lat="34.940872831101025" lon="-5.045319965823108"><ele>370.0</ele><time>2026-04-28T11:21:28.999Z</time></trkpt><trkpt lat="34.94070777418779" lon="-5.045256472889575"><ele>370.0</ele><time>2026-04-28T11:21:29.999Z</time></trkpt><trkpt lat="34.94054242026432" lon="-5.045177505354909"><ele>370.0</ele><time>2026-04-28T11:21:30.999Z</time></trkpt><trkpt lat="34.94038242951096" lon="-5.0450934242075585"><ele>370.0</ele><time>2026-04-28T11:21:31.999Z</time></trkpt><trkpt lat="34.9402252064273" lon="-5.045003630300705"><ele>366.0</ele><time>2026-04-28T11:21:32.999Z</time></trkpt><trkpt lat="34.94007178837857" lon="-5.044939436710758"><ele>362.0</ele><time>2026-04-28T11:21:33.999Z</time></trkpt><trkpt lat="34.939927673846" lon="-5.044881935154225"><ele>358.0</ele><time>2026-04-28T11:21:34.999Z</time></trkpt><trkpt lat="34.9397758564856" lon="-5.044871137037993"><ele>357.3333333333333</ele><time>2026-04-28T11:21:35.999Z</time></trkpt><trkpt lat="34.93962451089016" lon="-5.04485202689119"><ele>356.6666666666667</ele><time>2026-04-28T11:21:36.999Z</time></trkpt><trkpt lat="34.93941674975991" lon="-5.044845249401754"><ele>356.0</ele><time>2026-04-28T11:21:37.999Z</time></trkpt><trkpt lat="34.93923364537793" lon="-5.044845249403319"><ele>354.6666666666667</ele><time>2026-04-28T11:21:38.999Z</time></trkpt><trkpt lat="34.93904572110356" lon="-5.044845536615309"><ele>353.3333333333333</ele><time>2026-04-28T11:21:39.999Z</time></trkpt><trkpt lat="34.938862832778895" lon="-5.044846523677295"><ele>352.0</ele><time>2026-04-28T11:21:40.999Z</time></trkpt><trkpt lat="34.93868339102121" lon="-5.044847285160876"><ele>352.0</ele><time>2026-04-28T11:21:41.999Z</time></trkpt><trkpt lat="34.93850517613422" lon="-5.044848778583061"><ele>352.0</ele><time>2026-04-28T11:21:42.999Z</time></trkpt><trkpt lat="34.93832981981068" lon="-5.044850141908029"><ele>352.0</ele><time>2026-04-28T11:21:43.999Z</time></trkpt><trkpt lat="34.9381639636817" lon="-5.044847393167039"><ele>350.3333333333333</ele><time>2026-04-28T11:21:44.999Z</time></trkpt><trkpt lat="34.93800097610218" lon="-5.044825065459546"><ele>348.6666666666667</ele><time>2026-04-28T11:21:45.999Z</time></trkpt><trkpt lat="34.937844765162914" lon="-5.044802607601271"><ele>347.0</ele><time>2026-04-28T11:21:46.999Z</time></trkpt><trkpt lat="34.93769565680268" lon="-5.0447513425256725"><ele>347.33333333333337</ele><time>2026-04-28T11:21:47.999Z</time></trkpt><trkpt lat="34.93754019898911" lon="-5.044683458017359"><ele>347.6666666666667</ele><time>2026-04-28T11:21:48.999Z</time></trkpt><trkpt lat="34.93739164468759" lon="-5.044614611085251"><ele>348.0</ele><time>2026-04-28T11:21:49.999Z</time></trkpt><trkpt lat="34.93724339447821" lon="-5.044564362236292"><ele>348.0</ele><time>2026-04-28T11:21:50.999Z</time></trkpt><trkpt lat="34.937095011116746" lon="-5.044518566962582"><ele>348.0</ele><time>2026-04-28T11:21:51.999Z</time></trkpt><trkpt lat="34.93694940565566" lon="-5.04448577819111"><ele>348.0</ele><time>2026-04-28T11:21:52.999Z</time></trkpt><trkpt lat="34.93680231621842" lon="-5.044465476406845"><ele>348.0</ele><time>2026-04-28T11:21:53.999Z</time></trkpt><trkpt lat="34.93665626138457" lon="-5.0444482082854325"><ele>348.0</ele><time>2026-04-28T11:21:54.999Z</time></trkpt><trkpt lat="34.93651363293802" lon="-5.044415745938633"><ele>348.0</ele><time>2026-04-28T11:21:55.999Z</time></trkpt><trkpt lat="34.93636504785307" lon="-5.044411970311499"><ele>348.0</ele><time>2026-04-28T11:21:56.999Z</time></trkpt><trkpt lat="34.93621855708334" lon="-5.044416316765426"><ele>348.0</ele><time>2026-04-28T11:21:57.999Z</time></trkpt><trkpt lat="34.93607628641416" lon="-5.044415353658172"><ele>348.0</ele><time>2026-04-28T11:21:58.999Z</time></trkpt><trkpt lat="34.93593806153042" lon="-5.044408042289892"><ele>348.0</ele><time>2026-04-28T11:21:59.999Z</time></trkpt><trkpt lat="34.9357953391724" lon="-5.044386782818109"><ele>348.0</ele><time>2026-04-28T11:22:00.999Z</time></trkpt><trkpt lat="34.93565600534903" lon="-5.044354043682749"><ele>348.0</ele><time>2026-04-28T11:22:01.999Z</time></trkpt><trkpt lat="34.93550929082727" lon="-5.044342231078603"><ele>348.0</ele><time>2026-04-28T11:22:02.999Z</time></trkpt><trkpt lat="34.93535534921472" lon="-5.044313573"><ele>348.0</ele><time>2026-04-28T11:22:03.999Z</time></trkpt><trkpt lat="34.93518767799666" lon="-5.044328670322569"><ele>348.0</ele><time>2026-04-28T11:22:04.999Z</time></trkpt><trkpt lat="34.93501441547034" lon="-5.044351292238495"><ele>348.0</ele><time>2026-04-28T11:22:05.999Z</time></trkpt><trkpt lat="34.934838868525624" lon="-5.044374495749061"><ele>348.0</ele><time>2026-04-28T11:22:06.999Z</time></trkpt><trkpt lat="34.93466160769952" lon="-5.044401489997001"><ele>348.0</ele><time>2026-04-28T11:22:07.999Z</time></trkpt><trkpt lat="34.934486592169044" lon="-5.044428809328154"><ele>348.0</ele><time>2026-04-28T11:22:08.999Z</time></trkpt><trkpt lat="34.93430998095293" lon="-5.044450440441589"><ele>348.0</ele><time>2026-04-28T11:22:09.999Z</time></trkpt><trkpt lat="34.934138049128016" lon="-5.044497797629185"><ele>348.0</ele><time>2026-04-28T11:22:10.999Z</time></trkpt><trkpt lat="34.93395760715613" lon="-5.044520066064545"><ele>347.0</ele><time>2026-04-28T11:22:11.999Z</time></trkpt><trkpt lat="34.93377899140009" lon="-5.044535557768702"><ele>346.0</ele><time>2026-04-28T11:22:12.999Z</time></trkpt><trkpt lat="34.933597962700944" lon="-5.044552158356309"><ele>345.0</ele><time>2026-04-28T11:22:13.999Z</time></trkpt><trkpt lat="34.93341671556211" lon="-5.044568314438437"><ele>345.0</ele><time>2026-04-28T11:22:14.999Z</time></trkpt><trkpt lat="34.93323023123325" lon="-5.044591823688325"><ele>345.0</ele><time>2026-04-28T11:22:15.999Z</time></trkpt><trkpt lat="34.933045164806266" lon="-5.044616550028933"><ele>345.0</ele><time>2026-04-28T11:22:16.999Z</time></trkpt><trkpt lat="34.93285327148413" lon="-5.044642696268666"><ele>345.0</ele><time>2026-04-28T11:22:17.999Z</time></trkpt><trkpt lat="34.932660945203644" lon="-5.044658739466834"><ele>345.0</ele><time>2026-04-28T11:22:18.999Z</time></trkpt><trkpt lat="34.93246872095207" lon="-5.044675396541354"><ele>345.0</ele><time>2026-04-28T11:22:19.999Z</time></trkpt><trkpt lat="34.93227106070011" lon="-5.0446751387939495"><ele>345.3333333333333</ele><time>2026-04-28T11:22:20.999Z</time></trkpt><trkpt lat="34.932072006946115" lon="-5.044698984782005"><ele>345.66666666666663</ele><time>2026-04-28T11:22:21.999Z</time></trkpt><trkpt lat="34.9318681740974" lon="-5.04471869325576"><ele>346.0</ele><time>2026-04-28T11:22:22.999Z</time></trkpt><trkpt lat="34.93165910653422" lon="-5.0447397497295805"><ele>347.0</ele><time>2026-04-28T11:22:23.999Z</time></trkpt><trkpt lat="34.93145279185076" lon="-5.044770755716942"><ele>348.0</ele><time>2026-04-28T11:22:24.999Z</time></trkpt><trkpt lat="34.931244590412184" lon="-5.044830628734312"><ele>349.0</ele><time>2026-04-28T11:22:25.999Z</time></trkpt><trkpt lat="34.93103531042947" lon="-5.044883258984844"><ele>349.66666666666663</ele><time>2026-04-28T11:22:26.999Z</time></trkpt><trkpt lat="34.93082522203579" lon="-5.044938200623672"><ele>350.3333333333333</ele><time>2026-04-28T11:22:27.999Z</time></trkpt><trkpt lat="34.930614549961504" lon="-5.044993398533717"><ele>351.0</ele><time>2026-04-28T11:22:28.999Z</time></trkpt><trkpt lat="34.93040458351643" lon="-5.045038405959186"><ele>351.0</ele><time>2026-04-28T11:22:29.999Z</time></trkpt><trkpt lat="34.930199789597296" lon="-5.045103648821979"><ele>351.0</ele><time>2026-04-28T11:22:30.999Z</time></trkpt><trkpt lat="34.93000087330927" lon="-5.045167141768515"><ele>351.0</ele><time>2026-04-28T11:22:31.999Z</time></trkpt><trkpt lat="34.929809206263094" lon="-5.045229153208108"><ele>350.6666666666667</ele><time>2026-04-28T11:22:32.999Z</time></trkpt><trkpt lat="34.92962461932605" lon="-5.045285385111066"><ele>350.33333333333337</ele><time>2026-04-28T11:22:33.999Z</time></trkpt><trkpt lat="34.929446020596735" lon="-5.045340701256993"><ele>350.0</ele><time>2026-04-28T11:22:34.999Z</time></trkpt><trkpt lat="34.929270266675715" lon="-5.045397165022915"><ele>348.33333333333337</ele><time>2026-04-28T11:22:35.999Z</time></trkpt><trkpt lat="34.9291020607866" lon="-5.045451352723845"><ele>346.6666666666667</ele><time>2026-04-28T11:22:36.999Z</time></trkpt><trkpt lat="34.9289346103781" lon="-5.045502350932272"><ele>345.0</ele><time>2026-04-28T11:22:37.999Z</time></trkpt><trkpt lat="34.928766135066624" lon="-5.045556503294758"><ele>345.0</ele><time>2026-04-28T11:22:38.999Z</time></trkpt><trkpt lat="34.928596621883635" lon="-5.0456154051631605"><ele>345.0</ele><time>2026-04-28T11:22:39.999Z</time></trkpt><trkpt lat="34.92843245109459" lon="-5.045679951601921"><ele>345.0</ele><time>2026-04-28T11:22:40.999Z</time></trkpt><trkpt lat="34.92828713991257" lon="-5.04577836374938"><ele>343.5</ele><time>2026-04-28T11:22:42Z</time></trkpt><trkpt lat="34.928145885281516" lon="-5.045865070717006"><ele>342.0</ele><time>2026-04-28T11:22:43Z</time></trkpt><trkpt lat="34.92802972562625" lon="-5.045972871618688"><ele>340.5</ele><time>2026-04-28T11:22:44Z</time></trkpt><trkpt lat="34.927918481808405" lon="-5.0460745142780175"><ele>339.0</ele><time>2026-04-28T11:22:45Z</time></trkpt><trkpt lat="34.92780743195893" lon="-5.046175979693181"><ele>339.0</ele><time>2026-04-28T11:22:46Z</time></trkpt><trkpt lat="34.92769527865618" lon="-5.046278453261807"><ele>339.0</ele><time>2026-04-28T11:22:47Z</time></trkpt><trkpt lat="34.92758248047601" lon="-5.046381516166249"><ele>339.0</ele><time>2026-04-28T11:22:48Z</time></trkpt><trkpt lat="34.927459071267336" lon="-5.04647337258142"><ele>339.0</ele><time>2026-04-28T11:22:49Z</time></trkpt><trkpt lat="34.927336847538996" lon="-5.046593460888679"><ele>337.75</ele><time>2026-04-28T11:22:50Z</time></trkpt><trkpt lat="34.92721357778365" lon="-5.04671123284961"><ele>336.5</ele><time>2026-04-28T11:22:51Z</time></trkpt><trkpt lat="34.927098044782255" lon="-5.0468226480700595"><ele>335.25</ele><time>2026-04-28T11:22:52Z</time></trkpt><trkpt lat="34.926983950645926" lon="-5.0469235179239655"><ele>334.0</ele><time>2026-04-28T11:22:53Z</time></trkpt><trkpt lat="34.92686925884307" lon="-5.047016218315388"><ele>334.0</ele><time>2026-04-28T11:22:54Z</time></trkpt><trkpt lat="34.926757844481095" lon="-5.047090167741356"><ele>334.0</ele><time>2026-04-28T11:22:55Z</time></trkpt><trkpt lat="34.92664073008792" lon="-5.047142747809432"><ele>334.0</ele><time>2026-04-28T11:22:56Z</time></trkpt><trkpt lat="34.926517796736746" lon="-5.047167670945433"><ele>334.0</ele><time>2026-04-28T11:22:57Z</time></trkpt><trkpt lat="34.92638935072802" lon="-5.047169883488882"><ele>335.0</ele><time>2026-04-28T11:22:58Z</time></trkpt><trkpt lat="34.92625396541997" lon="-5.0471473352690435"><ele>336.0</ele><time>2026-04-28T11:22:59Z</time></trkpt><trkpt lat="34.92611852756864" lon="-5.047102885315374"><ele>337.0</ele><time>2026-04-28T11:23:00Z</time></trkpt><trkpt lat="34.92598903448848" lon="-5.047034977724952"><ele>338.0</ele><time>2026-04-28T11:23:01Z</time></trkpt><trkpt lat="34.925869253999174" lon="-5.046941427259498"><ele>338.0</ele><time>2026-04-28T11:23:02Z</time></trkpt><trkpt lat="34.925758600934465" lon="-5.046820856394735"><ele>338.0</ele><time>2026-04-28T11:23:03Z</time></trkpt><trkpt lat="34.925658611738505" lon="-5.046685873528381"><ele>338.0</ele><time>2026-04-28T11:23:04Z</time></trkpt><trkpt lat="34.92557653170067" lon="-5.046548402620577"><ele>338.0</ele><time>2026-04-28T11:23:05Z</time></trkpt><trkpt lat="34.92549990898811" lon="-5.046416285893622"><ele>339.25</ele><time>2026-04-28T11:23:06Z</time></trkpt><trkpt lat="34.9254220595412" lon="-5.046290761101969"><ele>340.5</ele><time>2026-04-28T11:23:07Z</time></trkpt><trkpt lat="34.92534967035127" lon="-5.0461670380559775"><ele>341.75</ele><time>2026-04-28T11:23:08Z</time></trkpt><trkpt lat="34.925281959565346" lon="-5.04604609176942"><ele>343.0</ele><time>2026-04-28T11:23:09Z</time></trkpt><trkpt lat="34.925217635700555" lon="-5.045926779256593"><ele>343.0</ele><time>2026-04-28T11:23:10Z</time></trkpt><trkpt lat="34.92515917645135" lon="-5.045817365222476"><ele>343.0</ele><time>2026-04-28T11:23:11Z</time></trkpt><trkpt lat="34.925099509241505" lon="-5.045717375294482"><ele>343.0</ele><time>2026-04-28T11:23:12Z</time></trkpt><trkpt lat="34.925050663999656" lon="-5.045635417511561"><ele>343.0</ele><time>2026-04-28T11:23:13Z</time></trkpt><trkpt lat="34.92498887154849" lon="-5.045546790150259"><ele>343.0</ele><time>2026-04-28T11:23:15Z</time></trkpt><trkpt lat="34.92493146573385" lon="-5.045445168151144"><ele>342.5</ele><time>2026-04-28T11:23:17Z</time></trkpt><trkpt lat="34.9248942992523" lon="-5.045370123317562"><ele>342.0</ele><time>2026-04-28T11:23:18Z</time></trkpt><trkpt lat="34.92483141922579" lon="-5.045311657440962"><ele>341.5</ele><time>2026-04-28T11:23:19Z</time></trkpt><trkpt lat="34.9247793769244" lon="-5.045241693294849"><ele>341.0</ele><time>2026-04-28T11:23:20Z</time></trkpt><trkpt lat="34.92473644779545" lon="-5.045183980656518"><ele>340.5</ele><time>2026-04-28T11:23:21Z</time></trkpt><trkpt lat="34.92466344276146" lon="-5.045086742673003"><ele>340.0</ele><time>2026-04-28T11:23:23Z</time></trkpt><trkpt lat="34.92456358715761" lon="-5.044975532982251"><ele>340.16666666666663</ele><time>2026-04-28T11:23:25Z</time></trkpt><trkpt lat="34.92450126690368" lon="-5.044906595116854"><ele>340.3333333333333</ele><time>2026-04-28T11:23:25.999Z</time></trkpt><trkpt lat="34.92442143242825" lon="-5.044860608146113"><ele>340.5</ele><time>2026-04-28T11:23:26.999Z</time></trkpt><trkpt lat="34.92434260620898" lon="-5.0448125705385864"><ele>340.6666666666667</ele><time>2026-04-28T11:23:27.999Z</time></trkpt><trkpt lat="34.92426918972355" lon="-5.044770712687521"><ele>340.83333333333337</ele><time>2026-04-28T11:23:28.999Z</time></trkpt><trkpt lat="34.92419929219072" lon="-5.044738851033489"><ele>341.0</ele><time>2026-04-28T11:23:29.999Z</time></trkpt><trkpt lat="34.924127351263415" lon="-5.044706073669053"><ele>341.0</ele><time>2026-04-28T11:23:30.999Z</time></trkpt><trkpt lat="34.92404788260949" lon="-5.044665326504861"><ele>341.0</ele><time>2026-04-28T11:23:31.999Z</time></trkpt><trkpt lat="34.923969078534164" lon="-5.044622790474758"><ele>341.0</ele><time>2026-04-28T11:23:32.999Z</time></trkpt><trkpt lat="34.923883581250614" lon="-5.044582399071058"><ele>341.0</ele><time>2026-04-28T11:23:33.999Z</time></trkpt><trkpt lat="34.923801424412844" lon="-5.044544345075419"><ele>341.0</ele><time>2026-04-28T11:23:34.999Z</time></trkpt><trkpt lat="34.92371944016494" lon="-5.044504499960751"><ele>341.0</ele><time>2026-04-28T11:23:35.999Z</time></trkpt><trkpt lat="34.92363777862858" lon="-5.044469779124619"><ele>341.0</ele><time>2026-04-28T11:23:36.999Z</time></trkpt><trkpt lat="34.923562596608896" lon="-5.044436759327634"><ele>341.0</ele><time>2026-04-28T11:23:37.999Z</time></trkpt><trkpt lat="34.92349090886087" lon="-5.044403461487297"><ele>341.0</ele><time>2026-04-28T11:23:38.999Z</time></trkpt><trkpt lat="34.92342255885451" lon="-5.044376474554904"><ele>341.0</ele><time>2026-04-28T11:23:39.999Z</time></trkpt><trkpt lat="34.92335719946038" lon="-5.044350578097019"><ele>341.0</ele><time>2026-04-28T11:23:40.999Z</time></trkpt><trkpt lat="34.923293627390905" lon="-5.04432722941683"><ele>341.0</ele><time>2026-04-28T11:23:41.999Z</time></trkpt><trkpt lat="34.923228873749096" lon="-5.0443014011362175"><ele>341.0</ele><time>2026-04-28T11:23:42.999Z</time></trkpt><trkpt lat="34.9231655821031" lon="-5.044275360659594"><ele>341.5</ele><time>2026-04-28T11:23:43.999Z</time></trkpt><trkpt lat="34.92304947552027" lon="-5.0442297428633145"><ele>342.0</ele><time>2026-04-28T11:23:45.999Z</time></trkpt><trkpt lat="34.92293424848233" lon="-5.04416995733763"><ele>342.5</ele><time>2026-04-28T11:23:47.999Z</time></trkpt><trkpt lat="34.92287232855046" lon="-5.044142976189976"><ele>343.0</ele><time>2026-04-28T11:23:48.999Z</time></trkpt><trkpt lat="34.922812057082496" lon="-5.044115901838812"><ele>343.5</ele><time>2026-04-28T11:23:49.999Z</time></trkpt><trkpt lat="34.92274862235344" lon="-5.044083543847232"><ele>344.0</ele><time>2026-04-28T11:23:50.999Z</time></trkpt><trkpt lat="34.92268050346992" lon="-5.044069152186039"><ele>344.0</ele><time>2026-04-28T11:23:51.999Z</time></trkpt><trkpt lat="34.92261237130051" lon="-5.044034830416716"><ele>344.0</ele><time>2026-04-28T11:23:52.999Z</time></trkpt><trkpt lat="34.92254317288588" lon="-5.043998930333426"><ele>344.0</ele><time>2026-04-28T11:23:53.999Z</time></trkpt><trkpt lat="34.922466833699474" lon="-5.043959053295562"><ele>344.0</ele><time>2026-04-28T11:23:54.999Z</time></trkpt><trkpt lat="34.9223924184431" lon="-5.043895634881019"><ele>344.0</ele><time>2026-04-28T11:23:55.999Z</time></trkpt><trkpt lat="34.922307577786455" lon="-5.043862282394181"><ele>344.0</ele><time>2026-04-28T11:23:56.999Z</time></trkpt><trkpt lat="34.92221843396745" lon="-5.043819826803063"><ele>342.4</ele><time>2026-04-28T11:23:57.999Z</time></trkpt><trkpt lat="34.9221353855509" lon="-5.043772615988661"><ele>340.79999999999995</ele><time>2026-04-28T11:23:58.999Z</time></trkpt><trkpt lat="34.922051913484374" lon="-5.043723051872893"><ele>339.20000000000005</ele><time>2026-04-28T11:23:59.999Z</time></trkpt><trkpt lat="34.9219586426594" lon="-5.04369292140094"><ele>337.6</ele><time>2026-04-28T11:24:00.999Z</time></trkpt><trkpt lat="34.92185422910256" lon="-5.043664359060565"><ele>336.0</ele><time>2026-04-28T11:24:01.999Z</time></trkpt><trkpt lat="34.92174416341458" lon="-5.043632429356081"><ele>337.25</ele><time>2026-04-28T11:24:02.999Z</time></trkpt><trkpt lat="34.92163166166832" lon="-5.0436051040954695"><ele>338.5</ele><time>2026-04-28T11:24:03.999Z</time></trkpt><trkpt lat="34.92152298099246" lon="-5.043597516432205"><ele>339.75</ele><time>2026-04-28T11:24:04.999Z</time></trkpt><trkpt lat="34.92139253746347" lon="-5.043601293188756"><ele>341.0</ele><time>2026-04-28T11:24:05.999Z</time></trkpt><trkpt lat="34.92126001045714" lon="-5.043622879526248"><ele>341.0</ele><time>2026-04-28T11:24:06.999Z</time></trkpt><trkpt lat="34.92112897494688" lon="-5.0436419211514405"><ele>341.0</ele><time>2026-04-28T11:24:07.999Z</time></trkpt><trkpt lat="34.92100262168952" lon="-5.04365855333474"><ele>341.0</ele><time>2026-04-28T11:24:08.999Z</time></trkpt><trkpt lat="34.92087853115242" lon="-5.043672299245165"><ele>341.0</ele><time>2026-04-28T11:24:09.999Z</time></trkpt><trkpt lat="34.92075790826715" lon="-5.043695819650968"><ele>343.5</ele><time>2026-04-28T11:24:10.999Z</time></trkpt><trkpt lat="34.920636642099" lon="-5.043732024640379"><ele>346.0</ele><time>2026-04-28T11:24:11.999Z</time></trkpt><trkpt lat="34.92050137235507" lon="-5.043770684504245"><ele>348.5</ele><time>2026-04-28T11:24:12.999Z</time></trkpt><trkpt lat="34.92035830069275" lon="-5.043803532293902"><ele>351.0</ele><time>2026-04-28T11:24:13.999Z</time></trkpt><trkpt lat="34.92022871119591" lon="-5.043835646339096"><ele>351.0</ele><time>2026-04-28T11:24:14.999Z</time></trkpt><trkpt lat="34.92011714651934" lon="-5.0438796164857935"><ele>351.0</ele><time>2026-04-28T11:24:15.999Z</time></trkpt><trkpt lat="34.92001629373795" lon="-5.043945132460089"><ele>351.0</ele><time>2026-04-28T11:24:16.999Z</time></trkpt><trkpt lat="34.9199059323269" lon="-5.0440444618693165"><ele>351.0</ele><time>2026-04-28T11:24:17.999Z</time></trkpt><trkpt lat="34.919779477743624" lon="-5.0441602847266855"><ele>343.6666666666667</ele><time>2026-04-28T11:24:18.999Z</time></trkpt><trkpt lat="34.91963992956368" lon="-5.044269064962152"><ele>336.33333333333337</ele><time>2026-04-28T11:24:19.999Z</time></trkpt><trkpt lat="34.91949216247306" lon="-5.044389507808151"><ele>329.0</ele><time>2026-04-28T11:24:20.999Z</time></trkpt><trkpt lat="34.91935010478893" lon="-5.044525351444058"><ele>332.0</ele><time>2026-04-28T11:24:21.999Z</time></trkpt><trkpt lat="34.91921352666379" lon="-5.0446656878439535"><ele>335.0</ele><time>2026-04-28T11:24:22.999Z</time></trkpt><trkpt lat="34.91908296170914" lon="-5.044810910268022"><ele>338.0</ele><time>2026-04-28T11:24:23.999Z</time></trkpt><trkpt lat="34.91896892213154" lon="-5.044957218072345"><ele>335.33333333333337</ele><time>2026-04-28T11:24:24.999Z</time></trkpt><trkpt lat="34.918875328724546" lon="-5.045114117332251"><ele>332.6666666666667</ele><time>2026-04-28T11:24:25.999Z</time></trkpt><trkpt lat="34.918802565132346" lon="-5.045286364315072"><ele>330.0</ele><time>2026-04-28T11:24:26.999Z</time></trkpt><trkpt lat="34.91872992442564" lon="-5.0454634886265595"><ele>330.0</ele><time>2026-04-28T11:24:27.999Z</time></trkpt><trkpt lat="34.918654105496685" lon="-5.045648365152313"><ele>330.0</ele><time>2026-04-28T11:24:28.999Z</time></trkpt><trkpt lat="34.918569260479515" lon="-5.045829450176916"><ele>330.0</ele><time>2026-04-28T11:24:29.999Z</time></trkpt><trkpt lat="34.91850259338399" lon="-5.046030850752458"><ele>330.0</ele><time>2026-04-28T11:24:30.999Z</time></trkpt><trkpt lat="34.91842131446743" lon="-5.046229597635301"><ele>330.0</ele><time>2026-04-28T11:24:31.999Z</time></trkpt><trkpt lat="34.91833970821098" lon="-5.046421988114202"><ele>330.0</ele><time>2026-04-28T11:24:32.999Z</time></trkpt><trkpt lat="34.918254081611984" lon="-5.046629397092733"><ele>329.0</ele><time>2026-04-28T11:24:33.999Z</time></trkpt><trkpt lat="34.91817108933866" lon="-5.046836337146142"><ele>328.0</ele><time>2026-04-28T11:24:34.999Z</time></trkpt><trkpt lat="34.91808693924693" lon="-5.047043570541641"><ele>327.0</ele><time>2026-04-28T11:24:35.999Z</time></trkpt><trkpt lat="34.91801225954354" lon="-5.04724533693211"><ele>327.0</ele><time>2026-04-28T11:24:36.999Z</time></trkpt><trkpt lat="34.91793480119789" lon="-5.047438933161698"><ele>327.0</ele><time>2026-04-28T11:24:37.999Z</time></trkpt><trkpt lat="34.91786099604002" lon="-5.047629151735397"><ele>327.0</ele><time>2026-04-28T11:24:38.999Z</time></trkpt><trkpt lat="34.917791168673446" lon="-5.047816801496953"><ele>327.0</ele><time>2026-04-28T11:24:39.999Z</time></trkpt><trkpt lat="34.91772473758472" lon="-5.047999138714201"><ele>327.0</ele><time>2026-04-28T11:24:40.999Z</time></trkpt><trkpt lat="34.91764702862799" lon="-5.0481666425848655"><ele>327.0</ele><time>2026-04-28T11:24:41.999Z</time></trkpt><trkpt lat="34.91756466089018" lon="-5.048349172979399"><ele>327.0</ele><time>2026-04-28T11:24:42.999Z</time></trkpt><trkpt lat="34.91749478727344" lon="-5.048554571511047"><ele>327.0</ele><time>2026-04-28T11:24:43.999Z</time></trkpt><trkpt lat="34.91742138200893" lon="-5.04876458758616"><ele>327.0</ele><time>2026-04-28T11:24:44.999Z</time></trkpt><trkpt lat="34.91733442052853" lon="-5.048956235514062"><ele>325.6666666666667</ele><time>2026-04-28T11:24:45.999Z</time></trkpt><trkpt lat="34.917243187253995" lon="-5.049147616492938"><ele>324.33333333333337</ele><time>2026-04-28T11:24:46.999Z</time></trkpt><trkpt lat="34.91717839951599" lon="-5.049351570838353"><ele>323.0</ele><time>2026-04-28T11:24:48Z</time></trkpt><trkpt lat="34.91709279112119" lon="-5.0495468503025895"><ele>323.0</ele><time>2026-04-28T11:24:49Z</time></trkpt><trkpt lat="34.917024989451434" lon="-5.049756764560223"><ele>323.0</ele><time>2026-04-28T11:24:50Z</time></trkpt><trkpt lat="34.91694372534437" lon="-5.049966476617557"><ele>323.0</ele><time>2026-04-28T11:24:51Z</time></trkpt><trkpt lat="34.91685043715111" lon="-5.050169949710103"><ele>322.6666666666667</ele><time>2026-04-28T11:24:52Z</time></trkpt><trkpt lat="34.916767281610866" lon="-5.05037965093992"><ele>322.3333333333333</ele><time>2026-04-28T11:24:53Z</time></trkpt><trkpt lat="34.916683401998014" lon="-5.0505860817876"><ele>322.0</ele><time>2026-04-28T11:24:54Z</time></trkpt><trkpt lat="34.916607003185554" lon="-5.050787760031454"><ele>322.66666666666663</ele><time>2026-04-28T11:24:55Z</time></trkpt><trkpt lat="34.91652686866149" lon="-5.050987783939329"><ele>323.3333333333333</ele><time>2026-04-28T11:24:56Z</time></trkpt><trkpt lat="34.9164388527099" lon="-5.051185211541059"><ele>324.0</ele><time>2026-04-28T11:24:57Z</time></trkpt><trkpt lat="34.91633402982731" lon="-5.051360756453549"><ele>324.0</ele><time>2026-04-28T11:24:58Z</time></trkpt><trkpt lat="34.91621066036753" lon="-5.0515161682010215"><ele>324.0</ele><time>2026-04-28T11:24:59Z</time></trkpt><trkpt lat="34.91607865223409" lon="-5.051648470279367"><ele>324.0</ele><time>2026-04-28T11:25:00Z</time></trkpt><trkpt lat="34.91595319491607" lon="-5.051772041101125"><ele>325.3333333333333</ele><time>2026-04-28T11:25:01Z</time></trkpt><trkpt lat="34.91583099455133" lon="-5.051900408602356"><ele>326.66666666666663</ele><time>2026-04-28T11:25:02Z</time></trkpt><trkpt lat="34.9157108596654" lon="-5.0520261270015165"><ele>328.0</ele><time>2026-04-28T11:25:03Z</time></trkpt><trkpt lat="34.91559414179387" lon="-5.052148171113128"><ele>328.0</ele><time>2026-04-28T11:25:04Z</time></trkpt><trkpt lat="34.91548127616685" lon="-5.0522733584047215"><ele>328.0</ele><time>2026-04-28T11:25:05Z</time></trkpt><trkpt lat="34.91537152619374" lon="-5.0523897620668565"><ele>328.0</ele><time>2026-04-28T11:25:06Z</time></trkpt><trkpt lat="34.91526608423415" lon="-5.0525000964056055"><ele>328.0</ele><time>2026-04-28T11:25:07Z</time></trkpt><trkpt lat="34.915161775660046" lon="-5.052609935818252"><ele>328.25</ele><time>2026-04-28T11:25:08Z</time></trkpt><trkpt lat="34.915064742720816" lon="-5.05272375309392"><ele>328.5</ele><time>2026-04-28T11:25:09Z</time></trkpt><trkpt lat="34.914966599924746" lon="-5.052836523042463"><ele>328.75</ele><time>2026-04-28T11:25:10Z</time></trkpt><trkpt lat="34.914861052074606" lon="-5.052944137691077"><ele>329.0</ele><time>2026-04-28T11:25:11Z</time></trkpt><trkpt lat="34.91474264496258" lon="-5.053047420067103"><ele>329.0</ele><time>2026-04-28T11:25:12Z</time></trkpt><trkpt lat="34.91462449308402" lon="-5.0531571621207885"><ele>329.0</ele><time>2026-04-28T11:25:13Z</time></trkpt><trkpt lat="34.914505792151175" lon="-5.05327761024793"><ele>329.0</ele><time>2026-04-28T11:25:14Z</time></trkpt><trkpt lat="34.91440404374677" lon="-5.05342613064183"><ele>329.0</ele><time>2026-04-28T11:25:15Z</time></trkpt><trkpt lat="34.91427911813013" lon="-5.053542400146094"><ele>329.0</ele><time>2026-04-28T11:25:16Z</time></trkpt><trkpt lat="34.9141796184914" lon="-5.053671864868605"><ele>329.0</ele><time>2026-04-28T11:25:17Z</time></trkpt><trkpt lat="34.914087315250185" lon="-5.053782237005698"><ele>329.0</ele><time>2026-04-28T11:25:18Z</time></trkpt><trkpt lat="34.914003032562775" lon="-5.053872282799391"><ele>329.0</ele><time>2026-04-28T11:25:19Z</time></trkpt><trkpt lat="34.91392114686768" lon="-5.0539476511927095"><ele>329.0</ele><time>2026-04-28T11:25:20Z</time></trkpt><trkpt lat="34.91383123062308" lon="-5.054027599432767"><ele>329.0</ele><time>2026-04-28T11:25:21Z</time></trkpt><trkpt lat="34.91373502503939" lon="-5.054095346764609"><ele>329.0</ele><time>2026-04-28T11:25:22Z</time></trkpt><trkpt lat="34.91362529440037" lon="-5.054147818444564"><ele>329.0</ele><time>2026-04-28T11:25:23Z</time></trkpt><trkpt lat="34.91349827678587" lon="-5.054174494418095"><ele>328.75</ele><time>2026-04-28T11:25:24Z</time></trkpt><trkpt lat="34.91336990810385" lon="-5.054202425005607"><ele>328.5</ele><time>2026-04-28T11:25:25Z</time></trkpt><trkpt lat="34.91323990670508" lon="-5.054232130457448"><ele>328.25</ele><time>2026-04-28T11:25:26Z</time></trkpt><trkpt lat="34.91310823558647" lon="-5.054261281342321"><ele>328.0</ele><time>2026-04-28T11:25:27Z</time></trkpt><trkpt lat="34.91297936678338" lon="-5.054299470507594"><ele>328.0</ele><time>2026-04-28T11:25:27.999Z</time></trkpt><trkpt lat="34.91285906132789" lon="-5.054334445216655"><ele>328.0</ele><time>2026-04-28T11:25:28.999Z</time></trkpt><trkpt lat="34.912737736495636" lon="-5.054369016448784"><ele>328.0</ele><time>2026-04-28T11:25:29.999Z</time></trkpt><trkpt lat="34.91261133273448" lon="-5.054402034355883"><ele>328.0</ele><time>2026-04-28T11:25:30.999Z</time></trkpt><trkpt lat="34.91247917687628" lon="-5.054437180803726"><ele>328.25</ele><time>2026-04-28T11:25:31.999Z</time></trkpt><trkpt lat="34.91234280081616" lon="-5.054473302220195"><ele>328.5</ele><time>2026-04-28T11:25:32.999Z</time></trkpt><trkpt lat="34.912202742587624" lon="-5.054506947619617"><ele>328.75</ele><time>2026-04-28T11:25:33.999Z</time></trkpt><trkpt lat="34.9120630966749" lon="-5.05454163161034"><ele>329.0</ele><time>2026-04-28T11:25:34.999Z</time></trkpt><trkpt lat="34.9119214786578" lon="-5.054577448644687"><ele>329.0</ele><time>2026-04-28T11:25:35.999Z</time></trkpt><trkpt lat="34.911784583906616" lon="-5.054612281709566"><ele>329.0</ele><time>2026-04-28T11:25:36.999Z</time></trkpt><trkpt lat="34.91165245564378" lon="-5.054645351946122"><ele>329.0</ele><time>2026-04-28T11:25:37.999Z</time></trkpt><trkpt lat="34.91152693121844" lon="-5.054670367344478"><ele>329.0</ele><time>2026-04-28T11:25:38.999Z</time></trkpt><trkpt lat="34.911404354257165" lon="-5.054690291692614"><ele>329.25</ele><time>2026-04-28T11:25:39.999Z</time></trkpt><trkpt lat="34.911281998002906" lon="-5.054702944853914"><ele>329.5</ele><time>2026-04-28T11:25:40.999Z</time></trkpt><trkpt lat="34.91115749428622" lon="-5.054711645543329"><ele>329.75</ele><time>2026-04-28T11:25:41.999Z</time></trkpt><trkpt lat="34.91102662096169" lon="-5.054709069730846"><ele>330.0</ele><time>2026-04-28T11:25:42.999Z</time></trkpt><trkpt lat="34.91088955018002" lon="-5.0546883714339055"><ele>328.25</ele><time>2026-04-28T11:25:43.999Z</time></trkpt><trkpt lat="34.910750748309816" lon="-5.0546553548526525"><ele>326.5</ele><time>2026-04-28T11:25:44.999Z</time></trkpt><trkpt lat="34.91060925929177" lon="-5.05461463017506"><ele>324.75</ele><time>2026-04-28T11:25:45.999Z</time></trkpt><trkpt lat="34.910471892137735" lon="-5.054556820050777"><ele>323.0</ele><time>2026-04-28T11:25:46.999Z</time></trkpt><trkpt lat="34.91033806268393" lon="-5.054478099583405"><ele>323.0</ele><time>2026-04-28T11:25:47.999Z</time></trkpt><trkpt lat="34.91020671677533" lon="-5.054385555214021"><ele>323.0</ele><time>2026-04-28T11:25:48.999Z</time></trkpt><trkpt lat="34.91007679046347" lon="-5.054283182712239"><ele>323.0</ele><time>2026-04-28T11:25:49.999Z</time></trkpt><trkpt lat="34.90995266844222" lon="-5.054172234850745"><ele>322.6666666666667</ele><time>2026-04-28T11:25:50.999Z</time></trkpt><trkpt lat="34.909837481956785" lon="-5.054056732618655"><ele>322.3333333333333</ele><time>2026-04-28T11:25:51.999Z</time></trkpt><trkpt lat="34.90972231089532" lon="-5.053931966825423"><ele>322.0</ele><time>2026-04-28T11:25:52.999Z</time></trkpt><trkpt lat="34.909604664847585" lon="-5.053800854298808"><ele>322.0</ele><time>2026-04-28T11:25:53.999Z</time></trkpt><trkpt lat="34.909484530386734" lon="-5.053665456013406"><ele>322.0</ele><time>2026-04-28T11:25:54.999Z</time></trkpt><trkpt lat="34.90936626405438" lon="-5.053527043521805"><ele>322.0</ele><time>2026-04-28T11:25:55.999Z</time></trkpt><trkpt lat="34.909246449138344" lon="-5.053389676651547"><ele>320.66666666666663</ele><time>2026-04-28T11:25:56.999Z</time></trkpt><trkpt lat="34.90912429393692" lon="-5.053253689671085"><ele>319.3333333333333</ele><time>2026-04-28T11:25:57.999Z</time></trkpt><trkpt lat="34.90900040629417" lon="-5.053118769057736"><ele>318.0</ele><time>2026-04-28T11:25:58.999Z</time></trkpt><trkpt lat="34.90887583336809" lon="-5.052980601625632"><ele>318.0</ele><time>2026-04-28T11:25:59.999Z</time></trkpt><trkpt lat="34.90874804871683" lon="-5.052845185001061"><ele>318.0</ele><time>2026-04-28T11:26:00.999Z</time></trkpt><trkpt lat="34.9086122943358" lon="-5.05272673257092"><ele>318.0</ele><time>2026-04-28T11:26:01.999Z</time></trkpt><trkpt lat="34.908465211377276" lon="-5.0526463166577145"><ele>318.3333333333333</ele><time>2026-04-28T11:26:02.999Z</time></trkpt><trkpt lat="34.908312875608665" lon="-5.052610146909333"><ele>318.66666666666663</ele><time>2026-04-28T11:26:03.999Z</time></trkpt><trkpt lat="34.90816192045156" lon="-5.052610134695287"><ele>319.0</ele><time>2026-04-28T11:26:04.999Z</time></trkpt><trkpt lat="34.908016780980645" lon="-5.052626016698287"><ele>319.0</ele><time>2026-04-28T11:26:05.999Z</time></trkpt><trkpt lat="34.90788502550898" lon="-5.052685728240665"><ele>319.0</ele><time>2026-04-28T11:26:06.999Z</time></trkpt><trkpt lat="34.907749896163836" lon="-5.052741264465976"><ele>319.0</ele><time>2026-04-28T11:26:07.999Z</time></trkpt><trkpt lat="34.90762471869124" lon="-5.052840928386036"><ele>319.0</ele><time>2026-04-28T11:26:08.999Z</time></trkpt><trkpt lat="34.90750255063956" lon="-5.052953157765281"><ele>319.66666666666663</ele><time>2026-04-28T11:26:09.999Z</time></trkpt><trkpt lat="34.907376659481045" lon="-5.053067351463185"><ele>320.3333333333333</ele><time>2026-04-28T11:26:10.999Z</time></trkpt><trkpt lat="34.90725716240436" lon="-5.053197315342411"><ele>321.0</ele><time>2026-04-28T11:26:11.999Z</time></trkpt><trkpt lat="34.90714545588663" lon="-5.053335510715957"><ele>318.3333333333333</ele><time>2026-04-28T11:26:12.999Z</time></trkpt><trkpt lat="34.90702977748559" lon="-5.053461476002937"><ele>315.66666666666663</ele><time>2026-04-28T11:26:13.999Z</time></trkpt><trkpt lat="34.90691481259336" lon="-5.05358717816526"><ele>313.0</ele><time>2026-04-28T11:26:14.999Z</time></trkpt><trkpt lat="34.90681836180168" lon="-5.053727718040141"><ele>313.0</ele><time>2026-04-28T11:26:15.999Z</time></trkpt><trkpt lat="34.90674535012411" lon="-5.053900177225322"><ele>313.0</ele><time>2026-04-28T11:26:16.999Z</time></trkpt><trkpt lat="34.906698992057976" lon="-5.054093097791747"><ele>313.0</ele><time>2026-04-28T11:26:17.999Z</time></trkpt><trkpt lat="34.90667163968874" lon="-5.054297153182167"><ele>317.3333333333333</ele><time>2026-04-28T11:26:18.999Z</time></trkpt><trkpt lat="34.906652051531694" lon="-5.054508529751472"><ele>321.6666666666667</ele><time>2026-04-28T11:26:19.999Z</time></trkpt><trkpt lat="34.90661961551886" lon="-5.054715318565212"><ele>326.0</ele><time>2026-04-28T11:26:20.999Z</time></trkpt><trkpt lat="34.906581525739256" lon="-5.054918698608703"><ele>322.6666666666667</ele><time>2026-04-28T11:26:21.999Z</time></trkpt><trkpt lat="34.906561644152646" lon="-5.05512616336863"><ele>319.3333333333333</ele><time>2026-04-28T11:26:22.999Z</time></trkpt><trkpt lat="34.906596013905734" lon="-5.055331765041706"><ele>316.0</ele><time>2026-04-28T11:26:23.999Z</time></trkpt><trkpt lat="34.906642795249354" lon="-5.055532976883364"><ele>316.0</ele><time>2026-04-28T11:26:24.999Z</time></trkpt><trkpt lat="34.90669029805297" lon="-5.055727660038227"><ele>316.0</ele><time>2026-04-28T11:26:25.999Z</time></trkpt><trkpt lat="34.906752054801494" lon="-5.055903415164031"><ele>316.0</ele><time>2026-04-28T11:26:26.999Z</time></trkpt><trkpt lat="34.906788600354226" lon="-5.056083091470658"><ele>315.66666666666663</ele><time>2026-04-28T11:26:27.999Z</time></trkpt><trkpt lat="34.90679462237675" lon="-5.056265876975497"><ele>315.3333333333333</ele><time>2026-04-28T11:26:28.999Z</time></trkpt><trkpt lat="34.906772752472015" lon="-5.056453374630475"><ele>315.0</ele><time>2026-04-28T11:26:29.999Z</time></trkpt><trkpt lat="34.90672943276778" lon="-5.0566455018149785"><ele>315.0</ele><time>2026-04-28T11:26:30.999Z</time></trkpt><trkpt lat="34.90667198238168" lon="-5.056822544734347"><ele>315.0</ele><time>2026-04-28T11:26:31.999Z</time></trkpt><trkpt lat="34.90662378086631" lon="-5.056985826829872"><ele>315.0</ele><time>2026-04-28T11:26:32.999Z</time></trkpt><trkpt lat="34.90657695607437" lon="-5.057134751117042"><ele>315.0</ele><time>2026-04-28T11:26:33.999Z</time></trkpt><trkpt lat="34.906530619513646" lon="-5.0572809254433695"><ele>315.0</ele><time>2026-04-28T11:26:34.999Z</time></trkpt><trkpt lat="34.906484429818384" lon="-5.057415868086967"><ele>315.0</ele><time>2026-04-28T11:26:35.999Z</time></trkpt><trkpt lat="34.906437594069835" lon="-5.057555871722571"><ele>315.0</ele><time>2026-04-28T11:26:36.999Z</time></trkpt><trkpt lat="34.90637236913961" lon="-5.057709168148381"><ele>315.0</ele><time>2026-04-28T11:26:37.999Z</time></trkpt><trkpt lat="34.90631803538601" lon="-5.057891180344475"><ele>314.6666666666667</ele><time>2026-04-28T11:26:38.999Z</time></trkpt><trkpt lat="34.90625641652993" lon="-5.058083366146426"><ele>314.33333333333337</ele><time>2026-04-28T11:26:39.999Z</time></trkpt><trkpt lat="34.90618982577177" lon="-5.058281771708164"><ele>314.0</ele><time>2026-04-28T11:26:40.999Z</time></trkpt><trkpt lat="34.90611830871161" lon="-5.058488598212543"><ele>314.0</ele><time>2026-04-28T11:26:41.999Z</time></trkpt><trkpt lat="34.90604713983953" lon="-5.058704055339661"><ele>314.0</ele><time>2026-04-28T11:26:42.999Z</time></trkpt><trkpt lat="34.90597751238593" lon="-5.058923572360174"><ele>314.0</ele><time>2026-04-28T11:26:43.999Z</time></trkpt><trkpt lat="34.90590396125323" lon="-5.0591445674089695"><ele>314.33333333333337</ele><time>2026-04-28T11:26:44.999Z</time></trkpt><trkpt lat="34.90582884296054" lon="-5.059369127517431"><ele>314.6666666666667</ele><time>2026-04-28T11:26:45.999Z</time></trkpt><trkpt lat="34.905754445857085" lon="-5.059589765969517"><ele>315.0</ele><time>2026-04-28T11:26:46.999Z</time></trkpt><trkpt lat="34.90568598786066" lon="-5.059800579808854"><ele>314.6666666666667</ele><time>2026-04-28T11:26:47.999Z</time></trkpt><trkpt lat="34.905618931449084" lon="-5.060001602912214"><ele>314.33333333333337</ele><time>2026-04-28T11:26:48.999Z</time></trkpt><trkpt lat="34.90555622464889" lon="-5.060190362321151"><ele>314.0</ele><time>2026-04-28T11:26:49.999Z</time></trkpt><trkpt lat="34.905495475964145" lon="-5.060369180747895"><ele>314.0</ele><time>2026-04-28T11:26:50.999Z</time></trkpt><trkpt lat="34.90543830375439" lon="-5.0605399741418085"><ele>314.0</ele><time>2026-04-28T11:26:51.999Z</time></trkpt><trkpt lat="34.90540623300756" lon="-5.060713031355675"><ele>314.0</ele><time>2026-04-28T11:26:52.999Z</time></trkpt><trkpt lat="34.905375609328345" lon="-5.060877616239698"><ele>314.0</ele><time>2026-04-28T11:26:54Z</time></trkpt><trkpt lat="34.90535852472007" lon="-5.061048140566932"><ele>313.33333333333337</ele><time>2026-04-28T11:26:55Z</time></trkpt><trkpt lat="34.90534240286277" lon="-5.061236386434133"><ele>312.6666666666667</ele><time>2026-04-28T11:26:56Z</time></trkpt><trkpt lat="34.90534203545605" lon="-5.061422487243397"><ele>312.0</ele><time>2026-04-28T11:26:57Z</time></trkpt><trkpt lat="34.90533297839122" lon="-5.061597751268429"><ele>311.75</ele><time>2026-04-28T11:26:58Z</time></trkpt><trkpt lat="34.905316158448294" lon="-5.061772831857537"><ele>311.5</ele><time>2026-04-28T11:26:59Z</time></trkpt><trkpt lat="34.90527433678018" lon="-5.061935722220366"><ele>311.25</ele><time>2026-04-28T11:27:00Z</time></trkpt><trkpt lat="34.90521142626994" lon="-5.062087418802553"><ele>311.0</ele><time>2026-04-28T11:27:01Z</time></trkpt><trkpt lat="34.90513006225711" lon="-5.062228871493479"><ele>312.33333333333337</ele><time>2026-04-28T11:27:02Z</time></trkpt><trkpt lat="34.90503140857478" lon="-5.0623547571456085"><ele>313.6666666666667</ele><time>2026-04-28T11:27:03Z</time></trkpt><trkpt lat="34.904912549390104" lon="-5.062465722301246"><ele>315.0</ele><time>2026-04-28T11:27:04Z</time></trkpt><trkpt lat="34.904770945793075" lon="-5.062559232830044"><ele>315.0</ele><time>2026-04-28T11:27:05Z</time></trkpt><trkpt lat="34.904615160481974" lon="-5.062635458515662"><ele>315.0</ele><time>2026-04-28T11:27:06Z</time></trkpt><trkpt lat="34.90445585075882" lon="-5.062693171991499"><ele>315.0</ele><time>2026-04-28T11:27:07Z</time></trkpt><trkpt lat="34.90430108641014" lon="-5.062734774789258"><ele>315.0</ele><time>2026-04-28T11:27:08Z</time></trkpt><trkpt lat="34.90414736186979" lon="-5.062735257905726"><ele>315.0</ele><time>2026-04-28T11:27:09Z</time></trkpt><trkpt lat="34.90398549764254" lon="-5.062697053974818"><ele>315.0</ele><time>2026-04-28T11:27:10Z</time></trkpt><trkpt lat="34.90382120152986" lon="-5.062660818480049"><ele>315.0</ele><time>2026-04-28T11:27:11Z</time></trkpt><trkpt lat="34.90365479383459" lon="-5.062632693996865"><ele>315.0</ele><time>2026-04-28T11:27:12Z</time></trkpt><trkpt lat="34.9034843264796" lon="-5.062610516097702"><ele>315.0</ele><time>2026-04-28T11:27:13Z</time></trkpt><trkpt lat="34.90331468884303" lon="-5.062587428924884"><ele>314.25</ele><time>2026-04-28T11:27:14Z</time></trkpt><trkpt lat="34.90314907055445" lon="-5.062563520033277"><ele>313.5</ele><time>2026-04-28T11:27:15Z</time></trkpt><trkpt lat="34.90300274628174" lon="-5.062541943876338"><ele>312.75</ele><time>2026-04-28T11:27:16Z</time></trkpt><trkpt lat="34.90288837012798" lon="-5.062524812755156"><ele>312.0</ele><time>2026-04-28T11:27:17Z</time></trkpt><trkpt lat="34.90279601373203" lon="-5.062543341175029"><ele>312.0</ele><time>2026-04-28T11:27:18Z</time></trkpt><trkpt lat="34.9026986999604" lon="-5.062543468732606"><ele>312.0</ele><time>2026-04-28T11:27:19Z</time></trkpt><trkpt lat="34.90258142772862" lon="-5.062541941175587"><ele>312.0</ele><time>2026-04-28T11:27:20Z</time></trkpt><trkpt lat="34.90244339994965" lon="-5.062547510570154"><ele>312.0</ele><time>2026-04-28T11:27:21Z</time></trkpt><trkpt lat="34.902295132007104" lon="-5.062545712710154"><ele>312.0</ele><time>2026-04-28T11:27:22Z</time></trkpt><trkpt lat="34.902151427089095" lon="-5.062554953044385"><ele>312.0</ele><time>2026-04-28T11:27:23Z</time></trkpt><trkpt lat="34.90199918954891" lon="-5.062557755778351"><ele>312.0</ele><time>2026-04-28T11:27:24Z</time></trkpt><trkpt lat="34.90183631718486" lon="-5.062553141932638"><ele>311.0</ele><time>2026-04-28T11:27:25Z</time></trkpt><trkpt lat="34.901669003408" lon="-5.0625530001259635"><ele>310.0</ele><time>2026-04-28T11:27:26Z</time></trkpt><trkpt lat="34.90149571959605" lon="-5.0625552992051555"><ele>309.0</ele><time>2026-04-28T11:27:27Z</time></trkpt><trkpt lat="34.901317091325865" lon="-5.06257894947537"><ele>309.0</ele><time>2026-04-28T11:27:28Z</time></trkpt><trkpt lat="34.90113404356252" lon="-5.062580841187719"><ele>309.0</ele><time>2026-04-28T11:27:29Z</time></trkpt><trkpt lat="34.90095089067293" lon="-5.062563861432675"><ele>309.0</ele><time>2026-04-28T11:27:30Z</time></trkpt><trkpt lat="34.9007761305923" lon="-5.062570619174437"><ele>309.0</ele><time>2026-04-28T11:27:31Z</time></trkpt><trkpt lat="34.90061038195882" lon="-5.062571586398074"><ele>309.0</ele><time>2026-04-28T11:27:32Z</time></trkpt><trkpt lat="34.900452763664475" lon="-5.062598572420442"><ele>309.0</ele><time>2026-04-28T11:27:33Z</time></trkpt><trkpt lat="34.90029963362245" lon="-5.062628814862553"><ele>309.0</ele><time>2026-04-28T11:27:34Z</time></trkpt><trkpt lat="34.900149296184075" lon="-5.062678657285316"><ele>309.0</ele><time>2026-04-28T11:27:34.999Z</time></trkpt><trkpt lat="34.89999735948385" lon="-5.062778672938398"><ele>309.0</ele><time>2026-04-28T11:27:35.999Z</time></trkpt><trkpt lat="34.89983985562681" lon="-5.062900964997662"><ele>309.0</ele><time>2026-04-28T11:27:36.999Z</time></trkpt><trkpt lat="34.899693218803804" lon="-5.06301268849237"><ele>309.0</ele><time>2026-04-28T11:27:37.999Z</time></trkpt><trkpt lat="34.899547759360324" lon="-5.063121680105178"><ele>309.0</ele><time>2026-04-28T11:27:38.999Z</time></trkpt><trkpt lat="34.89940579243292" lon="-5.06322616409481"><ele>308.6666666666667</ele><time>2026-04-28T11:27:39.999Z</time></trkpt><trkpt lat="34.899264401120696" lon="-5.06332090911502"><ele>308.33333333333337</ele><time>2026-04-28T11:27:40.999Z</time></trkpt><trkpt lat="34.8991168028889" lon="-5.063411177836713"><ele>308.0</ele><time>2026-04-28T11:27:41.999Z</time></trkpt><trkpt lat="34.89896476342765" lon="-5.063501555248992"><ele>309.0</ele><time>2026-04-28T11:27:42.999Z</time></trkpt><trkpt lat="34.89880909793027" lon="-5.06359408399115"><ele>310.0</ele><time>2026-04-28T11:27:43.999Z</time></trkpt><trkpt lat="34.89864866892086" lon="-5.0636843220797605"><ele>311.0</ele><time>2026-04-28T11:27:44.999Z</time></trkpt><trkpt lat="34.89849179754407" lon="-5.06376615715446"><ele>312.75</ele><time>2026-04-28T11:27:45.999Z</time></trkpt><trkpt lat="34.89835069191118" lon="-5.063848594350542"><ele>314.5</ele><time>2026-04-28T11:27:46.999Z</time></trkpt><trkpt lat="34.898220337045565" lon="-5.063921275296961"><ele>316.25</ele><time>2026-04-28T11:27:47.999Z</time></trkpt><trkpt lat="34.89810930363487" lon="-5.0639531205724815"><ele>318.0</ele><time>2026-04-28T11:27:48.999Z</time></trkpt><trkpt lat="34.89799377454392" lon="-5.063952897588698"><ele>318.0</ele><time>2026-04-28T11:27:49.999Z</time></trkpt><trkpt lat="34.89788140713799" lon="-5.063915387806345"><ele>318.0</ele><time>2026-04-28T11:27:50.999Z</time></trkpt><trkpt lat="34.89777404921781" lon="-5.063834011793438"><ele>318.0</ele><time>2026-04-28T11:27:51.999Z</time></trkpt><trkpt lat="34.89768894917822" lon="-5.063717329195162"><ele>318.0</ele><time>2026-04-28T11:27:52.999Z</time></trkpt><trkpt lat="34.89762986503455" lon="-5.063569528811226"><ele>318.0</ele><time>2026-04-28T11:27:53.999Z</time></trkpt><trkpt lat="34.89760422064318" lon="-5.063414049586129"><ele>318.0</ele><time>2026-04-28T11:27:54.999Z</time></trkpt><trkpt lat="34.897620544289325" lon="-5.063262430508457"><ele>318.0</ele><time>2026-04-28T11:27:55.999Z</time></trkpt><trkpt lat="34.89767526953588" lon="-5.063107840272985"><ele>318.0</ele><time>2026-04-28T11:27:56.999Z</time></trkpt><trkpt lat="34.89772937681809" lon="-5.062948742828173"><ele>319.5</ele><time>2026-04-28T11:27:57.999Z</time></trkpt><trkpt lat="34.897791721441955" lon="-5.062799218203889"><ele>321.0</ele><time>2026-04-28T11:27:58.999Z</time></trkpt><trkpt lat="34.89780091033284" lon="-5.062635003681104"><ele>322.5</ele><time>2026-04-28T11:27:59.999Z</time></trkpt><trkpt lat="34.89776749699824" lon="-5.062495758835276"><ele>324.0</ele><time>2026-04-28T11:28:00.999Z</time></trkpt><trkpt lat="34.89769522677693" lon="-5.062366732139394"><ele>326.0</ele><time>2026-04-28T11:28:01.999Z</time></trkpt><trkpt lat="34.89760816504715" lon="-5.062231193439794"><ele>328.0</ele><time>2026-04-28T11:28:02.999Z</time></trkpt><trkpt lat="34.89754124847771" lon="-5.0620927836286285"><ele>330.0</ele><time>2026-04-28T11:28:03.999Z</time></trkpt><trkpt lat="34.89746104553206" lon="-5.061942114046662"><ele>332.0</ele><time>2026-04-28T11:28:04.999Z</time></trkpt><trkpt lat="34.89736263597397" lon="-5.06179583082039"><ele>334.25</ele><time>2026-04-28T11:28:05.999Z</time></trkpt><trkpt lat="34.89725429931164" lon="-5.0616684891344415"><ele>336.5</ele><time>2026-04-28T11:28:06.999Z</time></trkpt><trkpt lat="34.897155428567885" lon="-5.061559941581356"><ele>338.75</ele><time>2026-04-28T11:28:07.999Z</time></trkpt><trkpt lat="34.89707296859957" lon="-5.061468668508091"><ele>341.0</ele><time>2026-04-28T11:28:08.999Z</time></trkpt><trkpt lat="34.89701873441073" lon="-5.061375430105263"><ele>343.20000000000005</ele><time>2026-04-28T11:28:09.999Z</time></trkpt><trkpt lat="34.89699051147251" lon="-5.0612542968327645"><ele>345.40000000000003</ele><time>2026-04-28T11:28:10.999Z</time></trkpt><trkpt lat="34.89698939396064" lon="-5.0611342636317795"><ele>347.6</ele><time>2026-04-28T11:28:11.999Z</time></trkpt><trkpt lat="34.89701537644758" lon="-5.061011333040132"><ele>349.8</ele><time>2026-04-28T11:28:12.999Z</time></trkpt><trkpt lat="34.89704838610335" lon="-5.060883224855143"><ele>352.0</ele><time>2026-04-28T11:28:13.999Z</time></trkpt><trkpt lat="34.89710970931658" lon="-5.060768112349093"><ele>358.0</ele><time>2026-04-28T11:28:14.999Z</time></trkpt><trkpt lat="34.89717969324104" lon="-5.060676515265666"><ele>364.0</ele><time>2026-04-28T11:28:15.999Z</time></trkpt><trkpt lat="34.897283201031215" lon="-5.060625174135441"><ele>370.0</ele><time>2026-04-28T11:28:16.999Z</time></trkpt><trkpt lat="34.897398395654335" lon="-5.060620014953978"><ele>376.0</ele><time>2026-04-28T11:28:17.999Z</time></trkpt><trkpt lat="34.897525563592446" lon="-5.060669461542577"><ele>369.5</ele><time>2026-04-28T11:28:18.999Z</time></trkpt><trkpt lat="34.8976413656781" lon="-5.060795206335206"><ele>363.0</ele><time>2026-04-28T11:28:19.999Z</time></trkpt><trkpt lat="34.89775019993353" lon="-5.060914206495644"><ele>356.5</ele><time>2026-04-28T11:28:20.999Z</time></trkpt><trkpt lat="34.89784868837388" lon="-5.06104540390389"><ele>350.0</ele><time>2026-04-28T11:28:21.999Z</time></trkpt><trkpt lat="34.89792738191201" lon="-5.061183860753372"><ele>350.0</ele><time>2026-04-28T11:28:22.999Z</time></trkpt><trkpt lat="34.89799857194446" lon="-5.061304451232498"><ele>350.0</ele><time>2026-04-28T11:28:23.999Z</time></trkpt><trkpt lat="34.898063409832346" lon="-5.061419014835382"><ele>350.0</ele><time>2026-04-28T11:28:24.999Z</time></trkpt><trkpt lat="34.89813798232282" lon="-5.061477155263697"><ele>350.0</ele><time>2026-04-28T11:28:25.999Z</time></trkpt><trkpt lat="34.89819043377066" lon="-5.0615321070594"><ele>350.0</ele><time>2026-04-28T11:28:26.999Z</time></trkpt><trkpt lat="34.89833950168354" lon="-5.061490434616397"><ele>350.0</ele><time>2026-04-28T11:28:27.999Z</time></trkpt><trkpt lat="34.89839469396015" lon="-5.06142434666455"><ele>350.0</ele><time>2026-04-28T11:28:28.999Z</time></trkpt><trkpt lat="34.89840300112282" lon="-5.061326530099457"><ele>350.0</ele><time>2026-04-28T11:28:29.999Z</time></trkpt><trkpt lat="34.898376615881986" lon="-5.061228854792757"><ele>350.0</ele><time>2026-04-28T11:28:30.999Z</time></trkpt><trkpt lat="34.898330646880616" lon="-5.06114315461362"><ele>350.0</ele><time>2026-04-28T11:28:31.999Z</time></trkpt><trkpt lat="34.89827977552353" lon="-5.061037354024305"><ele>350.0</ele><time>2026-04-28T11:28:32.999Z</time></trkpt><trkpt lat="34.89817883981235" lon="-5.0609494908164905"><ele>350.0</ele><time>2026-04-28T11:28:33.999Z</time></trkpt><trkpt lat="34.89806113175748" lon="-5.0608616012701075"><ele>350.0</ele><time>2026-04-28T11:28:34.999Z</time></trkpt><trkpt lat="34.89794435276565" lon="-5.060775078617901"><ele>350.0</ele><time>2026-04-28T11:28:35.999Z</time></trkpt><trkpt lat="34.897838665749155" lon="-5.060689997020151"><ele>350.0</ele><time>2026-04-28T11:28:36.999Z</time></trkpt><trkpt lat="34.89773082594901" lon="-5.060585309356575"><ele>356.0</ele><time>2026-04-28T11:28:37.999Z</time></trkpt><trkpt lat="34.89761841802784" lon="-5.060475835936741"><ele>362.0</ele><time>2026-04-28T11:28:38.999Z</time></trkpt><trkpt lat="34.89750833052708" lon="-5.060356399222406"><ele>368.0</ele><time>2026-04-28T11:28:39.999Z</time></trkpt><trkpt lat="34.89738876311781" lon="-5.06023809840342"><ele>374.0</ele><time>2026-04-28T11:28:40.999Z</time></trkpt><trkpt lat="34.897253324529345" lon="-5.060140908796624"><ele>374.6666666666667</ele><time>2026-04-28T11:28:41.999Z</time></trkpt><trkpt lat="34.897107042586136" lon="-5.060058760301836"><ele>375.3333333333333</ele><time>2026-04-28T11:28:42.999Z</time></trkpt><trkpt lat="34.89696844295246" lon="-5.05998339427704"><ele>376.0</ele><time>2026-04-28T11:28:43.999Z</time></trkpt><trkpt lat="34.89684330273901" lon="-5.059915833791926"><ele>377.75</ele><time>2026-04-28T11:28:44.999Z</time></trkpt><trkpt lat="34.89672879402311" lon="-5.0598583944299005"><ele>379.5</ele><time>2026-04-28T11:28:45.999Z</time></trkpt><trkpt lat="34.89662962115063" lon="-5.059783773097478"><ele>381.25</ele><time>2026-04-28T11:28:46.999Z</time></trkpt><trkpt lat="34.89651521808369" lon="-5.059726455984915"><ele>383.0</ele><time>2026-04-28T11:28:47.999Z</time></trkpt><trkpt lat="34.896399849358275" lon="-5.059668694015512"><ele>383.0</ele><time>2026-04-28T11:28:48.999Z</time></trkpt><trkpt lat="34.896282056685266" lon="-5.059603442615412"><ele>383.0</ele><time>2026-04-28T11:28:49.999Z</time></trkpt><trkpt lat="34.896161767726724" lon="-5.059531802001819"><ele>383.0</ele><time>2026-04-28T11:28:50.999Z</time></trkpt><trkpt lat="34.896047724281644" lon="-5.05946052400881"><ele>383.0</ele><time>2026-04-28T11:28:51.999Z</time></trkpt><trkpt lat="34.89594609370745" lon="-5.059407220464194"><ele>383.59999999999997</ele><time>2026-04-28T11:28:52.999Z</time></trkpt><trkpt lat="34.89584177132342" lon="-5.059379649226979"><ele>384.2</ele><time>2026-04-28T11:28:53.999Z</time></trkpt><trkpt lat="34.89573379770035" lon="-5.059375049330765"><ele>384.8</ele><time>2026-04-28T11:28:54.999Z</time></trkpt><trkpt lat="34.89563165294993" lon="-5.059398533629514"><ele>385.4</ele><time>2026-04-28T11:28:55.999Z</time></trkpt><trkpt lat="34.89554652560813" lon="-5.059470808759614"><ele>386.0</ele><time>2026-04-28T11:28:56.999Z</time></trkpt><trkpt lat="34.89548376251492" lon="-5.059576547279421"><ele>386.0</ele><time>2026-04-28T11:28:57.999Z</time></trkpt><trkpt lat="34.89546624901949" lon="-5.0597108110581335"><ele>386.0</ele><time>2026-04-28T11:28:58.999Z</time></trkpt><trkpt lat="34.895480571877634" lon="-5.059839109486839"><ele>386.0</ele><time>2026-04-28T11:29:00Z</time></trkpt><trkpt lat="34.89551938537529" lon="-5.059967268150567"><ele>386.0</ele><time>2026-04-28T11:29:01Z</time></trkpt><trkpt lat="34.895569850274114" lon="-5.0601062735722655"><ele>385.25</ele><time>2026-04-28T11:29:02Z</time></trkpt><trkpt lat="34.89561363705054" lon="-5.060246348832243"><ele>384.5</ele><time>2026-04-28T11:29:03Z</time></trkpt><trkpt lat="34.89566234822473" lon="-5.060363612083465"><ele>383.75</ele><time>2026-04-28T11:29:04Z</time></trkpt><trkpt lat="34.895678233052514" lon="-5.060491569213733"><ele>383.0</ele><time>2026-04-28T11:29:05Z</time></trkpt><trkpt lat="34.89565773731443" lon="-5.060627527040162"><ele>383.0</ele><time>2026-04-28T11:29:06Z</time></trkpt><trkpt lat="34.89560301639114" lon="-5.060742976940031"><ele>383.0</ele><time>2026-04-28T11:29:07Z</time></trkpt><trkpt lat="34.89552613322364" lon="-5.06082222416249"><ele>383.0</ele><time>2026-04-28T11:29:08Z</time></trkpt><trkpt lat="34.8954349270576" lon="-5.060872560563345"><ele>383.0</ele><time>2026-04-28T11:29:09Z</time></trkpt><trkpt lat="34.895342535911375" lon="-5.060893119705395"><ele>383.0</ele><time>2026-04-28T11:29:10Z</time></trkpt><trkpt lat="34.895247836243605" lon="-5.06087619441036"><ele>383.0</ele><time>2026-04-28T11:29:11Z</time></trkpt><trkpt lat="34.89515047784512" lon="-5.060823869047267"><ele>383.0</ele><time>2026-04-28T11:29:12Z</time></trkpt><trkpt lat="34.89506384788415" lon="-5.060741928023795"><ele>383.0</ele><time>2026-04-28T11:29:13Z</time></trkpt><trkpt lat="34.8950051094898" lon="-5.0606353625682"><ele>383.0</ele><time>2026-04-28T11:29:14Z</time></trkpt><trkpt lat="34.894978524481644" lon="-5.060519642400682"><ele>383.0</ele><time>2026-04-28T11:29:15Z</time></trkpt><trkpt lat="34.89496942687364" lon="-5.060392708200121"><ele>386.0</ele><time>2026-04-28T11:29:16Z</time></trkpt><trkpt lat="34.894972775974146" lon="-5.0602647236979115"><ele>389.0</ele><time>2026-04-28T11:29:17Z</time></trkpt><trkpt lat="34.89497326273923" lon="-5.060111456089891"><ele>392.0</ele><time>2026-04-28T11:29:18Z</time></trkpt><trkpt lat="34.89496174693865" lon="-5.0599523878797585"><ele>395.0</ele><time>2026-04-28T11:29:19Z</time></trkpt><trkpt lat="34.89493280631118" lon="-5.059791176601423"><ele>396.25</ele><time>2026-04-28T11:29:20Z</time></trkpt><trkpt lat="34.89488954747379" lon="-5.059642543939862"><ele>397.5</ele><time>2026-04-28T11:29:21Z</time></trkpt><trkpt lat="34.894841168468" lon="-5.059503227841946"><ele>398.75</ele><time>2026-04-28T11:29:22Z</time></trkpt><trkpt lat="34.89481215661873" lon="-5.059357150365735"><ele>400.0</ele><time>2026-04-28T11:29:23Z</time></trkpt><trkpt lat="34.89480588426546" lon="-5.059205528725751"><ele>401.75</ele><time>2026-04-28T11:29:24Z</time></trkpt><trkpt lat="34.894835278659535" lon="-5.059059110800669"><ele>403.5</ele><time>2026-04-28T11:29:25Z</time></trkpt><trkpt lat="34.894901793659265" lon="-5.058930969635461"><ele>405.25</ele><time>2026-04-28T11:29:26Z</time></trkpt><trkpt lat="34.89499657041345" lon="-5.058813806228666"><ele>407.0</ele><time>2026-04-28T11:29:27Z</time></trkpt><trkpt lat="34.895095172840094" lon="-5.058707762012634"><ele>407.0</ele><time>2026-04-28T11:29:28Z</time></trkpt><trkpt lat="34.89514939064824" lon="-5.0585970034911885"><ele>407.0</ele><time>2026-04-28T11:29:29Z</time></trkpt><trkpt lat="34.89520470159103" lon="-5.058515887418596"><ele>407.0</ele><time>2026-04-28T11:29:30Z</time></trkpt><trkpt lat="34.89525317748142" lon="-5.058445500718889"><ele>407.0</ele><time>2026-04-28T11:29:30.999Z</time></trkpt><trkpt lat="34.89530255936974" lon="-5.058360182992521"><ele>407.0</ele><time>2026-04-28T11:29:31.999Z</time></trkpt><trkpt lat="34.895354098795764" lon="-5.058248223000467"><ele>411.0</ele><time>2026-04-28T11:29:32.999Z</time></trkpt><trkpt lat="34.89536435376249" lon="-5.058109826040173"><ele>415.0</ele><time>2026-04-28T11:29:33.999Z</time></trkpt><trkpt lat="34.89536802872138" lon="-5.057962686074309"><ele>419.0</ele><time>2026-04-28T11:29:34.999Z</time></trkpt><trkpt lat="34.895347461544354" lon="-5.057823898857472"><ele>423.0</ele><time>2026-04-28T11:29:35.999Z</time></trkpt><trkpt lat="34.895304544202524" lon="-5.057695158505677"><ele>423.0</ele><time>2026-04-28T11:29:36.999Z</time></trkpt><trkpt lat="34.89524967719921" lon="-5.057581417137991"><ele>423.0</ele><time>2026-04-28T11:29:37.999Z</time></trkpt><trkpt lat="34.89516905376785" lon="-5.057496728329197"><ele>423.0</ele><time>2026-04-28T11:29:38.999Z</time></trkpt><trkpt lat="34.89507615703908" lon="-5.057449631897518"><ele>423.0</ele><time>2026-04-28T11:29:39.999Z</time></trkpt><trkpt lat="34.894988950050056" lon="-5.05744252938857"><ele>423.0</ele><time>2026-04-28T11:29:40.999Z</time></trkpt><trkpt lat="34.89490118864408" lon="-5.057466414833539"><ele>422.59999999999997</ele><time>2026-04-28T11:29:41.999Z</time></trkpt><trkpt lat="34.89481966831444" lon="-5.057520552921053"><ele>422.2</ele><time>2026-04-28T11:29:42.999Z</time></trkpt><trkpt lat="34.89474179905105" lon="-5.0576051424647686"><ele>421.8</ele><time>2026-04-28T11:29:43.999Z</time></trkpt><trkpt lat="34.89468368898777" lon="-5.057713257866437"><ele>421.4</ele><time>2026-04-28T11:29:44.999Z</time></trkpt><trkpt lat="34.89466807410881" lon="-5.057845844396508"><ele>421.0</ele><time>2026-04-28T11:29:45.999Z</time></trkpt><trkpt lat="34.894646323987935" lon="-5.05798393678902"><ele>421.0</ele><time>2026-04-28T11:29:46.999Z</time></trkpt><trkpt lat="34.89461961621066" lon="-5.058124946134631"><ele>421.0</ele><time>2026-04-28T11:29:47.999Z</time></trkpt><trkpt lat="34.89460307690417" lon="-5.058258038083067"><ele>421.0</ele><time>2026-04-28T11:29:48.999Z</time></trkpt><trkpt lat="34.89455730655978" lon="-5.058369304900374"><ele>421.0</ele><time>2026-04-28T11:29:49.999Z</time></trkpt><trkpt lat="34.894475718935425" lon="-5.05846450239567"><ele>421.0</ele><time>2026-04-28T11:29:50.999Z</time></trkpt><trkpt lat="34.89436184233924" lon="-5.058532558851299"><ele>423.5</ele><time>2026-04-28T11:29:51.999Z</time></trkpt><trkpt lat="34.89422512613141" lon="-5.058577808393195"><ele>426.0</ele><time>2026-04-28T11:29:52.999Z</time></trkpt><trkpt lat="34.89408665075582" lon="-5.0586310717896685"><ele>428.5</ele><time>2026-04-28T11:29:53.999Z</time></trkpt><trkpt lat="34.8939491437953" lon="-5.058686301360769"><ele>431.0</ele><time>2026-04-28T11:29:54.999Z</time></trkpt><trkpt lat="34.89380616891467" lon="-5.058730255624021"><ele>431.0</ele><time>2026-04-28T11:29:55.999Z</time></trkpt><trkpt lat="34.89365078744751" lon="-5.058770465960516"><ele>431.0</ele><time>2026-04-28T11:29:56.999Z</time></trkpt><trkpt lat="34.89352207397078" lon="-5.058858447185993"><ele>431.0</ele><time>2026-04-28T11:29:57.999Z</time></trkpt><trkpt lat="34.893407038256555" lon="-5.058915573443861"><ele>431.0</ele><time>2026-04-28T11:29:58.999Z</time></trkpt><trkpt lat="34.89333632310208" lon="-5.0590190608276675"><ele>433.25</ele><time>2026-04-28T11:29:59.999Z</time></trkpt><trkpt lat="34.89329469202798" lon="-5.059150965559942"><ele>435.5</ele><time>2026-04-28T11:30:00.999Z</time></trkpt><trkpt lat="34.89328245015763" lon="-5.059303239659771"><ele>437.75</ele><time>2026-04-28T11:30:01.999Z</time></trkpt><trkpt lat="34.893335598384795" lon="-5.059463226933643"><ele>440.0</ele><time>2026-04-28T11:30:02.999Z</time></trkpt><trkpt lat="34.89334244415422" lon="-5.059612531202574"><ele>440.0</ele><time>2026-04-28T11:30:03.999Z</time></trkpt><trkpt lat="34.89331391945762" lon="-5.05975508266382"><ele>440.0</ele><time>2026-04-28T11:30:04.999Z</time></trkpt><trkpt lat="34.893252266048016" lon="-5.05989033922408"><ele>440.0</ele><time>2026-04-28T11:30:05.999Z</time></trkpt><trkpt lat="34.89315458404555" lon="-5.060026476101796"><ele>440.0</ele><time>2026-04-28T11:30:06.999Z</time></trkpt><trkpt lat="34.893046016966814" lon="-5.060159905699303"><ele>440.25</ele><time>2026-04-28T11:30:07.999Z</time></trkpt><trkpt lat="34.892949487393736" lon="-5.060299441940881"><ele>440.5</ele><time>2026-04-28T11:30:08.999Z</time></trkpt><trkpt lat="34.89286242364883" lon="-5.060444643056313"><ele>440.75</ele><time>2026-04-28T11:30:09.999Z</time></trkpt><trkpt lat="34.89277596314813" lon="-5.060586891177477"><ele>441.0</ele><time>2026-04-28T11:30:10.999Z</time></trkpt><trkpt lat="34.89270043609689" lon="-5.06071120515025"><ele>440.20000000000005</ele><time>2026-04-28T11:30:11.999Z</time></trkpt><trkpt lat="34.89264003058903" lon="-5.060818291520966"><ele>439.40000000000003</ele><time>2026-04-28T11:30:12.999Z</time></trkpt><trkpt lat="34.89258133388518" lon="-5.06091001155856"><ele>438.6</ele><time>2026-04-28T11:30:13.999Z</time></trkpt><trkpt lat="34.89251761012933" lon="-5.060991822421281"><ele>437.8</ele><time>2026-04-28T11:30:14.999Z</time></trkpt><trkpt lat="34.89243446044318" lon="-5.061058049682956"><ele>437.0</ele><time>2026-04-28T11:30:15.999Z</time></trkpt><trkpt lat="34.89232938116337" lon="-5.061093246769555"><ele>441.75</ele><time>2026-04-28T11:30:16.999Z</time></trkpt><trkpt lat="34.89221532296225" lon="-5.0610905362209"><ele>446.5</ele><time>2026-04-28T11:30:17.999Z</time></trkpt><trkpt lat="34.89209823876278" lon="-5.06104937844314"><ele>451.25</ele><time>2026-04-28T11:30:18.999Z</time></trkpt><trkpt lat="34.891978346250774" lon="-5.060977536864134"><ele>456.0</ele><time>2026-04-28T11:30:19.999Z</time></trkpt><trkpt lat="34.891862888038595" lon="-5.060875948765842"><ele>456.66666666666663</ele><time>2026-04-28T11:30:20.999Z</time></trkpt><trkpt lat="34.89174255680182" lon="-5.060760983555525"><ele>457.3333333333333</ele><time>2026-04-28T11:30:21.999Z</time></trkpt><trkpt lat="34.89161305820917" lon="-5.060661415510486"><ele>458.0</ele><time>2026-04-28T11:30:22.999Z</time></trkpt><trkpt lat="34.89147220181429" lon="-5.0606083474616605"><ele>458.0</ele><time>2026-04-28T11:30:23.999Z</time></trkpt><trkpt lat="34.89132285094848" lon="-5.060548172932954"><ele>458.0</ele><time>2026-04-28T11:30:24.999Z</time></trkpt><trkpt lat="34.891161302529746" lon="-5.060521443325962"><ele>458.0</ele><time>2026-04-28T11:30:25.999Z</time></trkpt><trkpt lat="34.890990013485606" lon="-5.060492682417178"><ele>461.0</ele><time>2026-04-28T11:30:26.999Z</time></trkpt><trkpt lat="34.89082358002575" lon="-5.060472674565135"><ele>464.0</ele><time>2026-04-28T11:30:27.999Z</time></trkpt><trkpt lat="34.89066779528771" lon="-5.060479941999564"><ele>467.0</ele><time>2026-04-28T11:30:28.999Z</time></trkpt><trkpt lat="34.8905236590976" lon="-5.060500687944078"><ele>467.0</ele><time>2026-04-28T11:30:29.999Z</time></trkpt><trkpt lat="34.89039752576773" lon="-5.060583120664086"><ele>467.0</ele><time>2026-04-28T11:30:30.999Z</time></trkpt><trkpt lat="34.89027867498277" lon="-5.060694855578195"><ele>467.0</ele><time>2026-04-28T11:30:31.999Z</time></trkpt><trkpt lat="34.89015838085358" lon="-5.060815290597024"><ele>467.0</ele><time>2026-04-28T11:30:32.999Z</time></trkpt><trkpt lat="34.890040647178346" lon="-5.060932323618731"><ele>469.0</ele><time>2026-04-28T11:30:33.999Z</time></trkpt><trkpt lat="34.889946292221985" lon="-5.06104685221206"><ele>471.0</ele><time>2026-04-28T11:30:34.999Z</time></trkpt><trkpt lat="34.889867162592886" lon="-5.061148131228468"><ele>473.0</ele><time>2026-04-28T11:30:35.999Z</time></trkpt><trkpt lat="34.889777242354725" lon="-5.061218246280441"><ele>475.0</ele><time>2026-04-28T11:30:36.999Z</time></trkpt><trkpt lat="34.88966541087786" lon="-5.0612507275918155"><ele>475.0</ele><time>2026-04-28T11:30:37.999Z</time></trkpt><trkpt lat="34.889539356285105" lon="-5.06126000353444"><ele>475.0</ele><time>2026-04-28T11:30:38.999Z</time></trkpt><trkpt lat="34.88941005247706" lon="-5.061230451456154"><ele>475.0</ele><time>2026-04-28T11:30:39.999Z</time></trkpt><trkpt lat="34.8892786604977" lon="-5.06115762584394"><ele>475.0</ele><time>2026-04-28T11:30:40.999Z</time></trkpt><trkpt lat="34.88914435272178" lon="-5.061060293970812"><ele>479.6666666666667</ele><time>2026-04-28T11:30:41.999Z</time></trkpt><trkpt lat="34.8890132900834" lon="-5.060961183857481"><ele>484.33333333333337</ele><time>2026-04-28T11:30:42.999Z</time></trkpt><trkpt lat="34.888871575599225" lon="-5.060882197192971"><ele>489.0</ele><time>2026-04-28T11:30:43.999Z</time></trkpt><trkpt lat="34.8887291973742" lon="-5.060809553152744"><ele>489.33333333333337</ele><time>2026-04-28T11:30:44.999Z</time></trkpt><trkpt lat="34.88858748229509" lon="-5.060727405980268"><ele>489.6666666666667</ele><time>2026-04-28T11:30:45.999Z</time></trkpt><trkpt lat="34.88844747308659" lon="-5.0606410279886305"><ele>490.0</ele><time>2026-04-28T11:30:46.999Z</time></trkpt><trkpt lat="34.88830313389296" lon="-5.06055260184316"><ele>490.0</ele><time>2026-04-28T11:30:47.999Z</time></trkpt><trkpt lat="34.88815944939683" lon="-5.0604738972816605"><ele>490.0</ele><time>2026-04-28T11:30:48.999Z</time></trkpt><trkpt lat="34.88801392129682" lon="-5.060408861523705"><ele>490.0</ele><time>2026-04-28T11:30:49.999Z</time></trkpt><trkpt lat="34.88785432610707" lon="-5.06038269617541"><ele>490.0</ele><time>2026-04-28T11:30:50.999Z</time></trkpt><trkpt lat="34.88768593275728" lon="-5.0603573097345675"><ele>490.0</ele><time>2026-04-28T11:30:51.999Z</time></trkpt><trkpt lat="34.887506356126934" lon="-5.060338208735754"><ele>490.0</ele><time>2026-04-28T11:30:52.999Z</time></trkpt><trkpt lat="34.88732072351236" lon="-5.060319815554629"><ele>489.0</ele><time>2026-04-28T11:30:53.999Z</time></trkpt><trkpt lat="34.88713245197422" lon="-5.060281321403922"><ele>488.0</ele><time>2026-04-28T11:30:54.999Z</time></trkpt><trkpt lat="34.886944798729736" lon="-5.060288073968677"><ele>487.0</ele><time>2026-04-28T11:30:55.999Z</time></trkpt><trkpt lat="34.88676857268058" lon="-5.060254725616602"><ele>488.0</ele><time>2026-04-28T11:30:56.999Z</time></trkpt><trkpt lat="34.88659982051138" lon="-5.0602456424985025"><ele>489.0</ele><time>2026-04-28T11:30:57.999Z</time></trkpt><trkpt lat="34.886440754896746" lon="-5.06024819215036"><ele>490.0</ele><time>2026-04-28T11:30:58.999Z</time></trkpt><trkpt lat="34.88628787525891" lon="-5.060270802993305"><ele>490.0</ele><time>2026-04-28T11:30:59.999Z</time></trkpt><trkpt lat="34.886140544840785" lon="-5.060321783758072"><ele>490.0</ele><time>2026-04-28T11:31:00.999Z</time></trkpt><trkpt lat="34.886003014762714" lon="-5.060394747174444"><ele>490.0</ele><time>2026-04-28T11:31:01.999Z</time></trkpt><trkpt lat="34.88588527943587" lon="-5.060496520154126"><ele>490.0</ele><time>2026-04-28T11:31:02.999Z</time></trkpt><trkpt lat="34.88577650509253" lon="-5.060623635019213"><ele>494.0</ele><time>2026-04-28T11:31:03.999Z</time></trkpt><trkpt lat="34.885666823834" lon="-5.060763739444121"><ele>498.0</ele><time>2026-04-28T11:31:04.999Z</time></trkpt><trkpt lat="34.885546995096746" lon="-5.060900897584095"><ele>502.0</ele><time>2026-04-28T11:31:06Z</time></trkpt><trkpt lat="34.885421359444436" lon="-5.061030949846373"><ele>502.0</ele><time>2026-04-28T11:31:07Z</time></trkpt><trkpt lat="34.885329419747144" lon="-5.061190342605176"><ele>502.0</ele><time>2026-04-28T11:31:08Z</time></trkpt><trkpt lat="34.885233269528435" lon="-5.0613366015527825"><ele>502.0</ele><time>2026-04-28T11:31:09Z</time></trkpt><trkpt lat="34.885166684265506" lon="-5.061473295969535"><ele>502.0</ele><time>2026-04-28T11:31:10Z</time></trkpt><trkpt lat="34.88510541943598" lon="-5.061610397933804"><ele>506.33333333333337</ele><time>2026-04-28T11:31:11Z</time></trkpt><trkpt lat="34.88505169273474" lon="-5.061764666939783"><ele>510.66666666666663</ele><time>2026-04-28T11:31:12Z</time></trkpt><trkpt lat="34.88503014787435" lon="-5.061952940194848"><ele>515.0</ele><time>2026-04-28T11:31:13Z</time></trkpt><trkpt lat="34.885009406217094" lon="-5.062146526548611"><ele>515.0</ele><time>2026-04-28T11:31:14Z</time></trkpt><trkpt lat="34.88499206258068" lon="-5.062328246945667"><ele>515.0</ele><time>2026-04-28T11:31:15Z</time></trkpt><trkpt lat="34.88497590439138" lon="-5.0624974096958955"><ele>515.0</ele><time>2026-04-28T11:31:16Z</time></trkpt><trkpt lat="34.884950760939546" lon="-5.062644823996299"><ele>515.0</ele><time>2026-04-28T11:31:17Z</time></trkpt><trkpt lat="34.88491471039444" lon="-5.062765080180647"><ele>515.6</ele><time>2026-04-28T11:31:18Z</time></trkpt><trkpt lat="34.884860925234086" lon="-5.062862510713455"><ele>516.2</ele><time>2026-04-28T11:31:19Z</time></trkpt><trkpt lat="34.88478241991472" lon="-5.062939998634098"><ele>516.8</ele><time>2026-04-28T11:31:20Z</time></trkpt><trkpt lat="34.884683250664054" lon="-5.0629936428078155"><ele>517.4</ele><time>2026-04-28T11:31:21Z</time></trkpt><trkpt lat="34.88457018120287" lon="-5.063026920481517"><ele>518.0</ele><time>2026-04-28T11:31:22Z</time></trkpt><trkpt lat="34.88445038655266" lon="-5.063032012057166"><ele>518.0</ele><time>2026-04-28T11:31:23Z</time></trkpt><trkpt lat="34.884331388050974" lon="-5.062995130101323"><ele>518.0</ele><time>2026-04-28T11:31:24Z</time></trkpt><trkpt lat="34.884225870458195" lon="-5.062920147929601"><ele>518.0</ele><time>2026-04-28T11:31:25Z</time></trkpt><trkpt lat="34.88413733427107" lon="-5.062816679167057"><ele>518.0</ele><time>2026-04-28T11:31:26Z</time></trkpt><trkpt lat="34.88407712816646" lon="-5.062683928238567"><ele>521.0</ele><time>2026-04-28T11:31:27Z</time></trkpt><trkpt lat="34.884051144588646" lon="-5.062532160422194"><ele>524.0</ele><time>2026-04-28T11:31:28Z</time></trkpt><trkpt lat="34.88405706901396" lon="-5.0623678125201135"><ele>527.0</ele><time>2026-04-28T11:31:29Z</time></trkpt><trkpt lat="34.88406884758232" lon="-5.062192513471015"><ele>530.0</ele><time>2026-04-28T11:31:29.999Z</time></trkpt><trkpt lat="34.884036960629594" lon="-5.062047453478422"><ele>530.0</ele><time>2026-04-28T11:31:30.999Z</time></trkpt><trkpt lat="34.884007404059794" lon="-5.061916589191029"><ele>530.0</ele><time>2026-04-28T11:31:31.999Z</time></trkpt><trkpt lat="34.8839166749997" lon="-5.061804162381135"><ele>530.0</ele><time>2026-04-28T11:31:32.999Z</time></trkpt><trkpt lat="34.8837956539634" lon="-5.06169913765638"><ele>530.0</ele><time>2026-04-28T11:31:33.999Z</time></trkpt><trkpt lat="34.883670598429084" lon="-5.06160235667027"><ele>530.6666666666666</ele><time>2026-04-28T11:31:34.999Z</time></trkpt><trkpt lat="34.883537841205055" lon="-5.06150342495565"><ele>531.3333333333334</ele><time>2026-04-28T11:31:35.999Z</time></trkpt><trkpt lat="34.883395029413315" lon="-5.061397825697992"><ele>532.0</ele><time>2026-04-28T11:31:36.999Z</time></trkpt><trkpt lat="34.88326053261015" lon="-5.061294705700219"><ele>533.25</ele><time>2026-04-28T11:31:37.999Z</time></trkpt><trkpt lat="34.88313393109728" lon="-5.061201795060764"><ele>534.5</ele><time>2026-04-28T11:31:38.999Z</time></trkpt><trkpt lat="34.88301802987276" lon="-5.061120941832845"><ele>535.75</ele><time>2026-04-28T11:31:39.999Z</time></trkpt><trkpt lat="34.882897200281356" lon="-5.061040117134"><ele>537.0</ele><time>2026-04-28T11:31:40.999Z</time></trkpt><trkpt lat="34.88278227335275" lon="-5.060965455314524"><ele>537.0</ele><time>2026-04-28T11:31:41.999Z</time></trkpt><trkpt lat="34.88265718028539" lon="-5.06088413335346"><ele>537.0</ele><time>2026-04-28T11:31:42.999Z</time></trkpt><trkpt lat="34.88252241090147" lon="-5.060826220658466"><ele>537.0</ele><time>2026-04-28T11:31:43.999Z</time></trkpt><trkpt lat="34.88239303535111" lon="-5.060759195362005"><ele>537.0</ele><time>2026-04-28T11:31:44.999Z</time></trkpt><trkpt lat="34.882266338192366" lon="-5.060699798087626"><ele>536.25</ele><time>2026-04-28T11:31:45.999Z</time></trkpt><trkpt lat="34.88213765528619" lon="-5.060647914416888"><ele>535.5</ele><time>2026-04-28T11:31:46.999Z</time></trkpt><trkpt lat="34.88200444512949" lon="-5.060603503595512"><ele>534.75</ele><time>2026-04-28T11:31:47.999Z</time></trkpt><trkpt lat="34.88186452383419" lon="-5.060546398124192"><ele>534.0</ele><time>2026-04-28T11:31:48.999Z</time></trkpt><trkpt lat="34.881712181997536" lon="-5.0605779659424"><ele>537.3333333333334</ele><time>2026-04-28T11:31:49.999Z</time></trkpt><trkpt lat="34.88156564911562" lon="-5.060561950629545"><ele>540.6666666666667</ele><time>2026-04-28T11:31:50.999Z</time></trkpt><trkpt lat="34.8814203687313" lon="-5.060516312490917"><ele>544.0</ele><time>2026-04-28T11:31:51.999Z</time></trkpt><trkpt lat="34.88127197387666" lon="-5.060473057099484"><ele>544.0</ele><time>2026-04-28T11:31:52.999Z</time></trkpt><trkpt lat="34.88112616618178" lon="-5.060400171364856"><ele>544.0</ele><time>2026-04-28T11:31:53.999Z</time></trkpt><trkpt lat="34.880973259297306" lon="-5.060341431819636"><ele>544.0</ele><time>2026-04-28T11:31:54.999Z</time></trkpt><trkpt lat="34.880830984420236" lon="-5.060282044379862"><ele>544.25</ele><time>2026-04-28T11:31:55.999Z</time></trkpt><trkpt lat="34.8806934285357" lon="-5.0602244075850775"><ele>544.5</ele><time>2026-04-28T11:31:56.999Z</time></trkpt><trkpt lat="34.8805518104264" lon="-5.060161324214536"><ele>544.75</ele><time>2026-04-28T11:31:57.999Z</time></trkpt><trkpt lat="34.88040339698869" lon="-5.060115433493528"><ele>545.0</ele><time>2026-04-28T11:31:58.999Z</time></trkpt><trkpt lat="34.880256561144925" lon="-5.0600604308064865"><ele>545.0</ele><time>2026-04-28T11:31:59.999Z</time></trkpt><trkpt lat="34.880107282329156" lon="-5.060000432478535"><ele>545.0</ele><time>2026-04-28T11:32:00.999Z</time></trkpt><trkpt lat="34.8799692855717" lon="-5.059917254800939"><ele>545.0</ele><time>2026-04-28T11:32:01.999Z</time></trkpt><trkpt lat="34.879839184316936" lon="-5.059808349173259"><ele>548.0</ele><time>2026-04-28T11:32:02.999Z</time></trkpt><trkpt lat="34.879719599913855" lon="-5.059676724369154"><ele>551.0</ele><time>2026-04-28T11:32:03.999Z</time></trkpt><trkpt lat="34.879618246628986" lon="-5.059526266532543"><ele>554.0</ele><time>2026-04-28T11:32:04.999Z</time></trkpt><trkpt lat="34.879526841825225" lon="-5.0593752917333115"><ele>554.0</ele><time>2026-04-28T11:32:05.999Z</time></trkpt><trkpt lat="34.879428138432424" lon="-5.059251869276652"><ele>554.0</ele><time>2026-04-28T11:32:06.999Z</time></trkpt><trkpt lat="34.879309277217295" lon="-5.059187827238991"><ele>554.0</ele><time>2026-04-28T11:32:07.999Z</time></trkpt><trkpt lat="34.87920215324246" lon="-5.059105700977223"><ele>554.0</ele><time>2026-04-28T11:32:08.999Z</time></trkpt><trkpt lat="34.87908324840139" lon="-5.05909335957791"><ele>556.75</ele><time>2026-04-28T11:32:09.999Z</time></trkpt><trkpt lat="34.8789646451671" lon="-5.059093483753416"><ele>559.5</ele><time>2026-04-28T11:32:10.999Z</time></trkpt><trkpt lat="34.87885534365801" lon="-5.0590885690059695"><ele>562.25</ele><time>2026-04-28T11:32:11.999Z</time></trkpt><trkpt lat="34.878744963787966" lon="-5.059082150005603"><ele>565.0</ele><time>2026-04-28T11:32:12.999Z</time></trkpt><trkpt lat="34.878637314387475" lon="-5.058998577632961"><ele>565.0</ele><time>2026-04-28T11:32:13.999Z</time></trkpt><trkpt lat="34.87854225670464" lon="-5.05890874532762"><ele>565.0</ele><time>2026-04-28T11:32:14.999Z</time></trkpt><trkpt lat="34.878471264763924" lon="-5.058795199558573"><ele>565.0</ele><time>2026-04-28T11:32:15.999Z</time></trkpt><trkpt lat="34.87840029937354" lon="-5.058680039850449"><ele>565.0</ele><time>2026-04-28T11:32:16.999Z</time></trkpt><trkpt lat="34.8783248490649" lon="-5.058574642546215"><ele>562.75</ele><time>2026-04-28T11:32:17.999Z</time></trkpt><trkpt lat="34.87823556774243" lon="-5.0584826058676216"><ele>560.5</ele><time>2026-04-28T11:32:18.999Z</time></trkpt><trkpt lat="34.87813278065271" lon="-5.058415679650075"><ele>558.25</ele><time>2026-04-28T11:32:19.999Z</time></trkpt><trkpt lat="34.87802097657892" lon="-5.058381620063297"><ele>556.0</ele><time>2026-04-28T11:32:20.999Z</time></trkpt><trkpt lat="34.87790444838474" lon="-5.058388645924023"><ele>556.0</ele><time>2026-04-28T11:32:21.999Z</time></trkpt><trkpt lat="34.8777886387995" lon="-5.058441528076639"><ele>556.0</ele><time>2026-04-28T11:32:22.999Z</time></trkpt><trkpt lat="34.877684763478705" lon="-5.058510921946768"><ele>556.0</ele><time>2026-04-28T11:32:23.999Z</time></trkpt><trkpt lat="34.8775865044714" lon="-5.058568014536486"><ele>556.0</ele><time>2026-04-28T11:32:24.999Z</time></trkpt><trkpt lat="34.877486535379774" lon="-5.058601861965066"><ele>554.25</ele><time>2026-04-28T11:32:25.999Z</time></trkpt><trkpt lat="34.87737140964164" lon="-5.058607552949826"><ele>552.5</ele><time>2026-04-28T11:32:26.999Z</time></trkpt><trkpt lat="34.87725397722895" lon="-5.058573302220407"><ele>550.75</ele><time>2026-04-28T11:32:27.999Z</time></trkpt><trkpt lat="34.87713737944548" lon="-5.058518199096192"><ele>549.0</ele><time>2026-04-28T11:32:28.999Z</time></trkpt><trkpt lat="34.8770328215674" lon="-5.058459175988323"><ele>549.0</ele><time>2026-04-28T11:32:29.999Z</time></trkpt><trkpt lat="34.876931859427614" lon="-5.058411132775407"><ele>549.0</ele><time>2026-04-28T11:32:30.999Z</time></trkpt><trkpt lat="34.87682729894101" lon="-5.058390615076656"><ele>549.0</ele><time>2026-04-28T11:32:31.999Z</time></trkpt><trkpt lat="34.87672026795272" lon="-5.0584120699433885"><ele>549.0</ele><time>2026-04-28T11:32:32.999Z</time></trkpt><trkpt lat="34.87662105831454" lon="-5.0584788522181965"><ele>549.0</ele><time>2026-04-28T11:32:33.999Z</time></trkpt><trkpt lat="34.87654174911741" lon="-5.0585743180345055"><ele>548.4</ele><time>2026-04-28T11:32:34.999Z</time></trkpt><trkpt lat="34.87647923912121" lon="-5.058683047964103"><ele>547.8</ele><time>2026-04-28T11:32:35.999Z</time></trkpt><trkpt lat="34.87644343473966" lon="-5.05881024883476"><ele>547.2</ele><time>2026-04-28T11:32:36.999Z</time></trkpt><trkpt lat="34.876420037163435" lon="-5.058941266379272"><ele>546.6</ele><time>2026-04-28T11:32:37.999Z</time></trkpt><trkpt lat="34.87639807438399" lon="-5.059067573836675"><ele>546.0</ele><time>2026-04-28T11:32:38.999Z</time></trkpt><trkpt lat="34.87637373928709" lon="-5.059193671569972"><ele>544.3333333333334</ele><time>2026-04-28T11:32:39.999Z</time></trkpt><trkpt lat="34.8763552866984" lon="-5.059320820829743"><ele>542.6666666666666</ele><time>2026-04-28T11:32:40.999Z</time></trkpt><trkpt lat="34.87635365503773" lon="-5.059433274987671"><ele>541.0</ele><time>2026-04-28T11:32:41.999Z</time></trkpt><trkpt lat="34.876387321853954" lon="-5.059526141895202"><ele>539.3333333333333</ele><time>2026-04-28T11:32:42.999Z</time></trkpt><trkpt lat="34.87640870027206" lon="-5.059625657556614"><ele>537.6666666666666</ele><time>2026-04-28T11:32:43.999Z</time></trkpt><trkpt lat="34.87645793003352" lon="-5.059705294703949"><ele>536.0</ele><time>2026-04-28T11:32:44.999Z</time></trkpt><trkpt lat="34.87652551985979" lon="-5.059777280033628"><ele>536.0</ele><time>2026-04-28T11:32:45.999Z</time></trkpt><trkpt lat="34.876600104793525" lon="-5.059838978364257"><ele>536.0</ele><time>2026-04-28T11:32:46.999Z</time></trkpt><trkpt lat="34.87668118563127" lon="-5.059898618349587"><ele>536.0</ele><time>2026-04-28T11:32:47.999Z</time></trkpt><trkpt lat="34.8767596409473" lon="-5.059960176854271"><ele>536.0</ele><time>2026-04-28T11:32:48.999Z</time></trkpt><trkpt lat="34.87682389140912" lon="-5.060038797524816"><ele>536.0</ele><time>2026-04-28T11:32:49.999Z</time></trkpt><trkpt lat="34.87687341050284" lon="-5.060134220844282"><ele>535.3333333333333</ele><time>2026-04-28T11:32:50.999Z</time></trkpt><trkpt lat="34.8768887324146" lon="-5.060241213411129"><ele>534.6666666666666</ele><time>2026-04-28T11:32:51.999Z</time></trkpt><trkpt lat="34.87692901136817" lon="-5.060337002697224"><ele>534.0</ele><time>2026-04-28T11:32:52.999Z</time></trkpt><trkpt lat="34.87691524680013" lon="-5.060452014159573"><ele>533.3333333333334</ele><time>2026-04-28T11:32:53.999Z</time></trkpt><trkpt lat="34.87690404574213" lon="-5.060556985444329"><ele>532.6666666666667</ele><time>2026-04-28T11:32:54.999Z</time></trkpt><trkpt lat="34.876868495425505" lon="-5.060645786596801"><ele>532.0</ele><time>2026-04-28T11:32:55.999Z</time></trkpt><trkpt lat="34.87682558839156" lon="-5.060724177681536"><ele>530.6</ele><time>2026-04-28T11:32:56.999Z</time></trkpt><trkpt lat="34.87677502457353" lon="-5.0608019010097705"><ele>529.2</ele><time>2026-04-28T11:32:57.999Z</time></trkpt><trkpt lat="34.876715183006695" lon="-5.060872642535593"><ele>527.8</ele><time>2026-04-28T11:32:58.999Z</time></trkpt><trkpt lat="34.876641483705924" lon="-5.060932331052024"><ele>526.4</ele><time>2026-04-28T11:32:59.999Z</time></trkpt><trkpt lat="34.87654574472294" lon="-5.060986503530138"><ele>525.0</ele><time>2026-04-28T11:33:00.999Z</time></trkpt><trkpt lat="34.87643099478922" lon="-5.061039904881221"><ele>522.0</ele><time>2026-04-28T11:33:01.999Z</time></trkpt><trkpt lat="34.87627337857782" lon="-5.061094123796251"><ele>519.0</ele><time>2026-04-28T11:33:02.999Z</time></trkpt><trkpt lat="34.876092499764425" lon="-5.061173166142025"><ele>516.0</ele><time>2026-04-28T11:33:03.999Z</time></trkpt><trkpt lat="34.87593743985657" lon="-5.061268660208512"><ele>515.6666666666666</ele><time>2026-04-28T11:33:04.999Z</time></trkpt><trkpt lat="34.87579154326443" lon="-5.061356739277364"><ele>515.3333333333333</ele><time>2026-04-28T11:33:05.999Z</time></trkpt><trkpt lat="34.87564875879527" lon="-5.061431228724493"><ele>515.0</ele><time>2026-04-28T11:33:06.999Z</time></trkpt><trkpt lat="34.875509852681596" lon="-5.061498324868821"><ele>515.0</ele><time>2026-04-28T11:33:07.999Z</time></trkpt><trkpt lat="34.875377728584006" lon="-5.0615641806148135"><ele>515.0</ele><time>2026-04-28T11:33:08.999Z</time></trkpt><trkpt lat="34.87524477575441" lon="-5.061618653327618"><ele>515.0</ele><time>2026-04-28T11:33:09.999Z</time></trkpt><trkpt lat="34.875103456645085" lon="-5.061656614249011"><ele>515.0</ele><time>2026-04-28T11:33:10.999Z</time></trkpt><trkpt lat="34.87496565995934" lon="-5.061677425709729"><ele>514.25</ele><time>2026-04-28T11:33:12Z</time></trkpt><trkpt lat="34.8748325632178" lon="-5.061669444729146"><ele>513.5</ele><time>2026-04-28T11:33:13Z</time></trkpt><trkpt lat="34.8746956484697" lon="-5.061626572440941"><ele>512.75</ele><time>2026-04-28T11:33:14Z</time></trkpt><trkpt lat="34.874555104718155" lon="-5.0615632717757455"><ele>512.0</ele><time>2026-04-28T11:33:15Z</time></trkpt><trkpt lat="34.8744253079207" lon="-5.061491964565187"><ele>512.0</ele><time>2026-04-28T11:33:16Z</time></trkpt><trkpt lat="34.874309440207185" lon="-5.061403453419773"><ele>512.0</ele><time>2026-04-28T11:33:17Z</time></trkpt><trkpt lat="34.87420208728543" lon="-5.061314403553021"><ele>512.0</ele><time>2026-04-28T11:33:18Z</time></trkpt><trkpt lat="34.874089311118304" lon="-5.061247102582318"><ele>512.0</ele><time>2026-04-28T11:33:19Z</time></trkpt><trkpt lat="34.873969516581916" lon="-5.061204251837786"><ele>511.8</ele><time>2026-04-28T11:33:20Z</time></trkpt><trkpt lat="34.8738543099147" lon="-5.061173611316702"><ele>511.6</ele><time>2026-04-28T11:33:21Z</time></trkpt><trkpt lat="34.873754293242676" lon="-5.06116145733851"><ele>511.40000000000003</ele><time>2026-04-28T11:33:22Z</time></trkpt><trkpt lat="34.87367029035794" lon="-5.061169913527393"><ele>511.20000000000005</ele><time>2026-04-28T11:33:23Z</time></trkpt><trkpt lat="34.873589014572474" lon="-5.061185639192491"><ele>511.0</ele><time>2026-04-28T11:33:24Z</time></trkpt><trkpt lat="34.87351216617958" lon="-5.061178487287487"><ele>510.4</ele><time>2026-04-28T11:33:25Z</time></trkpt><trkpt lat="34.873436561820135" lon="-5.0611585712977885"><ele>509.8</ele><time>2026-04-28T11:33:26Z</time></trkpt><trkpt lat="34.873356154104485" lon="-5.061104188488716"><ele>509.19999999999993</ele><time>2026-04-28T11:33:27Z</time></trkpt><trkpt lat="34.8732799846714" lon="-5.060997945847652"><ele>508.59999999999997</ele><time>2026-04-28T11:33:28Z</time></trkpt><trkpt lat="34.87320934837956" lon="-5.06087121152044"><ele>508.0</ele><time>2026-04-28T11:33:29Z</time></trkpt><trkpt lat="34.87313482302633" lon="-5.06074854520571"><ele>511.5</ele><time>2026-04-28T11:33:30Z</time></trkpt><trkpt lat="34.87304891461492" lon="-5.0606382665042196"><ele>515.0</ele><time>2026-04-28T11:33:31Z</time></trkpt><trkpt lat="34.87294066448488" lon="-5.060554651133277"><ele>518.5</ele><time>2026-04-28T11:33:32Z</time></trkpt><trkpt lat="34.87280912254619" lon="-5.060516441837116"><ele>522.0</ele><time>2026-04-28T11:33:33Z</time></trkpt><trkpt lat="34.87267207633871" lon="-5.060517301906719"><ele>522.5</ele><time>2026-04-28T11:33:33.999Z</time></trkpt><trkpt lat="34.87253517592926" lon="-5.060492830705992"><ele>523.0</ele><time>2026-04-28T11:33:34.999Z</time></trkpt><trkpt lat="34.872393915390774" lon="-5.060448323494231"><ele>523.5</ele><time>2026-04-28T11:33:35.999Z</time></trkpt><trkpt lat="34.872253147940334" lon="-5.060380693340516"><ele>524.0</ele><time>2026-04-28T11:33:36.999Z</time></trkpt><trkpt lat="34.87209982698953" lon="-5.060304024150011"><ele>524.0</ele><time>2026-04-28T11:33:37.999Z</time></trkpt><trkpt lat="34.8719425451023" lon="-5.060234217181189"><ele>524.0</ele><time>2026-04-28T11:33:38.999Z</time></trkpt><trkpt lat="34.87179952717276" lon="-5.060164099458174"><ele>524.0</ele><time>2026-04-28T11:33:39.999Z</time></trkpt><trkpt lat="34.871665256481414" lon="-5.060100229225635"><ele>525.0</ele><time>2026-04-28T11:33:40.999Z</time></trkpt><trkpt lat="34.87153349851255" lon="-5.060048188085013"><ele>526.0</ele><time>2026-04-28T11:33:41.999Z</time></trkpt><trkpt lat="34.87141069846687" lon="-5.059998293818912"><ele>527.0</ele><time>2026-04-28T11:33:42.999Z</time></trkpt><trkpt lat="34.871296439643615" lon="-5.059967455262058"><ele>528.0</ele><time>2026-04-28T11:33:43.999Z</time></trkpt><trkpt lat="34.871181017714356" lon="-5.05996652651639"><ele>528.0</ele><time>2026-04-28T11:33:44.999Z</time></trkpt><trkpt lat="34.871060209910745" lon="-5.059998320999741"><ele>528.0</ele><time>2026-04-28T11:33:45.999Z</time></trkpt><trkpt lat="34.87094309262567" lon="-5.060086672587433"><ele>528.0</ele><time>2026-04-28T11:33:46.999Z</time></trkpt><trkpt lat="34.8708272266478" lon="-5.060200213543394"><ele>528.0</ele><time>2026-04-28T11:33:47.999Z</time></trkpt><trkpt lat="34.87072438978732" lon="-5.060314683801983"><ele>529.5</ele><time>2026-04-28T11:33:48.999Z</time></trkpt><trkpt lat="34.87062487564573" lon="-5.060401206599061"><ele>531.0</ele><time>2026-04-28T11:33:49.999Z</time></trkpt><trkpt lat="34.87050540429905" lon="-5.060447695135234"><ele>532.5</ele><time>2026-04-28T11:33:50.999Z</time></trkpt><trkpt lat="34.8703511111918" lon="-5.060473932895461"><ele>534.0</ele><time>2026-04-28T11:33:51.999Z</time></trkpt><trkpt lat="34.87017977896195" lon="-5.060497579433474"><ele>536.0</ele><time>2026-04-28T11:33:52.999Z</time></trkpt><trkpt lat="34.87002613416105" lon="-5.06054292866874"><ele>538.0</ele><time>2026-04-28T11:33:53.999Z</time></trkpt><trkpt lat="34.869897369884434" lon="-5.060621299302594"><ele>540.0</ele><time>2026-04-28T11:33:54.999Z</time></trkpt><trkpt lat="34.869775142380554" lon="-5.060720484096526"><ele>542.0</ele><time>2026-04-28T11:33:55.999Z</time></trkpt><trkpt lat="34.86963148322033" lon="-5.060783789622787"><ele>537.3333333333333</ele><time>2026-04-28T11:33:56.999Z</time></trkpt><trkpt lat="34.86945293173911" lon="-5.060810989883355"><ele>532.6666666666666</ele><time>2026-04-28T11:33:57.999Z</time></trkpt><trkpt lat="34.869259477845" lon="-5.060831655612298"><ele>528.0</ele><time>2026-04-28T11:33:58.999Z</time></trkpt><trkpt lat="34.86907011062548" lon="-5.0608575257283706"><ele>528.0</ele><time>2026-04-28T11:33:59.999Z</time></trkpt><trkpt lat="34.868897731152614" lon="-5.060890682273289"><ele>528.0</ele><time>2026-04-28T11:34:00.999Z</time></trkpt><trkpt lat="34.868742398362826" lon="-5.060916853116605"><ele>528.0</ele><time>2026-04-28T11:34:01.999Z</time></trkpt><trkpt lat="34.86859402998455" lon="-5.060941772751051"><ele>528.0</ele><time>2026-04-28T11:34:02.999Z</time></trkpt><trkpt lat="34.86845229035717" lon="-5.0609638240691694"><ele>528.0</ele><time>2026-04-28T11:34:03.999Z</time></trkpt><trkpt lat="34.86832107075488" lon="-5.060986027432892"><ele>528.0</ele><time>2026-04-28T11:34:04.999Z</time></trkpt><trkpt lat="34.86819484858181" lon="-5.061014978251524"><ele>528.0</ele><time>2026-04-28T11:34:05.999Z</time></trkpt><trkpt lat="34.86808167595855" lon="-5.061097692350591"><ele>527.6666666666666</ele><time>2026-04-28T11:34:06.999Z</time></trkpt><trkpt lat="34.867966235914054" lon="-5.061200199866748"><ele>527.3333333333333</ele><time>2026-04-28T11:34:07.999Z</time></trkpt><trkpt lat="34.867857939012865" lon="-5.061337350861117"><ele>527.0</ele><time>2026-04-28T11:34:08.999Z</time></trkpt><trkpt lat="34.8677293232083" lon="-5.061499653214533"><ele>526.6666666666666</ele><time>2026-04-28T11:34:09.999Z</time></trkpt><trkpt lat="34.8676353104145" lon="-5.061704754001817"><ele>526.3333333333334</ele><time>2026-04-28T11:34:10.999Z</time></trkpt><trkpt lat="34.867511400011985" lon="-5.061848235102271"><ele>526.0</ele><time>2026-04-28T11:34:11.999Z</time></trkpt><trkpt lat="34.86742228049156" lon="-5.06199384422408"><ele>526.0</ele><time>2026-04-28T11:34:12.999Z</time></trkpt><trkpt lat="34.86733924139024" lon="-5.062125026851961"><ele>526.0</ele><time>2026-04-28T11:34:13.999Z</time></trkpt><trkpt lat="34.867246956026484" lon="-5.0622326903813475"><ele>526.0</ele><time>2026-04-28T11:34:14.999Z</time></trkpt><trkpt lat="34.86713256817274" lon="-5.062315500280225"><ele>526.0</ele><time>2026-04-28T11:34:15.999Z</time></trkpt><trkpt lat="34.866997232568764" lon="-5.062366883120896"><ele>526.0</ele><time>2026-04-28T11:34:16.999Z</time></trkpt><trkpt lat="34.86685801416675" lon="-5.062429210077544"><ele>526.0</ele><time>2026-04-28T11:34:17.999Z</time></trkpt><trkpt lat="34.86673074255213" lon="-5.062494185132652"><ele>526.0</ele><time>2026-04-28T11:34:18.999Z</time></trkpt><trkpt lat="34.86660469019327" lon="-5.062556005906666"><ele>526.0</ele><time>2026-04-28T11:34:19.999Z</time></trkpt><trkpt lat="34.866543761977866" lon="-5.062713418965679"><ele>527.5</ele><time>2026-04-28T11:34:20.999Z</time></trkpt><trkpt lat="34.86649908352849" lon="-5.062868220780134"><ele>529.0</ele><time>2026-04-28T11:34:21.999Z</time></trkpt><trkpt lat="34.86644935909599" lon="-5.063036297138183"><ele>530.5</ele><time>2026-04-28T11:34:22.999Z</time></trkpt><trkpt lat="34.86639725079571" lon="-5.0631818666282715"><ele>532.0</ele><time>2026-04-28T11:34:23.999Z</time></trkpt><trkpt lat="34.8663558409177" lon="-5.063317804738207"><ele>532.4</ele><time>2026-04-28T11:34:24.999Z</time></trkpt><trkpt lat="34.86630715727322" lon="-5.063447234994876"><ele>532.8000000000001</ele><time>2026-04-28T11:34:25.999Z</time></trkpt><trkpt lat="34.8662546037213" lon="-5.0635637224571735"><ele>533.2</ele><time>2026-04-28T11:34:26.999Z</time></trkpt><trkpt lat="34.86619267381673" lon="-5.063663382675717"><ele>533.6</ele><time>2026-04-28T11:34:27.999Z</time></trkpt><trkpt lat="34.866115029591086" lon="-5.063743513156595"><ele>534.0</ele><time>2026-04-28T11:34:28.999Z</time></trkpt><trkpt lat="34.86602617189003" lon="-5.063801753249609"><ele>534.8</ele><time>2026-04-28T11:34:29.999Z</time></trkpt><trkpt lat="34.86593285428199" lon="-5.063828143902469"><ele>535.5999999999999</ele><time>2026-04-28T11:34:30.999Z</time></trkpt><trkpt lat="34.86583398129136" lon="-5.063835602128911"><ele>536.4</ele><time>2026-04-28T11:34:31.999Z</time></trkpt><trkpt lat="34.865736844185356" lon="-5.063839180068287"><ele>537.1999999999999</ele><time>2026-04-28T11:34:32.999Z</time></trkpt><trkpt lat="34.8656339623875" lon="-5.063839250938755"><ele>538.0</ele><time>2026-04-28T11:34:33.999Z</time></trkpt><trkpt lat="34.86553073705681" lon="-5.0638425208241875"><ele>538.0</ele><time>2026-04-28T11:34:34.999Z</time></trkpt><trkpt lat="34.86542285106929" lon="-5.063848359021754"><ele>538.0</ele><time>2026-04-28T11:34:35.999Z</time></trkpt><trkpt lat="34.86531519509822" lon="-5.0638532032903765"><ele>538.0</ele><time>2026-04-28T11:34:36.999Z</time></trkpt><trkpt lat="34.865217698055304" lon="-5.063873965489929"><ele>538.0</ele><time>2026-04-28T11:34:37.999Z</time></trkpt><trkpt lat="34.86512008323727" lon="-5.063862525541981"><ele>538.0</ele><time>2026-04-28T11:34:38.999Z</time></trkpt><trkpt lat="34.865016007783716" lon="-5.063871207667359"><ele>538.75</ele><time>2026-04-28T11:34:39.999Z</time></trkpt><trkpt lat="34.86490311413595" lon="-5.0638819033627245"><ele>539.5</ele><time>2026-04-28T11:34:40.999Z</time></trkpt><trkpt lat="34.86478892352432" lon="-5.063891146314819"><ele>540.25</ele><time>2026-04-28T11:34:41.999Z</time></trkpt><trkpt lat="34.86467641330261" lon="-5.06393033309392"><ele>541.0</ele><time>2026-04-28T11:34:42.999Z</time></trkpt><trkpt lat="34.86456284559756" lon="-5.063957774030067"><ele>541.0</ele><time>2026-04-28T11:34:43.999Z</time></trkpt><trkpt lat="34.864453047298035" lon="-5.063995644184177"><ele>541.0</ele><time>2026-04-28T11:34:44.999Z</time></trkpt><trkpt lat="34.864341448046275" lon="-5.0640393357161955"><ele>541.0</ele><time>2026-04-28T11:34:45.999Z</time></trkpt><trkpt lat="34.864228888112045" lon="-5.064064261721023"><ele>541.0</ele><time>2026-04-28T11:34:46.999Z</time></trkpt><trkpt lat="34.86412077155324" lon="-5.064113172455786"><ele>543.4</ele><time>2026-04-28T11:34:47.999Z</time></trkpt><trkpt lat="34.86401399379533" lon="-5.064165880101222"><ele>545.8</ele><time>2026-04-28T11:34:48.999Z</time></trkpt><trkpt lat="34.863905428422164" lon="-5.064219503973057"><ele>548.1999999999999</ele><time>2026-04-28T11:34:49.999Z</time></trkpt><trkpt lat="34.86379969022444" lon="-5.064265575180735"><ele>550.6</ele><time>2026-04-28T11:34:50.999Z</time></trkpt><trkpt lat="34.86370236906535" lon="-5.06430242217291"><ele>553.0</ele><time>2026-04-28T11:34:51.999Z</time></trkpt><trkpt lat="34.8636018764114" lon="-5.06433310923958"><ele>553.0</ele><time>2026-04-28T11:34:52.999Z</time></trkpt><trkpt lat="34.86349357211527" lon="-5.064353938808351"><ele>553.0</ele><time>2026-04-28T11:34:53.999Z</time></trkpt><trkpt lat="34.863383746809255" lon="-5.0643643022303095"><ele>553.0</ele><time>2026-04-28T11:34:54.999Z</time></trkpt><trkpt lat="34.86326465624031" lon="-5.064349943070419"><ele>553.0</ele><time>2026-04-28T11:34:55.999Z</time></trkpt><trkpt lat="34.86313564279819" lon="-5.064353880198225"><ele>553.0</ele><time>2026-04-28T11:34:56.999Z</time></trkpt><trkpt lat="34.86297560150088" lon="-5.06434183844779"><ele>553.0</ele><time>2026-04-28T11:34:57.999Z</time></trkpt><trkpt lat="34.86282525490033" lon="-5.064316685106264"><ele>553.0</ele><time>2026-04-28T11:34:58.999Z</time></trkpt><trkpt lat="34.862691725389496" lon="-5.064266059281967"><ele>550.0</ele><time>2026-04-28T11:34:59.999Z</time></trkpt><trkpt lat="34.86258449392017" lon="-5.064256828602629"><ele>547.0</ele><time>2026-04-28T11:35:00.999Z</time></trkpt><trkpt lat="34.86248092428959" lon="-5.06426675746048"><ele>544.0</ele><time>2026-04-28T11:35:01.999Z</time></trkpt><trkpt lat="34.86239126154045" lon="-5.06433684312161"><ele>541.0</ele><time>2026-04-28T11:35:02.999Z</time></trkpt><trkpt lat="34.862276830226655" lon="-5.064422130825367"><ele>541.0</ele><time>2026-04-28T11:35:03.999Z</time></trkpt><trkpt lat="34.862169337146454" lon="-5.064545928351923"><ele>541.0</ele><time>2026-04-28T11:35:04.999Z</time></trkpt><trkpt lat="34.86205162615594" lon="-5.064686350270768"><ele>541.0</ele><time>2026-04-28T11:35:05.999Z</time></trkpt><trkpt lat="34.86191636600553" lon="-5.064815160805261"><ele>538.3333333333334</ele><time>2026-04-28T11:35:06.999Z</time></trkpt><trkpt lat="34.86176896620489" lon="-5.064955410039024"><ele>535.6666666666666</ele><time>2026-04-28T11:35:07.999Z</time></trkpt><trkpt lat="34.86160953620148" lon="-5.065082246086074"><ele>533.0</ele><time>2026-04-28T11:35:08.999Z</time></trkpt><trkpt lat="34.86145988572173" lon="-5.065201526988695"><ele>533.0</ele><time>2026-04-28T11:35:09.999Z</time></trkpt><trkpt lat="34.861316006569886" lon="-5.065314662076927"><ele>533.0</ele><time>2026-04-28T11:35:10.999Z</time></trkpt><trkpt lat="34.861180174474356" lon="-5.065423411395553"><ele>533.0</ele><time>2026-04-28T11:35:11.999Z</time></trkpt><trkpt lat="34.86105360168716" lon="-5.065529337931938"><ele>533.25</ele><time>2026-04-28T11:35:12.999Z</time></trkpt><trkpt lat="34.86093412209923" lon="-5.0656336396205175"><ele>533.5</ele><time>2026-04-28T11:35:13.999Z</time></trkpt><trkpt lat="34.86081754478474" lon="-5.065742700822968"><ele>533.75</ele><time>2026-04-28T11:35:14.999Z</time></trkpt><trkpt lat="34.860723650955315" lon="-5.065872276204874"><ele>534.0</ele><time>2026-04-28T11:35:15.999Z</time></trkpt><trkpt lat="34.860622347205314" lon="-5.066022100134671"><ele>534.0</ele><time>2026-04-28T11:35:16.999Z</time></trkpt><trkpt lat="34.86053574859095" lon="-5.066196242138771"><ele>534.0</ele><time>2026-04-28T11:35:18Z</time></trkpt><trkpt lat="34.860446228236974" lon="-5.066365595507275"><ele>534.0</ele><time>2026-04-28T11:35:19Z</time></trkpt><trkpt lat="34.86035013709729" lon="-5.066519443473184"><ele>533.3333333333334</ele><time>2026-04-28T11:35:20Z</time></trkpt><trkpt lat="34.860238002651904" lon="-5.066645862729675"><ele>532.6666666666667</ele><time>2026-04-28T11:35:21Z</time></trkpt><trkpt lat="34.86010358896586" lon="-5.06674294290727"><ele>532.0</ele><time>2026-04-28T11:35:22Z</time></trkpt><trkpt lat="34.85996030795148" lon="-5.066811590743271"><ele>532.0</ele><time>2026-04-28T11:35:23Z</time></trkpt><trkpt lat="34.8598098331177" lon="-5.066852622694048"><ele>532.0</ele><time>2026-04-28T11:35:24Z</time></trkpt><trkpt lat="34.85966442938386" lon="-5.066911356391942"><ele>532.0</ele><time>2026-04-28T11:35:25Z</time></trkpt><trkpt lat="34.859507698636726" lon="-5.066955160161952"><ele>532.0</ele><time>2026-04-28T11:35:26Z</time></trkpt><trkpt lat="34.85935135920808" lon="-5.067002619841874"><ele>532.0</ele><time>2026-04-28T11:35:27Z</time></trkpt><trkpt lat="34.85919828016058" lon="-5.067051426092876"><ele>532.0</ele><time>2026-04-28T11:35:28Z</time></trkpt><trkpt lat="34.85905733009091" lon="-5.067095609597939"><ele>532.25</ele><time>2026-04-28T11:35:29Z</time></trkpt><trkpt lat="34.85892789810417" lon="-5.067136650444829"><ele>532.5</ele><time>2026-04-28T11:35:30Z</time></trkpt><trkpt lat="34.85880997554553" lon="-5.067170539571641"><ele>532.75</ele><time>2026-04-28T11:35:31Z</time></trkpt><trkpt lat="34.858704419671376" lon="-5.067196841799076"><ele>533.0</ele><time>2026-04-28T11:35:32Z</time></trkpt><trkpt lat="34.85859757934287" lon="-5.067204181632204"><ele>533.0</ele><time>2026-04-28T11:35:33Z</time></trkpt><trkpt lat="34.85848848126904" lon="-5.067233970821574"><ele>533.0</ele><time>2026-04-28T11:35:34Z</time></trkpt><trkpt lat="34.858375659036426" lon="-5.0672612761703215"><ele>533.0</ele><time>2026-04-28T11:35:35Z</time></trkpt><trkpt lat="34.85825792115006" lon="-5.067299267386689"><ele>533.0</ele><time>2026-04-28T11:35:36Z</time></trkpt><trkpt lat="34.85815143960607" lon="-5.067342185991714"><ele>533.25</ele><time>2026-04-28T11:35:37Z</time></trkpt><trkpt lat="34.858045835380835" lon="-5.067378948672414"><ele>533.5</ele><time>2026-04-28T11:35:38Z</time></trkpt><trkpt lat="34.857915646426555" lon="-5.067413024696017"><ele>533.75</ele><time>2026-04-28T11:35:38.999Z</time></trkpt><trkpt lat="34.85778888649168" lon="-5.0674624021533345"><ele>534.0</ele><time>2026-04-28T11:35:39.999Z</time></trkpt><trkpt lat="34.85767005678007" lon="-5.067529303219346"><ele>539.5</ele><time>2026-04-28T11:35:40.999Z</time></trkpt><trkpt lat="34.85756121680281" lon="-5.0676103438830715"><ele>545.0</ele><time>2026-04-28T11:35:41.999Z</time></trkpt><trkpt lat="34.8574551840666" lon="-5.06769922604691"><ele>550.5</ele><time>2026-04-28T11:35:42.999Z</time></trkpt><trkpt lat="34.85734972626475" lon="-5.067792892319621"><ele>556.0</ele><time>2026-04-28T11:35:43.999Z</time></trkpt><trkpt lat="34.857240441477025" lon="-5.06788654947995"><ele>556.0</ele><time>2026-04-28T11:35:44.999Z</time></trkpt><trkpt lat="34.85712768100227" lon="-5.067970336161454"><ele>556.0</ele><time>2026-04-28T11:35:45.999Z</time></trkpt><trkpt lat="34.857014951472216" lon="-5.068028574705862"><ele>556.0</ele><time>2026-04-28T11:35:46.999Z</time></trkpt><trkpt lat="34.85690055437047" lon="-5.0680602013498435"><ele>556.0</ele><time>2026-04-28T11:35:47.999Z</time></trkpt><trkpt lat="34.856784498672454" lon="-5.068061126932687"><ele>558.75</ele><time>2026-04-28T11:35:48.999Z</time></trkpt><trkpt lat="34.85666577500739" lon="-5.068029493877932"><ele>561.5</ele><time>2026-04-28T11:35:49.999Z</time></trkpt><trkpt lat="34.85654425105721" lon="-5.067981384058362"><ele>564.25</ele><time>2026-04-28T11:35:50.999Z</time></trkpt><trkpt lat="34.856422513400986" lon="-5.067932869813868"><ele>567.0</ele><time>2026-04-28T11:35:51.999Z</time></trkpt><trkpt lat="34.856301203930315" lon="-5.0678835377090525"><ele>567.0</ele><time>2026-04-28T11:35:52.999Z</time></trkpt><trkpt lat="34.85617262602724" lon="-5.067842062938366"><ele>567.0</ele><time>2026-04-28T11:35:53.999Z</time></trkpt><trkpt lat="34.856042733501766" lon="-5.067796393100063"><ele>567.0</ele><time>2026-04-28T11:35:54.999Z</time></trkpt><trkpt lat="34.855914666193264" lon="-5.067787768347229"><ele>567.0</ele><time>2026-04-28T11:35:55.999Z</time></trkpt><trkpt lat="34.855785638073236" lon="-5.067790066534177"><ele>566.25</ele><time>2026-04-28T11:35:56.999Z</time></trkpt><trkpt lat="34.85566770950911" lon="-5.067811631338452"><ele>565.5</ele><time>2026-04-28T11:35:57.999Z</time></trkpt><trkpt lat="34.85554468075669" lon="-5.067852685367946"><ele>564.75</ele><time>2026-04-28T11:35:58.999Z</time></trkpt><trkpt lat="34.8554315534583" lon="-5.0679209708697055"><ele>564.0</ele><time>2026-04-28T11:35:59.999Z</time></trkpt><trkpt lat="34.85532357019094" lon="-5.068000943280627"><ele>564.0</ele><time>2026-04-28T11:36:00.999Z</time></trkpt><trkpt lat="34.85521814619263" lon="-5.068094353159999"><ele>564.0</ele><time>2026-04-28T11:36:01.999Z</time></trkpt><trkpt lat="34.855106114496124" lon="-5.068174421219176"><ele>564.0</ele><time>2026-04-28T11:36:02.999Z</time></trkpt><trkpt lat="34.855020374185436" lon="-5.068267262362372"><ele>564.0</ele><time>2026-04-28T11:36:03.999Z</time></trkpt><trkpt lat="34.854944654985104" lon="-5.068350223093797"><ele>564.5</ele><time>2026-04-28T11:36:04.999Z</time></trkpt><trkpt lat="34.85486048601401" lon="-5.0684250542390625"><ele>565.0</ele><time>2026-04-28T11:36:05.999Z</time></trkpt><trkpt lat="34.854762864427265" lon="-5.06849592438641"><ele>565.5</ele><time>2026-04-28T11:36:06.999Z</time></trkpt><trkpt lat="34.85465603431828" lon="-5.06856585109764"><ele>566.0</ele><time>2026-04-28T11:36:07.999Z</time></trkpt><trkpt lat="34.854541998268" lon="-5.068640922939456"><ele>566.0</ele><time>2026-04-28T11:36:08.999Z</time></trkpt><trkpt lat="34.854421478834794" lon="-5.068719840473189"><ele>566.0</ele><time>2026-04-28T11:36:09.999Z</time></trkpt><trkpt lat="34.85430605236614" lon="-5.0688195756326495"><ele>566.0</ele><time>2026-04-28T11:36:10.999Z</time></trkpt><trkpt lat="34.85418000029825" lon="-5.068903932941629"><ele>566.0</ele><time>2026-04-28T11:36:11.999Z</time></trkpt><trkpt lat="34.854050994302014" lon="-5.068990322022838"><ele>565.75</ele><time>2026-04-28T11:36:12.999Z</time></trkpt><trkpt lat="34.85392591693967" lon="-5.069074386799945"><ele>565.5</ele><time>2026-04-28T11:36:13.999Z</time></trkpt><trkpt lat="34.85379732934948" lon="-5.069157586884182"><ele>565.25</ele><time>2026-04-28T11:36:15Z</time></trkpt><trkpt lat="34.85367038127411" lon="-5.069239774736586"><ele>565.0</ele><time>2026-04-28T11:36:16Z</time></trkpt><trkpt lat="34.853540593892504" lon="-5.069307408580131"><ele>567.0</ele><time>2026-04-28T11:36:17Z</time></trkpt><trkpt lat="34.8534170786339" lon="-5.0693919238678475"><ele>569.0</ele><time>2026-04-28T11:36:18Z</time></trkpt><trkpt lat="34.85329387389778" lon="-5.0694712680805"><ele>571.0</ele><time>2026-04-28T11:36:19Z</time></trkpt><trkpt lat="34.85317910915226" lon="-5.069542117503713"><ele>573.0</ele><time>2026-04-28T11:36:20Z</time></trkpt><trkpt lat="34.85307347292598" lon="-5.069609013936987"><ele>573.0</ele><time>2026-04-28T11:36:21Z</time></trkpt><trkpt lat="34.8529713127886" lon="-5.069667280139293"><ele>573.0</ele><time>2026-04-28T11:36:22Z</time></trkpt><trkpt lat="34.852859963510625" lon="-5.069716686331907"><ele>573.0</ele><time>2026-04-28T11:36:23Z</time></trkpt><trkpt lat="34.85275372901956" lon="-5.069751465396921"><ele>573.0</ele><time>2026-04-28T11:36:24Z</time></trkpt><trkpt lat="34.85266013263612" lon="-5.069782886831428"><ele>573.0</ele><time>2026-04-28T11:36:25Z</time></trkpt><trkpt lat="34.85257344826326" lon="-5.069818316858841"><ele>572.8333333333334</ele><time>2026-04-28T11:36:26Z</time></trkpt><trkpt lat="34.852481024066016" lon="-5.069861871337633"><ele>572.6666666666666</ele><time>2026-04-28T11:36:27Z</time></trkpt><trkpt lat="34.85238327863088" lon="-5.069898282615709"><ele>572.5</ele><time>2026-04-28T11:36:28Z</time></trkpt><trkpt lat="34.852302134186424" lon="-5.069924499070536"><ele>572.3333333333333</ele><time>2026-04-28T11:36:29Z</time></trkpt><trkpt lat="34.852245242702175" lon="-5.069966845614379"><ele>572.1666666666666</ele><time>2026-04-28T11:36:30Z</time></trkpt><trkpt lat="34.85218726475391" lon="-5.07000037701387"><ele>572.0</ele><time>2026-04-28T11:36:31Z</time></trkpt><trkpt lat="34.85211752280781" lon="-5.070040800915764"><ele>571.8000000000001</ele><time>2026-04-28T11:36:32Z</time></trkpt><trkpt lat="34.85203328775261" lon="-5.070089625267326"><ele>571.6</ele><time>2026-04-28T11:36:33Z</time></trkpt><trkpt lat="34.851935018022566" lon="-5.07012993221391"><ele>571.4000000000001</ele><time>2026-04-28T11:36:34Z</time></trkpt><trkpt lat="34.851870181957" lon="-5.070229078333693"><ele>571.2</ele><time>2026-04-28T11:36:35Z</time></trkpt><trkpt lat="34.851804030958526" lon="-5.0703117020374515"><ele>571.0</ele><time>2026-04-28T11:36:36Z</time></trkpt><trkpt lat="34.85173243029341" lon="-5.070383930008204"><ele>571.0</ele><time>2026-04-28T11:36:37Z</time></trkpt><trkpt lat="34.8516801482475" lon="-5.0704687582343455"><ele>571.0</ele><time>2026-04-28T11:36:38Z</time></trkpt><trkpt lat="34.85165537908807" lon="-5.070581748191707"><ele>571.0</ele><time>2026-04-28T11:36:39Z</time></trkpt><trkpt lat="34.85161038383147" lon="-5.070685221401309"><ele>571.0</ele><time>2026-04-28T11:36:40Z</time></trkpt><trkpt lat="34.851590033428636" lon="-5.070797456790255"><ele>571.0</ele><time>2026-04-28T11:36:41Z</time></trkpt><trkpt lat="34.851555179208106" lon="-5.070914690655319"><ele>570.4</ele><time>2026-04-28T11:36:42Z</time></trkpt><trkpt lat="34.8515401687714" lon="-5.071040778285165"><ele>569.8</ele><time>2026-04-28T11:36:43Z</time></trkpt><trkpt lat="34.85151633421023" lon="-5.071173151270167"><ele>569.1999999999999</ele><time>2026-04-28T11:36:44Z</time></trkpt><trkpt lat="34.851488174579025" lon="-5.071306344464223"><ele>568.6</ele><time>2026-04-28T11:36:45Z</time></trkpt><trkpt lat="34.851447528163725" lon="-5.0714387960591205"><ele>568.0</ele><time>2026-04-28T11:36:46Z</time></trkpt><trkpt lat="34.85139134233007" lon="-5.07156701631436"><ele>566.75</ele><time>2026-04-28T11:36:47Z</time></trkpt><trkpt lat="34.85131369022587" lon="-5.0716910440254"><ele>565.5</ele><time>2026-04-28T11:36:48Z</time></trkpt><trkpt lat="34.85121763926844" lon="-5.0717915065942325"><ele>564.25</ele><time>2026-04-28T11:36:49Z</time></trkpt><trkpt lat="34.85112455375522" lon="-5.071878783535571"><ele>563.0</ele><time>2026-04-28T11:36:50Z</time></trkpt><trkpt lat="34.851040638239624" lon="-5.071973260573905"><ele>563.0</ele><time>2026-04-28T11:36:51Z</time></trkpt><trkpt lat="34.85098142798932" lon="-5.0720800035761755"><ele>563.0</ele><time>2026-04-28T11:36:52Z</time></trkpt><trkpt lat="34.85095198415126" lon="-5.07220257273029"><ele>563.0</ele><time>2026-04-28T11:36:53Z</time></trkpt><trkpt lat="34.85093589962745" lon="-5.072318750911883"><ele>563.0</ele><time>2026-04-28T11:36:54Z</time></trkpt><trkpt lat="34.850919629801766" lon="-5.072442173674937"><ele>563.0</ele><time>2026-04-28T11:36:55Z</time></trkpt><trkpt lat="34.85092240764231" lon="-5.072549329481504"><ele>566.6666666666666</ele><time>2026-04-28T11:36:56Z</time></trkpt><trkpt lat="34.85092008007981" lon="-5.072644427692948"><ele>570.3333333333333</ele><time>2026-04-28T11:36:57Z</time></trkpt><trkpt lat="34.85091802085823" lon="-5.072725182129557"><ele>574.0</ele><time>2026-04-28T11:36:58Z</time></trkpt><trkpt lat="34.85091558824391" lon="-5.072845091068935"><ele>577.6666666666666</ele><time>2026-04-28T11:37:00Z</time></trkpt><trkpt lat="34.850914068724066" lon="-5.072963004821995"><ele>581.3333333333334</ele><time>2026-04-28T11:37:02Z</time></trkpt><trkpt lat="34.85091220026673" lon="-5.073077811656191"><ele>585.0</ele><time>2026-04-28T11:37:04Z</time></trkpt><trkpt lat="34.850904044758124" lon="-5.073193293649164"><ele>585.6666666666666</ele><time>2026-04-28T11:37:06Z</time></trkpt><trkpt lat="34.85088820692797" lon="-5.07331349076874"><ele>586.3333333333334</ele><time>2026-04-28T11:37:08Z</time></trkpt><trkpt lat="34.85086794017334" lon="-5.073422579446673"><ele>587.0</ele><time>2026-04-28T11:37:11Z</time></trkpt><trkpt lat="34.850828330232154" lon="-5.0734880522285835"><ele>587.6666666666667</ele><time>2026-04-28T11:37:13Z</time></trkpt><trkpt lat="34.8507921757135" lon="-5.073563132023326"><ele>588.3333333333334</ele><time>2026-04-28T11:37:16Z</time></trkpt><trkpt lat="34.85075940657174" lon="-5.073631272903868"><ele>589.0</ele><time>2026-04-28T11:37:18Z</time></trkpt><trkpt lat="34.85071139002036" lon="-5.0736923851763285"><ele>589.0</ele><time>2026-04-28T11:37:21Z</time></trkpt><trkpt lat="34.85066223392554" lon="-5.073754950080157"><ele>589.0</ele><time>2026-04-28T11:37:24.001Z</time></trkpt><trkpt lat="34.850592275183814" lon="-5.07376387698405"><ele>589.0</ele><time>2026-04-28T11:37:27.001Z</time></trkpt><trkpt lat="34.850541664699975" lon="-5.073816382115407"><ele>589.0</ele><time>2026-04-28T11:37:31.001Z</time></trkpt><trkpt lat="34.85048383717798" lon="-5.073866997251966"><ele>589.0</ele><time>2026-04-28T11:38:00Z</time></trkpt><trkpt lat="34.850425282083826" lon="-5.073938111632951"><ele>589.0</ele><time>2026-04-28T11:39:14Z</time></trkpt><trkpt lat="34.850371955841794" lon="-5.073997369282001"><ele>589.0</ele><time>2026-04-28T11:39:17Z</time></trkpt><trkpt lat="34.850308355978974" lon="-5.074050234184504"><ele>588.2857142857142</ele><time>2026-04-28T11:40:13Z</time></trkpt><trkpt lat="34.850258139994025" lon="-5.074110279158393"><ele>587.5714285714286</ele><time>2026-04-28T11:40:21Z</time></trkpt><trkpt lat="34.8502071326558" lon="-5.074158195981658"><ele>586.8571428571429</ele><time>2026-04-28T11:40:27Z</time></trkpt><trkpt lat="34.850142671604445" lon="-5.074208430466393"><ele>586.1428571428571</ele><time>2026-04-28T11:40:43Z</time></trkpt><trkpt lat="34.85010190116799" lon="-5.074273392767237"><ele>585.4285714285714</ele><time>2026-04-28T11:40:50Z</time></trkpt><trkpt lat="34.85005371001948" lon="-5.07432600611134"><ele>584.7142857142857</ele><time>2026-04-28T11:41:02Z</time></trkpt><trkpt lat="34.85000669393087" lon="-5.0743781290716825"><ele>584.0</ele><time>2026-04-28T11:41:12Z</time></trkpt><trkpt lat="34.84995892237161" lon="-5.074430975223825"><ele>586.1666666666666</ele><time>2026-04-28T11:41:17Z</time></trkpt><trkpt lat="34.84990133651918" lon="-5.07449413949262"><ele>588.3333333333333</ele><time>2026-04-28T11:41:22Z</time></trkpt><trkpt lat="34.84985264289789" lon="-5.074556798655739"><ele>590.5</ele><time>2026-04-28T11:41:30Z</time></trkpt><trkpt lat="34.84979781507619" lon="-5.074626142549648"><ele>592.6666666666666</ele><time>2026-04-28T11:42:58Z</time></trkpt><trkpt lat="34.84975056199498" lon="-5.0747070107608225"><ele>594.8333333333334</ele><time>2026-04-28T11:43:00Z</time></trkpt><trkpt lat="34.84969687551553" lon="-5.07479590697049"><ele>597.0</ele><time>2026-04-28T11:43:03Z</time></trkpt><trkpt lat="34.849670954053515" lon="-5.074898413075301"><ele>595.5</ele><time>2026-04-28T11:43:06Z</time></trkpt><trkpt lat="34.84965688163791" lon="-5.074978039328047"><ele>594.0</ele><time>2026-04-28T11:43:10Z</time></trkpt><trkpt lat="34.849641344953355" lon="-5.07507222794228"><ele>592.5</ele><time>2026-04-28T11:43:14Z</time></trkpt><trkpt lat="34.84962971809456" lon="-5.075170427381526"><ele>591.0</ele><time>2026-04-28T11:43:16Z</time></trkpt><trkpt lat="34.84962613663985" lon="-5.075282971972381"><ele>589.5</ele><time>2026-04-28T11:43:18Z</time></trkpt><trkpt lat="34.84962314019404" lon="-5.0753771330506385"><ele>588.0</ele><time>2026-04-28T11:43:20Z</time></trkpt><trkpt lat="34.8496173261554" lon="-5.075523857158732"><ele>588.0</ele><time>2026-04-28T11:43:22Z</time></trkpt><trkpt lat="34.84961117839699" lon="-5.075656117074792"><ele>588.0</ele><time>2026-04-28T11:43:24Z</time></trkpt><trkpt lat="34.8496041352185" lon="-5.075759847236251"><ele>588.0</ele><time>2026-04-28T11:43:26Z</time></trkpt><trkpt lat="34.8495952520382" lon="-5.075860926951984"><ele>588.0</ele><time>2026-04-28T11:43:28Z</time></trkpt><trkpt lat="34.84958605559474" lon="-5.075965571312026"><ele>588.0</ele><time>2026-04-28T11:43:30Z</time></trkpt><trkpt lat="34.84957790213273" lon="-5.076058347869242"><ele>588.0</ele><time>2026-04-28T11:43:32Z</time></trkpt><trkpt lat="34.84957002610939" lon="-5.076136211161513"><ele>587.7142857142857</ele><time>2026-04-28T11:43:34Z</time></trkpt><trkpt lat="34.84955980255718" lon="-5.076225992523388"><ele>587.4285714285714</ele><time>2026-04-28T11:43:36Z</time></trkpt><trkpt lat="34.84954314282234" lon="-5.076330244262681"><ele>587.1428571428571</ele><time>2026-04-28T11:43:41Z</time></trkpt><trkpt lat="34.849517905449204" lon="-5.076402827456388"><ele>586.8571428571429</ele><time>2026-04-28T11:43:44Z</time></trkpt><trkpt lat="34.84950107809145" lon="-5.076478035126997"><ele>586.5714285714286</ele><time>2026-04-28T11:43:51Z</time></trkpt><trkpt lat="34.84945958490626" lon="-5.076560020957893"><ele>586.2857142857142</ele><time>2026-04-28T11:43:54Z</time></trkpt><trkpt lat="34.84940215450426" lon="-5.076602464145644"><ele>586.0</ele><time>2026-04-28T11:43:58Z</time></trkpt><trkpt lat="34.84933541468561" lon="-5.0766654489384315"><ele>586.9999999999999</ele><time>2026-04-28T11:44:03Z</time></trkpt><trkpt lat="34.84927814907387" lon="-5.0767143182824155"><ele>588.0</ele><time>2026-04-28T11:44:06Z</time></trkpt><trkpt lat="34.84922335844917" lon="-5.076761075489855"><ele>589.0</ele><time>2026-04-28T11:44:10Z</time></trkpt><trkpt lat="34.84916373324182" lon="-5.076793794765328"><ele>590.0</ele><time>2026-04-28T11:44:12Z</time></trkpt><trkpt lat="34.8491127069083" lon="-5.076868906322469"><ele>591.0</ele><time>2026-04-28T11:44:15Z</time></trkpt><trkpt lat="34.849060456239606" lon="-5.076931789637255"><ele>591.9999999999999</ele><time>2026-04-28T11:44:18Z</time></trkpt><trkpt lat="34.84900584784462" lon="-5.076986146877232"><ele>593.0</ele><time>2026-04-28T11:44:20Z</time></trkpt><trkpt lat="34.84894609653839" lon="-5.077054994378584"><ele>593.0</ele><time>2026-04-28T11:44:22Z</time></trkpt><trkpt lat="34.848891792350315" lon="-5.0771271233361155"><ele>593.0</ele><time>2026-04-28T11:44:24Z</time></trkpt><trkpt lat="34.848829445038106" lon="-5.077192218822346"><ele>593.0</ele><time>2026-04-28T11:44:26Z</time></trkpt><trkpt lat="34.84877310105359" lon="-5.077242989184824"><ele>593.0</ele><time>2026-04-28T11:44:28Z</time></trkpt><trkpt lat="34.84872034832703" lon="-5.077301859822853"><ele>593.0</ele><time>2026-04-28T11:44:32Z</time></trkpt><trkpt lat="34.848641439266636" lon="-5.077354483199039"><ele>593.0</ele><time>2026-04-28T11:44:35Z</time></trkpt><trkpt lat="34.848578318624526" lon="-5.077367229782191"><ele>593.0</ele><time>2026-04-28T11:44:38Z</time></trkpt><trkpt lat="34.848508196179644" lon="-5.077349899922467"><ele>593.0</ele><time>2026-04-28T11:44:42Z</time></trkpt><trkpt lat="34.84841543297873" lon="-5.077346284229232"><ele>593.0</ele><time>2026-04-28T11:44:45Z</time></trkpt><trkpt lat="34.84834170462302" lon="-5.07735829023366"><ele>593.0</ele><time>2026-04-28T11:44:48Z</time></trkpt><trkpt lat="34.84829022801765" lon="-5.07740403053988"><ele>593.0</ele><time>2026-04-28T11:44:50Z</time></trkpt><trkpt lat="34.848243807670244" lon="-5.0774670380414095"><ele>593.0</ele><time>2026-04-28T11:44:53Z</time></trkpt><trkpt lat="34.84818203797404" lon="-5.0775345013745845"><ele>594.1428571428571</ele><time>2026-04-28T11:44:55Z</time></trkpt><trkpt lat="34.84815637123244" lon="-5.077605684785418"><ele>595.2857142857142</ele><time>2026-04-28T11:44:57Z</time></trkpt><trkpt lat="34.84811533702718" lon="-5.077686890781373"><ele>596.4285714285713</ele><time>2026-04-28T11:45:00Z</time></trkpt><trkpt lat="34.84807455089428" lon="-5.07775562117786"><ele>597.5714285714286</ele><time>2026-04-28T11:45:10Z</time></trkpt><trkpt lat="34.84804104557394" lon="-5.077823319685974"><ele>598.7142857142858</ele><time>2026-04-28T11:45:16Z</time></trkpt><trkpt lat="34.84801008783255" lon="-5.077897304480794"><ele>599.8571428571428</ele><time>2026-04-28T11:45:19Z</time></trkpt><trkpt lat="34.84795591413801" lon="-5.077972795241389"><ele>601.0</ele><time>2026-04-28T11:45:22Z</time></trkpt><trkpt lat="34.847903177579326" lon="-5.07803853019833"><ele>601.0</ele><time>2026-04-28T11:45:24Z</time></trkpt><trkpt lat="34.84786495851668" lon="-5.078102172372836"><ele>601.0</ele><time>2026-04-28T11:45:26Z</time></trkpt><trkpt lat="34.847794035650864" lon="-5.078193279614317"><ele>601.0</ele><time>2026-04-28T11:45:29Z</time></trkpt><trkpt lat="34.847738558745824" lon="-5.078252615602231"><ele>601.0</ele><time>2026-04-28T11:45:32Z</time></trkpt><trkpt lat="34.84769171153082" lon="-5.078321110115103"><ele>601.0</ele><time>2026-04-28T11:45:37Z</time></trkpt><trkpt lat="34.84762290349431" lon="-5.078370548970325"><ele>601.0</ele><time>2026-04-28T11:45:39Z</time></trkpt><trkpt lat="34.84753153246042" lon="-5.0784073886541945"><ele>602.8</ele><time>2026-04-28T11:45:41Z</time></trkpt><trkpt lat="34.84743222444483" lon="-5.078429757408338"><ele>604.6</ele><time>2026-04-28T11:45:43Z</time></trkpt><trkpt lat="34.84734143988426" lon="-5.07844884586661"><ele>606.4</ele><time>2026-04-28T11:45:44.999Z</time></trkpt><trkpt lat="34.847246651349266" lon="-5.078452118910358"><ele>608.2</ele><time>2026-04-28T11:45:46.999Z</time></trkpt><trkpt lat="34.84714789024495" lon="-5.078457640887914"><ele>610.0</ele><time>2026-04-28T11:45:48.999Z</time></trkpt><trkpt lat="34.847056297586946" lon="-5.078473510875279"><ele>610.0</ele><time>2026-04-28T11:45:50.999Z</time></trkpt><trkpt lat="34.846984866197026" lon="-5.078541061992672"><ele>610.0</ele><time>2026-04-28T11:45:52.999Z</time></trkpt><trkpt lat="34.846919893277786" lon="-5.078629605488687"><ele>610.0</ele><time>2026-04-28T11:45:54.999Z</time></trkpt><trkpt lat="34.84686367606745" lon="-5.078721487019768"><ele>610.0</ele><time>2026-04-28T11:45:56.999Z</time></trkpt><trkpt lat="34.846816642074145" lon="-5.078844575002898"><ele>610.0</ele><time>2026-04-28T11:45:58.999Z</time></trkpt><trkpt lat="34.84680069499942" lon="-5.078928710655193"><ele>610.0</ele><time>2026-04-28T11:46:00.999Z</time></trkpt><trkpt lat="34.846797828262055" lon="-5.079042310042451"><ele>610.0</ele><time>2026-04-28T11:46:07.999Z</time></trkpt><trkpt lat="34.8468127984627" lon="-5.079211533616751"><ele>610.0</ele><time>2026-04-28T11:46:09.999Z</time></trkpt><trkpt lat="34.84682521771145" lon="-5.079310009485562"><ele>610.0</ele><time>2026-04-28T11:46:10.999Z</time></trkpt><trkpt lat="34.84682592336354" lon="-5.079447416273014"><ele>610.0</ele><time>2026-04-28T11:46:12.999Z</time></trkpt><trkpt lat="34.84679543895656" lon="-5.07958709195081"><ele>611.1666666666667</ele><time>2026-04-28T11:46:14.999Z</time></trkpt><trkpt lat="34.84675671994994" lon="-5.079718530120681"><ele>612.3333333333334</ele><time>2026-04-28T11:46:16.999Z</time></trkpt><trkpt lat="34.846689882322" lon="-5.079762445200826"><ele>613.5</ele><time>2026-04-28T11:46:18Z</time></trkpt><trkpt lat="34.846637376009994" lon="-5.079848935028693"><ele>614.6666666666666</ele><time>2026-04-28T11:46:21Z</time></trkpt><trkpt lat="34.8465952130432" lon="-5.0799161651732785"><ele>615.8333333333333</ele><time>2026-04-28T11:46:23Z</time></trkpt><trkpt lat="34.84654831270502" lon="-5.079990949066759"><ele>617.0</ele><time>2026-04-28T11:46:25Z</time></trkpt><trkpt lat="34.846505795202255" lon="-5.0800587444225"><ele>618.1666666666666</ele><time>2026-04-28T11:46:27Z</time></trkpt><trkpt lat="34.846458302423315" lon="-5.080134472470777"><ele>619.3333333333333</ele><time>2026-04-28T11:46:30Z</time></trkpt><trkpt lat="34.8464023422469" lon="-5.08019942579991"><ele>620.5</ele><time>2026-04-28T11:46:38Z</time></trkpt><trkpt lat="34.846340204351485" lon="-5.080278163679784"><ele>621.6666666666666</ele><time>2026-04-28T11:46:40Z</time></trkpt><trkpt lat="34.84627739734338" lon="-5.080351305817559"><ele>622.8333333333334</ele><time>2026-04-28T11:46:41Z</time></trkpt><trkpt lat="34.84622683726136" lon="-5.080405110174616"><ele>624.0</ele><time>2026-04-28T11:46:42Z</time></trkpt><trkpt lat="34.846175733423095" lon="-5.080459493246357"><ele>624.0</ele><time>2026-04-28T11:46:44Z</time></trkpt><trkpt lat="34.846121594791455" lon="-5.080509470766603"><ele>624.0</ele><time>2026-04-28T11:46:46Z</time></trkpt><trkpt lat="34.84606295271956" lon="-5.080538808077452"><ele>624.0</ele><time>2026-04-28T11:46:47Z</time></trkpt><trkpt lat="34.84600883711441" lon="-5.080597999098347"><ele>624.0</ele><time>2026-04-28T11:46:48Z</time></trkpt><trkpt lat="34.845955217782866" lon="-5.080649839205046"><ele>624.0</ele><time>2026-04-28T11:46:49Z</time></trkpt><trkpt lat="34.84587680862202" lon="-5.080714059104384"><ele>624.0</ele><time>2026-04-28T11:46:51Z</time></trkpt><trkpt lat="34.845818485902676" lon="-5.080788367009705"><ele>624.1666666666666</ele><time>2026-04-28T11:46:54Z</time></trkpt><trkpt lat="34.84574297036346" lon="-5.080859285670385"><ele>624.3333333333334</ele><time>2026-04-28T11:46:56Z</time></trkpt><trkpt lat="34.84570778095485" lon="-5.080934421234123"><ele>624.5</ele><time>2026-04-28T11:47:02Z</time></trkpt><trkpt lat="34.84566891867561" lon="-5.0810019352924725"><ele>624.6666666666667</ele><time>2026-04-28T11:47:15.999Z</time></trkpt><trkpt lat="34.84565504606336" lon="-5.081078273122321"><ele>624.8333333333334</ele><time>2026-04-28T11:47:22.999Z</time></trkpt><trkpt lat="34.84562518274271" lon="-5.081185881490728"><ele>625.0</ele><time>2026-04-28T11:47:26.999Z</time></trkpt><trkpt lat="34.845614654460675" lon="-5.081265693753788"><ele>625.0</ele><time>2026-04-28T11:47:27.999Z</time></trkpt><trkpt lat="34.84559277952448" lon="-5.081402060532134"><ele>625.0</ele><time>2026-04-28T11:47:29.999Z</time></trkpt><trkpt lat="34.845576456841826" lon="-5.081542593710629"><ele>625.0</ele><time>2026-04-28T11:47:31.999Z</time></trkpt><trkpt lat="34.8455321953319" lon="-5.081644950170933"><ele>625.0</ele><time>2026-04-28T11:47:33.999Z</time></trkpt><trkpt lat="34.84548676840084" lon="-5.081724844213559"><ele>625.0</ele><time>2026-04-28T11:47:35.999Z</time></trkpt><trkpt lat="34.845457580431216" lon="-5.081801997520147"><ele>624.5</ele><time>2026-04-28T11:47:37.999Z</time></trkpt><trkpt lat="34.845399255563756" lon="-5.081891274480412"><ele>624.0</ele><time>2026-04-28T11:47:40.999Z</time></trkpt><trkpt lat="34.845318501965245" lon="-5.081900957019311"><ele>623.5</ele><time>2026-04-28T11:47:42.999Z</time></trkpt><trkpt lat="34.845252027019946" lon="-5.081914679920357"><ele>623.0</ele><time>2026-04-28T11:47:44.999Z</time></trkpt><trkpt lat="34.845155582478185" lon="-5.081925568208195"><ele>622.5</ele><time>2026-04-28T11:47:46.999Z</time></trkpt><trkpt lat="34.84506761492739" lon="-5.081924401290835"><ele>622.0</ele><time>2026-04-28T11:47:48.999Z</time></trkpt><trkpt lat="34.84497101097036" lon="-5.0819231198144745"><ele>622.0</ele><time>2026-04-28T11:47:50.999Z</time></trkpt><trkpt lat="34.84488709866955" lon="-5.081908455906426"><ele>622.0</ele><time>2026-04-28T11:47:51.999Z</time></trkpt><trkpt lat="34.844793923396715" lon="-5.081894385569828"><ele>622.0</ele><time>2026-04-28T11:47:52.999Z</time></trkpt><trkpt lat="34.84471102067638" lon="-5.081870170635749"><ele>622.0</ele><time>2026-04-28T11:47:53.999Z</time></trkpt><trkpt lat="34.84462833280931" lon="-5.081870334204879"><ele>622.0</ele><time>2026-04-28T11:47:54.999Z</time></trkpt><trkpt lat="34.8445505540364" lon="-5.081850168390083"><ele>622.0</ele><time>2026-04-28T11:47:55.999Z</time></trkpt><trkpt lat="34.84446571853752" lon="-5.081865033606969"><ele>622.0</ele><time>2026-04-28T11:47:56.999Z</time></trkpt><trkpt lat="34.84437708828244" lon="-5.081870155318249"><ele>622.0</ele><time>2026-04-28T11:47:57.999Z</time></trkpt><trkpt lat="34.84428469621684" lon="-5.081875494414466"><ele>622.0</ele><time>2026-04-28T11:47:58.999Z</time></trkpt><trkpt lat="34.84419010956802" lon="-5.0818809603227955"><ele>622.0</ele><time>2026-04-28T11:47:59.998Z</time></trkpt><trkpt lat="34.8441107475921" lon="-5.081887561937267"><ele>622.0</ele><time>2026-04-28T11:48:00.999Z</time></trkpt><trkpt lat="34.844013827493015" lon="-5.081919149231351"><ele>621.4</ele><time>2026-04-28T11:48:02.999Z</time></trkpt><trkpt lat="34.84393330181147" lon="-5.081946388183873"><ele>620.8000000000001</ele><time>2026-04-28T11:48:03.999Z</time></trkpt><trkpt lat="34.84384457457049" lon="-5.081991703763327"><ele>620.2</ele><time>2026-04-28T11:48:04.999Z</time></trkpt><trkpt lat="34.84377706972715" lon="-5.082073474347926"><ele>619.6</ele><time>2026-04-28T11:48:05.999Z</time></trkpt><trkpt lat="34.84371671960208" lon="-5.0821697572920375"><ele>619.0</ele><time>2026-04-28T11:48:06.999Z</time></trkpt><trkpt lat="34.843641679306096" lon="-5.082270427752603"><ele>619.0</ele><time>2026-04-28T11:48:07.999Z</time></trkpt><trkpt lat="34.8436064333015" lon="-5.082359679699173"><ele>619.0</ele><time>2026-04-28T11:48:08.999Z</time></trkpt><trkpt lat="34.84354665845191" lon="-5.082478195094897"><ele>619.0</ele><time>2026-04-28T11:48:09.999Z</time></trkpt><trkpt lat="34.84347247656964" lon="-5.0826194010172925"><ele>619.0</ele><time>2026-04-28T11:48:10.999Z</time></trkpt><trkpt lat="34.843390735573756" lon="-5.082767490982949"><ele>620.0</ele><time>2026-04-28T11:48:11.999Z</time></trkpt><trkpt lat="34.843315371613215" lon="-5.082904009018275"><ele>621.0</ele><time>2026-04-28T11:48:12.999Z</time></trkpt><trkpt lat="34.84324732350161" lon="-5.083024179907632"><ele>622.0</ele><time>2026-04-28T11:48:13.999Z</time></trkpt><trkpt lat="34.84318152040163" lon="-5.08313086706425"><ele>623.0</ele><time>2026-04-28T11:48:14.999Z</time></trkpt><trkpt lat="34.84311998654387" lon="-5.083231088351731"><ele>624.0</ele><time>2026-04-28T11:48:15.999Z</time></trkpt><trkpt lat="34.843045168264055" lon="-5.083335282888323"><ele>625.0</ele><time>2026-04-28T11:48:16.999Z</time></trkpt><trkpt lat="34.842957245659065" lon="-5.083430284404319"><ele>626.0</ele><time>2026-04-28T11:48:17.999Z</time></trkpt><trkpt lat="34.84281364003282" lon="-5.083489024388212"><ele>627.0</ele><time>2026-04-28T11:48:18.999Z</time></trkpt><trkpt lat="34.8426613306227" lon="-5.083510976146233"><ele>623.3333333333334</ele><time>2026-04-28T11:48:19.999Z</time></trkpt><trkpt lat="34.842513674726455" lon="-5.08353464827306"><ele>619.6666666666667</ele><time>2026-04-28T11:48:20.999Z</time></trkpt><trkpt lat="34.842367416785095" lon="-5.0835464234240995"><ele>616.0</ele><time>2026-04-28T11:48:21.999Z</time></trkpt><trkpt lat="34.84219965696356" lon="-5.0835599296901925"><ele>616.0</ele><time>2026-04-28T11:48:22.999Z</time></trkpt><trkpt lat="34.84201914863201" lon="-5.083573361775849"><ele>616.0</ele><time>2026-04-28T11:48:23.999Z</time></trkpt><trkpt lat="34.84185122560392" lon="-5.083573025416145"><ele>616.0</ele><time>2026-04-28T11:48:24.999Z</time></trkpt><trkpt lat="34.84169489587836" lon="-5.083530780390329"><ele>615.0</ele><time>2026-04-28T11:48:25.999Z</time></trkpt><trkpt lat="34.84154012667203" lon="-5.08349401453569"><ele>614.0</ele><time>2026-04-28T11:48:26.999Z</time></trkpt><trkpt lat="34.84138705029233" lon="-5.0834343767811525"><ele>613.0</ele><time>2026-04-28T11:48:27.999Z</time></trkpt><trkpt lat="34.8412459771396" lon="-5.083359441874042"><ele>613.0</ele><time>2026-04-28T11:48:28.999Z</time></trkpt><trkpt lat="34.84110231208412" lon="-5.083281821377022"><ele>613.0</ele><time>2026-04-28T11:48:29.999Z</time></trkpt><trkpt lat="34.84095765920076" lon="-5.0832006180271785"><ele>613.0</ele><time>2026-04-28T11:48:30.999Z</time></trkpt><trkpt lat="34.84081987175132" lon="-5.0831239464423525"><ele>611.0</ele><time>2026-04-28T11:48:31.999Z</time></trkpt><trkpt lat="34.84069136766878" lon="-5.083053849191247"><ele>609.0</ele><time>2026-04-28T11:48:32.999Z</time></trkpt><trkpt lat="34.84056284052634" lon="-5.08299590724206"><ele>607.0</ele><time>2026-04-28T11:48:33.999Z</time></trkpt><trkpt lat="34.84043115575563" lon="-5.082949930794289"><ele>605.0</ele><time>2026-04-28T11:48:34.999Z</time></trkpt><trkpt lat="34.84030815184002" lon="-5.082916271993242"><ele>605.0</ele><time>2026-04-28T11:48:35.999Z</time></trkpt><trkpt lat="34.8401926636068" lon="-5.082892027738951"><ele>605.0</ele><time>2026-04-28T11:48:36.999Z</time></trkpt><trkpt lat="34.840087673602326" lon="-5.0828731152020525"><ele>605.0</ele><time>2026-04-28T11:48:37.999Z</time></trkpt><trkpt lat="34.84000179979061" lon="-5.08285766133508"><ele>605.0</ele><time>2026-04-28T11:48:38.999Z</time></trkpt><trkpt lat="34.83989832409206" lon="-5.082838638864422"><ele>605.0</ele><time>2026-04-28T11:48:40.999Z</time></trkpt><trkpt lat="34.839784335527284" lon="-5.082816278774469"><ele>605.0</ele><time>2026-04-28T11:48:42.999Z</time></trkpt><trkpt lat="34.839685149884836" lon="-5.082798815750306"><ele>605.0</ele><time>2026-04-28T11:48:43.999Z</time></trkpt><trkpt lat="34.83957757988316" lon="-5.082767520271006"><ele>605.0</ele><time>2026-04-28T11:48:44.999Z</time></trkpt><trkpt lat="34.83945251253747" lon="-5.082737849150979"><ele>605.0</ele><time>2026-04-28T11:48:45.999Z</time></trkpt><trkpt lat="34.83931949015867" lon="-5.0827166811110445"><ele>605.5</ele><time>2026-04-28T11:48:46.999Z</time></trkpt><trkpt lat="34.83917582982302" lon="-5.082704427499343"><ele>606.0</ele><time>2026-04-28T11:48:47.999Z</time></trkpt><trkpt lat="34.8390309330855" lon="-5.0827234022085666"><ele>606.5</ele><time>2026-04-28T11:48:48.999Z</time></trkpt><trkpt lat="34.83889047730287" lon="-5.082793071921486"><ele>607.0</ele><time>2026-04-28T11:48:49.999Z</time></trkpt><trkpt lat="34.838767531555334" lon="-5.0828935506316775"><ele>607.0</ele><time>2026-04-28T11:48:50.999Z</time></trkpt><trkpt lat="34.83865267682513" lon="-5.083013056299673"><ele>607.0</ele><time>2026-04-28T11:48:51.999Z</time></trkpt><trkpt lat="34.83855122924522" lon="-5.083137058884209"><ele>607.0</ele><time>2026-04-28T11:48:52.999Z</time></trkpt><trkpt lat="34.838449048036125" lon="-5.083255484026344"><ele>607.0</ele><time>2026-04-28T11:48:53.999Z</time></trkpt><trkpt lat="34.83833810132843" lon="-5.083391260328021"><ele>604.6666666666667</ele><time>2026-04-28T11:48:54.999Z</time></trkpt><trkpt lat="34.8382218192069" lon="-5.083531512937681"><ele>602.3333333333334</ele><time>2026-04-28T11:48:55.999Z</time></trkpt><trkpt lat="34.83810231704816" lon="-5.0836615503380935"><ele>600.0</ele><time>2026-04-28T11:48:56.999Z</time></trkpt><trkpt lat="34.83797797884443" lon="-5.0837794520386685"><ele>600.0</ele><time>2026-04-28T11:48:57.999Z</time></trkpt><trkpt lat="34.837855608628104" lon="-5.083896074986212"><ele>600.0</ele><time>2026-04-28T11:48:58.999Z</time></trkpt><trkpt lat="34.83773962788361" lon="-5.084014896163227"><ele>600.0</ele><time>2026-04-28T11:48:59.999Z</time></trkpt><trkpt lat="34.83761097242679" lon="-5.084131961344"><ele>594.6666666666666</ele><time>2026-04-28T11:49:00.999Z</time></trkpt><trkpt lat="34.837466901043754" lon="-5.084234121497032"><ele>589.3333333333333</ele><time>2026-04-28T11:49:01.999Z</time></trkpt><trkpt lat="34.83731187160478" lon="-5.084320468214235"><ele>584.0</ele><time>2026-04-28T11:49:02.999Z</time></trkpt><trkpt lat="34.83714980313548" lon="-5.084401806672038"><ele>584.0</ele><time>2026-04-28T11:49:03.999Z</time></trkpt><trkpt lat="34.83699729215165" lon="-5.084482427043938"><ele>584.0</ele><time>2026-04-28T11:49:04.999Z</time></trkpt><trkpt lat="34.836855106439806" lon="-5.084584569432666"><ele>584.0</ele><time>2026-04-28T11:49:05.999Z</time></trkpt><trkpt lat="34.836735903240076" lon="-5.084717199217556"><ele>582.3333333333333</ele><time>2026-04-28T11:49:06.999Z</time></trkpt><trkpt lat="34.83665671732952" lon="-5.084874943796298"><ele>580.6666666666666</ele><time>2026-04-28T11:49:07.999Z</time></trkpt><trkpt lat="34.83660743163854" lon="-5.085044661724622"><ele>579.0</ele><time>2026-04-28T11:49:08.999Z</time></trkpt><trkpt lat="34.83657269675292" lon="-5.085231588358627"><ele>579.0</ele><time>2026-04-28T11:49:09.999Z</time></trkpt><trkpt lat="34.836527557597755" lon="-5.085431449362916"><ele>579.0</ele><time>2026-04-28T11:49:10.999Z</time></trkpt><trkpt lat="34.836504855675166" lon="-5.085644124897325"><ele>579.0</ele><time>2026-04-28T11:49:11.999Z</time></trkpt><trkpt lat="34.83647043094466" lon="-5.085852010940515"><ele>574.3333333333334</ele><time>2026-04-28T11:49:12.999Z</time></trkpt><trkpt lat="34.83643737036838" lon="-5.086056820212273"><ele>569.6666666666667</ele><time>2026-04-28T11:49:13.999Z</time></trkpt><trkpt lat="34.836397452566274" lon="-5.086255393150798"><ele>565.0</ele><time>2026-04-28T11:49:14.999Z</time></trkpt><trkpt lat="34.83635209197821" lon="-5.086442852943465"><ele>563.5</ele><time>2026-04-28T11:49:15.999Z</time></trkpt><trkpt lat="34.83630129013457" lon="-5.086611778649205"><ele>562.0</ele><time>2026-04-28T11:49:16.999Z</time></trkpt><trkpt lat="34.83624621948959" lon="-5.086776409354343"><ele>560.5</ele><time>2026-04-28T11:49:17.999Z</time></trkpt><trkpt lat="34.83618768514878" lon="-5.086939599976964"><ele>559.0</ele><time>2026-04-28T11:49:18.999Z</time></trkpt><trkpt lat="34.83612518217111" lon="-5.087094083360611"><ele>559.0</ele><time>2026-04-28T11:49:19.999Z</time></trkpt><trkpt lat="34.83606123789657" lon="-5.087251973957004"><ele>559.0</ele><time>2026-04-28T11:49:20.999Z</time></trkpt><trkpt lat="34.8359909395985" lon="-5.087424321211224"><ele>559.0</ele><time>2026-04-28T11:49:21.999Z</time></trkpt><trkpt lat="34.83591708100748" lon="-5.087602137341225"><ele>558.6666666666667</ele><time>2026-04-28T11:49:22.999Z</time></trkpt><trkpt lat="34.835823520509486" lon="-5.087780447008533"><ele>558.3333333333334</ele><time>2026-04-28T11:49:23.999Z</time></trkpt><trkpt lat="34.83575522183563" lon="-5.087986058331115"><ele>558.0</ele><time>2026-04-28T11:49:24.999Z</time></trkpt><trkpt lat="34.835666407879515" lon="-5.088187148606695"><ele>555.3333333333334</ele><time>2026-04-28T11:49:25.999Z</time></trkpt><trkpt lat="34.835576756546665" lon="-5.0883825095196915"><ele>552.6666666666667</ele><time>2026-04-28T11:49:26.999Z</time></trkpt><trkpt lat="34.83549251971624" lon="-5.088567765243082"><ele>550.0</ele><time>2026-04-28T11:49:27.999Z</time></trkpt><trkpt lat="34.83541201107256" lon="-5.088754531239369"><ele>550.0</ele><time>2026-04-28T11:49:28.999Z</time></trkpt><trkpt lat="34.83534195287295" lon="-5.088947078417865"><ele>550.0</ele><time>2026-04-28T11:49:29.999Z</time></trkpt><trkpt lat="34.83528447583035" lon="-5.089150780970987"><ele>550.0</ele><time>2026-04-28T11:49:30.999Z</time></trkpt><trkpt lat="34.83526242824033" lon="-5.089343664964744"><ele>546.0</ele><time>2026-04-28T11:49:31.999Z</time></trkpt><trkpt lat="34.83525454181035" lon="-5.089534604469198"><ele>542.0</ele><time>2026-04-28T11:49:32.999Z</time></trkpt><trkpt lat="34.83526374039784" lon="-5.0897195193959845"><ele>538.0</ele><time>2026-04-28T11:49:33.999Z</time></trkpt><trkpt lat="34.83528321590792" lon="-5.089906188494368"><ele>536.3333333333334</ele><time>2026-04-28T11:49:34.999Z</time></trkpt><trkpt lat="34.835302562095656" lon="-5.090096365016577"><ele>534.6666666666666</ele><time>2026-04-28T11:49:35.999Z</time></trkpt><trkpt lat="34.83530720946302" lon="-5.090287680121425"><ele>533.0</ele><time>2026-04-28T11:49:36.999Z</time></trkpt><trkpt lat="34.83530267460263" lon="-5.09047395202313"><ele>533.0</ele><time>2026-04-28T11:49:37.999Z</time></trkpt><trkpt lat="34.83526916214847" lon="-5.090664602308372"><ele>533.0</ele><time>2026-04-28T11:49:38.999Z</time></trkpt><trkpt lat="34.83522211543867" lon="-5.090846164654495"><ele>533.0</ele><time>2026-04-28T11:49:39.999Z</time></trkpt><trkpt lat="34.83514788932446" lon="-5.0910172324220975"><ele>535.6666666666666</ele><time>2026-04-28T11:49:40.999Z</time></trkpt><trkpt lat="34.83506609271871" lon="-5.091172718667614"><ele>538.3333333333334</ele><time>2026-04-28T11:49:41.999Z</time></trkpt><trkpt lat="34.834933922195106" lon="-5.091296955205307"><ele>541.0</ele><time>2026-04-28T11:49:42.999Z</time></trkpt><trkpt lat="34.834801452206094" lon="-5.091409592295953"><ele>541.0</ele><time>2026-04-28T11:49:43.999Z</time></trkpt><trkpt lat="34.8346623103448" lon="-5.091511625481827"><ele>541.0</ele><time>2026-04-28T11:49:44.999Z</time></trkpt><trkpt lat="34.83452340860304" lon="-5.091609671453987"><ele>541.0</ele><time>2026-04-28T11:49:45.999Z</time></trkpt><trkpt lat="34.83438203770336" lon="-5.091713126712739"><ele>536.25</ele><time>2026-04-28T11:49:46.999Z</time></trkpt><trkpt lat="34.83424893141214" lon="-5.091810460713779"><ele>531.5</ele><time>2026-04-28T11:49:47.999Z</time></trkpt><trkpt lat="34.83412617483245" lon="-5.091905678740621"><ele>526.75</ele><time>2026-04-28T11:49:48.999Z</time></trkpt><trkpt lat="34.83402222684119" lon="-5.092022673155804"><ele>522.0</ele><time>2026-04-28T11:49:49.999Z</time></trkpt><trkpt lat="34.83393965344613" lon="-5.092170584587477"><ele>522.0</ele><time>2026-04-28T11:49:50.999Z</time></trkpt><trkpt lat="34.833860352219915" lon="-5.092328134568565"><ele>522.0</ele><time>2026-04-28T11:49:51.999Z</time></trkpt><trkpt lat="34.83380940749407" lon="-5.09249631294877"><ele>522.0</ele><time>2026-04-28T11:49:52.999Z</time></trkpt><trkpt lat="34.83374796002665" lon="-5.09266912917674"><ele>522.6666666666666</ele><time>2026-04-28T11:49:53.999Z</time></trkpt><trkpt lat="34.833684272800845" lon="-5.092833010352474"><ele>523.3333333333333</ele><time>2026-04-28T11:49:54.999Z</time></trkpt><trkpt lat="34.83361540393601" lon="-5.093010848724667"><ele>524.0</ele><time>2026-04-28T11:49:55.999Z</time></trkpt><trkpt lat="34.8335331510198" lon="-5.093200790589316"><ele>516.3333333333333</ele><time>2026-04-28T11:49:56.999Z</time></trkpt><trkpt lat="34.83344503576029" lon="-5.093395942656365"><ele>508.66666666666663</ele><time>2026-04-28T11:49:58Z</time></trkpt><trkpt lat="34.83334732883349" lon="-5.093589478247343"><ele>501.0</ele><time>2026-04-28T11:49:59Z</time></trkpt><trkpt lat="34.8332531500412" lon="-5.093781931453568"><ele>501.0</ele><time>2026-04-28T11:50:00Z</time></trkpt><trkpt lat="34.833165947856976" lon="-5.093985354372588"><ele>501.0</ele><time>2026-04-28T11:50:01Z</time></trkpt><trkpt lat="34.83308167291697" lon="-5.094186180557648"><ele>501.0</ele><time>2026-04-28T11:50:02Z</time></trkpt><trkpt lat="34.83300367107311" lon="-5.0943932502277125"><ele>499.0</ele><time>2026-04-28T11:50:03Z</time></trkpt><trkpt lat="34.832925068708995" lon="-5.094601512625414"><ele>497.0</ele><time>2026-04-28T11:50:04Z</time></trkpt><trkpt lat="34.832852264844426" lon="-5.094794852359954"><ele>495.0</ele><time>2026-04-28T11:50:05Z</time></trkpt><trkpt lat="34.832754605279064" lon="-5.094985625839216"><ele>494.0</ele><time>2026-04-28T11:50:06Z</time></trkpt><trkpt lat="34.83264659826078" lon="-5.095165705717562"><ele>493.0</ele><time>2026-04-28T11:50:07Z</time></trkpt><trkpt lat="34.832530444857895" lon="-5.095348378485551"><ele>492.0</ele><time>2026-04-28T11:50:08Z</time></trkpt><trkpt lat="34.8323813002722" lon="-5.09551127551366"><ele>492.0</ele><time>2026-04-28T11:50:09Z</time></trkpt><trkpt lat="34.832242051930656" lon="-5.095665222564263"><ele>492.0</ele><time>2026-04-28T11:50:10Z</time></trkpt><trkpt lat="34.8321013642778" lon="-5.095821842230279"><ele>492.0</ele><time>2026-04-28T11:50:11Z</time></trkpt><trkpt lat="34.831953876262745" lon="-5.095977912987107"><ele>492.33333333333337</ele><time>2026-04-28T11:50:12Z</time></trkpt><trkpt lat="34.83180670434972" lon="-5.096133682529603"><ele>492.6666666666667</ele><time>2026-04-28T11:50:13Z</time></trkpt><trkpt lat="34.8316818754948" lon="-5.096282954732824"><ele>493.0</ele><time>2026-04-28T11:50:14Z</time></trkpt><trkpt lat="34.831562505128375" lon="-5.096444355362444"><ele>494.33333333333337</ele><time>2026-04-28T11:50:15Z</time></trkpt><trkpt lat="34.83145367663704" lon="-5.096617734458375"><ele>495.66666666666663</ele><time>2026-04-28T11:50:16Z</time></trkpt><trkpt lat="34.831348965530694" lon="-5.096809827951529"><ele>497.0</ele><time>2026-04-28T11:50:17Z</time></trkpt><trkpt lat="34.83123646819479" lon="-5.097012326370657"><ele>497.0</ele><time>2026-04-28T11:50:18Z</time></trkpt><trkpt lat="34.83111529097071" lon="-5.0972183852513355"><ele>497.0</ele><time>2026-04-28T11:50:19Z</time></trkpt><trkpt lat="34.830981482139386" lon="-5.097418341109163"><ele>497.0</ele><time>2026-04-28T11:50:20Z</time></trkpt><trkpt lat="34.83084951947525" lon="-5.097607487235763"><ele>494.0</ele><time>2026-04-28T11:50:21Z</time></trkpt><trkpt lat="34.83072036097988" lon="-5.097793508996522"><ele>491.0</ele><time>2026-04-28T11:50:22Z</time></trkpt><trkpt lat="34.830594417605056" lon="-5.0979749316889915"><ele>488.0</ele><time>2026-04-28T11:50:23Z</time></trkpt><trkpt lat="34.83045316173516" lon="-5.09813355513745"><ele>487.3333333333333</ele><time>2026-04-28T11:50:24Z</time></trkpt><trkpt lat="34.830329990667565" lon="-5.098288600492706"><ele>486.66666666666663</ele><time>2026-04-28T11:50:25Z</time></trkpt><trkpt lat="34.83022007441436" lon="-5.098422641752103"><ele>486.0</ele><time>2026-04-28T11:50:26Z</time></trkpt><trkpt lat="34.830107498515396" lon="-5.0985217841049115"><ele>485.5</ele><time>2026-04-28T11:50:27Z</time></trkpt><trkpt lat="34.83000076379277" lon="-5.098601954849458"><ele>485.0</ele><time>2026-04-28T11:50:28Z</time></trkpt><trkpt lat="34.82986487187558" lon="-5.098615722291161"><ele>484.5</ele><time>2026-04-28T11:50:29Z</time></trkpt><trkpt lat="34.829717957865256" lon="-5.098615981412517"><ele>484.0</ele><time>2026-04-28T11:50:30Z</time></trkpt><trkpt lat="34.82955953235133" lon="-5.098609808925062"><ele>484.0</ele><time>2026-04-28T11:50:31Z</time></trkpt><trkpt lat="34.82938704135847" lon="-5.098612467829286"><ele>484.0</ele><time>2026-04-28T11:50:32Z</time></trkpt><trkpt lat="34.82920665662094" lon="-5.098620695531318"><ele>484.0</ele><time>2026-04-28T11:50:33Z</time></trkpt><trkpt lat="34.82902914719345" lon="-5.098628669306879"><ele>483.33333333333337</ele><time>2026-04-28T11:50:34Z</time></trkpt><trkpt lat="34.82885505155482" lon="-5.098665145482754"><ele>482.66666666666663</ele><time>2026-04-28T11:50:35Z</time></trkpt><trkpt lat="34.82869120663711" lon="-5.098701521542196"><ele>482.0</ele><time>2026-04-28T11:50:36Z</time></trkpt><trkpt lat="34.828529231001745" lon="-5.098756071683916"><ele>480.3333333333333</ele><time>2026-04-28T11:50:37Z</time></trkpt><trkpt lat="34.828371314670505" lon="-5.098809428563496"><ele>478.66666666666663</ele><time>2026-04-28T11:50:38Z</time></trkpt><trkpt lat="34.82823468566372" lon="-5.098902301436462"><ele>477.0</ele><time>2026-04-28T11:50:39Z</time></trkpt><trkpt lat="34.82809295602012" lon="-5.098996699221606"><ele>477.66666666666663</ele><time>2026-04-28T11:50:40Z</time></trkpt><trkpt lat="34.82795834584274" lon="-5.099096318479454"><ele>478.3333333333333</ele><time>2026-04-28T11:50:41Z</time></trkpt><trkpt lat="34.82781622215057" lon="-5.09920099406043"><ele>479.0</ele><time>2026-04-28T11:50:42Z</time></trkpt><trkpt lat="34.827674574426155" lon="-5.09931477137082"><ele>480.3333333333333</ele><time>2026-04-28T11:50:43Z</time></trkpt><trkpt lat="34.82752994891618" lon="-5.099436771067638"><ele>481.66666666666663</ele><time>2026-04-28T11:50:44Z</time></trkpt><trkpt lat="34.827393779947585" lon="-5.099566757921331"><ele>483.0</ele><time>2026-04-28T11:50:45Z</time></trkpt><trkpt lat="34.827270533754685" lon="-5.09971670131446"><ele>483.0</ele><time>2026-04-28T11:50:46Z</time></trkpt><trkpt lat="34.82715265290702" lon="-5.0998662041444"><ele>483.0</ele><time>2026-04-28T11:50:47Z</time></trkpt><trkpt lat="34.8270478890771" lon="-5.1000149061413405"><ele>483.0</ele><time>2026-04-28T11:50:48Z</time></trkpt><trkpt lat="34.8269411275649" lon="-5.100169111422152"><ele>485.0</ele><time>2026-04-28T11:50:49Z</time></trkpt><trkpt lat="34.82680243733424" lon="-5.100288345004051"><ele>487.0</ele><time>2026-04-28T11:50:50Z</time></trkpt><trkpt lat="34.826664135854664" lon="-5.1004120514285765"><ele>489.0</ele><time>2026-04-28T11:50:51Z</time></trkpt><trkpt lat="34.826514612135576" lon="-5.100529411193642"><ele>489.0</ele><time>2026-04-28T11:50:52Z</time></trkpt><trkpt lat="34.82636860938075" lon="-5.100637798921652"><ele>489.0</ele><time>2026-04-28T11:50:53Z</time></trkpt><trkpt lat="34.82622599736696" lon="-5.100726250537778"><ele>489.0</ele><time>2026-04-28T11:50:54Z</time></trkpt><trkpt lat="34.82609402877187" lon="-5.1008182569185445"><ele>487.75</ele><time>2026-04-28T11:50:55Z</time></trkpt><trkpt lat="34.82596174221562" lon="-5.100902173394371"><ele>486.5</ele><time>2026-04-28T11:50:56Z</time></trkpt><trkpt lat="34.8258499030903" lon="-5.101008133471792"><ele>485.25</ele><time>2026-04-28T11:50:57Z</time></trkpt><trkpt lat="34.825737602151584" lon="-5.101120170232846"><ele>484.0</ele><time>2026-04-28T11:50:58Z</time></trkpt><trkpt lat="34.82562046837257" lon="-5.101244806367348"><ele>484.0</ele><time>2026-04-28T11:50:59Z</time></trkpt><trkpt lat="34.825540209360675" lon="-5.101391862709453"><ele>484.0</ele><time>2026-04-28T11:51:00Z</time></trkpt><trkpt lat="34.82547366148434" lon="-5.101552345686863"><ele>484.0</ele><time>2026-04-28T11:51:01Z</time></trkpt><trkpt lat="34.825427669264656" lon="-5.101737894484613"><ele>479.6666666666667</ele><time>2026-04-28T11:51:02Z</time></trkpt><trkpt lat="34.825388666160485" lon="-5.101940757019171"><ele>475.33333333333337</ele><time>2026-04-28T11:51:03Z</time></trkpt><trkpt lat="34.82535515299645" lon="-5.102136540218562"><ele>471.0</ele><time>2026-04-28T11:51:04Z</time></trkpt><trkpt lat="34.82532150996823" lon="-5.102332197915581"><ele>469.66666666666663</ele><time>2026-04-28T11:51:05Z</time></trkpt><trkpt lat="34.825279617927" lon="-5.102522851039487"><ele>468.3333333333333</ele><time>2026-04-28T11:51:06Z</time></trkpt><trkpt lat="34.825212064700516" lon="-5.102705686452772"><ele>467.0</ele><time>2026-04-28T11:51:07Z</time></trkpt><trkpt lat="34.8251243818109" lon="-5.102854947112118"><ele>467.0</ele><time>2026-04-28T11:51:08Z</time></trkpt><trkpt lat="34.825010246277095" lon="-5.102978583652254"><ele>467.0</ele><time>2026-04-28T11:51:09Z</time></trkpt><trkpt lat="34.82486368330019" lon="-5.1030661148433705"><ele>467.0</ele><time>2026-04-28T11:51:10Z</time></trkpt><trkpt lat="34.824721134601695" lon="-5.103155534252628"><ele>464.66666666666663</ele><time>2026-04-28T11:51:11Z</time></trkpt><trkpt lat="34.82458343737872" lon="-5.10325040172508"><ele>462.33333333333337</ele><time>2026-04-28T11:51:12Z</time></trkpt><trkpt lat="34.8244683552748" lon="-5.103369699581035"><ele>460.0</ele><time>2026-04-28T11:51:13Z</time></trkpt><trkpt lat="34.8243615348495" lon="-5.103508792800608"><ele>460.0</ele><time>2026-04-28T11:51:14Z</time></trkpt><trkpt lat="34.82426934316151" lon="-5.103671602685025"><ele>460.0</ele><time>2026-04-28T11:51:15Z</time></trkpt><trkpt lat="34.82416897239199" lon="-5.103832278124067"><ele>460.0</ele><time>2026-04-28T11:51:16Z</time></trkpt><trkpt lat="34.82406055015302" lon="-5.1039715132365835"><ele>457.6666666666667</ele><time>2026-04-28T11:51:17Z</time></trkpt><trkpt lat="34.82393393963714" lon="-5.104099805806144"><ele>455.33333333333337</ele><time>2026-04-28T11:51:18Z</time></trkpt><trkpt lat="34.82377367444332" lon="-5.104213393544467"><ele>453.0</ele><time>2026-04-28T11:51:19Z</time></trkpt><trkpt lat="34.823599173253555" lon="-5.104326204184367"><ele>453.33333333333337</ele><time>2026-04-28T11:51:20Z</time></trkpt><trkpt lat="34.82342724696199" lon="-5.104464433059385"><ele>453.6666666666667</ele><time>2026-04-28T11:51:21Z</time></trkpt><trkpt lat="34.823252325748044" lon="-5.104589562481004"><ele>454.0</ele><time>2026-04-28T11:51:22Z</time></trkpt><trkpt lat="34.82308469064869" lon="-5.1047076775753055"><ele>454.0</ele><time>2026-04-28T11:51:23Z</time></trkpt><trkpt lat="34.82291231269631" lon="-5.104805334492603"><ele>454.0</ele><time>2026-04-28T11:51:24Z</time></trkpt><trkpt lat="34.82275845361564" lon="-5.1048700439908"><ele>454.0</ele><time>2026-04-28T11:51:25Z</time></trkpt><trkpt lat="34.822621765690485" lon="-5.10490824423767"><ele>452.83333333333337</ele><time>2026-04-28T11:51:26Z</time></trkpt><trkpt lat="34.822511056698445" lon="-5.104926550939896"><ele>451.6666666666667</ele><time>2026-04-28T11:51:27Z</time></trkpt><trkpt lat="34.82241892170675" lon="-5.10492872128406"><ele>450.5</ele><time>2026-04-28T11:51:28Z</time></trkpt><trkpt lat="34.82234209587135" lon="-5.104928721284383"><ele>449.33333333333337</ele><time>2026-04-28T11:51:29Z</time></trkpt><trkpt lat="34.82226754023786" lon="-5.104928721284087"><ele>448.1666666666667</ele><time>2026-04-28T11:51:30Z</time></trkpt><trkpt lat="34.82219300817399" lon="-5.104928721284484"><ele>447.0</ele><time>2026-04-28T11:51:31Z</time></trkpt><trkpt lat="34.82212415779077" lon="-5.104928721284179"><ele>447.0</ele><time>2026-04-28T11:51:32Z</time></trkpt><trkpt lat="34.822059691191626" lon="-5.104928721285463"><ele>447.0</ele><time>2026-04-28T11:51:33Z</time></trkpt><trkpt lat="34.821952453562744" lon="-5.104927426419292"><ele>447.0</ele><time>2026-04-28T11:51:35Z</time></trkpt><trkpt lat="34.82188035479321" lon="-5.104935595251988"><ele>447.0</ele><time>2026-04-28T11:51:37Z</time></trkpt><trkpt lat="34.82183276562134" lon="-5.105010962327795"><ele>447.0</ele><time>2026-04-28T11:51:39Z</time></trkpt><trkpt lat="34.8217443246196" lon="-5.105015330073632"><ele>447.0</ele><time>2026-04-28T11:51:41Z</time></trkpt><trkpt lat="34.82162911200346" lon="-5.105038122440801"><ele>446.6</ele><time>2026-04-28T11:51:43Z</time></trkpt><trkpt lat="34.821517933849" lon="-5.105038868988068"><ele>446.20000000000005</ele><time>2026-04-28T11:51:45Z</time></trkpt><trkpt lat="34.82143289346583" lon="-5.104996812223839"><ele>445.8</ele><time>2026-04-28T11:51:47Z</time></trkpt><trkpt lat="34.821366029269896" lon="-5.104985504983165"><ele>445.4</ele><time>2026-04-28T11:51:49Z</time></trkpt><trkpt lat="34.82124959524683" lon="-5.105037535752676"><ele>445.0</ele><time>2026-04-28T11:51:51Z</time></trkpt><trkpt lat="34.821167569545445" lon="-5.105087987169092"><ele>445.0</ele><time>2026-04-28T11:51:52Z</time></trkpt><trkpt lat="34.82106596144417" lon="-5.105154425606575"><ele>445.0</ele><time>2026-04-28T11:51:53Z</time></trkpt><trkpt lat="34.820950836530784" lon="-5.105229701234697"><ele>445.0</ele><time>2026-04-28T11:51:54Z</time></trkpt><trkpt lat="34.82084640508032" lon="-5.1052979832677305"><ele>445.0</ele><time>2026-04-28T11:51:55Z</time></trkpt><trkpt lat="34.82079863441922" lon="-5.105408756984228"><ele>445.0</ele><time>2026-04-28T11:51:56Z</time></trkpt><trkpt lat="34.82070798751984" lon="-5.10552942682405"><ele>445.0</ele><time>2026-04-28T11:51:57Z</time></trkpt><trkpt lat="34.820632191541954" lon="-5.105664748861958"><ele>445.0</ele><time>2026-04-28T11:51:58Z</time></trkpt><trkpt lat="34.82054519077533" lon="-5.105823931672969"><ele>445.0</ele><time>2026-04-28T11:51:59Z</time></trkpt><trkpt lat="34.8204544407016" lon="-5.105991728164203"><ele>444.0</ele><time>2026-04-28T11:52:00Z</time></trkpt><trkpt lat="34.82036763050012" lon="-5.106158202552696"><ele>443.0</ele><time>2026-04-28T11:52:01Z</time></trkpt><trkpt lat="34.82029083022157" lon="-5.106324089422331"><ele>442.0</ele><time>2026-04-28T11:52:02Z</time></trkpt><trkpt lat="34.82021343538976" lon="-5.106490020737498"><ele>443.0</ele><time>2026-04-28T11:52:03Z</time></trkpt><trkpt lat="34.820140002885196" lon="-5.106647433974544"><ele>444.0</ele><time>2026-04-28T11:52:04.001Z</time></trkpt><trkpt lat="34.82007009890529" lon="-5.106798636185176"><ele>445.0</ele><time>2026-04-28T11:52:05.001Z</time></trkpt><trkpt lat="34.820003503675764" lon="-5.10693998931749"><ele>446.0</ele><time>2026-04-28T11:52:06.001Z</time></trkpt><trkpt lat="34.819942607026825" lon="-5.107071849330193"><ele>446.0</ele><time>2026-04-28T11:52:07.001Z</time></trkpt><trkpt lat="34.8198853630578" lon="-5.107193889507204"><ele>446.0</ele><time>2026-04-28T11:52:08.001Z</time></trkpt><trkpt lat="34.81982913091317" lon="-5.107314050298572"><ele>446.0</ele><time>2026-04-28T11:52:09.001Z</time></trkpt><trkpt lat="34.81977353023312" lon="-5.107429132533728"><ele>446.0</ele><time>2026-04-28T11:52:10.001Z</time></trkpt><trkpt lat="34.81971965073006" lon="-5.107539850614498"><ele>446.0</ele><time>2026-04-28T11:52:11.001Z</time></trkpt><trkpt lat="34.819671529854375" lon="-5.107638733829332"><ele>446.3333333333333</ele><time>2026-04-28T11:52:12.001Z</time></trkpt><trkpt lat="34.81962655234184" lon="-5.107731911776515"><ele>446.66666666666663</ele><time>2026-04-28T11:52:13.001Z</time></trkpt><trkpt lat="34.8195829820278" lon="-5.10782088830892"><ele>447.0</ele><time>2026-04-28T11:52:14.001Z</time></trkpt><trkpt lat="34.819539613082036" lon="-5.107909159182373"><ele>447.33333333333337</ele><time>2026-04-28T11:52:15.001Z</time></trkpt><trkpt lat="34.81949800377316" lon="-5.10799236024453"><ele>447.6666666666667</ele><time>2026-04-28T11:52:16.001Z</time></trkpt><trkpt lat="34.81945464721619" lon="-5.108073893805981"><ele>448.0</ele><time>2026-04-28T11:52:17.001Z</time></trkpt><trkpt lat="34.81941212384245" lon="-5.108153731274116"><ele>448.00000000000006</ele><time>2026-04-28T11:52:18.001Z</time></trkpt><trkpt lat="34.81936991979877" lon="-5.108232556332995"><ele>448.0</ele><time>2026-04-28T11:52:19.001Z</time></trkpt><trkpt lat="34.81932870274629" lon="-5.108308958156255"><ele>448.0</ele><time>2026-04-28T11:52:20.001Z</time></trkpt><trkpt lat="34.81928651616298" lon="-5.10838456469935"><ele>448.0</ele><time>2026-04-28T11:52:21.001Z</time></trkpt><trkpt lat="34.81924252724637" lon="-5.1084575580799365"><ele>448.00000000000006</ele><time>2026-04-28T11:52:22.001Z</time></trkpt><trkpt lat="34.81919612657048" lon="-5.108534553382973"><ele>448.0</ele><time>2026-04-28T11:52:23.001Z</time></trkpt><trkpt lat="34.81914752797078" lon="-5.10861519789928"><ele>446.79999999999995</ele><time>2026-04-28T11:52:24.001Z</time></trkpt><trkpt lat="34.81906343143801" lon="-5.108679192256468"><ele>445.59999999999997</ele><time>2026-04-28T11:52:25.001Z</time></trkpt><trkpt lat="34.818990690711296" lon="-5.108747167866387"><ele>444.40000000000003</ele><time>2026-04-28T11:52:26.001Z</time></trkpt><trkpt lat="34.81891117784466" lon="-5.108804809854173"><ele>443.20000000000005</ele><time>2026-04-28T11:52:27.001Z</time></trkpt><trkpt lat="34.8188342396592" lon="-5.108859171344949"><ele>442.0</ele><time>2026-04-28T11:52:28.001Z</time></trkpt><trkpt lat="34.81875157264556" lon="-5.108909451045655"><ele>442.00000000000006</ele><time>2026-04-28T11:52:29.001Z</time></trkpt><trkpt lat="34.81867111365254" lon="-5.108946144373595"><ele>442.0</ele><time>2026-04-28T11:52:30.001Z</time></trkpt><trkpt lat="34.81859303510824" lon="-5.108981055506895"><ele>442.0</ele><time>2026-04-28T11:52:31.001Z</time></trkpt><trkpt lat="34.81851600613948" lon="-5.109016993460979"><ele>442.0</ele><time>2026-04-28T11:52:32.001Z</time></trkpt><trkpt lat="34.81844584276485" lon="-5.109049714329573"><ele>442.00000000000006</ele><time>2026-04-28T11:52:33.001Z</time></trkpt><trkpt lat="34.81838534665881" lon="-5.109077927480518"><ele>442.0</ele><time>2026-04-28T11:52:34.001Z</time></trkpt><trkpt lat="34.81831712230543" lon="-5.1090483369623545"><ele>440.83333333333337</ele><time>2026-04-28T11:52:35.001Z</time></trkpt><trkpt lat="34.81824037453686" lon="-5.109075109949063"><ele>439.6666666666667</ele><time>2026-04-28T11:52:37Z</time></trkpt><trkpt lat="34.81817682880593" lon="-5.109097098620168"><ele>438.5</ele><time>2026-04-28T11:52:40Z</time></trkpt><trkpt lat="34.81811448241202" lon="-5.109138447506703"><ele>437.33333333333337</ele><time>2026-04-28T11:52:42Z</time></trkpt><trkpt lat="34.81807976177685" lon="-5.109333220252223"><ele>436.1666666666667</ele><time>2026-04-28T11:52:45Z</time></trkpt><trkpt lat="34.8180662191766" lon="-5.109409456285544"><ele>435.0</ele><time>2026-04-28T11:52:46Z</time></trkpt><trkpt lat="34.81804975704091" lon="-5.109503035471219"><ele>435.0</ele><time>2026-04-28T11:52:47Z</time></trkpt><trkpt lat="34.81802930353186" lon="-5.109591416190872"><ele>435.0</ele><time>2026-04-28T11:52:48Z</time></trkpt><trkpt lat="34.81800591187335" lon="-5.109693134051658"><ele>435.0</ele><time>2026-04-28T11:52:49Z</time></trkpt><trkpt lat="34.81796071991487" lon="-5.109803351205214"><ele>435.0</ele><time>2026-04-28T11:52:50Z</time></trkpt><trkpt lat="34.81791319109259" lon="-5.109901565446999"><ele>435.0</ele><time>2026-04-28T11:52:51Z</time></trkpt><trkpt lat="34.81786748641237" lon="-5.109983014353223"><ele>435.0</ele><time>2026-04-28T11:52:52Z</time></trkpt><trkpt lat="34.817796332585615" lon="-5.110067268099539"><ele>436.0</ele><time>2026-04-28T11:52:53Z</time></trkpt><trkpt lat="34.81770955430269" lon="-5.11014328489619"><ele>437.0</ele><time>2026-04-28T11:52:54Z</time></trkpt><trkpt lat="34.81761661698804" lon="-5.110208106310007"><ele>438.0</ele><time>2026-04-28T11:52:55Z</time></trkpt><trkpt lat="34.817523261574465" lon="-5.110267541658136"><ele>439.0</ele><time>2026-04-28T11:52:56Z</time></trkpt><trkpt lat="34.81741775224026" lon="-5.110318852166446"><ele>440.0</ele><time>2026-04-28T11:52:57Z</time></trkpt><trkpt lat="34.81730964032899" lon="-5.1103634958362205"><ele>440.0</ele><time>2026-04-28T11:52:58Z</time></trkpt><trkpt lat="34.81721581173664" lon="-5.1104380318900455"><ele>440.0</ele><time>2026-04-28T11:52:59Z</time></trkpt><trkpt lat="34.81710410607961" lon="-5.110485643729791"><ele>440.0</ele><time>2026-04-28T11:53:00Z</time></trkpt><trkpt lat="34.8170287567912" lon="-5.11056109665621"><ele>440.0</ele><time>2026-04-28T11:53:01Z</time></trkpt><trkpt lat="34.816944932677416" lon="-5.110630338795621"><ele>440.0</ele><time>2026-04-28T11:53:02Z</time></trkpt><trkpt lat="34.81690170839471" lon="-5.110734248183242"><ele>439.8</ele><time>2026-04-28T11:53:03Z</time></trkpt><trkpt lat="34.816876877996016" lon="-5.11084474899301"><ele>439.6</ele><time>2026-04-28T11:53:04Z</time></trkpt><trkpt lat="34.81689029308728" lon="-5.1109639006138705"><ele>439.4</ele><time>2026-04-28T11:53:05Z</time></trkpt><trkpt lat="34.81687839573722" lon="-5.111097538850017"><ele>439.2</ele><time>2026-04-28T11:53:06Z</time></trkpt><trkpt lat="34.816864558668534" lon="-5.11121326598656"><ele>439.0</ele><time>2026-04-28T11:53:07Z</time></trkpt><trkpt lat="34.81677911180775" lon="-5.111311197833508"><ele>439.0</ele><time>2026-04-28T11:53:08Z</time></trkpt><trkpt lat="34.81668474582167" lon="-5.111385034176636"><ele>439.0</ele><time>2026-04-28T11:53:09Z</time></trkpt><trkpt lat="34.81656245208925" lon="-5.111409148115745"><ele>439.0</ele><time>2026-04-28T11:53:10Z</time></trkpt><trkpt lat="34.816469434450504" lon="-5.111481094470077"><ele>439.0</ele><time>2026-04-28T11:53:11Z</time></trkpt><trkpt lat="34.81638412583976" lon="-5.111553821975654"><ele>435.0</ele><time>2026-04-28T11:53:12Z</time></trkpt><trkpt lat="34.8163170735222" lon="-5.111662312538277"><ele>431.0</ele><time>2026-04-28T11:53:13Z</time></trkpt><trkpt lat="34.816297420644766" lon="-5.111824317714627"><ele>427.0</ele><time>2026-04-28T11:53:14Z</time></trkpt><trkpt lat="34.816238111768" lon="-5.111971104716412"><ele>423.0</ele><time>2026-04-28T11:53:15Z</time></trkpt><trkpt lat="34.8161760643635" lon="-5.112122255953058"><ele>423.0</ele><time>2026-04-28T11:53:16Z</time></trkpt><trkpt lat="34.81611140866835" lon="-5.112258015834141"><ele>423.0</ele><time>2026-04-28T11:53:17Z</time></trkpt><trkpt lat="34.81604701793319" lon="-5.112380991019356"><ele>423.0</ele><time>2026-04-28T11:53:18Z</time></trkpt><trkpt lat="34.81600512858621" lon="-5.112497220752892"><ele>423.0</ele><time>2026-04-28T11:53:19Z</time></trkpt><trkpt lat="34.81596731086625" lon="-5.1126269426012385"><ele>422.4</ele><time>2026-04-28T11:53:20Z</time></trkpt><trkpt lat="34.815926718543466" lon="-5.11274112626437"><ele>421.79999999999995</ele><time>2026-04-28T11:53:21Z</time></trkpt><trkpt lat="34.815889242116455" lon="-5.112846548278893"><ele>421.2</ele><time>2026-04-28T11:53:22Z</time></trkpt><trkpt lat="34.8159188067399" lon="-5.112950726486911"><ele>420.6</ele><time>2026-04-28T11:53:23Z</time></trkpt><trkpt lat="34.81594589905176" lon="-5.113048942312401"><ele>420.0</ele><time>2026-04-28T11:53:24Z</time></trkpt><trkpt lat="34.81597928235596" lon="-5.11316932976838"><ele>416.5</ele><time>2026-04-28T11:53:25Z</time></trkpt><trkpt lat="34.8160541208726" lon="-5.113271943110126"><ele>413.0</ele><time>2026-04-28T11:53:26Z</time></trkpt><trkpt lat="34.816114475734494" lon="-5.113403135968848"><ele>409.5</ele><time>2026-04-28T11:53:27Z</time></trkpt><trkpt lat="34.816177841354396" lon="-5.113535029890482"><ele>406.0</ele><time>2026-04-28T11:53:28Z</time></trkpt><trkpt lat="34.81620548683646" lon="-5.113680216010118"><ele>406.0</ele><time>2026-04-28T11:53:29Z</time></trkpt><trkpt lat="34.81621438465327" lon="-5.113813858786627"><ele>406.0</ele><time>2026-04-28T11:53:30Z</time></trkpt><trkpt lat="34.81622536525958" lon="-5.113934399906479"><ele>406.0</ele><time>2026-04-28T11:53:31Z</time></trkpt><trkpt lat="34.816159216787305" lon="-5.114060791530269"><ele>406.0</ele><time>2026-04-28T11:53:32Z</time></trkpt><trkpt lat="34.816091944145256" lon="-5.114178668394374"><ele>407.8</ele><time>2026-04-28T11:53:33Z</time></trkpt><trkpt lat="34.8160259931839" lon="-5.11430059251144"><ele>409.6</ele><time>2026-04-28T11:53:34Z</time></trkpt><trkpt lat="34.81599257803186" lon="-5.114435186210521"><ele>411.4</ele><time>2026-04-28T11:53:35Z</time></trkpt><trkpt lat="34.81599828815957" lon="-5.114556277494448"><ele>413.2</ele><time>2026-04-28T11:53:36Z</time></trkpt><trkpt lat="34.81601184465251" lon="-5.114683852779074"><ele>415.0</ele><time>2026-04-28T11:53:37Z</time></trkpt><trkpt lat="34.81602763104235" lon="-5.1148233793005975"><ele>414.6</ele><time>2026-04-28T11:53:38Z</time></trkpt><trkpt lat="34.81604123661301" lon="-5.114958982066149"><ele>414.2</ele><time>2026-04-28T11:53:39Z</time></trkpt><trkpt lat="34.81604767497949" lon="-5.115096991658858"><ele>413.79999999999995</ele><time>2026-04-28T11:53:40Z</time></trkpt><trkpt lat="34.81604321676679" lon="-5.115229093770497"><ele>413.4</ele><time>2026-04-28T11:53:41Z</time></trkpt><trkpt lat="34.81603070039348" lon="-5.115356250450393"><ele>413.0</ele><time>2026-04-28T11:53:42Z</time></trkpt><trkpt lat="34.81600229309697" lon="-5.115498296648669"><ele>415.25</ele><time>2026-04-28T11:53:43Z</time></trkpt><trkpt lat="34.81593672344258" lon="-5.115636112311326"><ele>417.5</ele><time>2026-04-28T11:53:44Z</time></trkpt><trkpt lat="34.815875245458955" lon="-5.1157715443391165"><ele>419.75</ele><time>2026-04-28T11:53:45Z</time></trkpt><trkpt lat="34.8158152593382" lon="-5.115903685180362"><ele>422.0</ele><time>2026-04-28T11:53:46Z</time></trkpt><trkpt lat="34.815807778412875" lon="-5.116035870041297"><ele>422.0</ele><time>2026-04-28T11:53:47Z</time></trkpt><trkpt lat="34.81580379929732" lon="-5.116171591176348"><ele>422.0</ele><time>2026-04-28T11:53:48Z</time></trkpt><trkpt lat="34.81583419574474" lon="-5.116286795456004"><ele>422.0</ele><time>2026-04-28T11:53:49Z</time></trkpt><trkpt lat="34.81587631688957" lon="-5.116415526727981"><ele>422.0</ele><time>2026-04-28T11:53:50Z</time></trkpt><trkpt lat="34.81592677192427" lon="-5.1165492197861955"><ele>422.0</ele><time>2026-04-28T11:53:51Z</time></trkpt><trkpt lat="34.81598469802571" lon="-5.116683093910186"><ele>417.75</ele><time>2026-04-28T11:53:52Z</time></trkpt><trkpt lat="34.816051305306466" lon="-5.116831258952642"><ele>413.5</ele><time>2026-04-28T11:53:53Z</time></trkpt><trkpt lat="34.81609513563682" lon="-5.117003851160457"><ele>409.25</ele><time>2026-04-28T11:53:54Z</time></trkpt><trkpt lat="34.81613132856103" lon="-5.117184891060563"><ele>405.0</ele><time>2026-04-28T11:53:55Z</time></trkpt><trkpt lat="34.816153547844586" lon="-5.117354359193348"><ele>407.75</ele><time>2026-04-28T11:53:56Z</time></trkpt><trkpt lat="34.81618083888025" lon="-5.117513087597565"><ele>410.5</ele><time>2026-04-28T11:53:57Z</time></trkpt><trkpt lat="34.81620417085854" lon="-5.1176770998865715"><ele>413.25</ele><time>2026-04-28T11:53:58Z</time></trkpt><trkpt lat="34.81622302314232" lon="-5.117848277276994"><ele>416.0</ele><time>2026-04-28T11:53:59Z</time></trkpt><trkpt lat="34.816231548446225" lon="-5.118019145650712"><ele>416.0</ele><time>2026-04-28T11:54:00Z</time></trkpt><trkpt lat="34.816240251382" lon="-5.118183861850789"><ele>416.0</ele><time>2026-04-28T11:54:01Z</time></trkpt><trkpt lat="34.816255920357946" lon="-5.118343162468907"><ele>416.0</ele><time>2026-04-28T11:54:02Z</time></trkpt><trkpt lat="34.81627709281036" lon="-5.1185007910071265"><ele>416.0</ele><time>2026-04-28T11:54:03Z</time></trkpt><trkpt lat="34.81633289788969" lon="-5.11862965657642"><ele>418.0</ele><time>2026-04-28T11:54:04Z</time></trkpt><trkpt lat="34.81641657344396" lon="-5.118716740158835"><ele>420.0</ele><time>2026-04-28T11:54:05Z</time></trkpt><trkpt lat="34.81649020000177" lon="-5.118826636199232"><ele>422.0</ele><time>2026-04-28T11:54:06Z</time></trkpt><trkpt lat="34.81656759112786" lon="-5.11894377689166"><ele>424.0</ele><time>2026-04-28T11:54:07Z</time></trkpt><trkpt lat="34.816610241042376" lon="-5.119098283783288"><ele>424.0</ele><time>2026-04-28T11:54:08Z</time></trkpt><trkpt lat="34.81665093855902" lon="-5.1192556377178855"><ele>424.0</ele><time>2026-04-28T11:54:09Z</time></trkpt><trkpt lat="34.81666248633058" lon="-5.119428482294166"><ele>424.0</ele><time>2026-04-28T11:54:10.001Z</time></trkpt><trkpt lat="34.816649476112204" lon="-5.1195944178475"><ele>424.0</ele><time>2026-04-28T11:54:11.001Z</time></trkpt><trkpt lat="34.81663276088062" lon="-5.119749445835379"><ele>424.0</ele><time>2026-04-28T11:54:12.001Z</time></trkpt><trkpt lat="34.816618160590856" lon="-5.119898128236607"><ele>424.0</ele><time>2026-04-28T11:54:13.001Z</time></trkpt><trkpt lat="34.816663156434636" lon="-5.12002340495162"><ele>424.0</ele><time>2026-04-28T11:54:14.001Z</time></trkpt><trkpt lat="34.81669376336662" lon="-5.120166962978285"><ele>424.0</ele><time>2026-04-28T11:54:15.001Z</time></trkpt><trkpt lat="34.81671319999806" lon="-5.120311904464261"><ele>423.75</ele><time>2026-04-28T11:54:16.001Z</time></trkpt><trkpt lat="34.81680674431102" lon="-5.120417423353639"><ele>423.5</ele><time>2026-04-28T11:54:17.001Z</time></trkpt><trkpt lat="34.8168901362473" lon="-5.120518532725501"><ele>423.25</ele><time>2026-04-28T11:54:18.001Z</time></trkpt><trkpt lat="34.81698139069776" lon="-5.120611479379971"><ele>423.0</ele><time>2026-04-28T11:54:19.001Z</time></trkpt><trkpt lat="34.817090678607926" lon="-5.120706642119101"><ele>421.5</ele><time>2026-04-28T11:54:20.001Z</time></trkpt><trkpt lat="34.81719031001952" lon="-5.120804943582895"><ele>420.0</ele><time>2026-04-28T11:54:21.001Z</time></trkpt><trkpt lat="34.81726941559877" lon="-5.120940328123231"><ele>418.5</ele><time>2026-04-28T11:54:22.001Z</time></trkpt><trkpt lat="34.817319982258" lon="-5.121090602282551"><ele>417.0</ele><time>2026-04-28T11:54:23.001Z</time></trkpt><trkpt lat="34.8173547928044" lon="-5.121230255628917"><ele>417.0</ele><time>2026-04-28T11:54:24.001Z</time></trkpt><trkpt lat="34.81730908190354" lon="-5.121411447219584"><ele>417.0</ele><time>2026-04-28T11:54:25.001Z</time></trkpt><trkpt lat="34.817254801052464" lon="-5.121557435148968"><ele>417.0</ele><time>2026-04-28T11:54:26.001Z</time></trkpt><trkpt lat="34.81723061285548" lon="-5.1216962397771075"><ele>417.0</ele><time>2026-04-28T11:54:27.001Z</time></trkpt><trkpt lat="34.81720498010752" lon="-5.1218305923193075"><ele>417.0</ele><time>2026-04-28T11:54:28.001Z</time></trkpt><trkpt lat="34.817221073864744" lon="-5.121952625495652"><ele>417.0</ele><time>2026-04-28T11:54:29.001Z</time></trkpt><trkpt lat="34.8172548764731" lon="-5.122072672199745"><ele>417.0</ele><time>2026-04-28T11:54:30.001Z</time></trkpt><trkpt lat="34.81728973813375" lon="-5.122216156183754"><ele>417.0</ele><time>2026-04-28T11:54:31.001Z</time></trkpt><trkpt lat="34.817296263081545" lon="-5.1222970259692095"><ele>417.0</ele><time>2026-04-28T11:54:32.001Z</time></trkpt><trkpt lat="34.81730403029547" lon="-5.122404448267048"><ele>415.6</ele><time>2026-04-28T11:54:36.001Z</time></trkpt><trkpt lat="34.817307731513765" lon="-5.122488047909324"><ele>414.20000000000005</ele><time>2026-04-28T11:54:37.001Z</time></trkpt><trkpt lat="34.81731371866139" lon="-5.122595381091675"><ele>412.8</ele><time>2026-04-28T11:54:38.001Z</time></trkpt><trkpt lat="34.817315477871404" lon="-5.122715854496161"><ele>411.4</ele><time>2026-04-28T11:54:39.001Z</time></trkpt><trkpt lat="34.817314182192405" lon="-5.122856435826864"><ele>410.0</ele><time>2026-04-28T11:54:40.001Z</time></trkpt><trkpt lat="34.81731567160291" lon="-5.123001394896011"><ele>410.0</ele><time>2026-04-28T11:54:41.001Z</time></trkpt><trkpt lat="34.817330796498965" lon="-5.1231240999303385"><ele>410.0</ele><time>2026-04-28T11:54:42.001Z</time></trkpt><trkpt lat="34.81736584645581" lon="-5.123227106674385"><ele>410.0</ele><time>2026-04-28T11:54:43.001Z</time></trkpt><trkpt lat="34.817429763068986" lon="-5.123333860660885"><ele>410.0</ele><time>2026-04-28T11:54:44.001Z</time></trkpt><trkpt lat="34.81749882253111" lon="-5.123473121524803"><ele>410.0</ele><time>2026-04-28T11:54:45.001Z</time></trkpt><trkpt lat="34.81754611023412" lon="-5.12360658614781"><ele>408.75</ele><time>2026-04-28T11:54:46.001Z</time></trkpt><trkpt lat="34.81754940274156" lon="-5.123778023119574"><ele>407.5</ele><time>2026-04-28T11:54:47.001Z</time></trkpt><trkpt lat="34.81752107503708" lon="-5.123939525102478"><ele>406.25</ele><time>2026-04-28T11:54:48.001Z</time></trkpt><trkpt lat="34.8174378099185" lon="-5.124107419430473"><ele>405.0</ele><time>2026-04-28T11:54:49.001Z</time></trkpt><trkpt lat="34.81737996513363" lon="-5.124249195246866"><ele>405.0</ele><time>2026-04-28T11:54:50.001Z</time></trkpt><trkpt lat="34.81732424632189" lon="-5.12439473254808"><ele>405.0</ele><time>2026-04-28T11:54:51.001Z</time></trkpt><trkpt lat="34.81726033311467" lon="-5.124559646788532"><ele>405.0</ele><time>2026-04-28T11:54:52.001Z</time></trkpt><trkpt lat="34.81719331016183" lon="-5.124732067034466"><ele>405.0</ele><time>2026-04-28T11:54:53.001Z</time></trkpt><trkpt lat="34.817132028064925" lon="-5.1248954129267235"><ele>408.25</ele><time>2026-04-28T11:54:54.001Z</time></trkpt><trkpt lat="34.817078578743946" lon="-5.125040437147274"><ele>411.5</ele><time>2026-04-28T11:54:55.001Z</time></trkpt><trkpt lat="34.8170302367378" lon="-5.125173893427072"><ele>414.75</ele><time>2026-04-28T11:54:56.001Z</time></trkpt><trkpt lat="34.8170111979386" lon="-5.125295121896032"><ele>418.0</ele><time>2026-04-28T11:54:57.001Z</time></trkpt><trkpt lat="34.817027675013705" lon="-5.125420685206105"><ele>418.0</ele><time>2026-04-28T11:54:58.001Z</time></trkpt><trkpt lat="34.817033249719" lon="-5.12557617921774"><ele>418.0</ele><time>2026-04-28T11:54:59.001Z</time></trkpt><trkpt lat="34.8170380592758" lon="-5.125751229921256"><ele>418.0</ele><time>2026-04-28T11:55:00.001Z</time></trkpt><trkpt lat="34.81703510285656" lon="-5.1259252174620595"><ele>418.0</ele><time>2026-04-28T11:55:01.001Z</time></trkpt><trkpt lat="34.81703227397294" lon="-5.12609169926229"><ele>417.75</ele><time>2026-04-28T11:55:02.001Z</time></trkpt><trkpt lat="34.816963224805754" lon="-5.126244481972218"><ele>417.5</ele><time>2026-04-28T11:55:03.001Z</time></trkpt><trkpt lat="34.81693317196399" lon="-5.126381738046161"><ele>417.25</ele><time>2026-04-28T11:55:04.001Z</time></trkpt><trkpt lat="34.81687912247043" lon="-5.126503136961527"><ele>417.0</ele><time>2026-04-28T11:55:05.001Z</time></trkpt><trkpt lat="34.81682253873054" lon="-5.126618083786056"><ele>417.0</ele><time>2026-04-28T11:55:06.001Z</time></trkpt><trkpt lat="34.816821557144856" lon="-5.126761006139305"><ele>417.0</ele><time>2026-04-28T11:55:07.001Z</time></trkpt><trkpt lat="34.81678881856106" lon="-5.126877631194206"><ele>417.0</ele><time>2026-04-28T11:55:08.001Z</time></trkpt><trkpt lat="34.816774401857565" lon="-5.12698218734535"><ele>417.0</ele><time>2026-04-28T11:55:09.001Z</time></trkpt><trkpt lat="34.81676007369141" lon="-5.127096195658579"><ele>417.0</ele><time>2026-04-28T11:55:10.001Z</time></trkpt><trkpt lat="34.8167720530649" lon="-5.127207733874391"><ele>416.0</ele><time>2026-04-28T11:55:11.001Z</time></trkpt><trkpt lat="34.81676985737115" lon="-5.127318450112741"><ele>415.0</ele><time>2026-04-28T11:55:12.001Z</time></trkpt><trkpt lat="34.81675477942976" lon="-5.127434802163503"><ele>414.0</ele><time>2026-04-28T11:55:13.001Z</time></trkpt><trkpt lat="34.81673502158361" lon="-5.12753173015131"><ele>413.0</ele><time>2026-04-28T11:55:14.001Z</time></trkpt><trkpt lat="34.816677243731675" lon="-5.127634617815565"><ele>412.0</ele><time>2026-04-28T11:55:15.001Z</time></trkpt><trkpt lat="34.81662842471736" lon="-5.127737256595578"><ele>411.75</ele><time>2026-04-28T11:55:16.001Z</time></trkpt><trkpt lat="34.81657569169147" lon="-5.127847319695212"><ele>411.5</ele><time>2026-04-28T11:55:17.001Z</time></trkpt><trkpt lat="34.816520725774176" lon="-5.127963117299355"><ele>411.25</ele><time>2026-04-28T11:55:18.001Z</time></trkpt><trkpt lat="34.81646419028622" lon="-5.128093592492777"><ele>411.0</ele><time>2026-04-28T11:55:19.001Z</time></trkpt><trkpt lat="34.81640877911304" lon="-5.128224725627221"><ele>409.0</ele><time>2026-04-28T11:55:20.001Z</time></trkpt><trkpt lat="34.81633971376795" lon="-5.128356187000766"><ele>407.0</ele><time>2026-04-28T11:55:21.001Z</time></trkpt><trkpt lat="34.81627768030288" lon="-5.128479150959464"><ele>405.0</ele><time>2026-04-28T11:55:22.001Z</time></trkpt><trkpt lat="34.816224218898235" lon="-5.128613880963569"><ele>403.0</ele><time>2026-04-28T11:55:23.001Z</time></trkpt><trkpt lat="34.816227337163845" lon="-5.1287531559069075"><ele>403.0</ele><time>2026-04-28T11:55:24.001Z</time></trkpt><trkpt lat="34.81621058016696" lon="-5.128895407727455"><ele>403.0</ele><time>2026-04-28T11:55:25.001Z</time></trkpt><trkpt lat="34.81619665722576" lon="-5.129030061540285"><ele>403.0</ele><time>2026-04-28T11:55:26.001Z</time></trkpt><trkpt lat="34.816180850378295" lon="-5.1291550890596165"><ele>403.0</ele><time>2026-04-28T11:55:27.001Z</time></trkpt><trkpt lat="34.81614833219955" lon="-5.129280482629535"><ele>403.0</ele><time>2026-04-28T11:55:28.001Z</time></trkpt><trkpt lat="34.81611530983704" lon="-5.129394803382141"><ele>402.0</ele><time>2026-04-28T11:55:29.001Z</time></trkpt><trkpt lat="34.815994795414205" lon="-5.129465420723752"><ele>401.0</ele><time>2026-04-28T11:55:30.001Z</time></trkpt><trkpt lat="34.81589075408549" lon="-5.129536231028463"><ele>400.0</ele><time>2026-04-28T11:55:31.001Z</time></trkpt><trkpt lat="34.81577720321645" lon="-5.1295911956478175"><ele>399.0</ele><time>2026-04-28T11:55:32.001Z</time></trkpt><trkpt lat="34.81566558629738" lon="-5.129641742974145"><ele>401.79999999999995</ele><time>2026-04-28T11:55:33.001Z</time></trkpt><trkpt lat="34.81556147669541" lon="-5.129691653403003"><ele>404.59999999999997</ele><time>2026-04-28T11:55:34.001Z</time></trkpt><trkpt lat="34.81547267484178" lon="-5.129739224045976"><ele>407.4</ele><time>2026-04-28T11:55:35.001Z</time></trkpt><trkpt lat="34.81541029087781" lon="-5.129816074974917"><ele>410.2</ele><time>2026-04-28T11:55:36.001Z</time></trkpt><trkpt lat="34.815364648365176" lon="-5.129904192028034"><ele>413.0</ele><time>2026-04-28T11:55:37.001Z</time></trkpt><trkpt lat="34.81530162581033" lon="-5.130012118391525"><ele>413.79999999999995</ele><time>2026-04-28T11:55:38.001Z</time></trkpt><trkpt lat="34.81523647063613" lon="-5.130117300031693"><ele>414.6</ele><time>2026-04-28T11:55:39.001Z</time></trkpt><trkpt lat="34.81517010476021" lon="-5.130215130927933"><ele>415.4</ele><time>2026-04-28T11:55:40.001Z</time></trkpt><trkpt lat="34.815091157213104" lon="-5.1303069106439665"><ele>416.20000000000005</ele><time>2026-04-28T11:55:41.001Z</time></trkpt><trkpt lat="34.815018379946565" lon="-5.13041101203105"><ele>417.0</ele><time>2026-04-28T11:55:42.001Z</time></trkpt><trkpt lat="34.81493235101961" lon="-5.130504297068266"><ele>418.5</ele><time>2026-04-28T11:55:43.001Z</time></trkpt><trkpt lat="34.81483327173995" lon="-5.13058260152274"><ele>420.0</ele><time>2026-04-28T11:55:44.001Z</time></trkpt><trkpt lat="34.81474545119205" lon="-5.130687517450081"><ele>421.5</ele><time>2026-04-28T11:55:45.001Z</time></trkpt><trkpt lat="34.81464305056363" lon="-5.130774875859809"><ele>423.0</ele><time>2026-04-28T11:55:46.001Z</time></trkpt><trkpt lat="34.814542288273664" lon="-5.130858240031915"><ele>421.25</ele><time>2026-04-28T11:55:47.001Z</time></trkpt><trkpt lat="34.81443966011466" lon="-5.130945001812888"><ele>419.5</ele><time>2026-04-28T11:55:48.001Z</time></trkpt><trkpt lat="34.814336642337004" lon="-5.131034015521136"><ele>417.75</ele><time>2026-04-28T11:55:49.001Z</time></trkpt><trkpt lat="34.814249339161954" lon="-5.131126201036737"><ele>416.0</ele><time>2026-04-28T11:55:50.001Z</time></trkpt><trkpt lat="34.81416463248665" lon="-5.13122150344578"><ele>416.0</ele><time>2026-04-28T11:55:51.001Z</time></trkpt><trkpt lat="34.81408151896852" lon="-5.1313150134697825"><ele>416.0</ele><time>2026-04-28T11:55:52.001Z</time></trkpt><trkpt lat="34.81402271137346" lon="-5.13142093240037"><ele>416.0</ele><time>2026-04-28T11:55:53.001Z</time></trkpt><trkpt lat="34.81395051454527" lon="-5.131529746593313"><ele>416.0</ele><time>2026-04-28T11:55:54.001Z</time></trkpt><trkpt lat="34.81662842471736" lon="-5.127737256595578"><ele>414.75</ele><time>2026-04-28T11:55:16.001Z</time></trkpt><trkpt lat="34.81657569169147" lon="-5.127847319695212"><ele>413.5</ele><time>2026-04-28T11:55:17.001Z</time></trkpt><trkpt lat="34.816520725774176" lon="-5.127963117299355"><ele>412.25</ele><time>2026-04-28T11:55:18.001Z</time></trkpt><trkpt lat="34.81646419028622" lon="-5.128093592492777"><ele>411.0</ele><time>2026-04-28T11:55:19.001Z</time></trkpt><trkpt lat="34.81640877911304" lon="-5.128224725627221"><ele>409.0</ele><time>2026-04-28T11:55:20.001Z</time></trkpt><trkpt lat="34.81633971376795" lon="-5.128356187000766"><ele>407.0</ele><time>2026-04-28T11:55:21.001Z</time></trkpt><trkpt lat="34.81627768030288" lon="-5.128479150959464"><ele>405.0</ele><time>2026-04-28T11:55:22.001Z</time></trkpt><trkpt lat="34.816224218898235" lon="-5.128613880963569"><ele>403.0</ele><time>2026-04-28T11:55:23.001Z</time></trkpt><trkpt lat="34.816227337163845" lon="-5.1287531559069075"><ele>403.0</ele><time>2026-04-28T11:55:24.001Z</time></trkpt><trkpt lat="34.81621058016696" lon="-5.128895407727455"><ele>403.0</ele><time>2026-04-28T11:55:25.001Z</time></trkpt><trkpt lat="34.81619665722576" lon="-5.129030061540285"><ele>403.0</ele><time>2026-04-28T11:55:26.001Z</time></trkpt><trkpt lat="34.816180850378295" lon="-5.1291550890596165"><ele>403.0</ele><time>2026-04-28T11:55:27.001Z</time></trkpt><trkpt lat="34.81614833219955" lon="-5.129280482629535"><ele>403.0</ele><time>2026-04-28T11:55:28.001Z</time></trkpt><trkpt lat="34.81611530983704" lon="-5.129394803382141"><ele>402.0</ele><time>2026-04-28T11:55:29.001Z</time></trkpt><trkpt lat="34.815994795414205" lon="-5.129465420723752"><ele>401.0</ele><time>2026-04-28T11:55:30.001Z</time></trkpt><trkpt lat="34.81589075408549" lon="-5.129536231028463"><ele>400.0</ele><time>2026-04-28T11:55:31.001Z</time></trkpt><trkpt lat="34.81577720321645" lon="-5.1295911956478175"><ele>399.0</ele><time>2026-04-28T11:55:32.001Z</time></trkpt><trkpt lat="34.81566558629738" lon="-5.129641742974145"><ele>401.79999999999995</ele><time>2026-04-28T11:55:33.001Z</time></trkpt><trkpt lat="34.81556147669541" lon="-5.129691653403003"><ele>404.59999999999997</ele><time>2026-04-28T11:55:34.001Z</time></trkpt><trkpt lat="34.81547267484178" lon="-5.129739224045976"><ele>407.4</ele><time>2026-04-28T11:55:35.001Z</time></trkpt><trkpt lat="34.81541029087781" lon="-5.129816074974917"><ele>410.2</ele><time>2026-04-28T11:55:36.001Z</time></trkpt><trkpt lat="34.815364648365176" lon="-5.129904192028034"><ele>413.0</ele><time>2026-04-28T11:55:37.001Z</time></trkpt><trkpt lat="34.81530162581033" lon="-5.130012118391525"><ele>413.79999999999995</ele><time>2026-04-28T11:55:38.001Z</time></trkpt><trkpt lat="34.81523647063613" lon="-5.130117300031693"><ele>414.6</ele><time>2026-04-28T11:55:39.001Z</time></trkpt><trkpt lat="34.81517010476021" lon="-5.130215130927933"><ele>415.4</ele><time>2026-04-28T11:55:40.001Z</time></trkpt><trkpt lat="34.815091157213104" lon="-5.1303069106439665"><ele>416.20000000000005</ele><time>2026-04-28T11:55:41.001Z</time></trkpt><trkpt lat="34.815018379946565" lon="-5.13041101203105"><ele>417.0</ele><time>2026-04-28T11:55:42.001Z</time></trkpt><trkpt lat="34.81493235101961" lon="-5.130504297068266"><ele>418.5</ele><time>2026-04-28T11:55:43.001Z</time></trkpt><trkpt lat="34.81483327173995" lon="-5.13058260152274"><ele>420.0</ele><time>2026-04-28T11:55:44.001Z</time></trkpt><trkpt lat="34.81474545119205" lon="-5.130687517450081"><ele>421.5</ele><time>2026-04-28T11:55:45.001Z</time></trkpt><trkpt lat="34.81464305056363" lon="-5.130774875859809"><ele>423.0</ele><time>2026-04-28T11:55:46.001Z</time></trkpt><trkpt lat="34.814542288273664" lon="-5.130858240031915"><ele>421.25</ele><time>2026-04-28T11:55:47.001Z</time></trkpt><trkpt lat="34.81443966011466" lon="-5.130945001812888"><ele>419.5</ele><time>2026-04-28T11:55:48.001Z</time></trkpt><trkpt lat="34.814336642337004" lon="-5.131034015521136"><ele>417.75</ele><time>2026-04-28T11:55:49.001Z</time></trkpt><trkpt lat="34.814249339161954" lon="-5.131126201036737"><ele>416.0</ele><time>2026-04-28T11:55:50.001Z</time></trkpt><trkpt lat="34.81416463248665" lon="-5.13122150344578"><ele>416.0</ele><time>2026-04-28T11:55:51.001Z</time></trkpt><trkpt lat="34.81408151896852" lon="-5.1313150134697825"><ele>416.0</ele><time>2026-04-28T11:55:52.001Z</time></trkpt><trkpt lat="34.81402271137346" lon="-5.13142093240037"><ele>416.0</ele><time>2026-04-28T11:55:53.001Z</time></trkpt><trkpt lat="34.81395051454527" lon="-5.131529746593313"><ele>416.0</ele><time>2026-04-28T11:55:54.001Z</time></trkpt><trkpt lat="34.813869439075056" lon="-5.1316316659766645"><ele>416.0</ele><time>2026-04-28T11:55:55.001Z</time></trkpt><trkpt lat="34.81379720485842" lon="-5.13172218626749"><ele>417.0</ele><time>2026-04-28T11:55:56.001Z</time></trkpt><trkpt lat="34.81372792195703" lon="-5.131808515531906"><ele>418.0</ele><time>2026-04-28T11:55:57.001Z</time></trkpt><trkpt lat="34.81366166407464" lon="-5.131907757891422"><ele>419.0</ele><time>2026-04-28T11:55:58.001Z</time></trkpt><trkpt lat="34.81359743734139" lon="-5.132012698106495"><ele>420.0</ele><time>2026-04-28T11:55:59.001Z</time></trkpt><trkpt lat="34.8135410216879" lon="-5.132103311684621"><ele>421.0</ele><time>2026-04-28T11:56:00.001Z</time></trkpt><trkpt lat="34.813513912077276" lon="-5.132194292680317"><ele>421.0</ele><time>2026-04-28T11:56:01.001Z</time></trkpt><trkpt lat="34.81347482531424" lon="-5.1322946590568295"><ele>421.0</ele><time>2026-04-28T11:56:02.001Z</time></trkpt><trkpt lat="34.81348088924746" lon="-5.132398795716785"><ele>421.0</ele><time>2026-04-28T11:56:03.001Z</time></trkpt><trkpt lat="34.81348603903484" lon="-5.132513408535733"><ele>421.0</ele><time>2026-04-28T11:56:04.001Z</time></trkpt><trkpt lat="34.81348933708116" lon="-5.132641705370152"><ele>421.0</ele><time>2026-04-28T11:56:05.001Z</time></trkpt><trkpt lat="34.813472603712725" lon="-5.132769231884803"><ele>423.0</ele><time>2026-04-28T11:56:06.001Z</time></trkpt><trkpt lat="34.81344789099598" lon="-5.132893776885521"><ele>425.0</ele><time>2026-04-28T11:56:07.001Z</time></trkpt><trkpt lat="34.813419826452844" lon="-5.133023674283731"><ele>427.0</ele><time>2026-04-28T11:56:08.001Z</time></trkpt><trkpt lat="34.813393049108356" lon="-5.1331661146584"><ele>429.0</ele><time>2026-04-28T11:56:09.001Z</time></trkpt><trkpt lat="34.8133672451521" lon="-5.133318237989318"><ele>429.0</ele><time>2026-04-28T11:56:10.001Z</time></trkpt><trkpt lat="34.81333957824234" lon="-5.1334786077675805"><ele>429.0</ele><time>2026-04-28T11:56:11.001Z</time></trkpt><trkpt lat="34.81331073583563" lon="-5.1336361034851015"><ele>429.0</ele><time>2026-04-28T11:56:12.001Z</time></trkpt><trkpt lat="34.81327962391718" lon="-5.133790495169008"><ele>429.0</ele><time>2026-04-28T11:56:13.001Z</time></trkpt><trkpt lat="34.81324986114458" lon="-5.133945151008324"><ele>428.5</ele><time>2026-04-28T11:56:14.001Z</time></trkpt><trkpt lat="34.813214121334454" lon="-5.134092344672956"><ele>428.0</ele><time>2026-04-28T11:56:15.001Z</time></trkpt><trkpt lat="34.81317135442117" lon="-5.134225692932566"><ele>427.5</ele><time>2026-04-28T11:56:16.001Z</time></trkpt><trkpt lat="34.81312272661637" lon="-5.134355222832473"><ele>427.0</ele><time>2026-04-28T11:56:17.001Z</time></trkpt><trkpt lat="34.81306388707107" lon="-5.134472356202538"><ele>427.0</ele><time>2026-04-28T11:56:18.001Z</time></trkpt><trkpt lat="34.81300396214672" lon="-5.134588636068629"><ele>427.0</ele><time>2026-04-28T11:56:19.001Z</time></trkpt><trkpt lat="34.812909332798775" lon="-5.134677031149506"><ele>427.0</ele><time>2026-04-28T11:56:20.001Z</time></trkpt><trkpt lat="34.812824139882906" lon="-5.134763868693047"><ele>427.0</ele><time>2026-04-28T11:56:21.001Z</time></trkpt><trkpt lat="34.812731485553" lon="-5.13483081751824"><ele>428.6</ele><time>2026-04-28T11:56:22.001Z</time></trkpt><trkpt lat="34.81263474399746" lon="-5.134877487737934"><ele>430.20000000000005</ele><time>2026-04-28T11:56:23.001Z</time></trkpt><trkpt lat="34.81254700149273" lon="-5.134943489241585"><ele>431.8</ele><time>2026-04-28T11:56:24.001Z</time></trkpt><trkpt lat="34.812458674871536" lon="-5.134997757439507"><ele>433.4</ele><time>2026-04-28T11:56:25.001Z</time></trkpt><trkpt lat="34.812387151908794" lon="-5.135062499289833"><ele>435.0</ele><time>2026-04-28T11:56:26.001Z</time></trkpt><trkpt lat="34.81231618519648" lon="-5.135121268305986"><ele>435.8333333333333</ele><time>2026-04-28T11:56:27.001Z</time></trkpt><trkpt lat="34.81234129280909" lon="-5.135230580099209"><ele>436.66666666666663</ele><time>2026-04-28T11:56:28.001Z</time></trkpt><trkpt lat="34.81236976714039" lon="-5.135375561641785"><ele>437.5</ele><time>2026-04-28T11:56:30.001Z</time></trkpt><trkpt lat="34.81241423743378" lon="-5.135438239943261"><ele>438.3333333333333</ele><time>2026-04-28T11:56:31.001Z</time></trkpt><trkpt lat="34.812467764906536" lon="-5.135486620017716"><ele>439.16666666666663</ele><time>2026-04-28T11:56:32.001Z</time></trkpt><trkpt lat="34.81252739695969" lon="-5.1355296096447995"><ele>440.0</ele><time>2026-04-28T11:56:33.001Z</time></trkpt><trkpt lat="34.81259195752666" lon="-5.13556504148476"><ele>439.99999999999994</ele><time>2026-04-28T11:56:34.001Z</time></trkpt><trkpt lat="34.81265580131077" lon="-5.13560007994479"><ele>440.0</ele><time>2026-04-28T11:56:35.001Z</time></trkpt><trkpt lat="34.81271754577877" lon="-5.1356339662667825"><ele>440.0</ele><time>2026-04-28T11:56:36.001Z</time></trkpt><trkpt lat="34.81277900372928" lon="-5.135667695343389"><ele>440.0</ele><time>2026-04-28T11:56:37.001Z</time></trkpt><trkpt lat="34.81283782223854" lon="-5.1357431483366165"><ele>439.99999999999994</ele><time>2026-04-28T11:56:38.001Z</time></trkpt><trkpt lat="34.81288015597374" lon="-5.1358034914707575"><ele>440.0</ele><time>2026-04-28T11:56:39.001Z</time></trkpt><trkpt lat="34.81290003345608" lon="-5.135919801051651"><ele>439.16666666666663</ele><time>2026-04-28T11:56:40.001Z</time></trkpt><trkpt lat="34.81289643694575" lon="-5.136021457472946"><ele>438.3333333333333</ele><time>2026-04-28T11:56:41.001Z</time></trkpt><trkpt lat="34.81288898065121" lon="-5.136103124104165"><ele>437.5</ele><time>2026-04-28T11:56:42.001Z</time></trkpt><trkpt lat="34.81287918747172" lon="-5.13618219024558"><ele>436.66666666666663</ele><time>2026-04-28T11:56:43.001Z</time></trkpt><trkpt lat="34.812869335633245" lon="-5.136261730004403"><ele>435.8333333333333</ele><time>2026-04-28T11:56:44.001Z</time></trkpt><trkpt lat="34.81288160136014" lon="-5.136406141259541"><ele>435.0</ele><time>2026-04-28T11:56:46.001Z</time></trkpt><trkpt lat="34.81288843953857" lon="-5.13650065427554"><ele>437.3333333333333</ele><time>2026-04-28T11:56:47.001Z</time></trkpt><trkpt lat="34.81290005004782" lon="-5.136597480944979"><ele>439.66666666666663</ele><time>2026-04-28T11:56:48.001Z</time></trkpt><trkpt lat="34.8129139018538" lon="-5.136714025079619"><ele>442.0</ele><time>2026-04-28T11:56:49.001Z</time></trkpt><trkpt lat="34.81294215314501" lon="-5.136807930193402"><ele>444.3333333333333</ele><time>2026-04-28T11:56:50.001Z</time></trkpt><trkpt lat="34.812968287098435" lon="-5.136880515553721"><ele>446.66666666666663</ele><time>2026-04-28T11:56:51.001Z</time></trkpt><trkpt lat="34.81300753967298" lon="-5.13696586821607"><ele>449.0</ele><time>2026-04-28T11:56:52.001Z</time></trkpt><trkpt lat="34.813058496257746" lon="-5.137074167334227"><ele>449.0</ele><time>2026-04-28T11:56:53.001Z</time></trkpt><trkpt lat="34.81313115559416" lon="-5.137200483424681"><ele>449.0</ele><time>2026-04-28T11:56:54.001Z</time></trkpt><trkpt lat="34.81320379319943" lon="-5.1373092000849"><ele>449.0</ele><time>2026-04-28T11:56:55.001Z</time></trkpt><trkpt lat="34.813271956034384" lon="-5.137392514893033"><ele>449.0</ele><time>2026-04-28T11:56:56.001Z</time></trkpt><trkpt lat="34.813351914850216" lon="-5.137457402122459"><ele>449.0</ele><time>2026-04-28T11:56:57.001Z</time></trkpt><trkpt lat="34.81343410996055" lon="-5.137524104112519"><ele>449.2</ele><time>2026-04-28T11:56:58.001Z</time></trkpt><trkpt lat="34.81352086156854" lon="-5.137611156900834"><ele>449.4</ele><time>2026-04-28T11:56:59.001Z</time></trkpt><trkpt lat="34.8135956277339" lon="-5.137704599978949"><ele>449.6</ele><time>2026-04-28T11:57:00.001Z</time></trkpt><trkpt lat="34.81366900722291" lon="-5.1378028390574"><ele>449.8</ele><time>2026-04-28T11:57:01.001Z</time></trkpt><trkpt lat="34.813733336189706" lon="-5.137891389701927"><ele>450.0</ele><time>2026-04-28T11:57:02.001Z</time></trkpt><trkpt lat="34.813789013094045" lon="-5.137968022328711"><ele>450.0</ele><time>2026-04-28T11:57:03.001Z</time></trkpt><trkpt lat="34.81388313306999" lon="-5.138054456663714"><ele>450.0</ele><time>2026-04-28T11:57:05.001Z</time></trkpt><trkpt lat="34.813801266630634" lon="-5.137998395467837"><ele>450.0</ele><time>2026-04-28T11:57:13.001Z</time></trkpt><trkpt lat="34.81373718681214" lon="-5.137910789373035"><ele>450.0</ele><time>2026-04-28T11:57:14.001Z</time></trkpt><trkpt lat="34.81361672985221" lon="-5.137853461990861"><ele>450.0</ele><time>2026-04-28T11:57:15.001Z</time></trkpt><trkpt lat="34.813557418875" lon="-5.1377556963372735"><ele>452.4</ele><time>2026-04-28T11:57:16.001Z</time></trkpt><trkpt lat="34.81348858918155" lon="-5.137668393649989"><ele>454.8</ele><time>2026-04-28T11:57:17.001Z</time></trkpt><trkpt lat="34.813412601293585" lon="-5.1375926178310705"><ele>457.20000000000005</ele><time>2026-04-28T11:57:18.001Z</time></trkpt><trkpt lat="34.81333149153684" lon="-5.137530177933741"><ele>459.6</ele><time>2026-04-28T11:57:19Z</time></trkpt><trkpt lat="34.81325186324013" lon="-5.137466366222509"><ele>462.0</ele><time>2026-04-28T11:57:20Z</time></trkpt><trkpt lat="34.81317754153056" lon="-5.137396381796444"><ele>459.40000000000003</ele><time>2026-04-28T11:57:21Z</time></trkpt><trkpt lat="34.813107902184086" lon="-5.13731179446974"><ele>456.80000000000007</ele><time>2026-04-28T11:57:22Z</time></trkpt><trkpt lat="34.8130485408979" lon="-5.137211280222086"><ele>454.2</ele><time>2026-04-28T11:57:23Z</time></trkpt><trkpt lat="34.81299546796395" lon="-5.137110415493468"><ele>451.6</ele><time>2026-04-28T11:57:24Z</time></trkpt><trkpt lat="34.812941696460584" lon="-5.1370123500107745"><ele>449.0</ele><time>2026-04-28T11:57:25Z</time></trkpt><trkpt lat="34.812891367488405" lon="-5.136910270116443"><ele>449.0</ele><time>2026-04-28T11:57:26Z</time></trkpt><trkpt lat="34.812850675101714" lon="-5.136794116141112"><ele>449.0</ele><time>2026-04-28T11:57:27Z</time></trkpt><trkpt lat="34.81283006138404" lon="-5.136666513915163"><ele>449.0</ele><time>2026-04-28T11:57:28Z</time></trkpt><trkpt lat="34.81281981602398" lon="-5.136533147932576"><ele>449.0</ele><time>2026-04-28T11:57:29Z</time></trkpt><trkpt lat="34.812814098160835" lon="-5.136402078504553"><ele>449.0</ele><time>2026-04-28T11:57:30Z</time></trkpt><trkpt lat="34.81281710999158" lon="-5.136274756515551"><ele>446.66666666666663</ele><time>2026-04-28T11:57:31Z</time></trkpt><trkpt lat="34.812823591934595" lon="-5.136156825311559"><ele>444.3333333333333</ele><time>2026-04-28T11:57:32Z</time></trkpt><trkpt lat="34.81282986045044" lon="-5.136049524892616"><ele>442.0</ele><time>2026-04-28T11:57:33Z</time></trkpt><trkpt lat="34.81283497253352" lon="-5.135949897669938"><ele>439.66666666666663</ele><time>2026-04-28T11:57:34Z</time></trkpt><trkpt lat="34.81281110161712" lon="-5.135861732659361"><ele>437.3333333333333</ele><time>2026-04-28T11:57:35Z</time></trkpt><trkpt lat="34.81276006689888" lon="-5.135781927345876"><ele>435.0</ele><time>2026-04-28T11:57:36Z</time></trkpt><trkpt lat="34.81268667034532" lon="-5.135707130614343"><ele>435.8333333333333</ele><time>2026-04-28T11:57:37Z</time></trkpt><trkpt lat="34.81260755919852" lon="-5.135645698116456"><ele>436.66666666666663</ele><time>2026-04-28T11:57:38Z</time></trkpt><trkpt lat="34.81253177798937" lon="-5.135600685090221"><ele>437.5</ele><time>2026-04-28T11:57:39Z</time></trkpt><trkpt lat="34.81246534863485" lon="-5.135557741982357"><ele>438.3333333333333</ele><time>2026-04-28T11:57:40Z</time></trkpt><trkpt lat="34.81240254205838" lon="-5.135520282266612"><ele>439.16666666666663</ele><time>2026-04-28T11:57:41Z</time></trkpt><trkpt lat="34.812360934834835" lon="-5.135455769600273"><ele>440.0</ele><time>2026-04-28T11:57:42Z</time></trkpt><trkpt lat="34.81233545621214" lon="-5.135374897572173"><ele>440.0</ele><time>2026-04-28T11:57:43Z</time></trkpt><trkpt lat="34.81231877180419" lon="-5.13528713969239"><ele>440.0</ele><time>2026-04-28T11:57:44Z</time></trkpt><trkpt lat="34.81231907812072" lon="-5.135200285318909"><ele>440.0</ele><time>2026-04-28T11:57:45Z</time></trkpt><trkpt lat="34.81235777565295" lon="-5.135056636289416"><ele>440.0</ele><time>2026-04-28T11:57:47Z</time></trkpt><trkpt lat="34.81224769020315" lon="-5.135040218592283"><ele>440.0</ele><time>2026-04-28T11:57:52Z</time></trkpt><trkpt lat="34.81211844986504" lon="-5.135044699352056"><ele>439.99999999999994</ele><time>2026-04-28T11:57:54Z</time></trkpt><trkpt lat="34.812054205287765" lon="-5.135046918587701"><ele>440.0</ele><time>2026-04-28T11:57:55Z</time></trkpt><trkpt lat="34.81199180871534" lon="-5.135036141004453"><ele>440.0</ele><time>2026-04-28T11:57:56Z</time></trkpt><trkpt lat="34.81189969831886" lon="-5.135019414208205"><ele>440.0</ele><time>2026-04-28T11:57:58Z</time></trkpt><trkpt lat="34.81184269246814" lon="-5.134975254868788"><ele>440.0</ele><time>2026-04-28T11:57:59Z</time></trkpt><trkpt lat="34.81178125680592" lon="-5.134944628454456"><ele>439.99999999999994</ele><time>2026-04-28T11:58:00Z</time></trkpt><trkpt lat="34.81172342915912" lon="-5.134893955201602"><ele>440.0</ele><time>2026-04-28T11:58:01Z</time></trkpt><trkpt lat="34.81166107806841" lon="-5.134857963420506"><ele>438.71428571428567</ele><time>2026-04-28T11:58:02Z</time></trkpt><trkpt lat="34.811597701848285" lon="-5.134831839112022"><ele>437.42857142857144</ele><time>2026-04-28T11:58:03Z</time></trkpt><trkpt lat="34.81152914413135" lon="-5.134805901529461"><ele>436.1428571428571</ele><time>2026-04-28T11:58:04Z</time></trkpt><trkpt lat="34.8114582021049" lon="-5.134788946699183"><ele>434.85714285714283</ele><time>2026-04-28T11:58:05Z</time></trkpt><trkpt lat="34.81138723012759" lon="-5.134747423003089"><ele>433.57142857142856</ele><time>2026-04-28T11:58:06Z</time></trkpt><trkpt lat="34.81130462008578" lon="-5.134750640557826"><ele>432.2857142857143</ele><time>2026-04-28T11:58:07Z</time></trkpt><trkpt lat="34.81123204019975" lon="-5.1347366463968305"><ele>431.0</ele><time>2026-04-28T11:58:08Z</time></trkpt><trkpt lat="34.81116393913944" lon="-5.134703281218735"><ele>430.99999999999994</ele><time>2026-04-28T11:58:09Z</time></trkpt><trkpt lat="34.81103807367116" lon="-5.134692173136162"><ele>431.0</ele><time>2026-04-28T11:58:11Z</time></trkpt><trkpt lat="34.81096683483536" lon="-5.134674967116573"><ele>431.0</ele><time>2026-04-28T11:58:12Z</time></trkpt><trkpt lat="34.81090077046061" lon="-5.134635840295547"><ele>431.0</ele><time>2026-04-28T11:58:13Z</time></trkpt><trkpt lat="34.81083411531367" lon="-5.13460222359191"><ele>430.99999999999994</ele><time>2026-04-28T11:58:14Z</time></trkpt><trkpt lat="34.81076381323949" lon="-5.134566767588586"><ele>431.0</ele><time>2026-04-28T11:58:15Z</time></trkpt><trkpt lat="34.810695693067736" lon="-5.134504578112754"><ele>430.8333333333333</ele><time>2026-04-28T11:58:16Z</time></trkpt><trkpt lat="34.81062047573671" lon="-5.134465553589146"><ele>430.66666666666663</ele><time>2026-04-28T11:58:17Z</time></trkpt><trkpt lat="34.81056826986986" lon="-5.134387061598443"><ele>430.5</ele><time>2026-04-28T11:58:18Z</time></trkpt><trkpt lat="34.81049109512349" lon="-5.134333437399958"><ele>430.33333333333337</ele><time>2026-04-28T11:58:19Z</time></trkpt><trkpt lat="34.81044836877392" lon="-5.134248135577618"><ele>430.1666666666667</ele><time>2026-04-28T11:58:20Z</time></trkpt><trkpt lat="34.81039893225213" lon="-5.134180598422524"><ele>430.0</ele><time>2026-04-28T11:58:21Z</time></trkpt><trkpt lat="34.8103515739356" lon="-5.134116712346555"><ele>427.83333333333337</ele><time>2026-04-28T11:58:22.001Z</time></trkpt><trkpt lat="34.810318124968894" lon="-5.1340351696144655"><ele>425.6666666666667</ele><time>2026-04-28T11:58:23.001Z</time></trkpt><trkpt lat="34.81026737034376" lon="-5.133977216775975"><ele>423.5</ele><time>2026-04-28T11:58:24.001Z</time></trkpt><trkpt lat="34.81021936282112" lon="-5.133922400683026"><ele>421.33333333333337</ele><time>2026-04-28T11:58:25.001Z</time></trkpt><trkpt lat="34.810155292267446" lon="-5.1338907732296075"><ele>419.1666666666667</ele><time>2026-04-28T11:58:26.001Z</time></trkpt><trkpt lat="34.810052841550664" lon="-5.133832018679079"><ele>417.0</ele><time>2026-04-28T11:58:28.001Z</time></trkpt><trkpt lat="34.809937823126305" lon="-5.1337926448282305"><ele>417.0</ele><time>2026-04-28T11:58:30.001Z</time></trkpt><trkpt lat="34.809862340937045" lon="-5.13379684900611"><ele>417.0</ele><time>2026-04-28T11:58:31.001Z</time></trkpt><trkpt lat="34.80978076424785" lon="-5.133774331095408"><ele>417.0</ele><time>2026-04-28T11:58:32.001Z</time></trkpt><trkpt lat="34.809699817025" lon="-5.133781035122279"><ele>417.0</ele><time>2026-04-28T11:58:33.001Z</time></trkpt><trkpt lat="34.80963388211149" lon="-5.1337831659171105"><ele>417.0</ele><time>2026-04-28T11:58:34.001Z</time></trkpt><trkpt lat="34.80955936153604" lon="-5.133768962698476"><ele>417.0</ele><time>2026-04-28T11:58:36.001Z</time></trkpt><trkpt lat="34.8095061351143" lon="-5.133713660656489"><ele>417.0</ele><time>2026-04-28T11:59:07Z</time></trkpt><trkpt lat="34.80941607811135" lon="-5.133654271435585"><ele>417.0</ele><time>2026-04-28T11:59:09Z</time></trkpt><trkpt lat="34.809361066143175" lon="-5.133616176946272"><ele>417.0</ele><time>2026-04-28T11:59:10Z</time></trkpt><trkpt lat="34.809303734903054" lon="-5.133576520929315"><ele>417.0</ele><time>2026-04-28T11:59:11Z</time></trkpt><trkpt lat="34.80923898488604" lon="-5.1335371409677055"><ele>417.0</ele><time>2026-04-28T11:59:12Z</time></trkpt><trkpt lat="34.809122194980375" lon="-5.133472716858474"><ele>417.0</ele><time>2026-04-28T11:59:14Z</time></trkpt><trkpt lat="34.809067303641015" lon="-5.133421077525794"><ele>417.6</ele><time>2026-04-28T11:59:15Z</time></trkpt><trkpt lat="34.8089954404006" lon="-5.133373061001137"><ele>418.20000000000005</ele><time>2026-04-28T11:59:16Z</time></trkpt><trkpt lat="34.80891478407505" lon="-5.133338889375509"><ele>418.8</ele><time>2026-04-28T11:59:17Z</time></trkpt><trkpt lat="34.80881855531434" lon="-5.1333094015196545"><ele>419.4</ele><time>2026-04-28T11:59:18Z</time></trkpt><trkpt lat="34.80870936924383" lon="-5.133318901974315"><ele>420.0</ele><time>2026-04-28T11:59:19Z</time></trkpt><trkpt lat="34.80859435042473" lon="-5.133334455158666"><ele>420.0</ele><time>2026-04-28T11:59:20Z</time></trkpt><trkpt lat="34.80849802603647" lon="-5.133343644270038"><ele>420.0</ele><time>2026-04-28T11:59:21Z</time></trkpt><trkpt lat="34.80842005152082" lon="-5.133335393180342"><ele>420.0</ele><time>2026-04-28T11:59:22Z</time></trkpt><trkpt lat="34.80834577561022" lon="-5.133350768836471"><ele>420.0</ele><time>2026-04-28T11:59:23Z</time></trkpt><trkpt lat="34.808262019428604" lon="-5.133350969821595"><ele>420.0</ele><time>2026-04-28T11:59:24Z</time></trkpt><trkpt lat="34.808189102686704" lon="-5.133319178434093"><ele>420.0</ele><time>2026-04-28T11:59:25Z</time></trkpt><trkpt lat="34.808114580000485" lon="-5.133277111187906"><ele>421.0</ele><time>2026-04-28T11:59:26Z</time></trkpt><trkpt lat="34.80803618319576" lon="-5.133278335776739"><ele>422.0</ele><time>2026-04-28T11:59:27Z</time></trkpt><trkpt lat="34.807966927534956" lon="-5.1332622613769106"><ele>423.0</ele><time>2026-04-28T11:59:28Z</time></trkpt><trkpt lat="34.8078936011786" lon="-5.133284669583617"><ele>424.0</ele><time>2026-04-28T11:59:29Z</time></trkpt><trkpt lat="34.807814495436844" lon="-5.13329177852669"><ele>425.0</ele><time>2026-04-28T11:59:30Z</time></trkpt><trkpt lat="34.80773769136457" lon="-5.133307653730863"><ele>426.0</ele><time>2026-04-28T11:59:31Z</time></trkpt><trkpt lat="34.80766332665141" lon="-5.133321463139166"><ele>426.5</ele><time>2026-04-28T11:59:32Z</time></trkpt><trkpt lat="34.80755082871377" lon="-5.133355450111492"><ele>427.0</ele><time>2026-04-28T11:59:34Z</time></trkpt><trkpt lat="34.807444655185904" lon="-5.133401169138037"><ele>427.5</ele><time>2026-04-28T11:59:36Z</time></trkpt><trkpt lat="34.80734559697653" lon="-5.133457298773598"><ele>428.0</ele><time>2026-04-28T11:59:38Z</time></trkpt><trkpt lat="34.80724308849988" lon="-5.133516992464342"><ele>427.99999999999994</ele><time>2026-04-28T11:59:40Z</time></trkpt><trkpt lat="34.80717641431481" lon="-5.133546810727235"><ele>428.0</ele><time>2026-04-28T11:59:41Z</time></trkpt><trkpt lat="34.80711482241647" lon="-5.133567708048218"><ele>428.0</ele><time>2026-04-28T11:59:42Z</time></trkpt><trkpt lat="34.80704134037614" lon="-5.133565753187663"><ele>428.0</ele><time>2026-04-28T11:59:43Z</time></trkpt><trkpt lat="34.80696870604327" lon="-5.133566252019452"><ele>427.99999999999994</ele><time>2026-04-28T11:59:44Z</time></trkpt><trkpt lat="34.80683797243074" lon="-5.133555770880926"><ele>428.0</ele><time>2026-04-28T11:59:46Z</time></trkpt><trkpt lat="34.80676497034409" lon="-5.133561322697458"><ele>427.49999999999994</ele><time>2026-04-28T11:59:47Z</time></trkpt><trkpt lat="34.80669792531737" lon="-5.133577949534135"><ele>427.0</ele><time>2026-04-28T11:59:48Z</time></trkpt><trkpt lat="34.806575607979106" lon="-5.133634014624102"><ele>426.5</ele><time>2026-04-28T11:59:50Z</time></trkpt><trkpt lat="34.80651470450754" lon="-5.133668942549148"><ele>426.0</ele><time>2026-04-28T11:59:51Z</time></trkpt><trkpt lat="34.80644701215135" lon="-5.133705606937234"><ele>425.49999999999994</ele><time>2026-04-28T11:59:52Z</time></trkpt><trkpt lat="34.806385191870376" lon="-5.133739399981619"><ele>425.0</ele><time>2026-04-28T11:59:53Z</time></trkpt><trkpt lat="34.80628823298203" lon="-5.133795883186717"><ele>425.0</ele><time>2026-04-28T11:59:55Z</time></trkpt><trkpt lat="34.80619452008001" lon="-5.133856427499258"><ele>425.0</ele><time>2026-04-28T11:59:57Z</time></trkpt><trkpt lat="34.8060945541212" lon="-5.13392303653415"><ele>425.0</ele><time>2026-04-28T11:59:59Z</time></trkpt><trkpt lat="34.80600772590953" lon="-5.133982906659074"><ele>425.0</ele><time>2026-04-28T12:00:01Z</time></trkpt><trkpt lat="34.80590715490236" lon="-5.134055154127757"><ele>425.0</ele><time>2026-04-28T12:00:03Z</time></trkpt><trkpt lat="34.80578222042011" lon="-5.134063288628216"><ele>425.3333333333333</ele><time>2026-04-28T12:00:05Z</time></trkpt><trkpt lat="34.80566709219443" lon="-5.1340412821461285"><ele>425.66666666666663</ele><time>2026-04-28T12:00:07Z</time></trkpt><trkpt lat="34.80557157748457" lon="-5.134044154893533"><ele>426.0</ele><time>2026-04-28T12:00:09Z</time></trkpt><trkpt lat="34.80549834175971" lon="-5.134041583122183"><ele>426.33333333333337</ele><time>2026-04-28T12:00:11Z</time></trkpt><trkpt lat="34.80542747985827" lon="-5.134038816169902"><ele>426.6666666666667</ele><time>2026-04-28T12:00:13Z</time></trkpt><trkpt lat="34.80535655521665" lon="-5.134053907273288"><ele>427.0</ele><time>2026-04-28T12:00:15Z</time></trkpt><trkpt lat="34.805292855468366" lon="-5.1340645361291"><ele>426.83333333333337</ele><time>2026-04-28T12:00:17Z</time></trkpt><trkpt lat="34.805222395582504" lon="-5.134032855686361"><ele>426.6666666666667</ele><time>2026-04-28T12:00:19Z</time></trkpt><trkpt lat="34.805153896320284" lon="-5.134024282840251"><ele>426.5</ele><time>2026-04-28T12:00:21Z</time></trkpt><trkpt lat="34.80507359218397" lon="-5.134009169722138"><ele>426.33333333333337</ele><time>2026-04-28T12:00:23Z</time></trkpt><trkpt lat="34.80499202803837" lon="-5.134012929577654"><ele>426.1666666666667</ele><time>2026-04-28T12:00:25Z</time></trkpt><trkpt lat="34.80488988974858" lon="-5.13399376988295"><ele>426.0</ele><time>2026-04-28T12:00:27Z</time></trkpt><trkpt lat="34.80477534766198" lon="-5.1339946281112745"><ele>426.0</ele><time>2026-04-28T12:00:29.001Z</time></trkpt><trkpt lat="34.80470154143363" lon="-5.133985995820094"><ele>426.0</ele><time>2026-04-28T12:00:30.001Z</time></trkpt><trkpt lat="34.804621177411576" lon="-5.134043202139612"><ele>426.0</ele><time>2026-04-28T12:00:31.001Z</time></trkpt><trkpt lat="34.80456523725999" lon="-5.134132419364304"><ele>426.0</ele><time>2026-04-28T12:00:32.001Z</time></trkpt><trkpt lat="34.80447761405566" lon="-5.134174110650222"><ele>426.0</ele><time>2026-04-28T12:00:33.001Z</time></trkpt><trkpt lat="34.80438017324484" lon="-5.134233333536424"><ele>431.5</ele><time>2026-04-28T12:00:34.001Z</time></trkpt><trkpt lat="34.8042689968545" lon="-5.134272304448502"><ele>437.0</ele><time>2026-04-28T12:00:35.001Z</time></trkpt><trkpt lat="34.804162348458576" lon="-5.134295340050764"><ele>442.5</ele><time>2026-04-28T12:00:36.001Z</time></trkpt><trkpt lat="34.80404655532523" lon="-5.1343065763971625"><ele>448.0</ele><time>2026-04-28T12:00:37.001Z</time></trkpt><trkpt lat="34.80392811183529" lon="-5.134246298112508"><ele>448.0</ele><time>2026-04-28T12:00:38.001Z</time></trkpt><trkpt lat="34.80381661031757" lon="-5.13423222301545"><ele>447.99999999999994</ele><time>2026-04-28T12:00:39.001Z</time></trkpt><trkpt lat="34.80371977909001" lon="-5.134239323120105"><ele>447.99999999999994</ele><time>2026-04-28T12:00:40.001Z</time></trkpt><trkpt lat="34.80363106272442" lon="-5.134255173977454"><ele>448.0</ele><time>2026-04-28T12:00:41.001Z</time></trkpt><trkpt lat="34.803583128581394" lon="-5.134405682155443"><ele>448.0</ele><time>2026-04-28T12:00:42.001Z</time></trkpt><trkpt lat="34.803534458178135" lon="-5.13451374558852"><ele>452.59999999999997</ele><time>2026-04-28T12:00:43.001Z</time></trkpt><trkpt lat="34.80345961487533" lon="-5.134610626486403"><ele>457.19999999999993</ele><time>2026-04-28T12:00:44.001Z</time></trkpt><trkpt lat="34.803376454940576" lon="-5.134673329936057"><ele>461.8</ele><time>2026-04-28T12:00:45.001Z</time></trkpt><trkpt lat="34.803309215330664" lon="-5.134742485394795"><ele>466.4</ele><time>2026-04-28T12:00:46.001Z</time></trkpt><trkpt lat="34.80320469293037" lon="-5.1347425062207614"><ele>471.0</ele><time>2026-04-28T12:00:47.001Z</time></trkpt><trkpt lat="34.803123327985034" lon="-5.134809603811808"><ele>468.8333333333333</ele><time>2026-04-28T12:00:48.001Z</time></trkpt><trkpt lat="34.8030474760139" lon="-5.134903995230145"><ele>466.66666666666663</ele><time>2026-04-28T12:00:49Z</time></trkpt><trkpt lat="34.80296125158719" lon="-5.13498939522197"><ele>464.5</ele><time>2026-04-28T12:00:50Z</time></trkpt><trkpt lat="34.80289192212989" lon="-5.135039737225917"><ele>462.3333333333333</ele><time>2026-04-28T12:00:51Z</time></trkpt><trkpt lat="34.80283467696123" lon="-5.135088348860494"><ele>460.16666666666663</ele><time>2026-04-28T12:00:52Z</time></trkpt><trkpt lat="34.80276585308392" lon="-5.1351017495854006"><ele>458.0</ele><time>2026-04-28T12:00:53Z</time></trkpt><trkpt lat="34.80271009028228" lon="-5.135140603724246"><ele>460.4</ele><time>2026-04-28T12:00:54Z</time></trkpt><trkpt lat="34.8026267885036" lon="-5.135159652440528"><ele>462.79999999999995</ele><time>2026-04-28T12:00:55Z</time></trkpt><trkpt lat="34.80253522220024" lon="-5.135182205649199"><ele>465.2</ele><time>2026-04-28T12:00:56Z</time></trkpt><trkpt lat="34.80244870724457" lon="-5.1352352706969695"><ele>467.6</ele><time>2026-04-28T12:00:57Z</time></trkpt><trkpt lat="34.80236049076506" lon="-5.135278289583036"><ele>470.0</ele><time>2026-04-28T12:00:58Z</time></trkpt><trkpt lat="34.80226862822744" lon="-5.135310783313993"><ele>469.99999999999994</ele><time>2026-04-28T12:00:59Z</time></trkpt><trkpt lat="34.802183227573146" lon="-5.13536075981898"><ele>470.0</ele><time>2026-04-28T12:01:00Z</time></trkpt><trkpt lat="34.80209892824615" lon="-5.135410865332698"><ele>470.0</ele><time>2026-04-28T12:01:01Z</time></trkpt><trkpt lat="34.80202103930063" lon="-5.135461494317724"><ele>470.0</ele><time>2026-04-28T12:01:02Z</time></trkpt><trkpt lat="34.80195644807684" lon="-5.135514225002469"><ele>469.99999999999994</ele><time>2026-04-28T12:01:03Z</time></trkpt><trkpt lat="34.801905855497196" lon="-5.135580923941189"><ele>470.0</ele><time>2026-04-28T12:01:04Z</time></trkpt><trkpt lat="34.80190950012662" lon="-5.135703462539109"><ele>467.6</ele><time>2026-04-28T12:01:05Z</time></trkpt><trkpt lat="34.80181483839414" lon="-5.135825580270866"><ele>465.2</ele><time>2026-04-28T12:01:07Z</time></trkpt><trkpt lat="34.80172423893404" lon="-5.1358567731427485"><ele>462.79999999999995</ele><time>2026-04-28T12:01:08Z</time></trkpt><trkpt lat="34.801636092470645" lon="-5.1358708658521035"><ele>460.4</ele><time>2026-04-28T12:01:09Z</time></trkpt><trkpt lat="34.80155078893415" lon="-5.135842278051831"><ele>458.0</ele><time>2026-04-28T12:01:10Z</time></trkpt><trkpt lat="34.80146249375744" lon="-5.135843101181985"><ele>458.0</ele><time>2026-04-28T12:01:11Z</time></trkpt><trkpt lat="34.80139110717838" lon="-5.135746236127891"><ele>457.99999999999994</ele><time>2026-04-28T12:01:12Z</time></trkpt><trkpt lat="34.801305780490765" lon="-5.1357164138401865"><ele>457.99999999999994</ele><time>2026-04-28T12:01:13Z</time></trkpt><trkpt lat="34.801211729617236" lon="-5.135693901686"><ele>458.0</ele><time>2026-04-28T12:01:14Z</time></trkpt><trkpt lat="34.80111500879336" lon="-5.135683076365653"><ele>458.0</ele><time>2026-04-28T12:01:15Z</time></trkpt><trkpt lat="34.801025756437" lon="-5.135677711301031"><ele>458.75</ele><time>2026-04-28T12:01:16Z</time></trkpt><trkpt lat="34.80090846936787" lon="-5.135733712371557"><ele>459.5</ele><time>2026-04-28T12:01:17Z</time></trkpt><trkpt lat="34.80089087359483" lon="-5.135911352876345"><ele>460.25</ele><time>2026-04-28T12:01:18Z</time></trkpt><trkpt lat="34.800821612105466" lon="-5.1359946984921026"><ele>461.0</ele><time>2026-04-28T12:01:19Z</time></trkpt><trkpt lat="34.80074860859288" lon="-5.136045716711576"><ele>460.99999999999994</ele><time>2026-04-28T12:01:20Z</time></trkpt><trkpt lat="34.80065673007234" lon="-5.1360509974994075"><ele>461.0</ele><time>2026-04-28T12:01:21Z</time></trkpt><trkpt lat="34.80060145863205" lon="-5.136101130184784"><ele>461.0</ele><time>2026-04-28T12:01:22Z</time></trkpt><trkpt lat="34.80054437499198" lon="-5.136142130130676"><ele>461.0</ele><time>2026-04-28T12:01:23Z</time></trkpt><trkpt lat="34.800503427597036" lon="-5.136200424384329"><ele>460.99999999999994</ele><time>2026-04-28T12:01:24Z</time></trkpt><trkpt lat="34.80055419610595" lon="-5.136373609346174"><ele>461.0</ele><time>2026-04-28T12:01:26Z</time></trkpt><trkpt lat="34.800542119414445" lon="-5.136450630559199"><ele>458.4</ele><time>2026-04-28T12:01:27Z</time></trkpt><trkpt lat="34.80051212296297" lon="-5.1365584773384585"><ele>455.8</ele><time>2026-04-28T12:01:28Z</time></trkpt><trkpt lat="34.8004511483121" lon="-5.13667757670394"><ele>453.19999999999993</ele><time>2026-04-28T12:01:29Z</time></trkpt><trkpt lat="34.80039039834603" lon="-5.1367941763986416"><ele>450.59999999999997</ele><time>2026-04-28T12:01:30Z</time></trkpt><trkpt lat="34.80032314989116" lon="-5.13691665157423"><ele>448.0</ele><time>2026-04-28T12:01:31Z</time></trkpt><trkpt lat="34.80025126155857" lon="-5.137049124595638"><ele>448.0</ele><time>2026-04-28T12:01:32Z</time></trkpt><trkpt lat="34.80017490263278" lon="-5.1371722183772945"><ele>448.0</ele><time>2026-04-28T12:01:33Z</time></trkpt><trkpt lat="34.80010784887316" lon="-5.137310711144718"><ele>448.0</ele><time>2026-04-28T12:01:34Z</time></trkpt><trkpt lat="34.80004027867148" lon="-5.137450025207099"><ele>448.0</ele><time>2026-04-28T12:01:35Z</time></trkpt><trkpt lat="34.79997791730877" lon="-5.137591178130968"><ele>451.0</ele><time>2026-04-28T12:01:36Z</time></trkpt><trkpt lat="34.79990892779655" lon="-5.137731950311632"><ele>454.0</ele><time>2026-04-28T12:01:37Z</time></trkpt><trkpt lat="34.79983732259308" lon="-5.137842974191826"><ele>457.0</ele><time>2026-04-28T12:01:38Z</time></trkpt><trkpt lat="34.799742400110866" lon="-5.137942234256651"><ele>460.0</ele><time>2026-04-28T12:01:39Z</time></trkpt><trkpt lat="34.79966605896353" lon="-5.138055195358999"><ele>460.0</ele><time>2026-04-28T12:01:40Z</time></trkpt><trkpt lat="34.79962144125025" lon="-5.138155736698679"><ele>460.0</ele><time>2026-04-28T12:01:41Z</time></trkpt><trkpt lat="34.79957639515092" lon="-5.13826255706942"><ele>460.0</ele><time>2026-04-28T12:01:42Z</time></trkpt><trkpt lat="34.79952214100095" lon="-5.138364734227691"><ele>460.0</ele><time>2026-04-28T12:01:43Z</time></trkpt><trkpt lat="34.79950675346809" lon="-5.138482142311134"><ele>460.0</ele><time>2026-04-28T12:01:44Z</time></trkpt><trkpt lat="34.79947337188048" lon="-5.13857604026149"><ele>461.4</ele><time>2026-04-28T12:01:45Z</time></trkpt><trkpt lat="34.79949213334953" lon="-5.138681979667581"><ele>462.8</ele><time>2026-04-28T12:01:46Z</time></trkpt><trkpt lat="34.79949107492109" lon="-5.138787543768864"><ele>464.20000000000005</ele><time>2026-04-28T12:01:47Z</time></trkpt><trkpt lat="34.799455688982725" lon="-5.138889734311189"><ele>465.6</ele><time>2026-04-28T12:01:48Z</time></trkpt><trkpt lat="34.799394105017534" lon="-5.138977265037696"><ele>467.0</ele><time>2026-04-28T12:01:49Z</time></trkpt><trkpt lat="34.799305729902116" lon="-5.139034092142367"><ele>465.8</ele><time>2026-04-28T12:01:50Z</time></trkpt><trkpt lat="34.799231433352745" lon="-5.139128633406585"><ele>464.6</ele><time>2026-04-28T12:01:51Z</time></trkpt><trkpt lat="34.79914981244137" lon="-5.13919442407449"><ele>463.40000000000003</ele><time>2026-04-28T12:01:52Z</time></trkpt><trkpt lat="34.79907219136149" lon="-5.1392650092699705"><ele>462.20000000000005</ele><time>2026-04-28T12:01:53Z</time></trkpt><trkpt lat="34.799002473877344" lon="-5.139337947579536"><ele>461.0</ele><time>2026-04-28T12:01:54Z</time></trkpt><trkpt lat="34.798927097831815" lon="-5.139397947096215"><ele>460.99999999999994</ele><time>2026-04-28T12:01:55Z</time></trkpt><trkpt lat="34.79887944144809" lon="-5.139488131360183"><ele>461.0</ele><time>2026-04-28T12:01:56Z</time></trkpt><trkpt lat="34.79881772690024" lon="-5.139560596700186"><ele>461.0</ele><time>2026-04-28T12:01:57Z</time></trkpt><trkpt lat="34.798745975725765" lon="-5.139609837349533"><ele>461.0</ele><time>2026-04-28T12:01:58Z</time></trkpt><trkpt lat="34.798687894119006" lon="-5.139675508796648"><ele>460.99999999999994</ele><time>2026-04-28T12:01:59Z</time></trkpt><trkpt lat="34.7986229388282" lon="-5.139718543274343"><ele>461.0</ele><time>2026-04-28T12:02:00Z</time></trkpt><trkpt lat="34.79855799384179" lon="-5.139750648892745"><ele>461.16666666666663</ele><time>2026-04-28T12:02:01Z</time></trkpt><trkpt lat="34.79848777209375" lon="-5.139777876754127"><ele>461.3333333333333</ele><time>2026-04-28T12:02:02Z</time></trkpt><trkpt lat="34.798415444900286" lon="-5.139801134898649"><ele>461.5</ele><time>2026-04-28T12:02:03Z</time></trkpt><trkpt lat="34.798339125378426" lon="-5.139812754685256"><ele>461.66666666666663</ele><time>2026-04-28T12:02:04Z</time></trkpt><trkpt lat="34.79826283622248" lon="-5.139845258155952"><ele>461.8333333333333</ele><time>2026-04-28T12:02:05Z</time></trkpt><trkpt lat="34.7981815232848" lon="-5.139849809765006"><ele>462.0</ele><time>2026-04-28T12:02:06Z</time></trkpt><trkpt lat="34.79810699371269" lon="-5.139880672587159"><ele>459.5</ele><time>2026-04-28T12:02:07Z</time></trkpt><trkpt lat="34.79801588268423" lon="-5.1398840300239375"><ele>457.0</ele><time>2026-04-28T12:02:08Z</time></trkpt><trkpt lat="34.79792805866585" lon="-5.139913369424346"><ele>454.5</ele><time>2026-04-28T12:02:09Z</time></trkpt><trkpt lat="34.797854846768374" lon="-5.139927887180525"><ele>452.0</ele><time>2026-04-28T12:02:10Z</time></trkpt><trkpt lat="34.797783373547865" lon="-5.139959449121889"><ele>449.5</ele><time>2026-04-28T12:02:11Z</time></trkpt><trkpt lat="34.797730637660585" lon="-5.14001761212168"><ele>447.0</ele><time>2026-04-28T12:02:12Z</time></trkpt><trkpt lat="34.79766213268778" lon="-5.140050490643865"><ele>445.4285714285714</ele><time>2026-04-28T12:02:13Z</time></trkpt><trkpt lat="34.79759990905811" lon="-5.1401065336049685"><ele>443.85714285714283</ele><time>2026-04-28T12:02:14Z</time></trkpt><trkpt lat="34.79754183190146" lon="-5.1401678119968635"><ele>442.2857142857143</ele><time>2026-04-28T12:02:15Z</time></trkpt><trkpt lat="34.7974813870226" lon="-5.1402140985962035"><ele>440.71428571428567</ele><time>2026-04-28T12:02:16Z</time></trkpt><trkpt lat="34.797420843707506" lon="-5.140249222722266"><ele>439.14285714285717</ele><time>2026-04-28T12:02:17Z</time></trkpt><trkpt lat="34.797376971476886" lon="-5.140313200244148"><ele>437.57142857142856</ele><time>2026-04-28T12:02:18Z</time></trkpt><trkpt lat="34.79731681901476" lon="-5.140350417610794"><ele>436.0</ele><time>2026-04-28T12:02:19Z</time></trkpt><trkpt lat="34.797217918788746" lon="-5.140440154198689"><ele>436.0</ele><time>2026-04-28T12:02:21Z</time></trkpt><trkpt lat="34.79713282151623" lon="-5.140541643439418"><ele>436.0</ele><time>2026-04-28T12:02:23Z</time></trkpt><trkpt lat="34.79704919675446" lon="-5.14061816168344"><ele>436.0</ele><time>2026-04-28T12:02:25Z</time></trkpt><trkpt lat="34.79698528669159" lon="-5.140585866376177"><ele>436.0</ele><time>2026-04-28T12:02:26Z</time></trkpt><trkpt lat="34.79694179280045" lon="-5.140500367798923"><ele>436.0</ele><time>2026-04-28T12:02:28Z</time></trkpt><trkpt lat="34.79686353601444" lon="-5.140403371404296"><ele>434.20000000000005</ele><time>2026-04-28T12:02:30Z</time></trkpt><trkpt lat="34.796787317578804" lon="-5.140320306733846"><ele>432.40000000000003</ele><time>2026-04-28T12:02:32Z</time></trkpt><trkpt lat="34.7966997788665" lon="-5.140246752934957"><ele>430.6</ele><time>2026-04-28T12:02:34Z</time></trkpt><trkpt lat="34.79660935752554" lon="-5.140223115341258"><ele>428.8</ele><time>2026-04-28T12:02:36Z</time></trkpt><trkpt lat="34.796528634671304" lon="-5.140257157597309"><ele>427.0</ele><time>2026-04-28T12:02:38Z</time></trkpt><trkpt lat="34.796439337118734" lon="-5.140264974672704"><ele>427.0</ele><time>2026-04-28T12:02:40Z</time></trkpt><trkpt lat="34.796324598593216" lon="-5.1402930552867305"><ele>427.00000000000006</ele><time>2026-04-28T12:02:42Z</time></trkpt><trkpt lat="34.7961978353096" lon="-5.140311588409742"><ele>427.00000000000006</ele><time>2026-04-28T12:02:44Z</time></trkpt><trkpt lat="34.796073869718114" lon="-5.140335479793216"><ele>427.0</ele><time>2026-04-28T12:02:46Z</time></trkpt><trkpt lat="34.796001413735475" lon="-5.140349654239981"><ele>427.0</ele><time>2026-04-28T12:02:47Z</time></trkpt><trkpt lat="34.7959400183415" lon="-5.140395471184337"><ele>425.20000000000005</ele><time>2026-04-28T12:02:48Z</time></trkpt><trkpt lat="34.7958633922984" lon="-5.1404446133125585"><ele>423.40000000000003</ele><time>2026-04-28T12:02:49Z</time></trkpt><trkpt lat="34.795779787835066" lon="-5.140481569255523"><ele>421.6</ele><time>2026-04-28T12:02:50Z</time></trkpt><trkpt lat="34.79569658442839" lon="-5.140537993112471"><ele>419.79999999999995</ele><time>2026-04-28T12:02:51Z</time></trkpt><trkpt lat="34.795608387631304" lon="-5.140590185860594"><ele>418.0</ele><time>2026-04-28T12:02:52Z</time></trkpt><trkpt lat="34.79553478719481" lon="-5.140642272133732"><ele>418.00000000000006</ele><time>2026-04-28T12:02:53Z</time></trkpt><trkpt lat="34.79546763107718" lon="-5.140686584438611"><ele>418.0</ele><time>2026-04-28T12:02:54Z</time></trkpt><trkpt lat="34.795410534018764" lon="-5.140725930913526"><ele>418.0</ele><time>2026-04-28T12:02:55Z</time></trkpt><trkpt lat="34.79535245824724" lon="-5.140757603468225"><ele>418.0</ele><time>2026-04-28T12:02:56Z</time></trkpt><trkpt lat="34.795223840373474" lon="-5.140752614052702"><ele>418.00000000000006</ele><time>2026-04-28T12:02:58Z</time></trkpt><trkpt lat="34.79515251493999" lon="-5.140751795063233"><ele>418.0</ele><time>2026-04-28T12:02:59Z</time></trkpt><trkpt lat="34.795078371608604" lon="-5.1407605350439525"><ele>416.83333333333337</ele><time>2026-04-28T12:03:00Z</time></trkpt><trkpt lat="34.79500455442999" lon="-5.1407501747044035"><ele>415.6666666666667</ele><time>2026-04-28T12:03:01Z</time></trkpt><trkpt lat="34.79492416720934" lon="-5.140717447770494"><ele>414.5</ele><time>2026-04-28T12:03:02Z</time></trkpt><trkpt lat="34.79483442810976" lon="-5.140701128772283"><ele>413.33333333333337</ele><time>2026-04-28T12:03:03Z</time></trkpt><trkpt lat="34.79474706124144" lon="-5.140686953276736"><ele>412.1666666666667</ele><time>2026-04-28T12:03:04Z</time></trkpt><trkpt lat="34.79466900277251" lon="-5.140665270367446"><ele>411.0</ele><time>2026-04-28T12:03:05Z</time></trkpt><trkpt lat="34.79459547317711" lon="-5.140660749401058"><ele>411.0</ele><time>2026-04-28T12:03:06Z</time></trkpt><trkpt lat="34.79451877755728" lon="-5.140652148519688"><ele>411.0</ele><time>2026-04-28T12:03:07Z</time></trkpt><trkpt lat="34.7944412066241" lon="-5.140625653358232"><ele>411.0</ele><time>2026-04-28T12:03:08Z</time></trkpt><trkpt lat="34.79437002165643" lon="-5.140603951678714"><ele>411.0</ele><time>2026-04-28T12:03:09Z</time></trkpt><trkpt lat="34.79425732571045" lon="-5.140550326162954"><ele>411.0</ele><time>2026-04-28T12:03:11Z</time></trkpt><trkpt lat="34.794198750840806" lon="-5.140495071182117"><ele>411.0</ele><time>2026-04-28T12:03:12Z</time></trkpt><trkpt lat="34.79414657338708" lon="-5.140415012937745"><ele>406.20000000000005</ele><time>2026-04-28T12:03:13Z</time></trkpt><trkpt lat="34.79406917214063" lon="-5.140413549468838"><ele>401.40000000000003</ele><time>2026-04-28T12:03:14Z</time></trkpt><trkpt lat="34.793976157264765" lon="-5.140352455457627"><ele>396.6</ele><time>2026-04-28T12:03:16Z</time></trkpt><trkpt lat="34.79387677347621" lon="-5.1402966026415955"><ele>391.8</ele><time>2026-04-28T12:03:18Z</time></trkpt><trkpt lat="34.793793759497234" lon="-5.140244089147978"><ele>387.0</ele><time>2026-04-28T12:03:20Z</time></trkpt><trkpt lat="34.79369661235105" lon="-5.140248090511521"><ele>387.0</ele><time>2026-04-28T12:03:22Z</time></trkpt><trkpt lat="34.79363124545312" lon="-5.1402360077458065"><ele>387.0</ele><time>2026-04-28T12:03:23Z</time></trkpt><trkpt lat="34.79356156772193" lon="-5.140196730976249"><ele>387.0</ele><time>2026-04-28T12:03:24Z</time></trkpt><trkpt lat="34.793497992244475" lon="-5.140174153143874"><ele>387.0</ele><time>2026-04-28T12:03:25Z</time></trkpt><trkpt lat="34.79339991620996" lon="-5.14008255693447"><ele>387.0</ele><time>2026-04-28T12:03:27Z</time></trkpt><trkpt lat="34.793298791351646" lon="-5.140031117541572"><ele>387.0</ele><time>2026-04-28T12:03:29Z</time></trkpt><trkpt lat="34.79321962171142" lon="-5.139994351755425"><ele>381.8</ele><time>2026-04-28T12:03:31Z</time></trkpt><trkpt lat="34.793120418993354" lon="-5.139956747773167"><ele>376.6</ele><time>2026-04-28T12:03:33Z</time></trkpt><trkpt lat="34.79301054771251" lon="-5.139929542800932"><ele>371.40000000000003</ele><time>2026-04-28T12:03:35Z</time></trkpt><trkpt lat="34.79289323418274" lon="-5.139922444752026"><ele>366.20000000000005</ele><time>2026-04-28T12:03:37Z</time></trkpt><trkpt lat="34.79278551437142" lon="-5.139932587196822"><ele>361.0</ele><time>2026-04-28T12:03:39Z</time></trkpt><trkpt lat="34.792674844346955" lon="-5.1399331202550975"><ele>359.4</ele><time>2026-04-28T12:03:41Z</time></trkpt><trkpt lat="34.79255102301572" lon="-5.1399711001663775"><ele>357.8</ele><time>2026-04-28T12:03:43Z</time></trkpt><trkpt lat="34.7924828406809" lon="-5.139990923558005"><ele>356.2</ele><time>2026-04-28T12:03:44Z</time></trkpt><trkpt lat="34.79238574287359" lon="-5.140023149202928"><ele>354.59999999999997</ele><time>2026-04-28T12:03:46Z</time></trkpt><trkpt lat="34.79229100322998" lon="-5.140069282616403"><ele>353.0</ele><time>2026-04-28T12:03:48Z</time></trkpt><trkpt lat="34.79220548935817" lon="-5.1401450863165765"><ele>353.0</ele><time>2026-04-28T12:03:50Z</time></trkpt><trkpt lat="34.79214193153862" lon="-5.140229367327105"><ele>353.0</ele><time>2026-04-28T12:03:52Z</time></trkpt><trkpt lat="34.79206544901552" lon="-5.1403083739546425"><ele>353.0</ele><time>2026-04-28T12:03:54Z</time></trkpt><trkpt lat="34.79198983999648" lon="-5.140380277274146"><ele>353.0</ele><time>2026-04-28T12:03:56Z</time></trkpt><trkpt lat="34.791915938348275" lon="-5.140455911763559"><ele>353.0</ele><time>2026-04-28T12:03:58Z</time></trkpt><trkpt lat="34.79186440071816" lon="-5.14054559274484"><ele>351.79999999999995</ele><time>2026-04-28T12:04:00Z</time></trkpt><trkpt lat="34.79179722960915" lon="-5.140643923573379"><ele>350.6</ele><time>2026-04-28T12:04:02Z</time></trkpt><trkpt lat="34.79173544263672" lon="-5.140727084246071"><ele>349.4</ele><time>2026-04-28T12:04:04Z</time></trkpt><trkpt lat="34.79168447281499" lon="-5.140795714501962"><ele>348.20000000000005</ele><time>2026-04-28T12:04:06Z</time></trkpt><trkpt lat="34.79159192352516" lon="-5.1408621421799054"><ele>347.0</ele><time>2026-04-28T12:05:51Z</time></trkpt><trkpt lat="34.79150807233301" lon="-5.140861759697862"><ele>347.0</ele><time>2026-04-28T12:05:52Z</time></trkpt><trkpt lat="34.79143502475422" lon="-5.140896493460093"><ele>347.0</ele><time>2026-04-28T12:05:53Z</time></trkpt><trkpt lat="34.79133392286351" lon="-5.1409596354489135"><ele>347.0</ele><time>2026-04-28T12:05:54Z</time></trkpt><trkpt lat="34.79124704310772" lon="-5.141032600798493"><ele>347.0</ele><time>2026-04-28T12:05:55Z</time></trkpt><trkpt lat="34.791157767476506" lon="-5.141116492823259"><ele>347.0</ele><time>2026-04-28T12:05:56Z</time></trkpt><trkpt lat="34.79106686129108" lon="-5.141216299534631"><ele>350.8</ele><time>2026-04-28T12:05:57Z</time></trkpt><trkpt lat="34.79096405854188" lon="-5.141294804199594"><ele>354.6</ele><time>2026-04-28T12:05:58Z</time></trkpt><trkpt lat="34.790867333075724" lon="-5.141312511007249"><ele>358.40000000000003</ele><time>2026-04-28T12:05:59Z</time></trkpt><trkpt lat="34.790775573952445" lon="-5.141362670345031"><ele>362.20000000000005</ele><time>2026-04-28T12:06:00Z</time></trkpt><trkpt lat="34.79066685731085" lon="-5.141277944750141"><ele>366.0</ele><time>2026-04-28T12:06:01Z</time></trkpt><trkpt lat="34.790554480957255" lon="-5.141263239365107"><ele>366.0</ele><time>2026-04-28T12:06:02Z</time></trkpt><trkpt lat="34.790450329412664" lon="-5.141270883127726"><ele>366.0</ele><time>2026-04-28T12:06:03Z</time></trkpt><trkpt lat="34.790377197479366" lon="-5.141324004226417"><ele>366.0</ele><time>2026-04-28T12:06:04Z</time></trkpt><trkpt lat="34.79031188866327" lon="-5.141341143193737"><ele>366.0</ele><time>2026-04-28T12:06:05Z</time></trkpt><trkpt lat="34.79023973892558" lon="-5.14137218437879"><ele>366.0</ele><time>2026-04-28T12:06:06Z</time></trkpt><trkpt lat="34.79016010843825" lon="-5.141323196664741"><ele>366.0</ele><time>2026-04-28T12:06:07Z</time></trkpt><trkpt lat="34.79007814400521" lon="-5.141330528524153"><ele>367.5</ele><time>2026-04-28T12:06:08Z</time></trkpt><trkpt lat="34.790000318559365" lon="-5.141443670096087"><ele>369.0</ele><time>2026-04-28T12:06:09Z</time></trkpt><trkpt lat="34.79004131962318" lon="-5.141640643468648"><ele>370.5</ele><time>2026-04-28T12:06:10Z</time></trkpt><trkpt lat="34.78997466328441" lon="-5.141768418687513"><ele>372.0</ele><time>2026-04-28T12:06:12Z</time></trkpt><trkpt lat="34.789859241236165" lon="-5.141798200246963"><ele>368.0</ele><time>2026-04-28T12:06:13Z</time></trkpt><trkpt lat="34.7897619628266" lon="-5.141849849395315"><ele>364.0</ele><time>2026-04-28T12:06:14Z</time></trkpt><trkpt lat="34.789663353030065" lon="-5.141900113756744"><ele>360.0</ele><time>2026-04-28T12:06:15Z</time></trkpt><trkpt lat="34.789596521940226" lon="-5.141958949187459"><ele>356.0</ele><time>2026-04-28T12:06:16Z</time></trkpt><trkpt lat="34.789557384691896" lon="-5.142029841098011"><ele>352.0</ele><time>2026-04-28T12:06:17Z</time></trkpt><trkpt lat="34.78951440286073" lon="-5.142085953535372"><ele>348.0</ele><time>2026-04-28T12:06:18Z</time></trkpt><trkpt lat="34.789504154703856" lon="-5.142164852123324"><ele>348.0</ele><time>2026-04-28T12:06:20Z</time></trkpt><trkpt lat="34.78931931966462" lon="-5.1420583124717165"><ele>348.0</ele><time>2026-04-28T12:06:21Z</time></trkpt><trkpt lat="34.789226647456005" lon="-5.1420718475582685"><ele>348.0</ele><time>2026-04-28T12:06:24Z</time></trkpt><trkpt lat="34.78915357077149" lon="-5.142078289926037"><ele>348.0</ele><time>2026-04-28T12:06:26Z</time></trkpt><trkpt lat="34.78907426312504" lon="-5.142136053521792"><ele>348.0</ele><time>2026-04-28T12:06:28Z</time></trkpt><trkpt lat="34.78895544639555" lon="-5.142198525642968"><ele>348.0</ele><time>2026-04-28T12:06:29.999Z</time></trkpt><trkpt lat="34.788872941897424" lon="-5.142198194792712"><ele>348.0</ele><time>2026-04-28T12:06:30.999Z</time></trkpt><trkpt lat="34.78879377020258" lon="-5.142223229333126"><ele>348.0</ele><time>2026-04-28T12:06:31.999Z</time></trkpt><trkpt lat="34.788711189684676" lon="-5.142251829352802"><ele>348.0</ele><time>2026-04-28T12:06:32.999Z</time></trkpt><trkpt lat="34.78862546613741" lon="-5.142298477620677"><ele>348.0</ele><time>2026-04-28T12:06:33.999Z</time></trkpt><trkpt lat="34.7885358060131" lon="-5.142314820451259"><ele>348.0</ele><time>2026-04-28T12:06:34.999Z</time></trkpt><trkpt lat="34.788454192197065" lon="-5.142346672977838"><ele>348.0</ele><time>2026-04-28T12:06:35.999Z</time></trkpt><trkpt lat="34.78837089100108" lon="-5.142368717701138"><ele>348.0</ele><time>2026-04-28T12:06:36.999Z</time></trkpt><trkpt lat="34.78827925304335" lon="-5.1423754786443"><ele>348.0</ele><time>2026-04-28T12:06:37.999Z</time></trkpt><trkpt lat="34.788181627795616" lon="-5.142365944474654"><ele>343.4</ele><time>2026-04-28T12:06:38.999Z</time></trkpt><trkpt lat="34.78808065057695" lon="-5.142355029395884"><ele>338.79999999999995</ele><time>2026-04-28T12:06:39.999Z</time></trkpt><trkpt lat="34.78797442800625" lon="-5.142366988225585"><ele>334.2</ele><time>2026-04-28T12:06:40.999Z</time></trkpt><trkpt lat="34.787880143553814" lon="-5.142372563517804"><ele>329.6</ele><time>2026-04-28T12:06:41.999Z</time></trkpt><trkpt lat="34.78777921055307" lon="-5.142357739826118"><ele>325.0</ele><time>2026-04-28T12:06:42.999Z</time></trkpt><trkpt lat="34.78768358933267" lon="-5.142369999041833"><ele>321.3333333333333</ele><time>2026-04-28T12:06:43.999Z</time></trkpt><trkpt lat="34.787608877423565" lon="-5.142369102896456"><ele>317.66666666666663</ele><time>2026-04-28T12:06:44.999Z</time></trkpt><trkpt lat="34.78750002020829" lon="-5.142368791858907"><ele>314.0</ele><time>2026-04-28T12:06:46.999Z</time></trkpt><trkpt lat="34.78743281559527" lon="-5.142380531094825"><ele>310.3333333333333</ele><time>2026-04-28T12:06:47.999Z</time></trkpt><trkpt lat="34.78737520642974" lon="-5.1423078227926355"><ele>306.6666666666667</ele><time>2026-04-28T12:06:48.999Z</time></trkpt><trkpt lat="34.787309053837205" lon="-5.142257149864411"><ele>303.0</ele><time>2026-04-28T12:06:49.999Z</time></trkpt><trkpt lat="34.78725784650297" lon="-5.142163588371035"><ele>303.0</ele><time>2026-04-28T12:06:50.999Z</time></trkpt><trkpt lat="34.787154828320716" lon="-5.142138477588384"><ele>303.0</ele><time>2026-04-28T12:06:51.999Z</time></trkpt><trkpt lat="34.78705331345314" lon="-5.14208521940901"><ele>303.0</ele><time>2026-04-28T12:06:52.999Z</time></trkpt><trkpt lat="34.786951444560344" lon="-5.14204638152617"><ele>303.0</ele><time>2026-04-28T12:06:53.999Z</time></trkpt><trkpt lat="34.7868590172835" lon="-5.141997785241117"><ele>303.0</ele><time>2026-04-28T12:06:54.999Z</time></trkpt><trkpt lat="34.78675578168108" lon="-5.141945607244947"><ele>301.4</ele><time>2026-04-28T12:06:55.999Z</time></trkpt><trkpt lat="34.7866567416478" lon="-5.141895846087002"><ele>299.8</ele><time>2026-04-28T12:06:56.999Z</time></trkpt><trkpt lat="34.78656584512896" lon="-5.141850170756983"><ele>298.2</ele><time>2026-04-28T12:06:57.999Z</time></trkpt><trkpt lat="34.78648690178654" lon="-5.141788961451724"><ele>296.6</ele><time>2026-04-28T12:06:58.999Z</time></trkpt><trkpt lat="34.78639446244249" lon="-5.141773582482371"><ele>295.0</ele><time>2026-04-28T12:06:59.999Z</time></trkpt><trkpt lat="34.786316641170956" lon="-5.141726022025895"><ele>295.0</ele><time>2026-04-28T12:07:00.999Z</time></trkpt><trkpt lat="34.78621770240527" lon="-5.141721398423569"><ele>295.0</ele><time>2026-04-28T12:07:01.999Z</time></trkpt><trkpt lat="34.78612230431949" lon="-5.141766999039577"><ele>295.0</ele><time>2026-04-28T12:07:02.999Z</time></trkpt><trkpt lat="34.786024860980575" lon="-5.141821726620793"><ele>295.0</ele><time>2026-04-28T12:07:03.999Z</time></trkpt><trkpt lat="34.78591532942557" lon="-5.141821675343056"><ele>295.0</ele><time>2026-04-28T12:07:04.999Z</time></trkpt><trkpt lat="34.78581857446805" lon="-5.141812464864867"><ele>293.4</ele><time>2026-04-28T12:07:05.999Z</time></trkpt><trkpt lat="34.78572818504603" lon="-5.141764899622695"><ele>291.8</ele><time>2026-04-28T12:07:06.999Z</time></trkpt><trkpt lat="34.7856375389464" lon="-5.141735463640577"><ele>290.2</ele><time>2026-04-28T12:07:07.999Z</time></trkpt><trkpt lat="34.78555078286059" lon="-5.1416824612092995"><ele>288.6</ele><time>2026-04-28T12:07:08.999Z</time></trkpt><trkpt lat="34.78547307866165" lon="-5.141614908439424"><ele>287.0</ele><time>2026-04-28T12:07:09.999Z</time></trkpt><trkpt lat="34.785393576892766" lon="-5.141545738983895"><ele>285.0</ele><time>2026-04-28T12:07:10.999Z</time></trkpt><trkpt lat="34.785317450542735" lon="-5.141465107561826"><ele>283.0</ele><time>2026-04-28T12:07:11.999Z</time></trkpt><trkpt lat="34.78524576997492" lon="-5.141383980621281"><ele>281.0</ele><time>2026-04-28T12:07:12.999Z</time></trkpt><trkpt lat="34.78517491390474" lon="-5.1412958440641425"><ele>279.0</ele><time>2026-04-28T12:07:13.999Z</time></trkpt><trkpt lat="34.78510787469757" lon="-5.141217720907333"><ele>277.0</ele><time>2026-04-28T12:07:14.999Z</time></trkpt><trkpt lat="34.785046905780995" lon="-5.1411502515444045"><ele>275.8</ele><time>2026-04-28T12:07:15.999Z</time></trkpt><trkpt lat="34.78498702249707" lon="-5.14110393160509"><ele>274.6</ele><time>2026-04-28T12:07:16.999Z</time></trkpt><trkpt lat="34.784881471973875" lon="-5.141043985591616"><ele>273.40000000000003</ele><time>2026-04-28T12:07:18.999Z</time></trkpt><trkpt lat="34.784800403752854" lon="-5.140990251687034"><ele>272.2</ele><time>2026-04-28T12:07:20.999Z</time></trkpt><trkpt lat="34.78472484870362" lon="-5.140936985762408"><ele>271.0</ele><time>2026-04-28T12:07:22.999Z</time></trkpt><trkpt lat="34.784650245031024" lon="-5.1408733166731215"><ele>271.0</ele><time>2026-04-28T12:07:24.999Z</time></trkpt><trkpt lat="34.78459497912154" lon="-5.140828763441663"><ele>271.0</ele><time>2026-04-28T12:07:25.999Z</time></trkpt><trkpt lat="34.78448008711165" lon="-5.140730347710929"><ele>271.0</ele><time>2026-04-28T12:07:27.999Z</time></trkpt><trkpt lat="34.78438920855261" lon="-5.140699178061386"><ele>271.0</ele><time>2026-04-28T12:07:28.999Z</time></trkpt><trkpt lat="34.784298934296444" lon="-5.140646772679441"><ele>271.0</ele><time>2026-04-28T12:07:29.999Z</time></trkpt><trkpt lat="34.784201623787595" lon="-5.140614227000009"><ele>268.40000000000003</ele><time>2026-04-28T12:07:30.999Z</time></trkpt><trkpt lat="34.784104858837175" lon="-5.140569808010047"><ele>265.8</ele><time>2026-04-28T12:07:31.999Z</time></trkpt><trkpt lat="34.78400133325074" lon="-5.140563461132105"><ele>263.20000000000005</ele><time>2026-04-28T12:07:32.999Z</time></trkpt><trkpt lat="34.78391269621624" lon="-5.140522121211833"><ele>260.6</ele><time>2026-04-28T12:07:33.999Z</time></trkpt><trkpt lat="34.78382284653054" lon="-5.14048072974786"><ele>258.0</ele><time>2026-04-28T12:07:34.999Z</time></trkpt><trkpt lat="34.78374114760327" lon="-5.140425113238104"><ele>258.0</ele><time>2026-04-28T12:07:35.999Z</time></trkpt><trkpt lat="34.7836438097028" lon="-5.140398212216221"><ele>258.0</ele><time>2026-04-28T12:07:36.999Z</time></trkpt><trkpt lat="34.783541630650014" lon="-5.140366600255851"><ele>258.0</ele><time>2026-04-28T12:07:37.999Z</time></trkpt><trkpt lat="34.7834200464577" lon="-5.140336176476383"><ele>258.0</ele><time>2026-04-28T12:07:38.999Z</time></trkpt><trkpt lat="34.783326485813824" lon="-5.140311268989087"><ele>258.0</ele><time>2026-04-28T12:07:39.999Z</time></trkpt><trkpt lat="34.783229357456804" lon="-5.140269069387589"><ele>256.4</ele><time>2026-04-28T12:07:40.999Z</time></trkpt><trkpt lat="34.783154534305204" lon="-5.140179313009881"><ele>254.8</ele><time>2026-04-28T12:07:41.999Z</time></trkpt><trkpt lat="34.78306121603679" lon="-5.140119032430636"><ele>253.2</ele><time>2026-04-28T12:07:42.999Z</time></trkpt><trkpt lat="34.78295197470693" lon="-5.140078205618479"><ele>251.6</ele><time>2026-04-28T12:07:43.999Z</time></trkpt><trkpt lat="34.7828500396991" lon="-5.140041571996956"><ele>250.0</ele><time>2026-04-28T12:07:44.999Z</time></trkpt><trkpt lat="34.78273824173299" lon="-5.1400696354774675"><ele>248.0</ele><time>2026-04-28T12:07:45.999Z</time></trkpt><trkpt lat="34.78264140021524" lon="-5.140077155497015"><ele>246.0</ele><time>2026-04-28T12:07:46.999Z</time></trkpt><trkpt lat="34.7825598315475" lon="-5.140087687527956"><ele>244.0</ele><time>2026-04-28T12:07:47.999Z</time></trkpt><trkpt lat="34.78250084957762" lon="-5.1401278767939305"><ele>242.0</ele><time>2026-04-28T12:07:48.999Z</time></trkpt><trkpt lat="34.782380084649965" lon="-5.140149379254354"><ele>240.0</ele><time>2026-04-28T12:07:50.999Z</time></trkpt><trkpt lat="34.782307576763756" lon="-5.140196150272664"><ele>240.0</ele><time>2026-04-28T12:07:51.999Z</time></trkpt><trkpt lat="34.78221939568334" lon="-5.140223675420543"><ele>240.0</ele><time>2026-04-28T12:07:52.999Z</time></trkpt><trkpt lat="34.782114437228934" lon="-5.140221984808414"><ele>240.0</ele><time>2026-04-28T12:07:53.999Z</time></trkpt><trkpt lat="34.782006172167286" lon="-5.140236910807347"><ele>240.0</ele><time>2026-04-28T12:07:54.999Z</time></trkpt><trkpt lat="34.781893775487084" lon="-5.140240997248002"><ele>240.0</ele><time>2026-04-28T12:07:55.999Z</time></trkpt><trkpt lat="34.78179212171957" lon="-5.140242674753135"><ele>238.0</ele><time>2026-04-28T12:07:56.999Z</time></trkpt><trkpt lat="34.7816933771201" lon="-5.140243536621379"><ele>236.0</ele><time>2026-04-28T12:07:57.999Z</time></trkpt><trkpt lat="34.78158914396837" lon="-5.140261322161076"><ele>234.0</ele><time>2026-04-28T12:07:58.999Z</time></trkpt><trkpt lat="34.78146128422185" lon="-5.140264970584505"><ele>232.0</ele><time>2026-04-28T12:07:59.999Z</time></trkpt><trkpt lat="34.78134148310957" lon="-5.140296650104612"><ele>232.0</ele><time>2026-04-28T12:08:00.999Z</time></trkpt><trkpt lat="34.781215942600596" lon="-5.140303615568602"><ele>232.0</ele><time>2026-04-28T12:08:01.999Z</time></trkpt><trkpt lat="34.78107628775359" lon="-5.140296849641875"><ele>232.0</ele><time>2026-04-28T12:08:02.999Z</time></trkpt><trkpt lat="34.78093344848093" lon="-5.140220083010902"><ele>232.0</ele><time>2026-04-28T12:08:03.999Z</time></trkpt><trkpt lat="34.78077576723861" lon="-5.140160717362591"><ele>230.0</ele><time>2026-04-28T12:08:04.999Z</time></trkpt><trkpt lat="34.78062931871745" lon="-5.140089986662242"><ele>228.0</ele><time>2026-04-28T12:08:05.999Z</time></trkpt><trkpt lat="34.780497911706654" lon="-5.140046873289361"><ele>226.0</ele><time>2026-04-28T12:08:06.999Z</time></trkpt><trkpt lat="34.78038335287305" lon="-5.139996811991326"><ele>224.0</ele><time>2026-04-28T12:08:07.999Z</time></trkpt><trkpt lat="34.780270769839674" lon="-5.1399601308963945"><ele>223.0</ele><time>2026-04-28T12:08:08.999Z</time></trkpt><trkpt lat="34.780148562057754" lon="-5.139921105698646"><ele>222.0</ele><time>2026-04-28T12:08:09.999Z</time></trkpt><trkpt lat="34.78001299334073" lon="-5.139905776911638"><ele>221.0</ele><time>2026-04-28T12:08:10.999Z</time></trkpt><trkpt lat="34.7798885055871" lon="-5.139900530734861"><ele>220.0</ele><time>2026-04-28T12:08:11.999Z</time></trkpt><trkpt lat="34.77978718184694" lon="-5.139889575145537"><ele>220.0</ele><time>2026-04-28T12:08:12.999Z</time></trkpt><trkpt lat="34.77969412425383" lon="-5.139902724366563"><ele>220.0</ele><time>2026-04-28T12:08:13.999Z</time></trkpt><trkpt lat="34.77960031341539" lon="-5.139905125121507"><ele>220.0</ele><time>2026-04-28T12:08:14.999Z</time></trkpt><trkpt lat="34.77951072952774" lon="-5.139907417620937"><ele>220.0</ele><time>2026-04-28T12:08:15.999Z</time></trkpt><trkpt lat="34.779469124006795" lon="-5.139650450795385"><ele>220.4</ele><time>2026-04-28T12:08:16.999Z</time></trkpt><trkpt lat="34.77938171613831" lon="-5.139571132172056"><ele>220.8</ele><time>2026-04-28T12:08:17.999Z</time></trkpt><trkpt lat="34.77929284841602" lon="-5.139490353507553"><ele>221.2</ele><time>2026-04-28T12:08:18.999Z</time></trkpt><trkpt lat="34.779203388680344" lon="-5.139406209600403"><ele>221.6</ele><time>2026-04-28T12:08:19.999Z</time></trkpt><trkpt lat="34.77911357680465" lon="-5.139320773169332"><ele>222.0</ele><time>2026-04-28T12:08:20.999Z</time></trkpt><trkpt lat="34.77901523093119" lon="-5.139246644187524"><ele>220.75</ele><time>2026-04-28T12:08:21.999Z</time></trkpt><trkpt lat="34.77889809794067" lon="-5.139185159644743"><ele>219.5</ele><time>2026-04-28T12:08:22.999Z</time></trkpt><trkpt lat="34.77875411474816" lon="-5.139125994179649"><ele>218.25</ele><time>2026-04-28T12:08:23.999Z</time></trkpt><trkpt lat="34.77860855472903" lon="-5.139079167034657"><ele>217.0</ele><time>2026-04-28T12:08:24.999Z</time></trkpt><trkpt lat="34.77848789765657" lon="-5.139040980450042"><ele>216.2</ele><time>2026-04-28T12:08:25.999Z</time></trkpt><trkpt lat="34.77839751246271" lon="-5.138994700451805"><ele>215.39999999999998</ele><time>2026-04-28T12:08:26.999Z</time></trkpt><trkpt lat="34.778311481143675" lon="-5.138965709075175"><ele>214.60000000000002</ele><time>2026-04-28T12:08:27.999Z</time></trkpt><trkpt lat="34.778217690268924" lon="-5.138941434763892"><ele>213.8</ele><time>2026-04-28T12:08:28.999Z</time></trkpt><trkpt lat="34.77812392190535" lon="-5.138911805031842"><ele>213.0</ele><time>2026-04-28T12:08:29.999Z</time></trkpt><trkpt lat="34.778021728568696" lon="-5.138878536417148"><ele>213.0</ele><time>2026-04-28T12:08:30.999Z</time></trkpt><trkpt lat="34.777913156676604" lon="-5.1388431373995225"><ele>213.0</ele><time>2026-04-28T12:08:31.999Z</time></trkpt><trkpt lat="34.77777532205582" lon="-5.138796706852775"><ele>213.0</ele><time>2026-04-28T12:08:32.999Z</time></trkpt><trkpt lat="34.77760583301912" lon="-5.138745929524488"><ele>213.0</ele><time>2026-04-28T12:08:33.999Z</time></trkpt><trkpt lat="34.77745204470359" lon="-5.138700201790312"><ele>211.5</ele><time>2026-04-28T12:08:34.999Z</time></trkpt><trkpt lat="34.77731571746049" lon="-5.138679207902256"><ele>210.0</ele><time>2026-04-28T12:08:35.999Z</time></trkpt><trkpt lat="34.77718922289047" lon="-5.138642164255469"><ele>208.5</ele><time>2026-04-28T12:08:36.999Z</time></trkpt><trkpt lat="34.77705955269336" lon="-5.138603961334396"><ele>207.0</ele><time>2026-04-28T12:08:37.999Z</time></trkpt><trkpt lat="34.77692244470477" lon="-5.138563503251455"><ele>206.5</ele><time>2026-04-28T12:08:38.999Z</time></trkpt><trkpt lat="34.77679203847059" lon="-5.138529716677699"><ele>206.0</ele><time>2026-04-28T12:08:39.999Z</time></trkpt><trkpt lat="34.776671793629916" lon="-5.138498460801189"><ele>205.5</ele><time>2026-04-28T12:08:40.999Z</time></trkpt><trkpt lat="34.77655690887977" lon="-5.138496631033061"><ele>205.0</ele><time>2026-04-28T12:08:41.999Z</time></trkpt><trkpt lat="34.77643837954011" lon="-5.138502009998245"><ele>205.0</ele><time>2026-04-28T12:08:42.999Z</time></trkpt><trkpt lat="34.77632374345015" lon="-5.138502009999874"><ele>205.0</ele><time>2026-04-28T12:08:43.999Z</time></trkpt><trkpt lat="34.776199189632756" lon="-5.1384702457750295"><ele>205.0</ele><time>2026-04-28T12:08:44.999Z</time></trkpt><trkpt lat="34.776078083253815" lon="-5.138433447661734"><ele>205.0</ele><time>2026-04-28T12:08:45.999Z</time></trkpt><trkpt lat="34.77596398034513" lon="-5.138281598847888"><ele>204.33333333333331</ele><time>2026-04-28T12:08:46.999Z</time></trkpt><trkpt lat="34.77582986498797" lon="-5.138171724673856"><ele>203.66666666666669</ele><time>2026-04-28T12:08:47.999Z</time></trkpt><trkpt lat="34.77568890335599" lon="-5.138074046311613"><ele>203.0</ele><time>2026-04-28T12:08:48.999Z</time></trkpt><trkpt lat="34.77553930268182" lon="-5.137978534771587"><ele>203.0</ele><time>2026-04-28T12:08:49.999Z</time></trkpt><trkpt lat="34.77539025067237" lon="-5.137898305576925"><ele>203.0</ele><time>2026-04-28T12:08:50.999Z</time></trkpt><trkpt lat="34.77524845572485" lon="-5.13783024336678"><ele>203.0</ele><time>2026-04-28T12:08:51.999Z</time></trkpt><trkpt lat="34.77511842813086" lon="-5.137768911630668"><ele>202.8</ele><time>2026-04-28T12:08:52.999Z</time></trkpt><trkpt lat="34.77499973872587" lon="-5.137714369237093"><ele>202.60000000000002</ele><time>2026-04-28T12:08:53.999Z</time></trkpt><trkpt lat="34.7748978878079" lon="-5.137669241650269"><ele>202.39999999999998</ele><time>2026-04-28T12:08:54.999Z</time></trkpt><trkpt lat="34.77480552942284" lon="-5.137636688556232"><ele>202.2</ele><time>2026-04-28T12:08:55.999Z</time></trkpt><trkpt lat="34.774729253875385" lon="-5.137612124285598"><ele>202.0</ele><time>2026-04-28T12:08:56.999Z</time></trkpt><trkpt lat="34.774672249765786" lon="-5.137577582684557"><ele>202.0</ele><time>2026-04-28T12:08:57.999Z</time></trkpt><trkpt lat="34.7746014561708" lon="-5.13745146164763"><ele>202.0</ele><time>2026-04-28T12:08:59.999Z</time></trkpt><trkpt lat="34.7745654410306" lon="-5.137374148852414"><ele>202.0</ele><time>2026-04-28T12:09:00.999Z</time></trkpt><trkpt lat="34.77458848047825" lon="-5.1372383143270905"><ele>202.0</ele><time>2026-04-28T12:09:01.999Z</time></trkpt><trkpt lat="34.77460152369531" lon="-5.137107158626343"><ele>202.0</ele><time>2026-04-28T12:09:02.999Z</time></trkpt><trkpt lat="34.77462167353323" lon="-5.1369618282643446"><ele>202.0</ele><time>2026-04-28T12:09:03.999Z</time></trkpt><trkpt lat="34.77463238689438" lon="-5.136815204704579"><ele>202.0</ele><time>2026-04-28T12:09:04.999Z</time></trkpt><trkpt lat="34.77464738867414" lon="-5.136651262726436"><ele>202.0</ele><time>2026-04-28T12:09:05.999Z</time></trkpt><trkpt lat="34.77464796902401" lon="-5.136479994436582"><ele>202.0</ele><time>2026-04-28T12:09:06.999Z</time></trkpt><trkpt lat="34.774678878297735" lon="-5.1363005763297025"><ele>201.66666666666666</ele><time>2026-04-28T12:09:07.999Z</time></trkpt><trkpt lat="34.77469121552711" lon="-5.136120198661651"><ele>201.33333333333331</ele><time>2026-04-28T12:09:08.999Z</time></trkpt><trkpt lat="34.7747092772351" lon="-5.135933342187844"><ele>201.0</ele><time>2026-04-28T12:09:09.999Z</time></trkpt><trkpt lat="34.77469293880454" lon="-5.135747660074158"><ele>201.0</ele><time>2026-04-28T12:09:10.999Z</time></trkpt><trkpt lat="34.774703609271704" lon="-5.135545681491619"><ele>201.0</ele><time>2026-04-28T12:09:11.999Z</time></trkpt><trkpt lat="34.77469708385027" lon="-5.135331277716028"><ele>201.0</ele><time>2026-04-28T12:09:12.999Z</time></trkpt><trkpt lat="34.77468714522526" lon="-5.135106305550075"><ele>201.0</ele><time>2026-04-28T12:09:13.999Z</time></trkpt><trkpt lat="34.774677271369164" lon="-5.134905439844601"><ele>201.0</ele><time>2026-04-28T12:09:14.999Z</time></trkpt><trkpt lat="34.77466154494826" lon="-5.134700159826045"><ele>201.0</ele><time>2026-04-28T12:09:15.999Z</time></trkpt><trkpt lat="34.77465860160238" lon="-5.134495915684396"><ele>201.0</ele><time>2026-04-28T12:09:16.999Z</time></trkpt><trkpt lat="34.7746704396656" lon="-5.13426927645087"><ele>201.0</ele><time>2026-04-28T12:09:17.999Z</time></trkpt><trkpt lat="34.77466805199106" lon="-5.134037170799821"><ele>201.0</ele><time>2026-04-28T12:09:18.999Z</time></trkpt><trkpt lat="34.77469014996637" lon="-5.133834761922421"><ele>201.0</ele><time>2026-04-28T12:09:19.999Z</time></trkpt><trkpt lat="34.774685603810525" lon="-5.133620857003422"><ele>201.0</ele><time>2026-04-28T12:09:20.999Z</time></trkpt><trkpt lat="34.774697692046296" lon="-5.133413244090618"><ele>201.0</ele><time>2026-04-28T12:09:21.999Z</time></trkpt><trkpt lat="34.77471986597101" lon="-5.13316262883622"><ele>201.0</ele><time>2026-04-28T12:09:22.999Z</time></trkpt><trkpt lat="34.77473596471905" lon="-5.1329251037776125"><ele>201.0</ele><time>2026-04-28T12:09:23.999Z</time></trkpt><trkpt lat="34.7747550446353" lon="-5.132683133642177"><ele>201.0</ele><time>2026-04-28T12:09:24.999Z</time></trkpt><trkpt lat="34.774779495521" lon="-5.132468469057716"><ele>200.5</ele><time>2026-04-28T12:09:25.999Z</time></trkpt><trkpt lat="34.7748186907384" lon="-5.132294329550698"><ele>200.0</ele><time>2026-04-28T12:09:26.999Z</time></trkpt><trkpt lat="34.774853500066484" lon="-5.13215368706083"><ele>199.5</ele><time>2026-04-28T12:09:27.999Z</time></trkpt><trkpt lat="34.774851660776484" lon="-5.132028377481887"><ele>199.0</ele><time>2026-04-28T12:09:28.999Z</time></trkpt><trkpt lat="34.774867869512526" lon="-5.131935961893197"><ele>199.0</ele><time>2026-04-28T12:09:29.999Z</time></trkpt><trkpt lat="34.77488047480807" lon="-5.1318333973549874"><ele>199.0</ele><time>2026-04-28T12:09:31.999Z</time></trkpt><trkpt lat="34.774822100001664" lon="-5.131730865327778"><ele>199.0</ele><time>2026-04-28T12:09:33.999Z</time></trkpt><trkpt lat="34.77475633981863" lon="-5.131699193121624"><ele>199.0</ele><time>2026-04-28T12:09:34.999Z</time></trkpt><trkpt lat="34.774658401924434" lon="-5.131696361782851"><ele>199.0</ele><time>2026-04-28T12:09:35.999Z</time></trkpt><trkpt lat="34.77455027122097" lon="-5.1316583929108"><ele>199.0</ele><time>2026-04-28T12:09:36.999Z</time></trkpt><trkpt lat="34.774428051560115" lon="-5.131628126244505"><ele>199.0</ele><time>2026-04-28T12:09:37.999Z</time></trkpt><trkpt lat="34.774283109729936" lon="-5.131630608917527"><ele>199.0</ele><time>2026-04-28T12:09:38.999Z</time></trkpt><trkpt lat="34.77413127790083" lon="-5.1316045452716335"><ele>199.0</ele><time>2026-04-28T12:09:39.999Z</time></trkpt><trkpt lat="34.77396989662138" lon="-5.131601128370265"><ele>198.66666666666666</ele><time>2026-04-28T12:09:40.999Z</time></trkpt><trkpt lat="34.77378466788736" lon="-5.131579263696873"><ele>198.33333333333331</ele><time>2026-04-28T12:09:41.999Z</time></trkpt><trkpt lat="34.77358236166638" lon="-5.131552434412014"><ele>198.0</ele><time>2026-04-28T12:09:42.999Z</time></trkpt><trkpt lat="34.773398910943904" lon="-5.131542865056669"><ele>195.66666666666666</ele><time>2026-04-28T12:09:43.999Z</time></trkpt><trkpt lat="34.773228424959356" lon="-5.131515817015548"><ele>193.33333333333331</ele><time>2026-04-28T12:09:44.999Z</time></trkpt><trkpt lat="34.77304796273051" lon="-5.13148731326257"><ele>191.0</ele><time>2026-04-28T12:09:45.999Z</time></trkpt><trkpt lat="34.77284752743913" lon="-5.131456139445894"><ele>190.33333333333331</ele><time>2026-04-28T12:09:46.999Z</time></trkpt><trkpt lat="34.77264557699057" lon="-5.131424729996084"><ele>189.66666666666666</ele><time>2026-04-28T12:09:47.999Z</time></trkpt><trkpt lat="34.772460349182424" lon="-5.131391708334873"><ele>189.0</ele><time>2026-04-28T12:09:48.999Z</time></trkpt><trkpt lat="34.7722904784871" lon="-5.131357652518095"><ele>189.0</ele><time>2026-04-28T12:09:49.999Z</time></trkpt><trkpt lat="34.77212438549109" lon="-5.131321517878463"><ele>189.0</ele><time>2026-04-28T12:09:50.999Z</time></trkpt><trkpt lat="34.771967736192174" lon="-5.13128195317235"><ele>189.0</ele><time>2026-04-28T12:09:51.999Z</time></trkpt><trkpt lat="34.771824297571406" lon="-5.131243134138387"><ele>188.33333333333334</ele><time>2026-04-28T12:09:52.999Z</time></trkpt><trkpt lat="34.7716811127382" lon="-5.131179582518886"><ele>187.66666666666669</ele><time>2026-04-28T12:09:53.999Z</time></trkpt><trkpt lat="34.771509611779734" lon="-5.13113306110592"><ele>187.0</ele><time>2026-04-28T12:09:54.999Z</time></trkpt><trkpt lat="34.7713375284204" lon="-5.131078207859382"><ele>187.0</ele><time>2026-04-28T12:09:55.999Z</time></trkpt><trkpt lat="34.7711845901742" lon="-5.1310266829899644"><ele>187.0</ele><time>2026-04-28T12:09:56.999Z</time></trkpt><trkpt lat="34.77105274539437" lon="-5.1309843100199"><ele>187.0</ele><time>2026-04-28T12:09:57.999Z</time></trkpt><trkpt lat="34.770938901522435" lon="-5.1309474767603165"><ele>187.0</ele><time>2026-04-28T12:09:58.999Z</time></trkpt><trkpt lat="34.77084400193561" lon="-5.130908081938203"><ele>186.6</ele><time>2026-04-28T12:09:59.999Z</time></trkpt><trkpt lat="34.77076887405892" lon="-5.130855987811284"><ele>186.2</ele><time>2026-04-28T12:10:00.999Z</time></trkpt><trkpt lat="34.770708387295194" lon="-5.130803972825317"><ele>185.8</ele><time>2026-04-28T12:10:01.999Z</time></trkpt><trkpt lat="34.77063290135485" lon="-5.13069439075343"><ele>185.4</ele><time>2026-04-28T12:10:03.999Z</time></trkpt><trkpt lat="34.77061717057505" lon="-5.1305856506561325"><ele>185.0</ele><time>2026-04-28T12:10:04.999Z</time></trkpt><trkpt lat="34.77057194067799" lon="-5.1304463592522875"><ele>185.0</ele><time>2026-04-28T12:10:05.999Z</time></trkpt><trkpt lat="34.77053040693405" lon="-5.1302947690335605"><ele>185.0</ele><time>2026-04-28T12:10:06.999Z</time></trkpt><trkpt lat="34.77048092744273" lon="-5.130137719780807"><ele>185.0</ele><time>2026-04-28T12:10:07.999Z</time></trkpt><trkpt lat="34.77043760006928" lon="-5.1299900351294845"><ele>185.0</ele><time>2026-04-28T12:10:08.999Z</time></trkpt><trkpt lat="34.77038460233443" lon="-5.12985448268604"><ele>185.0</ele><time>2026-04-28T12:10:09.999Z</time></trkpt><trkpt lat="34.770357021199786" lon="-5.1296883717526836"><ele>185.0</ele><time>2026-04-28T12:10:10.999Z</time></trkpt><trkpt lat="34.77030697527576" lon="-5.129501169135838"><ele>185.0</ele><time>2026-04-28T12:10:11.999Z</time></trkpt><trkpt lat="34.770260508234024" lon="-5.129321586106611"><ele>185.0</ele><time>2026-04-28T12:10:12.999Z</time></trkpt><trkpt lat="34.770219846705146" lon="-5.129166853409299"><ele>185.0</ele><time>2026-04-28T12:10:13.999Z</time></trkpt><trkpt lat="34.77018233706094" lon="-5.1290269603183125"><ele>185.0</ele><time>2026-04-28T12:10:14.999Z</time></trkpt><trkpt lat="34.7701387074285" lon="-5.128895891364147"><ele>185.0</ele><time>2026-04-28T12:10:15.999Z</time></trkpt><trkpt lat="34.77007147421972" lon="-5.128767808370418"><ele>185.0</ele><time>2026-04-28T12:10:16.999Z</time></trkpt><trkpt lat="34.7699809980713" lon="-5.1286198772314"><ele>185.0</ele><time>2026-04-28T12:10:17.999Z</time></trkpt><trkpt lat="34.76988719682239" lon="-5.1284606174842615"><ele>185.0</ele><time>2026-04-28T12:10:18.999Z</time></trkpt><trkpt lat="34.76980561947495" lon="-5.128322683858843"><ele>185.2</ele><time>2026-04-28T12:10:19.999Z</time></trkpt><trkpt lat="34.76974213574867" lon="-5.128195641427437"><ele>185.4</ele><time>2026-04-28T12:10:20.999Z</time></trkpt><trkpt lat="34.769708025178105" lon="-5.1280726645077594"><ele>185.60000000000002</ele><time>2026-04-28T12:10:21.999Z</time></trkpt><trkpt lat="34.76967384745216" lon="-5.127959096423156"><ele>185.8</ele><time>2026-04-28T12:10:22.999Z</time></trkpt><trkpt lat="34.76964615241125" lon="-5.1278493937771925"><ele>186.0</ele><time>2026-04-28T12:10:23.999Z</time></trkpt><trkpt lat="34.76963227925046" lon="-5.127743140544104"><ele>186.0</ele><time>2026-04-28T12:10:24.999Z</time></trkpt><trkpt lat="34.76961013053641" lon="-5.127649918196045"><ele>186.0</ele><time>2026-04-28T12:10:25.999Z</time></trkpt><trkpt lat="34.76959251163188" lon="-5.127573928055576"><ele>186.0</ele><time>2026-04-28T12:10:26.999Z</time></trkpt><trkpt lat="34.769571340789966" lon="-5.1274845882001605"><ele>186.0</ele><time>2026-04-28T12:10:28.999Z</time></trkpt><trkpt lat="34.769535105190805" lon="-5.127400912562242"><ele>186.0</ele><time>2026-04-28T12:10:31.999Z</time></trkpt><trkpt lat="34.76957227572507" lon="-5.1271264656305"><ele>186.66666666666666</ele><time>2026-04-28T12:10:33.999Z</time></trkpt><trkpt lat="34.76932236691929" lon="-5.126992009049533"><ele>187.33333333333331</ele><time>2026-04-28T12:10:35.999Z</time></trkpt><trkpt lat="34.769218869514454" lon="-5.127036426956559"><ele>188.0</ele><time>2026-04-28T12:10:37.999Z</time></trkpt><trkpt lat="34.76911683207295" lon="-5.127086231621111"><ele>184.0</ele><time>2026-04-28T12:10:39.999Z</time></trkpt><trkpt lat="34.76911849177005" lon="-5.127720577979411"><ele>184.0</ele><time>2026-04-28T12:10:40.999Z</time></trkpt><trkpt lat="34.76905026120739" lon="-5.127828628434349"><ele>184.0</ele><time>2026-04-28T12:10:42.999Z</time></trkpt><trkpt lat="34.769011592001654" lon="-5.127930257792448"><ele>184.0</ele><time>2026-04-28T12:10:44.999Z</time></trkpt><trkpt lat="34.768949731540765" lon="-5.127973712236605"><ele>184.0</ele><time>2026-04-28T12:10:47.999Z</time></trkpt><trkpt lat="34.76888413778523" lon="-5.127924521347753"><ele>184.0</ele><time>2026-04-28T12:11:50Z</time></trkpt><trkpt lat="34.76880578664436" lon="-5.127877959409128"><ele>184.0</ele><time>2026-04-28T12:11:54Z</time></trkpt><trkpt lat="34.768772155402594" lon="-5.1278012744095625"><ele>184.0</ele><time>2026-04-28T12:11:56.999Z</time></trkpt><trkpt lat="34.76882870581268" lon="-5.127663718304212"><ele>184.0</ele><time>2026-04-28T12:11:58.999Z</time></trkpt><trkpt lat="34.76888660386825" lon="-5.127572001398406"><ele>184.0</ele><time>2026-04-28T12:11:59.999Z</time></trkpt><trkpt lat="34.76892913516858" lon="-5.127481057578436"><ele>184.0</ele><time>2026-04-28T12:12:00.999Z</time></trkpt><trkpt lat="34.76895015327133" lon="-5.1273967554695705"><ele>184.0</ele><time>2026-04-28T12:12:01.999Z</time></trkpt><trkpt lat="34.76896642932781" lon="-5.1273150921288515"><ele>184.0</ele><time>2026-04-28T12:12:02.999Z</time></trkpt><trkpt lat="34.768986937996665" lon="-5.127235805167505"><ele>184.66666666666669</ele><time>2026-04-28T12:12:03.999Z</time></trkpt><trkpt lat="34.769009655014585" lon="-5.127130694515539"><ele>185.33333333333334</ele><time>2026-04-28T12:12:05.999Z</time></trkpt><trkpt lat="34.7689627707278" lon="-5.127063029132647"><ele>186.0</ele><time>2026-04-28T12:12:07.999Z</time></trkpt><trkpt lat="34.76891233837369" lon="-5.126963544151215"><ele>186.66666666666666</ele><time>2026-04-28T12:12:09.999Z</time></trkpt><trkpt lat="34.76884697922306" lon="-5.126921090457153"><ele>187.33333333333331</ele><time>2026-04-28T12:12:11.999Z</time></trkpt><trkpt lat="34.768890108549186" lon="-5.126811851334304"><ele>188.0</ele><time>2026-04-28T12:12:13.999Z</time></trkpt><trkpt lat="34.76897921645813" lon="-5.126741223795063"><ele>188.0</ele><time>2026-04-28T12:12:15.999Z</time></trkpt><trkpt lat="34.76906015072696" lon="-5.126688800007027"><ele>188.0</ele><time>2026-04-28T12:12:16.999Z</time></trkpt><trkpt lat="34.769125649797665" lon="-5.126635998285096"><ele>188.0</ele><time>2026-04-28T12:12:17.999Z</time></trkpt><trkpt lat="34.76919537280366" lon="-5.126584696716028"><ele>188.0</ele><time>2026-04-28T12:12:19.999Z</time></trkpt><trkpt lat="34.769190211718374" lon="-5.126442811193761"><ele>188.0</ele><time>2026-04-28T12:12:20.999Z</time></trkpt><trkpt lat="34.7691187181868" lon="-5.126348981654886"><ele>188.5</ele><time>2026-04-28T12:12:22.999Z</time></trkpt><trkpt lat="34.76904296030798" lon="-5.126385395655518"><ele>189.0</ele><time>2026-04-28T12:12:23.999Z</time></trkpt><trkpt lat="34.76897176936209" lon="-5.126370230029685"><ele>189.5</ele><time>2026-04-28T12:12:24.999Z</time></trkpt><trkpt lat="34.768890690343106" lon="-5.126396609278813"><ele>190.0</ele><time>2026-04-28T12:12:25.999Z</time></trkpt><trkpt lat="34.76880925430219" lon="-5.126394717264597"><ele>190.5</ele><time>2026-04-28T12:12:26.999Z</time></trkpt><trkpt lat="34.76874968902687" lon="-5.126363312583972"><ele>191.0</ele><time>2026-04-28T12:12:27.999Z</time></trkpt><trkpt lat="34.76869283184331" lon="-5.126311075423524"><ele>191.0</ele><time>2026-04-28T12:12:28.999Z</time></trkpt><trkpt lat="34.76863416831753" lon="-5.126263140615641"><ele>191.0</ele><time>2026-04-28T12:12:29.999Z</time></trkpt><trkpt lat="34.76855943725184" lon="-5.126243673660065"><ele>191.0</ele><time>2026-04-28T12:12:30.999Z</time></trkpt><trkpt lat="34.768470231462075" lon="-5.126241615716718"><ele>191.0</ele><time>2026-04-28T12:12:31.999Z</time></trkpt><trkpt lat="34.768372492494706" lon="-5.126241685309754"><ele>191.0</ele><time>2026-04-28T12:12:32.999Z</time></trkpt><trkpt lat="34.768277776185414" lon="-5.126245685891744"><ele>191.0</ele><time>2026-04-28T12:12:33.999Z</time></trkpt><trkpt lat="34.76819761057682" lon="-5.126257187705458"><ele>192.0</ele><time>2026-04-28T12:12:34.999Z</time></trkpt><trkpt lat="34.76812732040193" lon="-5.126288393622883"><ele>193.0</ele><time>2026-04-28T12:12:35.999Z</time></trkpt><trkpt lat="34.76806028743968" lon="-5.126335690068189"><ele>194.0</ele><time>2026-04-28T12:12:36.999Z</time></trkpt><trkpt lat="34.76800865397517" lon="-5.1263856110992485"><ele>195.0</ele><time>2026-04-28T12:12:37.999Z</time></trkpt><trkpt lat="34.76792952910726" lon="-5.126432105679735"><ele>196.00000000000003</ele><time>2026-04-28T12:12:39.999Z</time></trkpt><trkpt lat="34.767820495332664" lon="-5.126536183611386"><ele>197.0</ele><time>2026-04-28T12:12:41.999Z</time></trkpt><trkpt lat="34.76773802625837" lon="-5.126641459399063"><ele>199.5</ele><time>2026-04-28T12:12:42.999Z</time></trkpt><trkpt lat="34.76765774243358" lon="-5.126759667858769"><ele>202.0</ele><time>2026-04-28T12:12:43.999Z</time></trkpt><trkpt lat="34.767566548855996" lon="-5.126883497296989"><ele>204.5</ele><time>2026-04-28T12:12:44.999Z</time></trkpt><trkpt lat="34.76747120503099" lon="-5.127008330201704"><ele>207.0</ele><time>2026-04-28T12:12:45.999Z</time></trkpt><trkpt lat="34.76738097197117" lon="-5.127134151984022"><ele>207.0</ele><time>2026-04-28T12:12:46.999Z</time></trkpt><trkpt lat="34.76729241895084" lon="-5.127259512553594"><ele>207.0</ele><time>2026-04-28T12:12:47.999Z</time></trkpt><trkpt lat="34.76719443762121" lon="-5.127394022004624"><ele>207.0</ele><time>2026-04-28T12:12:48.999Z</time></trkpt><trkpt lat="34.76709000223094" lon="-5.127533089503193"><ele>207.0</ele><time>2026-04-28T12:12:49.999Z</time></trkpt><trkpt lat="34.76698563907273" lon="-5.12767810829006"><ele>206.0</ele><time>2026-04-28T12:12:50.999Z</time></trkpt><trkpt lat="34.7668788928969" lon="-5.127829452058147"><ele>205.0</ele><time>2026-04-28T12:12:51.999Z</time></trkpt><trkpt lat="34.7667670031245" lon="-5.1279891035531735"><ele>204.0</ele><time>2026-04-28T12:12:52.999Z</time></trkpt><trkpt lat="34.766649943146994" lon="-5.128154651805293"><ele>199.0</ele><time>2026-04-28T12:12:53.999Z</time></trkpt><trkpt lat="34.76653281145774" lon="-5.12832505082249"><ele>194.0</ele><time>2026-04-28T12:12:54.999Z</time></trkpt><trkpt lat="34.76641008365493" lon="-5.128496925510986"><ele>189.0</ele><time>2026-04-28T12:12:55.999Z</time></trkpt><trkpt lat="34.76628684456581" lon="-5.128660493981438"><ele>189.0</ele><time>2026-04-28T12:12:56.999Z</time></trkpt><trkpt lat="34.76616388083979" lon="-5.128819097022926"><ele>189.0</ele><time>2026-04-28T12:12:57.999Z</time></trkpt><trkpt lat="34.76604242327284" lon="-5.128976668133736"><ele>189.0</ele><time>2026-04-28T12:12:58.999Z</time></trkpt><trkpt lat="34.76592532003083" lon="-5.129129897635499"><ele>189.33333333333334</ele><time>2026-04-28T12:12:59.999Z</time></trkpt><trkpt lat="34.76580931476131" lon="-5.12927447890968"><ele>189.66666666666669</ele><time>2026-04-28T12:13:00.999Z</time></trkpt><trkpt lat="34.76569072472228" lon="-5.129414925471879"><ele>190.0</ele><time>2026-04-28T12:13:01.999Z</time></trkpt><trkpt lat="34.765577350349616" lon="-5.129550211109709"><ele>190.0</ele><time>2026-04-28T12:13:02.999Z</time></trkpt><trkpt lat="34.76546492465235" lon="-5.129678067249022"><ele>190.0</ele><time>2026-04-28T12:13:03.999Z</time></trkpt><trkpt lat="34.765348334969374" lon="-5.129806420948477"><ele>190.0</ele><time>2026-04-28T12:13:04.999Z</time></trkpt><trkpt lat="34.765232797635406" lon="-5.129928049719962"><ele>197.0</ele><time>2026-04-28T12:13:05.999Z</time></trkpt><trkpt lat="34.76511352573391" lon="-5.130046525643514"><ele>204.0</ele><time>2026-04-28T12:13:06.999Z</time></trkpt><trkpt lat="34.764989089114756" lon="-5.130152995532365"><ele>211.0</ele><time>2026-04-28T12:13:07.999Z</time></trkpt><trkpt lat="34.76485720196358" lon="-5.130257478842414"><ele>211.0</ele><time>2026-04-28T12:13:08.999Z</time></trkpt><trkpt lat="34.764734009099634" lon="-5.130375579284578"><ele>211.0</ele><time>2026-04-28T12:13:09.999Z</time></trkpt><trkpt lat="34.764653603393796" lon="-5.130538275476805"><ele>211.0</ele><time>2026-04-28T12:13:10.999Z</time></trkpt><trkpt lat="34.76456664454278" lon="-5.1306953968639935"><ele>212.66666666666666</ele><time>2026-04-28T12:13:11.999Z</time></trkpt><trkpt lat="34.76447957919132" lon="-5.130864279781684"><ele>214.33333333333331</ele><time>2026-04-28T12:13:12.999Z</time></trkpt><trkpt lat="34.764397279887305" lon="-5.1310360541074544"><ele>216.0</ele><time>2026-04-28T12:13:13.999Z</time></trkpt><trkpt lat="34.76432063348839" lon="-5.131213300670923"><ele>216.0</ele><time>2026-04-28T12:13:14.999Z</time></trkpt><trkpt lat="34.76424595389232" lon="-5.1313809356171"><ele>216.0</ele><time>2026-04-28T12:13:15.999Z</time></trkpt><trkpt lat="34.764174020553405" lon="-5.131536697127579"><ele>216.0</ele><time>2026-04-28T12:13:16.999Z</time></trkpt><trkpt lat="34.76409625283776" lon="-5.131696107622672"><ele>212.66666666666669</ele><time>2026-04-28T12:13:17.999Z</time></trkpt><trkpt lat="34.764016674027204" lon="-5.131845181252111"><ele>209.33333333333334</ele><time>2026-04-28T12:13:18.999Z</time></trkpt><trkpt lat="34.76393613037344" lon="-5.131997606703982"><ele>206.0</ele><time>2026-04-28T12:13:19.999Z</time></trkpt><trkpt lat="34.763828974281665" lon="-5.132134002137567"><ele>206.0</ele><time>2026-04-28T12:13:20.999Z</time></trkpt><trkpt lat="34.76372740475931" lon="-5.132276918026329"><ele>206.0</ele><time>2026-04-28T12:13:21.999Z</time></trkpt><trkpt lat="34.763628848951406" lon="-5.1324111566386135"><ele>206.0</ele><time>2026-04-28T12:13:22.999Z</time></trkpt><trkpt lat="34.763481549568205" lon="-5.13249161913717"><ele>206.33333333333334</ele><time>2026-04-28T12:13:23.999Z</time></trkpt><trkpt lat="34.76332899455551" lon="-5.132574727818514"><ele>206.66666666666669</ele><time>2026-04-28T12:13:24.999Z</time></trkpt><trkpt lat="34.763167656081286" lon="-5.13264929393395"><ele>207.0</ele><time>2026-04-28T12:13:25.999Z</time></trkpt><trkpt lat="34.76300009712468" lon="-5.132707356325259"><ele>207.0</ele><time>2026-04-28T12:13:26.999Z</time></trkpt><trkpt lat="34.762834146560515" lon="-5.1327422174318915"><ele>207.0</ele><time>2026-04-28T12:13:27.999Z</time></trkpt><trkpt lat="34.76267540899897" lon="-5.132755061458571"><ele>207.0</ele><time>2026-04-28T12:13:28.999Z</time></trkpt><trkpt lat="34.76251846883745" lon="-5.132787509078208"><ele>208.0</ele><time>2026-04-28T12:13:29.999Z</time></trkpt><trkpt lat="34.76235860142871" lon="-5.132811283582391"><ele>209.0</ele><time>2026-04-28T12:13:30.999Z</time></trkpt><trkpt lat="34.76219857795604" lon="-5.132816474132352"><ele>210.0</ele><time>2026-04-28T12:13:31.999Z</time></trkpt><trkpt lat="34.762035290665466" lon="-5.132821532779962"><ele>210.0</ele><time>2026-04-28T12:13:32.999Z</time></trkpt><trkpt lat="34.76187139191408" lon="-5.132817475014804"><ele>210.0</ele><time>2026-04-28T12:13:33.999Z</time></trkpt><trkpt lat="34.76170880054857" lon="-5.132832249969491"><ele>210.0</ele><time>2026-04-28T12:13:34.999Z</time></trkpt><trkpt lat="34.76153390170306" lon="-5.132840494213155"><ele>210.0</ele><time>2026-04-28T12:13:35.999Z</time></trkpt><trkpt lat="34.761361613970976" lon="-5.132851444527272"><ele>210.0</ele><time>2026-04-28T12:13:36.999Z</time></trkpt><trkpt lat="34.761190004282504" lon="-5.1328867611930304"><ele>210.0</ele><time>2026-04-28T12:13:37.999Z</time></trkpt><trkpt lat="34.761017763322805" lon="-5.132897512297894"><ele>209.66666666666669</ele><time>2026-04-28T12:13:38.999Z</time></trkpt><trkpt lat="34.760855503987806" lon="-5.1328930069629966"><ele>209.33333333333334</ele><time>2026-04-28T12:13:39.999Z</time></trkpt><trkpt lat="34.76068241419864" lon="-5.132850457211346"><ele>209.0</ele><time>2026-04-28T12:13:40.999Z</time></trkpt><trkpt lat="34.760509464631326" lon="-5.132784826807777"><ele>209.0</ele><time>2026-04-28T12:13:41.999Z</time></trkpt><trkpt lat="34.76033544543128" lon="-5.132706977535955"><ele>209.0</ele><time>2026-04-28T12:13:42.999Z</time></trkpt><trkpt lat="34.76015876995179" lon="-5.132623581144078"><ele>209.0</ele><time>2026-04-28T12:13:43.999Z</time></trkpt><trkpt lat="34.75998467089347" lon="-5.132537288932119"><ele>207.0</ele><time>2026-04-28T12:13:44.999Z</time></trkpt><trkpt lat="34.75981412359212" lon="-5.132434527707951"><ele>205.0</ele><time>2026-04-28T12:13:45.999Z</time></trkpt><trkpt lat="34.75965209709816" lon="-5.132339540590233"><ele>203.0</ele><time>2026-04-28T12:13:46.999Z</time></trkpt><trkpt lat="34.75951367818812" lon="-5.132230599813169"><ele>203.25</ele><time>2026-04-28T12:13:47.999Z</time></trkpt><trkpt lat="34.759391344910405" lon="-5.132148657735745"><ele>203.5</ele><time>2026-04-28T12:13:48.999Z</time></trkpt><trkpt lat="34.75931233250937" lon="-5.132007359636739"><ele>203.75</ele><time>2026-04-28T12:13:49.999Z</time></trkpt><trkpt lat="34.759231654212094" lon="-5.131888265828994"><ele>204.0</ele><time>2026-04-28T12:13:50.999Z</time></trkpt><trkpt lat="34.759146999759615" lon="-5.131777358819788"><ele>204.0</ele><time>2026-04-28T12:13:51.999Z</time></trkpt><trkpt lat="34.75907449944874" lon="-5.131664165932302"><ele>204.0</ele><time>2026-04-28T12:13:52.999Z</time></trkpt><trkpt lat="34.75899869330415" lon="-5.131545720908747"><ele>204.0</ele><time>2026-04-28T12:13:53.999Z</time></trkpt><trkpt lat="34.758914093716115" lon="-5.1314189209153485"><ele>204.0</ele><time>2026-04-28T12:13:54.999Z</time></trkpt><trkpt lat="34.75881752679324" lon="-5.131286413648307"><ele>208.66666666666669</ele><time>2026-04-28T12:13:55.999Z</time></trkpt><trkpt lat="34.7587173109751" lon="-5.131137477653931"><ele>213.33333333333334</ele><time>2026-04-28T12:13:56.999Z</time></trkpt><trkpt lat="34.758633499335005" lon="-5.130991517533626"><ele>218.0</ele><time>2026-04-28T12:13:57.999Z</time></trkpt><trkpt lat="34.75855025078146" lon="-5.13084669021689"><ele>215.5</ele><time>2026-04-28T12:13:58.999Z</time></trkpt><trkpt lat="34.75849448079165" lon="-5.1306841239336825"><ele>213.0</ele><time>2026-04-28T12:13:59.999Z</time></trkpt><trkpt lat="34.75845396237018" lon="-5.130521777063971"><ele>210.5</ele><time>2026-04-28T12:14:00.999Z</time></trkpt><trkpt lat="34.758418017868934" lon="-5.130378335631666"><ele>208.0</ele><time>2026-04-28T12:14:01.999Z</time></trkpt><trkpt lat="34.758344662634784" lon="-5.130294880642651"><ele>208.0</ele><time>2026-04-28T12:14:02.999Z</time></trkpt><trkpt lat="34.758277553456274" lon="-5.13021997279143"><ele>208.0</ele><time>2026-04-28T12:14:03.999Z</time></trkpt><trkpt lat="34.75820152990611" lon="-5.130172991410182"><ele>208.0</ele><time>2026-04-28T12:14:04.999Z</time></trkpt><trkpt lat="34.75811391323677" lon="-5.130135268325515"><ele>208.0</ele><time>2026-04-28T12:14:05.999Z</time></trkpt><trkpt lat="34.758028633228164" lon="-5.130189926773985"><ele>208.0</ele><time>2026-04-28T12:14:06.999Z</time></trkpt><trkpt lat="34.75796426917918" lon="-5.130280829298922"><ele>208.0</ele><time>2026-04-28T12:14:07.999Z</time></trkpt><trkpt lat="34.75791287908753" lon="-5.1304035246899256"><ele>208.0</ele><time>2026-04-28T12:14:08.999Z</time></trkpt><trkpt lat="34.75787851890429" lon="-5.1305428740258625"><ele>208.0</ele><time>2026-04-28T12:14:09.999Z</time></trkpt><trkpt lat="34.75785641050219" lon="-5.130702048246187"><ele>208.0</ele><time>2026-04-28T12:14:10.999Z</time></trkpt><trkpt lat="34.757852512480824" lon="-5.130879081845049"><ele>207.25</ele><time>2026-04-28T12:14:11.999Z</time></trkpt><trkpt lat="34.757845532914416" lon="-5.131041977227597"><ele>206.5</ele><time>2026-04-28T12:14:12.999Z</time></trkpt><trkpt lat="34.75782775221051" lon="-5.131186319780572"><ele>205.75</ele><time>2026-04-28T12:14:13.999Z</time></trkpt><trkpt lat="34.75777945833504" lon="-5.131324220829684"><ele>205.0</ele><time>2026-04-28T12:14:14.999Z</time></trkpt><trkpt lat="34.75770246615314" lon="-5.131447238576252"><ele>205.25</ele><time>2026-04-28T12:14:15.999Z</time></trkpt><trkpt lat="34.757604764194845" lon="-5.131541059823881"><ele>205.5</ele><time>2026-04-28T12:14:16.999Z</time></trkpt><trkpt lat="34.7574948667697" lon="-5.131601937092412"><ele>205.75</ele><time>2026-04-28T12:14:17.999Z</time></trkpt><trkpt lat="34.757369882127485" lon="-5.131635896061588"><ele>206.0</ele><time>2026-04-28T12:14:18.999Z</time></trkpt><trkpt lat="34.75722896237289" lon="-5.131659860413315"><ele>206.0</ele><time>2026-04-28T12:14:19.999Z</time></trkpt><trkpt lat="34.75708472588606" lon="-5.1316834395025905"><ele>206.0</ele><time>2026-04-28T12:14:20.999Z</time></trkpt><trkpt lat="34.75693282449464" lon="-5.131712132111699"><ele>206.0</ele><time>2026-04-28T12:14:21.999Z</time></trkpt><trkpt lat="34.756778021357064" lon="-5.131752946092419"><ele>207.0</ele><time>2026-04-28T12:14:22.999Z</time></trkpt><trkpt lat="34.756620725519376" lon="-5.1317931321087045"><ele>208.0</ele><time>2026-04-28T12:14:23.999Z</time></trkpt><trkpt lat="34.756462401788276" lon="-5.131817273891382"><ele>209.0</ele><time>2026-04-28T12:14:24.999Z</time></trkpt><trkpt lat="34.75630020995089" lon="-5.13182250556835"><ele>209.0</ele><time>2026-04-28T12:14:25.999Z</time></trkpt><trkpt lat="34.756138789829706" lon="-5.131809931615016"><ele>209.0</ele><time>2026-04-28T12:14:26.999Z</time></trkpt><trkpt lat="34.75597414988845" lon="-5.131789866308588"><ele>209.0</ele><time>2026-04-28T12:14:27.999Z</time></trkpt><trkpt lat="34.75580564515626" lon="-5.1317580890421945"><ele>208.33333333333334</ele><time>2026-04-28T12:14:28.999Z</time></trkpt><trkpt lat="34.75563749548609" lon="-5.131712792458799"><ele>207.66666666666669</ele><time>2026-04-28T12:14:29.999Z</time></trkpt><trkpt lat="34.75546537389857" lon="-5.131662859024488"><ele>207.0</ele><time>2026-04-28T12:14:30.999Z</time></trkpt><trkpt lat="34.75529365318178" lon="-5.131608886680198"><ele>207.66666666666669</ele><time>2026-04-28T12:14:31.999Z</time></trkpt><trkpt lat="34.75513008318786" lon="-5.131560121986553"><ele>208.33333333333334</ele><time>2026-04-28T12:14:32.999Z</time></trkpt><trkpt lat="34.75497151737733" lon="-5.13152626047196"><ele>209.0</ele><time>2026-04-28T12:14:33.999Z</time></trkpt><trkpt lat="34.754815719872205" lon="-5.131513012348008"><ele>209.0</ele><time>2026-04-28T12:14:34.999Z</time></trkpt><trkpt lat="34.754645551885744" lon="-5.131509124014511"><ele>209.0</ele><time>2026-04-28T12:14:35.999Z</time></trkpt><trkpt lat="34.754483190944626" lon="-5.131560042036355"><ele>209.0</ele><time>2026-04-28T12:14:36.999Z</time></trkpt><trkpt lat="34.754309825560114" lon="-5.131618792574461"><ele>206.0</ele><time>2026-04-28T12:14:37.999Z</time></trkpt><trkpt lat="34.75413976671734" lon="-5.13166619580901"><ele>203.0</ele><time>2026-04-28T12:14:38.999Z</time></trkpt><trkpt lat="34.75397304668792" lon="-5.131738295823918"><ele>200.0</ele><time>2026-04-28T12:14:39.999Z</time></trkpt><trkpt lat="34.75379561135349" lon="-5.131777915305896"><ele>200.0</ele><time>2026-04-28T12:14:40.999Z</time></trkpt><trkpt lat="34.7536184516957" lon="-5.1317958253299825"><ele>200.0</ele><time>2026-04-28T12:14:41.999Z</time></trkpt><trkpt lat="34.753443286050945" lon="-5.131800532240985"><ele>200.0</ele><time>2026-04-28T12:14:42.999Z</time></trkpt><trkpt lat="34.75326444647308" lon="-5.131790004963277"><ele>201.0</ele><time>2026-04-28T12:14:43.999Z</time></trkpt><trkpt lat="34.75307961516776" lon="-5.131767593863938"><ele>202.0</ele><time>2026-04-28T12:14:44.999Z</time></trkpt><trkpt lat="34.75289958486475" lon="-5.131744432821792"><ele>203.0</ele><time>2026-04-28T12:14:45.999Z</time></trkpt><trkpt lat="34.75272204347609" lon="-5.131729951171786"><ele>203.33333333333334</ele><time>2026-04-28T12:14:46.999Z</time></trkpt><trkpt lat="34.75254747547514" lon="-5.131737287250117"><ele>203.66666666666669</ele><time>2026-04-28T12:14:47.999Z</time></trkpt><trkpt lat="34.75237226800941" lon="-5.131765786807477"><ele>204.0</ele><time>2026-04-28T12:14:48.999Z</time></trkpt><trkpt lat="34.75220495593327" lon="-5.131812990107873"><ele>204.0</ele><time>2026-04-28T12:14:49.999Z</time></trkpt><trkpt lat="34.75203914338924" lon="-5.131874200066964"><ele>204.0</ele><time>2026-04-28T12:14:50.999Z</time></trkpt><trkpt lat="34.75187695014804" lon="-5.131944515310648"><ele>204.0</ele><time>2026-04-28T12:14:51.999Z</time></trkpt><trkpt lat="34.75171396196449" lon="-5.132024764907313"><ele>205.33333333333331</ele><time>2026-04-28T12:14:52.999Z</time></trkpt><trkpt lat="34.751558164280645" lon="-5.1321171892131465"><ele>206.66666666666666</ele><time>2026-04-28T12:14:53.999Z</time></trkpt><trkpt lat="34.75141129304098" lon="-5.1322353224689286"><ele>208.0</ele><time>2026-04-28T12:14:54.999Z</time></trkpt><trkpt lat="34.75128675129726" lon="-5.132385975076538"><ele>206.66666666666666</ele><time>2026-04-28T12:14:55.999Z</time></trkpt><trkpt lat="34.75117543729959" lon="-5.132563189431484"><ele>205.33333333333331</ele><time>2026-04-28T12:14:56.999Z</time></trkpt><trkpt lat="34.751078962945286" lon="-5.132743186202922"><ele>204.0</ele><time>2026-04-28T12:14:57.999Z</time></trkpt><trkpt lat="34.75098988974156" lon="-5.1329084868936246"><ele>204.0</ele><time>2026-04-28T12:14:58.999Z</time></trkpt><trkpt lat="34.75089791924662" lon="-5.133063759787262"><ele>204.0</ele><time>2026-04-28T12:14:59.999Z</time></trkpt><trkpt lat="34.7508073551694" lon="-5.133214773086165"><ele>204.0</ele><time>2026-04-28T12:15:00.999Z</time></trkpt><trkpt lat="34.75072097016905" lon="-5.133358924510657"><ele>200.75</ele><time>2026-04-28T12:15:01.999Z</time></trkpt><trkpt lat="34.75063604128864" lon="-5.13349911872469"><ele>197.5</ele><time>2026-04-28T12:15:02.999Z</time></trkpt><trkpt lat="34.75055546043191" lon="-5.133633236678233"><ele>194.25</ele><time>2026-04-28T12:15:03.999Z</time></trkpt><trkpt lat="34.750481034059206" lon="-5.13376285431725"><ele>191.0</ele><time>2026-04-28T12:15:04.999Z</time></trkpt><trkpt lat="34.75040646689386" lon="-5.1338990053856275"><ele>191.0</ele><time>2026-04-28T12:15:05.999Z</time></trkpt><trkpt lat="34.7503288093983" lon="-5.1340330276103785"><ele>191.0</ele><time>2026-04-28T12:15:06.999Z</time></trkpt><trkpt lat="34.750249934564096" lon="-5.134169571464027"><ele>191.0</ele><time>2026-04-28T12:15:07.999Z</time></trkpt><trkpt lat="34.750165660330445" lon="-5.13430479116802"><ele>191.0</ele><time>2026-04-28T12:15:09Z</time></trkpt><trkpt lat="34.75007958131331" lon="-5.134440433714611"><ele>190.0</ele><time>2026-04-28T12:15:10Z</time></trkpt><trkpt lat="34.749997778332116" lon="-5.134575527054543"><ele>189.0</ele><time>2026-04-28T12:15:11Z</time></trkpt><trkpt lat="34.74992255937673" lon="-5.134706601036013"><ele>188.0</ele><time>2026-04-28T12:15:12Z</time></trkpt><trkpt lat="34.74985179444136" lon="-5.13483843789819"><ele>187.0</ele><time>2026-04-28T12:15:13Z</time></trkpt><trkpt lat="34.74977952474554" lon="-5.134970397797825"><ele>187.0</ele><time>2026-04-28T12:15:14Z</time></trkpt><trkpt lat="34.74970864863318" lon="-5.135103442096227"><ele>187.0</ele><time>2026-04-28T12:15:15Z</time></trkpt><trkpt lat="34.749640524502524" lon="-5.135227358374603"><ele>187.0</ele><time>2026-04-28T12:15:16Z</time></trkpt><trkpt lat="34.74957210997207" lon="-5.1353445747860915"><ele>187.0</ele><time>2026-04-28T12:15:17Z</time></trkpt><trkpt lat="34.749509441769135" lon="-5.135453161289831"><ele>187.0</ele><time>2026-04-28T12:15:18Z</time></trkpt><trkpt lat="34.749450475946986" lon="-5.135554877753781"><ele>187.0</ele><time>2026-04-28T12:15:19Z</time></trkpt><trkpt lat="34.74938699732406" lon="-5.135661996679094"><ele>187.0</ele><time>2026-04-28T12:15:20Z</time></trkpt><trkpt lat="34.74932285030263" lon="-5.135760672783"><ele>187.0</ele><time>2026-04-28T12:15:21Z</time></trkpt><trkpt lat="34.74925318352115" lon="-5.135853685137107"><ele>187.0</ele><time>2026-04-28T12:15:22Z</time></trkpt><trkpt lat="34.749170193285096" lon="-5.135937269734109"><ele>187.5</ele><time>2026-04-28T12:15:23Z</time></trkpt><trkpt lat="34.749081733103836" lon="-5.136001377608855"><ele>188.0</ele><time>2026-04-28T12:15:24Z</time></trkpt><trkpt lat="34.74899849533519" lon="-5.136047408473478"><ele>188.5</ele><time>2026-04-28T12:15:25Z</time></trkpt><trkpt lat="34.748930044518936" lon="-5.1360954748054315"><ele>189.0</ele><time>2026-04-28T12:15:26Z</time></trkpt><trkpt lat="34.74885127913846" lon="-5.136102601425411"><ele>189.5</ele><time>2026-04-28T12:15:27Z</time></trkpt><trkpt lat="34.74878463214803" lon="-5.136123859540171"><ele>190.0</ele><time>2026-04-28T12:15:28Z</time></trkpt><trkpt lat="34.74867092821569" lon="-5.136160480374073"><ele>189.75</ele><time>2026-04-28T12:15:30Z</time></trkpt><trkpt lat="34.74852964708821" lon="-5.136190561191696"><ele>189.5</ele><time>2026-04-28T12:15:32Z</time></trkpt><trkpt lat="34.74843393763813" lon="-5.136206145279853"><ele>189.25</ele><time>2026-04-28T12:15:33Z</time></trkpt><trkpt lat="34.74831833896563" lon="-5.13621771472429"><ele>189.0</ele><time>2026-04-28T12:15:34Z</time></trkpt><trkpt lat="34.74818292464238" lon="-5.136228527504899"><ele>189.0</ele><time>2026-04-28T12:15:35Z</time></trkpt><trkpt lat="34.74803398532541" lon="-5.136239657366928"><ele>189.0</ele><time>2026-04-28T12:15:36Z</time></trkpt><trkpt lat="34.74786418136089" lon="-5.136249668500567"><ele>189.0</ele><time>2026-04-28T12:15:37Z</time></trkpt><trkpt lat="34.7476909947015" lon="-5.136263595700384"><ele>187.66666666666666</ele><time>2026-04-28T12:15:38Z</time></trkpt><trkpt lat="34.747519577734714" lon="-5.136277378728642"><ele>186.33333333333331</ele><time>2026-04-28T12:15:39Z</time></trkpt><trkpt lat="34.74737040812937" lon="-5.136287795782045"><ele>185.0</ele><time>2026-04-28T12:15:40Z</time></trkpt><trkpt lat="34.747215415611315" lon="-5.136302531408712"><ele>185.0</ele><time>2026-04-28T12:15:41Z</time></trkpt><trkpt lat="34.747064415289444" lon="-5.136315654241579"><ele>185.0</ele><time>2026-04-28T12:15:42Z</time></trkpt><trkpt lat="34.74691103296192" lon="-5.136326915296036"><ele>185.0</ele><time>2026-04-28T12:15:43Z</time></trkpt><trkpt lat="34.74676071383233" lon="-5.136337276452038"><ele>184.75</ele><time>2026-04-28T12:15:44Z</time></trkpt><trkpt lat="34.74661426108546" lon="-5.136353804225982"><ele>184.5</ele><time>2026-04-28T12:15:45Z</time></trkpt><trkpt lat="34.746477020162374" lon="-5.13637116798553"><ele>184.25</ele><time>2026-04-28T12:15:46Z</time></trkpt><trkpt lat="34.74633643447184" lon="-5.136399063416611"><ele>184.0</ele><time>2026-04-28T12:15:47Z</time></trkpt><trkpt lat="34.74619540170058" lon="-5.13643138788467"><ele>184.0</ele><time>2026-04-28T12:15:48Z</time></trkpt><trkpt lat="34.74604773797999" lon="-5.136405606373282"><ele>184.0</ele><time>2026-04-28T12:15:49Z</time></trkpt><trkpt lat="34.74589646831217" lon="-5.136416979570152"><ele>184.0</ele><time>2026-04-28T12:15:50Z</time></trkpt><trkpt lat="34.74573235131841" lon="-5.136425096283176"><ele>183.5</ele><time>2026-04-28T12:15:51Z</time></trkpt><trkpt lat="34.74557159206875" lon="-5.136425266136649"><ele>183.0</ele><time>2026-04-28T12:15:52Z</time></trkpt><trkpt lat="34.745422736896295" lon="-5.13641087665519"><ele>182.5</ele><time>2026-04-28T12:15:53Z</time></trkpt><trkpt lat="34.74531172051969" lon="-5.1363936929422715"><ele>182.0</ele><time>2026-04-28T12:15:54Z</time></trkpt><trkpt lat="34.74520852936261" lon="-5.136358271803685"><ele>180.8</ele><time>2026-04-28T12:15:55Z</time></trkpt><trkpt lat="34.74511561935944" lon="-5.136321801439293"><ele>179.6</ele><time>2026-04-28T12:15:56Z</time></trkpt><trkpt lat="34.745025987249505" lon="-5.136289052270742"><ele>178.4</ele><time>2026-04-28T12:15:57Z</time></trkpt><trkpt lat="34.74494550558506" lon="-5.136266937062387"><ele>177.20000000000002</ele><time>2026-04-28T12:15:58Z</time></trkpt><trkpt lat="34.74487976242793" lon="-5.136242498136026"><ele>176.0</ele><time>2026-04-28T12:15:59Z</time></trkpt><trkpt lat="34.74475711958302" lon="-5.136201786634565"><ele>176.0</ele><time>2026-04-28T12:16:01Z</time></trkpt><trkpt lat="34.74469321950243" lon="-5.136186788434944"><ele>176.0</ele><time>2026-04-28T12:16:02Z</time></trkpt><trkpt lat="34.744581649002754" lon="-5.136165877251136"><ele>176.0</ele><time>2026-04-28T12:16:04Z</time></trkpt><trkpt lat="34.744487911286534" lon="-5.136140490144841"><ele>176.0</ele><time>2026-04-28T12:16:06Z</time></trkpt><trkpt lat="34.74439250016381" lon="-5.1361190429438475"><ele>176.0</ele><time>2026-04-28T12:16:08Z</time></trkpt><trkpt lat="34.74429099064466" lon="-5.136083178074797"><ele>176.16666666666666</ele><time>2026-04-28T12:16:10Z</time></trkpt><trkpt lat="34.74419678825002" lon="-5.136060793899681"><ele>176.33333333333331</ele><time>2026-04-28T12:16:12Z</time></trkpt><trkpt lat="34.74411074062498" lon="-5.1360302154086535"><ele>176.5</ele><time>2026-04-28T12:16:14Z</time></trkpt><trkpt lat="34.74401370084219" lon="-5.136007423481949"><ele>176.66666666666666</ele><time>2026-04-28T12:16:16Z</time></trkpt><trkpt lat="34.743924604704276" lon="-5.135988126052619"><ele>176.83333333333334</ele><time>2026-04-28T12:16:18Z</time></trkpt><trkpt lat="34.743851338906964" lon="-5.1359867407744435"><ele>177.0</ele><time>2026-04-28T12:16:20Z</time></trkpt><trkpt lat="34.74372076534277" lon="-5.135997359250165"><ele>177.0</ele><time>2026-04-28T12:16:22Z</time></trkpt><trkpt lat="34.74360929309905" lon="-5.136019942459299"><ele>177.0</ele><time>2026-04-28T12:16:23Z</time></trkpt><trkpt lat="34.74347984574943" lon="-5.136068960785567"><ele>177.0</ele><time>2026-04-28T12:16:24Z</time></trkpt><trkpt lat="34.743341850404214" lon="-5.1361434572990445"><ele>177.0</ele><time>2026-04-28T12:16:25Z</time></trkpt><trkpt lat="34.74319476294923" lon="-5.136236279156836"><ele>177.0</ele><time>2026-04-28T12:16:26Z</time></trkpt><trkpt lat="34.743036964373985" lon="-5.136337035378937"><ele>177.0</ele><time>2026-04-28T12:16:27Z</time></trkpt><trkpt lat="34.74287411643571" lon="-5.136435420149565"><ele>177.0</ele><time>2026-04-28T12:16:28Z</time></trkpt><trkpt lat="34.74270765943686" lon="-5.136535254033605"><ele>177.66666666666666</ele><time>2026-04-28T12:16:29Z</time></trkpt><trkpt lat="34.742538672659144" lon="-5.136642051240467"><ele>178.33333333333331</ele><time>2026-04-28T12:16:30Z</time></trkpt><trkpt lat="34.742374487535805" lon="-5.136747382648717"><ele>179.0</ele><time>2026-04-28T12:16:31Z</time></trkpt><trkpt lat="34.742208593068675" lon="-5.1368517990930185"><ele>179.0</ele><time>2026-04-28T12:16:32Z</time></trkpt><trkpt lat="34.742042056904715" lon="-5.136951861536589"><ele>179.0</ele><time>2026-04-28T12:16:33Z</time></trkpt><trkpt lat="34.741876209835645" lon="-5.137054490009494"><ele>179.0</ele><time>2026-04-28T12:16:34Z</time></trkpt><trkpt lat="34.74171359657835" lon="-5.137156991539145"><ele>179.0</ele><time>2026-04-28T12:16:35Z</time></trkpt><trkpt lat="34.741552814991984" lon="-5.13725850348098"><ele>179.0</ele><time>2026-04-28T12:16:36Z</time></trkpt><trkpt lat="34.74139313615389" lon="-5.137358841624425"><ele>179.0</ele><time>2026-04-28T12:16:37Z</time></trkpt><trkpt lat="34.74123483693818" lon="-5.137457061961436"><ele>179.0</ele><time>2026-04-28T12:16:38Z</time></trkpt><trkpt lat="34.741077086727046" lon="-5.137551923370304"><ele>179.0</ele><time>2026-04-28T12:16:39Z</time></trkpt><trkpt lat="34.7409206329702" lon="-5.137636590582765"><ele>179.0</ele><time>2026-04-28T12:16:40Z</time></trkpt><trkpt lat="34.74076532382366" lon="-5.137708124831273"><ele>179.0</ele><time>2026-04-28T12:16:41Z</time></trkpt><trkpt lat="34.74061406447216" lon="-5.137754064211811"><ele>179.0</ele><time>2026-04-28T12:16:42Z</time></trkpt><trkpt lat="34.74046214506362" lon="-5.137763826895064"><ele>179.0</ele><time>2026-04-28T12:16:43Z</time></trkpt><trkpt lat="34.74030678384519" lon="-5.137739654885081"><ele>180.33333333333331</ele><time>2026-04-28T12:16:44Z</time></trkpt><trkpt lat="34.74015263474827" lon="-5.1376866378554595"><ele>181.66666666666666</ele><time>2026-04-28T12:16:45Z</time></trkpt><trkpt lat="34.74000463777428" lon="-5.137611334470333"><ele>183.0</ele><time>2026-04-28T12:16:46Z</time></trkpt><trkpt lat="34.739858452016605" lon="-5.1375247521419425"><ele>183.0</ele><time>2026-04-28T12:16:47Z</time></trkpt><trkpt lat="34.73970333331737" lon="-5.137437102475502"><ele>183.0</ele><time>2026-04-28T12:16:48Z</time></trkpt><trkpt lat="34.739547963390564" lon="-5.137354044671339"><ele>183.0</ele><time>2026-04-28T12:16:49Z</time></trkpt><trkpt lat="34.73940631571341" lon="-5.137278646838192"><ele>184.0</ele><time>2026-04-28T12:16:50Z</time></trkpt><trkpt lat="34.73926920282938" lon="-5.1372010234527385"><ele>185.0</ele><time>2026-04-28T12:16:51Z</time></trkpt><trkpt lat="34.73912886228333" lon="-5.137151945798339"><ele>186.0</ele><time>2026-04-28T12:16:52Z</time></trkpt><trkpt lat="34.739005592349216" lon="-5.137072672538445"><ele>187.0</ele><time>2026-04-28T12:16:53Z</time></trkpt><trkpt lat="34.73888522476168" lon="-5.137011408073652"><ele>187.0</ele><time>2026-04-28T12:16:54Z</time></trkpt><trkpt lat="34.73878240441613" lon="-5.136936958598576"><ele>187.0</ele><time>2026-04-28T12:16:55Z</time></trkpt><trkpt lat="34.73869268104718" lon="-5.13687744620377"><ele>187.0</ele><time>2026-04-28T12:16:56Z</time></trkpt><trkpt lat="34.73863894384671" lon="-5.1367682149406635"><ele>187.0</ele><time>2026-04-28T12:16:57Z</time></trkpt><trkpt lat="34.73860712085268" lon="-5.136649637904486"><ele>187.0</ele><time>2026-04-28T12:16:58Z</time></trkpt><trkpt lat="34.73859428074745" lon="-5.13651335652234"><ele>188.75</ele><time>2026-04-28T12:16:59Z</time></trkpt><trkpt lat="34.73858822263798" lon="-5.136364367626434"><ele>190.5</ele><time>2026-04-28T12:17:00Z</time></trkpt><trkpt lat="34.738584708544664" lon="-5.136222671102509"><ele>192.25</ele><time>2026-04-28T12:17:01Z</time></trkpt><trkpt lat="34.73855994213712" lon="-5.136096916414298"><ele>194.0</ele><time>2026-04-28T12:17:02Z</time></trkpt><trkpt lat="34.73848371757287" lon="-5.135971425648935"><ele>194.0</ele><time>2026-04-28T12:17:03Z</time></trkpt><trkpt lat="34.73838441398556" lon="-5.135861329831417"><ele>194.0</ele><time>2026-04-28T12:17:04Z</time></trkpt><trkpt lat="34.73828284205251" lon="-5.1357916829980335"><ele>194.0</ele><time>2026-04-28T12:17:05Z</time></trkpt><trkpt lat="34.73818066687429" lon="-5.135741568217592"><ele>194.0</ele><time>2026-04-28T12:17:06Z</time></trkpt><trkpt lat="34.73806747606147" lon="-5.1357218857175075"><ele>194.25</ele><time>2026-04-28T12:17:07Z</time></trkpt><trkpt lat="34.737938886015854" lon="-5.135715914056805"><ele>194.5</ele><time>2026-04-28T12:17:08Z</time></trkpt><trkpt lat="34.7378033518089" lon="-5.135692184964195"><ele>194.75</ele><time>2026-04-28T12:17:09Z</time></trkpt><trkpt lat="34.73765800579373" lon="-5.135657776119736"><ele>195.0</ele><time>2026-04-28T12:17:10Z</time></trkpt><trkpt lat="34.73751955202558" lon="-5.135628389837484"><ele>195.0</ele><time>2026-04-28T12:17:11Z</time></trkpt><trkpt lat="34.73739106470469" lon="-5.135596974610693"><ele>195.0</ele><time>2026-04-28T12:17:12Z</time></trkpt><trkpt lat="34.73727643232909" lon="-5.135563735123299"><ele>195.0</ele><time>2026-04-28T12:17:13Z</time></trkpt><trkpt lat="34.73716895162489" lon="-5.135536165987762"><ele>195.0</ele><time>2026-04-28T12:17:14Z</time></trkpt><trkpt lat="34.73705863411209" lon="-5.135510301617248"><ele>195.0</ele><time>2026-04-28T12:17:15Z</time></trkpt><trkpt lat="34.73696282645302" lon="-5.135487963307851"><ele>195.0</ele><time>2026-04-28T12:17:16Z</time></trkpt><trkpt lat="34.73687967201448" lon="-5.135469922678661"><ele>195.0</ele><time>2026-04-28T12:17:17Z</time></trkpt><trkpt lat="34.736806049654625" lon="-5.135456678877015"><ele>195.0</ele><time>2026-04-28T12:17:18Z</time></trkpt><trkpt lat="34.73673512533492" lon="-5.135447139044115"><ele>195.0</ele><time>2026-04-28T12:17:19Z</time></trkpt><trkpt lat="34.736669660449586" lon="-5.135441801622474"><ele>195.0</ele><time>2026-04-28T12:17:20Z</time></trkpt><trkpt lat="34.736561562749166" lon="-5.135453662694537"><ele>197.0</ele><time>2026-04-28T12:17:22Z</time></trkpt><trkpt lat="34.73646955774156" lon="-5.13547810861671"><ele>199.0</ele><time>2026-04-28T12:17:24Z</time></trkpt><trkpt lat="34.73640311032043" lon="-5.135493489959418"><ele>201.0</ele><time>2026-04-28T12:17:26Z</time></trkpt><trkpt lat="34.73637587061898" lon="-5.135422254171234"><ele>203.0</ele><time>2026-04-28T12:19:05Z</time></trkpt><trkpt lat="34.736312714776744" lon="-5.135456838702007"><ele>205.0</ele><time>2026-04-28T13:03:03Z</time></trkpt><trkpt lat="34.73629232035184" lon="-5.135371946015577"><ele>207.0</ele><time>2026-04-28T13:03:15Z</time></trkpt><trkpt lat="34.73634058584529" lon="-5.135239700617977"><ele>207.0</ele><time>2026-04-28T13:05:50.013Z</time></trkpt><trkpt lat="34.73631304998372" lon="-5.135051015923152"><ele>207.0</ele><time>2026-04-28T13:06:00.015Z</time></trkpt><trkpt lat="34.73634155840008" lon="-5.134980609645445"><ele>207.0</ele><time>2026-04-28T13:06:14.015Z</time></trkpt><trkpt lat="34.73636252857978" lon="-5.134903267625486"><ele>207.0</ele><time>2026-04-28T13:06:15.015Z</time></trkpt><trkpt lat="34.73637895478579" lon="-5.1349833464872585"><ele>207.0</ele><time>2026-04-28T13:06:27.014Z</time></trkpt><trkpt lat="34.736397253079986" lon="-5.13529677931922"><ele>207.0</ele><time>2026-04-28T13:07:37.017Z</time></trkpt><trkpt lat="34.73640965376213" lon="-5.135398819025185"><ele>207.0</ele><time>2026-04-28T13:07:41.999Z</time></trkpt><trkpt lat="34.736371547308806" lon="-5.135460211476174"><ele>207.0</ele><time>2026-04-28T13:07:50Z</time></trkpt><trkpt lat="34.736304572378536" lon="-5.1355127000792615"><ele>207.0</ele><time>2026-04-28T13:12:20.999Z</time></trkpt><trkpt lat="34.73618878283329" lon="-5.135613421331383"><ele>207.0</ele><time>2026-04-28T13:12:22.999Z</time></trkpt><trkpt lat="34.73609249532855" lon="-5.135672897266115"><ele>209.0</ele><time>2026-04-28T13:12:23.999Z</time></trkpt><trkpt lat="34.735995881965856" lon="-5.135741871239168"><ele>211.0</ele><time>2026-04-28T13:12:24.999Z</time></trkpt><trkpt lat="34.73590498409966" lon="-5.135803469600355"><ele>213.0</ele><time>2026-04-28T13:12:25.999Z</time></trkpt><trkpt lat="34.73583039124345" lon="-5.135852555722434"><ele>215.0</ele><time>2026-04-28T13:12:26.999Z</time></trkpt><trkpt lat="34.73576303624268" lon="-5.135902167804474"><ele>217.0</ele><time>2026-04-28T13:12:27.999Z</time></trkpt><trkpt lat="34.7356932574669" lon="-5.1359555542098585"><ele>217.0</ele><time>2026-04-28T13:12:28.999Z</time></trkpt><trkpt lat="34.73561334710618" lon="-5.136007055415764"><ele>217.0</ele><time>2026-04-28T13:12:29.999Z</time></trkpt><trkpt lat="34.73554053929291" lon="-5.136055913276312"><ele>217.0</ele><time>2026-04-28T13:12:30.999Z</time></trkpt><trkpt lat="34.73547587236099" lon="-5.136090545104742"><ele>217.0</ele><time>2026-04-28T13:12:31.999Z</time></trkpt><trkpt lat="34.73541560856561" lon="-5.136128029125194"><ele>217.0</ele><time>2026-04-28T13:12:32.999Z</time></trkpt><trkpt lat="34.73528260572665" lon="-5.136187995625519"><ele>218.0</ele><time>2026-04-28T13:12:34.999Z</time></trkpt><trkpt lat="34.735189839966274" lon="-5.136211742001147"><ele>219.0</ele><time>2026-04-28T13:12:35.999Z</time></trkpt><trkpt lat="34.735087673895585" lon="-5.13622245874742"><ele>220.0</ele><time>2026-04-28T13:12:36.999Z</time></trkpt><trkpt lat="34.734971164176706" lon="-5.1362044548141075"><ele>221.0</ele><time>2026-04-28T13:12:37.999Z</time></trkpt><trkpt lat="34.73485474723829" lon="-5.136174848966138"><ele>222.0</ele><time>2026-04-28T13:12:38.999Z</time></trkpt><trkpt lat="34.73473033994546" lon="-5.1361466443715775"><ele>222.0</ele><time>2026-04-28T13:12:39.999Z</time></trkpt><trkpt lat="34.734614057212255" lon="-5.136110571175683"><ele>222.0</ele><time>2026-04-28T13:12:40.999Z</time></trkpt><trkpt lat="34.734513791971615" lon="-5.136075652543133"><ele>222.0</ele><time>2026-04-28T13:12:41.999Z</time></trkpt><trkpt lat="34.734420528393606" lon="-5.136046475951035"><ele>222.0</ele><time>2026-04-28T13:12:42.999Z</time></trkpt><trkpt lat="34.734325058196625" lon="-5.136026784524635"><ele>222.0</ele><time>2026-04-28T13:12:43.999Z</time></trkpt><trkpt lat="34.73422515294239" lon="-5.136025159017324"><ele>223.0</ele><time>2026-04-28T13:12:44.999Z</time></trkpt><trkpt lat="34.73412681975474" lon="-5.136038385319201"><ele>224.0</ele><time>2026-04-28T13:12:45.999Z</time></trkpt><trkpt lat="34.73402894813716" lon="-5.136072154932571"><ele>225.0</ele><time>2026-04-28T13:12:46.999Z</time></trkpt><trkpt lat="34.733931829794216" lon="-5.136130800001725"><ele>226.0</ele><time>2026-04-28T13:12:47.999Z</time></trkpt><trkpt lat="34.7338375173583" lon="-5.136205391353604"><ele>227.0</ele><time>2026-04-28T13:12:48.999Z</time></trkpt><trkpt lat="34.73374387566713" lon="-5.136285053776078"><ele>227.0</ele><time>2026-04-28T13:12:49.999Z</time></trkpt><trkpt lat="34.733643858297334" lon="-5.136359317436404"><ele>227.0</ele><time>2026-04-28T13:12:50.999Z</time></trkpt><trkpt lat="34.73355467858194" lon="-5.136445957938573"><ele>227.0</ele><time>2026-04-28T13:12:51.999Z</time></trkpt><trkpt lat="34.7334814877796" lon="-5.1365504766096866"><ele>227.0</ele><time>2026-04-28T13:12:52.999Z</time></trkpt><trkpt lat="34.733424546627326" lon="-5.136667449894817"><ele>228.75</ele><time>2026-04-28T13:12:53.999Z</time></trkpt><trkpt lat="34.73338908445337" lon="-5.136803941686734"><ele>230.5</ele><time>2026-04-28T13:12:54.999Z</time></trkpt><trkpt lat="34.73336355870714" lon="-5.136950905376834"><ele>232.25</ele><time>2026-04-28T13:12:55.999Z</time></trkpt><trkpt lat="34.73333454613666" lon="-5.1370995419962675"><ele>234.0</ele><time>2026-04-28T13:12:56.999Z</time></trkpt><trkpt lat="34.733284438823574" lon="-5.137232988798599"><ele>234.0</ele><time>2026-04-28T13:12:57.999Z</time></trkpt><trkpt lat="34.73320854306963" lon="-5.1373472512447975"><ele>234.0</ele><time>2026-04-28T13:12:58.999Z</time></trkpt><trkpt lat="34.73310801594164" lon="-5.137442981385408"><ele>234.0</ele><time>2026-04-28T13:12:59.999Z</time></trkpt><trkpt lat="34.73300240732068" lon="-5.137534009374114"><ele>234.0</ele><time>2026-04-28T13:13:00.999Z</time></trkpt><trkpt lat="34.732899947266596" lon="-5.1376170206494605"><ele>234.5</ele><time>2026-04-28T13:13:01.999Z</time></trkpt><trkpt lat="34.732790354872094" lon="-5.137698040197195"><ele>235.0</ele><time>2026-04-28T13:13:02.999Z</time></trkpt><trkpt lat="34.732676131114424" lon="-5.137783154651475"><ele>235.5</ele><time>2026-04-28T13:13:03.999Z</time></trkpt><trkpt lat="34.73255760526849" lon="-5.137871508835972"><ele>236.0</ele><time>2026-04-28T13:13:04.999Z</time></trkpt><trkpt lat="34.73244036559227" lon="-5.137961346512953"><ele>236.0</ele><time>2026-04-28T13:13:05.999Z</time></trkpt><trkpt lat="34.73232787022266" lon="-5.138060770604317"><ele>236.0</ele><time>2026-04-28T13:13:06.999Z</time></trkpt><trkpt lat="34.732223280941184" lon="-5.138181214267191"><ele>236.0</ele><time>2026-04-28T13:13:07.999Z</time></trkpt><trkpt lat="34.73212421334711" lon="-5.138311856342299"><ele>236.0</ele><time>2026-04-28T13:13:08.999Z</time></trkpt><trkpt lat="34.732035181086204" lon="-5.138458157575279"><ele>238.0</ele><time>2026-04-28T13:13:09.999Z</time></trkpt><trkpt lat="34.731960597200185" lon="-5.138628750962671"><ele>240.0</ele><time>2026-04-28T13:13:10.999Z</time></trkpt><trkpt lat="34.73189617089671" lon="-5.138813422012695"><ele>242.0</ele><time>2026-04-28T13:13:11.999Z</time></trkpt><trkpt lat="34.731831794204446" lon="-5.139003001199909"><ele>244.66666666666669</ele><time>2026-04-28T13:13:12.999Z</time></trkpt><trkpt lat="34.73176517009676" lon="-5.139194014227207"><ele>247.33333333333331</ele><time>2026-04-28T13:13:13.999Z</time></trkpt><trkpt lat="34.7316892452623" lon="-5.139384469051096"><ele>250.0</ele><time>2026-04-28T13:13:14.999Z</time></trkpt><trkpt lat="34.73161984597368" lon="-5.139581614968506"><ele>250.0</ele><time>2026-04-28T13:13:15.999Z</time></trkpt><trkpt lat="34.73154507154259" lon="-5.139775546854125"><ele>250.0</ele><time>2026-04-28T13:13:16.999Z</time></trkpt><trkpt lat="34.73146981237506" lon="-5.139966756843308"><ele>250.0</ele><time>2026-04-28T13:13:17.999Z</time></trkpt><trkpt lat="34.73139747593616" lon="-5.140156694409956"><ele>253.33333333333331</ele><time>2026-04-28T13:13:18.999Z</time></trkpt><trkpt lat="34.73132814963939" lon="-5.140341175662769"><ele>256.6666666666667</ele><time>2026-04-28T13:13:19.999Z</time></trkpt><trkpt lat="34.731261633442834" lon="-5.140521615641365"><ele>260.0</ele><time>2026-04-28T13:13:20.999Z</time></trkpt><trkpt lat="34.73119631453026" lon="-5.1406938218882"><ele>261.75</ele><time>2026-04-28T13:13:21.999Z</time></trkpt><trkpt lat="34.731143450500625" lon="-5.140848798466499"><ele>263.5</ele><time>2026-04-28T13:13:22.999Z</time></trkpt><trkpt lat="34.731122159179485" lon="-5.141003560410031"><ele>265.25</ele><time>2026-04-28T13:13:23.999Z</time></trkpt><trkpt lat="34.73113319315674" lon="-5.141179977193975"><ele>267.0</ele><time>2026-04-28T13:13:24.999Z</time></trkpt><trkpt lat="34.73116131049695" lon="-5.141353082596501"><ele>267.0</ele><time>2026-04-28T13:13:25.999Z</time></trkpt><trkpt lat="34.731192179225225" lon="-5.141503849304173"><ele>267.0</ele><time>2026-04-28T13:13:26.999Z</time></trkpt><trkpt lat="34.731213229244055" lon="-5.141642204152735"><ele>267.0</ele><time>2026-04-28T13:13:27.999Z</time></trkpt><trkpt lat="34.7312099162678" lon="-5.141773288632319"><ele>267.0</ele><time>2026-04-28T13:13:28.999Z</time></trkpt><trkpt lat="34.73117133883518" lon="-5.141903584325204"><ele>267.0</ele><time>2026-04-28T13:13:29.999Z</time></trkpt><trkpt lat="34.731102781252595" lon="-5.142041793216721"><ele>267.0</ele><time>2026-04-28T13:13:30.999Z</time></trkpt><trkpt lat="34.73100399958374" lon="-5.142181641191709"><ele>267.0</ele><time>2026-04-28T13:13:31.999Z</time></trkpt><trkpt lat="34.73090764813807" lon="-5.142327302841784"><ele>267.0</ele><time>2026-04-28T13:13:32.999Z</time></trkpt><trkpt lat="34.730825905527055" lon="-5.142467427143261"><ele>269.0</ele><time>2026-04-28T13:13:33.999Z</time></trkpt><trkpt lat="34.73077514873849" lon="-5.142598265239284"><ele>271.0</ele><time>2026-04-28T13:13:34.999Z</time></trkpt><trkpt lat="34.730760609132446" lon="-5.142727381872317"><ele>273.0</ele><time>2026-04-28T13:13:35.999Z</time></trkpt><trkpt lat="34.73078754145056" lon="-5.142845879905718"><ele>275.0</ele><time>2026-04-28T13:13:36.999Z</time></trkpt><trkpt lat="34.73084843047053" lon="-5.142944458384799"><ele>277.0</ele><time>2026-04-28T13:13:37.999Z</time></trkpt><trkpt lat="34.73092672820245" lon="-5.14304553118852"><ele>277.0</ele><time>2026-04-28T13:13:38.999Z</time></trkpt><trkpt lat="34.73101479469286" lon="-5.143147134560111"><ele>277.0</ele><time>2026-04-28T13:13:39.999Z</time></trkpt><trkpt lat="34.73109589041682" lon="-5.143251971318885"><ele>277.0</ele><time>2026-04-28T13:13:40.999Z</time></trkpt><trkpt lat="34.7311516631156" lon="-5.143371977919206"><ele>277.0</ele><time>2026-04-28T13:13:41.999Z</time></trkpt><trkpt lat="34.731174698329475" lon="-5.143506697910838"><ele>279.25</ele><time>2026-04-28T13:13:42.999Z</time></trkpt><trkpt lat="34.731161272794246" lon="-5.143639183967938"><ele>281.5</ele><time>2026-04-28T13:13:43.999Z</time></trkpt><trkpt lat="34.73111885409639" lon="-5.143765117709934"><ele>283.75</ele><time>2026-04-28T13:13:44.999Z</time></trkpt><trkpt lat="34.73105100889537" lon="-5.143883958161087"><ele>286.0</ele><time>2026-04-28T13:13:45.999Z</time></trkpt><trkpt lat="34.73096394536547" lon="-5.143985495855177"><ele>288.5</ele><time>2026-04-28T13:13:46.999Z</time></trkpt><trkpt lat="34.730853075749245" lon="-5.1440606430369815"><ele>291.0</ele><time>2026-04-28T13:13:47.999Z</time></trkpt><trkpt lat="34.730726714573535" lon="-5.144100083820531"><ele>293.5</ele><time>2026-04-28T13:13:48.999Z</time></trkpt><trkpt lat="34.730594377560244" lon="-5.144124523930343"><ele>296.0</ele><time>2026-04-28T13:13:49.999Z</time></trkpt><trkpt lat="34.73046318260779" lon="-5.144149316815542"><ele>296.0</ele><time>2026-04-28T13:13:50.999Z</time></trkpt><trkpt lat="34.73033902710545" lon="-5.144180738733774"><ele>296.0</ele><time>2026-04-28T13:13:51.999Z</time></trkpt><trkpt lat="34.73023438012675" lon="-5.144209698714618"><ele>296.0</ele><time>2026-04-28T13:13:52.999Z</time></trkpt><trkpt lat="34.730143905173826" lon="-5.144243448717213"><ele>296.0</ele><time>2026-04-28T13:13:53.999Z</time></trkpt><trkpt lat="34.73005526839603" lon="-5.144288159128822"><ele>296.0</ele><time>2026-04-28T13:13:54.999Z</time></trkpt><trkpt lat="34.729966308623375" lon="-5.144349648508103"><ele>297.40000000000003</ele><time>2026-04-28T13:13:55.999Z</time></trkpt><trkpt lat="34.72988252425115" lon="-5.14442983352012"><ele>298.8</ele><time>2026-04-28T13:13:56.999Z</time></trkpt><trkpt lat="34.72980597501125" lon="-5.144520009933436"><ele>300.20000000000005</ele><time>2026-04-28T13:13:57.999Z</time></trkpt><trkpt lat="34.729727864186344" lon="-5.144605819752456"><ele>301.6</ele><time>2026-04-28T13:13:58.999Z</time></trkpt><trkpt lat="34.72964484042854" lon="-5.144680923610377"><ele>303.0</ele><time>2026-04-28T13:13:59.999Z</time></trkpt><trkpt lat="34.72955202599218" lon="-5.144744580515345"><ele>303.0</ele><time>2026-04-28T13:14:00.999Z</time></trkpt><trkpt lat="34.72945553094611" lon="-5.144805350670657"><ele>303.0</ele><time>2026-04-28T13:14:01.999Z</time></trkpt><trkpt lat="34.72936682480539" lon="-5.14487941206186"><ele>303.0</ele><time>2026-04-28T13:14:02.999Z</time></trkpt><trkpt lat="34.72925901763493" lon="-5.144941878869185"><ele>303.0</ele><time>2026-04-28T13:14:03.999Z</time></trkpt><trkpt lat="34.729150774349385" lon="-5.144967353913289"><ele>303.0</ele><time>2026-04-28T13:14:04.999Z</time></trkpt><trkpt lat="34.729028201248504" lon="-5.144976753171955"><ele>307.25</ele><time>2026-04-28T13:14:05.999Z</time></trkpt><trkpt lat="34.728903341329946" lon="-5.144961359660401"><ele>311.5</ele><time>2026-04-28T13:14:06.999Z</time></trkpt><trkpt lat="34.72878040619809" lon="-5.144925463844737"><ele>315.75</ele><time>2026-04-28T13:14:07.999Z</time></trkpt><trkpt lat="34.7286631609638" lon="-5.144898994187398"><ele>320.0</ele><time>2026-04-28T13:14:08.999Z</time></trkpt><trkpt lat="34.72856688727328" lon="-5.14488290042175"><ele>320.33333333333337</ele><time>2026-04-28T13:14:09.999Z</time></trkpt><trkpt lat="34.728478514989185" lon="-5.144878065229011"><ele>320.6666666666667</ele><time>2026-04-28T13:14:10.999Z</time></trkpt><trkpt lat="34.72839298512509" lon="-5.144909576181681"><ele>321.0</ele><time>2026-04-28T13:14:11.999Z</time></trkpt><trkpt lat="34.728330510186424" lon="-5.144983714999033"><ele>321.3333333333333</ele><time>2026-04-28T13:14:12.999Z</time></trkpt><trkpt lat="34.72830790278529" lon="-5.145082282632087"><ele>321.66666666666663</ele><time>2026-04-28T13:14:13.999Z</time></trkpt><trkpt lat="34.728323045288064" lon="-5.1451911142250255"><ele>322.0</ele><time>2026-04-28T13:14:14.999Z</time></trkpt><trkpt lat="34.728381867344964" lon="-5.14528775607642"><ele>322.0</ele><time>2026-04-28T13:14:15.999Z</time></trkpt><trkpt lat="34.72847328631062" lon="-5.145361954017828"><ele>322.0</ele><time>2026-04-28T13:14:16.999Z</time></trkpt><trkpt lat="34.72859476932875" lon="-5.145408351304802"><ele>322.0</ele><time>2026-04-28T13:14:17.999Z</time></trkpt><trkpt lat="34.72873266935662" lon="-5.145440117663117"><ele>322.0</ele><time>2026-04-28T13:14:18.999Z</time></trkpt><trkpt lat="34.72886950282017" lon="-5.145453928552402"><ele>321.3333333333333</ele><time>2026-04-28T13:14:19.999Z</time></trkpt><trkpt lat="34.729025250423526" lon="-5.145447281076794"><ele>320.6666666666667</ele><time>2026-04-28T13:14:20.999Z</time></trkpt><trkpt lat="34.729191086269395" lon="-5.1454409925223645"><ele>320.0</ele><time>2026-04-28T13:14:21.999Z</time></trkpt><trkpt lat="34.729367194994325" lon="-5.145448943497145"><ele>321.33333333333337</ele><time>2026-04-28T13:14:22.999Z</time></trkpt><trkpt lat="34.72954287976986" lon="-5.145462207890331"><ele>322.6666666666667</ele><time>2026-04-28T13:14:23.999Z</time></trkpt><trkpt lat="34.72970001279657" lon="-5.14544732277414"><ele>324.0</ele><time>2026-04-28T13:14:24.999Z</time></trkpt><trkpt lat="34.72984475091832" lon="-5.145389405825746"><ele>324.0</ele><time>2026-04-28T13:14:25.999Z</time></trkpt><trkpt lat="34.729975387187295" lon="-5.145294112121603"><ele>324.0</ele><time>2026-04-28T13:14:26.999Z</time></trkpt><trkpt lat="34.73008898834467" lon="-5.1451924894111265"><ele>324.0</ele><time>2026-04-28T13:14:27.999Z</time></trkpt><trkpt lat="34.73018290435347" lon="-5.145098937910095"><ele>324.0</ele><time>2026-04-28T13:14:28.999Z</time></trkpt><trkpt lat="34.73026814788374" lon="-5.145040348650996"><ele>322.8333333333333</ele><time>2026-04-28T13:14:29.999Z</time></trkpt><trkpt lat="34.73036287648914" lon="-5.145020878918828"><ele>321.6666666666667</ele><time>2026-04-28T13:14:30.999Z</time></trkpt><trkpt lat="34.730449707020206" lon="-5.1450448451168125"><ele>320.5</ele><time>2026-04-28T13:14:31.999Z</time></trkpt><trkpt lat="34.730508794321814" lon="-5.145114237770749"><ele>319.33333333333337</ele><time>2026-04-28T13:14:32.999Z</time></trkpt><trkpt lat="34.73052574382102" lon="-5.14522132692862"><ele>318.1666666666667</ele><time>2026-04-28T13:14:33.999Z</time></trkpt><trkpt lat="34.73051327321542" lon="-5.145321074758059"><ele>317.0</ele><time>2026-04-28T13:14:34.999Z</time></trkpt><trkpt lat="34.730464447504325" lon="-5.145431457737151"><ele>317.0</ele><time>2026-04-28T13:14:35.999Z</time></trkpt><trkpt lat="34.730385709759936" lon="-5.145534055085185"><ele>317.0</ele><time>2026-04-28T13:14:36.999Z</time></trkpt><trkpt lat="34.73028897301663" lon="-5.145635660047518"><ele>317.0</ele><time>2026-04-28T13:14:37.999Z</time></trkpt><trkpt lat="34.73018066032197" lon="-5.1457447542389385"><ele>317.0</ele><time>2026-04-28T13:14:38.999Z</time></trkpt><trkpt lat="34.73006969468627" lon="-5.1458497669359895"><ele>325.0</ele><time>2026-04-28T13:14:39.999Z</time></trkpt><trkpt lat="34.72996464054788" lon="-5.14595496028254"><ele>333.0</ele><time>2026-04-28T13:14:40.999Z</time></trkpt><trkpt lat="34.72982557565714" lon="-5.1460552590911135"><ele>341.0</ele><time>2026-04-28T13:14:41.999Z</time></trkpt><trkpt lat="34.72967462066357" lon="-5.1461413673312695"><ele>341.0</ele><time>2026-04-28T13:14:42.999Z</time></trkpt><trkpt lat="34.72951234426618" lon="-5.146188101530671"><ele>341.0</ele><time>2026-04-28T13:14:43.999Z</time></trkpt><trkpt lat="34.729339523259796" lon="-5.146213509954822"><ele>341.0</ele><time>2026-04-28T13:14:44.999Z</time></trkpt><trkpt lat="34.72916407798071" lon="-5.146245240983851"><ele>342.33333333333337</ele><time>2026-04-28T13:14:45.999Z</time></trkpt><trkpt lat="34.72900005110698" lon="-5.146254588861655"><ele>343.6666666666667</ele><time>2026-04-28T13:14:46.999Z</time></trkpt><trkpt lat="34.72884327131818" lon="-5.146242233162371"><ele>345.0</ele><time>2026-04-28T13:14:47.999Z</time></trkpt><trkpt lat="34.728703848655485" lon="-5.146240342238277"><ele>345.0</ele><time>2026-04-28T13:14:48.999Z</time></trkpt><trkpt lat="34.72858745503612" lon="-5.14628975012241"><ele>345.0</ele><time>2026-04-28T13:14:49.999Z</time></trkpt><trkpt lat="34.72849983785508" lon="-5.146391870213502"><ele>345.0</ele><time>2026-04-28T13:14:50.999Z</time></trkpt><trkpt lat="34.72843412692929" lon="-5.146512320564468"><ele>345.0</ele><time>2026-04-28T13:14:51.999Z</time></trkpt><trkpt lat="34.72837266248921" lon="-5.146639970388236"><ele>349.0</ele><time>2026-04-28T13:14:52.999Z</time></trkpt><trkpt lat="34.72831273228261" lon="-5.1467875392463265"><ele>353.0</ele><time>2026-04-28T13:14:53.999Z</time></trkpt><trkpt lat="34.72826350162301" lon="-5.146950950739157"><ele>357.0</ele><time>2026-04-28T13:14:54.999Z</time></trkpt><trkpt lat="34.728226661233634" lon="-5.147125412548727"><ele>361.0</ele><time>2026-04-28T13:14:55.999Z</time></trkpt><trkpt lat="34.72817927605878" lon="-5.147294580713743"><ele>366.3333333333333</ele><time>2026-04-28T13:14:56.999Z</time></trkpt><trkpt lat="34.72810020273534" lon="-5.14744477752112"><ele>371.6666666666667</ele><time>2026-04-28T13:14:57.999Z</time></trkpt><trkpt lat="34.727997483795406" lon="-5.147584277618614"><ele>377.0</ele><time>2026-04-28T13:14:58.999Z</time></trkpt><trkpt lat="34.727882558885305" lon="-5.147720388180971"><ele>377.0</ele><time>2026-04-28T13:14:59.999Z</time></trkpt><trkpt lat="34.72776782285286" lon="-5.147858253612288"><ele>377.0</ele><time>2026-04-28T13:15:00.999Z</time></trkpt><trkpt lat="34.72766156971535" lon="-5.14800965994771"><ele>377.0</ele><time>2026-04-28T13:15:01.999Z</time></trkpt><trkpt lat="34.727559281796175" lon="-5.148162514170539"><ele>378.0</ele><time>2026-04-28T13:15:02.999Z</time></trkpt><trkpt lat="34.72746628423283" lon="-5.148302956215431"><ele>379.0</ele><time>2026-04-28T13:15:03.999Z</time></trkpt><trkpt lat="34.72737210522024" lon="-5.148412587046416"><ele>380.0</ele><time>2026-04-28T13:15:04.999Z</time></trkpt><trkpt lat="34.72727275338479" lon="-5.148478887170656"><ele>381.0</ele><time>2026-04-28T13:15:05.999Z</time></trkpt><trkpt lat="34.72716941348278" lon="-5.148499620489732"><ele>381.0</ele><time>2026-04-28T13:15:06.999Z</time></trkpt><trkpt lat="34.72705503278891" lon="-5.1484913621665465"><ele>381.0</ele><time>2026-04-28T13:15:07.999Z</time></trkpt><trkpt lat="34.726933084587884" lon="-5.148446854264067"><ele>381.0</ele><time>2026-04-28T13:15:08.999Z</time></trkpt><trkpt lat="34.726809724858875" lon="-5.148380098478318"><ele>381.0</ele><time>2026-04-28T13:15:09.999Z</time></trkpt><trkpt lat="34.72668046767621" lon="-5.148302386958073"><ele>382.25</ele><time>2026-04-28T13:15:10.999Z</time></trkpt><trkpt lat="34.726550370067095" lon="-5.148217224249614"><ele>383.5</ele><time>2026-04-28T13:15:11.999Z</time></trkpt><trkpt lat="34.72643131836802" lon="-5.148126625736178"><ele>384.75</ele><time>2026-04-28T13:15:12.999Z</time></trkpt><trkpt lat="34.72631672536762" lon="-5.1480404346774264"><ele>386.0</ele><time>2026-04-28T13:15:13.999Z</time></trkpt><trkpt lat="34.7261935563073" lon="-5.147977890022278"><ele>386.0</ele><time>2026-04-28T13:15:14.999Z</time></trkpt><trkpt lat="34.72606386356782" lon="-5.147931719427716"><ele>386.0</ele><time>2026-04-28T13:15:15.999Z</time></trkpt><trkpt lat="34.72592494241156" lon="-5.147890702109327"><ele>386.0</ele><time>2026-04-28T13:15:16.999Z</time></trkpt><trkpt lat="34.72577967757079" lon="-5.1478699701789905"><ele>386.0</ele><time>2026-04-28T13:15:17.999Z</time></trkpt><trkpt lat="34.72563070508557" lon="-5.147887365001591"><ele>386.0</ele><time>2026-04-28T13:15:18.999Z</time></trkpt><trkpt lat="34.72548420013964" lon="-5.147924890528729"><ele>386.0</ele><time>2026-04-28T13:15:19.999Z</time></trkpt><trkpt lat="34.72534184486038" lon="-5.147957815349199"><ele>386.0</ele><time>2026-04-28T13:15:20.999Z</time></trkpt><trkpt lat="34.72519310720092" lon="-5.147989981603394"><ele>386.0</ele><time>2026-04-28T13:15:21.999Z</time></trkpt><trkpt lat="34.72504019838839" lon="-5.148012456783998"><ele>386.66666666666663</ele><time>2026-04-28T13:15:22.999Z</time></trkpt><trkpt lat="34.72488598622576" lon="-5.148007800515344"><ele>387.33333333333337</ele><time>2026-04-28T13:15:23.999Z</time></trkpt><trkpt lat="34.72472240866532" lon="-5.147975929977562"><ele>388.0</ele><time>2026-04-28T13:15:24.999Z</time></trkpt><trkpt lat="34.72455698967146" lon="-5.147934007789242"><ele>389.6666666666667</ele><time>2026-04-28T13:15:25.999Z</time></trkpt><trkpt lat="34.72439233094394" lon="-5.147902429155022"><ele>391.33333333333337</ele><time>2026-04-28T13:15:26.999Z</time></trkpt><trkpt lat="34.72423691320275" lon="-5.147883915523262"><ele>393.0</ele><time>2026-04-28T13:15:27.999Z</time></trkpt><trkpt lat="34.724094333278536" lon="-5.147870113219486"><ele>393.0</ele><time>2026-04-28T13:15:28.999Z</time></trkpt><trkpt lat="34.72395835946718" lon="-5.147836467750353"><ele>393.0</ele><time>2026-04-28T13:15:29.999Z</time></trkpt><trkpt lat="34.72383244167767" lon="-5.1477710747992464"><ele>393.0</ele><time>2026-04-28T13:15:30.999Z</time></trkpt><trkpt lat="34.72371212246574" lon="-5.147669565479567"><ele>393.0</ele><time>2026-04-28T13:15:31.999Z</time></trkpt><trkpt lat="34.72362300868887" lon="-5.147542826961338"><ele>395.25</ele><time>2026-04-28T13:15:32.999Z</time></trkpt><trkpt lat="34.72353824666724" lon="-5.14741137098776"><ele>397.5</ele><time>2026-04-28T13:15:33.999Z</time></trkpt><trkpt lat="34.72344917095439" lon="-5.147282005647402"><ele>399.75</ele><time>2026-04-28T13:15:34.999Z</time></trkpt><trkpt lat="34.72333938663722" lon="-5.147159099557241"><ele>402.0</ele><time>2026-04-28T13:15:35.999Z</time></trkpt><trkpt lat="34.72322216749856" lon="-5.147021108392059"><ele>402.0</ele><time>2026-04-28T13:15:36.999Z</time></trkpt><trkpt lat="34.72310822751416" lon="-5.1468648004192055"><ele>402.0</ele><time>2026-04-28T13:15:37.999Z</time></trkpt><trkpt lat="34.72299526869933" lon="-5.146707034153868"><ele>402.0</ele><time>2026-04-28T13:15:38.999Z</time></trkpt><trkpt lat="34.72289093918242" lon="-5.146548785224224"><ele>399.0</ele><time>2026-04-28T13:15:39.999Z</time></trkpt><trkpt lat="34.7228135684188" lon="-5.146383721668012"><ele>396.0</ele><time>2026-04-28T13:15:40.999Z</time></trkpt><trkpt lat="34.722768300977805" lon="-5.146202095266137"><ele>393.0</ele><time>2026-04-28T13:15:41.999Z</time></trkpt><trkpt lat="34.72274989881674" lon="-5.146011188638313"><ele>393.0</ele><time>2026-04-28T13:15:42.999Z</time></trkpt><trkpt lat="34.72273981787714" lon="-5.145834628225393"><ele>393.0</ele><time>2026-04-28T13:15:43.999Z</time></trkpt><trkpt lat="34.72273617792582" lon="-5.145673188754546"><ele>393.0</ele><time>2026-04-28T13:15:44.999Z</time></trkpt><trkpt lat="34.722713779264225" lon="-5.145521382128827"><ele>393.0</ele><time>2026-04-28T13:15:45.999Z</time></trkpt><trkpt lat="34.722651896923146" lon="-5.145374441947799"><ele>398.5</ele><time>2026-04-28T13:15:46.999Z</time></trkpt><trkpt lat="34.7225558859059" lon="-5.145246937160157"><ele>404.0</ele><time>2026-04-28T13:15:47.999Z</time></trkpt><trkpt lat="34.72243843918171" lon="-5.145130778176337"><ele>409.5</ele><time>2026-04-28T13:15:48.999Z</time></trkpt><trkpt lat="34.722316995414694" lon="-5.1450196824100525"><ele>415.0</ele><time>2026-04-28T13:15:49.999Z</time></trkpt><trkpt lat="34.722227217472415" lon="-5.144887528350936"><ele>413.25</ele><time>2026-04-28T13:15:50.999Z</time></trkpt><trkpt lat="34.72215505697248" lon="-5.144734954480312"><ele>411.5</ele><time>2026-04-28T13:15:51.999Z</time></trkpt><trkpt lat="34.72209443613585" lon="-5.144569860731305"><ele>409.75</ele><time>2026-04-28T13:15:52.999Z</time></trkpt><trkpt lat="34.72205349279916" lon="-5.144407833643979"><ele>408.0</ele><time>2026-04-28T13:15:53.999Z</time></trkpt><trkpt lat="34.722032211634314" lon="-5.144258829759956"><ele>408.0</ele><time>2026-04-28T13:15:54.999Z</time></trkpt><trkpt lat="34.72202089245332" lon="-5.144125589156152"><ele>408.0</ele><time>2026-04-28T13:15:55.999Z</time></trkpt><trkpt lat="34.72200627005223" lon="-5.144018523180879"><ele>408.0</ele><time>2026-04-28T13:15:56.999Z</time></trkpt><trkpt lat="34.72196798992322" lon="-5.1439299427239575"><ele>408.0</ele><time>2026-04-28T13:15:57.999Z</time></trkpt><trkpt lat="34.72190035639845" lon="-5.143868459300692"><ele>408.0</ele><time>2026-04-28T13:15:58.999Z</time></trkpt><trkpt lat="34.721817008608895" lon="-5.143847453672428"><ele>409.0</ele><time>2026-04-28T13:15:59.999Z</time></trkpt><trkpt lat="34.72173616118957" lon="-5.1438742202077385"><ele>410.0</ele><time>2026-04-28T13:16:00.999Z</time></trkpt><trkpt lat="34.72167236210518" lon="-5.143965269281918"><ele>411.0</ele><time>2026-04-28T13:16:01.999Z</time></trkpt><trkpt lat="34.72163415677807" lon="-5.144082592227541"><ele>412.0</ele><time>2026-04-28T13:16:02.999Z</time></trkpt><trkpt lat="34.72160957656056" lon="-5.14422424465898"><ele>413.0</ele><time>2026-04-28T13:16:03.999Z</time></trkpt><trkpt lat="34.721579332067094" lon="-5.144370093064616"><ele>417.25</ele><time>2026-04-28T13:16:04.999Z</time></trkpt><trkpt lat="34.72152769813745" lon="-5.144512675842907"><ele>421.5</ele><time>2026-04-28T13:16:05.999Z</time></trkpt><trkpt lat="34.72145725528108" lon="-5.1446425617304925"><ele>425.75</ele><time>2026-04-28T13:16:06.999Z</time></trkpt><trkpt lat="34.72138879927081" lon="-5.144742202172368"><ele>430.0</ele><time>2026-04-28T13:16:07.999Z</time></trkpt><trkpt lat="34.72134471975167" lon="-5.144835405718817"><ele>431.4</ele><time>2026-04-28T13:16:09Z</time></trkpt><trkpt lat="34.72133995563346" lon="-5.144936822024462"><ele>432.8</ele><time>2026-04-28T13:16:10Z</time></trkpt><trkpt lat="34.72138061698239" lon="-5.14503070053392"><ele>434.20000000000005</ele><time>2026-04-28T13:16:11Z</time></trkpt><trkpt lat="34.72145778733171" lon="-5.145092420017772"><ele>435.6</ele><time>2026-04-28T13:16:12Z</time></trkpt><trkpt lat="34.72156215882916" lon="-5.145125215977291"><ele>437.0</ele><time>2026-04-28T13:16:13Z</time></trkpt><trkpt lat="34.72167874493073" lon="-5.14513692897531"><ele>436.99999999999994</ele><time>2026-04-28T13:16:14Z</time></trkpt><trkpt lat="34.721788098311606" lon="-5.14515809519569"><ele>437.0</ele><time>2026-04-28T13:16:15Z</time></trkpt><trkpt lat="34.72186286960287" lon="-5.145211743038781"><ele>437.0</ele><time>2026-04-28T13:16:16Z</time></trkpt><trkpt lat="34.721905847804585" lon="-5.145301327854639"><ele>437.0</ele><time>2026-04-28T13:16:17Z</time></trkpt><trkpt lat="34.721913585085346" lon="-5.145394568021414"><ele>436.99999999999994</ele><time>2026-04-28T13:16:18Z</time></trkpt><trkpt lat="34.72188783245336" lon="-5.145473890141227"><ele>437.0</ele><time>2026-04-28T13:16:19Z</time></trkpt><trkpt lat="34.72183079275564" lon="-5.145533290533266"><ele>437.0</ele><time>2026-04-28T13:16:20Z</time></trkpt><trkpt lat="34.72175510113457" lon="-5.14556935141705"><ele>437.00000000000006</ele><time>2026-04-28T13:16:21Z</time></trkpt><trkpt lat="34.721667525465286" lon="-5.145582928020358"><ele>437.00000000000006</ele><time>2026-04-28T13:16:22Z</time></trkpt><trkpt lat="34.721568910386985" lon="-5.145571121073871"><ele>437.0</ele><time>2026-04-28T13:16:23Z</time></trkpt><trkpt lat="34.72146162684539" lon="-5.145546894407554"><ele>437.0</ele><time>2026-04-28T13:16:24Z</time></trkpt><trkpt lat="34.72134230158333" lon="-5.145528781193306"><ele>437.0</ele><time>2026-04-28T13:16:25Z</time></trkpt><trkpt lat="34.72121329666225" lon="-5.145516822313024"><ele>437.0</ele><time>2026-04-28T13:16:26Z</time></trkpt><trkpt lat="34.72107804279893" lon="-5.145504869436794"><ele>437.0</ele><time>2026-04-28T13:16:27Z</time></trkpt><trkpt lat="34.720936029167525" lon="-5.145490895614229"><ele>437.0</ele><time>2026-04-28T13:16:28Z</time></trkpt><trkpt lat="34.7207849870255" lon="-5.145469755570637"><ele>443.66666666666663</ele><time>2026-04-28T13:16:29Z</time></trkpt><trkpt lat="34.72063694980658" lon="-5.1454297423763675"><ele>450.33333333333337</ele><time>2026-04-28T13:16:30Z</time></trkpt><trkpt lat="34.720490904231184" lon="-5.1453698206502025"><ele>457.0</ele><time>2026-04-28T13:16:31Z</time></trkpt><trkpt lat="34.720346951612484" lon="-5.145290529923966"><ele>461.33333333333337</ele><time>2026-04-28T13:16:32Z</time></trkpt><trkpt lat="34.720216254610136" lon="-5.145182694225721"><ele>465.66666666666663</ele><time>2026-04-28T13:16:33Z</time></trkpt><trkpt lat="34.720097554965726" lon="-5.14506503041221"><ele>470.0</ele><time>2026-04-28T13:16:34Z</time></trkpt><trkpt lat="34.719979821412245" lon="-5.14493472204133"><ele>466.3333333333333</ele><time>2026-04-28T13:16:35Z</time></trkpt><trkpt lat="34.71986473012648" lon="-5.144789163256894"><ele>462.66666666666663</ele><time>2026-04-28T13:16:36Z</time></trkpt><trkpt lat="34.71976985015952" lon="-5.144642353891776"><ele>459.0</ele><time>2026-04-28T13:16:37.001Z</time></trkpt><trkpt lat="34.719686572588586" lon="-5.1444956996331275"><ele>459.0</ele><time>2026-04-28T13:16:38.001Z</time></trkpt><trkpt lat="34.71960727877988" lon="-5.144346395360621"><ele>459.0</ele><time>2026-04-28T13:16:39.001Z</time></trkpt><trkpt lat="34.719528458929744" lon="-5.1441926337699275"><ele>459.0</ele><time>2026-04-28T13:16:40.001Z</time></trkpt><trkpt lat="34.71943583645893" lon="-5.1440397536377125"><ele>459.5</ele><time>2026-04-28T13:16:41.001Z</time></trkpt><trkpt lat="34.719317643957766" lon="-5.143920492179978"><ele>460.0</ele><time>2026-04-28T13:16:42.001Z</time></trkpt><trkpt lat="34.7191854011388" lon="-5.143842685788365"><ele>460.5</ele><time>2026-04-28T13:16:43.001Z</time></trkpt><trkpt lat="34.719039349102374" lon="-5.143811517294449"><ele>461.0</ele><time>2026-04-28T13:16:44.001Z</time></trkpt><trkpt lat="34.7188916387355" lon="-5.143797381318431"><ele>461.0</ele><time>2026-04-28T13:16:45.001Z</time></trkpt><trkpt lat="34.71876388747494" lon="-5.143773058102299"><ele>461.0</ele><time>2026-04-28T13:16:46.001Z</time></trkpt><trkpt lat="34.71864997362255" lon="-5.143723697479726"><ele>461.0</ele><time>2026-04-28T13:16:47.001Z</time></trkpt><trkpt lat="34.71855613570169" lon="-5.143644925738976"><ele>461.0</ele><time>2026-04-28T13:16:48.001Z</time></trkpt><trkpt lat="34.71849271429489" lon="-5.143544145385976"><ele>463.66666666666663</ele><time>2026-04-28T13:16:49.001Z</time></trkpt><trkpt lat="34.71843851712413" lon="-5.143451535693968"><ele>466.3333333333333</ele><time>2026-04-28T13:16:50.001Z</time></trkpt><trkpt lat="34.71843479591613" lon="-5.143339886671314"><ele>469.0</ele><time>2026-04-28T13:16:51.001Z</time></trkpt><trkpt lat="34.718411427648114" lon="-5.143265254266239"><ele>471.66666666666663</ele><time>2026-04-28T13:16:52.001Z</time></trkpt><trkpt lat="34.71837230164488" lon="-5.143168081410293"><ele>474.3333333333333</ele><time>2026-04-28T13:16:54.001Z</time></trkpt><trkpt lat="34.71836509729735" lon="-5.143065984161204"><ele>477.0</ele><time>2026-04-28T13:17:34Z</time></trkpt><trkpt lat="34.718355368304486" lon="-5.142980752814956"><ele>478.5</ele><time>2026-04-28T13:17:35Z</time></trkpt><trkpt lat="34.71832183232579" lon="-5.142875753881216"><ele>480.0</ele><time>2026-04-28T13:17:36Z</time></trkpt><trkpt lat="34.71826981764993" lon="-5.142760744214987"><ele>481.5</ele><time>2026-04-28T13:17:37Z</time></trkpt><trkpt lat="34.71819145713822" lon="-5.142638077812287"><ele>483.0</ele><time>2026-04-28T13:17:38Z</time></trkpt><trkpt lat="34.71808558198521" lon="-5.142524212701422"><ele>483.0</ele><time>2026-04-28T13:17:39Z</time></trkpt><trkpt lat="34.71794327824091" lon="-5.14244108916948"><ele>483.0</ele><time>2026-04-28T13:17:40Z</time></trkpt><trkpt lat="34.71780313242698" lon="-5.142349593712205"><ele>483.0</ele><time>2026-04-28T13:17:41Z</time></trkpt><trkpt lat="34.717681188876995" lon="-5.1422536198596625"><ele>486.75</ele><time>2026-04-28T13:17:42Z</time></trkpt><trkpt lat="34.71755967039228" lon="-5.142177246192539"><ele>490.5</ele><time>2026-04-28T13:17:43Z</time></trkpt><trkpt lat="34.71744136013116" lon="-5.142089849872089"><ele>494.25</ele><time>2026-04-28T13:17:44Z</time></trkpt><trkpt lat="34.71736290962355" lon="-5.141933989079839"><ele>498.0</ele><time>2026-04-28T13:17:45Z</time></trkpt><trkpt lat="34.717283866106044" lon="-5.141795203612989"><ele>498.0</ele><time>2026-04-28T13:17:46Z</time></trkpt><trkpt lat="34.71722173104573" lon="-5.141668153991865"><ele>498.0</ele><time>2026-04-28T13:17:47Z</time></trkpt><trkpt lat="34.71716732130396" lon="-5.14154627041665"><ele>498.0</ele><time>2026-04-28T13:17:48Z</time></trkpt><trkpt lat="34.717171602481024" lon="-5.14138755570432"><ele>498.0</ele><time>2026-04-28T13:17:49Z</time></trkpt><trkpt lat="34.717206501959055" lon="-5.141215922269809"><ele>500.25</ele><time>2026-04-28T13:17:50Z</time></trkpt><trkpt lat="34.71724710668" lon="-5.141034750546431"><ele>502.5</ele><time>2026-04-28T13:17:51Z</time></trkpt><trkpt lat="34.71727677267935" lon="-5.140890537402545"><ele>504.75</ele><time>2026-04-28T13:17:52Z</time></trkpt><trkpt lat="34.71728972264886" lon="-5.140754416066411"><ele>507.0</ele><time>2026-04-28T13:17:53Z</time></trkpt><trkpt lat="34.717264716565694" lon="-5.140647910499127"><ele>508.75</ele><time>2026-04-28T13:17:54Z</time></trkpt><trkpt lat="34.71719284648188" lon="-5.140554414296274"><ele>510.5</ele><time>2026-04-28T13:17:55Z</time></trkpt><trkpt lat="34.71709892470045" lon="-5.1404633741245105"><ele>512.25</ele><time>2026-04-28T13:17:56Z</time></trkpt><trkpt lat="34.716971915463404" lon="-5.140407107422211"><ele>514.0</ele><time>2026-04-28T13:17:57Z</time></trkpt><trkpt lat="34.716832477500965" lon="-5.140357805725392"><ele>514.0</ele><time>2026-04-28T13:17:58Z</time></trkpt><trkpt lat="34.71668948417976" lon="-5.140300872235487"><ele>514.0</ele><time>2026-04-28T13:17:59Z</time></trkpt><trkpt lat="34.716544807639195" lon="-5.140242998801635"><ele>514.0</ele><time>2026-04-28T13:18:00Z</time></trkpt><trkpt lat="34.71640579566365" lon="-5.1401952691139545"><ele>514.0</ele><time>2026-04-28T13:18:01Z</time></trkpt><trkpt lat="34.71628435054793" lon="-5.140144141310708"><ele>514.0</ele><time>2026-04-28T13:18:02Z</time></trkpt><trkpt lat="34.716169556817384" lon="-5.140072293510182"><ele>514.0</ele><time>2026-04-28T13:18:03Z</time></trkpt><trkpt lat="34.71606464664967" lon="-5.1399761331157645"><ele>514.0</ele><time>2026-04-28T13:18:04Z</time></trkpt><trkpt lat="34.71597429504158" lon="-5.139833105427997"><ele>514.0</ele><time>2026-04-28T13:18:05Z</time></trkpt><trkpt lat="34.71589322234843" lon="-5.139677390344323"><ele>514.25</ele><time>2026-04-28T13:18:06Z</time></trkpt><trkpt lat="34.715811276245915" lon="-5.139535460650765"><ele>514.5</ele><time>2026-04-28T13:18:07Z</time></trkpt><trkpt lat="34.71575262461702" lon="-5.139388670546885"><ele>514.75</ele><time>2026-04-28T13:18:08Z</time></trkpt><trkpt lat="34.71573102452629" lon="-5.139245873439544"><ele>515.0</ele><time>2026-04-28T13:18:09Z</time></trkpt><trkpt lat="34.71574178024068" lon="-5.139094887023879"><ele>515.3333333333333</ele><time>2026-04-28T13:18:10Z</time></trkpt><trkpt lat="34.71578097915231" lon="-5.138923450184007"><ele>515.6666666666666</ele><time>2026-04-28T13:18:11Z</time></trkpt><trkpt lat="34.71581410280391" lon="-5.138734620881915"><ele>516.0</ele><time>2026-04-28T13:18:12Z</time></trkpt><trkpt lat="34.71585257832813" lon="-5.138545861325883"><ele>516.0</ele><time>2026-04-28T13:18:13Z</time></trkpt><trkpt lat="34.715883888456325" lon="-5.138379056195503"><ele>516.0</ele><time>2026-04-28T13:18:14Z</time></trkpt><trkpt lat="34.7159082182105" lon="-5.138221308308332"><ele>516.0</ele><time>2026-04-28T13:18:15.001Z</time></trkpt><trkpt lat="34.715895166406455" lon="-5.138070400896246"><ele>516.0</ele><time>2026-04-28T13:18:16.001Z</time></trkpt><trkpt lat="34.715871913121624" lon="-5.137918283755424"><ele>517.25</ele><time>2026-04-28T13:18:17.001Z</time></trkpt><trkpt lat="34.71580838139287" lon="-5.1377758099827515"><ele>518.5</ele><time>2026-04-28T13:18:18.001Z</time></trkpt><trkpt lat="34.71573183890546" lon="-5.137635955564947"><ele>519.75</ele><time>2026-04-28T13:18:19.001Z</time></trkpt><trkpt lat="34.715648563900004" lon="-5.1374961412256335"><ele>521.0</ele><time>2026-04-28T13:18:20.001Z</time></trkpt><trkpt lat="34.71554540484124" lon="-5.137372005716586"><ele>519.75</ele><time>2026-04-28T13:18:21.001Z</time></trkpt><trkpt lat="34.715433222855005" lon="-5.137255927545702"><ele>518.5</ele><time>2026-04-28T13:18:22.001Z</time></trkpt><trkpt lat="34.71532057197888" lon="-5.137134420451573"><ele>517.25</ele><time>2026-04-28T13:18:23.001Z</time></trkpt><trkpt lat="34.71518379304049" lon="-5.137065352240891"><ele>516.0</ele><time>2026-04-28T13:18:24.001Z</time></trkpt><trkpt lat="34.7150394465318" lon="-5.137021697826953"><ele>516.0</ele><time>2026-04-28T13:18:25.001Z</time></trkpt><trkpt lat="34.71488503653005" lon="-5.136979340759913"><ele>516.0</ele><time>2026-04-28T13:18:26.001Z</time></trkpt><trkpt lat="34.71472910552879" lon="-5.136924590186753"><ele>516.0</ele><time>2026-04-28T13:18:27.001Z</time></trkpt><trkpt lat="34.71456156227978" lon="-5.136863983481927"><ele>514.6666666666666</ele><time>2026-04-28T13:18:28.001Z</time></trkpt><trkpt lat="34.714386250133344" lon="-5.1368040230513525"><ele>513.3333333333333</ele><time>2026-04-28T13:18:29.001Z</time></trkpt><trkpt lat="34.71421591956826" lon="-5.1367376424198135"><ele>512.0</ele><time>2026-04-28T13:18:30.001Z</time></trkpt><trkpt lat="34.714056326116385" lon="-5.136669940626308"><ele>512.0</ele><time>2026-04-28T13:18:31.001Z</time></trkpt><trkpt lat="34.71391818539005" lon="-5.1366125609467295"><ele>512.0</ele><time>2026-04-28T13:18:32.001Z</time></trkpt><trkpt lat="34.71377623150849" lon="-5.136582948701651"><ele>512.0</ele><time>2026-04-28T13:18:33.001Z</time></trkpt><trkpt lat="34.71362521047264" lon="-5.136591307512582"><ele>512.0</ele><time>2026-04-28T13:18:34.001Z</time></trkpt><trkpt lat="34.713468239787005" lon="-5.136628772978147"><ele>513.3333333333333</ele><time>2026-04-28T13:18:35.001Z</time></trkpt><trkpt lat="34.713309639891754" lon="-5.136676599770257"><ele>514.6666666666666</ele><time>2026-04-28T13:18:36.001Z</time></trkpt><trkpt lat="34.713151236846905" lon="-5.136720255360204"><ele>516.0</ele><time>2026-04-28T13:18:37.001Z</time></trkpt><trkpt lat="34.712987952388445" lon="-5.136761179740655"><ele>516.0</ele><time>2026-04-28T13:18:38.001Z</time></trkpt><trkpt lat="34.7128186444484" lon="-5.136773842042947"><ele>516.0</ele><time>2026-04-28T13:18:39.001Z</time></trkpt><trkpt lat="34.71264739821661" lon="-5.136756240472155"><ele>516.0</ele><time>2026-04-28T13:18:40.001Z</time></trkpt><trkpt lat="34.71246915780632" lon="-5.136714711219476"><ele>516.6666666666666</ele><time>2026-04-28T13:18:41.001Z</time></trkpt><trkpt lat="34.71228854953177" lon="-5.136652569823392"><ele>517.3333333333333</ele><time>2026-04-28T13:18:42.001Z</time></trkpt><trkpt lat="34.71210462578978" lon="-5.136577780863268"><ele>518.0</ele><time>2026-04-28T13:18:43.001Z</time></trkpt><trkpt lat="34.71191518709961" lon="-5.13652217632101"><ele>510.0</ele><time>2026-04-28T13:18:44.001Z</time></trkpt><trkpt lat="34.71172369063006" lon="-5.136502854139507"><ele>502.0</ele><time>2026-04-28T13:18:45.001Z</time></trkpt><trkpt lat="34.711533769331325" lon="-5.1365009794065974"><ele>494.0</ele><time>2026-04-28T13:18:46.001Z</time></trkpt><trkpt lat="34.71135335339684" lon="-5.136504436229929"><ele>494.0</ele><time>2026-04-28T13:18:47.001Z</time></trkpt><trkpt lat="34.71117513098388" lon="-5.136534781723368"><ele>494.0</ele><time>2026-04-28T13:18:48.001Z</time></trkpt><trkpt lat="34.71099946496347" lon="-5.1365912724842975"><ele>494.0</ele><time>2026-04-28T13:18:49.001Z</time></trkpt><trkpt lat="34.71083836226078" lon="-5.136687333190513"><ele>501.3333333333333</ele><time>2026-04-28T13:18:50.001Z</time></trkpt><trkpt lat="34.7106902073928" lon="-5.136805896235234"><ele>508.66666666666663</ele><time>2026-04-28T13:18:51.001Z</time></trkpt><trkpt lat="34.710537900837394" lon="-5.136893278984848"><ele>516.0</ele><time>2026-04-28T13:18:52.001Z</time></trkpt><trkpt lat="34.71036734206686" lon="-5.136932386654735"><ele>514.0</ele><time>2026-04-28T13:18:53.001Z</time></trkpt><trkpt lat="34.71019479447321" lon="-5.136941581580861"><ele>512.0</ele><time>2026-04-28T13:18:54.001Z</time></trkpt><trkpt lat="34.71003889401961" lon="-5.136945044229643"><ele>510.0</ele><time>2026-04-28T13:18:55.001Z</time></trkpt><trkpt lat="34.70991324419534" lon="-5.136983953753905"><ele>510.0</ele><time>2026-04-28T13:18:56.001Z</time></trkpt><trkpt lat="34.7098027881458" lon="-5.137066894158848"><ele>510.0</ele><time>2026-04-28T13:18:57.001Z</time></trkpt><trkpt lat="34.70972797379033" lon="-5.137201181181418"><ele>510.0</ele><time>2026-04-28T13:18:58.001Z</time></trkpt><trkpt lat="34.70962837704931" lon="-5.137330740426846"><ele>510.0</ele><time>2026-04-28T13:18:59.001Z</time></trkpt><trkpt lat="34.70954212741242" lon="-5.137496681769012"><ele>510.66666666666663</ele><time>2026-04-28T13:19:00.001Z</time></trkpt><trkpt lat="34.70944539572941" lon="-5.137644315184045"><ele>511.3333333333333</ele><time>2026-04-28T13:19:01.001Z</time></trkpt><trkpt lat="34.7093160923495" lon="-5.137760129077477"><ele>512.0</ele><time>2026-04-28T13:19:02.001Z</time></trkpt><trkpt lat="34.70916896646496" lon="-5.13783741070457"><ele>512.0</ele><time>2026-04-28T13:19:03.001Z</time></trkpt><trkpt lat="34.70902449295628" lon="-5.137891858592275"><ele>512.0</ele><time>2026-04-28T13:19:04.001Z</time></trkpt><trkpt lat="34.708897399427144" lon="-5.137911965013527"><ele>512.0</ele><time>2026-04-28T13:19:05.001Z</time></trkpt><trkpt lat="34.70879096123432" lon="-5.137888412757215"><ele>512.0</ele><time>2026-04-28T13:19:06.001Z</time></trkpt><trkpt lat="34.70867712273078" lon="-5.137820786109169"><ele>511.0</ele><time>2026-04-28T13:19:07.001Z</time></trkpt><trkpt lat="34.70854997001376" lon="-5.137721865359482"><ele>510.0</ele><time>2026-04-28T13:19:08.001Z</time></trkpt><trkpt lat="34.70842952971866" lon="-5.137643484321165"><ele>509.0</ele><time>2026-04-28T13:19:09.001Z</time></trkpt><trkpt lat="34.70832777509467" lon="-5.137639500497789"><ele>508.0</ele><time>2026-04-28T13:19:10.001Z</time></trkpt><trkpt lat="34.70823093295838" lon="-5.13768893842979"><ele>508.0</ele><time>2026-04-28T13:19:11.001Z</time></trkpt><trkpt lat="34.70813811105078" lon="-5.1377859890586315"><ele>508.0</ele><time>2026-04-28T13:19:12.001Z</time></trkpt><trkpt lat="34.70802593657061" lon="-5.137886765860114"><ele>508.0</ele><time>2026-04-28T13:19:13.001Z</time></trkpt><trkpt lat="34.70790022584031" lon="-5.13793542831138"><ele>508.0</ele><time>2026-04-28T13:19:14.001Z</time></trkpt><trkpt lat="34.70777923215268" lon="-5.1379830068164605"><ele>504.59999999999997</ele><time>2026-04-28T13:19:15.001Z</time></trkpt><trkpt lat="34.70768488185377" lon="-5.138064102685486"><ele>501.19999999999993</ele><time>2026-04-28T13:19:16.001Z</time></trkpt><trkpt lat="34.70760265845411" lon="-5.138140094382817"><ele>497.8</ele><time>2026-04-28T13:19:17Z</time></trkpt><trkpt lat="34.70752238173932" lon="-5.138167266937967"><ele>494.4</ele><time>2026-04-28T13:19:18Z</time></trkpt><trkpt lat="34.707434667732095" lon="-5.138135814093823"><ele>491.0</ele><time>2026-04-28T13:19:19Z</time></trkpt><trkpt lat="34.707347859213286" lon="-5.138065022866956"><ele>490.99999999999994</ele><time>2026-04-28T13:19:20Z</time></trkpt><trkpt lat="34.70726767514526" lon="-5.137985225893906"><ele>491.0</ele><time>2026-04-28T13:19:21Z</time></trkpt><trkpt lat="34.70718724204915" lon="-5.137904951136465"><ele>491.0</ele><time>2026-04-28T13:19:22Z</time></trkpt><trkpt lat="34.70710933871589" lon="-5.137832829862623"><ele>491.0</ele><time>2026-04-28T13:19:23Z</time></trkpt><trkpt lat="34.707052280083715" lon="-5.137787191913889"><ele>490.99999999999994</ele><time>2026-04-28T13:19:24Z</time></trkpt><trkpt lat="34.70699639752324" lon="-5.137748503733299"><ele>491.0</ele><time>2026-04-28T13:19:26Z</time></trkpt><trkpt lat="34.706948552020286" lon="-5.1376982838074134"><ele>492.20000000000005</ele><time>2026-04-28T13:19:54Z</time></trkpt><trkpt lat="34.70689988193187" lon="-5.13764142699921"><ele>493.40000000000003</ele><time>2026-04-28T13:19:55Z</time></trkpt><trkpt lat="34.70683736052999" lon="-5.137575669757478"><ele>494.6</ele><time>2026-04-28T13:19:56Z</time></trkpt><trkpt lat="34.706759862305375" lon="-5.137508019873789"><ele>495.8</ele><time>2026-04-28T13:19:57Z</time></trkpt><trkpt lat="34.706673580534854" lon="-5.137436939304989"><ele>497.0</ele><time>2026-04-28T13:19:58Z</time></trkpt><trkpt lat="34.70657579199474" lon="-5.137352184054314"><ele>488.5</ele><time>2026-04-28T13:19:59Z</time></trkpt><trkpt lat="34.706471838981315" lon="-5.1372659600314865"><ele>480.0</ele><time>2026-04-28T13:20:00Z</time></trkpt><trkpt lat="34.706362914664226" lon="-5.137177881847919"><ele>471.5</ele><time>2026-04-28T13:20:01Z</time></trkpt><trkpt lat="34.70624672113447" lon="-5.137085809817889"><ele>463.0</ele><time>2026-04-28T13:20:02Z</time></trkpt><trkpt lat="34.706141670061406" lon="-5.136988880626385"><ele>467.75</ele><time>2026-04-28T13:20:03Z</time></trkpt><trkpt lat="34.70604573151846" lon="-5.136885661425249"><ele>472.5</ele><time>2026-04-28T13:20:04Z</time></trkpt><trkpt lat="34.70595531875372" lon="-5.136780842285644"><ele>477.25</ele><time>2026-04-28T13:20:05Z</time></trkpt><trkpt lat="34.70586940310778" lon="-5.136681038405721"><ele>482.0</ele><time>2026-04-28T13:20:06Z</time></trkpt><trkpt lat="34.70578623187358" lon="-5.13659850953237"><ele>481.99999999999994</ele><time>2026-04-28T13:20:07Z</time></trkpt><trkpt lat="34.70571853713109" lon="-5.136543048602627"><ele>482.0</ele><time>2026-04-28T13:20:08Z</time></trkpt><trkpt lat="34.70560268023172" lon="-5.136549174573743"><ele>482.0</ele><time>2026-04-28T13:20:10Z</time></trkpt><trkpt lat="34.70556481313166" lon="-5.13661870598444"><ele>482.0</ele><time>2026-04-28T13:20:11Z</time></trkpt><trkpt lat="34.70559023425515" lon="-5.136707254645342"><ele>481.99999999999994</ele><time>2026-04-28T13:20:12Z</time></trkpt><trkpt lat="34.70563710803661" lon="-5.13677107194215"><ele>482.0</ele><time>2026-04-28T13:20:13Z</time></trkpt><trkpt lat="34.70569568462492" lon="-5.1368652960897805"><ele>482.0</ele><time>2026-04-28T13:20:14Z</time></trkpt><trkpt lat="34.705751012039656" lon="-5.136976694762921"><ele>482.0</ele><time>2026-04-28T13:20:15Z</time></trkpt><trkpt lat="34.70583367466524" lon="-5.137073534880493"><ele>482.0</ele><time>2026-04-28T13:20:16Z</time></trkpt><trkpt lat="34.70592435468073" lon="-5.137176096307807"><ele>482.0</ele><time>2026-04-28T13:20:17Z</time></trkpt><trkpt lat="34.70601134128577" lon="-5.1372700456932225"><ele>485.0</ele><time>2026-04-28T13:20:18Z</time></trkpt><trkpt lat="34.70608852884817" lon="-5.137357602250607"><ele>488.00000000000006</ele><time>2026-04-28T13:20:19Z</time></trkpt><trkpt lat="34.706153788529086" lon="-5.137450811354439"><ele>491.00000000000006</ele><time>2026-04-28T13:20:20Z</time></trkpt><trkpt lat="34.70619353286224" lon="-5.137551216917763"><ele>494.0</ele><time>2026-04-28T13:20:21.001Z</time></trkpt><trkpt lat="34.70621014010101" lon="-5.137647406143165"><ele>497.0</ele><time>2026-04-28T13:20:22.001Z</time></trkpt><trkpt lat="34.706197734215166" lon="-5.137736516693478"><ele>497.0</ele><time>2026-04-28T13:20:23.001Z</time></trkpt><trkpt lat="34.706142461949256" lon="-5.13780835391636"><ele>497.00000000000006</ele><time>2026-04-28T13:20:24.001Z</time></trkpt><trkpt lat="34.70606212986775" lon="-5.137839310167065"><ele>497.00000000000006</ele><time>2026-04-28T13:20:25.001Z</time></trkpt><trkpt lat="34.70596512469514" lon="-5.137830842144845"><ele>497.0</ele><time>2026-04-28T13:20:26.001Z</time></trkpt><trkpt lat="34.70585033560506" lon="-5.137782742642838"><ele>497.0</ele><time>2026-04-28T13:20:27.001Z</time></trkpt><trkpt lat="34.705724148878986" lon="-5.137725327717441"><ele>493.66666666666663</ele><time>2026-04-28T13:20:28.001Z</time></trkpt><trkpt lat="34.705583439491306" lon="-5.137670212387537"><ele>490.33333333333337</ele><time>2026-04-28T13:20:29.001Z</time></trkpt><trkpt lat="34.70543151121896" lon="-5.137606282655882"><ele>487.0</ele><time>2026-04-28T13:20:30.001Z</time></trkpt><trkpt lat="34.7052757320582" lon="-5.13753381102784"><ele>485.0</ele><time>2026-04-28T13:20:31.001Z</time></trkpt><trkpt lat="34.705114046219414" lon="-5.137463973759135"><ele>483.0</ele><time>2026-04-28T13:20:32.001Z</time></trkpt><trkpt lat="34.70495305742935" lon="-5.137401224203132"><ele>481.0</ele><time>2026-04-28T13:20:33.001Z</time></trkpt><trkpt lat="34.70479224031661" lon="-5.137346910672701"><ele>476.0</ele><time>2026-04-28T13:20:34.001Z</time></trkpt><trkpt lat="34.70463580432483" lon="-5.137291125952413"><ele>471.0</ele><time>2026-04-28T13:20:35.001Z</time></trkpt><trkpt lat="34.70447934031234" lon="-5.137233604617671"><ele>466.0</ele><time>2026-04-28T13:20:36.001Z</time></trkpt><trkpt lat="34.704321859059036" lon="-5.137179921127304"><ele>461.6666666666667</ele><time>2026-04-28T13:20:37.001Z</time></trkpt><trkpt lat="34.70416465337446" lon="-5.137122206421032"><ele>457.33333333333337</ele><time>2026-04-28T13:20:38.001Z</time></trkpt><trkpt lat="34.70401071894439" lon="-5.1370558864541245"><ele>453.0</ele><time>2026-04-28T13:20:39.001Z</time></trkpt><trkpt lat="34.7038590834961" lon="-5.136989655585212"><ele>453.0</ele><time>2026-04-28T13:20:40.001Z</time></trkpt><trkpt lat="34.70370113632621" lon="-5.136927246457321"><ele>453.0</ele><time>2026-04-28T13:20:41.001Z</time></trkpt><trkpt lat="34.703542506440186" lon="-5.136881759003944"><ele>453.0</ele><time>2026-04-28T13:20:42.001Z</time></trkpt><trkpt lat="34.70339629617099" lon="-5.136843559022368"><ele>452.25</ele><time>2026-04-28T13:20:43.001Z</time></trkpt><trkpt lat="34.70325971043852" lon="-5.136806729614805"><ele>451.5</ele><time>2026-04-28T13:20:44.001Z</time></trkpt><trkpt lat="34.70313675359002" lon="-5.136765268953682"><ele>450.75</ele><time>2026-04-28T13:20:45.001Z</time></trkpt><trkpt lat="34.703019233804625" lon="-5.136694432348214"><ele>450.0</ele><time>2026-04-28T13:20:46.001Z</time></trkpt><trkpt lat="34.702900521939235" lon="-5.1365890971209485"><ele>441.66666666666663</ele><time>2026-04-28T13:20:47.001Z</time></trkpt><trkpt lat="34.70277163113739" lon="-5.136484565662304"><ele>433.3333333333333</ele><time>2026-04-28T13:20:48.001Z</time></trkpt><trkpt lat="34.70262403168748" lon="-5.136398895877488"><ele>425.0</ele><time>2026-04-28T13:20:49.001Z</time></trkpt><trkpt lat="34.70247582100275" lon="-5.136326889950987"><ele>424.3333333333333</ele><time>2026-04-28T13:20:50.001Z</time></trkpt><trkpt lat="34.70233011524498" lon="-5.136263147503636"><ele>423.66666666666663</ele><time>2026-04-28T13:20:51.001Z</time></trkpt><trkpt lat="34.70218276127901" lon="-5.136211379980609"><ele>423.0</ele><time>2026-04-28T13:20:52.001Z</time></trkpt><trkpt lat="34.70203399588274" lon="-5.136176669936619"><ele>424.0</ele><time>2026-04-28T13:20:53.001Z</time></trkpt><trkpt lat="34.70189950116623" lon="-5.13614201521389"><ele>425.0</ele><time>2026-04-28T13:20:54.001Z</time></trkpt><trkpt lat="34.701786834682075" lon="-5.136102367939628"><ele>426.0</ele><time>2026-04-28T13:20:55Z</time></trkpt><trkpt lat="34.70169861451452" lon="-5.136048204302309"><ele>427.0</ele><time>2026-04-28T13:20:56Z</time></trkpt><trkpt lat="34.70162518966728" lon="-5.135961480190905"><ele>427.0</ele><time>2026-04-28T13:20:57Z</time></trkpt><trkpt lat="34.701549080007304" lon="-5.1358768036901035"><ele>427.0</ele><time>2026-04-28T13:20:58Z</time></trkpt><trkpt lat="34.70154828923304" lon="-5.135710108101529"><ele>427.0</ele><time>2026-04-28T13:20:59Z</time></trkpt><trkpt lat="34.70150809905121" lon="-5.135586304588006"><ele>427.0</ele><time>2026-04-28T13:21:00Z</time></trkpt><trkpt lat="34.701421662289796" lon="-5.135517395908232"><ele>425.25</ele><time>2026-04-28T13:21:01Z</time></trkpt><trkpt lat="34.701325467310454" lon="-5.135451193690783"><ele>423.5</ele><time>2026-04-28T13:21:02Z</time></trkpt><trkpt lat="34.70119721593332" lon="-5.1354067393234395"><ele>421.75</ele><time>2026-04-28T13:21:03Z</time></trkpt><trkpt lat="34.701062297069925" lon="-5.1353589422153645"><ele>420.0</ele><time>2026-04-28T13:21:04Z</time></trkpt><trkpt lat="34.70091043902198" lon="-5.135313004346805"><ele>420.0</ele><time>2026-04-28T13:21:05Z</time></trkpt><trkpt lat="34.70075080545883" lon="-5.135266922017953"><ele>420.0</ele><time>2026-04-28T13:21:06Z</time></trkpt><trkpt lat="34.70059229913683" lon="-5.1352232515099985"><ele>420.0</ele><time>2026-04-28T13:21:07Z</time></trkpt><trkpt lat="34.70044384105802" lon="-5.135153917566017"><ele>420.0</ele><time>2026-04-28T13:21:08Z</time></trkpt><trkpt lat="34.70030468066549" lon="-5.135052589985858"><ele>420.0</ele><time>2026-04-28T13:21:09Z</time></trkpt><trkpt lat="34.70017288673655" lon="-5.134944779723627"><ele>420.0</ele><time>2026-04-28T13:21:10Z</time></trkpt><trkpt lat="34.70004255409556" lon="-5.13484941144452"><ele>416.25</ele><time>2026-04-28T13:21:11Z</time></trkpt><trkpt lat="34.69992149057493" lon="-5.134772980652013"><ele>412.5</ele><time>2026-04-28T13:21:12Z</time></trkpt><trkpt lat="34.699807444836274" lon="-5.134725823615631"><ele>408.75</ele><time>2026-04-28T13:21:13Z</time></trkpt><trkpt lat="34.69968966242068" lon="-5.134714550869869"><ele>405.0</ele><time>2026-04-28T13:21:14Z</time></trkpt><trkpt lat="34.69957906564009" lon="-5.134758594612264"><ele>405.0</ele><time>2026-04-28T13:21:15Z</time></trkpt><trkpt lat="34.69948433487458" lon="-5.13483536416535"><ele>405.0</ele><time>2026-04-28T13:21:16Z</time></trkpt><trkpt lat="34.6993825870757" lon="-5.1348697067561035"><ele>405.0</ele><time>2026-04-28T13:21:17Z</time></trkpt><trkpt lat="34.69926820230841" lon="-5.134828243738066"><ele>405.0</ele><time>2026-04-28T13:21:18Z</time></trkpt><trkpt lat="34.69915434561917" lon="-5.134734524217402"><ele>407.25</ele><time>2026-04-28T13:21:19Z</time></trkpt><trkpt lat="34.69904837551145" lon="-5.134614537152347"><ele>409.5</ele><time>2026-04-28T13:21:20Z</time></trkpt><trkpt lat="34.69893448720012" lon="-5.134506234211145"><ele>411.75</ele><time>2026-04-28T13:21:21Z</time></trkpt><trkpt lat="34.698798494536874" lon="-5.1344178730109915"><ele>414.0</ele><time>2026-04-28T13:21:22Z</time></trkpt><trkpt lat="34.69865186257624" lon="-5.13433809249009"><ele>418.66666666666663</ele><time>2026-04-28T13:21:23Z</time></trkpt><trkpt lat="34.698500627812905" lon="-5.134247117169829"><ele>423.3333333333333</ele><time>2026-04-28T13:21:24Z</time></trkpt><trkpt lat="34.698345270621914" lon="-5.13415208888373"><ele>428.0</ele><time>2026-04-28T13:21:25Z</time></trkpt><trkpt lat="34.69818000137644" lon="-5.134058981210238"><ele>428.66666666666663</ele><time>2026-04-28T13:21:26Z</time></trkpt><trkpt lat="34.69802142372777" lon="-5.133961259979436"><ele>429.33333333333337</ele><time>2026-04-28T13:21:27Z</time></trkpt><trkpt lat="34.697873566568866" lon="-5.133858199222718"><ele>430.0</ele><time>2026-04-28T13:21:28Z</time></trkpt><trkpt lat="34.6977228484595" lon="-5.133761623986791"><ele>430.0</ele><time>2026-04-28T13:21:29Z</time></trkpt><trkpt lat="34.69755783325791" lon="-5.133688374155748"><ele>430.0</ele><time>2026-04-28T13:21:30Z</time></trkpt><trkpt lat="34.69737805721228" lon="-5.1336292514821595"><ele>430.0</ele><time>2026-04-28T13:21:31Z</time></trkpt><trkpt lat="34.69719211591754" lon="-5.13358771369737"><ele>430.0</ele><time>2026-04-28T13:21:32Z</time></trkpt><trkpt lat="34.69700468837651" lon="-5.133568922815072"><ele>430.0</ele><time>2026-04-28T13:21:33Z</time></trkpt><trkpt lat="34.69681830834202" lon="-5.133582241910835"><ele>430.0</ele><time>2026-04-28T13:21:34Z</time></trkpt><trkpt lat="34.696635336858634" lon="-5.133630445957435"><ele>432.33333333333337</ele><time>2026-04-28T13:21:35Z</time></trkpt><trkpt lat="34.69645598796628" lon="-5.13370552609631"><ele>434.66666666666663</ele><time>2026-04-28T13:21:36Z</time></trkpt><trkpt lat="34.696276580380115" lon="-5.133794739089394"><ele>437.0</ele><time>2026-04-28T13:21:37Z</time></trkpt><trkpt lat="34.69611093738069" lon="-5.13387360020072"><ele>438.25</ele><time>2026-04-28T13:21:38Z</time></trkpt><trkpt lat="34.69596516600839" lon="-5.133938391855902"><ele>439.5</ele><time>2026-04-28T13:21:39Z</time></trkpt><trkpt lat="34.695829889227795" lon="-5.133991922033357"><ele>440.75</ele><time>2026-04-28T13:21:40Z</time></trkpt><trkpt lat="34.695706195472575" lon="-5.134026852271351"><ele>442.0</ele><time>2026-04-28T13:21:41Z</time></trkpt><trkpt lat="34.69559487867683" lon="-5.13403364306921"><ele>442.0</ele><time>2026-04-28T13:21:42Z</time></trkpt><trkpt lat="34.69549871554987" lon="-5.13399444088631"><ele>442.00000000000006</ele><time>2026-04-28T13:21:43Z</time></trkpt><trkpt lat="34.69542220895048" lon="-5.133909730797583"><ele>442.00000000000006</ele><time>2026-04-28T13:21:44Z</time></trkpt><trkpt lat="34.695351713332514" lon="-5.133800076926444"><ele>442.0</ele><time>2026-04-28T13:21:45Z</time></trkpt><trkpt lat="34.69528277638431" lon="-5.133695617540405"><ele>442.0</ele><time>2026-04-28T13:21:46Z</time></trkpt><trkpt lat="34.69520535588662" lon="-5.133595506895676"><ele>445.75</ele><time>2026-04-28T13:21:47Z</time></trkpt><trkpt lat="34.69511589475564" lon="-5.133507459866373"><ele>449.5</ele><time>2026-04-28T13:21:48Z</time></trkpt><trkpt lat="34.69501204783317" lon="-5.133447450997113"><ele>453.25</ele><time>2026-04-28T13:21:49Z</time></trkpt><trkpt lat="34.69489986369588" lon="-5.133405964887016"><ele>457.0</ele><time>2026-04-28T13:21:50Z</time></trkpt><trkpt lat="34.694786898510756" lon="-5.133362498463582"><ele>457.0</ele><time>2026-04-28T13:21:51Z</time></trkpt><trkpt lat="34.694678846045875" lon="-5.133319525540235"><ele>457.0</ele><time>2026-04-28T13:21:52Z</time></trkpt><trkpt lat="34.694568391147364" lon="-5.133280310225943"><ele>457.0</ele><time>2026-04-28T13:21:53Z</time></trkpt><trkpt lat="34.694455281608" lon="-5.133238533411294"><ele>457.0</ele><time>2026-04-28T13:21:54Z</time></trkpt><trkpt lat="34.69434766244976" lon="-5.133181657867644"><ele>455.75</ele><time>2026-04-28T13:21:55Z</time></trkpt><trkpt lat="34.69424382025648" lon="-5.133117435437739"><ele>454.5</ele><time>2026-04-28T13:21:56Z</time></trkpt><trkpt lat="34.69413914595073" lon="-5.133049927554309"><ele>453.25</ele><time>2026-04-28T13:21:57Z</time></trkpt><trkpt lat="34.69403373522064" lon="-5.132987748783719"><ele>452.0</ele><time>2026-04-28T13:21:58Z</time></trkpt><trkpt lat="34.69392521683417" lon="-5.132937819797324"><ele>452.0</ele><time>2026-04-28T13:21:59Z</time></trkpt><trkpt lat="34.693809193788546" lon="-5.132902992363749"><ele>452.0</ele><time>2026-04-28T13:22:00Z</time></trkpt><trkpt lat="34.693691540740765" lon="-5.132893839187357"><ele>452.0</ele><time>2026-04-28T13:22:01Z</time></trkpt><trkpt lat="34.69357380806465" lon="-5.132903624155395"><ele>452.0</ele><time>2026-04-28T13:22:02Z</time></trkpt><trkpt lat="34.69345971265332" lon="-5.132915977587891"><ele>457.5</ele><time>2026-04-28T13:22:03Z</time></trkpt><trkpt lat="34.693345951051676" lon="-5.132929405346865"><ele>463.0</ele><time>2026-04-28T13:22:04Z</time></trkpt><trkpt lat="34.693234787511315" lon="-5.132941121939264"><ele>468.5</ele><time>2026-04-28T13:22:05Z</time></trkpt><trkpt lat="34.693124092619385" lon="-5.132960429262769"><ele>474.0</ele><time>2026-04-28T13:22:06Z</time></trkpt><trkpt lat="34.69301218375476" lon="-5.132894313513216"><ele>474.0</ele><time>2026-04-28T13:22:07Z</time></trkpt><trkpt lat="34.692906637964924" lon="-5.13285012798956"><ele>474.0</ele><time>2026-04-28T13:22:08Z</time></trkpt><trkpt lat="34.692799037810744" lon="-5.13283120641166"><ele>474.0</ele><time>2026-04-28T13:22:09Z</time></trkpt><trkpt lat="34.69269422944166" lon="-5.132850682437969"><ele>474.0</ele><time>2026-04-28T13:22:10Z</time></trkpt><trkpt lat="34.69259564163705" lon="-5.132890484324499"><ele>474.0</ele><time>2026-04-28T13:22:11Z</time></trkpt><trkpt lat="34.69249739871022" lon="-5.132937897717528"><ele>475.4</ele><time>2026-04-28T13:22:12Z</time></trkpt><trkpt lat="34.69239839688858" lon="-5.1329883508063965"><ele>476.79999999999995</ele><time>2026-04-28T13:22:13Z</time></trkpt><trkpt lat="34.69229921375167" lon="-5.1330399965703"><ele>478.20000000000005</ele><time>2026-04-28T13:22:14Z</time></trkpt><trkpt lat="34.692199376896475" lon="-5.133095602763285"><ele>479.6</ele><time>2026-04-28T13:22:15Z</time></trkpt><trkpt lat="34.69209624695139" lon="-5.133146186240415"><ele>481.0</ele><time>2026-04-28T13:22:16Z</time></trkpt><trkpt lat="34.691993047164075" lon="-5.133208418331718"><ele>481.5</ele><time>2026-04-28T13:22:17Z</time></trkpt><trkpt lat="34.69189952818801" lon="-5.133303967947259"><ele>482.0</ele><time>2026-04-28T13:22:18Z</time></trkpt><trkpt lat="34.69180270392523" lon="-5.1334224246907745"><ele>482.5</ele><time>2026-04-28T13:22:19Z</time></trkpt><trkpt lat="34.69170419347781" lon="-5.133538383551978"><ele>483.0</ele><time>2026-04-28T13:22:20Z</time></trkpt><trkpt lat="34.691615670349655" lon="-5.133652243606681"><ele>483.0</ele><time>2026-04-28T13:22:21Z</time></trkpt><trkpt lat="34.691542931242495" lon="-5.1337770565205405"><ele>483.0</ele><time>2026-04-28T13:22:22Z</time></trkpt><trkpt lat="34.691488545368266" lon="-5.133914642542657"><ele>483.0</ele><time>2026-04-28T13:22:23Z</time></trkpt><trkpt lat="34.69144758305305" lon="-5.134059709074338"><ele>483.0</ele><time>2026-04-28T13:22:24Z</time></trkpt><trkpt lat="34.69142466111032" lon="-5.134210154663613"><ele>484.0</ele><time>2026-04-28T13:22:25Z</time></trkpt><trkpt lat="34.691417348413" lon="-5.1343528327060675"><ele>484.99999999999994</ele><time>2026-04-28T13:22:26Z</time></trkpt><trkpt lat="34.691423613814955" lon="-5.134489313941828"><ele>485.99999999999994</ele><time>2026-04-28T13:22:27.001Z</time></trkpt><trkpt lat="34.691424088024014" lon="-5.13462531257649"><ele>487.0</ele><time>2026-04-28T13:22:28.001Z</time></trkpt><trkpt lat="34.69139803302713" lon="-5.134749935077852"><ele>488.0</ele><time>2026-04-28T13:22:29.001Z</time></trkpt><trkpt lat="34.69132991847223" lon="-5.134853736059726"><ele>488.75</ele><time>2026-04-28T13:22:30.001Z</time></trkpt><trkpt lat="34.691235856251964" lon="-5.134943379736131"><ele>489.5</ele><time>2026-04-28T13:22:31.001Z</time></trkpt><trkpt lat="34.69111669482302" lon="-5.135022019294185"><ele>490.25</ele><time>2026-04-28T13:22:32.001Z</time></trkpt><trkpt lat="34.69099022336575" lon="-5.135092245349067"><ele>491.0</ele><time>2026-04-28T13:22:33.001Z</time></trkpt><trkpt lat="34.69085627458914" lon="-5.135159272694679"><ele>491.0</ele><time>2026-04-28T13:22:34.001Z</time></trkpt><trkpt lat="34.69072073235215" lon="-5.135223084241835"><ele>491.0</ele><time>2026-04-28T13:22:35.001Z</time></trkpt><trkpt lat="34.69058241184396" lon="-5.135274825208007"><ele>491.0</ele><time>2026-04-28T13:22:36.001Z</time></trkpt><trkpt lat="34.690434603867764" lon="-5.13529629779113"><ele>491.0</ele><time>2026-04-28T13:22:37.001Z</time></trkpt><trkpt lat="34.69028568302036" lon="-5.135299198143791"><ele>489.0</ele><time>2026-04-28T13:22:38.001Z</time></trkpt><trkpt lat="34.690141267627084" lon="-5.135287219168896"><ele>487.0</ele><time>2026-04-28T13:22:39.001Z</time></trkpt><trkpt lat="34.689992871295594" lon="-5.13526494961257"><ele>485.0</ele><time>2026-04-28T13:22:40.001Z</time></trkpt><trkpt lat="34.68985306366893" lon="-5.1352558116076645"><ele>483.0</ele><time>2026-04-28T13:22:41.001Z</time></trkpt><trkpt lat="34.68971554295688" lon="-5.1352861746367395"><ele>483.0</ele><time>2026-04-28T13:22:42.001Z</time></trkpt><trkpt lat="34.689613518818426" lon="-5.135410975660483"><ele>483.0</ele><time>2026-04-28T13:22:43.001Z</time></trkpt><trkpt lat="34.68947619184508" lon="-5.13551836193537"><ele>483.0</ele><time>2026-04-28T13:22:44.001Z</time></trkpt><trkpt lat="34.689361887594835" lon="-5.135634827555171"><ele>479.5</ele><time>2026-04-28T13:22:45.001Z</time></trkpt><trkpt lat="34.68925108031435" lon="-5.135751431380182"><ele>476.0</ele><time>2026-04-28T13:22:46.001Z</time></trkpt><trkpt lat="34.68914758783995" lon="-5.135861114341064"><ele>472.5</ele><time>2026-04-28T13:22:47.001Z</time></trkpt><trkpt lat="34.68906012114643" lon="-5.135993565395935"><ele>469.0</ele><time>2026-04-28T13:22:48.001Z</time></trkpt><trkpt lat="34.6890118541513" lon="-5.136161246352529"><ele>469.0</ele><time>2026-04-28T13:22:49.001Z</time></trkpt><trkpt lat="34.689014138797965" lon="-5.136341132284248"><ele>469.0</ele><time>2026-04-28T13:22:50Z</time></trkpt><trkpt lat="34.68900440645108" lon="-5.136520550436441"><ele>469.0</ele><time>2026-04-28T13:22:51Z</time></trkpt><trkpt lat="34.68903540494682" lon="-5.136664849728478"><ele>469.0</ele><time>2026-04-28T13:22:52Z</time></trkpt><trkpt lat="34.68902645839854" lon="-5.136810615028625"><ele>467.75</ele><time>2026-04-28T13:22:53Z</time></trkpt><trkpt lat="34.688981102576165" lon="-5.136951087217821"><ele>466.5</ele><time>2026-04-28T13:22:54Z</time></trkpt><trkpt lat="34.68889942361991" lon="-5.137076987987187"><ele>465.25</ele><time>2026-04-28T13:22:55Z</time></trkpt><trkpt lat="34.68879292146385" lon="-5.137171518895093"><ele>464.0</ele><time>2026-04-28T13:22:56Z</time></trkpt><trkpt lat="34.688648862877976" lon="-5.137229395177127"><ele>460.66666666666663</ele><time>2026-04-28T13:22:57Z</time></trkpt><trkpt lat="34.68847245787173" lon="-5.1372599944225135"><ele>457.33333333333337</ele><time>2026-04-28T13:22:58Z</time></trkpt><trkpt lat="34.68828595402802" lon="-5.137291665093339"><ele>454.0</ele><time>2026-04-28T13:22:59Z</time></trkpt><trkpt lat="34.68809287853088" lon="-5.137329460449818"><ele>454.0</ele><time>2026-04-28T13:23:00Z</time></trkpt><trkpt lat="34.68789210237489" lon="-5.137380687301777"><ele>454.0</ele><time>2026-04-28T13:23:01Z</time></trkpt><trkpt lat="34.687685003521416" lon="-5.137423001381663"><ele>454.0</ele><time>2026-04-28T13:23:02Z</time></trkpt><trkpt lat="34.68748528633145" lon="-5.137426268697754"><ele>453.0</ele><time>2026-04-28T13:23:03Z</time></trkpt><trkpt lat="34.68729240411355" lon="-5.137404584209058"><ele>452.0</ele><time>2026-04-28T13:23:04Z</time></trkpt><trkpt lat="34.6871070427709" lon="-5.137355717448049"><ele>451.0</ele><time>2026-04-28T13:23:05Z</time></trkpt><trkpt lat="34.68693205946874" lon="-5.1372619625627305"><ele>451.6666666666667</ele><time>2026-04-28T13:23:06Z</time></trkpt><trkpt lat="34.68675337642476" lon="-5.13713834119275"><ele>452.33333333333337</ele><time>2026-04-28T13:23:07Z</time></trkpt><trkpt lat="34.68657091216169" lon="-5.137011997973888"><ele>453.0</ele><time>2026-04-28T13:23:08Z</time></trkpt><trkpt lat="34.68639666747695" lon="-5.136897602921802"><ele>453.0</ele><time>2026-04-28T13:23:09Z</time></trkpt><trkpt lat="34.686243943907904" lon="-5.136785903399286"><ele>453.0</ele><time>2026-04-28T13:23:10Z</time></trkpt><trkpt lat="34.68611535469044" lon="-5.136669330952724"><ele>453.0</ele><time>2026-04-28T13:23:11Z</time></trkpt><trkpt lat="34.68601629617754" lon="-5.13654503351829"><ele>449.5</ele><time>2026-04-28T13:23:12Z</time></trkpt><trkpt lat="34.68593624078246" lon="-5.136436628594833"><ele>446.0</ele><time>2026-04-28T13:23:13Z</time></trkpt><trkpt lat="34.685846592554256" lon="-5.136366632050183"><ele>442.5</ele><time>2026-04-28T13:23:14Z</time></trkpt><trkpt lat="34.68572986940473" lon="-5.136337761995256"><ele>439.0</ele><time>2026-04-28T13:23:15Z</time></trkpt><trkpt lat="34.68559589135983" lon="-5.136334047283803"><ele>439.0</ele><time>2026-04-28T13:23:16Z</time></trkpt><trkpt lat="34.685461879948384" lon="-5.13636200089873"><ele>439.0</ele><time>2026-04-28T13:23:17Z</time></trkpt><trkpt lat="34.68534433003745" lon="-5.136416881498626"><ele>439.0</ele><time>2026-04-28T13:23:18Z</time></trkpt><trkpt lat="34.6852516753298" lon="-5.1365035777273516"><ele>439.0</ele><time>2026-04-28T13:23:19Z</time></trkpt><trkpt lat="34.68518306830626" lon="-5.1366277059611765"><ele>440.75</ele><time>2026-04-28T13:23:20Z</time></trkpt><trkpt lat="34.68513916596189" lon="-5.136775271658834"><ele>442.5</ele><time>2026-04-28T13:23:21Z</time></trkpt><trkpt lat="34.68509624152352" lon="-5.136910548417523"><ele>444.25</ele><time>2026-04-28T13:23:22Z</time></trkpt><trkpt lat="34.68504577585601" lon="-5.137032139402747"><ele>446.0</ele><time>2026-04-28T13:23:23Z</time></trkpt><trkpt lat="34.68499601345995" lon="-5.137142779246387"><ele>446.0</ele><time>2026-04-28T13:23:24Z</time></trkpt><trkpt lat="34.68494474255529" lon="-5.1372320908618505"><ele>446.0</ele><time>2026-04-28T13:23:25Z</time></trkpt><trkpt lat="34.684867132016485" lon="-5.1372828253759275"><ele>446.0</ele><time>2026-04-28T13:23:26Z</time></trkpt><trkpt lat="34.68477258042587" lon="-5.137288096076373"><ele>446.0</ele><time>2026-04-28T13:23:27Z</time></trkpt><trkpt lat="34.68467856991421" lon="-5.137229053807698"><ele>446.0</ele><time>2026-04-28T13:23:28Z</time></trkpt><trkpt lat="34.684594352575644" lon="-5.137123499328793"><ele>446.0</ele><time>2026-04-28T13:23:29Z</time></trkpt><trkpt lat="34.684513422150076" lon="-5.136997542236441"><ele>446.0</ele><time>2026-04-28T13:23:30Z</time></trkpt><trkpt lat="34.68439794332228" lon="-5.136874758546467"><ele>446.0</ele><time>2026-04-28T13:23:31Z</time></trkpt><trkpt lat="34.68425027159499" lon="-5.136783574835679"><ele>440.66666666666663</ele><time>2026-04-28T13:23:32Z</time></trkpt><trkpt lat="34.68408485439721" lon="-5.136707319116609"><ele>435.33333333333337</ele><time>2026-04-28T13:23:33Z</time></trkpt><trkpt lat="34.68391716280278" lon="-5.1366291143467535"><ele>430.0</ele><time>2026-04-28T13:23:34Z</time></trkpt><trkpt lat="34.683745453027484" lon="-5.136548189918047"><ele>428.6666666666667</ele><time>2026-04-28T13:23:35Z</time></trkpt><trkpt lat="34.6835674880524" lon="-5.1364760503201365"><ele>427.33333333333337</ele><time>2026-04-28T13:23:36Z</time></trkpt><trkpt lat="34.68338734322713" lon="-5.136413020366656"><ele>426.0</ele><time>2026-04-28T13:23:37Z</time></trkpt><trkpt lat="34.68320916801984" lon="-5.136352444539234"><ele>426.0</ele><time>2026-04-28T13:23:38Z</time></trkpt><trkpt lat="34.68302862464644" lon="-5.13630653634564"><ele>426.0</ele><time>2026-04-28T13:23:39Z</time></trkpt><trkpt lat="34.68285092329496" lon="-5.136271445764229"><ele>426.0</ele><time>2026-04-28T13:23:40Z</time></trkpt><trkpt lat="34.682668591211986" lon="-5.136247806220107"><ele>427.0</ele><time>2026-04-28T13:23:41Z</time></trkpt><trkpt lat="34.68248755512305" lon="-5.136257887911502"><ele>428.0</ele><time>2026-04-28T13:23:42Z</time></trkpt><trkpt lat="34.68231551091107" lon="-5.13629165437526"><ele>429.0</ele><time>2026-04-28T13:23:43Z</time></trkpt><trkpt lat="34.68214902501597" lon="-5.136359934381565"><ele>429.0</ele><time>2026-04-28T13:23:44Z</time></trkpt><trkpt lat="34.681987869394796" lon="-5.136453164469966"><ele>429.0</ele><time>2026-04-28T13:23:45Z</time></trkpt><trkpt lat="34.681832057636015" lon="-5.1365645329844964"><ele>429.0</ele><time>2026-04-28T13:23:46Z</time></trkpt><trkpt lat="34.681703253309465" lon="-5.136716953168485"><ele>431.0</ele><time>2026-04-28T13:23:47Z</time></trkpt><trkpt lat="34.68159410673928" lon="-5.1369033913999775"><ele>433.0</ele><time>2026-04-28T13:23:48Z</time></trkpt><trkpt lat="34.68148834150383" lon="-5.137095863651871"><ele>435.0</ele><time>2026-04-28T13:23:49Z</time></trkpt><trkpt lat="34.68138171718064" lon="-5.137272701888774"><ele>433.0</ele><time>2026-04-28T13:23:50Z</time></trkpt><trkpt lat="34.681281766834964" lon="-5.137433742516145"><ele>431.0</ele><time>2026-04-28T13:23:51Z</time></trkpt><trkpt lat="34.681188007870375" lon="-5.137576477489452"><ele>429.0</ele><time>2026-04-28T13:23:52Z</time></trkpt><trkpt lat="34.68109865692317" lon="-5.137689724359601"><ele>427.0</ele><time>2026-04-28T13:23:53Z</time></trkpt><trkpt lat="34.68101460071721" lon="-5.137769893295952"><ele>430.20000000000005</ele><time>2026-04-28T13:23:54Z</time></trkpt><trkpt lat="34.68091993265857" lon="-5.1378093039453985"><ele>433.40000000000003</ele><time>2026-04-28T13:23:55Z</time></trkpt><trkpt lat="34.680821708616996" lon="-5.137792366862964"><ele>436.59999999999997</ele><time>2026-04-28T13:23:56Z</time></trkpt><trkpt lat="34.680738447171656" lon="-5.137735519450413"><ele>439.79999999999995</ele><time>2026-04-28T13:23:57Z</time></trkpt><trkpt lat="34.680671648669" lon="-5.137648782745805"><ele>443.0</ele><time>2026-04-28T13:23:58Z</time></trkpt><trkpt lat="34.680616109070925" lon="-5.137531992308386"><ele>443.0</ele><time>2026-04-28T13:23:59Z</time></trkpt><trkpt lat="34.680549901200585" lon="-5.137412639342147"><ele>442.99999999999994</ele><time>2026-04-28T13:24:00Z</time></trkpt><trkpt lat="34.68046788753845" lon="-5.137315067224894"><ele>442.99999999999994</ele><time>2026-04-28T13:24:01Z</time></trkpt><trkpt lat="34.68037763828275" lon="-5.137267843986668"><ele>443.0</ele><time>2026-04-28T13:24:02Z</time></trkpt><trkpt lat="34.68027795973456" lon="-5.1372723529473925"><ele>443.0</ele><time>2026-04-28T13:24:03Z</time></trkpt><trkpt lat="34.680183705304685" lon="-5.137318311563397"><ele>445.0</ele><time>2026-04-28T13:24:04Z</time></trkpt><trkpt lat="34.68009490960155" lon="-5.1374030533314405"><ele>447.0</ele><time>2026-04-28T13:24:05Z</time></trkpt><trkpt lat="34.68000737826842" lon="-5.137515166707307"><ele>449.0</ele><time>2026-04-28T13:24:06Z</time></trkpt><trkpt lat="34.67991408053177" lon="-5.13763981987673"><ele>451.0</ele><time>2026-04-28T13:24:07Z</time></trkpt><trkpt lat="34.679818321701674" lon="-5.137765619222729"><ele>451.0</ele><time>2026-04-28T13:24:08Z</time></trkpt><trkpt lat="34.67971757040246" lon="-5.137891875181717"><ele>451.0</ele><time>2026-04-28T13:24:09Z</time></trkpt><trkpt lat="34.67961307669797" lon="-5.137996840954387"><ele>451.0</ele><time>2026-04-28T13:24:10Z</time></trkpt><trkpt lat="34.679499697677265" lon="-5.138065121156465"><ele>451.0</ele><time>2026-04-28T13:24:11Z</time></trkpt><trkpt lat="34.67938043868034" lon="-5.138106860850756"><ele>452.0</ele><time>2026-04-28T13:24:12Z</time></trkpt><trkpt lat="34.67926431770601" lon="-5.13811551907989"><ele>453.0</ele><time>2026-04-28T13:24:13Z</time></trkpt><trkpt lat="34.679154610953624" lon="-5.138083861687279"><ele>454.0</ele><time>2026-04-28T13:24:14Z</time></trkpt><trkpt lat="34.6790416717993" lon="-5.138024786467237"><ele>455.0</ele><time>2026-04-28T13:24:15Z</time></trkpt><trkpt lat="34.678922364148164" lon="-5.137962953502105"><ele>455.0</ele><time>2026-04-28T13:24:16Z</time></trkpt><trkpt lat="34.678788754395256" lon="-5.137919050249308"><ele>455.0</ele><time>2026-04-28T13:24:17Z</time></trkpt><trkpt lat="34.6786493789878" lon="-5.13788808208783"><ele>455.0</ele><time>2026-04-28T13:24:18Z</time></trkpt><trkpt lat="34.67850313615224" lon="-5.13786601570453"><ele>455.0</ele><time>2026-04-28T13:24:19Z</time></trkpt><trkpt lat="34.678357906912524" lon="-5.1378709122671165"><ele>455.0</ele><time>2026-04-28T13:24:20Z</time></trkpt><trkpt lat="34.678221597824205" lon="-5.137920916587591"><ele>455.0</ele><time>2026-04-28T13:24:21Z</time></trkpt><trkpt lat="34.67808454365688" lon="-5.138003646070318"><ele>455.0</ele><time>2026-04-28T13:24:22Z</time></trkpt><trkpt lat="34.67795680037011" lon="-5.138093995462074"><ele>455.0</ele><time>2026-04-28T13:24:23Z</time></trkpt><trkpt lat="34.677825483750595" lon="-5.138158937830249"><ele>451.75</ele><time>2026-04-28T13:24:24Z</time></trkpt><trkpt lat="34.67768823942555" lon="-5.13819675658984"><ele>448.5</ele><time>2026-04-28T13:24:25Z</time></trkpt><trkpt lat="34.67754765488291" lon="-5.138212645140143"><ele>445.25</ele><time>2026-04-28T13:24:26Z</time></trkpt><trkpt lat="34.677400157567334" lon="-5.138201315677461"><ele>442.0</ele><time>2026-04-28T13:24:27Z</time></trkpt><trkpt lat="34.6772537828232" lon="-5.138176860799531"><ele>442.0</ele><time>2026-04-28T13:24:28Z</time></trkpt><trkpt lat="34.67711106731259" lon="-5.1381460836069515"><ele>442.0</ele><time>2026-04-28T13:24:29Z</time></trkpt><trkpt lat="34.676976955876775" lon="-5.138132173191719"><ele>442.0</ele><time>2026-04-28T13:24:30Z</time></trkpt><trkpt lat="34.67685535072825" lon="-5.138159148627817"><ele>442.0</ele><time>2026-04-28T13:24:31Z</time></trkpt><trkpt lat="34.67674075378467" lon="-5.138218227116998"><ele>443.0</ele><time>2026-04-28T13:24:32Z</time></trkpt><trkpt lat="34.676624017740274" lon="-5.138287682816248"><ele>444.0</ele><time>2026-04-28T13:24:33.001Z</time></trkpt><trkpt lat="34.67650280721476" lon="-5.138358833678561"><ele>445.0</ele><time>2026-04-28T13:24:34.001Z</time></trkpt><trkpt lat="34.676364831380006" lon="-5.138441313099933"><ele>446.0</ele><time>2026-04-28T13:24:35.001Z</time></trkpt><trkpt lat="34.676228281255504" lon="-5.138518629842392"><ele>441.0</ele><time>2026-04-28T13:24:36.001Z</time></trkpt><trkpt lat="34.67608629907209" lon="-5.138569535207574"><ele>436.0</ele><time>2026-04-28T13:24:37.001Z</time></trkpt><trkpt lat="34.67592659568757" lon="-5.138590448913728"><ele>431.0</ele><time>2026-04-28T13:24:38.001Z</time></trkpt><trkpt lat="34.67575789870025" lon="-5.138593056851612"><ele>431.0</ele><time>2026-04-28T13:24:39.001Z</time></trkpt><trkpt lat="34.675587223606655" lon="-5.138579332836391"><ele>431.0</ele><time>2026-04-28T13:24:40.001Z</time></trkpt><trkpt lat="34.67541559130007" lon="-5.1385556234186165"><ele>431.0</ele><time>2026-04-28T13:24:41.001Z</time></trkpt><trkpt lat="34.675243018063554" lon="-5.138519087586973"><ele>428.3333333333333</ele><time>2026-04-28T13:24:42.001Z</time></trkpt><trkpt lat="34.675072089523425" lon="-5.138468679479839"><ele>425.66666666666663</ele><time>2026-04-28T13:24:43.001Z</time></trkpt><trkpt lat="34.67490948871934" lon="-5.138402814837185"><ele>423.0</ele><time>2026-04-28T13:24:44.001Z</time></trkpt><trkpt lat="34.674747431887674" lon="-5.138336634718587"><ele>423.0</ele><time>2026-04-28T13:24:45.001Z</time></trkpt><trkpt lat="34.67459104016079" lon="-5.138278898670541"><ele>423.0</ele><time>2026-04-28T13:24:46.001Z</time></trkpt><trkpt lat="34.67443359178982" lon="-5.138229612477319"><ele>423.0</ele><time>2026-04-28T13:24:47.001Z</time></trkpt><trkpt lat="34.67428381980485" lon="-5.138163637641498"><ele>426.0</ele><time>2026-04-28T13:24:48.001Z</time></trkpt><trkpt lat="34.67413947220922" lon="-5.138085433878493"><ele>429.0</ele><time>2026-04-28T13:24:49.001Z</time></trkpt><trkpt lat="34.67399986895726" lon="-5.137998735094317"><ele>432.0</ele><time>2026-04-28T13:24:50.001Z</time></trkpt><trkpt lat="34.67386661654461" lon="-5.1379140655338205"><ele>432.0</ele><time>2026-04-28T13:24:51.001Z</time></trkpt><trkpt lat="34.67373183192158" lon="-5.137832010032784"><ele>432.0</ele><time>2026-04-28T13:24:52.001Z</time></trkpt><trkpt lat="34.67359258206899" lon="-5.137758066390492"><ele>432.0</ele><time>2026-04-28T13:24:53Z</time></trkpt><trkpt lat="34.67343649545279" lon="-5.137701666701461"><ele>434.33333333333337</ele><time>2026-04-28T13:24:54Z</time></trkpt><trkpt lat="34.67326871273748" lon="-5.137673996743899"><ele>436.6666666666667</ele><time>2026-04-28T13:24:55Z</time></trkpt><trkpt lat="34.673092256384095" lon="-5.1376647925700265"><ele>439.0</ele><time>2026-04-28T13:24:56Z</time></trkpt><trkpt lat="34.67291580150272" lon="-5.137656090751066"><ele>441.33333333333337</ele><time>2026-04-28T13:24:57Z</time></trkpt><trkpt lat="34.672741524979685" lon="-5.137637515098379"><ele>443.66666666666663</ele><time>2026-04-28T13:24:58Z</time></trkpt><trkpt lat="34.67256906333995" lon="-5.137621753879049"><ele>446.0</ele><time>2026-04-28T13:24:59Z</time></trkpt><trkpt lat="34.67239565614298" lon="-5.137613453558128"><ele>446.0</ele><time>2026-04-28T13:25:00Z</time></trkpt><trkpt lat="34.67223162101014" lon="-5.137600343407497"><ele>446.0</ele><time>2026-04-28T13:25:01Z</time></trkpt><trkpt lat="34.672080555862735" lon="-5.13757714530949"><ele>446.0</ele><time>2026-04-28T13:25:02Z</time></trkpt><trkpt lat="34.6719315885165" lon="-5.137583368283883"><ele>446.0</ele><time>2026-04-28T13:25:03Z</time></trkpt><trkpt lat="34.67177735328892" lon="-5.137567968073487"><ele>446.0</ele><time>2026-04-28T13:25:04Z</time></trkpt><trkpt lat="34.671628949238944" lon="-5.137599705239066"><ele>446.0</ele><time>2026-04-28T13:25:05Z</time></trkpt><trkpt lat="34.67148947801991" lon="-5.1376302323137475"><ele>446.0</ele><time>2026-04-28T13:25:06Z</time></trkpt><trkpt lat="34.67138042560747" lon="-5.137682223070664"><ele>446.0</ele><time>2026-04-28T13:25:07Z</time></trkpt><trkpt lat="34.67127785262765" lon="-5.137718092732954"><ele>446.0</ele><time>2026-04-28T13:25:08Z</time></trkpt><trkpt lat="34.671176631096735" lon="-5.137761240557305"><ele>446.0</ele><time>2026-04-28T13:25:09Z</time></trkpt><trkpt lat="34.671056542683544" lon="-5.1377595856894605"><ele>446.0</ele><time>2026-04-28T13:25:10Z</time></trkpt><trkpt lat="34.670925017641714" lon="-5.13776386937558"><ele>445.25</ele><time>2026-04-28T13:25:11Z</time></trkpt><trkpt lat="34.67079083766636" lon="-5.137733070735727"><ele>444.5</ele><time>2026-04-28T13:25:12Z</time></trkpt><trkpt lat="34.67066925579942" lon="-5.137683438242147"><ele>443.75</ele><time>2026-04-28T13:25:13Z</time></trkpt><trkpt lat="34.67055972798881" lon="-5.137641093853032"><ele>443.0</ele><time>2026-04-28T13:25:14Z</time></trkpt><trkpt lat="34.67046027502599" lon="-5.137614499954295"><ele>443.0</ele><time>2026-04-28T13:25:15Z</time></trkpt><trkpt lat="34.6703707587542" lon="-5.137593828135476"><ele>442.99999999999994</ele><time>2026-04-28T13:25:16Z</time></trkpt><trkpt lat="34.67028536793797" lon="-5.137575159290611"><ele>442.99999999999994</ele><time>2026-04-28T13:25:17Z</time></trkpt><trkpt lat="34.670196976837374" lon="-5.137547253780724"><ele>443.0</ele><time>2026-04-28T13:25:18Z</time></trkpt><trkpt lat="34.670109478065925" lon="-5.137504165680748"><ele>443.0</ele><time>2026-04-28T13:25:19Z</time></trkpt><trkpt lat="34.670025085623074" lon="-5.137469567721564"><ele>441.59999999999997</ele><time>2026-04-28T13:25:20Z</time></trkpt><trkpt lat="34.66995208772684" lon="-5.137416267738862"><ele>440.19999999999993</ele><time>2026-04-28T13:25:21Z</time></trkpt><trkpt lat="34.66989302345878" lon="-5.137307659900249"><ele>438.8</ele><time>2026-04-28T13:25:22Z</time></trkpt><trkpt lat="34.669854178451395" lon="-5.137206633647162"><ele>437.4</ele><time>2026-04-28T13:25:23Z</time></trkpt><trkpt lat="34.66983959233059" lon="-5.137061787689223"><ele>436.0</ele><time>2026-04-28T13:25:24Z</time></trkpt><trkpt lat="34.669833900959574" lon="-5.136922860867482"><ele>436.0</ele><time>2026-04-28T13:25:25Z</time></trkpt><trkpt lat="34.66985734972548" lon="-5.136788923931499"><ele>436.0</ele><time>2026-04-28T13:25:26Z</time></trkpt><trkpt lat="34.66984526123859" lon="-5.1366639116173936"><ele>436.0</ele><time>2026-04-28T13:25:27Z</time></trkpt><trkpt lat="34.669809967851734" lon="-5.136545995752143"><ele>436.0</ele><time>2026-04-28T13:25:28Z</time></trkpt><trkpt lat="34.669756358737594" lon="-5.136432222882373"><ele>436.0</ele><time>2026-04-28T13:25:29Z</time></trkpt><trkpt lat="34.66966594259121" lon="-5.1363289802137375"><ele>436.25</ele><time>2026-04-28T13:25:30Z</time></trkpt><trkpt lat="34.669611155930546" lon="-5.136193770132537"><ele>436.5</ele><time>2026-04-28T13:25:31Z</time></trkpt><trkpt lat="34.66953138909149" lon="-5.1360726580600415"><ele>436.75</ele><time>2026-04-28T13:25:32Z</time></trkpt><trkpt lat="34.66944853684994" lon="-5.135957220597262"><ele>437.0</ele><time>2026-04-28T13:25:33Z</time></trkpt><trkpt lat="34.66936447158907" lon="-5.135845549794758"><ele>437.0</ele><time>2026-04-28T13:25:34Z</time></trkpt><trkpt lat="34.669295628869" lon="-5.135728820941012"><ele>437.0</ele><time>2026-04-28T13:25:35Z</time></trkpt><trkpt lat="34.66924214650249" lon="-5.135604159626149"><ele>437.0</ele><time>2026-04-28T13:25:36Z</time></trkpt><trkpt lat="34.669202944500086" lon="-5.135477454626895"><ele>437.0</ele><time>2026-04-28T13:25:37Z</time></trkpt><trkpt lat="34.669163027093035" lon="-5.135355967776542"><ele>436.6</ele><time>2026-04-28T13:25:38Z</time></trkpt><trkpt lat="34.669114819580955" lon="-5.135247907322068"><ele>436.20000000000005</ele><time>2026-04-28T13:25:39Z</time></trkpt><trkpt lat="34.669055895342964" lon="-5.135153904539157"><ele>435.8</ele><time>2026-04-28T13:25:40Z</time></trkpt><trkpt lat="34.66898506491353" lon="-5.135082173996211"><ele>435.4</ele><time>2026-04-28T13:25:41Z</time></trkpt><trkpt lat="34.66889180286868" lon="-5.135036281692019"><ele>435.0</ele><time>2026-04-28T13:25:42Z</time></trkpt><trkpt lat="34.66879453320758" lon="-5.135015020585834"><ele>435.0</ele><time>2026-04-28T13:25:43Z</time></trkpt><trkpt lat="34.6686947206455" lon="-5.134994498461579"><ele>435.0</ele><time>2026-04-28T13:25:44Z</time></trkpt><trkpt lat="34.66859182952646" lon="-5.1349708974206125"><ele>435.0</ele><time>2026-04-28T13:25:45Z</time></trkpt><trkpt lat="34.668484002746816" lon="-5.134960503419939"><ele>435.0</ele><time>2026-04-28T13:25:46Z</time></trkpt><trkpt lat="34.66837523024576" lon="-5.134966357768569"><ele>435.0</ele><time>2026-04-28T13:25:47Z</time></trkpt><trkpt lat="34.66826263964596" lon="-5.134985966267665"><ele>438.0</ele><time>2026-04-28T13:25:48Z</time></trkpt><trkpt lat="34.66814825835492" lon="-5.135010929525752"><ele>441.0</ele><time>2026-04-28T13:25:49Z</time></trkpt><trkpt lat="34.66803002369397" lon="-5.135026165409903"><ele>444.0</ele><time>2026-04-28T13:25:50Z</time></trkpt><trkpt lat="34.667904395341736" lon="-5.135019116441262"><ele>447.0</ele><time>2026-04-28T13:25:51Z</time></trkpt><trkpt lat="34.667779791193986" lon="-5.134982269828492"><ele>447.25</ele><time>2026-04-28T13:25:52Z</time></trkpt><trkpt lat="34.6676625531519" lon="-5.134915875207103"><ele>447.5</ele><time>2026-04-28T13:25:53Z</time></trkpt><trkpt lat="34.66755233312583" lon="-5.13482026871951"><ele>447.75</ele><time>2026-04-28T13:25:54Z</time></trkpt><trkpt lat="34.66745823483602" lon="-5.134704498340891"><ele>448.0</ele><time>2026-04-28T13:25:55Z</time></trkpt><trkpt lat="34.66737479910793" lon="-5.134566156019395"><ele>445.75</ele><time>2026-04-28T13:25:56Z</time></trkpt><trkpt lat="34.66729457005437" lon="-5.134420059762321"><ele>443.5</ele><time>2026-04-28T13:25:57Z</time></trkpt><trkpt lat="34.66721540157728" lon="-5.13428310682767"><ele>441.25</ele><time>2026-04-28T13:25:58Z</time></trkpt><trkpt lat="34.667137334866986" lon="-5.13415264943166"><ele>439.0</ele><time>2026-04-28T13:25:59Z</time></trkpt><trkpt lat="34.667040639549356" lon="-5.13402629912733"><ele>435.6666666666667</ele><time>2026-04-28T13:26:00Z</time></trkpt><trkpt lat="34.66692152708448" lon="-5.133918061252919"><ele>432.33333333333337</ele><time>2026-04-28T13:26:01Z</time></trkpt><trkpt lat="34.66678380058538" lon="-5.133814716459587"><ele>429.0</ele><time>2026-04-28T13:26:02Z</time></trkpt><trkpt lat="34.66664695666259" lon="-5.133707606575694"><ele>429.0</ele><time>2026-04-28T13:26:03Z</time></trkpt><trkpt lat="34.66651754631927" lon="-5.133602529427215"><ele>429.0</ele><time>2026-04-28T13:26:04Z</time></trkpt><trkpt lat="34.66638490956263" lon="-5.133517314338483"><ele>429.0</ele><time>2026-04-28T13:26:05Z</time></trkpt><trkpt lat="34.66624127803478" lon="-5.133456746155845"><ele>430.5</ele><time>2026-04-28T13:26:06Z</time></trkpt><trkpt lat="34.66610396582533" lon="-5.133402399246113"><ele>432.0</ele><time>2026-04-28T13:26:07Z</time></trkpt><trkpt lat="34.66597863559676" lon="-5.133309975387254"><ele>433.5</ele><time>2026-04-28T13:26:08Z</time></trkpt><trkpt lat="34.66586302844751" lon="-5.133179439040556"><ele>435.0</ele><time>2026-04-28T13:26:09Z</time></trkpt><trkpt lat="34.665757256311615" lon="-5.1330226391772396"><ele>427.33333333333337</ele><time>2026-04-28T13:26:10Z</time></trkpt><trkpt lat="34.66564629894529" lon="-5.132864509800476"><ele>419.6666666666667</ele><time>2026-04-28T13:26:11Z</time></trkpt><trkpt lat="34.66551753637528" lon="-5.132723025725177"><ele>412.0</ele><time>2026-04-28T13:26:12Z</time></trkpt><trkpt lat="34.665380908654484" lon="-5.13260755052435"><ele>411.33333333333337</ele><time>2026-04-28T13:26:13Z</time></trkpt><trkpt lat="34.665235215630275" lon="-5.132517499412888"><ele>410.66666666666663</ele><time>2026-04-28T13:26:14Z</time></trkpt><trkpt lat="34.665090706718445" lon="-5.132437788189301"><ele>410.0</ele><time>2026-04-28T13:26:15Z</time></trkpt><trkpt lat="34.66496579359477" lon="-5.132345266905695"><ele>410.0</ele><time>2026-04-28T13:26:16Z</time></trkpt><trkpt lat="34.66485648364476" lon="-5.132226317746147"><ele>410.0</ele><time>2026-04-28T13:26:17Z</time></trkpt><trkpt lat="34.6647661184696" lon="-5.132070246218631"><ele>410.0</ele><time>2026-04-28T13:26:18Z</time></trkpt><trkpt lat="34.664694985755055" lon="-5.131898052789268"><ele>410.0</ele><time>2026-04-28T13:26:19Z</time></trkpt><trkpt lat="34.66461933283418" lon="-5.131731299075613"><ele>410.0</ele><time>2026-04-28T13:26:20Z</time></trkpt><trkpt lat="34.66454688492643" lon="-5.131577450178159"><ele>410.0</ele><time>2026-04-28T13:26:21Z</time></trkpt><trkpt lat="34.664468300102" lon="-5.131441036123087"><ele>410.0</ele><time>2026-04-28T13:26:22Z</time></trkpt><trkpt lat="34.664359733946625" lon="-5.1313417373209695"><ele>410.75</ele><time>2026-04-28T13:26:23Z</time></trkpt><trkpt lat="34.66426536561265" lon="-5.131230748185668"><ele>411.5</ele><time>2026-04-28T13:26:24Z</time></trkpt><trkpt lat="34.6641615743755" lon="-5.13113699848408"><ele>412.25</ele><time>2026-04-28T13:26:25Z</time></trkpt><trkpt lat="34.66406371974261" lon="-5.131043623170384"><ele>413.0</ele><time>2026-04-28T13:26:26Z</time></trkpt><trkpt lat="34.663978062472545" lon="-5.130939956306033"><ele>413.0</ele><time>2026-04-28T13:26:27Z</time></trkpt><trkpt lat="34.66390726602905" lon="-5.130820646923154"><ele>413.0</ele><time>2026-04-28T13:26:28Z</time></trkpt><trkpt lat="34.66386308224817" lon="-5.130684891039882"><ele>413.0</ele><time>2026-04-28T13:26:29Z</time></trkpt><trkpt lat="34.663851842930804" lon="-5.130536407684337"><ele>413.0</ele><time>2026-04-28T13:26:30Z</time></trkpt><trkpt lat="34.66386371379165" lon="-5.13038821485566"><ele>410.0</ele><time>2026-04-28T13:26:31Z</time></trkpt><trkpt lat="34.66388977286997" lon="-5.130246343123721"><ele>407.0</ele><time>2026-04-28T13:26:32Z</time></trkpt><trkpt lat="34.66392077479385" lon="-5.130121272080366"><ele>404.0</ele><time>2026-04-28T13:26:33Z</time></trkpt><trkpt lat="34.66394705046561" lon="-5.13001320202048"><ele>401.0</ele><time>2026-04-28T13:26:34Z</time></trkpt><trkpt lat="34.66395938726379" lon="-5.129922063607702"><ele>398.0</ele><time>2026-04-28T13:26:35Z</time></trkpt><trkpt lat="34.663946674819314" lon="-5.1298406384279955"><ele>397.99999999999994</ele><time>2026-04-28T13:26:36Z</time></trkpt><trkpt lat="34.663894932385986" lon="-5.1297808475918725"><ele>398.0</ele><time>2026-04-28T13:26:37Z</time></trkpt><trkpt lat="34.66381703700741" lon="-5.129764755624711"><ele>398.0</ele><time>2026-04-28T13:26:38Z</time></trkpt><trkpt lat="34.663740645448065" lon="-5.1298072172430675"><ele>398.0</ele><time>2026-04-28T13:26:39Z</time></trkpt><trkpt lat="34.663668239184695" lon="-5.12989283364328"><ele>397.99999999999994</ele><time>2026-04-28T13:26:40Z</time></trkpt><trkpt lat="34.66359122408558" lon="-5.129991040639142"><ele>398.0</ele><time>2026-04-28T13:26:41Z</time></trkpt><trkpt lat="34.663504922917205" lon="-5.130083307103064"><ele>399.4</ele><time>2026-04-28T13:26:42Z</time></trkpt><trkpt lat="34.663425979741206" lon="-5.130162661487779"><ele>400.79999999999995</ele><time>2026-04-28T13:26:43Z</time></trkpt><trkpt lat="34.663343846520135" lon="-5.1302165648813345"><ele>402.2</ele><time>2026-04-28T13:26:44Z</time></trkpt><trkpt lat="34.663257321172246" lon="-5.130245470852261"><ele>403.6</ele><time>2026-04-28T13:26:45Z</time></trkpt><trkpt lat="34.66316832655246" lon="-5.1302653169064545"><ele>405.0</ele><time>2026-04-28T13:26:46Z</time></trkpt><trkpt lat="34.66308361502495" lon="-5.130279190583147"><ele>405.0</ele><time>2026-04-28T13:26:47Z</time></trkpt><trkpt lat="34.66300721367268" lon="-5.130307673539767"><ele>405.0</ele><time>2026-04-28T13:26:48Z</time></trkpt><trkpt lat="34.66295449199584" lon="-5.130373213307266"><ele>405.0</ele><time>2026-04-28T13:26:49Z</time></trkpt><trkpt lat="34.662936775433344" lon="-5.13047289585891"><ele>405.0</ele><time>2026-04-28T13:26:50Z</time></trkpt><trkpt lat="34.66295213364469" lon="-5.1305828643133475"><ele>405.0</ele><time>2026-04-28T13:26:51Z</time></trkpt><trkpt lat="34.66298733325107" lon="-5.1306789023312165"><ele>405.0</ele><time>2026-04-28T13:26:52Z</time></trkpt><trkpt lat="34.66297954304679" lon="-5.13076685549954"><ele>405.3333333333333</ele><time>2026-04-28T13:26:53Z</time></trkpt><trkpt lat="34.662943466629144" lon="-5.130846207088078"><ele>405.66666666666663</ele><time>2026-04-28T13:26:54Z</time></trkpt><trkpt lat="34.66287789257529" lon="-5.130888302138975"><ele>406.0</ele><time>2026-04-28T13:26:55Z</time></trkpt><trkpt lat="34.66279658921352" lon="-5.130888858187164"><ele>406.3333333333333</ele><time>2026-04-28T13:26:56Z</time></trkpt><trkpt lat="34.66271152091666" lon="-5.130834190266357"><ele>406.66666666666663</ele><time>2026-04-28T13:26:57Z</time></trkpt><trkpt lat="34.66263384948792" lon="-5.130750002618964"><ele>407.0</ele><time>2026-04-28T13:26:58Z</time></trkpt><trkpt lat="34.66255184145131" lon="-5.130658299943265"><ele>403.20000000000005</ele><time>2026-04-28T13:26:59Z</time></trkpt><trkpt lat="34.662467681630666" lon="-5.130575321731208"><ele>399.4</ele><time>2026-04-28T13:27:00Z</time></trkpt><trkpt lat="34.66238871667506" lon="-5.130501201861996"><ele>395.6</ele><time>2026-04-28T13:27:01Z</time></trkpt><trkpt lat="34.66230892027092" lon="-5.130434624492412"><ele>391.79999999999995</ele><time>2026-04-28T13:27:02Z</time></trkpt><trkpt lat="34.66221978807374" lon="-5.130380494377569"><ele>388.0</ele><time>2026-04-28T13:27:03Z</time></trkpt><trkpt lat="34.662117830092704" lon="-5.130341366408554"><ele>388.0</ele><time>2026-04-28T13:27:04Z</time></trkpt><trkpt lat="34.661995332034245" lon="-5.130315497512293"><ele>388.0</ele><time>2026-04-28T13:27:05Z</time></trkpt><trkpt lat="34.661864353958165" lon="-5.1303043728624615"><ele>388.0</ele><time>2026-04-28T13:27:06Z</time></trkpt><trkpt lat="34.66173863695169" lon="-5.130311307643217"><ele>388.0</ele><time>2026-04-28T13:27:07Z</time></trkpt><trkpt lat="34.66162139580509" lon="-5.130335097021606"><ele>386.0</ele><time>2026-04-28T13:27:08Z</time></trkpt><trkpt lat="34.66151456843332" lon="-5.130350940259133"><ele>384.0</ele><time>2026-04-28T13:27:09Z</time></trkpt><trkpt lat="34.661413180208704" lon="-5.130354692514809"><ele>382.0</ele><time>2026-04-28T13:27:10Z</time></trkpt><trkpt lat="34.66132470976473" lon="-5.130339773932907"><ele>380.0</ele><time>2026-04-28T13:27:11Z</time></trkpt><trkpt lat="34.66124668942898" lon="-5.130299575677596"><ele>378.0</ele><time>2026-04-28T13:27:12Z</time></trkpt><trkpt lat="34.66117485663922" lon="-5.130241008339541"><ele>377.1666666666667</ele><time>2026-04-28T13:27:13Z</time></trkpt><trkpt lat="34.66109914503826" lon="-5.13020831349736"><ele>376.3333333333333</ele><time>2026-04-28T13:27:14Z</time></trkpt><trkpt lat="34.66106262461938" lon="-5.130102012438217"><ele>375.5</ele><time>2026-04-28T13:27:15Z</time></trkpt><trkpt lat="34.661017917619546" lon="-5.130019053655198"><ele>374.66666666666663</ele><time>2026-04-28T13:27:16Z</time></trkpt><trkpt lat="34.66095712026296" lon="-5.129945307499968"><ele>373.8333333333333</ele><time>2026-04-28T13:27:17Z</time></trkpt><trkpt lat="34.66092202816702" lon="-5.129846268981647"><ele>373.0</ele><time>2026-04-28T13:27:18Z</time></trkpt><trkpt lat="34.6608663124892" lon="-5.129776703058417"><ele>371.59999999999997</ele><time>2026-04-28T13:27:19Z</time></trkpt><trkpt lat="34.660778179432185" lon="-5.12970591377414"><ele>370.2</ele><time>2026-04-28T13:27:21Z</time></trkpt><trkpt lat="34.66071551555796" lon="-5.12965800037757"><ele>368.8</ele><time>2026-04-28T13:27:55Z</time></trkpt><trkpt lat="34.66059739448961" lon="-5.129554039341572"><ele>367.4</ele><time>2026-04-28T13:27:57Z</time></trkpt><trkpt lat="34.66051681805783" lon="-5.1294761886064775"><ele>366.0</ele><time>2026-04-28T13:27:58Z</time></trkpt><trkpt lat="34.66043208523606" lon="-5.1293855266365"><ele>366.0</ele><time>2026-04-28T13:27:59Z</time></trkpt><trkpt lat="34.66033931311936" lon="-5.129275379057602"><ele>366.0</ele><time>2026-04-28T13:28:00Z</time></trkpt><trkpt lat="34.66024607938162" lon="-5.129141448592016"><ele>366.0</ele><time>2026-04-28T13:28:01Z</time></trkpt><trkpt lat="34.66015779013335" lon="-5.128990188608652"><ele>366.0</ele><time>2026-04-28T13:28:02Z</time></trkpt><trkpt lat="34.66007433837218" lon="-5.1288376570945315"><ele>365.25</ele><time>2026-04-28T13:28:03Z</time></trkpt><trkpt lat="34.65998061794525" lon="-5.1287088680338915"><ele>364.5</ele><time>2026-04-28T13:28:04Z</time></trkpt><trkpt lat="34.65990585192156" lon="-5.128590930587422"><ele>363.75</ele><time>2026-04-28T13:28:05Z</time></trkpt><trkpt lat="34.6598261093202" lon="-5.128464743133746"><ele>363.0</ele><time>2026-04-28T13:28:06Z</time></trkpt><trkpt lat="34.65975016240918" lon="-5.128338986342803"><ele>363.2</ele><time>2026-04-28T13:28:07Z</time></trkpt><trkpt lat="34.65967868475327" lon="-5.128220294649316"><ele>363.4</ele><time>2026-04-28T13:28:08Z</time></trkpt><trkpt lat="34.659609887296575" lon="-5.128106053475317"><ele>363.59999999999997</ele><time>2026-04-28T13:28:09Z</time></trkpt><trkpt lat="34.65954535287619" lon="-5.127998816332945"><ele>363.79999999999995</ele><time>2026-04-28T13:28:10Z</time></trkpt><trkpt lat="34.65948742979897" lon="-5.127902462029933"><ele>364.0</ele><time>2026-04-28T13:28:11Z</time></trkpt><trkpt lat="34.65943962895754" lon="-5.127822945900354"><ele>364.0</ele><time>2026-04-28T13:28:12Z</time></trkpt><trkpt lat="34.659401660069584" lon="-5.12775978520375"><ele>364.0</ele><time>2026-04-28T13:28:13Z</time></trkpt><trkpt lat="34.65933335925482" lon="-5.127630839942725"><ele>364.0</ele><time>2026-04-28T13:28:15Z</time></trkpt><trkpt lat="34.6592843266133" lon="-5.127532763455088"><ele>364.0</ele><time>2026-04-28T13:28:16Z</time></trkpt><trkpt lat="34.65922272605212" lon="-5.127408334139511"><ele>364.0</ele><time>2026-04-28T13:28:17Z</time></trkpt><trkpt lat="34.659162248628455" lon="-5.127265419908162"><ele>363.25</ele><time>2026-04-28T13:28:18Z</time></trkpt><trkpt lat="34.659096559876765" lon="-5.1271388529583355"><ele>362.5</ele><time>2026-04-28T13:28:19Z</time></trkpt><trkpt lat="34.65903098312337" lon="-5.127014107622849"><ele>361.75</ele><time>2026-04-28T13:28:20Z</time></trkpt><trkpt lat="34.65896918422174" lon="-5.126886293820245"><ele>361.0</ele><time>2026-04-28T13:28:21Z</time></trkpt><trkpt lat="34.658906776317224" lon="-5.126759586207533"><ele>361.0</ele><time>2026-04-28T13:28:22Z</time></trkpt><trkpt lat="34.65883897216741" lon="-5.126643581723265"><ele>361.0</ele><time>2026-04-28T13:28:23Z</time></trkpt><trkpt lat="34.65875492959248" lon="-5.126547052809809"><ele>361.0</ele><time>2026-04-28T13:28:24Z</time></trkpt><trkpt lat="34.658652619159355" lon="-5.126463159516998"><ele>361.0</ele><time>2026-04-28T13:28:25Z</time></trkpt><trkpt lat="34.65853536832886" lon="-5.12638874573405"><ele>361.0</ele><time>2026-04-28T13:28:26Z</time></trkpt><trkpt lat="34.65841773468532" lon="-5.126325792793873"><ele>361.0</ele><time>2026-04-28T13:28:27Z</time></trkpt><trkpt lat="34.6583039939556" lon="-5.126266210905108"><ele>361.0</ele><time>2026-04-28T13:28:28Z</time></trkpt><trkpt lat="34.658176880277104" lon="-5.126204111482808"><ele>361.0</ele><time>2026-04-28T13:28:29Z</time></trkpt><trkpt lat="34.65804862104457" lon="-5.1261358873098555"><ele>361.0</ele><time>2026-04-28T13:28:30Z</time></trkpt><trkpt lat="34.65791502043581" lon="-5.12605926520564"><ele>361.0</ele><time>2026-04-28T13:28:31Z</time></trkpt><trkpt lat="34.65777737207913" lon="-5.1259796128790835"><ele>361.0</ele><time>2026-04-28T13:28:32Z</time></trkpt><trkpt lat="34.65763810284074" lon="-5.125903704148441"><ele>360.3333333333333</ele><time>2026-04-28T13:28:33Z</time></trkpt><trkpt lat="34.65749603142564" lon="-5.125827619013583"><ele>359.6666666666667</ele><time>2026-04-28T13:28:34Z</time></trkpt><trkpt lat="34.65734906815526" lon="-5.12574551298315"><ele>359.0</ele><time>2026-04-28T13:28:35Z</time></trkpt><trkpt lat="34.657201354658504" lon="-5.125659189193849"><ele>358.0</ele><time>2026-04-28T13:28:36Z</time></trkpt><trkpt lat="34.65705595323999" lon="-5.1255684874506295"><ele>357.0</ele><time>2026-04-28T13:28:37Z</time></trkpt><trkpt lat="34.65691602395899" lon="-5.125481902687073"><ele>356.0</ele><time>2026-04-28T13:28:38Z</time></trkpt><trkpt lat="34.65677783985269" lon="-5.12539689397715"><ele>356.0</ele><time>2026-04-28T13:28:39Z</time></trkpt><trkpt lat="34.656644161227604" lon="-5.125312061116805"><ele>356.0</ele><time>2026-04-28T13:28:40Z</time></trkpt><trkpt lat="34.656509387284224" lon="-5.125224039245027"><ele>356.0</ele><time>2026-04-28T13:28:41Z</time></trkpt><trkpt lat="34.65637329363608" lon="-5.125136182711737"><ele>356.0</ele><time>2026-04-28T13:28:42Z</time></trkpt><trkpt lat="34.65623725233347" lon="-5.1250531002601285"><ele>356.0</ele><time>2026-04-28T13:28:43Z</time></trkpt><trkpt lat="34.656105199591416" lon="-5.1249713300237865"><ele>356.0</ele><time>2026-04-28T13:28:44Z</time></trkpt><trkpt lat="34.655978410829796" lon="-5.124896474862972"><ele>356.0</ele><time>2026-04-28T13:28:45Z</time></trkpt><trkpt lat="34.655842495281554" lon="-5.124840350894227"><ele>356.6666666666667</ele><time>2026-04-28T13:28:46Z</time></trkpt><trkpt lat="34.65569130294655" lon="-5.124824222143157"><ele>357.3333333333333</ele><time>2026-04-28T13:28:47Z</time></trkpt><trkpt lat="34.65553542848902" lon="-5.124864428897796"><ele>358.0</ele><time>2026-04-28T13:28:48Z</time></trkpt><trkpt lat="34.65538072601848" lon="-5.124870368372962"><ele>356.75</ele><time>2026-04-28T13:28:49Z</time></trkpt><trkpt lat="34.65523349467362" lon="-5.1248945793100775"><ele>355.5</ele><time>2026-04-28T13:28:50Z</time></trkpt><trkpt lat="34.65508985385452" lon="-5.124891591020201"><ele>354.25</ele><time>2026-04-28T13:28:51Z</time></trkpt><trkpt lat="34.65494203493929" lon="-5.12485328920074"><ele>353.0</ele><time>2026-04-28T13:28:52Z</time></trkpt><trkpt lat="34.65479754840406" lon="-5.124787033630549"><ele>353.0</ele><time>2026-04-28T13:28:53Z</time></trkpt><trkpt lat="34.654665799872184" lon="-5.124689943134623"><ele>353.0</ele><time>2026-04-28T13:28:54Z</time></trkpt><trkpt lat="34.654546002505874" lon="-5.124558403484659"><ele>353.0</ele><time>2026-04-28T13:28:55Z</time></trkpt><trkpt lat="34.65444135364514" lon="-5.124403440334622"><ele>348.0</ele><time>2026-04-28T13:28:56Z</time></trkpt><trkpt lat="34.654358074790416" lon="-5.124238966768048"><ele>343.0</ele><time>2026-04-28T13:28:57Z</time></trkpt><trkpt lat="34.65428528761212" lon="-5.1240768205394644"><ele>338.0</ele><time>2026-04-28T13:28:58Z</time></trkpt><trkpt lat="34.65421224748081" lon="-5.123917161176756"><ele>338.0</ele><time>2026-04-28T13:28:59Z</time></trkpt><trkpt lat="34.65413800509001" lon="-5.123768951408983"><ele>338.0</ele><time>2026-04-28T13:29:00Z</time></trkpt><trkpt lat="34.65407142480837" lon="-5.12363786131464"><ele>338.0</ele><time>2026-04-28T13:29:01Z</time></trkpt><trkpt lat="34.65402089115185" lon="-5.1235237865904795"><ele>338.0</ele><time>2026-04-28T13:29:02Z</time></trkpt><trkpt lat="34.6539779420164" lon="-5.123425275288371"><ele>338.0</ele><time>2026-04-28T13:29:03Z</time></trkpt><trkpt lat="34.653930045566106" lon="-5.123338378187271"><ele>338.0</ele><time>2026-04-28T13:29:04Z</time></trkpt><trkpt lat="34.65388165475731" lon="-5.123262058300377"><ele>338.0</ele><time>2026-04-28T13:29:05Z</time></trkpt><trkpt lat="34.65381503163083" lon="-5.123199968245053"><ele>338.0</ele><time>2026-04-28T13:29:06Z</time></trkpt><trkpt lat="34.65372542911481" lon="-5.123202337954274"><ele>338.0</ele><time>2026-04-28T13:29:07Z</time></trkpt><trkpt lat="34.65364162385379" lon="-5.123179131719037"><ele>338.0</ele><time>2026-04-28T13:29:08Z</time></trkpt><trkpt lat="34.65356334452398" lon="-5.123155318977241"><ele>336.5</ele><time>2026-04-28T13:29:09Z</time></trkpt><trkpt lat="34.65352035021915" lon="-5.12303720418371"><ele>335.0</ele><time>2026-04-28T13:29:10Z</time></trkpt><trkpt lat="34.65347592603056" lon="-5.122955013156309"><ele>333.5</ele><time>2026-04-28T13:29:11Z</time></trkpt><trkpt lat="34.65343203796312" lon="-5.12288332956456"><ele>332.0</ele><time>2026-04-28T13:29:12Z</time></trkpt><trkpt lat="34.6533866547084" lon="-5.122820947951017"><ele>330.5</ele><time>2026-04-28T13:29:13Z</time></trkpt><trkpt lat="34.65333485801728" lon="-5.122762806050624"><ele>329.0</ele><time>2026-04-28T13:29:14Z</time></trkpt><trkpt lat="34.65326552879406" lon="-5.122712616153806"><ele>329.0</ele><time>2026-04-28T13:29:15Z</time></trkpt><trkpt lat="34.65316863322742" lon="-5.122670579346493"><ele>329.0</ele><time>2026-04-28T13:29:16Z</time></trkpt><trkpt lat="34.653053042069224" lon="-5.122635091664479"><ele>329.0</ele><time>2026-04-28T13:29:17Z</time></trkpt><trkpt lat="34.652924731697716" lon="-5.122599790786584"><ele>329.0</ele><time>2026-04-28T13:29:18Z</time></trkpt><trkpt lat="34.65279212175676" lon="-5.122566321240025"><ele>331.5</ele><time>2026-04-28T13:29:19Z</time></trkpt><trkpt lat="34.652670481695324" lon="-5.122539846014764"><ele>334.0</ele><time>2026-04-28T13:29:20Z</time></trkpt><trkpt lat="34.652551484053255" lon="-5.122524136331959"><ele>336.5</ele><time>2026-04-28T13:29:21Z</time></trkpt><trkpt lat="34.65241680036527" lon="-5.122523469614333"><ele>339.0</ele><time>2026-04-28T13:29:22Z</time></trkpt><trkpt lat="34.652291165600545" lon="-5.122530921350391"><ele>339.0</ele><time>2026-04-28T13:29:23Z</time></trkpt><trkpt lat="34.65216874752206" lon="-5.122515918653919"><ele>339.0</ele><time>2026-04-28T13:29:24Z</time></trkpt><trkpt lat="34.652050808960006" lon="-5.1224603997256555"><ele>339.0</ele><time>2026-04-28T13:29:25Z</time></trkpt><trkpt lat="34.65194723661753" lon="-5.122353015333967"><ele>339.0</ele><time>2026-04-28T13:29:26Z</time></trkpt><trkpt lat="34.651863504320836" lon="-5.122210112761419"><ele>340.0</ele><time>2026-04-28T13:29:27Z</time></trkpt><trkpt lat="34.65178808229478" lon="-5.122068420530634"><ele>341.0</ele><time>2026-04-28T13:29:28Z</time></trkpt><trkpt lat="34.65171439118389" lon="-5.1219538053039795"><ele>342.0</ele><time>2026-04-28T13:29:29Z</time></trkpt><trkpt lat="34.6516320540858" lon="-5.121859281704122"><ele>343.0</ele><time>2026-04-28T13:29:30Z</time></trkpt><trkpt lat="34.65155238664726" lon="-5.121764818345096"><ele>343.0</ele><time>2026-04-28T13:29:31Z</time></trkpt><trkpt lat="34.651475385732795" lon="-5.121664062108319"><ele>343.0</ele><time>2026-04-28T13:29:32Z</time></trkpt><trkpt lat="34.65139676997591" lon="-5.121564807782165"><ele>343.0</ele><time>2026-04-28T13:29:33Z</time></trkpt><trkpt lat="34.65130590171622" lon="-5.121479925803535"><ele>343.0</ele><time>2026-04-28T13:29:34Z</time></trkpt><trkpt lat="34.6512014800309" lon="-5.1214035666794295"><ele>342.75</ele><time>2026-04-28T13:29:35Z</time></trkpt><trkpt lat="34.65108073238253" lon="-5.121327892398263"><ele>342.5</ele><time>2026-04-28T13:29:36Z</time></trkpt><trkpt lat="34.65095220772033" lon="-5.121243552421982"><ele>342.25</ele><time>2026-04-28T13:29:37Z</time></trkpt><trkpt lat="34.650815520090404" lon="-5.121158488129564"><ele>342.0</ele><time>2026-04-28T13:29:38Z</time></trkpt><trkpt lat="34.6506698678497" lon="-5.121074700515773"><ele>342.0</ele><time>2026-04-28T13:29:39Z</time></trkpt><trkpt lat="34.650525851203845" lon="-5.120986340200684"><ele>342.0</ele><time>2026-04-28T13:29:40Z</time></trkpt><trkpt lat="34.650394373502166" lon="-5.1209003947242"><ele>342.0</ele><time>2026-04-28T13:29:41Z</time></trkpt><trkpt lat="34.65026755784556" lon="-5.120799913122614"><ele>346.3333333333333</ele><time>2026-04-28T13:29:42Z</time></trkpt><trkpt lat="34.65014106754949" lon="-5.120673703437671"><ele>350.66666666666663</ele><time>2026-04-28T13:29:43Z</time></trkpt><trkpt lat="34.65001828300433" lon="-5.120543964618664"><ele>355.0</ele><time>2026-04-28T13:29:44Z</time></trkpt><trkpt lat="34.64990112444449" lon="-5.120420363432926"><ele>355.0</ele><time>2026-04-28T13:29:45Z</time></trkpt><trkpt lat="34.64978466475333" lon="-5.120315932245989"><ele>355.0</ele><time>2026-04-28T13:29:46Z</time></trkpt><trkpt lat="34.64965813688032" lon="-5.120226593397588"><ele>355.0</ele><time>2026-04-28T13:29:47Z</time></trkpt><trkpt lat="34.649518065293755" lon="-5.120157540377071"><ele>355.0</ele><time>2026-04-28T13:29:48Z</time></trkpt><trkpt lat="34.64936562007101" lon="-5.120103465843447"><ele>354.66666666666663</ele><time>2026-04-28T13:29:49Z</time></trkpt><trkpt lat="34.649210130276366" lon="-5.1200383600216615"><ele>354.3333333333333</ele><time>2026-04-28T13:29:50Z</time></trkpt><trkpt lat="34.649064650275164" lon="-5.119944052293842"><ele>354.0</ele><time>2026-04-28T13:29:51Z</time></trkpt><trkpt lat="34.648921689215854" lon="-5.119823000763137"><ele>353.3333333333333</ele><time>2026-04-28T13:29:52Z</time></trkpt><trkpt lat="34.64878863873245" lon="-5.11967951462102"><ele>352.66666666666663</ele><time>2026-04-28T13:29:53Z</time></trkpt><trkpt lat="34.64865920368902" lon="-5.119532357358543"><ele>352.0</ele><time>2026-04-28T13:29:54Z</time></trkpt><trkpt lat="34.648533022441406" lon="-5.1193993108906"><ele>352.0</ele><time>2026-04-28T13:29:55Z</time></trkpt><trkpt lat="34.64841072956561" lon="-5.119270473857666"><ele>352.0</ele><time>2026-04-28T13:29:56Z</time></trkpt><trkpt lat="34.648290201752125" lon="-5.119141625194739"><ele>352.0</ele><time>2026-04-28T13:29:57Z</time></trkpt><trkpt lat="34.64817308388203" lon="-5.119009184202106"><ele>355.0</ele><time>2026-04-28T13:29:58Z</time></trkpt><trkpt lat="34.64807710827428" lon="-5.118872668687543"><ele>358.0</ele><time>2026-04-28T13:29:59Z</time></trkpt><trkpt lat="34.647995670403986" lon="-5.118724535219651"><ele>361.0</ele><time>2026-04-28T13:30:00Z</time></trkpt><trkpt lat="34.64792703138695" lon="-5.11856662043401"><ele>364.0</ele><time>2026-04-28T13:30:01Z</time></trkpt><trkpt lat="34.64787713569587" lon="-5.118396022983232"><ele>364.66666666666663</ele><time>2026-04-28T13:30:02Z</time></trkpt><trkpt lat="34.64784432718586" lon="-5.118198967259358"><ele>365.3333333333333</ele><time>2026-04-28T13:30:03Z</time></trkpt><trkpt lat="34.647820527307225" lon="-5.117979827727132"><ele>366.0</ele><time>2026-04-28T13:30:04Z</time></trkpt><trkpt lat="34.64779711543981" lon="-5.11775772230485"><ele>358.3333333333333</ele><time>2026-04-28T13:30:05Z</time></trkpt><trkpt lat="34.64777576187236" lon="-5.117557123566896"><ele>350.66666666666663</ele><time>2026-04-28T13:30:06Z</time></trkpt><trkpt lat="34.64775420336108" lon="-5.117368503169182"><ele>343.0</ele><time>2026-04-28T13:30:07Z</time></trkpt><trkpt lat="34.64773309467351" lon="-5.117184335592711"><ele>342.25</ele><time>2026-04-28T13:30:08Z</time></trkpt><trkpt lat="34.64771478135324" lon="-5.117001695814667"><ele>341.5</ele><time>2026-04-28T13:30:09Z</time></trkpt><trkpt lat="34.64771223254322" lon="-5.116821999978728"><ele>340.75</ele><time>2026-04-28T13:30:10Z</time></trkpt><trkpt lat="34.64773149135154" lon="-5.116650976356008"><ele>340.0</ele><time>2026-04-28T13:30:11Z</time></trkpt><trkpt lat="34.64777116974671" lon="-5.116483424113372"><ele>342.75</ele><time>2026-04-28T13:30:12Z</time></trkpt><trkpt lat="34.64781198953585" lon="-5.1163226121959235"><ele>345.5</ele><time>2026-04-28T13:30:13Z</time></trkpt><trkpt lat="34.64785389802096" lon="-5.116182364074054"><ele>348.25</ele><time>2026-04-28T13:30:14Z</time></trkpt><trkpt lat="34.64789250553011" lon="-5.116057261119559"><ele>351.0</ele><time>2026-04-28T13:30:15Z</time></trkpt><trkpt lat="34.64794329321207" lon="-5.11592477265439"><ele>351.0</ele><time>2026-04-28T13:30:16Z</time></trkpt><trkpt lat="34.647992140622726" lon="-5.115791291241912"><ele>351.0</ele><time>2026-04-28T13:30:17Z</time></trkpt><trkpt lat="34.64802399854652" lon="-5.115651222697384"><ele>351.0</ele><time>2026-04-28T13:30:18Z</time></trkpt><trkpt lat="34.64802190140575" lon="-5.115501813518592"><ele>351.0</ele><time>2026-04-28T13:30:19Z</time></trkpt><trkpt lat="34.64798390861841" lon="-5.115359091969308"><ele>348.75</ele><time>2026-04-28T13:30:20Z</time></trkpt><trkpt lat="34.6479400756435" lon="-5.115217544275357"><ele>346.5</ele><time>2026-04-28T13:30:21Z</time></trkpt><trkpt lat="34.64790357613281" lon="-5.115069956903867"><ele>344.25</ele><time>2026-04-28T13:30:22Z</time></trkpt><trkpt lat="34.64788473011017" lon="-5.114916552291543"><ele>342.0</ele><time>2026-04-28T13:30:23Z</time></trkpt><trkpt lat="34.64788574747211" lon="-5.1147578039653485"><ele>337.75</ele><time>2026-04-28T13:30:24Z</time></trkpt><trkpt lat="34.64790576348729" lon="-5.114596019430604"><ele>333.5</ele><time>2026-04-28T13:30:25Z</time></trkpt><trkpt lat="34.64794599239596" lon="-5.114439575085214"><ele>329.25</ele><time>2026-04-28T13:30:26Z</time></trkpt><trkpt lat="34.64800465747885" lon="-5.114289555262539"><ele>325.0</ele><time>2026-04-28T13:30:27Z</time></trkpt><trkpt lat="34.6480738276828" lon="-5.114145112519129"><ele>322.5</ele><time>2026-04-28T13:30:28Z</time></trkpt><trkpt lat="34.648149667313234" lon="-5.114002752889037"><ele>320.0</ele><time>2026-04-28T13:30:29Z</time></trkpt><trkpt lat="34.64822861355121" lon="-5.113866383880306"><ele>317.5</ele><time>2026-04-28T13:30:30Z</time></trkpt><trkpt lat="34.64830495087763" lon="-5.113724220301941"><ele>315.0</ele><time>2026-04-28T13:30:31Z</time></trkpt><trkpt lat="34.648359796698315" lon="-5.113575670428722"><ele>315.0</ele><time>2026-04-28T13:30:32Z</time></trkpt><trkpt lat="34.64838599976085" lon="-5.1134210724920415"><ele>315.0</ele><time>2026-04-28T13:30:33Z</time></trkpt><trkpt lat="34.64839228567528" lon="-5.113251100762888"><ele>315.0</ele><time>2026-04-28T13:30:34Z</time></trkpt><trkpt lat="34.64838003005572" lon="-5.113080040991954"><ele>315.0</ele><time>2026-04-28T13:30:35Z</time></trkpt><trkpt lat="34.64835072177393" lon="-5.112908052299184"><ele>316.75</ele><time>2026-04-28T13:30:36Z</time></trkpt><trkpt lat="34.648305449964276" lon="-5.112748125177876"><ele>318.5</ele><time>2026-04-28T13:30:37Z</time></trkpt><trkpt lat="34.64823106302885" lon="-5.112616257476277"><ele>320.25</ele><time>2026-04-28T13:30:38Z</time></trkpt><trkpt lat="34.648130922349615" lon="-5.112531330418028"><ele>322.0</ele><time>2026-04-28T13:30:39Z</time></trkpt><trkpt lat="34.64802109810682" lon="-5.112486869319077"><ele>322.0</ele><time>2026-04-28T13:30:40Z</time></trkpt><trkpt lat="34.647926693417844" lon="-5.112437436431986"><ele>322.0</ele><time>2026-04-28T13:30:41Z</time></trkpt><trkpt lat="34.647873575393746" lon="-5.112341175742461"><ele>322.0</ele><time>2026-04-28T13:30:42Z</time></trkpt><trkpt lat="34.64785473653848" lon="-5.112212904526818"><ele>322.0</ele><time>2026-04-28T13:30:43Z</time></trkpt><trkpt lat="34.64786539177637" lon="-5.112071718018827"><ele>322.0</ele><time>2026-04-28T13:30:44Z</time></trkpt><trkpt lat="34.64788557082051" lon="-5.111922773645761"><ele>322.0</ele><time>2026-04-28T13:30:45Z</time></trkpt><trkpt lat="34.64790007022259" lon="-5.111769639515948"><ele>322.0</ele><time>2026-04-28T13:30:46Z</time></trkpt><trkpt lat="34.64790053752262" lon="-5.111616339580192"><ele>322.0</ele><time>2026-04-28T13:30:47Z</time></trkpt><trkpt lat="34.64787630814095" lon="-5.111456269250402"><ele>322.0</ele><time>2026-04-28T13:30:48Z</time></trkpt><trkpt lat="34.647825609055175" lon="-5.111302712826177"><ele>316.25</ele><time>2026-04-28T13:30:49Z</time></trkpt><trkpt lat="34.64776379399783" lon="-5.111160003979949"><ele>310.5</ele><time>2026-04-28T13:30:50.001Z</time></trkpt><trkpt lat="34.64771319387596" lon="-5.111005655585498"><ele>304.75</ele><time>2026-04-28T13:30:51.001Z</time></trkpt><trkpt lat="34.64768754551573" lon="-5.110831519218001"><ele>299.0</ele><time>2026-04-28T13:30:52.001Z</time></trkpt><trkpt lat="34.64768371770612" lon="-5.110643277575371"><ele>297.0</ele><time>2026-04-28T13:30:53.001Z</time></trkpt><trkpt lat="34.64769197419625" lon="-5.110449771648814"><ele>295.0</ele><time>2026-04-28T13:30:54.001Z</time></trkpt><trkpt lat="34.647707599963105" lon="-5.110264443554318"><ele>293.0</ele><time>2026-04-28T13:30:55.001Z</time></trkpt><trkpt lat="34.64771525833335" lon="-5.110086127886442"><ele>293.0</ele><time>2026-04-28T13:30:56.001Z</time></trkpt><trkpt lat="34.64770221032272" lon="-5.109911772739372"><ele>293.0</ele><time>2026-04-28T13:30:57.001Z</time></trkpt><trkpt lat="34.64766350298943" lon="-5.109751003415157"><ele>293.0</ele><time>2026-04-28T13:30:58.001Z</time></trkpt><trkpt lat="34.647614691820365" lon="-5.109592591845666"><ele>293.0</ele><time>2026-04-28T13:30:59.001Z</time></trkpt><trkpt lat="34.64756450023433" lon="-5.109438873262454"><ele>293.0</ele><time>2026-04-28T13:31:00.001Z</time></trkpt><trkpt lat="34.64751596842933" lon="-5.109283522940258"><ele>293.0</ele><time>2026-04-28T13:31:01.001Z</time></trkpt><trkpt lat="34.64747024398415" lon="-5.109125718330866"><ele>293.0</ele><time>2026-04-28T13:31:02Z</time></trkpt><trkpt lat="34.64743818740545" lon="-5.108961519024542"><ele>293.0</ele><time>2026-04-28T13:31:03Z</time></trkpt><trkpt lat="34.64743310189273" lon="-5.108791565768768"><ele>291.75</ele><time>2026-04-28T13:31:04Z</time></trkpt><trkpt lat="34.64744625362725" lon="-5.1086176032399795"><ele>290.5</ele><time>2026-04-28T13:31:05Z</time></trkpt><trkpt lat="34.64747022611713" lon="-5.108444265132557"><ele>289.25</ele><time>2026-04-28T13:31:06Z</time></trkpt><trkpt lat="34.647486762876845" lon="-5.108269012390575"><ele>288.0</ele><time>2026-04-28T13:31:07Z</time></trkpt><trkpt lat="34.647478559921495" lon="-5.1080870134262435"><ele>287.25</ele><time>2026-04-28T13:31:08Z</time></trkpt><trkpt lat="34.64744216536294" lon="-5.10791218088453"><ele>286.5</ele><time>2026-04-28T13:31:09Z</time></trkpt><trkpt lat="34.64738684780398" lon="-5.107746134567838"><ele>285.75</ele><time>2026-04-28T13:31:10Z</time></trkpt><trkpt lat="34.64730452457217" lon="-5.1075914788590095"><ele>285.0</ele><time>2026-04-28T13:31:11Z</time></trkpt><trkpt lat="34.64720488562812" lon="-5.107449354743503"><ele>284.0</ele><time>2026-04-28T13:31:12Z</time></trkpt><trkpt lat="34.647102735046104" lon="-5.107322316293341"><ele>283.0</ele><time>2026-04-28T13:31:13Z</time></trkpt><trkpt lat="34.647000337469116" lon="-5.107205490589956"><ele>282.0</ele><time>2026-04-28T13:31:14Z</time></trkpt><trkpt lat="34.64689174452644" lon="-5.107104927594604"><ele>281.0</ele><time>2026-04-28T13:31:15Z</time></trkpt><trkpt lat="34.646776203941165" lon="-5.107061450031016"><ele>276.25</ele><time>2026-04-28T13:31:16Z</time></trkpt><trkpt lat="34.646664611523086" lon="-5.1070150111461174"><ele>271.5</ele><time>2026-04-28T13:31:17Z</time></trkpt><trkpt lat="34.646546638455916" lon="-5.107017108229605"><ele>266.75</ele><time>2026-04-28T13:31:18Z</time></trkpt><trkpt lat="34.64642383887077" lon="-5.107021755544713"><ele>262.0</ele><time>2026-04-28T13:31:19Z</time></trkpt><trkpt lat="34.64629368696415" lon="-5.107029408549404"><ele>262.0</ele><time>2026-04-28T13:31:20Z</time></trkpt><trkpt lat="34.64616136763038" lon="-5.107038424889884"><ele>262.0</ele><time>2026-04-28T13:31:21Z</time></trkpt><trkpt lat="34.64603113302102" lon="-5.1070472020586"><ele>262.0</ele><time>2026-04-28T13:31:22Z</time></trkpt><trkpt lat="34.64591088360811" lon="-5.107058177936477"><ele>262.0</ele><time>2026-04-28T13:31:23Z</time></trkpt><trkpt lat="34.64579833874427" lon="-5.107070401521468"><ele>259.2</ele><time>2026-04-28T13:31:24Z</time></trkpt><trkpt lat="34.64569753849752" lon="-5.107081349524505"><ele>256.4</ele><time>2026-04-28T13:31:25Z</time></trkpt><trkpt lat="34.64560805316421" lon="-5.10709126403932"><ele>253.60000000000002</ele><time>2026-04-28T13:31:26Z</time></trkpt><trkpt lat="34.64552722850539" lon="-5.107100434675632"><ele>250.8</ele><time>2026-04-28T13:31:27Z</time></trkpt><trkpt lat="34.6454252362539" lon="-5.107175857252063"><ele>248.0</ele><time>2026-04-28T13:31:29Z</time></trkpt><trkpt lat="34.645371982920885" lon="-5.1072917975560586"><ele>248.0</ele><time>2026-04-28T13:31:31Z</time></trkpt><trkpt lat="34.64537214877251" lon="-5.1073746955946175"><ele>248.00000000000003</ele><time>2026-04-28T13:31:32Z</time></trkpt><trkpt lat="34.64540668055411" lon="-5.107459177795399"><ele>248.0</ele><time>2026-04-28T13:31:33Z</time></trkpt><trkpt lat="34.64544508309483" lon="-5.107536341014275"><ele>248.0</ele><time>2026-04-28T13:31:34Z</time></trkpt><trkpt lat="34.64549402814611" lon="-5.107613643546166"><ele>248.00000000000003</ele><time>2026-04-28T13:31:35Z</time></trkpt><trkpt lat="34.645522279930105" lon="-5.1076978296528734"><ele>248.0</ele><time>2026-04-28T13:31:36Z</time></trkpt><trkpt lat="34.645549754837596" lon="-5.107781861078153"><ele>248.0</ele><time>2026-04-28T13:31:37Z</time></trkpt><trkpt lat="34.64556124680697" lon="-5.107884222341768"><ele>248.83333333333334</ele><time>2026-04-28T13:31:38Z</time></trkpt><trkpt lat="34.64556777784741" lon="-5.1079752332465835"><ele>249.66666666666669</ele><time>2026-04-28T13:31:39Z</time></trkpt><trkpt lat="34.64556391996974" lon="-5.10806952095351"><ele>250.5</ele><time>2026-04-28T13:31:40Z</time></trkpt><trkpt lat="34.64555643820343" lon="-5.108161428346466"><ele>251.33333333333331</ele><time>2026-04-28T13:31:41Z</time></trkpt><trkpt lat="34.64554245048795" lon="-5.108251517170354"><ele>252.16666666666666</ele><time>2026-04-28T13:31:42Z</time></trkpt><trkpt lat="34.64552962273011" lon="-5.108340390644974"><ele>253.0</ele><time>2026-04-28T13:31:43Z</time></trkpt><trkpt lat="34.645517301310925" lon="-5.108425759185187"><ele>253.16666666666666</ele><time>2026-04-28T13:31:44Z</time></trkpt><trkpt lat="34.64546042784944" lon="-5.108512050306729"><ele>253.33333333333331</ele><time>2026-04-28T13:31:45Z</time></trkpt><trkpt lat="34.64539885997173" lon="-5.10857310700632"><ele>253.5</ele><time>2026-04-28T13:31:46Z</time></trkpt><trkpt lat="34.64534379081672" lon="-5.108639915498861"><ele>253.66666666666669</ele><time>2026-04-28T13:31:47Z</time></trkpt><trkpt lat="34.64528642373523" lon="-5.108700467615619"><ele>253.83333333333334</ele><time>2026-04-28T13:31:48Z</time></trkpt><trkpt lat="34.64522518631363" lon="-5.108754991878059"><ele>254.0</ele><time>2026-04-28T13:31:49Z</time></trkpt><trkpt lat="34.645162681523814" lon="-5.108810230327296"><ele>250.16666666666669</ele><time>2026-04-28T13:31:50Z</time></trkpt><trkpt lat="34.645104287528206" lon="-5.108864821178338"><ele>246.33333333333334</ele><time>2026-04-28T13:31:51Z</time></trkpt><trkpt lat="34.64503658133821" lon="-5.108912021932228"><ele>242.5</ele><time>2026-04-28T13:31:52Z</time></trkpt><trkpt lat="34.64496661333515" lon="-5.108952339302155"><ele>238.66666666666669</ele><time>2026-04-28T13:31:53Z</time></trkpt><trkpt lat="34.64489150179648" lon="-5.108983684852313"><ele>234.83333333333334</ele><time>2026-04-28T13:31:54Z</time></trkpt><trkpt lat="34.64481999170813" lon="-5.109014217324902"><ele>231.0</ele><time>2026-04-28T13:31:55Z</time></trkpt><trkpt lat="34.64474514313902" lon="-5.109041682307198"><ele>231.0</ele><time>2026-04-28T13:31:56Z</time></trkpt><trkpt lat="34.64466761940181" lon="-5.10906502030488"><ele>231.0</ele><time>2026-04-28T13:31:57Z</time></trkpt><trkpt lat="34.64459363175829" lon="-5.109085135921492"><ele>231.0</ele><time>2026-04-28T13:31:58Z</time></trkpt><trkpt lat="34.644525349531996" lon="-5.1090992377241236"><ele>231.0</ele><time>2026-04-28T13:31:59Z</time></trkpt><trkpt lat="34.64446201683972" lon="-5.109095163023281"><ele>231.0</ele><time>2026-04-28T13:32:00Z</time></trkpt><trkpt lat="34.64440221875047" lon="-5.109070144750618"><ele>231.0</ele><time>2026-04-28T13:32:01Z</time></trkpt><trkpt lat="34.64432825938232" lon="-5.108971393360978"><ele>231.0</ele><time>2026-04-28T13:32:03Z</time></trkpt><trkpt lat="34.644320637596444" lon="-5.108878833985876"><ele>231.0</ele><time>2026-04-28T13:32:05Z</time></trkpt><trkpt lat="34.64436206477327" lon="-5.108800041430211"><ele>231.0</ele><time>2026-04-28T13:33:30Z</time></trkpt><trkpt lat="34.64443769298963" lon="-5.108710015119768"><ele>231.0</ele><time>2026-04-28T13:33:33Z</time></trkpt><trkpt lat="34.64448439273462" lon="-5.1086512903989645"><ele>231.0</ele><time>2026-04-28T13:33:34Z</time></trkpt><trkpt lat="34.64452660688257" lon="-5.108587010277293"><ele>231.0</ele><time>2026-04-28T13:33:35Z</time></trkpt><trkpt lat="34.64455726848974" lon="-5.1085130500761995"><ele>231.0</ele><time>2026-04-28T13:33:36Z</time></trkpt><trkpt lat="34.64457034603543" lon="-5.108432073649096"><ele>231.0</ele><time>2026-04-28T13:33:37Z</time></trkpt><trkpt lat="34.64456195455869" lon="-5.108348706831783"><ele>231.0</ele><time>2026-04-28T13:33:38Z</time></trkpt><trkpt lat="34.644529708111726" lon="-5.108271491868326"><ele>231.0</ele><time>2026-04-28T13:33:39Z</time></trkpt><trkpt lat="34.644462892110326" lon="-5.108197776523863"><ele>231.0</ele><time>2026-04-28T13:33:40Z</time></trkpt><trkpt lat="34.64436395596783" lon="-5.108156984218679"><ele>231.0</ele><time>2026-04-28T13:33:41Z</time></trkpt><trkpt lat="34.6442444162464" lon="-5.108140812205215"><ele>228.60000000000002</ele><time>2026-04-28T13:33:42Z</time></trkpt><trkpt lat="34.64412912900885" lon="-5.108129564123566"><ele>226.20000000000002</ele><time>2026-04-28T13:33:43Z</time></trkpt><trkpt lat="34.64402782808009" lon="-5.108121550150447"><ele>223.79999999999998</ele><time>2026-04-28T13:33:44Z</time></trkpt><trkpt lat="34.64393820951419" lon="-5.108099745182643"><ele>221.39999999999998</ele><time>2026-04-28T13:33:45Z</time></trkpt><trkpt lat="34.64385293920484" lon="-5.108054429152889"><ele>219.0</ele><time>2026-04-28T13:33:46Z</time></trkpt><trkpt lat="34.64378724040496" lon="-5.107973560752398"><ele>219.0</ele><time>2026-04-28T13:33:47Z</time></trkpt><trkpt lat="34.6437367454702" lon="-5.107868881301034"><ele>219.0</ele><time>2026-04-28T13:33:48Z</time></trkpt><trkpt lat="34.64369739881991" lon="-5.107739773983329"><ele>219.0</ele><time>2026-04-28T13:33:49Z</time></trkpt><trkpt lat="34.64365652066687" lon="-5.107597350056555"><ele>219.0</ele><time>2026-04-28T13:33:50Z</time></trkpt><trkpt lat="34.64361569461598" lon="-5.107451979110343"><ele>213.25</ele><time>2026-04-28T13:33:51Z</time></trkpt><trkpt lat="34.64357409227448" lon="-5.107312211162509"><ele>207.5</ele><time>2026-04-28T13:33:52Z</time></trkpt><trkpt lat="34.64352068042455" lon="-5.107182254312676"><ele>201.75</ele><time>2026-04-28T13:33:53Z</time></trkpt><trkpt lat="34.6434565888866" lon="-5.107057433392469"><ele>196.0</ele><time>2026-04-28T13:33:54Z</time></trkpt><trkpt lat="34.64339054628908" lon="-5.1069387839356"><ele>196.0</ele><time>2026-04-28T13:33:55Z</time></trkpt><trkpt lat="34.64332389014887" lon="-5.106827468341568"><ele>196.0</ele><time>2026-04-28T13:33:56Z</time></trkpt><trkpt lat="34.64327380062929" lon="-5.106703867739935"><ele>196.0</ele><time>2026-04-28T13:33:57Z</time></trkpt><trkpt lat="34.64324552291155" lon="-5.106574110505833"><ele>196.0</ele><time>2026-04-28T13:33:58Z</time></trkpt><trkpt lat="34.64322185212754" lon="-5.106435884197666"><ele>192.60000000000002</ele><time>2026-04-28T13:33:59Z</time></trkpt><trkpt lat="34.64321026285836" lon="-5.106299100641688"><ele>189.2</ele><time>2026-04-28T13:34:00Z</time></trkpt><trkpt lat="34.64321819051619" lon="-5.106167179802474"><ele>185.8</ele><time>2026-04-28T13:34:01Z</time></trkpt><trkpt lat="34.64324705092998" lon="-5.1060445760069095"><ele>182.39999999999998</ele><time>2026-04-28T13:34:02Z</time></trkpt><trkpt lat="34.64330513622951" lon="-5.105932385860245"><ele>179.0</ele><time>2026-04-28T13:34:03Z</time></trkpt><trkpt lat="34.643389213274645" lon="-5.105836805004932"><ele>179.0</ele><time>2026-04-28T13:34:04Z</time></trkpt><trkpt lat="34.64348426650194" lon="-5.105762072247703"><ele>179.0</ele><time>2026-04-28T13:34:05Z</time></trkpt><trkpt lat="34.643568214147585" lon="-5.1056922936552365"><ele>179.0</ele><time>2026-04-28T13:34:06Z</time></trkpt><trkpt lat="34.64363224461996" lon="-5.105616350353742"><ele>179.0</ele><time>2026-04-28T13:34:07Z</time></trkpt><trkpt lat="34.64366254497349" lon="-5.105514454028046"><ele>179.0</ele><time>2026-04-28T13:34:08Z</time></trkpt><trkpt lat="34.64365929401875" lon="-5.105407343620194"><ele>177.79999999999998</ele><time>2026-04-28T13:34:09Z</time></trkpt><trkpt lat="34.64363748864446" lon="-5.105308345298252"><ele>176.6</ele><time>2026-04-28T13:34:10Z</time></trkpt><trkpt lat="34.64360644369617" lon="-5.10520399713635"><ele>175.4</ele><time>2026-04-28T13:34:11Z</time></trkpt><trkpt lat="34.64356402837027" lon="-5.105093188837973"><ele>174.2</ele><time>2026-04-28T13:34:12Z</time></trkpt><trkpt lat="34.64350325709527" lon="-5.104965181662994"><ele>173.0</ele><time>2026-04-28T13:34:13Z</time></trkpt><trkpt lat="34.64344200496414" lon="-5.104810107822565"><ele>161.66666666666666</ele><time>2026-04-28T13:34:14Z</time></trkpt><trkpt lat="34.643375012782336" lon="-5.104644507623507"><ele>150.33333333333334</ele><time>2026-04-28T13:34:15Z</time></trkpt><trkpt lat="34.643313066651146" lon="-5.104470952435798"><ele>139.0</ele><time>2026-04-28T13:34:16Z</time></trkpt><trkpt lat="34.643249445406646" lon="-5.104292704084082"><ele>139.0</ele><time>2026-04-28T13:34:17Z</time></trkpt><trkpt lat="34.64318662576225" lon="-5.104110050100574"><ele>139.0</ele><time>2026-04-28T13:34:18Z</time></trkpt><trkpt lat="34.643132256704824" lon="-5.103934915717078"><ele>139.0</ele><time>2026-04-28T13:34:19Z</time></trkpt><trkpt lat="34.643087986165106" lon="-5.103771668108879"><ele>141.25</ele><time>2026-04-28T13:34:20Z</time></trkpt><trkpt lat="34.64305566766566" lon="-5.103615195599163"><ele>143.5</ele><time>2026-04-28T13:34:21Z</time></trkpt><trkpt lat="34.643004261061144" lon="-5.103466213451627"><ele>145.75</ele><time>2026-04-28T13:34:22Z</time></trkpt><trkpt lat="34.64296420931659" lon="-5.103325269172003"><ele>148.0</ele><time>2026-04-28T13:34:23Z</time></trkpt><trkpt lat="34.64291937371756" lon="-5.103196743726347"><ele>152.8</ele><time>2026-04-28T13:34:24Z</time></trkpt><trkpt lat="34.64287265380633" lon="-5.103085086343688"><ele>157.60000000000002</ele><time>2026-04-28T13:34:25Z</time></trkpt><trkpt lat="34.642805911320565" lon="-5.10299974495044"><ele>162.39999999999998</ele><time>2026-04-28T13:34:26Z</time></trkpt><trkpt lat="34.6427063751641" lon="-5.102946852410639"><ele>167.2</ele><time>2026-04-28T13:34:27Z</time></trkpt><trkpt lat="34.64259190346535" lon="-5.102923903023682"><ele>172.0</ele><time>2026-04-28T13:34:28Z</time></trkpt><trkpt lat="34.6424656216814" lon="-5.102923769664744"><ele>178.75</ele><time>2026-04-28T13:34:29Z</time></trkpt><trkpt lat="34.642347335197826" lon="-5.1029585819483065"><ele>185.5</ele><time>2026-04-28T13:34:30Z</time></trkpt><trkpt lat="34.642245311021604" lon="-5.103015319190243"><ele>192.25</ele><time>2026-04-28T13:34:31Z</time></trkpt><trkpt lat="34.64213834439114" lon="-5.103081254062834"><ele>199.0</ele><time>2026-04-28T13:34:32Z</time></trkpt><trkpt lat="34.64203152797952" lon="-5.103133365465302"><ele>199.75</ele><time>2026-04-28T13:34:33Z</time></trkpt><trkpt lat="34.641916195430184" lon="-5.103185663833728"><ele>200.5</ele><time>2026-04-28T13:34:34Z</time></trkpt><trkpt lat="34.64179699171711" lon="-5.103238977288418"><ele>201.25</ele><time>2026-04-28T13:34:35Z</time></trkpt><trkpt lat="34.64166560601588" lon="-5.103291177126636"><ele>202.0</ele><time>2026-04-28T13:34:36Z</time></trkpt><trkpt lat="34.64153255925168" lon="-5.103344677448181"><ele>196.25</ele><time>2026-04-28T13:34:37Z</time></trkpt><trkpt lat="34.64139187275134" lon="-5.103380000402595"><ele>190.5</ele><time>2026-04-28T13:34:38Z</time></trkpt><trkpt lat="34.641256182286014" lon="-5.103382464704354"><ele>184.75</ele><time>2026-04-28T13:34:39Z</time></trkpt><trkpt lat="34.64112181240936" lon="-5.10337113402342"><ele>179.0</ele><time>2026-04-28T13:34:40Z</time></trkpt><trkpt lat="34.64098558481805" lon="-5.103372357345918"><ele>179.0</ele><time>2026-04-28T13:34:41Z</time></trkpt><trkpt lat="34.64085695243818" lon="-5.103400685410491"><ele>179.0</ele><time>2026-04-28T13:34:42Z</time></trkpt><trkpt lat="34.640733577246415" lon="-5.103427918035111"><ele>179.0</ele><time>2026-04-28T13:34:43Z</time></trkpt><trkpt lat="34.6406073682572" lon="-5.103419950730847"><ele>179.0</ele><time>2026-04-28T13:34:44Z</time></trkpt><trkpt lat="34.640470010632484" lon="-5.103377201112864"><ele>179.0</ele><time>2026-04-28T13:34:45Z</time></trkpt><trkpt lat="34.64033016259862" lon="-5.103317556191231"><ele>179.0</ele><time>2026-04-28T13:34:46Z</time></trkpt><trkpt lat="34.6401860450585" lon="-5.103250621431998"><ele>179.0</ele><time>2026-04-28T13:34:47Z</time></trkpt><trkpt lat="34.640038952321625" lon="-5.103185671305635"><ele>182.66666666666666</ele><time>2026-04-28T13:34:48Z</time></trkpt><trkpt lat="34.639891701179856" lon="-5.103115127328198"><ele>186.33333333333334</ele><time>2026-04-28T13:34:49Z</time></trkpt><trkpt lat="34.639757434067214" lon="-5.103030484151312"><ele>190.0</ele><time>2026-04-28T13:34:50Z</time></trkpt><trkpt lat="34.639638116436714" lon="-5.10291942073305"><ele>190.0</ele><time>2026-04-28T13:34:51Z</time></trkpt><trkpt lat="34.639533410548474" lon="-5.102799851822221"><ele>190.0</ele><time>2026-04-28T13:34:52Z</time></trkpt><trkpt lat="34.639444716634834" lon="-5.102694546633091"><ele>190.0</ele><time>2026-04-28T13:34:53Z</time></trkpt><trkpt lat="34.639367790984664" lon="-5.102599765990501"><ele>190.0</ele><time>2026-04-28T13:34:54Z</time></trkpt><trkpt lat="34.639308136148074" lon="-5.102484947095783"><ele>189.0</ele><time>2026-04-28T13:34:55Z</time></trkpt><trkpt lat="34.639281442487736" lon="-5.1023543051623355"><ele>188.0</ele><time>2026-04-28T13:34:56Z</time></trkpt><trkpt lat="34.63928371497389" lon="-5.102217259809125"><ele>187.0</ele><time>2026-04-28T13:34:57Z</time></trkpt><trkpt lat="34.63931266042589" lon="-5.1020833334452105"><ele>186.0</ele><time>2026-04-28T13:34:58Z</time></trkpt><trkpt lat="34.639357149125935" lon="-5.10194175841545"><ele>186.0</ele><time>2026-04-28T13:34:59Z</time></trkpt><trkpt lat="34.63940474260356" lon="-5.101785276046945"><ele>186.0</ele><time>2026-04-28T13:35:00Z</time></trkpt><trkpt lat="34.63944867054362" lon="-5.101620869650975"><ele>186.0</ele><time>2026-04-28T13:35:01Z</time></trkpt><trkpt lat="34.63949622941015" lon="-5.10145526077025"><ele>186.0</ele><time>2026-04-28T13:35:02Z</time></trkpt><trkpt lat="34.639543494976195" lon="-5.10129572511476"><ele>189.8</ele><time>2026-04-28T13:35:03Z</time></trkpt><trkpt lat="34.639581762287" lon="-5.101158870043921"><ele>193.60000000000002</ele><time>2026-04-28T13:35:04Z</time></trkpt><trkpt lat="34.639613735062845" lon="-5.101046252840803"><ele>197.4</ele><time>2026-04-28T13:35:05Z</time></trkpt><trkpt lat="34.639652197531404" lon="-5.100958228456086"><ele>201.2</ele><time>2026-04-28T13:35:06Z</time></trkpt><trkpt lat="34.6397094821081" lon="-5.100884535690002"><ele>205.0</ele><time>2026-04-28T13:35:07Z</time></trkpt><trkpt lat="34.63977604460646" lon="-5.100825637239552"><ele>205.0</ele><time>2026-04-28T13:35:08Z</time></trkpt><trkpt lat="34.639855467637666" lon="-5.100794054958343"><ele>205.0</ele><time>2026-04-28T13:35:09Z</time></trkpt><trkpt lat="34.63995889661282" lon="-5.10085007446679"><ele>205.0</ele><time>2026-04-28T13:35:10Z</time></trkpt><trkpt lat="34.64002505987632" lon="-5.10097724293059"><ele>205.0</ele><time>2026-04-28T13:35:11Z</time></trkpt><trkpt lat="34.64004838901981" lon="-5.101126730211214"><ele>205.0</ele><time>2026-04-28T13:35:12Z</time></trkpt><trkpt lat="34.64006761073191" lon="-5.101285322954051"><ele>205.0</ele><time>2026-04-28T13:35:13Z</time></trkpt><trkpt lat="34.64008483046432" lon="-5.101435335201888"><ele>205.0</ele><time>2026-04-28T13:35:14Z</time></trkpt><trkpt lat="34.64010522646167" lon="-5.101534691721808"><ele>205.0</ele><time>2026-04-28T13:35:15Z</time></trkpt><trkpt lat="34.64012414027063" lon="-5.101608962843545"><ele>205.0</ele><time>2026-04-28T13:35:16Z</time></trkpt><trkpt lat="34.64023789689144" lon="-5.101614370713696"><ele>205.0</ele><time>2026-04-28T13:35:18Z</time></trkpt><trkpt lat="34.64031750313676" lon="-5.101536353946952"><ele>208.5</ele><time>2026-04-28T13:35:19Z</time></trkpt><trkpt lat="34.640389548706295" lon="-5.101423894701743"><ele>212.0</ele><time>2026-04-28T13:35:20Z</time></trkpt><trkpt lat="34.64048135766409" lon="-5.101315321559723"><ele>215.5</ele><time>2026-04-28T13:35:21Z</time></trkpt><trkpt lat="34.64059907192491" lon="-5.101228713417982"><ele>219.0</ele><time>2026-04-28T13:35:22Z</time></trkpt><trkpt lat="34.64074565901314" lon="-5.101156538727043"><ele>219.0</ele><time>2026-04-28T13:35:23Z</time></trkpt><trkpt lat="34.64089580267283" lon="-5.101104464726724"><ele>219.0</ele><time>2026-04-28T13:35:24Z</time></trkpt><trkpt lat="34.641057009506696" lon="-5.101063558631312"><ele>219.0</ele><time>2026-04-28T13:35:25Z</time></trkpt><trkpt lat="34.641212317561" lon="-5.100987568026882"><ele>221.0</ele><time>2026-04-28T13:35:26Z</time></trkpt><trkpt lat="34.64136746481834" lon="-5.100957710645627"><ele>223.0</ele><time>2026-04-28T13:35:27Z</time></trkpt><trkpt lat="34.64150298730892" lon="-5.100950288834158"><ele>225.0</ele><time>2026-04-28T13:35:28Z</time></trkpt><trkpt lat="34.64163732741402" lon="-5.100960459242731"><ele>227.0</ele><time>2026-04-28T13:35:29Z</time></trkpt><trkpt lat="34.64175136928412" lon="-5.101084846502063"><ele>227.0</ele><time>2026-04-28T13:35:30Z</time></trkpt><trkpt lat="34.64186595832519" lon="-5.1011605563934665"><ele>227.0</ele><time>2026-04-28T13:35:31Z</time></trkpt><trkpt lat="34.64195682812804" lon="-5.101227296359701"><ele>227.0</ele><time>2026-04-28T13:35:32Z</time></trkpt><trkpt lat="34.64202896862117" lon="-5.101263769395893"><ele>227.0</ele><time>2026-04-28T13:35:33Z</time></trkpt><trkpt lat="34.64209631209832" lon="-5.101229159882514"><ele>227.0</ele><time>2026-04-28T13:35:34Z</time></trkpt><trkpt lat="34.64213210383426" lon="-5.10115398261726"><ele>226.0</ele><time>2026-04-28T13:35:35Z</time></trkpt><trkpt lat="34.64212567029411" lon="-5.101054506420714"><ele>225.0</ele><time>2026-04-28T13:35:36Z</time></trkpt><trkpt lat="34.642077925803356" lon="-5.100956461508988"><ele>224.0</ele><time>2026-04-28T13:35:37Z</time></trkpt><trkpt lat="34.64201392025976" lon="-5.100848296964282"><ele>223.0</ele><time>2026-04-28T13:35:38Z</time></trkpt><trkpt lat="34.641925746620906" lon="-5.100740216415519"><ele>222.0</ele><time>2026-04-28T13:35:39Z</time></trkpt><trkpt lat="34.641833220869245" lon="-5.100620020609848"><ele>226.75</ele><time>2026-04-28T13:35:40Z</time></trkpt><trkpt lat="34.64175715082375" lon="-5.100507511876826"><ele>231.5</ele><time>2026-04-28T13:35:41Z</time></trkpt><trkpt lat="34.64167979966863" lon="-5.100387269094305"><ele>236.25</ele><time>2026-04-28T13:35:42Z</time></trkpt><trkpt lat="34.6415903733124" lon="-5.100246219211941"><ele>241.0</ele><time>2026-04-28T13:35:43Z</time></trkpt><trkpt lat="34.64149536719307" lon="-5.100100424281851"><ele>241.0</ele><time>2026-04-28T13:35:44Z</time></trkpt><trkpt lat="34.64140332170015" lon="-5.099949878663206"><ele>241.0</ele><time>2026-04-28T13:35:45Z</time></trkpt><trkpt lat="34.64133294055965" lon="-5.099784604887663"><ele>241.0</ele><time>2026-04-28T13:35:46Z</time></trkpt><trkpt lat="34.6412920030408" lon="-5.099603820547532"><ele>244.25</ele><time>2026-04-28T13:35:47Z</time></trkpt><trkpt lat="34.641267795780244" lon="-5.099425675011022"><ele>247.5</ele><time>2026-04-28T13:35:48Z</time></trkpt><trkpt lat="34.64124390867478" lon="-5.099251981431985"><ele>250.75</ele><time>2026-04-28T13:35:49Z</time></trkpt><trkpt lat="34.641228872512386" lon="-5.099102116522413"><ele>254.0</ele><time>2026-04-28T13:35:50Z</time></trkpt><trkpt lat="34.641227562973974" lon="-5.098979484063819"><ele>255.16666666666669</ele><time>2026-04-28T13:35:51Z</time></trkpt><trkpt lat="34.64123622312004" lon="-5.098879090496078"><ele>256.33333333333337</ele><time>2026-04-28T13:35:52Z</time></trkpt><trkpt lat="34.64127546165207" lon="-5.098804463183082"><ele>257.5</ele><time>2026-04-28T13:35:53Z</time></trkpt><trkpt lat="34.64132901085199" lon="-5.098743689353103"><ele>258.6666666666667</ele><time>2026-04-28T13:35:54Z</time></trkpt><trkpt lat="34.641424989702685" lon="-5.098740301280125"><ele>259.8333333333333</ele><time>2026-04-28T13:35:55Z</time></trkpt><trkpt lat="34.64151711673163" lon="-5.098817698706492"><ele>261.0</ele><time>2026-04-28T13:35:56Z</time></trkpt><trkpt lat="34.64160842397422" lon="-5.098892426932357"><ele>261.0</ele><time>2026-04-28T13:35:57Z</time></trkpt><trkpt lat="34.64169911859032" lon="-5.098926152099675"><ele>261.0</ele><time>2026-04-28T13:35:58Z</time></trkpt><trkpt lat="34.641762878198925" lon="-5.098935370261517"><ele>261.0</ele><time>2026-04-28T13:35:59Z</time></trkpt><trkpt lat="34.64180092757938" lon="-5.098872737636621"><ele>261.0</ele><time>2026-04-28T13:36:00Z</time></trkpt><trkpt lat="34.641826705945554" lon="-5.098756058028917"><ele>261.0</ele><time>2026-04-28T13:36:02Z</time></trkpt><trkpt lat="34.64180673911703" lon="-5.098661858573926"><ele>261.0</ele><time>2026-04-28T13:36:03Z</time></trkpt><trkpt lat="34.64176361673861" lon="-5.098554093035764"><ele>261.0</ele><time>2026-04-28T13:36:04Z</time></trkpt><trkpt lat="34.641727345635964" lon="-5.098436659800638"><ele>261.0</ele><time>2026-04-28T13:36:05Z</time></trkpt><trkpt lat="34.64174985511942" lon="-5.098289808706176"><ele>261.0</ele><time>2026-04-28T13:36:06Z</time></trkpt><trkpt lat="34.6417988586595" lon="-5.098149594144089"><ele>261.0</ele><time>2026-04-28T13:36:07Z</time></trkpt><trkpt lat="34.641865696248445" lon="-5.098015870102543"><ele>262.75</ele><time>2026-04-28T13:36:08Z</time></trkpt><trkpt lat="34.64193055962423" lon="-5.097876910609407"><ele>264.5</ele><time>2026-04-28T13:36:09Z</time></trkpt><trkpt lat="34.642003588833745" lon="-5.0977277656472655"><ele>266.25</ele><time>2026-04-28T13:36:10Z</time></trkpt><trkpt lat="34.642076074055744" lon="-5.097589190569857"><ele>268.0</ele><time>2026-04-28T13:36:11Z</time></trkpt><trkpt lat="34.64214932081942" lon="-5.097448857368859"><ele>273.75</ele><time>2026-04-28T13:36:12Z</time></trkpt><trkpt lat="34.64221996570695" lon="-5.097313451036786"><ele>279.5</ele><time>2026-04-28T13:36:13Z</time></trkpt><trkpt lat="34.64229568932152" lon="-5.097169539226849"><ele>285.25</ele><time>2026-04-28T13:36:14Z</time></trkpt><trkpt lat="34.642378402865326" lon="-5.097011635045056"><ele>291.0</ele><time>2026-04-28T13:36:15Z</time></trkpt><trkpt lat="34.64246713950448" lon="-5.0968421563365425"><ele>291.0</ele><time>2026-04-28T13:36:16Z</time></trkpt><trkpt lat="34.642558651695374" lon="-5.096666938800476"><ele>291.0</ele><time>2026-04-28T13:36:17Z</time></trkpt><trkpt lat="34.64264939408757" lon="-5.096494465193033"><ele>291.0</ele><time>2026-04-28T13:36:18Z</time></trkpt><trkpt lat="34.64274162467898" lon="-5.096313725644563"><ele>296.3333333333333</ele><time>2026-04-28T13:36:19Z</time></trkpt><trkpt lat="34.64283603831946" lon="-5.0961248101593695"><ele>301.66666666666663</ele><time>2026-04-28T13:36:20Z</time></trkpt><trkpt lat="34.642932357263845" lon="-5.095931288769148"><ele>307.0</ele><time>2026-04-28T13:36:21Z</time></trkpt><trkpt lat="34.64302663657261" lon="-5.095739601856017"><ele>308.3333333333333</ele><time>2026-04-28T13:36:22Z</time></trkpt><trkpt lat="34.643111804958444" lon="-5.095558362523824"><ele>309.6666666666667</ele><time>2026-04-28T13:36:23Z</time></trkpt><trkpt lat="34.64318579806761" lon="-5.095399331570449"><ele>311.0</ele><time>2026-04-28T13:36:24Z</time></trkpt><trkpt lat="34.64324234696406" lon="-5.095256942042445"><ele>311.0</ele><time>2026-04-28T13:36:25Z</time></trkpt><trkpt lat="34.64327837550944" lon="-5.095112181950206"><ele>311.0</ele><time>2026-04-28T13:36:26Z</time></trkpt><trkpt lat="34.64326793918789" lon="-5.0949721825473375"><ele>311.0</ele><time>2026-04-28T13:36:27Z</time></trkpt><trkpt lat="34.64326587671692" lon="-5.094818673857366"><ele>311.0</ele><time>2026-04-28T13:36:28Z</time></trkpt><trkpt lat="34.64326393405318" lon="-5.094687349094974"><ele>312.0</ele><time>2026-04-28T13:36:29Z</time></trkpt><trkpt lat="34.64329916688985" lon="-5.094574876973651"><ele>313.0</ele><time>2026-04-28T13:36:30Z</time></trkpt><trkpt lat="34.64337708571668" lon="-5.094477821419229"><ele>314.0</ele><time>2026-04-28T13:36:31Z</time></trkpt><trkpt lat="34.6435059493872" lon="-5.094455897610693"><ele>315.0</ele><time>2026-04-28T13:36:32Z</time></trkpt><trkpt lat="34.643618634942754" lon="-5.094481423384383"><ele>317.75</ele><time>2026-04-28T13:36:33Z</time></trkpt><trkpt lat="34.64370560374471" lon="-5.094588914924259"><ele>320.5</ele><time>2026-04-28T13:36:34Z</time></trkpt><trkpt lat="34.64374205052792" lon="-5.094726959792123"><ele>323.25</ele><time>2026-04-28T13:36:35Z</time></trkpt><trkpt lat="34.643754011894345" lon="-5.094866094484633"><ele>326.0</ele><time>2026-04-28T13:36:36Z</time></trkpt><trkpt lat="34.64375018570982" lon="-5.095007011102855"><ele>326.0</ele><time>2026-04-28T13:36:37Z</time></trkpt><trkpt lat="34.64375024838233" lon="-5.095115186072539"><ele>326.0</ele><time>2026-04-28T13:36:38Z</time></trkpt><trkpt lat="34.643785739151205" lon="-5.095189232253569"><ele>326.0</ele><time>2026-04-28T13:36:39Z</time></trkpt><trkpt lat="34.64385154913671" lon="-5.095215947984169"><ele>326.0</ele><time>2026-04-28T13:36:40Z</time></trkpt><trkpt lat="34.64393108345947" lon="-5.095176223408272"><ele>326.0</ele><time>2026-04-28T13:36:41Z</time></trkpt><trkpt lat="34.643977128789494" lon="-5.095112782240525"><ele>326.0</ele><time>2026-04-28T13:36:42Z</time></trkpt><trkpt lat="34.6439957120836" lon="-5.0950205464737595"><ele>327.0</ele><time>2026-04-28T13:36:43Z</time></trkpt><trkpt lat="34.64395671744725" lon="-5.094901372453103"><ele>328.0</ele><time>2026-04-28T13:36:44Z</time></trkpt><trkpt lat="34.64395472208525" lon="-5.094747044491198"><ele>329.0</ele><time>2026-04-28T13:36:45Z</time></trkpt><trkpt lat="34.64395219044458" lon="-5.094586261880677"><ele>330.0</ele><time>2026-04-28T13:36:46Z</time></trkpt><trkpt lat="34.64395688328641" lon="-5.0944229650162125"><ele>330.0</ele><time>2026-04-28T13:36:47Z</time></trkpt><trkpt lat="34.64398561161421" lon="-5.094286765887465"><ele>330.0</ele><time>2026-04-28T13:36:48Z</time></trkpt><trkpt lat="34.64401559648896" lon="-5.094173607111625"><ele>330.0</ele><time>2026-04-28T13:36:49Z</time></trkpt><trkpt lat="34.644081027167914" lon="-5.094085791613742"><ele>330.0</ele><time>2026-04-28T13:36:50Z</time></trkpt><trkpt lat="34.644172537046245" lon="-5.094040378534149"><ele>330.0</ele><time>2026-04-28T13:36:51Z</time></trkpt><trkpt lat="34.64428588124708" lon="-5.094065490242004"><ele>330.0</ele><time>2026-04-28T13:36:52Z</time></trkpt><trkpt lat="34.644362854607536" lon="-5.094264959901552"><ele>330.0</ele><time>2026-04-28T13:36:53Z</time></trkpt><trkpt lat="34.64441530925136" lon="-5.094398414515494"><ele>330.0</ele><time>2026-04-28T13:36:54Z</time></trkpt><trkpt lat="34.644486513247166" lon="-5.094488917896331"><ele>330.0</ele><time>2026-04-28T13:36:55Z</time></trkpt><trkpt lat="34.64458518141316" lon="-5.09446625377749"><ele>332.75</ele><time>2026-04-28T13:36:56Z</time></trkpt><trkpt lat="34.6446935180023" lon="-5.094443753296967"><ele>335.5</ele><time>2026-04-28T13:36:57Z</time></trkpt><trkpt lat="34.644798861025706" lon="-5.094353024951543"><ele>338.25</ele><time>2026-04-28T13:36:58Z</time></trkpt><trkpt lat="34.644922027990496" lon="-5.094244760967256"><ele>341.0</ele><time>2026-04-28T13:36:59Z</time></trkpt><trkpt lat="34.64505325536102" lon="-5.094132985432894"><ele>344.6666666666667</ele><time>2026-04-28T13:37:00Z</time></trkpt><trkpt lat="34.645192244379224" lon="-5.094016637667814"><ele>348.3333333333333</ele><time>2026-04-28T13:37:01Z</time></trkpt><trkpt lat="34.64534022621684" lon="-5.09389296375287"><ele>352.0</ele><time>2026-04-28T13:37:02Z</time></trkpt><trkpt lat="34.645482870435906" lon="-5.093785994807898"><ele>352.0</ele><time>2026-04-28T13:37:03Z</time></trkpt><trkpt lat="34.645608425366326" lon="-5.093692248647197"><ele>352.0</ele><time>2026-04-28T13:37:04Z</time></trkpt><trkpt lat="34.6457216135741" lon="-5.093607957111267"><ele>352.0</ele><time>2026-04-28T13:37:05Z</time></trkpt><trkpt lat="34.64582024292583" lon="-5.093535439663104"><ele>352.0</ele><time>2026-04-28T13:37:06Z</time></trkpt><trkpt lat="34.6458913322571" lon="-5.093478233017865"><ele>352.0</ele><time>2026-04-28T13:37:07Z</time></trkpt><trkpt lat="34.64594379925852" lon="-5.09343390623141"><ele>352.0</ele><time>2026-04-28T13:37:08Z</time></trkpt><trkpt lat="34.645937925500476" lon="-5.093354442535645"><ele>352.0</ele><time>2026-04-28T13:37:10Z</time></trkpt><trkpt lat="34.64589788622504" lon="-5.093261767656805"><ele>352.0</ele><time>2026-04-28T13:37:12Z</time></trkpt><trkpt lat="34.64582275137041" lon="-5.093242551961137"><ele>352.0</ele><time>2026-04-28T13:37:13Z</time></trkpt><trkpt lat="34.64572567178788" lon="-5.093249594140165"><ele>352.0</ele><time>2026-04-28T13:37:14Z</time></trkpt><trkpt lat="34.64560439807299" lon="-5.093270214301592"><ele>352.0</ele><time>2026-04-28T13:37:15Z</time></trkpt><trkpt lat="34.645498433669886" lon="-5.09329199325712"><ele>352.0</ele><time>2026-04-28T13:37:16Z</time></trkpt><trkpt lat="34.64542147166628" lon="-5.093287290356159"><ele>352.0</ele><time>2026-04-28T13:37:17Z</time></trkpt><trkpt lat="34.645365804874565" lon="-5.093240478496588"><ele>352.0</ele><time>2026-04-28T13:37:18Z</time></trkpt><trkpt lat="34.645296213475596" lon="-5.093192724257463"><ele>352.0</ele><time>2026-04-28T13:37:19Z</time></trkpt><trkpt lat="34.645272056761435" lon="-5.093073403546055"><ele>352.0</ele><time>2026-04-28T13:37:20Z</time></trkpt><trkpt lat="34.64529687430562" lon="-5.092956783606422"><ele>357.5</ele><time>2026-04-28T13:37:21Z</time></trkpt><trkpt lat="34.645464622099325" lon="-5.092857603697447"><ele>363.0</ele><time>2026-04-28T13:37:22Z</time></trkpt><trkpt lat="34.64557560723639" lon="-5.092785139202943"><ele>368.5</ele><time>2026-04-28T13:37:23Z</time></trkpt><trkpt lat="34.645690282168765" lon="-5.092710056086237"><ele>374.0</ele><time>2026-04-28T13:37:24Z</time></trkpt><trkpt lat="34.64581221413252" lon="-5.092630163674404"><ele>374.0</ele><time>2026-04-28T13:37:25Z</time></trkpt><trkpt lat="34.64594093036176" lon="-5.092544290267391"><ele>374.0</ele><time>2026-04-28T13:37:26Z</time></trkpt><trkpt lat="34.646062124231975" lon="-5.0924484581557365"><ele>374.0</ele><time>2026-04-28T13:37:27Z</time></trkpt><trkpt lat="34.6461713086493" lon="-5.092323915462309"><ele>374.0</ele><time>2026-04-28T13:37:28Z</time></trkpt><trkpt lat="34.64627377416456" lon="-5.092180088316821"><ele>374.79999999999995</ele><time>2026-04-28T13:37:29Z</time></trkpt><trkpt lat="34.646357755930765" lon="-5.092042607343017"><ele>375.59999999999997</ele><time>2026-04-28T13:37:30Z</time></trkpt><trkpt lat="34.646419008937436" lon="-5.091924961290048"><ele>376.4</ele><time>2026-04-28T13:37:31Z</time></trkpt><trkpt lat="34.64643518192581" lon="-5.09181258398736"><ele>377.2</ele><time>2026-04-28T13:37:32Z</time></trkpt><trkpt lat="34.646403342353324" lon="-5.091716705100387"><ele>378.0</ele><time>2026-04-28T13:37:33Z</time></trkpt><trkpt lat="34.64636434084735" lon="-5.091627928880326"><ele>381.0</ele><time>2026-04-28T13:37:34Z</time></trkpt><trkpt lat="34.64628394414253" lon="-5.091551404851322"><ele>384.0</ele><time>2026-04-28T13:37:35Z</time></trkpt><trkpt lat="34.64616941951577" lon="-5.091494807342687"><ele>387.0</ele><time>2026-04-28T13:37:36Z</time></trkpt><trkpt lat="34.64602177437058" lon="-5.09147600105181"><ele>390.0</ele><time>2026-04-28T13:37:37Z</time></trkpt><trkpt lat="34.64586426955766" lon="-5.091459749585506"><ele>391.25</ele><time>2026-04-28T13:37:38Z</time></trkpt><trkpt lat="34.645709632793896" lon="-5.09143185934864"><ele>392.5</ele><time>2026-04-28T13:37:39Z</time></trkpt><trkpt lat="34.64556152086481" lon="-5.0914003617182635"><ele>393.75</ele><time>2026-04-28T13:37:40Z</time></trkpt><trkpt lat="34.64542492647293" lon="-5.0913657927533515"><ele>395.0</ele><time>2026-04-28T13:37:41Z</time></trkpt><trkpt lat="34.6453041978528" lon="-5.091314751029414"><ele>394.0</ele><time>2026-04-28T13:37:42Z</time></trkpt><trkpt lat="34.64520299792537" lon="-5.091233961255882"><ele>393.0</ele><time>2026-04-28T13:37:43Z</time></trkpt><trkpt lat="34.64512167539483" lon="-5.091118567724095"><ele>392.0</ele><time>2026-04-28T13:37:44Z</time></trkpt><trkpt lat="34.64506083134664" lon="-5.090969894234181"><ele>391.0</ele><time>2026-04-28T13:37:45Z</time></trkpt><trkpt lat="34.64501849881151" lon="-5.090799934283694"><ele>396.6666666666667</ele><time>2026-04-28T13:37:46Z</time></trkpt><trkpt lat="34.64498413605672" lon="-5.090622590013872"><ele>402.33333333333337</ele><time>2026-04-28T13:37:47Z</time></trkpt><trkpt lat="34.64495341901623" lon="-5.090443796406668"><ele>408.0</ele><time>2026-04-28T13:37:48Z</time></trkpt><trkpt lat="34.64492354827852" lon="-5.090263164748479"><ele>408.0</ele><time>2026-04-28T13:37:49Z</time></trkpt><trkpt lat="34.64488402325942" lon="-5.090082674813962"><ele>408.0</ele><time>2026-04-28T13:37:50Z</time></trkpt><trkpt lat="34.6448333373927" lon="-5.089914234691591"><ele>408.0</ele><time>2026-04-28T13:37:51Z</time></trkpt><trkpt lat="34.64477290424197" lon="-5.089771370388495"><ele>408.0</ele><time>2026-04-28T13:37:52Z</time></trkpt><trkpt lat="34.644708502309335" lon="-5.089656933762027"><ele>407.79999999999995</ele><time>2026-04-28T13:37:53Z</time></trkpt><trkpt lat="34.644658775081346" lon="-5.089569650703643"><ele>407.6</ele><time>2026-04-28T13:37:54Z</time></trkpt><trkpt lat="34.644621683988696" lon="-5.089506573161325"><ele>407.4</ele><time>2026-04-28T13:37:55Z</time></trkpt><trkpt lat="34.64454055843897" lon="-5.089425539245125"><ele>407.20000000000005</ele><time>2026-04-28T13:37:57Z</time></trkpt><trkpt lat="34.644427534088074" lon="-5.089342317574907"><ele>407.0</ele><time>2026-04-28T13:37:59Z</time></trkpt><trkpt lat="34.64435727691284" lon="-5.089288550535391"><ele>406.99999999999994</ele><time>2026-04-28T13:38:00Z</time></trkpt><trkpt lat="34.644298315377846" lon="-5.0892265352277875"><ele>407.0</ele><time>2026-04-28T13:38:01Z</time></trkpt><trkpt lat="34.644256079304526" lon="-5.089163163228305"><ele>407.0</ele><time>2026-04-28T13:38:02Z</time></trkpt><trkpt lat="34.6442099284975" lon="-5.089081551767131"><ele>407.0</ele><time>2026-04-28T13:38:04Z</time></trkpt><trkpt lat="34.64416161758106" lon="-5.089029149830812"><ele>406.99999999999994</ele><time>2026-04-28T13:38:06Z</time></trkpt><trkpt lat="34.64408862375217" lon="-5.088959354357708"><ele>407.0</ele><time>2026-04-28T13:38:08Z</time></trkpt><trkpt lat="34.64402836128614" lon="-5.088893725201983"><ele>408.0</ele><time>2026-04-28T13:38:09Z</time></trkpt><trkpt lat="34.643958566667855" lon="-5.088803838385812"><ele>409.0</ele><time>2026-04-28T13:38:10Z</time></trkpt><trkpt lat="34.64388902092344" lon="-5.088707849272049"><ele>410.0</ele><time>2026-04-28T13:38:11Z</time></trkpt><trkpt lat="34.64382549138366" lon="-5.088601256678503"><ele>411.0</ele><time>2026-04-28T13:38:12Z</time></trkpt><trkpt lat="34.64377750761216" lon="-5.088490988407062"><ele>412.0</ele><time>2026-04-28T13:38:13Z</time></trkpt><trkpt lat="34.643736187090084" lon="-5.088373421304432"><ele>413.6</ele><time>2026-04-28T13:38:14Z</time></trkpt><trkpt lat="34.643687266711815" lon="-5.0882592335844254"><ele>415.20000000000005</ele><time>2026-04-28T13:38:15Z</time></trkpt><trkpt lat="34.64363188050991" lon="-5.088160854420735"><ele>416.8</ele><time>2026-04-28T13:38:16Z</time></trkpt><trkpt lat="34.64356216253117" lon="-5.088076515437416"><ele>418.4</ele><time>2026-04-28T13:38:17Z</time></trkpt><trkpt lat="34.64346848478504" lon="-5.088015474828186"><ele>420.0</ele><time>2026-04-28T13:38:18Z</time></trkpt><trkpt lat="34.64335123731446" lon="-5.0879704798912435"><ele>415.5</ele><time>2026-04-28T13:38:19Z</time></trkpt><trkpt lat="34.643239148500726" lon="-5.087929250344487"><ele>411.0</ele><time>2026-04-28T13:38:20Z</time></trkpt><trkpt lat="34.64313828652929" lon="-5.087873769458515"><ele>406.5</ele><time>2026-04-28T13:38:21Z</time></trkpt><trkpt lat="34.643038032488306" lon="-5.087804854014467"><ele>402.0</ele><time>2026-04-28T13:38:22Z</time></trkpt><trkpt lat="34.642934900457284" lon="-5.08770988620844"><ele>402.0</ele><time>2026-04-28T13:38:23Z</time></trkpt><trkpt lat="34.64282818650083" lon="-5.087580272789216"><ele>402.0</ele><time>2026-04-28T13:38:24Z</time></trkpt><trkpt lat="34.64273738895224" lon="-5.087440726955031"><ele>402.0</ele><time>2026-04-28T13:38:25Z</time></trkpt><trkpt lat="34.64265051559799" lon="-5.08731174636348"><ele>402.0</ele><time>2026-04-28T13:38:26Z</time></trkpt><trkpt lat="34.64255742897286" lon="-5.08719801217881"><ele>401.75</ele><time>2026-04-28T13:38:27Z</time></trkpt><trkpt lat="34.642447556406005" lon="-5.087111536233001"><ele>401.5</ele><time>2026-04-28T13:38:28Z</time></trkpt><trkpt lat="34.6423197890779" lon="-5.087060383971284"><ele>401.25</ele><time>2026-04-28T13:38:29Z</time></trkpt><trkpt lat="34.64218689855029" lon="-5.087035156890238"><ele>401.0</ele><time>2026-04-28T13:38:30Z</time></trkpt><trkpt lat="34.642072263750066" lon="-5.086996647804046"><ele>401.0</ele><time>2026-04-28T13:38:31Z</time></trkpt><trkpt lat="34.64198214743976" lon="-5.086930290446164"><ele>401.0</ele><time>2026-04-28T13:38:32Z</time></trkpt><trkpt lat="34.64190042440994" lon="-5.086831893456371"><ele>401.0</ele><time>2026-04-28T13:38:33Z</time></trkpt><trkpt lat="34.64183325461061" lon="-5.086699642117236"><ele>401.0</ele><time>2026-04-28T13:38:34Z</time></trkpt><trkpt lat="34.641773118902975" lon="-5.086534366345036"><ele>394.75</ele><time>2026-04-28T13:38:35Z</time></trkpt><trkpt lat="34.641698415495526" lon="-5.086369936484116"><ele>388.5</ele><time>2026-04-28T13:38:36Z</time></trkpt><trkpt lat="34.64166132175565" lon="-5.08620376157862"><ele>382.25</ele><time>2026-04-28T13:38:37Z</time></trkpt><trkpt lat="34.64161470186148" lon="-5.08605489975056"><ele>376.0</ele><time>2026-04-28T13:38:38Z</time></trkpt><trkpt lat="34.64157060991852" lon="-5.085907233325243"><ele>376.0</ele><time>2026-04-28T13:38:39Z</time></trkpt><trkpt lat="34.641530103460255" lon="-5.0857635925429605"><ele>376.0</ele><time>2026-04-28T13:38:40Z</time></trkpt><trkpt lat="34.64148043356574" lon="-5.085629693275147"><ele>376.0</ele><time>2026-04-28T13:38:41Z</time></trkpt><trkpt lat="34.64143794700494" lon="-5.08550341122713"><ele>376.0</ele><time>2026-04-28T13:38:42Z</time></trkpt><trkpt lat="34.64137516830479" lon="-5.085381585157906"><ele>380.5</ele><time>2026-04-28T13:38:43Z</time></trkpt><trkpt lat="34.64125243605246" lon="-5.0853147710664475"><ele>385.0</ele><time>2026-04-28T13:38:44Z</time></trkpt><trkpt lat="34.6411333078443" lon="-5.085220394771128"><ele>389.5</ele><time>2026-04-28T13:38:45Z</time></trkpt><trkpt lat="34.64100671028043" lon="-5.085142195069274"><ele>394.0</ele><time>2026-04-28T13:38:46Z</time></trkpt><trkpt lat="34.64088936160094" lon="-5.085057320431631"><ele>389.75</ele><time>2026-04-28T13:38:47Z</time></trkpt><trkpt lat="34.640783586845025" lon="-5.084961534394388"><ele>385.5</ele><time>2026-04-28T13:38:48Z</time></trkpt><trkpt lat="34.64069344318004" lon="-5.084856081592179"><ele>381.25</ele><time>2026-04-28T13:38:49Z</time></trkpt><trkpt lat="34.640614945131524" lon="-5.084742808891231"><ele>377.0</ele><time>2026-04-28T13:38:50Z</time></trkpt><trkpt lat="34.64054302319612" lon="-5.084629227269969"><ele>377.0</ele><time>2026-04-28T13:38:51Z</time></trkpt><trkpt lat="34.64047431186516" lon="-5.0845267535871645"><ele>377.0</ele><time>2026-04-28T13:38:52Z</time></trkpt><trkpt lat="34.64041402590527" lon="-5.084455811841838"><ele>377.0</ele><time>2026-04-28T13:38:53Z</time></trkpt><trkpt lat="34.64033681637286" lon="-5.08443080582616"><ele>377.0</ele><time>2026-04-28T13:38:54Z</time></trkpt><trkpt lat="34.64025006991121" lon="-5.084447129353482"><ele>377.0</ele><time>2026-04-28T13:38:55Z</time></trkpt><trkpt lat="34.64016743239426" lon="-5.0844948075824945"><ele>374.6</ele><time>2026-04-28T13:38:56Z</time></trkpt><trkpt lat="34.64007801493089" lon="-5.084547469058234"><ele>372.20000000000005</ele><time>2026-04-28T13:38:57Z</time></trkpt><trkpt lat="34.639979769019476" lon="-5.0845967573415205"><ele>369.8</ele><time>2026-04-28T13:38:58Z</time></trkpt><trkpt lat="34.63987575190027" lon="-5.084637203172651"><ele>367.4</ele><time>2026-04-28T13:38:59Z</time></trkpt><trkpt lat="34.63975386418549" lon="-5.084665132925681"><ele>365.0</ele><time>2026-04-28T13:39:00Z</time></trkpt><trkpt lat="34.63963279352744" lon="-5.084690511645433"><ele>365.0</ele><time>2026-04-28T13:39:01Z</time></trkpt><trkpt lat="34.639517482055346" lon="-5.084714665749387"><ele>365.0</ele><time>2026-04-28T13:39:02Z</time></trkpt><trkpt lat="34.639428103098034" lon="-5.0847528044213535"><ele>365.0</ele><time>2026-04-28T13:39:03Z</time></trkpt><trkpt lat="34.63935801560977" lon="-5.084800980927824"><ele>365.0</ele><time>2026-04-28T13:39:04Z</time></trkpt><trkpt lat="34.63930789421598" lon="-5.084868426602813"><ele>365.0</ele><time>2026-04-28T13:39:05Z</time></trkpt><trkpt lat="34.639266857371595" lon="-5.084962213570455"><ele>361.83333333333337</ele><time>2026-04-28T13:39:06Z</time></trkpt><trkpt lat="34.639231547181765" lon="-5.08505332978653"><ele>358.6666666666667</ele><time>2026-04-28T13:39:07Z</time></trkpt><trkpt lat="34.639188601647035" lon="-5.085136123490042"><ele>355.5</ele><time>2026-04-28T13:39:08Z</time></trkpt><trkpt lat="34.63913629357393" lon="-5.085212276780702"><ele>352.3333333333333</ele><time>2026-04-28T13:39:09Z</time></trkpt><trkpt lat="34.63906753884457" lon="-5.085272715250048"><ele>349.16666666666663</ele><time>2026-04-28T13:39:10Z</time></trkpt><trkpt lat="34.63898032908902" lon="-5.085315497881429"><ele>346.0</ele><time>2026-04-28T13:39:11Z</time></trkpt><trkpt lat="34.63887412353348" lon="-5.085337811898954"><ele>346.0</ele><time>2026-04-28T13:39:12Z</time></trkpt><trkpt lat="34.63875778207362" lon="-5.085338392386049"><ele>346.0</ele><time>2026-04-28T13:39:13Z</time></trkpt><trkpt lat="34.638632155011315" lon="-5.085320339319082"><ele>346.0</ele><time>2026-04-28T13:39:14Z</time></trkpt><trkpt lat="34.638503468710525" lon="-5.0852787599229"><ele>346.0</ele><time>2026-04-28T13:39:15Z</time></trkpt><trkpt lat="34.638372589170736" lon="-5.085217605729164"><ele>342.75</ele><time>2026-04-28T13:39:16Z</time></trkpt><trkpt lat="34.63824784706426" lon="-5.085150171920377"><ele>339.5</ele><time>2026-04-28T13:39:17Z</time></trkpt><trkpt lat="34.63812666793398" lon="-5.085085612407788"><ele>336.25</ele><time>2026-04-28T13:39:18Z</time></trkpt><trkpt lat="34.63800120547884" lon="-5.085025138993224"><ele>333.0</ele><time>2026-04-28T13:39:19Z</time></trkpt><trkpt lat="34.63787080471602" lon="-5.084978560178866"><ele>329.5</ele><time>2026-04-28T13:39:20Z</time></trkpt><trkpt lat="34.63773708003239" lon="-5.084948433826821"><ele>326.0</ele><time>2026-04-28T13:39:21Z</time></trkpt><trkpt lat="34.63760318848947" lon="-5.084940456647748"><ele>322.5</ele><time>2026-04-28T13:39:22Z</time></trkpt><trkpt lat="34.637470559346475" lon="-5.084964869383605"><ele>319.0</ele><time>2026-04-28T13:39:23Z</time></trkpt><trkpt lat="34.637333426434076" lon="-5.085013206773797"><ele>319.0</ele><time>2026-04-28T13:39:24Z</time></trkpt><trkpt lat="34.637190540369616" lon="-5.085073178976119"><ele>319.0</ele><time>2026-04-28T13:39:25Z</time></trkpt><trkpt lat="34.63704652356595" lon="-5.085128353303974"><ele>319.0</ele><time>2026-04-28T13:39:26Z</time></trkpt><trkpt lat="34.63690944090839" lon="-5.08517313039817"><ele>319.0</ele><time>2026-04-28T13:39:27Z</time></trkpt><trkpt lat="34.63677079936559" lon="-5.085213330747407"><ele>318.25</ele><time>2026-04-28T13:39:28Z</time></trkpt><trkpt lat="34.63663528468474" lon="-5.085261230866477"><ele>317.5</ele><time>2026-04-28T13:39:29Z</time></trkpt><trkpt lat="34.63651273481515" lon="-5.0853375243588985"><ele>316.75</ele><time>2026-04-28T13:39:30Z</time></trkpt><trkpt lat="34.63640175624646" lon="-5.085440418087274"><ele>316.0</ele><time>2026-04-28T13:39:31Z</time></trkpt><trkpt lat="34.636302933886306" lon="-5.085560810820879"><ele>316.0</ele><time>2026-04-28T13:39:32Z</time></trkpt><trkpt lat="34.636206064440096" lon="-5.085658501820416"><ele>316.0</ele><time>2026-04-28T13:39:33Z</time></trkpt><trkpt lat="34.636100069774635" lon="-5.0857178784767285"><ele>316.0</ele><time>2026-04-28T13:39:34Z</time></trkpt><trkpt lat="34.63597706557104" lon="-5.085739106127074"><ele>316.0</ele><time>2026-04-28T13:39:35Z</time></trkpt><trkpt lat="34.63584436125174" lon="-5.085728687754896"><ele>315.0</ele><time>2026-04-28T13:39:36Z</time></trkpt><trkpt lat="34.63570219326321" lon="-5.0857027906377095"><ele>314.0</ele><time>2026-04-28T13:39:37Z</time></trkpt><trkpt lat="34.63555258842347" lon="-5.085694580384399"><ele>313.0</ele><time>2026-04-28T13:39:38Z</time></trkpt><trkpt lat="34.63540909958795" lon="-5.085716584570745"><ele>312.0</ele><time>2026-04-28T13:39:39Z</time></trkpt><trkpt lat="34.6352725545896" lon="-5.085763315879651"><ele>304.5</ele><time>2026-04-28T13:39:40Z</time></trkpt><trkpt lat="34.63513855345952" lon="-5.08581292384893"><ele>297.0</ele><time>2026-04-28T13:39:41Z</time></trkpt><trkpt lat="34.635004654162806" lon="-5.0858315034799055"><ele>289.5</ele><time>2026-04-28T13:39:42Z</time></trkpt><trkpt lat="34.6348686337048" lon="-5.085814125735612"><ele>282.0</ele><time>2026-04-28T13:39:43Z</time></trkpt><trkpt lat="34.634735207596435" lon="-5.0857827608090265"><ele>280.5</ele><time>2026-04-28T13:39:44Z</time></trkpt><trkpt lat="34.634600908995424" lon="-5.085757978891865"><ele>279.0</ele><time>2026-04-28T13:39:45Z</time></trkpt><trkpt lat="34.63446290002084" lon="-5.085750944535805"><ele>277.5</ele><time>2026-04-28T13:39:46Z</time></trkpt><trkpt lat="34.63432688098741" lon="-5.085777155608263"><ele>276.0</ele><time>2026-04-28T13:39:47Z</time></trkpt><trkpt lat="34.63419480052542" lon="-5.085842593584432"><ele>276.0</ele><time>2026-04-28T13:39:48Z</time></trkpt><trkpt lat="34.63406014712605" lon="-5.085949220438493"><ele>276.0</ele><time>2026-04-28T13:39:49Z</time></trkpt><trkpt lat="34.63392246643482" lon="-5.086082920267761"><ele>276.0</ele><time>2026-04-28T13:39:50Z</time></trkpt><trkpt lat="34.633769369244064" lon="-5.086225383759157"><ele>275.0</ele><time>2026-04-28T13:39:51Z</time></trkpt><trkpt lat="34.63360267340649" lon="-5.086365649722029"><ele>274.0</ele><time>2026-04-28T13:39:52Z</time></trkpt><trkpt lat="34.633432552060015" lon="-5.086506292727218"><ele>273.0</ele><time>2026-04-28T13:39:53Z</time></trkpt><trkpt lat="34.63327361905345" lon="-5.086647575376375"><ele>267.0</ele><time>2026-04-28T13:39:54Z</time></trkpt><trkpt lat="34.63311786117623" lon="-5.086789351395636"><ele>261.0</ele><time>2026-04-28T13:39:55Z</time></trkpt><trkpt lat="34.63296463196828" lon="-5.086931211518171"><ele>255.0</ele><time>2026-04-28T13:39:56Z</time></trkpt><trkpt lat="34.6328209840951" lon="-5.087074486352971"><ele>253.0</ele><time>2026-04-28T13:39:57Z</time></trkpt><trkpt lat="34.63269132802449" lon="-5.087216296175476"><ele>251.0</ele><time>2026-04-28T13:39:58Z</time></trkpt><trkpt lat="34.63257353118467" lon="-5.087370714569962"><ele>249.0</ele><time>2026-04-28T13:39:59Z</time></trkpt><trkpt lat="34.6324642088488" lon="-5.08754028182015"><ele>244.33333333333331</ele><time>2026-04-28T13:40:00Z</time></trkpt><trkpt lat="34.632358688530765" lon="-5.087709974560049"><ele>239.66666666666666</ele><time>2026-04-28T13:40:01Z</time></trkpt><trkpt lat="34.6322586089537" lon="-5.087870832313066"><ele>235.0</ele><time>2026-04-28T13:40:02Z</time></trkpt><trkpt lat="34.6321636773682" lon="-5.088017324053762"><ele>235.0</ele><time>2026-04-28T13:40:03Z</time></trkpt><trkpt lat="34.632077434645986" lon="-5.0881499116479825"><ele>235.0</ele><time>2026-04-28T13:40:04Z</time></trkpt><trkpt lat="34.6319870573038" lon="-5.088281811064474"><ele>235.0</ele><time>2026-04-28T13:40:05Z</time></trkpt><trkpt lat="34.63189124831412" lon="-5.0884007899906685"><ele>235.0</ele><time>2026-04-28T13:40:06Z</time></trkpt><trkpt lat="34.63179604431998" lon="-5.08849965753215"><ele>232.33333333333331</ele><time>2026-04-28T13:40:07Z</time></trkpt><trkpt lat="34.63170391511259" lon="-5.088582868073771"><ele>229.66666666666666</ele><time>2026-04-28T13:40:08Z</time></trkpt><trkpt lat="34.63162109615922" lon="-5.088653632604384"><ele>227.0</ele><time>2026-04-28T13:40:09Z</time></trkpt><trkpt lat="34.63154910612552" lon="-5.08869821629582"><ele>224.33333333333331</ele><time>2026-04-28T13:40:10Z</time></trkpt><trkpt lat="34.63148077133086" lon="-5.088708340833278"><ele>221.66666666666666</ele><time>2026-04-28T13:40:11Z</time></trkpt><trkpt lat="34.6314137522653" lon="-5.08869096620178"><ele>219.0</ele><time>2026-04-28T13:40:12Z</time></trkpt><trkpt lat="34.6313608906867" lon="-5.0886420088464765"><ele>219.0</ele><time>2026-04-28T13:40:13Z</time></trkpt><trkpt lat="34.631328227291405" lon="-5.08856865243097"><ele>219.0</ele><time>2026-04-28T13:40:14Z</time></trkpt><trkpt lat="34.631323796457245" lon="-5.088481967184418"><ele>219.0</ele><time>2026-04-28T13:40:15Z</time></trkpt><trkpt lat="34.631340547450115" lon="-5.088397017194141"><ele>219.0</ele><time>2026-04-28T13:40:16Z</time></trkpt><trkpt lat="34.63138548908695" lon="-5.088297757240336"><ele>219.0</ele><time>2026-04-28T13:40:17Z</time></trkpt><trkpt lat="34.63145815601653" lon="-5.08820192925448"><ele>219.0</ele><time>2026-04-28T13:40:18Z</time></trkpt><trkpt lat="34.631521535115404" lon="-5.088091340209506"><ele>219.16666666666666</ele><time>2026-04-28T13:40:19Z</time></trkpt><trkpt lat="34.631562911420055" lon="-5.087992422862866"><ele>219.33333333333331</ele><time>2026-04-28T13:40:20Z</time></trkpt><trkpt lat="34.631603523568316" lon="-5.087902905829045"><ele>219.5</ele><time>2026-04-28T13:40:21Z</time></trkpt><trkpt lat="34.63161246360167" lon="-5.087815880825907"><ele>219.66666666666666</ele><time>2026-04-28T13:40:22Z</time></trkpt><trkpt lat="34.631616245050914" lon="-5.0877098280690785"><ele>219.83333333333331</ele><time>2026-04-28T13:40:23Z</time></trkpt><trkpt lat="34.63156985445348" lon="-5.08762635778477"><ele>220.0</ele><time>2026-04-28T13:40:24Z</time></trkpt><trkpt lat="34.63151676444783" lon="-5.087551863648854"><ele>220.0</ele><time>2026-04-28T13:40:25Z</time></trkpt><trkpt lat="34.631420131705234" lon="-5.087527648358781"><ele>220.0</ele><time>2026-04-28T13:40:26Z</time></trkpt><trkpt lat="34.63130880571819" lon="-5.087543426774683"><ele>220.0</ele><time>2026-04-28T13:40:27Z</time></trkpt><trkpt lat="34.631179099066806" lon="-5.087590334929177"><ele>220.0</ele><time>2026-04-28T13:40:28Z</time></trkpt><trkpt lat="34.63104313245698" lon="-5.087660064744912"><ele>218.5</ele><time>2026-04-28T13:40:29Z</time></trkpt><trkpt lat="34.630911367060605" lon="-5.087725081090328"><ele>217.0</ele><time>2026-04-28T13:40:30Z</time></trkpt><trkpt lat="34.63079665274697" lon="-5.087784467420842"><ele>215.5</ele><time>2026-04-28T13:40:31Z</time></trkpt><trkpt lat="34.63068640617395" lon="-5.0878363558839625"><ele>214.0</ele><time>2026-04-28T13:40:32Z</time></trkpt><trkpt lat="34.630574698397375" lon="-5.087876850016221"><ele>214.0</ele><time>2026-04-28T13:40:33Z</time></trkpt><trkpt lat="34.6304674321871" lon="-5.087906807090819"><ele>214.0</ele><time>2026-04-28T13:40:34Z</time></trkpt><trkpt lat="34.6303580512215" lon="-5.087922215547148"><ele>214.0</ele><time>2026-04-28T13:40:35Z</time></trkpt><trkpt lat="34.63024165969355" lon="-5.087905642943272"><ele>214.0</ele><time>2026-04-28T13:40:36Z</time></trkpt><trkpt lat="34.63012215428681" lon="-5.087859491473864"><ele>211.33333333333331</ele><time>2026-04-28T13:40:37Z</time></trkpt><trkpt lat="34.630002752692974" lon="-5.087782523759069"><ele>208.66666666666669</ele><time>2026-04-28T13:40:38Z</time></trkpt><trkpt lat="34.629873604765486" lon="-5.087671250352441"><ele>206.0</ele><time>2026-04-28T13:40:39Z</time></trkpt><trkpt lat="34.62973488129735" lon="-5.087533658853842"><ele>206.0</ele><time>2026-04-28T13:40:40Z</time></trkpt><trkpt lat="34.62959283157872" lon="-5.087429554295314"><ele>206.0</ele><time>2026-04-28T13:40:41Z</time></trkpt><trkpt lat="34.629454122560794" lon="-5.087359001126859"><ele>206.0</ele><time>2026-04-28T13:40:42Z</time></trkpt><trkpt lat="34.62931418249152" lon="-5.087279958147356"><ele>207.66666666666669</ele><time>2026-04-28T13:40:43Z</time></trkpt><trkpt lat="34.629143510466854" lon="-5.087273546091947"><ele>209.33333333333331</ele><time>2026-04-28T13:40:44Z</time></trkpt><trkpt lat="34.62896114611719" lon="-5.08727522904009"><ele>211.0</ele><time>2026-04-28T13:40:45Z</time></trkpt><trkpt lat="34.62876907768566" lon="-5.087257737363821"><ele>210.0</ele><time>2026-04-28T13:40:46Z</time></trkpt><trkpt lat="34.628594970419655" lon="-5.087226252245667"><ele>209.0</ele><time>2026-04-28T13:40:47Z</time></trkpt><trkpt lat="34.62843314859857" lon="-5.087191162386021"><ele>208.0</ele><time>2026-04-28T13:40:48Z</time></trkpt><trkpt lat="34.628281825769946" lon="-5.087157366393383"><ele>208.0</ele><time>2026-04-28T13:40:49Z</time></trkpt><trkpt lat="34.62813766751872" lon="-5.087125691548415"><ele>208.0</ele><time>2026-04-28T13:40:50Z</time></trkpt><trkpt lat="34.62799823227465" lon="-5.087091461757683"><ele>208.0</ele><time>2026-04-28T13:40:51Z</time></trkpt><trkpt lat="34.62786868477204" lon="-5.0870489662554235"><ele>208.0</ele><time>2026-04-28T13:40:52Z</time></trkpt><trkpt lat="34.62774689387733" lon="-5.0870005972917784"><ele>205.25</ele><time>2026-04-28T13:40:53Z</time></trkpt><trkpt lat="34.627629487813266" lon="-5.086947856268895"><ele>202.5</ele><time>2026-04-28T13:40:54Z</time></trkpt><trkpt lat="34.62752094949406" lon="-5.086890817482511"><ele>199.75</ele><time>2026-04-28T13:40:55Z</time></trkpt><trkpt lat="34.627411975291665" lon="-5.086820627743773"><ele>197.0</ele><time>2026-04-28T13:40:56Z</time></trkpt><trkpt lat="34.627302061684034" lon="-5.086740406812057"><ele>197.0</ele><time>2026-04-28T13:40:57Z</time></trkpt><trkpt lat="34.62718907977643" lon="-5.08666541226888"><ele>197.0</ele><time>2026-04-28T13:40:58Z</time></trkpt><trkpt lat="34.62707044926694" lon="-5.086613935213003"><ele>197.0</ele><time>2026-04-28T13:40:59Z</time></trkpt><trkpt lat="34.62694728195904" lon="-5.086569637798496"><ele>197.0</ele><time>2026-04-28T13:41:00Z</time></trkpt><trkpt lat="34.62680353950807" lon="-5.0865373412212245"><ele>196.66666666666669</ele><time>2026-04-28T13:41:01Z</time></trkpt><trkpt lat="34.62664299944429" lon="-5.086524350882368"><ele>196.33333333333331</ele><time>2026-04-28T13:41:02Z</time></trkpt><trkpt lat="34.62648528290705" lon="-5.086513822829282"><ele>196.0</ele><time>2026-04-28T13:41:03Z</time></trkpt><trkpt lat="34.626341842169886" lon="-5.0865031086257355"><ele>196.0</ele><time>2026-04-28T13:41:04Z</time></trkpt><trkpt lat="34.626214819699" lon="-5.086489285572437"><ele>196.0</ele><time>2026-04-28T13:41:05Z</time></trkpt><trkpt lat="34.62609895384514" lon="-5.086476594449348"><ele>196.0</ele><time>2026-04-28T13:41:06Z</time></trkpt><trkpt lat="34.62599259084197" lon="-5.086466272071799"><ele>196.0</ele><time>2026-04-28T13:41:07Z</time></trkpt><trkpt lat="34.62588861000367" lon="-5.086455959780182"><ele>194.0</ele><time>2026-04-28T13:41:08Z</time></trkpt><trkpt lat="34.625785211712135" lon="-5.086446602181847"><ele>192.0</ele><time>2026-04-28T13:41:09Z</time></trkpt><trkpt lat="34.6256865712764" lon="-5.086435931540989"><ele>190.0</ele><time>2026-04-28T13:41:10Z</time></trkpt><trkpt lat="34.62558980023416" lon="-5.086425149288191"><ele>188.0</ele><time>2026-04-28T13:41:11Z</time></trkpt><trkpt lat="34.62549308682152" lon="-5.086414330341724"><ele>186.0</ele><time>2026-04-28T13:41:12Z</time></trkpt><trkpt lat="34.62539084159567" lon="-5.086402794194164"><ele>185.25</ele><time>2026-04-28T13:41:13Z</time></trkpt><trkpt lat="34.625282829417934" lon="-5.08639329568596"><ele>184.5</ele><time>2026-04-28T13:41:14Z</time></trkpt><trkpt lat="34.6251727051016" lon="-5.086386175860435"><ele>183.75</ele><time>2026-04-28T13:41:15Z</time></trkpt><trkpt lat="34.62505681314077" lon="-5.086383727948391"><ele>183.0</ele><time>2026-04-28T13:41:16Z</time></trkpt><trkpt lat="34.624936734223546" lon="-5.086377098124271"><ele>183.0</ele><time>2026-04-28T13:41:17Z</time></trkpt><trkpt lat="34.62481189401109" lon="-5.08636495336885"><ele>183.0</ele><time>2026-04-28T13:41:18Z</time></trkpt><trkpt lat="34.624684350892274" lon="-5.086358443828659"><ele>183.0</ele><time>2026-04-28T13:41:19Z</time></trkpt><trkpt lat="34.62455260064184" lon="-5.086356745033636"><ele>183.0</ele><time>2026-04-28T13:41:20Z</time></trkpt><trkpt lat="34.62441755467881" lon="-5.086349233391984"><ele>183.5</ele><time>2026-04-28T13:41:21Z</time></trkpt><trkpt lat="34.624286283130154" lon="-5.0863297299787185"><ele>184.0</ele><time>2026-04-28T13:41:22Z</time></trkpt><trkpt lat="34.624160354273165" lon="-5.086301259503454"><ele>184.5</ele><time>2026-04-28T13:41:23Z</time></trkpt><trkpt lat="34.62404635429216" lon="-5.086279324814695"><ele>185.0</ele><time>2026-04-28T13:41:24Z</time></trkpt><trkpt lat="34.62393850882786" lon="-5.086268866809516"><ele>185.0</ele><time>2026-04-28T13:41:25Z</time></trkpt><trkpt lat="34.623835140064834" lon="-5.0862912955427575"><ele>185.0</ele><time>2026-04-28T13:41:26Z</time></trkpt><trkpt lat="34.623736073168374" lon="-5.0863507279463"><ele>185.0</ele><time>2026-04-28T13:41:27Z</time></trkpt><trkpt lat="34.62365075154236" lon="-5.086451207898642"><ele>185.0</ele><time>2026-04-28T13:41:28Z</time></trkpt><trkpt lat="34.62363242621256" lon="-5.086599242434431"><ele>185.75</ele><time>2026-04-28T13:41:29Z</time></trkpt><trkpt lat="34.6236019400075" lon="-5.086759329028205"><ele>186.5</ele><time>2026-04-28T13:41:30Z</time></trkpt><trkpt lat="34.623569113039" lon="-5.086934496177468"><ele>187.25</ele><time>2026-04-28T13:41:31Z</time></trkpt><trkpt lat="34.62354175349631" lon="-5.087118802462532"><ele>188.0</ele><time>2026-04-28T13:41:32Z</time></trkpt><trkpt lat="34.623520229117716" lon="-5.087323060867625"><ele>187.66666666666666</ele><time>2026-04-28T13:41:33Z</time></trkpt><trkpt lat="34.62346598473394" lon="-5.08752879711163"><ele>187.33333333333334</ele><time>2026-04-28T13:41:34Z</time></trkpt><trkpt lat="34.6233890490231" lon="-5.087735149072126"><ele>187.0</ele><time>2026-04-28T13:41:35Z</time></trkpt><trkpt lat="34.62330994073129" lon="-5.087936070955633"><ele>187.0</ele><time>2026-04-28T13:41:36Z</time></trkpt><trkpt lat="34.623245259954516" lon="-5.088128630377454"><ele>187.0</ele><time>2026-04-28T13:41:37Z</time></trkpt><trkpt lat="34.623195236324776" lon="-5.088309729520909"><ele>187.0</ele><time>2026-04-28T13:41:38Z</time></trkpt><trkpt lat="34.6231482347444" lon="-5.088484585056317"><ele>187.0</ele><time>2026-04-28T13:41:39Z</time></trkpt><trkpt lat="34.623106111845125" lon="-5.088648459746654"><ele>187.0</ele><time>2026-04-28T13:41:40Z</time></trkpt><trkpt lat="34.62306518917084" lon="-5.088810376538575"><ele>187.0</ele><time>2026-04-28T13:41:41Z</time></trkpt><trkpt lat="34.62303052431936" lon="-5.0889777969241905"><ele>187.0</ele><time>2026-04-28T13:41:42Z</time></trkpt><trkpt lat="34.622995350701174" lon="-5.089146338419958"><ele>186.75</ele><time>2026-04-28T13:41:43Z</time></trkpt><trkpt lat="34.62295600277333" lon="-5.089318007374993"><ele>186.5</ele><time>2026-04-28T13:41:44Z</time></trkpt><trkpt lat="34.6229328517911" lon="-5.08948463514775"><ele>186.25</ele><time>2026-04-28T13:41:45Z</time></trkpt><trkpt lat="34.622908139736886" lon="-5.089657363715625"><ele>186.0</ele><time>2026-04-28T13:41:46Z</time></trkpt><trkpt lat="34.622878281250884" lon="-5.089831544862625"><ele>186.25</ele><time>2026-04-28T13:41:47Z</time></trkpt><trkpt lat="34.62285413056132" lon="-5.089996726371439"><ele>186.5</ele><time>2026-04-28T13:41:48Z</time></trkpt><trkpt lat="34.62282265900111" lon="-5.090143931945125"><ele>186.75</ele><time>2026-04-28T13:41:49Z</time></trkpt><trkpt lat="34.62277520337678" lon="-5.0902954769959345"><ele>187.0</ele><time>2026-04-28T13:41:50Z</time></trkpt><trkpt lat="34.622720423014954" lon="-5.090450575479627"><ele>187.66666666666669</ele><time>2026-04-28T13:41:51Z</time></trkpt><trkpt lat="34.62264949978378" lon="-5.090605247541739"><ele>188.33333333333334</ele><time>2026-04-28T13:41:52Z</time></trkpt><trkpt lat="34.62257120850131" lon="-5.09076877300196"><ele>189.0</ele><time>2026-04-28T13:41:53Z</time></trkpt><trkpt lat="34.62248541169739" lon="-5.090942358352497"><ele>190.33333333333331</ele><time>2026-04-28T13:41:54Z</time></trkpt><trkpt lat="34.62239624556845" lon="-5.091115213080189"><ele>191.66666666666666</ele><time>2026-04-28T13:41:55Z</time></trkpt><trkpt lat="34.62230218107267" lon="-5.091273458568503"><ele>193.0</ele><time>2026-04-28T13:41:56Z</time></trkpt><trkpt lat="34.62219655768436" lon="-5.09142741629098"><ele>193.0</ele><time>2026-04-28T13:41:57Z</time></trkpt><trkpt lat="34.6220759860858" lon="-5.091570756108683"><ele>193.0</ele><time>2026-04-28T13:41:58Z</time></trkpt><trkpt lat="34.62194403357042" lon="-5.091699981027171"><ele>193.0</ele><time>2026-04-28T13:41:59Z</time></trkpt><trkpt lat="34.62180322515751" lon="-5.09182855546036"><ele>195.33333333333331</ele><time>2026-04-28T13:42:00Z</time></trkpt><trkpt lat="34.62166529908007" lon="-5.091947823377701"><ele>197.66666666666669</ele><time>2026-04-28T13:42:01Z</time></trkpt><trkpt lat="34.62152887251754" lon="-5.092070698495314"><ele>200.0</ele><time>2026-04-28T13:42:02Z</time></trkpt><trkpt lat="34.62140002933119" lon="-5.092197828441628"><ele>200.0</ele><time>2026-04-28T13:42:03Z</time></trkpt><trkpt lat="34.62127406326627" lon="-5.092331979495074"><ele>200.0</ele><time>2026-04-28T13:42:04Z</time></trkpt><trkpt lat="34.621141630141224" lon="-5.092467626671815"><ele>200.0</ele><time>2026-04-28T13:42:05Z</time></trkpt><trkpt lat="34.62100178593165" lon="-5.092599285072708"><ele>201.66666666666669</ele><time>2026-04-28T13:42:06Z</time></trkpt><trkpt lat="34.62085284381515" lon="-5.0927263789224515"><ele>203.33333333333331</ele><time>2026-04-28T13:42:07Z</time></trkpt><trkpt lat="34.620699097137575" lon="-5.092847964155201"><ele>205.0</ele><time>2026-04-28T13:42:08Z</time></trkpt><trkpt lat="34.620534290821745" lon="-5.092958632962833"><ele>205.0</ele><time>2026-04-28T13:42:09Z</time></trkpt><trkpt lat="34.62035716989173" lon="-5.093051404730274"><ele>205.0</ele><time>2026-04-28T13:42:10Z</time></trkpt><trkpt lat="34.6201725744825" lon="-5.093134472940896"><ele>205.0</ele><time>2026-04-28T13:42:11Z</time></trkpt><trkpt lat="34.61998381103492" lon="-5.093206899206209"><ele>206.33333333333331</ele><time>2026-04-28T13:42:12Z</time></trkpt><trkpt lat="34.61978898861511" lon="-5.093265286243604"><ele>207.66666666666669</ele><time>2026-04-28T13:42:13Z</time></trkpt><trkpt lat="34.61959388580971" lon="-5.093323352310471"><ele>209.0</ele><time>2026-04-28T13:42:14Z</time></trkpt><trkpt lat="34.619398520768414" lon="-5.093381248014793"><ele>210.0</ele><time>2026-04-28T13:42:15Z</time></trkpt><trkpt lat="34.61920043159621" lon="-5.093427357159244"><ele>211.0</ele><time>2026-04-28T13:42:16Z</time></trkpt><trkpt lat="34.618995265578015" lon="-5.093458400530333"><ele>212.0</ele><time>2026-04-28T13:42:17Z</time></trkpt><trkpt lat="34.61879131458824" lon="-5.093480921669642"><ele>213.0</ele><time>2026-04-28T13:42:18Z</time></trkpt><trkpt lat="34.61859736760552" lon="-5.093501521893752"><ele>214.0</ele><time>2026-04-28T13:42:19Z</time></trkpt><trkpt lat="34.61842294591071" lon="-5.093530177615396"><ele>215.0</ele><time>2026-04-28T13:42:20Z</time></trkpt><trkpt lat="34.618265003469695" lon="-5.0935855925209275"><ele>215.0</ele><time>2026-04-28T13:42:21Z</time></trkpt><trkpt lat="34.618121817316705" lon="-5.093682955112576"><ele>215.0</ele><time>2026-04-28T13:42:22Z</time></trkpt><trkpt lat="34.61799444194752" lon="-5.093824293858947"><ele>215.0</ele><time>2026-04-28T13:42:23Z</time></trkpt><trkpt lat="34.617871905873706" lon="-5.093991475995384"><ele>215.0</ele><time>2026-04-28T13:42:24Z</time></trkpt><trkpt lat="34.61774497976936" lon="-5.0941712236351995"><ele>215.0</ele><time>2026-04-28T13:42:25Z</time></trkpt><trkpt lat="34.61761346530975" lon="-5.09435559078307"><ele>215.0</ele><time>2026-04-28T13:42:26Z</time></trkpt><trkpt lat="34.61747531242282" lon="-5.094548216369178"><ele>215.0</ele><time>2026-04-28T13:42:27Z</time></trkpt><trkpt lat="34.61733118434569" lon="-5.094736866437378"><ele>215.0</ele><time>2026-04-28T13:42:28Z</time></trkpt><trkpt lat="34.61718695259858" lon="-5.094927372140403"><ele>215.0</ele><time>2026-04-28T13:42:29Z</time></trkpt><trkpt lat="34.61704403155396" lon="-5.095116275869011"><ele>215.0</ele><time>2026-04-28T13:42:30Z</time></trkpt><trkpt lat="34.616894518453506" lon="-5.095297843561728"><ele>215.0</ele><time>2026-04-28T13:42:31Z</time></trkpt><trkpt lat="34.61674066796425" lon="-5.095465686498299"><ele>215.0</ele><time>2026-04-28T13:42:32Z</time></trkpt><trkpt lat="34.61658649121519" lon="-5.095621104640304"><ele>215.0</ele><time>2026-04-28T13:42:33Z</time></trkpt><trkpt lat="34.6164310759294" lon="-5.0957628495106055"><ele>215.0</ele><time>2026-04-28T13:42:34Z</time></trkpt><trkpt lat="34.61627048843006" lon="-5.095886155969118"><ele>215.0</ele><time>2026-04-28T13:42:35Z</time></trkpt><trkpt lat="34.61611593511481" lon="-5.095999193202696"><ele>215.0</ele><time>2026-04-28T13:42:36Z</time></trkpt><trkpt lat="34.61598317006538" lon="-5.096110875377468"><ele>215.0</ele><time>2026-04-28T13:42:37Z</time></trkpt><trkpt lat="34.615864263862356" lon="-5.096218302024333"><ele>215.0</ele><time>2026-04-28T13:42:38Z</time></trkpt><trkpt lat="34.61575520715065" lon="-5.096312455253674"><ele>215.0</ele><time>2026-04-28T13:42:39Z</time></trkpt><trkpt lat="34.615661783967" lon="-5.09638464427464"><ele>215.0</ele><time>2026-04-28T13:42:40Z</time></trkpt><trkpt lat="34.615587770452585" lon="-5.09643952347661"><ele>215.0</ele><time>2026-04-28T13:42:41Z</time></trkpt><trkpt lat="34.615486545616456" lon="-5.096478851090882"><ele>215.0</ele><time>2026-04-28T13:42:43Z</time></trkpt><trkpt lat="34.615409935775766" lon="-5.096509656418305"><ele>215.0</ele><time>2026-04-28T13:42:46Z</time></trkpt><trkpt lat="34.61532074282205" lon="-5.096369891748868"><ele>215.0</ele><time>2026-04-28T13:42:47Z</time></trkpt><trkpt lat="34.61528612425076" lon="-5.0962564980138625"><ele>217.25</ele><time>2026-04-28T13:42:48Z</time></trkpt><trkpt lat="34.615229391569684" lon="-5.09613937670119"><ele>219.5</ele><time>2026-04-28T13:42:49Z</time></trkpt><trkpt lat="34.61518614615724" lon="-5.096016405735249"><ele>221.75</ele><time>2026-04-28T13:42:50Z</time></trkpt><trkpt lat="34.61513714175464" lon="-5.095877839145173"><ele>224.0</ele><time>2026-04-28T13:42:51Z</time></trkpt><trkpt lat="34.61508289031672" lon="-5.095724598379005"><ele>224.25</ele><time>2026-04-28T13:42:52Z</time></trkpt><trkpt lat="34.61503084725329" lon="-5.095577237454881"><ele>224.5</ele><time>2026-04-28T13:42:53Z</time></trkpt><trkpt lat="34.614976313260286" lon="-5.095422564820961"><ele>224.75</ele><time>2026-04-28T13:42:54Z</time></trkpt><trkpt lat="34.61493721781398" lon="-5.095251289359341"><ele>225.0</ele><time>2026-04-28T13:42:55Z</time></trkpt><trkpt lat="34.6148754445988" lon="-5.0950839912653105"><ele>225.33333333333331</ele><time>2026-04-28T13:42:56Z</time></trkpt><trkpt lat="34.61481431410666" lon="-5.094905272328077"><ele>225.66666666666666</ele><time>2026-04-28T13:42:57Z</time></trkpt><trkpt lat="34.61475701300459" lon="-5.0947284874692"><ele>226.0</ele><time>2026-04-28T13:42:58Z</time></trkpt><trkpt lat="34.61467539134461" lon="-5.09456813850012"><ele>226.0</ele><time>2026-04-28T13:42:59Z</time></trkpt><trkpt lat="34.614589794543875" lon="-5.094405958253114"><ele>226.0</ele><time>2026-04-28T13:43:00Z</time></trkpt><trkpt lat="34.614494868623254" lon="-5.094243404940345"><ele>226.0</ele><time>2026-04-28T13:43:01Z</time></trkpt><trkpt lat="34.614393799668996" lon="-5.094084846968658"><ele>228.0</ele><time>2026-04-28T13:43:02Z</time></trkpt><trkpt lat="34.614288381521504" lon="-5.093930331772171"><ele>230.0</ele><time>2026-04-28T13:43:03Z</time></trkpt><trkpt lat="34.61421606188971" lon="-5.093748422875695"><ele>232.0</ele><time>2026-04-28T13:43:04Z</time></trkpt><trkpt lat="34.61415824385428" lon="-5.093560973040522"><ele>232.0</ele><time>2026-04-28T13:43:05Z</time></trkpt><trkpt lat="34.61410451282691" lon="-5.093359053570674"><ele>232.0</ele><time>2026-04-28T13:43:06Z</time></trkpt><trkpt lat="34.61406877533402" lon="-5.093143812436645"><ele>232.0</ele><time>2026-04-28T13:43:07Z</time></trkpt><trkpt lat="34.61403231064602" lon="-5.092927922050067"><ele>231.66666666666666</ele><time>2026-04-28T13:43:08Z</time></trkpt><trkpt lat="34.61399621299499" lon="-5.092710131440729"><ele>231.33333333333331</ele><time>2026-04-28T13:43:09Z</time></trkpt><trkpt lat="34.61396234017239" lon="-5.092511711206211"><ele>231.0</ele><time>2026-04-28T13:43:10Z</time></trkpt><trkpt lat="34.61392517216763" lon="-5.092317635147113"><ele>230.33333333333331</ele><time>2026-04-28T13:43:11Z</time></trkpt><trkpt lat="34.613887291559806" lon="-5.092120936982301"><ele>229.66666666666666</ele><time>2026-04-28T13:43:12Z</time></trkpt><trkpt lat="34.61385460151614" lon="-5.0919318826944"><ele>229.0</ele><time>2026-04-28T13:43:13Z</time></trkpt><trkpt lat="34.61383890337252" lon="-5.0917441261150485"><ele>230.0</ele><time>2026-04-28T13:43:14Z</time></trkpt><trkpt lat="34.61383044816482" lon="-5.091566158258777"><ele>231.0</ele><time>2026-04-28T13:43:15Z</time></trkpt><trkpt lat="34.61384743720828" lon="-5.091372415813325"><ele>232.0</ele><time>2026-04-28T13:43:16Z</time></trkpt><trkpt lat="34.61390237732672" lon="-5.09117211656029"><ele>232.0</ele><time>2026-04-28T13:43:17Z</time></trkpt><trkpt lat="34.613963354406344" lon="-5.090970850341862"><ele>232.0</ele><time>2026-04-28T13:43:18Z</time></trkpt><trkpt lat="34.61402838979047" lon="-5.090773371775727"><ele>232.0</ele><time>2026-04-28T13:43:19Z</time></trkpt><trkpt lat="34.61409305414492" lon="-5.090577111237974"><ele>233.33333333333331</ele><time>2026-04-28T13:43:20Z</time></trkpt><trkpt lat="34.614155679291336" lon="-5.090387062403564"><ele>234.66666666666669</ele><time>2026-04-28T13:43:21Z</time></trkpt><trkpt lat="34.61421599567551" lon="-5.090204867547068"><ele>236.0</ele><time>2026-04-28T13:43:22Z</time></trkpt><trkpt lat="34.61425739421651" lon="-5.090018791795228"><ele>235.0</ele><time>2026-04-28T13:43:23Z</time></trkpt><trkpt lat="34.61427213154969" lon="-5.0898152340724385"><ele>234.0</ele><time>2026-04-28T13:43:24Z</time></trkpt><trkpt lat="34.614273782551585" lon="-5.089603898660688"><ele>233.0</ele><time>2026-04-28T13:43:25Z</time></trkpt><trkpt lat="34.61427164316018" lon="-5.089391996392626"><ele>233.0</ele><time>2026-04-28T13:43:26Z</time></trkpt><trkpt lat="34.6142689259344" lon="-5.089187245371684"><ele>233.0</ele><time>2026-04-28T13:43:27Z</time></trkpt><trkpt lat="34.614275185195766" lon="-5.0889957271381565"><ele>233.0</ele><time>2026-04-28T13:43:28Z</time></trkpt><trkpt lat="34.61428119382419" lon="-5.088809794706463"><ele>234.66666666666669</ele><time>2026-04-28T13:43:29Z</time></trkpt><trkpt lat="34.614298962861355" lon="-5.088620852867477"><ele>236.33333333333331</ele><time>2026-04-28T13:43:30Z</time></trkpt><trkpt lat="34.61429621420431" lon="-5.088430716967801"><ele>238.0</ele><time>2026-04-28T13:43:31Z</time></trkpt><trkpt lat="34.61429510412798" lon="-5.0882375562185285"><ele>240.66666666666666</ele><time>2026-04-28T13:43:32Z</time></trkpt><trkpt lat="34.614281662143824" lon="-5.088045829743383"><ele>243.33333333333331</ele><time>2026-04-28T13:43:33Z</time></trkpt><trkpt lat="34.614288888646016" lon="-5.087843738383768"><ele>246.0</ele><time>2026-04-28T13:43:34Z</time></trkpt><trkpt lat="34.614302458751695" lon="-5.087644985476137"><ele>246.0</ele><time>2026-04-28T13:43:35Z</time></trkpt><trkpt lat="34.61432743566114" lon="-5.0874487495530225"><ele>246.0</ele><time>2026-04-28T13:43:36Z</time></trkpt><trkpt lat="34.61437791848509" lon="-5.0872556179094595"><ele>246.0</ele><time>2026-04-28T13:43:37Z</time></trkpt><trkpt lat="34.61439716045585" lon="-5.087053625702778"><ele>249.66666666666669</ele><time>2026-04-28T13:43:38Z</time></trkpt><trkpt lat="34.61442616856185" lon="-5.086858051447352"><ele>253.33333333333334</ele><time>2026-04-28T13:43:39Z</time></trkpt><trkpt lat="34.61442261395267" lon="-5.0866712806160095"><ele>257.0</ele><time>2026-04-28T13:43:40Z</time></trkpt><trkpt lat="34.6143858769627" lon="-5.086490799764115"><ele>259.0</ele><time>2026-04-28T13:43:41Z</time></trkpt><trkpt lat="34.61431714064661" lon="-5.086323574150432"><ele>261.0</ele><time>2026-04-28T13:43:42Z</time></trkpt><trkpt lat="34.61425822105558" lon="-5.0861347292692765"><ele>263.0</ele><time>2026-04-28T13:43:43Z</time></trkpt><trkpt lat="34.614178866830635" lon="-5.085955151189007"><ele>263.0</ele><time>2026-04-28T13:43:44Z</time></trkpt><trkpt lat="34.614113130984194" lon="-5.085766952162388"><ele>263.0</ele><time>2026-04-28T13:43:45Z</time></trkpt><trkpt lat="34.6140515030692" lon="-5.085574018764749"><ele>263.0</ele><time>2026-04-28T13:43:46Z</time></trkpt><trkpt lat="34.61398616468493" lon="-5.085383080338066"><ele>263.33333333333337</ele><time>2026-04-28T13:43:47Z</time></trkpt><trkpt lat="34.6139171224808" lon="-5.08519166977021"><ele>263.6666666666667</ele><time>2026-04-28T13:43:48Z</time></trkpt><trkpt lat="34.613849050339844" lon="-5.085001300867797"><ele>264.0</ele><time>2026-04-28T13:43:49Z</time></trkpt><trkpt lat="34.61378215322473" lon="-5.084808564224753"><ele>264.0</ele><time>2026-04-28T13:43:50Z</time></trkpt><trkpt lat="34.613720210013135" lon="-5.084615638096159"><ele>264.0</ele><time>2026-04-28T13:43:51Z</time></trkpt><trkpt lat="34.61364635402955" lon="-5.084432483028778"><ele>264.0</ele><time>2026-04-28T13:43:52Z</time></trkpt><trkpt lat="34.61358633302129" lon="-5.084245079918659"><ele>266.6666666666667</ele><time>2026-04-28T13:43:53Z</time></trkpt><trkpt lat="34.613527374793925" lon="-5.084059937055058"><ele>269.33333333333337</ele><time>2026-04-28T13:43:54Z</time></trkpt><trkpt lat="34.61346861295824" lon="-5.083876533716731"><ele>272.0</ele><time>2026-04-28T13:43:55Z</time></trkpt><trkpt lat="34.613416306639635" lon="-5.083712491429254"><ele>272.0</ele><time>2026-04-28T13:43:56Z</time></trkpt><trkpt lat="34.613374660076246" lon="-5.083555391429232"><ele>272.0</ele><time>2026-04-28T13:43:57Z</time></trkpt><trkpt lat="34.613336988253266" lon="-5.083410743010344"><ele>272.0</ele><time>2026-04-28T13:43:58Z</time></trkpt><trkpt lat="34.61330138382277" lon="-5.0832741760342115"><ele>272.0</ele><time>2026-04-28T13:43:59Z</time></trkpt><trkpt lat="34.613280018798854" lon="-5.083139323007988"><ele>272.2</ele><time>2026-04-28T13:44:00Z</time></trkpt><trkpt lat="34.61324483639652" lon="-5.08301872416772"><ele>272.4</ele><time>2026-04-28T13:44:01Z</time></trkpt><trkpt lat="34.61318735204208" lon="-5.082921613135471"><ele>272.6</ele><time>2026-04-28T13:44:02Z</time></trkpt><trkpt lat="34.61314622943717" lon="-5.082821168048478"><ele>272.8</ele><time>2026-04-28T13:44:03Z</time></trkpt><trkpt lat="34.6130908595657" lon="-5.082742243217327"><ele>273.0</ele><time>2026-04-28T13:44:04Z</time></trkpt><trkpt lat="34.613031379986246" lon="-5.082660002766557"><ele>273.0</ele><time>2026-04-28T13:44:05Z</time></trkpt><trkpt lat="34.61292989879086" lon="-5.0826257971016116"><ele>273.0</ele><time>2026-04-28T13:44:06Z</time></trkpt><trkpt lat="34.612811240594965" lon="-5.082599143068414"><ele>273.0</ele><time>2026-04-28T13:44:07Z</time></trkpt><trkpt lat="34.612681722476395" lon="-5.082563785407149"><ele>273.0</ele><time>2026-04-28T13:44:08Z</time></trkpt><trkpt lat="34.6125495025508" lon="-5.082505996871893"><ele>277.0</ele><time>2026-04-28T13:44:09Z</time></trkpt><trkpt lat="34.61240832518099" lon="-5.082428978150313"><ele>281.0</ele><time>2026-04-28T13:44:10Z</time></trkpt><trkpt lat="34.61227025063689" lon="-5.082344146267431"><ele>285.0</ele><time>2026-04-28T13:44:11Z</time></trkpt><trkpt lat="34.61212611106512" lon="-5.0822469650310325"><ele>287.6666666666667</ele><time>2026-04-28T13:44:12Z</time></trkpt><trkpt lat="34.611983263930696" lon="-5.082137019965727"><ele>290.33333333333337</ele><time>2026-04-28T13:44:13Z</time></trkpt><trkpt lat="34.61184994444764" lon="-5.082030277478168"><ele>293.0</ele><time>2026-04-28T13:44:14Z</time></trkpt><trkpt lat="34.61171814826165" lon="-5.081951959691891"><ele>293.0</ele><time>2026-04-28T13:44:15Z</time></trkpt><trkpt lat="34.6115848616824" lon="-5.081908712159311"><ele>293.0</ele><time>2026-04-28T13:44:16Z</time></trkpt><trkpt lat="34.61144634024918" lon="-5.081904381272371"><ele>293.0</ele><time>2026-04-28T13:44:17Z</time></trkpt><trkpt lat="34.61130815004613" lon="-5.081940753610287"><ele>293.0</ele><time>2026-04-28T13:44:18Z</time></trkpt><trkpt lat="34.61115260196818" lon="-5.081993088693028"><ele>294.6666666666667</ele><time>2026-04-28T13:44:19Z</time></trkpt><trkpt lat="34.61099661257958" lon="-5.082042630702916"><ele>296.3333333333333</ele><time>2026-04-28T13:44:20Z</time></trkpt><trkpt lat="34.610845110319154" lon="-5.082091026500994"><ele>298.0</ele><time>2026-04-28T13:44:21Z</time></trkpt><trkpt lat="34.61069927781179" lon="-5.082132266347645"><ele>298.0</ele><time>2026-04-28T13:44:22Z</time></trkpt><trkpt lat="34.6105474085826" lon="-5.082150454409508"><ele>298.0</ele><time>2026-04-28T13:44:23Z</time></trkpt><trkpt lat="34.610405358207295" lon="-5.0821631752196925"><ele>298.0</ele><time>2026-04-28T13:44:24Z</time></trkpt><trkpt lat="34.610276212942644" lon="-5.082123034532053"><ele>298.0</ele><time>2026-04-28T13:44:25Z</time></trkpt><trkpt lat="34.61015836156835" lon="-5.082097823166038"><ele>298.2</ele><time>2026-04-28T13:44:26Z</time></trkpt><trkpt lat="34.61005281564934" lon="-5.082065766756334"><ele>298.4</ele><time>2026-04-28T13:44:27Z</time></trkpt><trkpt lat="34.609961510070185" lon="-5.082035211044086"><ele>298.59999999999997</ele><time>2026-04-28T13:44:28Z</time></trkpt><trkpt lat="34.609885971567984" lon="-5.08201917516725"><ele>298.8</ele><time>2026-04-28T13:44:29Z</time></trkpt><trkpt lat="34.609778892879646" lon="-5.0820151275892425"><ele>299.0</ele><time>2026-04-28T13:44:31Z</time></trkpt><trkpt lat="34.609701738609324" lon="-5.082040034968343"><ele>299.0</ele><time>2026-04-28T13:44:33Z</time></trkpt><trkpt lat="34.609630620903985" lon="-5.082090590050606"><ele>299.0</ele><time>2026-04-28T13:44:35Z</time></trkpt><trkpt lat="34.609574120146284" lon="-5.082163437584238"><ele>299.0</ele><time>2026-04-28T13:44:37Z</time></trkpt><trkpt lat="34.60953696235598" lon="-5.082286705385221"><ele>299.0</ele><time>2026-04-28T13:44:39Z</time></trkpt><trkpt lat="34.609504186518244" lon="-5.082375718331632"><ele>299.0</ele><time>2026-04-28T13:44:40Z</time></trkpt><trkpt lat="34.609473718273925" lon="-5.082473362772356"><ele>299.0</ele><time>2026-04-28T13:44:41Z</time></trkpt><trkpt lat="34.60943854916637" lon="-5.0825875306916615"><ele>300.5</ele><time>2026-04-28T13:44:42Z</time></trkpt><trkpt lat="34.60940372301939" lon="-5.082723491853972"><ele>302.0</ele><time>2026-04-28T13:44:43Z</time></trkpt><trkpt lat="34.609358710263926" lon="-5.082866444659204"><ele>303.5</ele><time>2026-04-28T13:44:44Z</time></trkpt><trkpt lat="34.609309121264985" lon="-5.0830085510823375"><ele>305.0</ele><time>2026-04-28T13:44:45Z</time></trkpt><trkpt lat="34.60924580979115" lon="-5.083144151990467"><ele>305.0</ele><time>2026-04-28T13:44:46Z</time></trkpt><trkpt lat="34.609170108204665" lon="-5.083260491552564"><ele>305.0</ele><time>2026-04-28T13:44:47Z</time></trkpt><trkpt lat="34.60909393697656" lon="-5.083342637789258"><ele>305.0</ele><time>2026-04-28T13:44:48Z</time></trkpt><trkpt lat="34.60900974225193" lon="-5.083389326800612"><ele>305.0</ele><time>2026-04-28T13:44:49Z</time></trkpt><trkpt lat="34.60890606167916" lon="-5.0834214931549955"><ele>305.0</ele><time>2026-04-28T13:44:50Z</time></trkpt><trkpt lat="34.6087871725342" lon="-5.083457014367417"><ele>304.25</ele><time>2026-04-28T13:44:51Z</time></trkpt><trkpt lat="34.60866128635485" lon="-5.083499475250995"><ele>303.5</ele><time>2026-04-28T13:44:52Z</time></trkpt><trkpt lat="34.60853015720678" lon="-5.0835469073137265"><ele>302.75</ele><time>2026-04-28T13:44:53Z</time></trkpt><trkpt lat="34.60839414226052" lon="-5.083600114411013"><ele>302.0</ele><time>2026-04-28T13:44:54Z</time></trkpt><trkpt lat="34.60825118599093" lon="-5.083654751630561"><ele>306.6666666666667</ele><time>2026-04-28T13:44:55Z</time></trkpt><trkpt lat="34.60811131064591" lon="-5.08370368630209"><ele>311.3333333333333</ele><time>2026-04-28T13:44:56Z</time></trkpt><trkpt lat="34.60796224583332" lon="-5.083747543531247"><ele>316.0</ele><time>2026-04-28T13:44:57Z</time></trkpt><trkpt lat="34.607804810597756" lon="-5.083812757261514"><ele>316.0</ele><time>2026-04-28T13:44:58Z</time></trkpt><trkpt lat="34.607648871150836" lon="-5.083912232805867"><ele>316.0</ele><time>2026-04-28T13:44:59Z</time></trkpt><trkpt lat="34.607494020485284" lon="-5.084029705426161"><ele>316.0</ele><time>2026-04-28T13:45:00Z</time></trkpt><trkpt lat="34.60733793514933" lon="-5.084148803612262"><ele>316.0</ele><time>2026-04-28T13:45:01Z</time></trkpt><trkpt lat="34.607189842426244" lon="-5.084272305602516"><ele>316.0</ele><time>2026-04-28T13:45:02Z</time></trkpt><trkpt lat="34.60705550238612" lon="-5.084413413738843"><ele>316.0</ele><time>2026-04-28T13:45:03Z</time></trkpt><trkpt lat="34.606948161625844" lon="-5.084574395198601"><ele>319.0</ele><time>2026-04-28T13:45:04Z</time></trkpt><trkpt lat="34.60685356515763" lon="-5.084750781481011"><ele>322.0</ele><time>2026-04-28T13:45:05Z</time></trkpt><trkpt lat="34.606760577424424" lon="-5.084906992769636"><ele>325.0</ele><time>2026-04-28T13:45:06Z</time></trkpt><trkpt lat="34.606665074709056" lon="-5.085032792564763"><ele>325.0</ele><time>2026-04-28T13:45:07Z</time></trkpt><trkpt lat="34.6065681599547" lon="-5.085132657307866"><ele>325.0</ele><time>2026-04-28T13:45:08Z</time></trkpt><trkpt lat="34.60645491478814" lon="-5.085209215107597"><ele>325.0</ele><time>2026-04-28T13:45:09Z</time></trkpt><trkpt lat="34.60632484700439" lon="-5.085244904023969"><ele>325.0</ele><time>2026-04-28T13:45:10Z</time></trkpt><trkpt lat="34.60617610938711" lon="-5.085247918845867"><ele>329.66666666666663</ele><time>2026-04-28T13:45:11Z</time></trkpt><trkpt lat="34.606011671295505" lon="-5.0852365410316756"><ele>334.3333333333333</ele><time>2026-04-28T13:45:12Z</time></trkpt><trkpt lat="34.60585300462604" lon="-5.085245505430814"><ele>339.0</ele><time>2026-04-28T13:45:13Z</time></trkpt><trkpt lat="34.60571630916851" lon="-5.085287388666018"><ele>339.0</ele><time>2026-04-28T13:45:14Z</time></trkpt><trkpt lat="34.605605307642804" lon="-5.085361821935473"><ele>339.0</ele><time>2026-04-28T13:45:15Z</time></trkpt><trkpt lat="34.605523197843546" lon="-5.085467268617139"><ele>339.0</ele><time>2026-04-28T13:45:16Z</time></trkpt><trkpt lat="34.60546955627222" lon="-5.085603769384721"><ele>339.0</ele><time>2026-04-28T13:45:17Z</time></trkpt><trkpt lat="34.60546159431643" lon="-5.0857672606626645"><ele>339.75</ele><time>2026-04-28T13:45:18Z</time></trkpt><trkpt lat="34.60540994399035" lon="-5.085919262827551"><ele>340.5</ele><time>2026-04-28T13:45:19Z</time></trkpt><trkpt lat="34.60537829335052" lon="-5.086083907931131"><ele>341.25</ele><time>2026-04-28T13:45:20Z</time></trkpt><trkpt lat="34.60534376532071" lon="-5.086243457576927"><ele>342.0</ele><time>2026-04-28T13:45:21Z</time></trkpt><trkpt lat="34.60529179078404" lon="-5.086383739076454"><ele>342.0</ele><time>2026-04-28T13:45:22Z</time></trkpt><trkpt lat="34.60521078884436" lon="-5.08652671026294"><ele>342.0</ele><time>2026-04-28T13:45:23Z</time></trkpt><trkpt lat="34.60510413580949" lon="-5.086671919872348"><ele>342.0</ele><time>2026-04-28T13:45:24Z</time></trkpt><trkpt lat="34.60497083153595" lon="-5.086809163596887"><ele>341.0</ele><time>2026-04-28T13:45:25Z</time></trkpt><trkpt lat="34.60482898752333" lon="-5.08695254875697"><ele>340.0</ele><time>2026-04-28T13:45:26Z</time></trkpt><trkpt lat="34.604700231884436" lon="-5.087108218743963"><ele>339.0</ele><time>2026-04-28T13:45:27Z</time></trkpt><trkpt lat="34.60458522969271" lon="-5.087275599214175"><ele>340.3333333333333</ele><time>2026-04-28T13:45:28Z</time></trkpt><trkpt lat="34.6044806813389" lon="-5.087441341624601"><ele>341.66666666666663</ele><time>2026-04-28T13:45:29Z</time></trkpt><trkpt lat="34.60437465551718" lon="-5.087606829675542"><ele>343.0</ele><time>2026-04-28T13:45:30Z</time></trkpt><trkpt lat="34.604270663772255" lon="-5.087764416955548"><ele>343.0</ele><time>2026-04-28T13:45:31Z</time></trkpt><trkpt lat="34.60417020918658" lon="-5.0879115128396775"><ele>343.0</ele><time>2026-04-28T13:45:32Z</time></trkpt><trkpt lat="34.6040660007196" lon="-5.088055352270011"><ele>343.0</ele><time>2026-04-28T13:45:33Z</time></trkpt><trkpt lat="34.60395056127643" lon="-5.088214327081346"><ele>339.3333333333333</ele><time>2026-04-28T13:45:34Z</time></trkpt><trkpt lat="34.60384061428346" lon="-5.0884044364325565"><ele>335.6666666666667</ele><time>2026-04-28T13:45:35Z</time></trkpt><trkpt lat="34.603744662379235" lon="-5.088613732037513"><ele>332.0</ele><time>2026-04-28T13:45:36Z</time></trkpt><trkpt lat="34.60366450841308" lon="-5.0888195859298655"><ele>333.0</ele><time>2026-04-28T13:45:37Z</time></trkpt><trkpt lat="34.60359547976388" lon="-5.089020214766856"><ele>334.0</ele><time>2026-04-28T13:45:38Z</time></trkpt><trkpt lat="34.60352638525931" lon="-5.089212038123188"><ele>335.0</ele><time>2026-04-28T13:45:39Z</time></trkpt><trkpt lat="34.60345091468903" lon="-5.089389053718108"><ele>335.0</ele><time>2026-04-28T13:45:40Z</time></trkpt><trkpt lat="34.60337779188124" lon="-5.0895422456276425"><ele>335.0</ele><time>2026-04-28T13:45:41Z</time></trkpt><trkpt lat="34.6033086551415" lon="-5.089667288677721"><ele>335.0</ele><time>2026-04-28T13:45:42Z</time></trkpt><trkpt lat="34.603246968976" lon="-5.0897595701564695"><ele>335.0</ele><time>2026-04-28T13:45:43Z</time></trkpt><trkpt lat="34.60319457421193" lon="-5.089816940220198"><ele>335.0</ele><time>2026-04-28T13:45:44Z</time></trkpt><trkpt lat="34.6031271896132" lon="-5.089928283205508"><ele>335.8</ele><time>2026-04-28T13:45:46Z</time></trkpt><trkpt lat="34.6030683701638" lon="-5.090000582236152"><ele>336.6</ele><time>2026-04-28T13:45:48Z</time></trkpt><trkpt lat="34.602987722331505" lon="-5.0900988031833245"><ele>337.4</ele><time>2026-04-28T13:45:50Z</time></trkpt><trkpt lat="34.60293524925679" lon="-5.090156502640914"><ele>338.2</ele><time>2026-04-28T13:45:52Z</time></trkpt><trkpt lat="34.60287707086925" lon="-5.090262343661554"><ele>339.0</ele><time>2026-04-28T13:45:54Z</time></trkpt><trkpt lat="34.602820370063654" lon="-5.090335275188621"><ele>339.0</ele><time>2026-04-28T13:45:55Z</time></trkpt><trkpt lat="34.602748232301096" lon="-5.090406394136164"><ele>339.0</ele><time>2026-04-28T13:45:56Z</time></trkpt><trkpt lat="34.60266902264482" lon="-5.0904772868808115"><ele>339.0</ele><time>2026-04-28T13:45:57Z</time></trkpt><trkpt lat="34.60258841888262" lon="-5.090553683913798"><ele>339.0</ele><time>2026-04-28T13:45:58Z</time></trkpt><trkpt lat="34.60251120514397" lon="-5.0906386419258345"><ele>339.0</ele><time>2026-04-28T13:45:59Z</time></trkpt><trkpt lat="34.60243444292169" lon="-5.090732421503206"><ele>336.25</ele><time>2026-04-28T13:46:00Z</time></trkpt><trkpt lat="34.60237589355822" lon="-5.090859243592592"><ele>333.5</ele><time>2026-04-28T13:46:01Z</time></trkpt><trkpt lat="34.60231356349104" lon="-5.090996009207736"><ele>330.75</ele><time>2026-04-28T13:46:02Z</time></trkpt><trkpt lat="34.60227162952872" lon="-5.091154243723829"><ele>328.0</ele><time>2026-04-28T13:46:03Z</time></trkpt><trkpt lat="34.60223720894491" lon="-5.091335780652914"><ele>328.0</ele><time>2026-04-28T13:46:04Z</time></trkpt><trkpt lat="34.602199437372086" lon="-5.091495603004138"><ele>328.0</ele><time>2026-04-28T13:46:05Z</time></trkpt><trkpt lat="34.60214220025037" lon="-5.091622252890679"><ele>328.0</ele><time>2026-04-28T13:46:06Z</time></trkpt><trkpt lat="34.602074451718366" lon="-5.091740966260884"><ele>328.0</ele><time>2026-04-28T13:46:07Z</time></trkpt><trkpt lat="34.601982945829675" lon="-5.091845171798796"><ele>330.5</ele><time>2026-04-28T13:46:08Z</time></trkpt><trkpt lat="34.601870800418205" lon="-5.091943912449451"><ele>333.0</ele><time>2026-04-28T13:46:09Z</time></trkpt><trkpt lat="34.60174006546335" lon="-5.092036174838583"><ele>335.5</ele><time>2026-04-28T13:46:10Z</time></trkpt><trkpt lat="34.60159390256727" lon="-5.092102298323899"><ele>338.0</ele><time>2026-04-28T13:46:11Z</time></trkpt><trkpt lat="34.60143586506662" lon="-5.092136228651831"><ele>338.0</ele><time>2026-04-28T13:46:12Z</time></trkpt><trkpt lat="34.60126645071459" lon="-5.092160296378022"><ele>338.0</ele><time>2026-04-28T13:46:13Z</time></trkpt><trkpt lat="34.60109264253034" lon="-5.092205828931085"><ele>338.0</ele><time>2026-04-28T13:46:14Z</time></trkpt><trkpt lat="34.60092585861404" lon="-5.092267629785538"><ele>343.0</ele><time>2026-04-28T13:46:15Z</time></trkpt><trkpt lat="34.600768059545416" lon="-5.092318667020592"><ele>348.0</ele><time>2026-04-28T13:46:16Z</time></trkpt><trkpt lat="34.600601860658195" lon="-5.092362234073372"><ele>353.0</ele><time>2026-04-28T13:46:17Z</time></trkpt><trkpt lat="34.60044444861221" lon="-5.092408032542539"><ele>352.0</ele><time>2026-04-28T13:46:18Z</time></trkpt><trkpt lat="34.60029418678882" lon="-5.0924571545402335"><ele>351.0</ele><time>2026-04-28T13:46:19Z</time></trkpt><trkpt lat="34.600154182591055" lon="-5.092498157456418"><ele>350.0</ele><time>2026-04-28T13:46:20Z</time></trkpt><trkpt lat="34.60001466149503" lon="-5.092518505240166"><ele>349.0</ele><time>2026-04-28T13:46:21Z</time></trkpt><trkpt lat="34.59986293890604" lon="-5.092508507590598"><ele>349.0</ele><time>2026-04-28T13:46:22Z</time></trkpt><trkpt lat="34.59970011241965" lon="-5.092470224150296"><ele>349.0</ele><time>2026-04-28T13:46:23Z</time></trkpt><trkpt lat="34.5995332207028" lon="-5.092398387102636"><ele>349.0</ele><time>2026-04-28T13:46:24Z</time></trkpt><trkpt lat="34.59936838139144" lon="-5.092302846771321"><ele>354.66666666666663</ele><time>2026-04-28T13:46:25Z</time></trkpt><trkpt lat="34.59920385029213" lon="-5.092193155201209"><ele>360.3333333333333</ele><time>2026-04-28T13:46:26Z</time></trkpt><trkpt lat="34.59904052966541" lon="-5.092068482700413"><ele>366.0</ele><time>2026-04-28T13:46:27Z</time></trkpt><trkpt lat="34.59887029559264" lon="-5.091947853928867"><ele>366.0</ele><time>2026-04-28T13:46:28Z</time></trkpt><trkpt lat="34.59870038740332" lon="-5.091844486234245"><ele>366.0</ele><time>2026-04-28T13:46:29Z</time></trkpt><trkpt lat="34.59854460907458" lon="-5.091753263319882"><ele>366.0</ele><time>2026-04-28T13:46:30Z</time></trkpt><trkpt lat="34.59840421762007" lon="-5.091667994607529"><ele>366.0</ele><time>2026-04-28T13:46:31Z</time></trkpt><trkpt lat="34.59828962792237" lon="-5.091605240342042"><ele>366.0</ele><time>2026-04-28T13:46:32Z</time></trkpt><trkpt lat="34.598194825577565" lon="-5.091582590058718"><ele>366.0</ele><time>2026-04-28T13:46:33Z</time></trkpt><trkpt lat="34.59811037931099" lon="-5.091598129417586"><ele>366.0</ele><time>2026-04-28T13:46:34Z</time></trkpt><trkpt lat="34.59803818648251" lon="-5.091644267263679"><ele>366.0</ele><time>2026-04-28T13:46:35Z</time></trkpt><trkpt lat="34.59799177172409" lon="-5.091737650577364"><ele>366.0</ele><time>2026-04-28T13:46:36Z</time></trkpt><trkpt lat="34.597921863386865" lon="-5.091817847307363"><ele>366.0</ele><time>2026-04-28T13:46:37Z</time></trkpt><trkpt lat="34.59785759709565" lon="-5.0919264634822"><ele>366.0</ele><time>2026-04-28T13:46:38Z</time></trkpt><trkpt lat="34.597790446135136" lon="-5.092032601265684"><ele>366.0</ele><time>2026-04-28T13:46:39Z</time></trkpt><trkpt lat="34.59771598153701" lon="-5.0921229884907895"><ele>366.0</ele><time>2026-04-28T13:46:40Z</time></trkpt><trkpt lat="34.59762860100638" lon="-5.092203260864456"><ele>369.5</ele><time>2026-04-28T13:46:41Z</time></trkpt><trkpt lat="34.5975283842965" lon="-5.092280586888623"><ele>373.0</ele><time>2026-04-28T13:46:42Z</time></trkpt><trkpt lat="34.59742100819992" lon="-5.09233758715148"><ele>376.5</ele><time>2026-04-28T13:46:43Z</time></trkpt><trkpt lat="34.59730635022529" lon="-5.092373491697866"><ele>380.0</ele><time>2026-04-28T13:46:44Z</time></trkpt><trkpt lat="34.59718107674924" lon="-5.092390922272207"><ele>380.0</ele><time>2026-04-28T13:46:45Z</time></trkpt><trkpt lat="34.59704361587988" lon="-5.0923924526659645"><ele>380.0</ele><time>2026-04-28T13:46:46Z</time></trkpt><trkpt lat="34.5969049285213" lon="-5.092379349769385"><ele>380.0</ele><time>2026-04-28T13:46:47Z</time></trkpt><trkpt lat="34.59677461053526" lon="-5.092357690940244"><ele>380.0</ele><time>2026-04-28T13:46:48Z</time></trkpt><trkpt lat="34.59666566622699" lon="-5.092316128525334"><ele>382.5</ele><time>2026-04-28T13:46:49Z</time></trkpt><trkpt lat="34.59656301082392" lon="-5.092267002344036"><ele>385.0</ele><time>2026-04-28T13:46:50Z</time></trkpt><trkpt lat="34.596486010179206" lon="-5.092138459247267"><ele>387.5</ele><time>2026-04-28T13:46:51Z</time></trkpt><trkpt lat="34.596409506001855" lon="-5.091993028279717"><ele>390.0</ele><time>2026-04-28T13:46:52Z</time></trkpt><trkpt lat="34.596331697941785" lon="-5.091827305503896"><ele>390.0</ele><time>2026-04-28T13:46:53Z</time></trkpt><trkpt lat="34.59625887278538" lon="-5.091675130628643"><ele>390.0</ele><time>2026-04-28T13:46:54Z</time></trkpt><trkpt lat="34.59618988774" lon="-5.091531584991659"><ele>390.0</ele><time>2026-04-28T13:46:55Z</time></trkpt><trkpt lat="34.59610014292389" lon="-5.091387525184779"><ele>390.0</ele><time>2026-04-28T13:46:56Z</time></trkpt><trkpt lat="34.59597906045354" lon="-5.091257861695276"><ele>392.0</ele><time>2026-04-28T13:46:57Z</time></trkpt><trkpt lat="34.59583382905491" lon="-5.091159562760857"><ele>394.0</ele><time>2026-04-28T13:46:58Z</time></trkpt><trkpt lat="34.59567824852376" lon="-5.091075705574245"><ele>396.0</ele><time>2026-04-28T13:46:59Z</time></trkpt><trkpt lat="34.59553652612535" lon="-5.090988375030903"><ele>396.0</ele><time>2026-04-28T13:47:00Z</time></trkpt><trkpt lat="34.59541713720769" lon="-5.090910380249321"><ele>396.0</ele><time>2026-04-28T13:47:01Z</time></trkpt><trkpt lat="34.59531740540188" lon="-5.090843780490675"><ele>396.0</ele><time>2026-04-28T13:47:02Z</time></trkpt><trkpt lat="34.59523375901178" lon="-5.090778060283975"><ele>396.0</ele><time>2026-04-28T13:47:03Z</time></trkpt><trkpt lat="34.59516882570228" lon="-5.090690029262448"><ele>396.0</ele><time>2026-04-28T13:47:04Z</time></trkpt><trkpt lat="34.59514869339402" lon="-5.090593385206862"><ele>398.8</ele><time>2026-04-28T13:47:05Z</time></trkpt><trkpt lat="34.59517089950909" lon="-5.0904962414222945"><ele>401.6</ele><time>2026-04-28T13:47:06Z</time></trkpt><trkpt lat="34.59522203332853" lon="-5.090422928105412"><ele>404.4</ele><time>2026-04-28T13:47:07Z</time></trkpt><trkpt lat="34.595257731062794" lon="-5.090343480256824"><ele>407.2</ele><time>2026-04-28T13:47:08Z</time></trkpt><trkpt lat="34.595396647296674" lon="-5.090344133716319"><ele>410.0</ele><time>2026-04-28T13:47:09Z</time></trkpt><trkpt lat="34.59551862999444" lon="-5.090373429341893"><ele>410.5</ele><time>2026-04-28T13:47:10Z</time></trkpt><trkpt lat="34.59564590035459" lon="-5.090366905624864"><ele>411.0</ele><time>2026-04-28T13:47:11Z</time></trkpt><trkpt lat="34.59578011941883" lon="-5.090387985316072"><ele>411.5</ele><time>2026-04-28T13:47:12Z</time></trkpt><trkpt lat="34.59592337887775" lon="-5.090405003500862"><ele>412.0</ele><time>2026-04-28T13:47:13Z</time></trkpt><trkpt lat="34.59607092535828" lon="-5.090414343641777"><ele>410.5</ele><time>2026-04-28T13:47:14Z</time></trkpt><trkpt lat="34.59621329995005" lon="-5.090420678946207"><ele>409.0</ele><time>2026-04-28T13:47:15Z</time></trkpt><trkpt lat="34.59634931076725" lon="-5.0904164572411545"><ele>407.5</ele><time>2026-04-28T13:47:16Z</time></trkpt><trkpt lat="34.59647357196495" lon="-5.0904107197192365"><ele>406.0</ele><time>2026-04-28T13:47:17Z</time></trkpt><trkpt lat="34.59657566276052" lon="-5.090388207983524"><ele>406.0</ele><time>2026-04-28T13:47:18Z</time></trkpt><trkpt lat="34.596656682399114" lon="-5.090363583883261"><ele>406.0</ele><time>2026-04-28T13:47:19Z</time></trkpt><trkpt lat="34.59666873691193" lon="-5.090216694834092"><ele>406.0</ele><time>2026-04-28T13:47:21Z</time></trkpt><trkpt lat="34.59660721296167" lon="-5.09013984917204"><ele>406.0</ele><time>2026-04-28T13:47:22Z</time></trkpt><trkpt lat="34.596516765457366" lon="-5.090088976021424"><ele>406.0</ele><time>2026-04-28T13:47:23Z</time></trkpt><trkpt lat="34.5964052430256" lon="-5.090060372893815"><ele>406.0</ele><time>2026-04-28T13:47:24Z</time></trkpt><trkpt lat="34.59628044709939" lon="-5.0900488651249765"><ele>406.0</ele><time>2026-04-28T13:47:25Z</time></trkpt><trkpt lat="34.59614426586414" lon="-5.0900384132487435"><ele>406.0</ele><time>2026-04-28T13:47:26Z</time></trkpt><trkpt lat="34.59600133769645" lon="-5.090015979460274"><ele>406.0</ele><time>2026-04-28T13:47:27Z</time></trkpt><trkpt lat="34.59586370201163" lon="-5.089981803355393"><ele>407.5</ele><time>2026-04-28T13:47:28Z</time></trkpt><trkpt lat="34.59572795185077" lon="-5.089928218322275"><ele>409.0</ele><time>2026-04-28T13:47:29Z</time></trkpt><trkpt lat="34.59559713653835" lon="-5.089847033186059"><ele>410.5</ele><time>2026-04-28T13:47:30Z</time></trkpt><trkpt lat="34.59546711567777" lon="-5.089736166686326"><ele>412.0</ele><time>2026-04-28T13:47:31Z</time></trkpt><trkpt lat="34.59533150554095" lon="-5.089626910579099"><ele>414.5</ele><time>2026-04-28T13:47:32Z</time></trkpt><trkpt lat="34.59519194601474" lon="-5.089540594380485"><ele>417.0</ele><time>2026-04-28T13:47:33Z</time></trkpt><trkpt lat="34.595058733524326" lon="-5.089486080074346"><ele>419.5</ele><time>2026-04-28T13:47:34Z</time></trkpt><trkpt lat="34.59493852403195" lon="-5.089453363291446"><ele>422.0</ele><time>2026-04-28T13:47:35Z</time></trkpt><trkpt lat="34.594836253897206" lon="-5.089417182424387"><ele>421.99999999999994</ele><time>2026-04-28T13:47:36Z</time></trkpt><trkpt lat="34.5947620861484" lon="-5.0893515366153235"><ele>422.0</ele><time>2026-04-28T13:47:37Z</time></trkpt><trkpt lat="34.59472631102152" lon="-5.0892585668105035"><ele>422.0</ele><time>2026-04-28T13:47:38Z</time></trkpt><trkpt lat="34.5947333789532" lon="-5.089160143146145"><ele>422.0</ele><time>2026-04-28T13:47:39Z</time></trkpt><trkpt lat="34.594786470362834" lon="-5.08907936087319"><ele>421.99999999999994</ele><time>2026-04-28T13:47:40Z</time></trkpt><trkpt lat="34.59487352495627" lon="-5.089037380460326"><ele>422.0</ele><time>2026-04-28T13:47:41Z</time></trkpt><trkpt lat="34.59498433949323" lon="-5.089028166724362"><ele>422.5</ele><time>2026-04-28T13:47:42Z</time></trkpt><trkpt lat="34.59510503373078" lon="-5.089054284717962"><ele>423.0</ele><time>2026-04-28T13:47:43Z</time></trkpt><trkpt lat="34.595236026355174" lon="-5.089074800139179"><ele>423.5</ele><time>2026-04-28T13:47:44Z</time></trkpt><trkpt lat="34.59535739436938" lon="-5.089104500259178"><ele>424.0</ele><time>2026-04-28T13:47:45Z</time></trkpt><trkpt lat="34.59545824666385" lon="-5.089130344129727"><ele>424.2</ele><time>2026-04-28T13:47:46Z</time></trkpt><trkpt lat="34.59553537561672" lon="-5.089147870843954"><ele>424.4</ele><time>2026-04-28T13:47:47Z</time></trkpt><trkpt lat="34.5956147426107" lon="-5.089089100128661"><ele>424.6</ele><time>2026-04-28T13:47:48Z</time></trkpt><trkpt lat="34.59566365982702" lon="-5.088987832388813"><ele>424.8</ele><time>2026-04-28T13:47:49Z</time></trkpt><trkpt lat="34.595701439912" lon="-5.088860648094952"><ele>425.0</ele><time>2026-04-28T13:47:50Z</time></trkpt><trkpt lat="34.59573708205226" lon="-5.0887132539364766"><ele>427.75</ele><time>2026-04-28T13:47:51Z</time></trkpt><trkpt lat="34.59578261684431" lon="-5.0885518589090095"><ele>430.5</ele><time>2026-04-28T13:47:52Z</time></trkpt><trkpt lat="34.59583156026396" lon="-5.088385243350725"><ele>433.25</ele><time>2026-04-28T13:47:53Z</time></trkpt><trkpt lat="34.59587284938047" lon="-5.088219540424803"><ele>436.0</ele><time>2026-04-28T13:47:54Z</time></trkpt><trkpt lat="34.59591853982003" lon="-5.088040894069769"><ele>438.0</ele><time>2026-04-28T13:47:55Z</time></trkpt><trkpt lat="34.59597128461442" lon="-5.087859637040195"><ele>440.0</ele><time>2026-04-28T13:47:56Z</time></trkpt><trkpt lat="34.596033152036085" lon="-5.087675156911355"><ele>442.0</ele><time>2026-04-28T13:47:57Z</time></trkpt><trkpt lat="34.596089011582926" lon="-5.08748522668217"><ele>442.6666666666667</ele><time>2026-04-28T13:47:58Z</time></trkpt><trkpt lat="34.59613581360239" lon="-5.087286685396273"><ele>443.33333333333337</ele><time>2026-04-28T13:47:59Z</time></trkpt><trkpt lat="34.59617880244095" lon="-5.08708374493093"><ele>444.0</ele><time>2026-04-28T13:48:00Z</time></trkpt><trkpt lat="34.596210612381135" lon="-5.086885002030805"><ele>450.33333333333337</ele><time>2026-04-28T13:48:01Z</time></trkpt><trkpt lat="34.59622988386776" lon="-5.086679870613328"><ele>456.6666666666667</ele><time>2026-04-28T13:48:02Z</time></trkpt><trkpt lat="34.596242023354584" lon="-5.086464281061315"><ele>463.0</ele><time>2026-04-28T13:48:03Z</time></trkpt><trkpt lat="34.59623630980542" lon="-5.086248108806623"><ele>461.33333333333337</ele><time>2026-04-28T13:48:04Z</time></trkpt><trkpt lat="34.596222752375205" lon="-5.086037760322358"><ele>459.66666666666663</ele><time>2026-04-28T13:48:05Z</time></trkpt><trkpt lat="34.59619821589924" lon="-5.085826587081333"><ele>458.0</ele><time>2026-04-28T13:48:06Z</time></trkpt><trkpt lat="34.596128425336964" lon="-5.0856378053733104"><ele>458.0</ele><time>2026-04-28T13:48:07Z</time></trkpt><trkpt lat="34.596024755607885" lon="-5.085458145617147"><ele>458.0</ele><time>2026-04-28T13:48:08Z</time></trkpt><trkpt lat="34.5959182323757" lon="-5.085254955290535"><ele>458.0</ele><time>2026-04-28T13:48:09Z</time></trkpt><trkpt lat="34.59576963498916" lon="-5.085079196102217"><ele>461.66666666666663</ele><time>2026-04-28T13:48:10Z</time></trkpt><trkpt lat="34.59563145506956" lon="-5.0848956477744425"><ele>465.33333333333337</ele><time>2026-04-28T13:48:11Z</time></trkpt><trkpt lat="34.59550325194464" lon="-5.084709521187002"><ele>469.0</ele><time>2026-04-28T13:48:12Z</time></trkpt><trkpt lat="34.59538583920285" lon="-5.0845217444310435"><ele>466.33333333333337</ele><time>2026-04-28T13:48:13Z</time></trkpt><trkpt lat="34.59528323300835" lon="-5.084339314888445"><ele>463.66666666666663</ele><time>2026-04-28T13:48:14Z</time></trkpt><trkpt lat="34.59520659207723" lon="-5.084157606416099"><ele>461.0</ele><time>2026-04-28T13:48:15Z</time></trkpt><trkpt lat="34.59517262309448" lon="-5.083986594625874"><ele>461.0</ele><time>2026-04-28T13:48:16Z</time></trkpt><trkpt lat="34.595172636850656" lon="-5.083820552052055"><ele>461.0</ele><time>2026-04-28T13:48:17Z</time></trkpt><trkpt lat="34.59519262062704" lon="-5.0836478557401685"><ele>461.0</ele><time>2026-04-28T13:48:18Z</time></trkpt><trkpt lat="34.595206509809714" lon="-5.083466167412793"><ele>461.0</ele><time>2026-04-28T13:48:19Z</time></trkpt><trkpt lat="34.595218793511734" lon="-5.08329679681441"><ele>462.8</ele><time>2026-04-28T13:48:20Z</time></trkpt><trkpt lat="34.59523360083322" lon="-5.083148881186766"><ele>464.6</ele><time>2026-04-28T13:48:21Z</time></trkpt><trkpt lat="34.59524166764302" lon="-5.083017451932046"><ele>466.4</ele><time>2026-04-28T13:48:22Z</time></trkpt><trkpt lat="34.595247277462605" lon="-5.082894885642132"><ele>468.2</ele><time>2026-04-28T13:48:23Z</time></trkpt><trkpt lat="34.595252084228136" lon="-5.082781468387964"><ele>470.0</ele><time>2026-04-28T13:48:24Z</time></trkpt><trkpt lat="34.59527154232845" lon="-5.082667587633578"><ele>470.0</ele><time>2026-04-28T13:48:25Z</time></trkpt><trkpt lat="34.59526099874805" lon="-5.082555740875464"><ele>470.0</ele><time>2026-04-28T13:48:26Z</time></trkpt><trkpt lat="34.59523379823539" lon="-5.082445289813668"><ele>470.0</ele><time>2026-04-28T13:48:27Z</time></trkpt><trkpt lat="34.595175228708605" lon="-5.08235013430895"><ele>470.0</ele><time>2026-04-28T13:48:28Z</time></trkpt><trkpt lat="34.59508881886517" lon="-5.082291731891624"><ele>470.0</ele><time>2026-04-28T13:48:29Z</time></trkpt><trkpt lat="34.5949919753581" lon="-5.082262897066155"><ele>473.75</ele><time>2026-04-28T13:48:30Z</time></trkpt><trkpt lat="34.594880238627916" lon="-5.082247851382758"><ele>477.5</ele><time>2026-04-28T13:48:31Z</time></trkpt><trkpt lat="34.59475010728377" lon="-5.082236787451027"><ele>481.25</ele><time>2026-04-28T13:48:32Z</time></trkpt><trkpt lat="34.594604002956274" lon="-5.082230894281778"><ele>485.0</ele><time>2026-04-28T13:48:33Z</time></trkpt><trkpt lat="34.59444745404309" lon="-5.082239179626742"><ele>485.0</ele><time>2026-04-28T13:48:34Z</time></trkpt><trkpt lat="34.59428504065432" lon="-5.082250091809183"><ele>485.0</ele><time>2026-04-28T13:48:35Z</time></trkpt><trkpt lat="34.59412867086938" lon="-5.082248813318622"><ele>485.0</ele><time>2026-04-28T13:48:36Z</time></trkpt><trkpt lat="34.593981363381836" lon="-5.082252831760491"><ele>485.0</ele><time>2026-04-28T13:48:37Z</time></trkpt><trkpt lat="34.593848362935866" lon="-5.082257081608548"><ele>485.0</ele><time>2026-04-28T13:48:38Z</time></trkpt><trkpt lat="34.59372232925373" lon="-5.082238853435903"><ele>485.0</ele><time>2026-04-28T13:48:39Z</time></trkpt><trkpt lat="34.593591662190164" lon="-5.082184183061405"><ele>485.0</ele><time>2026-04-28T13:48:40Z</time></trkpt><trkpt lat="34.59345743182646" lon="-5.082093913605604"><ele>482.0</ele><time>2026-04-28T13:48:41Z</time></trkpt><trkpt lat="34.59331363889476" lon="-5.08198827688612"><ele>479.0</ele><time>2026-04-28T13:48:42Z</time></trkpt><trkpt lat="34.593162104537825" lon="-5.081883163184256"><ele>476.0</ele><time>2026-04-28T13:48:43Z</time></trkpt><trkpt lat="34.59300070404383" lon="-5.0817874155336185"><ele>476.0</ele><time>2026-04-28T13:48:44Z</time></trkpt><trkpt lat="34.59285336616176" lon="-5.081705355501585"><ele>476.0</ele><time>2026-04-28T13:48:45Z</time></trkpt><trkpt lat="34.592719974011274" lon="-5.081633477774966"><ele>476.0</ele><time>2026-04-28T13:48:46Z</time></trkpt><trkpt lat="34.59259371097175" lon="-5.081558926826145"><ele>476.0</ele><time>2026-04-28T13:48:47Z</time></trkpt><trkpt lat="34.592476228335904" lon="-5.081473534690732"><ele>478.25</ele><time>2026-04-28T13:48:48Z</time></trkpt><trkpt lat="34.59237758871206" lon="-5.081373608842766"><ele>480.5</ele><time>2026-04-28T13:48:49Z</time></trkpt><trkpt lat="34.59229730806285" lon="-5.0812511322433345"><ele>482.75</ele><time>2026-04-28T13:48:50Z</time></trkpt><trkpt lat="34.592238243798604" lon="-5.081104195159815"><ele>485.0</ele><time>2026-04-28T13:48:51Z</time></trkpt><trkpt lat="34.59219080093154" lon="-5.0809380458461435"><ele>487.66666666666663</ele><time>2026-04-28T13:48:52Z</time></trkpt><trkpt lat="34.59214552664593" lon="-5.080764659198969"><ele>490.33333333333337</ele><time>2026-04-28T13:48:53Z</time></trkpt><trkpt lat="34.592095436851665" lon="-5.080589448103523"><ele>493.0</ele><time>2026-04-28T13:48:54Z</time></trkpt><trkpt lat="34.59204959667436" lon="-5.080413858235339"><ele>493.0</ele><time>2026-04-28T13:48:55Z</time></trkpt><trkpt lat="34.59201997296374" lon="-5.080243626349034"><ele>493.0</ele><time>2026-04-28T13:48:56Z</time></trkpt><trkpt lat="34.59201599964854" lon="-5.080089003253883"><ele>493.0</ele><time>2026-04-28T13:48:57Z</time></trkpt><trkpt lat="34.592044734811985" lon="-5.079946433379409"><ele>493.0</ele><time>2026-04-28T13:48:58Z</time></trkpt><trkpt lat="34.592103809989204" lon="-5.079811037191136"><ele>491.5</ele><time>2026-04-28T13:48:59Z</time></trkpt><trkpt lat="34.59218613557154" lon="-5.07966836435321"><ele>490.0</ele><time>2026-04-28T13:49:00Z</time></trkpt><trkpt lat="34.59227751569692" lon="-5.079525414616124"><ele>488.5</ele><time>2026-04-28T13:49:01Z</time></trkpt><trkpt lat="34.59236800912451" lon="-5.079372950110768"><ele>487.0</ele><time>2026-04-28T13:49:02Z</time></trkpt><trkpt lat="34.592462959601846" lon="-5.079214532507465"><ele>483.0</ele><time>2026-04-28T13:49:03Z</time></trkpt><trkpt lat="34.59253417183028" lon="-5.079035632756445"><ele>479.0</ele><time>2026-04-28T13:49:04Z</time></trkpt><trkpt lat="34.592621253689074" lon="-5.078852151476425"><ele>475.0</ele><time>2026-04-28T13:49:05Z</time></trkpt><trkpt lat="34.59268190335241" lon="-5.078646939137249"><ele>475.0</ele><time>2026-04-28T13:49:06Z</time></trkpt><trkpt lat="34.59275676152497" lon="-5.078457271700475"><ele>475.0</ele><time>2026-04-28T13:49:07Z</time></trkpt><trkpt lat="34.592814052809345" lon="-5.078278172473645"><ele>475.0</ele><time>2026-04-28T13:49:08Z</time></trkpt><trkpt lat="34.59286229220324" lon="-5.0781088657081295"><ele>481.75</ele><time>2026-04-28T13:49:09Z</time></trkpt><trkpt lat="34.59289967654713" lon="-5.077943954556234"><ele>488.5</ele><time>2026-04-28T13:49:10Z</time></trkpt><trkpt lat="34.592920463501926" lon="-5.077785086360583"><ele>495.25</ele><time>2026-04-28T13:49:11Z</time></trkpt><trkpt lat="34.59291791199784" lon="-5.077603637238751"><ele>502.0</ele><time>2026-04-28T13:49:12Z</time></trkpt><trkpt lat="34.592897709799004" lon="-5.077394648275465"><ele>502.0</ele><time>2026-04-28T13:49:13Z</time></trkpt><trkpt lat="34.59288203288246" lon="-5.077163121720972"><ele>502.0</ele><time>2026-04-28T13:49:14Z</time></trkpt><trkpt lat="34.59286465959992" lon="-5.076926239864291"><ele>502.0</ele><time>2026-04-28T13:49:15Z</time></trkpt><trkpt lat="34.59285818499361" lon="-5.076683624795986"><ele>503.33333333333337</ele><time>2026-04-28T13:49:16Z</time></trkpt><trkpt lat="34.59284930126517" lon="-5.07642449136186"><ele>504.66666666666663</ele><time>2026-04-28T13:49:17Z</time></trkpt><trkpt lat="34.59283008263571" lon="-5.076159249736211"><ele>506.0</ele><time>2026-04-28T13:49:18Z</time></trkpt><trkpt lat="34.5928016954553" lon="-5.07589659040393"><ele>497.66666666666663</ele><time>2026-04-28T13:49:19Z</time></trkpt><trkpt lat="34.59277643900629" lon="-5.075650123724895"><ele>489.33333333333337</ele><time>2026-04-28T13:49:20Z</time></trkpt><trkpt lat="34.59273921994147" lon="-5.075414672175522"><ele>481.0</ele><time>2026-04-28T13:49:21Z</time></trkpt><trkpt lat="34.59270206683909" lon="-5.075187952074364"><ele>481.0</ele><time>2026-04-28T13:49:22Z</time></trkpt><trkpt lat="34.592658979341245" lon="-5.074965457259056"><ele>481.0</ele><time>2026-04-28T13:49:23Z</time></trkpt><trkpt lat="34.59261151926411" lon="-5.074737681197744"><ele>481.0</ele><time>2026-04-28T13:49:24Z</time></trkpt><trkpt lat="34.59254074101159" lon="-5.074517567527014"><ele>484.33333333333337</ele><time>2026-04-28T13:49:25Z</time></trkpt><trkpt lat="34.5924872033809" lon="-5.0743023400917835"><ele>487.66666666666663</ele><time>2026-04-28T13:49:26Z</time></trkpt><trkpt lat="34.59243002916367" lon="-5.074090154941014"><ele>491.0</ele><time>2026-04-28T13:49:27Z</time></trkpt><trkpt lat="34.592356014956785" lon="-5.073891590493858"><ele>498.3333333333333</ele><time>2026-04-28T13:49:28Z</time></trkpt><trkpt lat="34.59225584513706" lon="-5.073703854316072"><ele>505.66666666666663</ele><time>2026-04-28T13:49:29Z</time></trkpt><trkpt lat="34.59213987347161" lon="-5.073522815888777"><ele>513.0</ele><time>2026-04-28T13:49:30Z</time></trkpt><trkpt lat="34.592061800042806" lon="-5.073310807870214"><ele>511.66666666666663</ele><time>2026-04-28T13:49:31Z</time></trkpt><trkpt lat="34.59201776766873" lon="-5.073086204750889"><ele>510.3333333333333</ele><time>2026-04-28T13:49:32Z</time></trkpt><trkpt lat="34.59193606778167" lon="-5.07288726024083"><ele>509.0</ele><time>2026-04-28T13:49:33Z</time></trkpt><trkpt lat="34.59185436624213" lon="-5.072701931584522"><ele>509.0</ele><time>2026-04-28T13:49:34Z</time></trkpt><trkpt lat="34.591766796675344" lon="-5.072533053039099"><ele>509.0</ele><time>2026-04-28T13:49:35Z</time></trkpt><trkpt lat="34.591667002963646" lon="-5.072397043397166"><ele>509.0</ele><time>2026-04-28T13:49:36Z</time></trkpt><trkpt lat="34.59152902591561" lon="-5.07230851713532"><ele>510.25</ele><time>2026-04-28T13:49:37Z</time></trkpt><trkpt lat="34.591380064310854" lon="-5.072241620012006"><ele>511.5</ele><time>2026-04-28T13:49:38Z</time></trkpt><trkpt lat="34.59125477042256" lon="-5.072163757344594"><ele>512.75</ele><time>2026-04-28T13:49:39Z</time></trkpt><trkpt lat="34.5911391174059" lon="-5.072097186736759"><ele>514.0</ele><time>2026-04-28T13:49:40Z</time></trkpt><trkpt lat="34.59103725665686" lon="-5.072000603471593"><ele>514.0</ele><time>2026-04-28T13:49:41Z</time></trkpt><trkpt lat="34.590945518831624" lon="-5.071865792733407"><ele>514.0</ele><time>2026-04-28T13:49:42Z</time></trkpt><trkpt lat="34.59085402334247" lon="-5.071721113336233"><ele>514.0</ele><time>2026-04-28T13:49:43Z</time></trkpt><trkpt lat="34.59077414068201" lon="-5.071589185844673"><ele>514.0</ele><time>2026-04-28T13:49:44Z</time></trkpt><trkpt lat="34.5907069884589" lon="-5.071467699725887"><ele>517.6666666666667</ele><time>2026-04-28T13:49:45Z</time></trkpt><trkpt lat="34.59065435932896" lon="-5.071355456416951"><ele>521.3333333333334</ele><time>2026-04-28T13:49:46Z</time></trkpt><trkpt lat="34.590607390469756" lon="-5.0712505197667195"><ele>525.0</ele><time>2026-04-28T13:49:47Z</time></trkpt><trkpt lat="34.59055101610491" lon="-5.071161493701999"><ele>528.6666666666666</ele><time>2026-04-28T13:49:48Z</time></trkpt><trkpt lat="34.590491920171864" lon="-5.07110781307129"><ele>532.3333333333333</ele><time>2026-04-28T13:49:49Z</time></trkpt><trkpt lat="34.59043068474309" lon="-5.071074158448263"><ele>536.0</ele><time>2026-04-28T13:49:51Z</time></trkpt><trkpt lat="34.590513559097815" lon="-5.07114433271502"><ele>536.0</ele><time>2026-04-28T13:49:56Z</time></trkpt><trkpt lat="34.59059226106653" lon="-5.071200503740942"><ele>536.0</ele><time>2026-04-28T13:49:57Z</time></trkpt><trkpt lat="34.59063881256424" lon="-5.071299718779734"><ele>536.0</ele><time>2026-04-28T13:49:58Z</time></trkpt><trkpt lat="34.590685495260885" lon="-5.07138259294205"><ele>536.0</ele><time>2026-04-28T13:49:59Z</time></trkpt><trkpt lat="34.590728513003015" lon="-5.0714619536245165"><ele>536.0</ele><time>2026-04-28T13:50:00Z</time></trkpt><trkpt lat="34.59077387614495" lon="-5.071541923744129"><ele>536.0</ele><time>2026-04-28T13:50:01Z</time></trkpt><trkpt lat="34.590819366272136" lon="-5.07161889483521"><ele>532.3333333333333</ele><time>2026-04-28T13:50:02Z</time></trkpt><trkpt lat="34.59087290452215" lon="-5.071709771157428"><ele>528.6666666666666</ele><time>2026-04-28T13:50:03Z</time></trkpt><trkpt lat="34.590922469552986" lon="-5.07179945229487"><ele>525.0</ele><time>2026-04-28T13:50:04Z</time></trkpt><trkpt lat="34.59097273491098" lon="-5.071880848953404"><ele>521.3333333333334</ele><time>2026-04-28T13:50:05Z</time></trkpt><trkpt lat="34.59102639888729" lon="-5.071948782441815"><ele>517.6666666666667</ele><time>2026-04-28T13:50:06Z</time></trkpt><trkpt lat="34.591085122852505" lon="-5.072006252623043"><ele>514.0</ele><time>2026-04-28T13:50:07Z</time></trkpt><trkpt lat="34.591140824573266" lon="-5.0720599750041515"><ele>517.1666666666667</ele><time>2026-04-28T13:50:08Z</time></trkpt><trkpt lat="34.59118971773901" lon="-5.072111417002233"><ele>520.3333333333334</ele><time>2026-04-28T13:50:09Z</time></trkpt><trkpt lat="34.59126088165821" lon="-5.072178187184764"><ele>523.5</ele><time>2026-04-28T13:50:11Z</time></trkpt><trkpt lat="34.59131920375426" lon="-5.072218870053631"><ele>526.6666666666666</ele><time>2026-04-28T13:50:13Z</time></trkpt><trkpt lat="34.59140110535615" lon="-5.072217838473749"><ele>529.8333333333333</ele><time>2026-04-28T13:50:45Z</time></trkpt><trkpt lat="34.59129975097859" lon="-5.07220155670304"><ele>533.0</ele><time>2026-04-28T13:50:59Z</time></trkpt><trkpt lat="34.59117870117892" lon="-5.072125710681232"><ele>528.25</ele><time>2026-04-28T13:51:00Z</time></trkpt><trkpt lat="34.59109211698409" lon="-5.0720461722888865"><ele>523.5</ele><time>2026-04-28T13:51:01Z</time></trkpt><trkpt lat="34.59100682495753" lon="-5.071936382756295"><ele>518.75</ele><time>2026-04-28T13:51:02Z</time></trkpt><trkpt lat="34.59092106883283" lon="-5.07179783273161"><ele>514.0</ele><time>2026-04-28T13:51:03Z</time></trkpt><trkpt lat="34.59082735456187" lon="-5.071643188584219"><ele>521.3333333333334</ele><time>2026-04-28T13:51:04Z</time></trkpt><trkpt lat="34.590737259227495" lon="-5.071487500533812"><ele>528.6666666666666</ele><time>2026-04-28T13:51:05Z</time></trkpt><trkpt lat="34.59063846407172" lon="-5.071315686558661"><ele>536.0</ele><time>2026-04-28T13:51:06Z</time></trkpt><trkpt lat="34.59053536226035" lon="-5.071151489437981"><ele>536.0</ele><time>2026-04-28T13:51:07Z</time></trkpt><trkpt lat="34.5904178900891" lon="-5.071001607925082"><ele>536.0</ele><time>2026-04-28T13:51:08Z</time></trkpt><trkpt lat="34.59027224555047" lon="-5.070880684923346"><ele>536.0</ele><time>2026-04-28T13:51:09Z</time></trkpt><trkpt lat="34.59013685822552" lon="-5.070741045420161"><ele>539.3333333333333</ele><time>2026-04-28T13:51:10Z</time></trkpt><trkpt lat="34.589980638183846" lon="-5.070639874473507"><ele>542.6666666666666</ele><time>2026-04-28T13:51:11Z</time></trkpt><trkpt lat="34.58983000018083" lon="-5.070547759033693"><ele>546.0</ele><time>2026-04-28T13:51:12Z</time></trkpt><trkpt lat="34.58969182040169" lon="-5.070451720412698"><ele>546.0</ele><time>2026-04-28T13:51:13Z</time></trkpt><trkpt lat="34.58957284239008" lon="-5.070352039081024"><ele>546.0</ele><time>2026-04-28T13:51:14Z</time></trkpt><trkpt lat="34.589462529125285" lon="-5.070243689740615"><ele>546.0</ele><time>2026-04-28T13:51:15Z</time></trkpt><trkpt lat="34.58936236102236" lon="-5.07011579948973"><ele>546.0</ele><time>2026-04-28T13:51:16Z</time></trkpt><trkpt lat="34.58927446908154" lon="-5.069959109154472"><ele>545.3333333333334</ele><time>2026-04-28T13:51:17Z</time></trkpt><trkpt lat="34.58920327604546" lon="-5.0697743457955236"><ele>544.6666666666667</ele><time>2026-04-28T13:51:18Z</time></trkpt><trkpt lat="34.58914368952228" lon="-5.069575520280363"><ele>544.0</ele><time>2026-04-28T13:51:19Z</time></trkpt><trkpt lat="34.58907381989817" lon="-5.069364276559637"><ele>544.0</ele><time>2026-04-28T13:51:20Z</time></trkpt><trkpt lat="34.589000100306166" lon="-5.069163544574359"><ele>544.0</ele><time>2026-04-28T13:51:21Z</time></trkpt><trkpt lat="34.588934668599165" lon="-5.068985329600101"><ele>544.0</ele><time>2026-04-28T13:51:22Z</time></trkpt><trkpt lat="34.58887172928888" lon="-5.068814238553098"><ele>545.75</ele><time>2026-04-28T13:51:23Z</time></trkpt><trkpt lat="34.58880990435169" lon="-5.068649766042423"><ele>547.5</ele><time>2026-04-28T13:51:24Z</time></trkpt><trkpt lat="34.58875498233962" lon="-5.0684936398437985"><ele>549.25</ele><time>2026-04-28T13:51:25Z</time></trkpt><trkpt lat="34.58873636311163" lon="-5.068348331038406"><ele>551.0</ele><time>2026-04-28T13:51:26Z</time></trkpt><trkpt lat="34.588758330961824" lon="-5.068205480792282"><ele>551.0</ele><time>2026-04-28T13:51:27Z</time></trkpt><trkpt lat="34.58878536066638" lon="-5.068059505676282"><ele>551.0</ele><time>2026-04-28T13:51:28Z</time></trkpt><trkpt lat="34.58886539278458" lon="-5.067917332635214"><ele>551.0</ele><time>2026-04-28T13:51:29Z</time></trkpt><trkpt lat="34.58896499767766" lon="-5.067775991839187"><ele>551.0</ele><time>2026-04-28T13:51:30Z</time></trkpt><trkpt lat="34.589078599470426" lon="-5.067629699097021"><ele>551.0</ele><time>2026-04-28T13:51:31Z</time></trkpt><trkpt lat="34.5891962278728" lon="-5.067472264765407"><ele>551.0</ele><time>2026-04-28T13:51:32Z</time></trkpt><trkpt lat="34.58931260435416" lon="-5.0672895823961674"><ele>551.0</ele><time>2026-04-28T13:51:33Z</time></trkpt><trkpt lat="34.589431668039445" lon="-5.067092838612926"><ele>554.3333333333333</ele><time>2026-04-28T13:51:34Z</time></trkpt><trkpt lat="34.58954157118714" lon="-5.0668813378303685"><ele>557.6666666666666</ele><time>2026-04-28T13:51:35Z</time></trkpt><trkpt lat="34.589644813283165" lon="-5.066658512958644"><ele>561.0</ele><time>2026-04-28T13:51:36Z</time></trkpt><trkpt lat="34.58973556533072" lon="-5.06643578597985"><ele>561.3333333333334</ele><time>2026-04-28T13:51:37Z</time></trkpt><trkpt lat="34.58982158298382" lon="-5.066240886949818"><ele>561.6666666666667</ele><time>2026-04-28T13:51:38Z</time></trkpt><trkpt lat="34.589897511897156" lon="-5.066060295405528"><ele>562.0</ele><time>2026-04-28T13:51:39Z</time></trkpt><trkpt lat="34.58997411084565" lon="-5.065884670090236"><ele>562.0</ele><time>2026-04-28T13:51:40Z</time></trkpt><trkpt lat="34.59005260876335" lon="-5.065699632291865"><ele>562.0</ele><time>2026-04-28T13:51:41Z</time></trkpt><trkpt lat="34.5901534612233" lon="-5.065529530030473"><ele>562.0</ele><time>2026-04-28T13:51:42Z</time></trkpt><trkpt lat="34.590282788975024" lon="-5.065379797544702"><ele>566.0</ele><time>2026-04-28T13:51:43Z</time></trkpt><trkpt lat="34.590412219311226" lon="-5.065245494899866"><ele>570.0</ele><time>2026-04-28T13:51:44Z</time></trkpt><trkpt lat="34.5905266194367" lon="-5.065124477486611"><ele>574.0</ele><time>2026-04-28T13:51:44.999Z</time></trkpt><trkpt lat="34.590627111791925" lon="-5.065010874069962"><ele>573.0</ele><time>2026-04-28T13:51:45.999Z</time></trkpt><trkpt lat="34.59072920405058" lon="-5.0648994346456515"><ele>572.0</ele><time>2026-04-28T13:51:46.999Z</time></trkpt><trkpt lat="34.590824161514625" lon="-5.0647926308718745"><ele>571.0</ele><time>2026-04-28T13:51:47.999Z</time></trkpt><trkpt lat="34.590887146037204" lon="-5.064654692059623"><ele>570.0</ele><time>2026-04-28T13:51:49Z</time></trkpt><trkpt lat="34.5909225882861" lon="-5.0644926792200415"><ele>570.0</ele><time>2026-04-28T13:51:50Z</time></trkpt><trkpt lat="34.59094976548851" lon="-5.064331549745557"><ele>570.0</ele><time>2026-04-28T13:51:51Z</time></trkpt><trkpt lat="34.59096028061484" lon="-5.06417874905163"><ele>570.0</ele><time>2026-04-28T13:51:52Z</time></trkpt><trkpt lat="34.59096102478567" lon="-5.064023568441013"><ele>570.0</ele><time>2026-04-28T13:51:53Z</time></trkpt><trkpt lat="34.59093360571223" lon="-5.063888227777974"><ele>571.75</ele><time>2026-04-28T13:51:54Z</time></trkpt><trkpt lat="34.59088296179721" lon="-5.063726273150291"><ele>573.5</ele><time>2026-04-28T13:51:55Z</time></trkpt><trkpt lat="34.590810079488584" lon="-5.063572131485959"><ele>575.25</ele><time>2026-04-28T13:51:56Z</time></trkpt><trkpt lat="34.590731253250226" lon="-5.063409361614677"><ele>577.0</ele><time>2026-04-28T13:51:57Z</time></trkpt><trkpt lat="34.590629110068356" lon="-5.063274198966505"><ele>580.0</ele><time>2026-04-28T13:51:58Z</time></trkpt><trkpt lat="34.59052663759365" lon="-5.063142667075552"><ele>583.0</ele><time>2026-04-28T13:51:59Z</time></trkpt><trkpt lat="34.59042592802794" lon="-5.062989909183393"><ele>586.0</ele><time>2026-04-28T13:52:00Z</time></trkpt><trkpt lat="34.59032991538552" lon="-5.0628260863901104"><ele>577.6666666666667</ele><time>2026-04-28T13:52:01Z</time></trkpt><trkpt lat="34.59023770319562" lon="-5.062661601514028"><ele>569.3333333333334</ele><time>2026-04-28T13:52:02Z</time></trkpt><trkpt lat="34.5901279921031" lon="-5.062512977778882"><ele>561.0</ele><time>2026-04-28T13:52:03Z</time></trkpt><trkpt lat="34.590033501508074" lon="-5.062352744765516"><ele>561.0</ele><time>2026-04-28T13:52:04Z</time></trkpt><trkpt lat="34.58993865878133" lon="-5.062190941198866"><ele>561.0</ele><time>2026-04-28T13:52:05Z</time></trkpt><trkpt lat="34.589853995258224" lon="-5.062019398841741"><ele>561.0</ele><time>2026-04-28T13:52:06Z</time></trkpt><trkpt lat="34.58977515430825" lon="-5.061848309640668"><ele>561.0</ele><time>2026-04-28T13:52:07Z</time></trkpt><trkpt lat="34.58970719388375" lon="-5.061665992259304"><ele>561.0</ele><time>2026-04-28T13:52:08Z</time></trkpt><trkpt lat="34.58965597747055" lon="-5.06148241356996"><ele>561.0</ele><time>2026-04-28T13:52:09Z</time></trkpt><trkpt lat="34.589632877969784" lon="-5.061297677475144"><ele>560.75</ele><time>2026-04-28T13:52:10Z</time></trkpt><trkpt lat="34.58958895737527" lon="-5.061139738470575"><ele>560.5</ele><time>2026-04-28T13:52:11Z</time></trkpt><trkpt lat="34.58960194839776" lon="-5.060988758957952"><ele>560.25</ele><time>2026-04-28T13:52:12Z</time></trkpt><trkpt lat="34.58959550829983" lon="-5.060859490630985"><ele>560.0</ele><time>2026-04-28T13:52:13Z</time></trkpt><trkpt lat="34.58956084113529" lon="-5.060747571895619"><ele>559.0</ele><time>2026-04-28T13:52:14Z</time></trkpt><trkpt lat="34.589539960695866" lon="-5.060626829436262"><ele>558.0</ele><time>2026-04-28T13:52:15Z</time></trkpt><trkpt lat="34.58950113695282" lon="-5.060513172570386"><ele>557.0</ele><time>2026-04-28T13:52:16Z</time></trkpt><trkpt lat="34.58947905642564" lon="-5.060378415278482"><ele>556.0</ele><time>2026-04-28T13:52:17Z</time></trkpt><trkpt lat="34.58942518914699" lon="-5.060239432526925"><ele>555.0</ele><time>2026-04-28T13:52:18Z</time></trkpt><trkpt lat="34.58936903870186" lon="-5.060091558024435"><ele>551.5</ele><time>2026-04-28T13:52:19Z</time></trkpt><trkpt lat="34.58931031345149" lon="-5.059938046758897"><ele>548.0</ele><time>2026-04-28T13:52:20Z</time></trkpt><trkpt lat="34.58925438577187" lon="-5.059787859022433"><ele>544.5</ele><time>2026-04-28T13:52:21Z</time></trkpt><trkpt lat="34.58919683609084" lon="-5.059644317531062"><ele>541.0</ele><time>2026-04-28T13:52:22Z</time></trkpt><trkpt lat="34.58913576409326" lon="-5.059506746490859"><ele>541.0</ele><time>2026-04-28T13:52:23Z</time></trkpt><trkpt lat="34.58907858842097" lon="-5.0593996838474276"><ele>541.0</ele><time>2026-04-28T13:52:24Z</time></trkpt><trkpt lat="34.58902793811869" lon="-5.059320469404946"><ele>541.0</ele><time>2026-04-28T13:52:25Z</time></trkpt><trkpt lat="34.5889712548478" lon="-5.059259279669388"><ele>541.0</ele><time>2026-04-28T13:52:26Z</time></trkpt><trkpt lat="34.58888307512392" lon="-5.059228860836263"><ele>541.0</ele><time>2026-04-28T13:52:27Z</time></trkpt><trkpt lat="34.588774510468454" lon="-5.0592177054780505"><ele>539.8</ele><time>2026-04-28T13:52:28Z</time></trkpt><trkpt lat="34.58866345979873" lon="-5.059190792377224"><ele>538.6</ele><time>2026-04-28T13:52:29Z</time></trkpt><trkpt lat="34.588557378564445" lon="-5.059152280640859"><ele>537.4</ele><time>2026-04-28T13:52:30Z</time></trkpt><trkpt lat="34.588456199918475" lon="-5.059104819247032"><ele>536.2</ele><time>2026-04-28T13:52:31Z</time></trkpt><trkpt lat="34.588351204077014" lon="-5.05905937959639"><ele>535.0</ele><time>2026-04-28T13:52:32Z</time></trkpt><trkpt lat="34.58824269029415" lon="-5.059019131227854"><ele>535.0</ele><time>2026-04-28T13:52:33Z</time></trkpt><trkpt lat="34.588128823711756" lon="-5.058988402095582"><ele>535.0</ele><time>2026-04-28T13:52:34Z</time></trkpt><trkpt lat="34.588016829124115" lon="-5.058960793001871"><ele>535.0</ele><time>2026-04-28T13:52:35Z</time></trkpt><trkpt lat="34.58790281147946" lon="-5.058914847814432"><ele>535.0</ele><time>2026-04-28T13:52:36Z</time></trkpt><trkpt lat="34.58778054592172" lon="-5.058870047279709"><ele>531.5</ele><time>2026-04-28T13:52:37Z</time></trkpt><trkpt lat="34.58763743135724" lon="-5.058824536477762"><ele>528.0</ele><time>2026-04-28T13:52:38Z</time></trkpt><trkpt lat="34.587506226503386" lon="-5.058777242410784"><ele>524.5</ele><time>2026-04-28T13:52:39Z</time></trkpt><trkpt lat="34.58738750101703" lon="-5.0587196310432665"><ele>521.0</ele><time>2026-04-28T13:52:40Z</time></trkpt><trkpt lat="34.58728449333611" lon="-5.058633147112182"><ele>521.0</ele><time>2026-04-28T13:52:41Z</time></trkpt><trkpt lat="34.58719333185827" lon="-5.05852812258867"><ele>521.0</ele><time>2026-04-28T13:52:42Z</time></trkpt><trkpt lat="34.58710791403305" lon="-5.0584336073340594"><ele>521.0</ele><time>2026-04-28T13:52:43Z</time></trkpt><trkpt lat="34.58701805282039" lon="-5.058380408028334"><ele>521.0</ele><time>2026-04-28T13:52:44Z</time></trkpt><trkpt lat="34.58695021039909" lon="-5.058335860926391"><ele>521.0</ele><time>2026-04-28T13:52:45Z</time></trkpt><trkpt lat="34.58689401401984" lon="-5.058291354808787"><ele>520.0</ele><time>2026-04-28T13:52:46Z</time></trkpt><trkpt lat="34.586779097228295" lon="-5.058274592272895"><ele>519.0</ele><time>2026-04-28T13:52:48Z</time></trkpt><trkpt lat="34.58666707179581" lon="-5.058279804921472"><ele>518.0</ele><time>2026-04-28T13:52:50Z</time></trkpt><trkpt lat="34.58655776417978" lon="-5.058299462865637"><ele>517.0</ele><time>2026-04-28T13:52:52Z</time></trkpt><trkpt lat="34.586460197976294" lon="-5.058323838715628"><ele>516.0</ele><time>2026-04-28T13:52:54Z</time></trkpt><trkpt lat="34.58635695696704" lon="-5.058344262941597"><ele>514.6</ele><time>2026-04-28T13:52:56Z</time></trkpt><trkpt lat="34.586261550337724" lon="-5.05832218787722"><ele>513.2</ele><time>2026-04-28T13:52:58Z</time></trkpt><trkpt lat="34.586168985209945" lon="-5.058250769052279"><ele>511.79999999999995</ele><time>2026-04-28T13:53:00Z</time></trkpt><trkpt lat="34.58606590224353" lon="-5.058176189434355"><ele>510.4</ele><time>2026-04-28T13:53:01.999Z</time></trkpt><trkpt lat="34.58600549426515" lon="-5.0581334948791525"><ele>509.0</ele><time>2026-04-28T13:53:02.999Z</time></trkpt><trkpt lat="34.58593564232021" lon="-5.058085740574092"><ele>508.66666666666663</ele><time>2026-04-28T13:53:03.999Z</time></trkpt><trkpt lat="34.58586540956822" lon="-5.058030201493129"><ele>508.3333333333333</ele><time>2026-04-28T13:53:04.999Z</time></trkpt><trkpt lat="34.58579612544293" lon="-5.057977608982714"><ele>508.0</ele><time>2026-04-28T13:53:05.999Z</time></trkpt><trkpt lat="34.58573063070976" lon="-5.05792905615318"><ele>507.66666666666663</ele><time>2026-04-28T13:53:06.999Z</time></trkpt><trkpt lat="34.58566703506474" lon="-5.0578854567331994"><ele>507.3333333333333</ele><time>2026-04-28T13:53:07.999Z</time></trkpt><trkpt lat="34.58560446609251" lon="-5.057841256371543"><ele>507.0</ele><time>2026-04-28T13:53:08.999Z</time></trkpt><trkpt lat="34.58554977660279" lon="-5.05778356408827"><ele>507.0</ele><time>2026-04-28T13:53:09.999Z</time></trkpt><trkpt lat="34.58550370170371" lon="-5.057715526733445"><ele>507.0</ele><time>2026-04-28T13:53:10.999Z</time></trkpt><trkpt lat="34.58546539966867" lon="-5.057639864274815"><ele>507.0</ele><time>2026-04-28T13:53:11.999Z</time></trkpt><trkpt lat="34.58541734449627" lon="-5.057577533188592"><ele>507.0</ele><time>2026-04-28T13:53:12.999Z</time></trkpt><trkpt lat="34.585378846386334" lon="-5.057506739911045"><ele>507.0</ele><time>2026-04-28T13:53:13.999Z</time></trkpt><trkpt lat="34.58530648105429" lon="-5.0573668643609695"><ele>507.0</ele><time>2026-04-28T13:53:15.999Z</time></trkpt><trkpt lat="34.585241188637546" lon="-5.057301773954392"><ele>506.0</ele><time>2026-04-28T13:53:16.999Z</time></trkpt><trkpt lat="34.58516493541138" lon="-5.057250468518617"><ele>505.0</ele><time>2026-04-28T13:53:17.999Z</time></trkpt><trkpt lat="34.58508146971296" lon="-5.057232938811867"><ele>504.0</ele><time>2026-04-28T13:53:18.999Z</time></trkpt><trkpt lat="34.584998516459606" lon="-5.057232430443964"><ele>503.0</ele><time>2026-04-28T13:53:19.999Z</time></trkpt><trkpt lat="34.58491509370512" lon="-5.057224096867703"><ele>502.0</ele><time>2026-04-28T13:53:20.999Z</time></trkpt><trkpt lat="34.584839187046896" lon="-5.057192237640647"><ele>501.0</ele><time>2026-04-28T13:53:21.999Z</time></trkpt><trkpt lat="34.584775235324955" lon="-5.057150009267571"><ele>501.0</ele><time>2026-04-28T13:53:22.999Z</time></trkpt><trkpt lat="34.58471333481445" lon="-5.0570994833708385"><ele>501.0</ele><time>2026-04-28T13:53:23.999Z</time></trkpt><trkpt lat="34.58465315162659" lon="-5.057033685530607"><ele>501.0</ele><time>2026-04-28T13:53:24.999Z</time></trkpt><trkpt lat="34.58460432801837" lon="-5.056951131056604"><ele>501.0</ele><time>2026-04-28T13:53:25.999Z</time></trkpt><trkpt lat="34.584577825928946" lon="-5.056858668731981"><ele>501.0</ele><time>2026-04-28T13:53:26.999Z</time></trkpt><trkpt lat="34.58453432086482" lon="-5.056779360788219"><ele>501.0</ele><time>2026-04-28T13:53:27.999Z</time></trkpt><trkpt lat="34.584500583498446" lon="-5.056693691975385"><ele>499.1666666666667</ele><time>2026-04-28T13:53:28.999Z</time></trkpt><trkpt lat="34.58446722872498" lon="-5.056603800021608"><ele>497.33333333333337</ele><time>2026-04-28T13:53:29.999Z</time></trkpt><trkpt lat="34.58443547426581" lon="-5.056510880791312"><ele>495.5</ele><time>2026-04-28T13:53:30.999Z</time></trkpt><trkpt lat="34.58440394524467" lon="-5.056419882838579"><ele>493.6666666666667</ele><time>2026-04-28T13:53:31.999Z</time></trkpt><trkpt lat="34.58438546619788" lon="-5.0563213953395545"><ele>491.83333333333337</ele><time>2026-04-28T13:53:32.999Z</time></trkpt><trkpt lat="34.58434193537327" lon="-5.056245668940039"><ele>490.0</ele><time>2026-04-28T13:53:33.999Z</time></trkpt><trkpt lat="34.584285247747744" lon="-5.056185575805549"><ele>490.0</ele><time>2026-04-28T13:53:34.999Z</time></trkpt><trkpt lat="34.584203676689086" lon="-5.05613324468074"><ele>490.0</ele><time>2026-04-28T13:53:35.999Z</time></trkpt><trkpt lat="34.584106304012145" lon="-5.056074094856055"><ele>490.0</ele><time>2026-04-28T13:53:36.999Z</time></trkpt><trkpt lat="34.58399619750956" lon="-5.056001907544087"><ele>490.0</ele><time>2026-04-28T13:53:37.999Z</time></trkpt><trkpt lat="34.58390820803086" lon="-5.055933855357051"><ele>490.0</ele><time>2026-04-28T13:53:38.999Z</time></trkpt><trkpt lat="34.58382239799916" lon="-5.055863397196938"><ele>490.0</ele><time>2026-04-28T13:53:39.999Z</time></trkpt><trkpt lat="34.58375057718373" lon="-5.055776691157971"><ele>490.0</ele><time>2026-04-28T13:53:40.999Z</time></trkpt><trkpt lat="34.5836967329701" lon="-5.055672670878268"><ele>490.0</ele><time>2026-04-28T13:53:41.999Z</time></trkpt><trkpt lat="34.583654477281215" lon="-5.05556227204693"><ele>490.0</ele><time>2026-04-28T13:53:42.999Z</time></trkpt><trkpt lat="34.583623847645114" lon="-5.055454945879819"><ele>490.0</ele><time>2026-04-28T13:53:43.999Z</time></trkpt><trkpt lat="34.583585258888945" lon="-5.055332378405802"><ele>486.75</ele><time>2026-04-28T13:53:44.999Z</time></trkpt><trkpt lat="34.58354055705026" lon="-5.0552277253219415"><ele>483.5</ele><time>2026-04-28T13:53:45.999Z</time></trkpt><trkpt lat="34.583487262912136" lon="-5.055105145990822"><ele>480.25</ele><time>2026-04-28T13:53:46.999Z</time></trkpt><trkpt lat="34.58341229345107" lon="-5.054974300538735"><ele>477.0</ele><time>2026-04-28T13:53:47.999Z</time></trkpt><trkpt lat="34.58332796599208" lon="-5.054848425919544"><ele>476.75</ele><time>2026-04-28T13:53:48.999Z</time></trkpt><trkpt lat="34.583247607332346" lon="-5.054728954002245"><ele>476.5</ele><time>2026-04-28T13:53:49.999Z</time></trkpt><trkpt lat="34.58316525507786" lon="-5.054609634802868"><ele>476.25</ele><time>2026-04-28T13:53:50.999Z</time></trkpt><trkpt lat="34.583083375512494" lon="-5.054499357181067"><ele>476.0</ele><time>2026-04-28T13:53:51.999Z</time></trkpt><trkpt lat="34.58301533277379" lon="-5.054379613676741"><ele>476.0</ele><time>2026-04-28T13:53:52.999Z</time></trkpt><trkpt lat="34.58297272280224" lon="-5.054249575866192"><ele>476.0</ele><time>2026-04-28T13:53:53.999Z</time></trkpt><trkpt lat="34.58293908460917" lon="-5.054105414340743"><ele>476.0</ele><time>2026-04-28T13:53:55Z</time></trkpt><trkpt lat="34.582904374656195" lon="-5.053948076508431"><ele>476.0</ele><time>2026-04-28T13:53:56Z</time></trkpt><trkpt lat="34.58287505571777" lon="-5.053791578355118"><ele>473.4</ele><time>2026-04-28T13:53:57Z</time></trkpt><trkpt lat="34.58284170977249" lon="-5.053652710049632"><ele>470.8</ele><time>2026-04-28T13:53:58Z</time></trkpt><trkpt lat="34.58279580020285" lon="-5.053529188802166"><ele>468.19999999999993</ele><time>2026-04-28T13:53:59Z</time></trkpt><trkpt lat="34.58274688328071" lon="-5.053426529272621"><ele>465.59999999999997</ele><time>2026-04-28T13:54:00Z</time></trkpt><trkpt lat="34.582698680938506" lon="-5.053326651100006"><ele>463.0</ele><time>2026-04-28T13:54:01Z</time></trkpt><trkpt lat="34.582655510110975" lon="-5.053232014698002"><ele>463.00000000000006</ele><time>2026-04-28T13:54:02Z</time></trkpt><trkpt lat="34.58260779318783" lon="-5.053147454008623"><ele>463.0</ele><time>2026-04-28T13:54:03Z</time></trkpt><trkpt lat="34.5825528526956" lon="-5.053093408212879"><ele>463.0</ele><time>2026-04-28T13:54:04Z</time></trkpt><trkpt lat="34.582476245974874" lon="-5.053048802991071"><ele>463.0</ele><time>2026-04-28T13:54:05Z</time></trkpt><trkpt lat="34.58238941888254" lon="-5.053014735818501"><ele>463.00000000000006</ele><time>2026-04-28T13:54:06Z</time></trkpt><trkpt lat="34.58229039887182" lon="-5.053013760763379"><ele>463.0</ele><time>2026-04-28T13:54:07Z</time></trkpt><trkpt lat="34.58218573216567" lon="-5.053002412511422"><ele>463.0</ele><time>2026-04-28T13:54:08Z</time></trkpt><trkpt lat="34.58206456580614" lon="-5.052977117662776"><ele>463.0</ele><time>2026-04-28T13:54:09Z</time></trkpt><trkpt lat="34.58195013091046" lon="-5.052968002909766"><ele>463.0</ele><time>2026-04-28T13:54:10Z</time></trkpt><trkpt lat="34.581841854871634" lon="-5.052944766931182"><ele>463.0</ele><time>2026-04-28T13:54:11Z</time></trkpt><trkpt lat="34.58172659992487" lon="-5.052914140233138"><ele>461.0</ele><time>2026-04-28T13:54:12Z</time></trkpt><trkpt lat="34.58162297301501" lon="-5.052890359242005"><ele>458.99999999999994</ele><time>2026-04-28T13:54:13Z</time></trkpt><trkpt lat="34.58152009098029" lon="-5.052846162615433"><ele>456.99999999999994</ele><time>2026-04-28T13:54:14Z</time></trkpt><trkpt lat="34.58142694782321" lon="-5.052787974096948"><ele>455.0</ele><time>2026-04-28T13:54:15Z</time></trkpt><trkpt lat="34.58133449291305" lon="-5.052723707431634"><ele>453.0</ele><time>2026-04-28T13:54:16Z</time></trkpt><trkpt lat="34.581257973661344" lon="-5.05265836889015"><ele>453.0</ele><time>2026-04-28T13:54:17Z</time></trkpt><trkpt lat="34.58118565569043" lon="-5.0525942151072645"><ele>453.0</ele><time>2026-04-28T13:54:18Z</time></trkpt><trkpt lat="34.58111541227395" lon="-5.052529537397719"><ele>453.0</ele><time>2026-04-28T13:54:19Z</time></trkpt><trkpt lat="34.581042944253376" lon="-5.052478950978345"><ele>453.0</ele><time>2026-04-28T13:54:20Z</time></trkpt><trkpt lat="34.580966137063996" lon="-5.052426725510522"><ele>453.0</ele><time>2026-04-28T13:54:21Z</time></trkpt><trkpt lat="34.58090208555945" lon="-5.052387495255779"><ele>453.0</ele><time>2026-04-28T13:54:22Z</time></trkpt><trkpt lat="34.5807912655755" lon="-5.052327860407072"><ele>449.4</ele><time>2026-04-28T13:54:24Z</time></trkpt><trkpt lat="34.58072236681043" lon="-5.052335249525138"><ele>445.79999999999995</ele><time>2026-04-28T13:54:26Z</time></trkpt><trkpt lat="34.58063551146871" lon="-5.0523308697284595"><ele>442.2</ele><time>2026-04-28T13:54:30Z</time></trkpt><trkpt lat="34.5805336117143" lon="-5.052333351600369"><ele>438.6</ele><time>2026-04-28T13:54:32Z</time></trkpt><trkpt lat="34.58041155070779" lon="-5.052335648220126"><ele>435.0</ele><time>2026-04-28T13:54:34Z</time></trkpt><trkpt lat="34.58034075487229" lon="-5.052341526638678"><ele>432.5</ele><time>2026-04-28T13:54:35Z</time></trkpt><trkpt lat="34.580273415784355" lon="-5.052345503358723"><ele>430.0</ele><time>2026-04-28T13:54:36Z</time></trkpt><trkpt lat="34.5802047399977" lon="-5.052349649019199"><ele>427.5</ele><time>2026-04-28T13:54:37Z</time></trkpt><trkpt lat="34.580082469468735" lon="-5.052357108498633"><ele>425.0</ele><time>2026-04-28T13:54:39Z</time></trkpt><trkpt lat="34.57997159629914" lon="-5.052363796943371"><ele>422.5</ele><time>2026-04-28T13:54:41Z</time></trkpt><trkpt lat="34.579906181798144" lon="-5.052367464286599"><ele>420.0</ele><time>2026-04-28T13:54:42Z</time></trkpt><trkpt lat="34.57984327630229" lon="-5.052370990968774"><ele>420.0</ele><time>2026-04-28T13:54:43Z</time></trkpt><trkpt lat="34.57977702343084" lon="-5.052374705315286"><ele>420.0</ele><time>2026-04-28T13:54:44Z</time></trkpt><trkpt lat="34.57970667226823" lon="-5.052372481928258"><ele>420.0</ele><time>2026-04-28T13:54:45Z</time></trkpt><trkpt lat="34.57964541583563" lon="-5.052393451816507"><ele>420.0</ele><time>2026-04-28T13:54:46Z</time></trkpt><trkpt lat="34.57957492144316" lon="-5.052408837134931"><ele>420.0</ele><time>2026-04-28T13:54:47Z</time></trkpt><trkpt lat="34.57951012748814" lon="-5.052457651228914"><ele>420.0</ele><time>2026-04-28T13:54:48Z</time></trkpt><trkpt lat="34.57944501643716" lon="-5.052487398469266"><ele>420.0</ele><time>2026-04-28T13:54:49Z</time></trkpt><trkpt lat="34.579383661107215" lon="-5.052510676851293"><ele>419.5</ele><time>2026-04-28T13:54:50Z</time></trkpt><trkpt lat="34.57933000610306" lon="-5.052568949025629"><ele>419.0</ele><time>2026-04-28T13:54:51Z</time></trkpt><trkpt lat="34.57927495324191" lon="-5.052635516521305"><ele>418.5</ele><time>2026-04-28T13:54:52Z</time></trkpt><trkpt lat="34.57924397818643" lon="-5.0527143710808975"><ele>418.0</ele><time>2026-04-28T13:54:53Z</time></trkpt><trkpt lat="34.579183703239096" lon="-5.052779084994113"><ele>417.5</ele><time>2026-04-28T13:54:54Z</time></trkpt><trkpt lat="34.57913492867884" lon="-5.052864609425737"><ele>417.0</ele><time>2026-04-28T13:54:55Z</time></trkpt><trkpt lat="34.57908187584431" lon="-5.052951494063132"><ele>417.0</ele><time>2026-04-28T13:54:56Z</time></trkpt><trkpt lat="34.57904635282847" lon="-5.053046272410681"><ele>417.0</ele><time>2026-04-28T13:54:57Z</time></trkpt><trkpt lat="34.57898764988786" lon="-5.05311290658007"><ele>417.0</ele><time>2026-04-28T13:54:58Z</time></trkpt><trkpt lat="34.578945443424715" lon="-5.053192317459685"><ele>417.0</ele><time>2026-04-28T13:54:59Z</time></trkpt><trkpt lat="34.57889934462926" lon="-5.053272609990144"><ele>417.0</ele><time>2026-04-28T13:55:00Z</time></trkpt><trkpt lat="34.57884707128895" lon="-5.0533449661787175"><ele>417.0</ele><time>2026-04-28T13:55:01Z</time></trkpt><trkpt lat="34.5787887998735" lon="-5.053418595667042"><ele>416.6666666666667</ele><time>2026-04-28T13:55:02Z</time></trkpt><trkpt lat="34.5787344110887" lon="-5.05347622491269"><ele>416.33333333333337</ele><time>2026-04-28T13:55:03Z</time></trkpt><trkpt lat="34.57861964634044" lon="-5.0535351734149"><ele>416.0</ele><time>2026-04-28T13:55:05Z</time></trkpt><trkpt lat="34.57854685630756" lon="-5.05352869960749"><ele>415.6666666666667</ele><time>2026-04-28T13:55:06Z</time></trkpt><trkpt lat="34.57848238180592" lon="-5.053516518210974"><ele>415.33333333333337</ele><time>2026-04-28T13:55:07Z</time></trkpt><trkpt lat="34.57841988515834" lon="-5.053487121239942"><ele>415.0</ele><time>2026-04-28T13:55:08Z</time></trkpt><trkpt lat="34.57835510879417" lon="-5.053447943543882"><ele>413.00000000000006</ele><time>2026-04-28T13:55:08.999Z</time></trkpt><trkpt lat="34.57829330967013" lon="-5.053411459016475"><ele>411.0</ele><time>2026-04-28T13:55:09.999Z</time></trkpt><trkpt lat="34.57822798559258" lon="-5.05337072857054"><ele>409.0</ele><time>2026-04-28T13:55:10.999Z</time></trkpt><trkpt lat="34.57815744981399" lon="-5.053337323612931"><ele>407.0</ele><time>2026-04-28T13:55:11.999Z</time></trkpt><trkpt lat="34.57807554383173" lon="-5.053298027552323"><ele>405.00000000000006</ele><time>2026-04-28T13:55:12.999Z</time></trkpt><trkpt lat="34.5779953113414" lon="-5.0532637567985645"><ele>403.0</ele><time>2026-04-28T13:55:13.999Z</time></trkpt><trkpt lat="34.57791931085234" lon="-5.053218975007237"><ele>401.33333333333337</ele><time>2026-04-28T13:55:14.999Z</time></trkpt><trkpt lat="34.57784697256339" lon="-5.05317960425062"><ele>399.6666666666667</ele><time>2026-04-28T13:55:15.999Z</time></trkpt><trkpt lat="34.57777066817789" lon="-5.053141264654996"><ele>398.0</ele><time>2026-04-28T13:55:16.999Z</time></trkpt><trkpt lat="34.57768434848588" lon="-5.053099207764372"><ele>396.33333333333337</ele><time>2026-04-28T13:55:17.999Z</time></trkpt><trkpt lat="34.57759603950851" lon="-5.0530563683765655"><ele>394.6666666666667</ele><time>2026-04-28T13:55:18.999Z</time></trkpt><trkpt lat="34.57750999362429" lon="-5.053009369853557"><ele>393.0</ele><time>2026-04-28T13:55:19.999Z</time></trkpt><trkpt lat="34.57742837467613" lon="-5.052970424065827"><ele>393.0</ele><time>2026-04-28T13:55:20.999Z</time></trkpt><trkpt lat="34.577350268598124" lon="-5.0529328181337885"><ele>393.0</ele><time>2026-04-28T13:55:21.999Z</time></trkpt><trkpt lat="34.57727451890242" lon="-5.0528954250400595"><ele>393.0</ele><time>2026-04-28T13:55:22.999Z</time></trkpt><trkpt lat="34.57720756722148" lon="-5.052860653389089"><ele>393.0</ele><time>2026-04-28T13:55:23.999Z</time></trkpt><trkpt lat="34.57712342487906" lon="-5.052820469968537"><ele>393.0</ele><time>2026-04-28T13:55:24.999Z</time></trkpt><trkpt lat="34.57703747798081" lon="-5.052804338289617"><ele>393.0</ele><time>2026-04-28T13:55:25.999Z</time></trkpt><trkpt lat="34.57696196607504" lon="-5.052772335999882"><ele>391.5714285714286</ele><time>2026-04-28T13:55:26.999Z</time></trkpt><trkpt lat="34.57689193906353" lon="-5.052742658300002"><ele>390.14285714285717</ele><time>2026-04-28T13:55:27.999Z</time></trkpt><trkpt lat="34.576819479430306" lon="-5.052711949586617"><ele>388.7142857142857</ele><time>2026-04-28T13:55:28.999Z</time></trkpt><trkpt lat="34.576758478081466" lon="-5.052685798283406"><ele>387.28571428571433</ele><time>2026-04-28T13:55:29.999Z</time></trkpt><trkpt lat="34.57668535610508" lon="-5.052654355438012"><ele>385.85714285714283</ele><time>2026-04-28T13:55:30.999Z</time></trkpt><trkpt lat="34.57661458552299" lon="-5.052623923804785"><ele>384.42857142857144</ele><time>2026-04-28T13:55:31.999Z</time></trkpt><trkpt lat="34.57655106194049" lon="-5.052596608405478"><ele>383.0</ele><time>2026-04-28T13:55:32.999Z</time></trkpt><trkpt lat="34.576482644144" lon="-5.0525592179853644"><ele>383.0</ele><time>2026-04-28T13:55:33.999Z</time></trkpt><trkpt lat="34.576415770440626" lon="-5.052538625871178"><ele>383.0</ele><time>2026-04-28T13:55:34.999Z</time></trkpt><trkpt lat="34.57634883851689" lon="-5.052513160022389"><ele>383.0</ele><time>2026-04-28T13:55:35.999Z</time></trkpt><trkpt lat="34.57627709313969" lon="-5.0524890610420226"><ele>383.0</ele><time>2026-04-28T13:55:36.999Z</time></trkpt><trkpt lat="34.57620610339583" lon="-5.052464357159113"><ele>383.0</ele><time>2026-04-28T13:55:37.999Z</time></trkpt><trkpt lat="34.5761330486397" lon="-5.052444977611463"><ele>383.0</ele><time>2026-04-28T13:55:38.999Z</time></trkpt><trkpt lat="34.576060369239315" lon="-5.05242699355333"><ele>383.0</ele><time>2026-04-28T13:55:39.999Z</time></trkpt><trkpt lat="34.57599518094745" lon="-5.052410927185088"><ele>381.6666666666667</ele><time>2026-04-28T13:55:40.999Z</time></trkpt><trkpt lat="34.575922932103126" lon="-5.052387555377375"><ele>380.33333333333337</ele><time>2026-04-28T13:55:41.999Z</time></trkpt><trkpt lat="34.57585213242107" lon="-5.052369949762547"><ele>379.0</ele><time>2026-04-28T13:55:42.999Z</time></trkpt><trkpt lat="34.57577397168253" lon="-5.052345190636456"><ele>377.6666666666667</ele><time>2026-04-28T13:55:43.999Z</time></trkpt><trkpt lat="34.575698198892546" lon="-5.052323451673157"><ele>376.3333333333333</ele><time>2026-04-28T13:55:44.999Z</time></trkpt><trkpt lat="34.57561922255279" lon="-5.052314068753767"><ele>375.0</ele><time>2026-04-28T13:55:45.999Z</time></trkpt><trkpt lat="34.57554176137648" lon="-5.052292791833091"><ele>375.0</ele><time>2026-04-28T13:55:46.999Z</time></trkpt><trkpt lat="34.57546663887295" lon="-5.052277280278026"><ele>375.0</ele><time>2026-04-28T13:55:47.999Z</time></trkpt><trkpt lat="34.575386043220156" lon="-5.052263248590109"><ele>375.0</ele><time>2026-04-28T13:55:48.999Z</time></trkpt><trkpt lat="34.57531026528918" lon="-5.052245915104777"><ele>375.0</ele><time>2026-04-28T13:55:49.999Z</time></trkpt><trkpt lat="34.575233990728634" lon="-5.052231451746467"><ele>375.0</ele><time>2026-04-28T13:55:50.999Z</time></trkpt><trkpt lat="34.575156065993475" lon="-5.052212959138711"><ele>375.0</ele><time>2026-04-28T13:55:51.999Z</time></trkpt><trkpt lat="34.57507928298211" lon="-5.052192035014892"><ele>374.0</ele><time>2026-04-28T13:55:52.999Z</time></trkpt><trkpt lat="34.57500778515261" lon="-5.052173991999534"><ele>373.0</ele><time>2026-04-28T13:55:53.999Z</time></trkpt><trkpt lat="34.5749397720508" lon="-5.052149802856886"><ele>372.0</ele><time>2026-04-28T13:55:54.999Z</time></trkpt><trkpt lat="34.574870873486546" lon="-5.0521258604883865"><ele>371.0</ele><time>2026-04-28T13:55:55.999Z</time></trkpt><trkpt lat="34.574798366310645" lon="-5.052106800298092"><ele>370.0</ele><time>2026-04-28T13:55:56.999Z</time></trkpt><trkpt lat="34.574725474898" lon="-5.052079047657548"><ele>369.0</ele><time>2026-04-28T13:55:57.999Z</time></trkpt><trkpt lat="34.57465682745741" lon="-5.052058551482876"><ele>368.0</ele><time>2026-04-28T13:55:58.999Z</time></trkpt><trkpt lat="34.57459004248799" lon="-5.052038418733558"><ele>368.0</ele><time>2026-04-28T13:55:59.999Z</time></trkpt><trkpt lat="34.57452515012013" lon="-5.0520145696621235"><ele>368.0</ele><time>2026-04-28T13:56:01Z</time></trkpt><trkpt lat="34.57446192598849" lon="-5.051996206368331"><ele>368.0</ele><time>2026-04-28T13:56:02Z</time></trkpt><trkpt lat="34.57433985824211" lon="-5.051958798847576"><ele>368.0</ele><time>2026-04-28T13:56:04Z</time></trkpt><trkpt lat="34.57422181035002" lon="-5.051916691521366"><ele>368.0</ele><time>2026-04-28T13:56:06Z</time></trkpt><trkpt lat="34.57411416626291" lon="-5.051855533860569"><ele>366.5</ele><time>2026-04-28T13:56:08Z</time></trkpt><trkpt lat="34.57405216004249" lon="-5.05183085400932"><ele>365.0</ele><time>2026-04-28T13:56:09Z</time></trkpt><trkpt lat="34.574029500588566" lon="-5.051729949043973"><ele>363.5</ele><time>2026-04-28T13:56:10Z</time></trkpt><trkpt lat="34.57401141854725" lon="-5.051640004963785"><ele>362.0</ele><time>2026-04-28T13:56:11Z</time></trkpt><trkpt lat="34.57402055072259" lon="-5.051535523034892"><ele>360.5</ele><time>2026-04-28T13:56:12Z</time></trkpt><trkpt lat="34.5740532845754" lon="-5.051424376836616"><ele>359.0</ele><time>2026-04-28T13:56:13Z</time></trkpt><trkpt lat="34.57408435330233" lon="-5.051301843401082"><ele>356.75</ele><time>2026-04-28T13:56:14Z</time></trkpt><trkpt lat="34.57414411158082" lon="-5.051174638601481"><ele>354.5</ele><time>2026-04-28T13:56:15Z</time></trkpt><trkpt lat="34.57420819689943" lon="-5.051041870177071"><ele>352.25</ele><time>2026-04-28T13:56:16Z</time></trkpt><trkpt lat="34.574274017636235" lon="-5.0509131585314435"><ele>350.0</ele><time>2026-04-28T13:56:17Z</time></trkpt><trkpt lat="34.57433684038584" lon="-5.0507909107298286"><ele>350.2</ele><time>2026-04-28T13:56:18Z</time></trkpt><trkpt lat="34.574398312001136" lon="-5.050673204217309"><ele>350.4</ele><time>2026-04-28T13:56:19Z</time></trkpt><trkpt lat="34.574458667796705" lon="-5.050556114637549"><ele>350.6</ele><time>2026-04-28T13:56:20Z</time></trkpt><trkpt lat="34.574514570984086" lon="-5.050435989631636"><ele>350.8</ele><time>2026-04-28T13:56:21Z</time></trkpt><trkpt lat="34.574579242783706" lon="-5.050333629070411"><ele>351.0</ele><time>2026-04-28T13:56:22Z</time></trkpt><trkpt lat="34.57460811439218" lon="-5.050213611602983"><ele>351.0</ele><time>2026-04-28T13:56:23Z</time></trkpt><trkpt lat="34.57464539582649" lon="-5.05009382200625"><ele>351.0</ele><time>2026-04-28T13:56:24Z</time></trkpt><trkpt lat="34.574670105958496" lon="-5.049980039674783"><ele>351.0</ele><time>2026-04-28T13:56:25Z</time></trkpt><trkpt lat="34.57469185092192" lon="-5.049871375193291"><ele>351.0</ele><time>2026-04-28T13:56:26Z</time></trkpt><trkpt lat="34.57468252859269" lon="-5.049767371056928"><ele>351.0</ele><time>2026-04-28T13:56:27Z</time></trkpt><trkpt lat="34.57467819691632" lon="-5.049650416949663"><ele>349.25</ele><time>2026-04-28T13:56:28Z</time></trkpt><trkpt lat="34.57465997052813" lon="-5.049519955906679"><ele>347.5</ele><time>2026-04-28T13:56:29Z</time></trkpt><trkpt lat="34.57465876422531" lon="-5.049373419666224"><ele>345.75</ele><time>2026-04-28T13:56:30Z</time></trkpt><trkpt lat="34.574625652705656" lon="-5.049229628016025"><ele>344.0</ele><time>2026-04-28T13:56:31Z</time></trkpt><trkpt lat="34.5745927344579" lon="-5.049088132328496"><ele>342.75</ele><time>2026-04-28T13:56:32Z</time></trkpt><trkpt lat="34.57456172466086" lon="-5.048950013982063"><ele>341.5</ele><time>2026-04-28T13:56:33Z</time></trkpt><trkpt lat="34.57453184777932" lon="-5.0488094512595225"><ele>340.25</ele><time>2026-04-28T13:56:34Z</time></trkpt><trkpt lat="34.57448099341505" lon="-5.048677288067269"><ele>339.0</ele><time>2026-04-28T13:56:35Z</time></trkpt><trkpt lat="34.57446442202938" lon="-5.048531017237351"><ele>336.79999999999995</ele><time>2026-04-28T13:56:36Z</time></trkpt><trkpt lat="34.57443999986342" lon="-5.048406761819761"><ele>334.59999999999997</ele><time>2026-04-28T13:56:37Z</time></trkpt><trkpt lat="34.574425248902436" lon="-5.048280898500702"><ele>332.4</ele><time>2026-04-28T13:56:38Z</time></trkpt><trkpt lat="34.57443374440484" lon="-5.048149647788143"><ele>330.2</ele><time>2026-04-28T13:56:39Z</time></trkpt><trkpt lat="34.57446514194421" lon="-5.048014604100402"><ele>328.0</ele><time>2026-04-28T13:56:40Z</time></trkpt><trkpt lat="34.57450742903173" lon="-5.047884987731667"><ele>328.59999999999997</ele><time>2026-04-28T13:56:41Z</time></trkpt><trkpt lat="34.574545184655456" lon="-5.047759154743621"><ele>329.2</ele><time>2026-04-28T13:56:42Z</time></trkpt><trkpt lat="34.57456771209157" lon="-5.047638600062357"><ele>329.8</ele><time>2026-04-28T13:56:43Z</time></trkpt><trkpt lat="34.574571497925284" lon="-5.047515944681679"><ele>330.4</ele><time>2026-04-28T13:56:44Z</time></trkpt><trkpt lat="34.574534122121726" lon="-5.047407871210659"><ele>331.0</ele><time>2026-04-28T13:56:45Z</time></trkpt><trkpt lat="34.57447572426163" lon="-5.047320336325982"><ele>327.0</ele><time>2026-04-28T13:56:46Z</time></trkpt><trkpt lat="34.574392726602596" lon="-5.0472523591299785"><ele>323.0</ele><time>2026-04-28T13:56:47Z</time></trkpt><trkpt lat="34.57428322617418" lon="-5.047235450859504"><ele>319.0</ele><time>2026-04-28T13:56:48Z</time></trkpt><trkpt lat="34.574173250562204" lon="-5.047203628956396"><ele>315.0</ele><time>2026-04-28T13:56:49Z</time></trkpt><trkpt lat="34.57406434942806" lon="-5.047176201633475"><ele>311.0</ele><time>2026-04-28T13:56:50Z</time></trkpt><trkpt lat="34.57396713600009" lon="-5.047131942022469"><ele>311.0</ele><time>2026-04-28T13:56:51Z</time></trkpt><trkpt lat="34.57386506196615" lon="-5.0471009581458"><ele>311.0</ele><time>2026-04-28T13:56:52Z</time></trkpt><trkpt lat="34.57375538017759" lon="-5.047051573509365"><ele>311.0</ele><time>2026-04-28T13:56:53Z</time></trkpt><trkpt lat="34.573644104562185" lon="-5.046987521415743"><ele>311.0</ele><time>2026-04-28T13:56:54Z</time></trkpt><trkpt lat="34.5735360952717" lon="-5.046917458620887"><ele>310.25</ele><time>2026-04-28T13:56:55Z</time></trkpt><trkpt lat="34.57342803750488" lon="-5.046843793213489"><ele>309.5</ele><time>2026-04-28T13:56:56Z</time></trkpt><trkpt lat="34.57330663667047" lon="-5.046799867437505"><ele>308.75</ele><time>2026-04-28T13:56:57Z</time></trkpt><trkpt lat="34.57318618834776" lon="-5.046749289652578"><ele>308.0</ele><time>2026-04-28T13:56:58Z</time></trkpt><trkpt lat="34.573063190389114" lon="-5.046721840527905"><ele>308.0</ele><time>2026-04-28T13:56:59Z</time></trkpt><trkpt lat="34.572936847511855" lon="-5.04669302226999"><ele>308.0</ele><time>2026-04-28T13:57:00Z</time></trkpt><trkpt lat="34.57281092520856" lon="-5.046665569713763"><ele>308.0</ele><time>2026-04-28T13:57:01Z</time></trkpt><trkpt lat="34.57268577302218" lon="-5.0466255307476695"><ele>308.0</ele><time>2026-04-28T13:57:02Z</time></trkpt><trkpt lat="34.572557611880455" lon="-5.046600568359512"><ele>303.5</ele><time>2026-04-28T13:57:03Z</time></trkpt><trkpt lat="34.572431043795866" lon="-5.046560467491665"><ele>299.0</ele><time>2026-04-28T13:57:04Z</time></trkpt><trkpt lat="34.57231109128307" lon="-5.046518591328922"><ele>294.5</ele><time>2026-04-28T13:57:05Z</time></trkpt><trkpt lat="34.57218438108002" lon="-5.046498068508722"><ele>290.0</ele><time>2026-04-28T13:57:06Z</time></trkpt><trkpt lat="34.57207737890467" lon="-5.046449580081277"><ele>288.4</ele><time>2026-04-28T13:57:07Z</time></trkpt><trkpt lat="34.57198516101324" lon="-5.0464274373000775"><ele>286.8</ele><time>2026-04-28T13:57:08Z</time></trkpt><trkpt lat="34.571890514253695" lon="-5.046433205822083"><ele>285.2</ele><time>2026-04-28T13:57:09Z</time></trkpt><trkpt lat="34.5717921969013" lon="-5.046428203202018"><ele>283.6</ele><time>2026-04-28T13:57:10Z</time></trkpt><trkpt lat="34.571677828260455" lon="-5.04642626108445"><ele>282.0</ele><time>2026-04-28T13:57:11Z</time></trkpt><trkpt lat="34.57155117241798" lon="-5.046437123889144"><ele>282.0</ele><time>2026-04-28T13:57:12Z</time></trkpt><trkpt lat="34.57141809445516" lon="-5.046454512114312"><ele>282.0</ele><time>2026-04-28T13:57:13Z</time></trkpt><trkpt lat="34.57128612462644" lon="-5.04648147550627"><ele>282.0</ele><time>2026-04-28T13:57:14Z</time></trkpt><trkpt lat="34.5711588971979" lon="-5.046513830305459"><ele>282.0</ele><time>2026-04-28T13:57:15Z</time></trkpt><trkpt lat="34.571034186443754" lon="-5.046549372844291"><ele>281.0</ele><time>2026-04-28T13:57:16Z</time></trkpt><trkpt lat="34.57091311820966" lon="-5.046584773886298"><ele>280.0</ele><time>2026-04-28T13:57:17Z</time></trkpt><trkpt lat="34.57079568291123" lon="-5.046626573449932"><ele>279.0</ele><time>2026-04-28T13:57:18Z</time></trkpt><trkpt lat="34.570686605677956" lon="-5.046666454596002"><ele>278.0</ele><time>2026-04-28T13:57:19Z</time></trkpt><trkpt lat="34.5705778297764" lon="-5.046682224013289"><ele>278.0</ele><time>2026-04-28T13:57:20Z</time></trkpt><trkpt lat="34.570484683676106" lon="-5.046709771335958"><ele>278.0</ele><time>2026-04-28T13:57:21Z</time></trkpt><trkpt lat="34.57039166419693" lon="-5.0467299571824675"><ele>278.0</ele><time>2026-04-28T13:57:21.999Z</time></trkpt><trkpt lat="34.57030351422901" lon="-5.046739331660324"><ele>278.0</ele><time>2026-04-28T13:57:22.999Z</time></trkpt><trkpt lat="34.57020851231078" lon="-5.04672971687356"><ele>278.0</ele><time>2026-04-28T13:57:23.999Z</time></trkpt><trkpt lat="34.570102639295435" lon="-5.046712353706259"><ele>275.75</ele><time>2026-04-28T13:57:24.999Z</time></trkpt><trkpt lat="34.56998196388021" lon="-5.046688045023298"><ele>273.5</ele><time>2026-04-28T13:57:25.999Z</time></trkpt><trkpt lat="34.56985563509132" lon="-5.046658152103427"><ele>271.25</ele><time>2026-04-28T13:57:26.999Z</time></trkpt><trkpt lat="34.56972739760535" lon="-5.0466214566072605"><ele>269.0</ele><time>2026-04-28T13:57:27.999Z</time></trkpt><trkpt lat="34.569599608968154" lon="-5.046582512436349"><ele>264.75</ele><time>2026-04-28T13:57:28.999Z</time></trkpt><trkpt lat="34.56947665381695" lon="-5.046543395930264"><ele>260.5</ele><time>2026-04-28T13:57:29.999Z</time></trkpt><trkpt lat="34.56935405603829" lon="-5.0465044982226"><ele>256.25</ele><time>2026-04-28T13:57:30.999Z</time></trkpt><trkpt lat="34.56923259754963" lon="-5.04646801872746"><ele>252.0</ele><time>2026-04-28T13:57:31.999Z</time></trkpt><trkpt lat="34.56910958927719" lon="-5.0464327469519965"><ele>252.0</ele><time>2026-04-28T13:57:32.999Z</time></trkpt><trkpt lat="34.568989438574214" lon="-5.046398494240948"><ele>252.0</ele><time>2026-04-28T13:57:33.999Z</time></trkpt><trkpt lat="34.56887136941979" lon="-5.046403458568227"><ele>252.0</ele><time>2026-04-28T13:57:34.999Z</time></trkpt><trkpt lat="34.56875584291801" lon="-5.046385920414845"><ele>252.0</ele><time>2026-04-28T13:57:35.999Z</time></trkpt><trkpt lat="34.56863812268325" lon="-5.046399821527833"><ele>249.5</ele><time>2026-04-28T13:57:36.999Z</time></trkpt><trkpt lat="34.56852167630927" lon="-5.0464339199244925"><ele>247.0</ele><time>2026-04-28T13:57:37.999Z</time></trkpt><trkpt lat="34.56839855081088" lon="-5.046449567826852"><ele>244.5</ele><time>2026-04-28T13:57:38.999Z</time></trkpt><trkpt lat="34.56827672960872" lon="-5.046454591062714"><ele>242.0</ele><time>2026-04-28T13:57:39.999Z</time></trkpt><trkpt lat="34.568151229450386" lon="-5.046447660660983"><ele>242.0</ele><time>2026-04-28T13:57:40.999Z</time></trkpt><trkpt lat="34.56802842455262" lon="-5.0464168711223945"><ele>242.0</ele><time>2026-04-28T13:57:41.999Z</time></trkpt><trkpt lat="34.56790216546679" lon="-5.0463943378652765"><ele>242.0</ele><time>2026-04-28T13:57:42.999Z</time></trkpt><trkpt lat="34.567772468623424" lon="-5.046389940348104"><ele>242.0</ele><time>2026-04-28T13:57:43.999Z</time></trkpt><trkpt lat="34.56764268684845" lon="-5.046358309431837"><ele>239.0</ele><time>2026-04-28T13:57:44.999Z</time></trkpt><trkpt lat="34.567514422739755" lon="-5.046326533772998"><ele>236.0</ele><time>2026-04-28T13:57:45.999Z</time></trkpt><trkpt lat="34.56738685337331" lon="-5.04630447653526"><ele>233.0</ele><time>2026-04-28T13:57:46.999Z</time></trkpt><trkpt lat="34.567263550667796" lon="-5.0462863114828584"><ele>230.0</ele><time>2026-04-28T13:57:47.999Z</time></trkpt><trkpt lat="34.567164441279026" lon="-5.046293972616252"><ele>230.0</ele><time>2026-04-28T13:57:48.999Z</time></trkpt><trkpt lat="34.56707117293478" lon="-5.046297668846508"><ele>230.0</ele><time>2026-04-28T13:57:49.999Z</time></trkpt><trkpt lat="34.56696947377923" lon="-5.046304052561956"><ele>230.0</ele><time>2026-04-28T13:57:50.999Z</time></trkpt><trkpt lat="34.56686249588209" lon="-5.046310767633992"><ele>230.0</ele><time>2026-04-28T13:57:51.999Z</time></trkpt><trkpt lat="34.56673997838869" lon="-5.04632457366183"><ele>230.0</ele><time>2026-04-28T13:57:52.999Z</time></trkpt><trkpt lat="34.566605008175934" lon="-5.046344162578517"><ele>227.75</ele><time>2026-04-28T13:57:53.999Z</time></trkpt><trkpt lat="34.56647326214186" lon="-5.0463632835708"><ele>225.5</ele><time>2026-04-28T13:57:54.999Z</time></trkpt><trkpt lat="34.56634820413302" lon="-5.0463880512110295"><ele>223.25</ele><time>2026-04-28T13:57:55.999Z</time></trkpt><trkpt lat="34.566221665193595" lon="-5.046415045634529"><ele>221.0</ele><time>2026-04-28T13:57:56.999Z</time></trkpt><trkpt lat="34.56610200472578" lon="-5.046457664462966"><ele>220.4</ele><time>2026-04-28T13:57:57.999Z</time></trkpt><trkpt lat="34.56598461331571" lon="-5.046500930737437"><ele>219.8</ele><time>2026-04-28T13:57:58.999Z</time></trkpt><trkpt lat="34.565872976244215" lon="-5.046545332808978"><ele>219.20000000000002</ele><time>2026-04-28T13:57:59.999Z</time></trkpt><trkpt lat="34.56577497437172" lon="-5.046584755441528"><ele>218.60000000000002</ele><time>2026-04-28T13:58:00.999Z</time></trkpt><trkpt lat="34.565690502588716" lon="-5.046620866643499"><ele>218.0</ele><time>2026-04-28T13:58:01.999Z</time></trkpt><trkpt lat="34.5656049864965" lon="-5.046628982735789"><ele>218.0</ele><time>2026-04-28T13:58:02.999Z</time></trkpt><trkpt lat="34.565537714174766" lon="-5.046651516840871"><ele>218.0</ele><time>2026-04-28T13:58:03.999Z</time></trkpt><trkpt lat="34.565432260046464" lon="-5.046633039283714"><ele>218.0</ele><time>2026-04-28T13:58:05.999Z</time></trkpt><trkpt lat="34.56540296853677" lon="-5.04655562335587"><ele>218.0</ele><time>2026-04-28T13:58:07Z</time></trkpt><trkpt lat="34.56536851903472" lon="-5.046424074758301"><ele>218.0</ele><time>2026-04-28T13:58:09Z</time></trkpt><trkpt lat="34.565398211150686" lon="-5.046284909079282"><ele>216.66666666666669</ele><time>2026-04-28T13:58:11Z</time></trkpt><trkpt lat="34.56542605969263" lon="-5.046200504985209"><ele>215.33333333333334</ele><time>2026-04-28T13:58:13Z</time></trkpt><trkpt lat="34.56546385956202" lon="-5.04612867685151"><ele>214.0</ele><time>2026-04-28T13:59:42.999Z</time></trkpt><trkpt lat="34.565519313273604" lon="-5.04601511134867"><ele>212.66666666666669</ele><time>2026-04-28T13:59:44.999Z</time></trkpt><trkpt lat="34.56555389823391" lon="-5.045950378147261"><ele>211.33333333333334</ele><time>2026-04-28T13:59:45.999Z</time></trkpt><trkpt lat="34.56559660818906" lon="-5.045876722537567"><ele>210.0</ele><time>2026-04-28T13:59:46.999Z</time></trkpt><trkpt lat="34.565642713466495" lon="-5.045791883633572"><ele>207.8</ele><time>2026-04-28T13:59:47.999Z</time></trkpt><trkpt lat="34.56569870071235" lon="-5.045679389544055"><ele>205.6</ele><time>2026-04-28T13:59:48.999Z</time></trkpt><trkpt lat="34.56576381525725" lon="-5.045574636755023"><ele>203.39999999999998</ele><time>2026-04-28T13:59:49.999Z</time></trkpt><trkpt lat="34.56583594581739" lon="-5.0454836543417505"><ele>201.2</ele><time>2026-04-28T13:59:50.999Z</time></trkpt><trkpt lat="34.565887007729316" lon="-5.045420680748511"><ele>199.0</ele><time>2026-04-28T13:59:51.999Z</time></trkpt><trkpt lat="34.565943242159186" lon="-5.045340519415661"><ele>199.0</ele><time>2026-04-28T13:59:53.999Z</time></trkpt><trkpt lat="34.566013904433156" lon="-5.045283453496055"><ele>199.0</ele><time>2026-04-28T13:59:54.999Z</time></trkpt><trkpt lat="34.56609361493499" lon="-5.045193622967248"><ele>199.0</ele><time>2026-04-28T13:59:55.999Z</time></trkpt><trkpt lat="34.56617711607228" lon="-5.045115621376957"><ele>199.0</ele><time>2026-04-28T13:59:56.999Z</time></trkpt><trkpt lat="34.56625759707733" lon="-5.045048769051771"><ele>199.0</ele><time>2026-04-28T13:59:57.999Z</time></trkpt><trkpt lat="34.56633647091063" lon="-5.044988178180995"><ele>198.2</ele><time>2026-04-28T13:59:58.999Z</time></trkpt><trkpt lat="34.566429443632614" lon="-5.044929526168399"><ele>197.39999999999998</ele><time>2026-04-28T13:59:59.999Z</time></trkpt><trkpt lat="34.56652579694229" lon="-5.044866481302373"><ele>196.6</ele><time>2026-04-28T14:00:00.999Z</time></trkpt><trkpt lat="34.566612772429075" lon="-5.044805622437501"><ele>195.8</ele><time>2026-04-28T14:00:01.999Z</time></trkpt><trkpt lat="34.56669306012748" lon="-5.044750024102002"><ele>195.0</ele><time>2026-04-28T14:00:02.999Z</time></trkpt><trkpt lat="34.566766871878" lon="-5.044697396539856"><ele>195.0</ele><time>2026-04-28T14:00:03.999Z</time></trkpt><trkpt lat="34.56685148948223" lon="-5.044636291217654"><ele>195.0</ele><time>2026-04-28T14:00:04.999Z</time></trkpt><trkpt lat="34.56694491494845" lon="-5.04457365502082"><ele>195.0</ele><time>2026-04-28T14:00:05.999Z</time></trkpt><trkpt lat="34.56701632056159" lon="-5.044486603159487"><ele>195.0</ele><time>2026-04-28T14:00:06.999Z</time></trkpt><trkpt lat="34.56710186169257" lon="-5.044404600717773"><ele>195.0</ele><time>2026-04-28T14:00:07.999Z</time></trkpt><trkpt lat="34.56718128586584" lon="-5.044308803245405"><ele>195.4</ele><time>2026-04-28T14:00:08.999Z</time></trkpt><trkpt lat="34.567259468336786" lon="-5.0441929443393105"><ele>195.8</ele><time>2026-04-28T14:00:09.999Z</time></trkpt><trkpt lat="34.56733805283305" lon="-5.044101919325527"><ele>196.2</ele><time>2026-04-28T14:00:10.999Z</time></trkpt><trkpt lat="34.5673997320524" lon="-5.043996811615898"><ele>196.6</ele><time>2026-04-28T14:00:11.999Z</time></trkpt><trkpt lat="34.5674633534321" lon="-5.043907806657947"><ele>197.0</ele><time>2026-04-28T14:00:13Z</time></trkpt><trkpt lat="34.56752658701894" lon="-5.043820499369285"><ele>197.0</ele><time>2026-04-28T14:00:14Z</time></trkpt><trkpt lat="34.567587398681454" lon="-5.043744729811605"><ele>197.0</ele><time>2026-04-28T14:00:15Z</time></trkpt><trkpt lat="34.56763833540143" lon="-5.043669798875877"><ele>197.0</ele><time>2026-04-28T14:00:16Z</time></trkpt><trkpt lat="34.56764057922998" lon="-5.043579690157047"><ele>197.0</ele><time>2026-04-28T14:00:17Z</time></trkpt><trkpt lat="34.56764828265343" lon="-5.0434199137912765"><ele>197.0</ele><time>2026-04-28T14:00:19Z</time></trkpt><trkpt lat="34.56760841363925" lon="-5.043319253439864"><ele>199.0</ele><time>2026-04-28T14:00:20Z</time></trkpt><trkpt lat="34.56754877162203" lon="-5.043239016489192"><ele>201.0</ele><time>2026-04-28T14:00:21Z</time></trkpt><trkpt lat="34.56746607063381" lon="-5.043186198145523"><ele>203.0</ele><time>2026-04-28T14:00:22Z</time></trkpt><trkpt lat="34.5673650429729" lon="-5.043160651918924"><ele>205.0</ele><time>2026-04-28T14:00:23Z</time></trkpt><trkpt lat="34.567244170073515" lon="-5.043151324516965"><ele>207.0</ele><time>2026-04-28T14:00:24Z</time></trkpt><trkpt lat="34.567107210227555" lon="-5.0431439156447375"><ele>206.66666666666669</ele><time>2026-04-28T14:00:25Z</time></trkpt><trkpt lat="34.566961930095175" lon="-5.043132722179106"><ele>206.33333333333334</ele><time>2026-04-28T14:00:26Z</time></trkpt><trkpt lat="34.56681754990666" lon="-5.043129004797111"><ele>206.0</ele><time>2026-04-28T14:00:27Z</time></trkpt><trkpt lat="34.566657154829215" lon="-5.043129766093376"><ele>206.0</ele><time>2026-04-28T14:00:28Z</time></trkpt><trkpt lat="34.56649248016739" lon="-5.043135430967259"><ele>206.0</ele><time>2026-04-28T14:00:29Z</time></trkpt><trkpt lat="34.566335151933394" lon="-5.043154619431554"><ele>206.0</ele><time>2026-04-28T14:00:30Z</time></trkpt><trkpt lat="34.56618177391267" lon="-5.043189323338849"><ele>206.0</ele><time>2026-04-28T14:00:31Z</time></trkpt><trkpt lat="34.56603451603064" lon="-5.043227604385376"><ele>206.0</ele><time>2026-04-28T14:00:32Z</time></trkpt><trkpt lat="34.565893669491466" lon="-5.043257701989479"><ele>206.0</ele><time>2026-04-28T14:00:33Z</time></trkpt><trkpt lat="34.56575724163948" lon="-5.043287423184833"><ele>206.0</ele><time>2026-04-28T14:00:34Z</time></trkpt><trkpt lat="34.56562865032546" lon="-5.0433164809625985"><ele>202.5</ele><time>2026-04-28T14:00:35Z</time></trkpt><trkpt lat="34.56549216446083" lon="-5.04334600283474"><ele>199.0</ele><time>2026-04-28T14:00:36Z</time></trkpt><trkpt lat="34.56536759057789" lon="-5.043373559633811"><ele>195.5</ele><time>2026-04-28T14:00:37Z</time></trkpt><trkpt lat="34.56523550803974" lon="-5.043388221973943"><ele>192.0</ele><time>2026-04-28T14:00:38Z</time></trkpt><trkpt lat="34.56510467867957" lon="-5.043390049074002"><ele>192.0</ele><time>2026-04-28T14:00:39Z</time></trkpt><trkpt lat="34.56498017096706" lon="-5.04340100076597"><ele>192.0</ele><time>2026-04-28T14:00:40Z</time></trkpt><trkpt lat="34.56484650718092" lon="-5.043390074342595"><ele>192.0</ele><time>2026-04-28T14:00:41Z</time></trkpt><trkpt lat="34.5647050975326" lon="-5.043353890135958"><ele>192.0</ele><time>2026-04-28T14:00:42Z</time></trkpt><trkpt lat="34.564562863095304" lon="-5.043311433622458"><ele>195.66666666666669</ele><time>2026-04-28T14:00:43Z</time></trkpt><trkpt lat="34.564415483258585" lon="-5.043279343427582"><ele>199.33333333333334</ele><time>2026-04-28T14:00:44Z</time></trkpt><trkpt lat="34.56426525369993" lon="-5.043252348239734"><ele>203.0</ele><time>2026-04-28T14:00:45Z</time></trkpt><trkpt lat="34.56411544948697" lon="-5.043237274633123"><ele>203.0</ele><time>2026-04-28T14:00:46Z</time></trkpt><trkpt lat="34.56397410190864" lon="-5.043238354068938"><ele>203.0</ele><time>2026-04-28T14:00:47Z</time></trkpt><trkpt lat="34.56383220164659" lon="-5.043249128784305"><ele>203.0</ele><time>2026-04-28T14:00:48Z</time></trkpt><trkpt lat="34.56370930950911" lon="-5.043271846908716"><ele>203.0</ele><time>2026-04-28T14:00:49Z</time></trkpt><trkpt lat="34.56358268287316" lon="-5.043277444116157"><ele>201.75</ele><time>2026-04-28T14:00:50Z</time></trkpt><trkpt lat="34.56345817574802" lon="-5.0432555974965405"><ele>200.5</ele><time>2026-04-28T14:00:51Z</time></trkpt><trkpt lat="34.56333488129681" lon="-5.04321159727771"><ele>199.25</ele><time>2026-04-28T14:00:52Z</time></trkpt><trkpt lat="34.56321910187522" lon="-5.043162586809104"><ele>198.0</ele><time>2026-04-28T14:00:53Z</time></trkpt><trkpt lat="34.56309790923438" lon="-5.04312589752537"><ele>198.0</ele><time>2026-04-28T14:00:54Z</time></trkpt><trkpt lat="34.56297034785293" lon="-5.043087265147323"><ele>198.0</ele><time>2026-04-28T14:00:55Z</time></trkpt><trkpt lat="34.56285794124408" lon="-5.043068956617307"><ele>198.0</ele><time>2026-04-28T14:00:56Z</time></trkpt><trkpt lat="34.562722570408994" lon="-5.043039172918153"><ele>198.0</ele><time>2026-04-28T14:00:57Z</time></trkpt><trkpt lat="34.56260792819233" lon="-5.043031160009139"><ele>197.0</ele><time>2026-04-28T14:00:58Z</time></trkpt><trkpt lat="34.56251054941877" lon="-5.043037845236652"><ele>196.0</ele><time>2026-04-28T14:00:59Z</time></trkpt><trkpt lat="34.56240257036484" lon="-5.043044056053628"><ele>195.0</ele><time>2026-04-28T14:01:00Z</time></trkpt><trkpt lat="34.56230376400954" lon="-5.0430417479254706"><ele>194.0</ele><time>2026-04-28T14:01:01Z</time></trkpt><trkpt lat="34.562222225620175" lon="-5.043036019926387"><ele>193.0</ele><time>2026-04-28T14:01:02Z</time></trkpt><trkpt lat="34.5621510348656" lon="-5.043051989384459"><ele>192.99999999999997</ele><time>2026-04-28T14:01:03Z</time></trkpt><trkpt lat="34.56206167807761" lon="-5.043070173161119"><ele>193.0</ele><time>2026-04-28T14:01:04Z</time></trkpt><trkpt lat="34.56198351166401" lon="-5.043042399703633"><ele>193.0</ele><time>2026-04-28T14:01:05Z</time></trkpt><trkpt lat="34.56190534157322" lon="-5.04304405713464"><ele>193.0</ele><time>2026-04-28T14:01:06Z</time></trkpt><trkpt lat="34.56182592278535" lon="-5.04300038613949"><ele>192.99999999999997</ele><time>2026-04-28T14:01:07Z</time></trkpt><trkpt lat="34.56173648048097" lon="-5.042950398646338"><ele>193.0</ele><time>2026-04-28T14:01:08Z</time></trkpt><trkpt lat="34.56164157533528" lon="-5.042914819980934"><ele>192.2</ele><time>2026-04-28T14:01:09Z</time></trkpt><trkpt lat="34.561544448231174" lon="-5.042910140174974"><ele>191.4</ele><time>2026-04-28T14:01:10Z</time></trkpt><trkpt lat="34.56145212395483" lon="-5.042902831437121"><ele>190.6</ele><time>2026-04-28T14:01:11Z</time></trkpt><trkpt lat="34.561358844731004" lon="-5.042892368115681"><ele>189.79999999999998</ele><time>2026-04-28T14:01:12Z</time></trkpt><trkpt lat="34.56126136104301" lon="-5.04288256839196"><ele>189.0</ele><time>2026-04-28T14:01:13Z</time></trkpt><trkpt lat="34.56116999563943" lon="-5.042870712230439"><ele>187.5</ele><time>2026-04-28T14:01:14Z</time></trkpt><trkpt lat="34.5610789239045" lon="-5.042842799866213"><ele>186.0</ele><time>2026-04-28T14:01:15Z</time></trkpt><trkpt lat="34.5609939000816" lon="-5.042793240562327"><ele>184.5</ele><time>2026-04-28T14:01:16Z</time></trkpt><trkpt lat="34.56091974904667" lon="-5.042721409778299"><ele>183.0</ele><time>2026-04-28T14:01:17Z</time></trkpt><trkpt lat="34.56086368129936" lon="-5.042639148459391"><ele>181.5</ele><time>2026-04-28T14:01:18Z</time></trkpt><trkpt lat="34.560821052809835" lon="-5.042559158178054"><ele>180.0</ele><time>2026-04-28T14:01:19Z</time></trkpt><trkpt lat="34.56080047088724" lon="-5.042478058918632"><ele>179.5</ele><time>2026-04-28T14:01:20Z</time></trkpt><trkpt lat="34.56079127941658" lon="-5.042397809190458"><ele>179.0</ele><time>2026-04-28T14:01:21Z</time></trkpt><trkpt lat="34.56078982850218" lon="-5.04232112619272"><ele>178.5</ele><time>2026-04-28T14:01:22Z</time></trkpt><trkpt lat="34.56078950277986" lon="-5.042242125901245"><ele>178.0</ele><time>2026-04-28T14:01:23Z</time></trkpt><trkpt lat="34.56077368314153" lon="-5.042113902301799"><ele>177.5</ele><time>2026-04-28T14:01:25Z</time></trkpt><trkpt lat="34.56076720208983" lon="-5.042036591366668"><ele>177.0</ele><time>2026-04-28T14:02:39Z</time></trkpt><trkpt lat="34.56078024855117" lon="-5.041917238113142"><ele>177.0</ele><time>2026-04-28T14:02:41Z</time></trkpt><trkpt lat="34.56078552350095" lon="-5.041823852037628"><ele>177.0</ele><time>2026-04-28T14:02:42Z</time></trkpt><trkpt lat="34.560796815515936" lon="-5.041716505338721"><ele>177.0</ele><time>2026-04-28T14:02:43Z</time></trkpt><trkpt lat="34.56082818818636" lon="-5.041596141801206"><ele>177.0</ele><time>2026-04-28T14:02:44Z</time></trkpt><trkpt lat="34.56087136726849" lon="-5.041474095480179"><ele>177.0</ele><time>2026-04-28T14:02:45Z</time></trkpt><trkpt lat="34.560905310843225" lon="-5.041337456361992"><ele>175.6</ele><time>2026-04-28T14:02:46Z</time></trkpt><trkpt lat="34.560946080463545" lon="-5.041217556688626"><ele>174.2</ele><time>2026-04-28T14:02:47Z</time></trkpt><trkpt lat="34.560976659339886" lon="-5.041097965406341"><ele>172.8</ele><time>2026-04-28T14:02:48Z</time></trkpt><trkpt lat="34.56101889465366" lon="-5.040989630874299"><ele>171.4</ele><time>2026-04-28T14:02:49Z</time></trkpt><trkpt lat="34.561030401825086" lon="-5.040873477197501"><ele>170.0</ele><time>2026-04-28T14:02:50Z</time></trkpt><trkpt lat="34.56104230018565" lon="-5.040765328251096"><ele>170.0</ele><time>2026-04-28T14:02:51Z</time></trkpt><trkpt lat="34.561054195986344" lon="-5.040673000904952"><ele>170.0</ele><time>2026-04-28T14:02:52Z</time></trkpt><trkpt lat="34.56107974309619" lon="-5.04057968373209"><ele>170.0</ele><time>2026-04-28T14:02:53Z</time></trkpt><trkpt lat="34.56112686178054" lon="-5.040487951208196"><ele>170.0</ele><time>2026-04-28T14:02:54Z</time></trkpt><trkpt lat="34.561175836413376" lon="-5.040417687638597"><ele>170.0</ele><time>2026-04-28T14:02:54.999Z</time></trkpt><trkpt lat="34.56122528777783" lon="-5.040365578420365"><ele>170.0</ele><time>2026-04-28T14:02:55.999Z</time></trkpt><trkpt lat="34.56127977218023" lon="-5.040325732117548"><ele>170.0</ele><time>2026-04-28T14:02:56.999Z</time></trkpt><trkpt lat="34.561351029785776" lon="-5.0402789952568305"><ele>170.0</ele><time>2026-04-28T14:02:57.999Z</time></trkpt><trkpt lat="34.56143289490007" lon="-5.040214582965272"><ele>170.0</ele><time>2026-04-28T14:02:58.999Z</time></trkpt><trkpt lat="34.56152238559496" lon="-5.040142162969764"><ele>170.0</ele><time>2026-04-28T14:02:59.999Z</time></trkpt><trkpt lat="34.56160969977808" lon="-5.040066903239549"><ele>170.0</ele><time>2026-04-28T14:03:00.999Z</time></trkpt><trkpt lat="34.56170002010372" lon="-5.039983624833311"><ele>169.0</ele><time>2026-04-28T14:03:01.999Z</time></trkpt><trkpt lat="34.56178900156073" lon="-5.039898816666283"><ele>168.0</ele><time>2026-04-28T14:03:02.999Z</time></trkpt><trkpt lat="34.56189021744542" lon="-5.039815568207944"><ele>167.0</ele><time>2026-04-28T14:03:03.999Z</time></trkpt><trkpt lat="34.56199412680102" lon="-5.039737918565307"><ele>166.0</ele><time>2026-04-28T14:03:04.999Z</time></trkpt><trkpt lat="34.56208777871431" lon="-5.039668476155956"><ele>166.0</ele><time>2026-04-28T14:03:05.999Z</time></trkpt><trkpt lat="34.562166823944686" lon="-5.039598876894539"><ele>166.0</ele><time>2026-04-28T14:03:06.999Z</time></trkpt><trkpt lat="34.56225004987569" lon="-5.039534548640249"><ele>166.0</ele><time>2026-04-28T14:03:07.999Z</time></trkpt><trkpt lat="34.56234372521212" lon="-5.039484808952507"><ele>166.0</ele><time>2026-04-28T14:03:08.999Z</time></trkpt><trkpt lat="34.562437214006245" lon="-5.039443143554643"><ele>166.0</ele><time>2026-04-28T14:03:09.999Z</time></trkpt><trkpt lat="34.56251884079785" lon="-5.039364372467564"><ele>166.0</ele><time>2026-04-28T14:03:10.999Z</time></trkpt><trkpt lat="34.56260341181073" lon="-5.039306680678621"><ele>166.0</ele><time>2026-04-28T14:03:11.999Z</time></trkpt><trkpt lat="34.56268774451952" lon="-5.039270190101785"><ele>166.0</ele><time>2026-04-28T14:03:12.999Z</time></trkpt><trkpt lat="34.56275488259" lon="-5.039219421136569"><ele>166.0</ele><time>2026-04-28T14:03:13.999Z</time></trkpt><trkpt lat="34.56281764019218" lon="-5.039167872717845"><ele>166.0</ele><time>2026-04-28T14:03:14.999Z</time></trkpt><trkpt lat="34.562882009575326" lon="-5.039122430572636"><ele>166.0</ele><time>2026-04-28T14:03:15.999Z</time></trkpt><trkpt lat="34.56298694834985" lon="-5.03903721051493"><ele>165.20000000000002</ele><time>2026-04-28T14:03:17.999Z</time></trkpt><trkpt lat="34.56308892660765" lon="-5.038955195515017"><ele>164.4</ele><time>2026-04-28T14:03:19.999Z</time></trkpt><trkpt lat="34.56315957386944" lon="-5.038914878917011"><ele>163.6</ele><time>2026-04-28T14:03:20.999Z</time></trkpt><trkpt lat="34.56323558411441" lon="-5.038889218908102"><ele>162.8</ele><time>2026-04-28T14:03:21.999Z</time></trkpt><trkpt lat="34.563316386608534" lon="-5.038867153455581"><ele>162.0</ele><time>2026-04-28T14:03:22.999Z</time></trkpt><trkpt lat="34.563402639117854" lon="-5.038839519074729"><ele>162.0</ele><time>2026-04-28T14:03:23.999Z</time></trkpt><trkpt lat="34.563483853050826" lon="-5.038786065860879"><ele>162.0</ele><time>2026-04-28T14:03:24.999Z</time></trkpt><trkpt lat="34.563574698439204" lon="-5.038755908979106"><ele>162.0</ele><time>2026-04-28T14:03:25.999Z</time></trkpt><trkpt lat="34.56366085690452" lon="-5.038696104415742"><ele>162.0</ele><time>2026-04-28T14:03:26.999Z</time></trkpt><trkpt lat="34.563753499106916" lon="-5.03864326510776"><ele>162.0</ele><time>2026-04-28T14:03:27.999Z</time></trkpt><trkpt lat="34.56384484265524" lon="-5.0385974207986255"><ele>163.39999999999998</ele><time>2026-04-28T14:03:28.999Z</time></trkpt><trkpt lat="34.56393757695916" lon="-5.038547843261643"><ele>164.79999999999998</ele><time>2026-04-28T14:03:29.999Z</time></trkpt><trkpt lat="34.56404199263403" lon="-5.038500114440655"><ele>166.2</ele><time>2026-04-28T14:03:30.999Z</time></trkpt><trkpt lat="34.56414994248041" lon="-5.0384506618482625"><ele>167.6</ele><time>2026-04-28T14:03:31.999Z</time></trkpt><trkpt lat="34.564248742089475" lon="-5.038391146805324"><ele>169.0</ele><time>2026-04-28T14:03:32.999Z</time></trkpt><trkpt lat="34.56435449843558" lon="-5.03833293287926"><ele>168.5</ele><time>2026-04-28T14:03:33.999Z</time></trkpt><trkpt lat="34.56446219569434" lon="-5.038272785083244"><ele>168.0</ele><time>2026-04-28T14:03:34.999Z</time></trkpt><trkpt lat="34.56457093034318" lon="-5.038205836375054"><ele>167.5</ele><time>2026-04-28T14:03:35.999Z</time></trkpt><trkpt lat="34.56468047993731" lon="-5.038135857053666"><ele>167.0</ele><time>2026-04-28T14:03:36.999Z</time></trkpt><trkpt lat="34.56478817159969" lon="-5.038072672548176"><ele>167.0</ele><time>2026-04-28T14:03:37.999Z</time></trkpt><trkpt lat="34.56490201043655" lon="-5.038009152265139"><ele>167.0</ele><time>2026-04-28T14:03:38.999Z</time></trkpt><trkpt lat="34.56500914758532" lon="-5.0379175207535"><ele>167.0</ele><time>2026-04-28T14:03:39.999Z</time></trkpt><trkpt lat="34.565127854317836" lon="-5.037835093306177"><ele>167.0</ele><time>2026-04-28T14:03:40.999Z</time></trkpt><trkpt lat="34.56522858279014" lon="-5.0377400820595915"><ele>167.0</ele><time>2026-04-28T14:03:41.999Z</time></trkpt><trkpt lat="34.5653291926531" lon="-5.0376346205502"><ele>167.0</ele><time>2026-04-28T14:03:42.999Z</time></trkpt><trkpt lat="34.565427604781576" lon="-5.037531354930932"><ele>167.0</ele><time>2026-04-28T14:03:43.999Z</time></trkpt><trkpt lat="34.56552515412719" lon="-5.037433435361642"><ele>167.0</ele><time>2026-04-28T14:03:44.999Z</time></trkpt><trkpt lat="34.56562017533299" lon="-5.037338051712098"><ele>167.75</ele><time>2026-04-28T14:03:45.999Z</time></trkpt><trkpt lat="34.56568200554421" lon="-5.037221377459583"><ele>168.5</ele><time>2026-04-28T14:03:46.999Z</time></trkpt><trkpt lat="34.5657468837854" lon="-5.037111036092487"><ele>169.25</ele><time>2026-04-28T14:03:47.999Z</time></trkpt><trkpt lat="34.565819209280804" lon="-5.036969412456626"><ele>170.0</ele><time>2026-04-28T14:03:48.999Z</time></trkpt><trkpt lat="34.565891110924795" lon="-5.0368262799564905"><ele>170.0</ele><time>2026-04-28T14:03:49.999Z</time></trkpt><trkpt lat="34.565967152216025" lon="-5.03668943927665"><ele>170.0</ele><time>2026-04-28T14:03:50.999Z</time></trkpt><trkpt lat="34.56603845752172" lon="-5.036561121260514"><ele>170.0</ele><time>2026-04-28T14:03:51.999Z</time></trkpt><trkpt lat="34.56611574606332" lon="-5.036421267874967"><ele>170.0</ele><time>2026-04-28T14:03:52.999Z</time></trkpt><trkpt lat="34.566195241386175" lon="-5.036288944780798"><ele>172.6</ele><time>2026-04-28T14:03:53.999Z</time></trkpt><trkpt lat="34.56626385582018" lon="-5.0361737139793075"><ele>175.2</ele><time>2026-04-28T14:03:54.999Z</time></trkpt><trkpt lat="34.5663053306738" lon="-5.036062594386182"><ele>177.8</ele><time>2026-04-28T14:03:55.999Z</time></trkpt><trkpt lat="34.566328646485324" lon="-5.035945418709834"><ele>180.4</ele><time>2026-04-28T14:03:56.999Z</time></trkpt><trkpt lat="34.566326664019414" lon="-5.035835313961767"><ele>183.0</ele><time>2026-04-28T14:03:57.999Z</time></trkpt><trkpt lat="34.566315867176314" lon="-5.035718015167387"><ele>185.25</ele><time>2026-04-28T14:03:58.999Z</time></trkpt><trkpt lat="34.566280915503384" lon="-5.035595454591437"><ele>187.5</ele><time>2026-04-28T14:03:59.999Z</time></trkpt><trkpt lat="34.56623670242307" lon="-5.035461072508774"><ele>189.75</ele><time>2026-04-28T14:04:00.999Z</time></trkpt><trkpt lat="34.56619107536515" lon="-5.035325105466674"><ele>192.0</ele><time>2026-04-28T14:04:01.999Z</time></trkpt><trkpt lat="34.566149927831525" lon="-5.035183703370572"><ele>187.0</ele><time>2026-04-28T14:04:02.999Z</time></trkpt><trkpt lat="34.56609669008411" lon="-5.035052006060415"><ele>182.0</ele><time>2026-04-28T14:04:03.999Z</time></trkpt><trkpt lat="34.5660548722083" lon="-5.034923789597537"><ele>177.0</ele><time>2026-04-28T14:04:04.999Z</time></trkpt><trkpt lat="34.566019501110745" lon="-5.034797421105201"><ele>172.0</ele><time>2026-04-28T14:04:05.999Z</time></trkpt><trkpt lat="34.565990237184195" lon="-5.034671311942499"><ele>172.0</ele><time>2026-04-28T14:04:06.999Z</time></trkpt><trkpt lat="34.56597084611215" lon="-5.034544692286784"><ele>172.0</ele><time>2026-04-28T14:04:07.999Z</time></trkpt><trkpt lat="34.56595162935978" lon="-5.03441509966874"><ele>172.0</ele><time>2026-04-28T14:04:08.999Z</time></trkpt><trkpt lat="34.565931350480184" lon="-5.034270246763921"><ele>172.0</ele><time>2026-04-28T14:04:09.999Z</time></trkpt><trkpt lat="34.56591196076996" lon="-5.03412701337855"><ele>171.75</ele><time>2026-04-28T14:04:10.999Z</time></trkpt><trkpt lat="34.565876079671376" lon="-5.033982822245262"><ele>171.5</ele><time>2026-04-28T14:04:11.999Z</time></trkpt><trkpt lat="34.565870387838146" lon="-5.033825965468683"><ele>171.25</ele><time>2026-04-28T14:04:12.999Z</time></trkpt><trkpt lat="34.565870523672" lon="-5.033674005636532"><ele>171.0</ele><time>2026-04-28T14:04:13.999Z</time></trkpt><trkpt lat="34.56590870150879" lon="-5.033508574196933"><ele>171.0</ele><time>2026-04-28T14:04:14.999Z</time></trkpt><trkpt lat="34.565932157875444" lon="-5.0333562937103675"><ele>171.0</ele><time>2026-04-28T14:04:15.999Z</time></trkpt><trkpt lat="34.565941788581355" lon="-5.033214839076165"><ele>171.0</ele><time>2026-04-28T14:04:16.999Z</time></trkpt><trkpt lat="34.565928660413796" lon="-5.033079414468712"><ele>171.0</ele><time>2026-04-28T14:04:17.999Z</time></trkpt><trkpt lat="34.565911177946354" lon="-5.032943032015538"><ele>172.25</ele><time>2026-04-28T14:04:18.999Z</time></trkpt><trkpt lat="34.56584582064172" lon="-5.032807420203597"><ele>173.5</ele><time>2026-04-28T14:04:19.999Z</time></trkpt><trkpt lat="34.565744813354954" lon="-5.032697460513439"><ele>174.75</ele><time>2026-04-28T14:04:20.999Z</time></trkpt><trkpt lat="34.565660162807106" lon="-5.032562330516364"><ele>176.0</ele><time>2026-04-28T14:04:21.999Z</time></trkpt><trkpt lat="34.56556139781124" lon="-5.032452872254762"><ele>177.20000000000002</ele><time>2026-04-28T14:04:22.999Z</time></trkpt><trkpt lat="34.56546946251789" lon="-5.032357112833064"><ele>178.4</ele><time>2026-04-28T14:04:23.999Z</time></trkpt><trkpt lat="34.565387181169655" lon="-5.0322711377454405"><ele>179.6</ele><time>2026-04-28T14:04:24.999Z</time></trkpt><trkpt lat="34.56531806863261" lon="-5.032181953496985"><ele>180.8</ele><time>2026-04-28T14:04:25.999Z</time></trkpt><trkpt lat="34.56527064330019" lon="-5.0320803354130055"><ele>182.0</ele><time>2026-04-28T14:04:26.999Z</time></trkpt><trkpt lat="34.565242096917174" lon="-5.03196589960303"><ele>182.8</ele><time>2026-04-28T14:04:27.999Z</time></trkpt><trkpt lat="34.5652337054767" lon="-5.0318398045429165"><ele>183.6</ele><time>2026-04-28T14:04:28.999Z</time></trkpt><trkpt lat="34.56524876860107" lon="-5.031721605487988"><ele>184.4</ele><time>2026-04-28T14:04:29.999Z</time></trkpt><trkpt lat="34.565284110425054" lon="-5.031600746942801"><ele>185.20000000000002</ele><time>2026-04-28T14:04:30.999Z</time></trkpt><trkpt lat="34.56531862465068" lon="-5.031469161348107"><ele>186.0</ele><time>2026-04-28T14:04:31.999Z</time></trkpt><trkpt lat="34.56537684286214" lon="-5.0313519659936805"><ele>186.0</ele><time>2026-04-28T14:04:32.999Z</time></trkpt><trkpt lat="34.565434393403" lon="-5.031255763703586"><ele>186.0</ele><time>2026-04-28T14:04:33.999Z</time></trkpt><trkpt lat="34.565475466398055" lon="-5.0311666315003105"><ele>186.0</ele><time>2026-04-28T14:04:35Z</time></trkpt><trkpt lat="34.565490245156276" lon="-5.031077921381428"><ele>186.0</ele><time>2026-04-28T14:04:36Z</time></trkpt><trkpt lat="34.56548942260687" lon="-5.030987157588972"><ele>186.0</ele><time>2026-04-28T14:04:37Z</time></trkpt><trkpt lat="34.56546799245665" lon="-5.030890018062358"><ele>186.0</ele><time>2026-04-28T14:04:38Z</time></trkpt><trkpt lat="34.5654167220377" lon="-5.030793119250292"><ele>184.20000000000002</ele><time>2026-04-28T14:04:39Z</time></trkpt><trkpt lat="34.56535473599113" lon="-5.030687493415495"><ele>182.4</ele><time>2026-04-28T14:04:40Z</time></trkpt><trkpt lat="34.565291881705534" lon="-5.030580092613303"><ele>180.6</ele><time>2026-04-28T14:04:41Z</time></trkpt><trkpt lat="34.565241360169246" lon="-5.030460982416122"><ele>178.8</ele><time>2026-04-28T14:04:42Z</time></trkpt><trkpt lat="34.56516293123957" lon="-5.030358807100298"><ele>177.0</ele><time>2026-04-28T14:04:43Z</time></trkpt><trkpt lat="34.56510951615966" lon="-5.0302250285255115"><ele>177.0</ele><time>2026-04-28T14:04:44Z</time></trkpt><trkpt lat="34.56506423309036" lon="-5.030106589637515"><ele>177.0</ele><time>2026-04-28T14:04:45Z</time></trkpt><trkpt lat="34.565017042769476" lon="-5.029997403713283"><ele>177.0</ele><time>2026-04-28T14:04:46Z</time></trkpt><trkpt lat="34.564988253511636" lon="-5.029895542005639"><ele>177.0</ele><time>2026-04-28T14:04:47Z</time></trkpt><trkpt lat="34.564938284544176" lon="-5.029830403147672"><ele>177.0</ele><time>2026-04-28T14:04:48Z</time></trkpt><trkpt lat="34.564881140703406" lon="-5.029769824749057"><ele>177.0</ele><time>2026-04-28T14:04:49Z</time></trkpt><trkpt lat="34.564791280515685" lon="-5.029772207546021"><ele>177.83333333333334</ele><time>2026-04-28T14:04:49.999Z</time></trkpt><trkpt lat="34.564706719304354" lon="-5.029791391889822"><ele>178.66666666666666</ele><time>2026-04-28T14:04:50.999Z</time></trkpt><trkpt lat="34.56461931169109" lon="-5.02982022855402"><ele>179.5</ele><time>2026-04-28T14:04:51.999Z</time></trkpt><trkpt lat="34.56452864848009" lon="-5.029857538876295"><ele>180.33333333333331</ele><time>2026-04-28T14:04:52.999Z</time></trkpt><trkpt lat="34.5644468481202" lon="-5.029877941996516"><ele>181.16666666666666</ele><time>2026-04-28T14:04:53.999Z</time></trkpt><trkpt lat="34.56436832876598" lon="-5.0298670614727214"><ele>182.0</ele><time>2026-04-28T14:04:54.999Z</time></trkpt><trkpt lat="34.56428861097574" lon="-5.029821634728926"><ele>182.0</ele><time>2026-04-28T14:04:55.999Z</time></trkpt><trkpt lat="34.56421788574923" lon="-5.029745959795313"><ele>182.0</ele><time>2026-04-28T14:04:56.999Z</time></trkpt><trkpt lat="34.56415034802629" lon="-5.029643164486268"><ele>182.0</ele><time>2026-04-28T14:04:57.999Z</time></trkpt><trkpt lat="34.56408970466218" lon="-5.029525490739913"><ele>182.0</ele><time>2026-04-28T14:04:58.999Z</time></trkpt><trkpt lat="34.564030219581596" lon="-5.02941602169603"><ele>182.0</ele><time>2026-04-28T14:04:59.999Z</time></trkpt><trkpt lat="34.563976534532145" lon="-5.029305298657336"><ele>182.0</ele><time>2026-04-28T14:05:00.999Z</time></trkpt><trkpt lat="34.563914673835" lon="-5.029193538542139"><ele>182.0</ele><time>2026-04-28T14:05:01.999Z</time></trkpt><trkpt lat="34.563876505684604" lon="-5.029060551068999"><ele>182.0</ele><time>2026-04-28T14:05:02.999Z</time></trkpt><trkpt lat="34.563849214226806" lon="-5.028908026946002"><ele>182.0</ele><time>2026-04-28T14:05:03.999Z</time></trkpt><trkpt lat="34.56383297248334" lon="-5.028752205363683"><ele>181.75</ele><time>2026-04-28T14:05:04.999Z</time></trkpt><trkpt lat="34.56384597830517" lon="-5.028575047401421"><ele>181.5</ele><time>2026-04-28T14:05:05.999Z</time></trkpt><trkpt lat="34.56385141728606" lon="-5.02839662489472"><ele>181.25</ele><time>2026-04-28T14:05:06.999Z</time></trkpt><trkpt lat="34.563856760329024" lon="-5.0282216522958345"><ele>181.0</ele><time>2026-04-28T14:05:07.999Z</time></trkpt><trkpt lat="34.56385560484591" lon="-5.028063604443968"><ele>181.0</ele><time>2026-04-28T14:05:08.999Z</time></trkpt><trkpt lat="34.56383335935046" lon="-5.027904621136367"><ele>181.0</ele><time>2026-04-28T14:05:09.999Z</time></trkpt><trkpt lat="34.56380154545715" lon="-5.02774866808813"><ele>181.0</ele><time>2026-04-28T14:05:10.999Z</time></trkpt><trkpt lat="34.56375487178519" lon="-5.027604928307759"><ele>181.0</ele><time>2026-04-28T14:05:11.999Z</time></trkpt><trkpt lat="34.563698513270765" lon="-5.02745383507318"><ele>178.25</ele><time>2026-04-28T14:05:12.999Z</time></trkpt><trkpt lat="34.56361946167048" lon="-5.02732086069153"><ele>175.5</ele><time>2026-04-28T14:05:13.999Z</time></trkpt><trkpt lat="34.563552201813835" lon="-5.027199046187705"><ele>172.75</ele><time>2026-04-28T14:05:14.999Z</time></trkpt><trkpt lat="34.5634955484858" lon="-5.027076088687114"><ele>170.0</ele><time>2026-04-28T14:05:15.999Z</time></trkpt><trkpt lat="34.56345898990806" lon="-5.026967337779138"><ele>170.0</ele><time>2026-04-28T14:05:16.999Z</time></trkpt><trkpt lat="34.56344616798038" lon="-5.026878115403839"><ele>170.0</ele><time>2026-04-28T14:05:17.999Z</time></trkpt><trkpt lat="34.56345349159001" lon="-5.026790708004103"><ele>170.0</ele><time>2026-04-28T14:05:18.999Z</time></trkpt><trkpt lat="34.563489886776985" lon="-5.026680096938346"><ele>170.0</ele><time>2026-04-28T14:05:19.999Z</time></trkpt><trkpt lat="34.56353533758014" lon="-5.026550516700255"><ele>170.0</ele><time>2026-04-28T14:05:20.999Z</time></trkpt><trkpt lat="34.563595845877614" lon="-5.026414092068974"><ele>168.75</ele><time>2026-04-28T14:05:21.999Z</time></trkpt><trkpt lat="34.56365793513151" lon="-5.026273593195192"><ele>167.5</ele><time>2026-04-28T14:05:22.999Z</time></trkpt><trkpt lat="34.56372052851427" lon="-5.026132515615706"><ele>166.25</ele><time>2026-04-28T14:05:23.999Z</time></trkpt><trkpt lat="34.56376740615711" lon="-5.026000114089923"><ele>165.0</ele><time>2026-04-28T14:05:24.999Z</time></trkpt><trkpt lat="34.56380594507525" lon="-5.025864334959909"><ele>168.4</ele><time>2026-04-28T14:05:25.999Z</time></trkpt><trkpt lat="34.56381585572274" lon="-5.025728138419367"><ele>171.8</ele><time>2026-04-28T14:05:26.999Z</time></trkpt><trkpt lat="34.56383313824297" lon="-5.025587157266199"><ele>175.2</ele><time>2026-04-28T14:05:27.999Z</time></trkpt><trkpt lat="34.56384910797188" lon="-5.025456858993373"><ele>178.6</ele><time>2026-04-28T14:05:28.999Z</time></trkpt><trkpt lat="34.56384405023703" lon="-5.0253311479774805"><ele>182.0</ele><time>2026-04-28T14:05:29.999Z</time></trkpt><trkpt lat="34.563841680474496" lon="-5.025187219048329"><ele>182.0</ele><time>2026-04-28T14:05:30.999Z</time></trkpt><trkpt lat="34.56383752278033" lon="-5.025028880681218"><ele>182.0</ele><time>2026-04-28T14:05:31.999Z</time></trkpt><trkpt lat="34.563841315600236" lon="-5.024861345152535"><ele>182.0</ele><time>2026-04-28T14:05:32.999Z</time></trkpt><trkpt lat="34.56383237639319" lon="-5.024710956393444"><ele>182.0</ele><time>2026-04-28T14:05:33.999Z</time></trkpt><trkpt lat="34.56383265634416" lon="-5.024588757926166"><ele>180.33333333333331</ele><time>2026-04-28T14:05:34.999Z</time></trkpt><trkpt lat="34.5638469044858" lon="-5.024498406172916"><ele>178.66666666666666</ele><time>2026-04-28T14:05:35.999Z</time></trkpt><trkpt lat="34.56385891760141" lon="-5.024416498154367"><ele>177.0</ele><time>2026-04-28T14:05:36.999Z</time></trkpt><trkpt lat="34.56391573454032" lon="-5.024343990338565"><ele>175.33333333333334</ele><time>2026-04-28T14:05:37.999Z</time></trkpt><trkpt lat="34.56398735224738" lon="-5.024290009710644"><ele>173.66666666666669</ele><time>2026-04-28T14:05:38.999Z</time></trkpt><trkpt lat="34.56407388571332" lon="-5.02426197783232"><ele>172.0</ele><time>2026-04-28T14:05:39.999Z</time></trkpt><trkpt lat="34.564182936691395" lon="-5.024296855899365"><ele>172.0</ele><time>2026-04-28T14:05:40.999Z</time></trkpt><trkpt lat="34.5642733674851" lon="-5.024349715543335"><ele>172.0</ele><time>2026-04-28T14:05:41.999Z</time></trkpt><trkpt lat="34.56436112250717" lon="-5.024407542564701"><ele>172.0</ele><time>2026-04-28T14:05:42.999Z</time></trkpt><trkpt lat="34.56443689393599" lon="-5.024452231876857"><ele>172.0</ele><time>2026-04-28T14:05:43.999Z</time></trkpt><trkpt lat="34.56451891662915" lon="-5.024462088013625"><ele>172.0</ele><time>2026-04-28T14:05:44.999Z</time></trkpt><trkpt lat="34.564594864566324" lon="-5.024434386397958"><ele>172.0</ele><time>2026-04-28T14:05:45.999Z</time></trkpt><trkpt lat="34.564679614875025" lon="-5.024372945941302"><ele>172.5</ele><time>2026-04-28T14:05:46.999Z</time></trkpt><trkpt lat="34.56476162978467" lon="-5.024285946304123"><ele>173.0</ele><time>2026-04-28T14:05:47.999Z</time></trkpt><trkpt lat="34.56486251609554" lon="-5.024215481262968"><ele>173.5</ele><time>2026-04-28T14:05:48.999Z</time></trkpt><trkpt lat="34.56496999897494" lon="-5.024167106361368"><ele>174.0</ele><time>2026-04-28T14:05:49.999Z</time></trkpt><trkpt lat="34.56508727982382" lon="-5.024077449616666"><ele>174.0</ele><time>2026-04-28T14:05:50.999Z</time></trkpt><trkpt lat="34.565216199049466" lon="-5.024015208059234"><ele>174.0</ele><time>2026-04-28T14:05:51.999Z</time></trkpt><trkpt lat="34.565344448373544" lon="-5.023952846161187"><ele>174.0</ele><time>2026-04-28T14:05:52.999Z</time></trkpt><trkpt lat="34.5654724579586" lon="-5.023890504608171"><ele>174.0</ele><time>2026-04-28T14:05:53.999Z</time></trkpt><trkpt lat="34.565599802018845" lon="-5.023826410914102"><ele>177.5</ele><time>2026-04-28T14:05:54.999Z</time></trkpt><trkpt lat="34.56572740738244" lon="-5.0237628099535705"><ele>181.0</ele><time>2026-04-28T14:05:55.999Z</time></trkpt><trkpt lat="34.56585728862638" lon="-5.023698533839386"><ele>184.5</ele><time>2026-04-28T14:05:56.999Z</time></trkpt><trkpt lat="34.56599173838296" lon="-5.023632360288216"><ele>188.0</ele><time>2026-04-28T14:05:57.999Z</time></trkpt><trkpt lat="34.56612254328357" lon="-5.02357090542378"><ele>193.66666666666666</ele><time>2026-04-28T14:05:58.999Z</time></trkpt><trkpt lat="34.566267641783" lon="-5.0235348990244"><ele>199.33333333333331</ele><time>2026-04-28T14:05:59.999Z</time></trkpt><trkpt lat="34.566423152897194" lon="-5.02355759597388"><ele>205.0</ele><time>2026-04-28T14:06:00.999Z</time></trkpt><trkpt lat="34.56657436312074" lon="-5.023557769638906"><ele>205.0</ele><time>2026-04-28T14:06:01.999Z</time></trkpt><trkpt lat="34.56671406451665" lon="-5.023572388743169"><ele>205.0</ele><time>2026-04-28T14:06:02.999Z</time></trkpt><trkpt lat="34.56684326472182" lon="-5.0235859780740935"><ele>205.0</ele><time>2026-04-28T14:06:03.999Z</time></trkpt><trkpt lat="34.5669422935241" lon="-5.023543186895479"><ele>205.0</ele><time>2026-04-28T14:06:04.999Z</time></trkpt><trkpt lat="34.567030276648886" lon="-5.0234798072519355"><ele>206.0</ele><time>2026-04-28T14:06:05.999Z</time></trkpt><trkpt lat="34.567110802232044" lon="-5.023390395867699"><ele>207.0</ele><time>2026-04-28T14:06:06.999Z</time></trkpt><trkpt lat="34.56717826128939" lon="-5.02328409857951"><ele>208.0</ele><time>2026-04-28T14:06:07.999Z</time></trkpt><trkpt lat="34.56722807383272" lon="-5.023145058514658"><ele>209.0</ele><time>2026-04-28T14:06:08.999Z</time></trkpt><trkpt lat="34.56729436433664" lon="-5.022979146706313"><ele>209.0</ele><time>2026-04-28T14:06:09.999Z</time></trkpt><trkpt lat="34.56736533525497" lon="-5.022802252626435"><ele>209.0</ele><time>2026-04-28T14:06:10.999Z</time></trkpt><trkpt lat="34.56743814406979" lon="-5.022620240540681"><ele>209.0</ele><time>2026-04-28T14:06:11.999Z</time></trkpt><trkpt lat="34.567549860190105" lon="-5.022465020542007"><ele>206.25</ele><time>2026-04-28T14:06:12.999Z</time></trkpt><trkpt lat="34.56765362084654" lon="-5.0223352165852795"><ele>203.5</ele><time>2026-04-28T14:06:13.999Z</time></trkpt><trkpt lat="34.56775438366517" lon="-5.022210108713203"><ele>200.75</ele><time>2026-04-28T14:06:14.999Z</time></trkpt><trkpt lat="34.56782871026691" lon="-5.022097979272456"><ele>198.0</ele><time>2026-04-28T14:06:15.999Z</time></trkpt><trkpt lat="34.567889452527645" lon="-5.021976072083491"><ele>198.0</ele><time>2026-04-28T14:06:16.999Z</time></trkpt><trkpt lat="34.56784241670217" lon="-5.021860753948537"><ele>198.0</ele><time>2026-04-28T14:06:17.999Z</time></trkpt><trkpt lat="34.567819055223765" lon="-5.021706459363728"><ele>198.0</ele><time>2026-04-28T14:06:18.999Z</time></trkpt><trkpt lat="34.56779480906122" lon="-5.021532423544571"><ele>198.0</ele><time>2026-04-28T14:06:19.999Z</time></trkpt><trkpt lat="34.56777262028715" lon="-5.021377670081394"><ele>197.0</ele><time>2026-04-28T14:06:20.999Z</time></trkpt><trkpt lat="34.56776476446631" lon="-5.02123739897463"><ele>196.0</ele><time>2026-04-28T14:06:21.999Z</time></trkpt><trkpt lat="34.56774772256926" lon="-5.021135937749987"><ele>195.0</ele><time>2026-04-28T14:06:22.999Z</time></trkpt><trkpt lat="34.56774662030475" lon="-5.0210128327120875"><ele>194.0</ele><time>2026-04-28T14:06:24.999Z</time></trkpt><trkpt lat="34.567817677267044" lon="-5.020848119737482"><ele>196.5</ele><time>2026-04-28T14:06:26.999Z</time></trkpt><trkpt lat="34.56790133344542" lon="-5.0207528101734304"><ele>199.0</ele><time>2026-04-28T14:06:27.999Z</time></trkpt><trkpt lat="34.56797493789289" lon="-5.020635900291188"><ele>201.5</ele><time>2026-04-28T14:06:28.999Z</time></trkpt><trkpt lat="34.5680528763878" lon="-5.0205121065041896"><ele>204.0</ele><time>2026-04-28T14:06:29.999Z</time></trkpt><trkpt lat="34.56812664227581" lon="-5.020394940289364"><ele>204.0</ele><time>2026-04-28T14:06:31Z</time></trkpt><trkpt lat="34.56820257010603" lon="-5.020285335233068"><ele>204.0</ele><time>2026-04-28T14:06:32Z</time></trkpt><trkpt lat="34.568244046368285" lon="-5.02016666461632"><ele>204.0</ele><time>2026-04-28T14:06:33Z</time></trkpt><trkpt lat="34.56830324023031" lon="-5.020046903988201"><ele>204.0</ele><time>2026-04-28T14:06:34Z</time></trkpt><trkpt lat="34.56837266832292" lon="-5.019924443656685"><ele>202.0</ele><time>2026-04-28T14:06:35Z</time></trkpt><trkpt lat="34.56844509928731" lon="-5.019792683702983"><ele>200.0</ele><time>2026-04-28T14:06:36Z</time></trkpt><trkpt lat="34.568500196066566" lon="-5.019672155024483"><ele>198.0</ele><time>2026-04-28T14:06:37Z</time></trkpt><trkpt lat="34.56855771484154" lon="-5.019561906150941"><ele>196.0</ele><time>2026-04-28T14:06:38Z</time></trkpt><trkpt lat="34.568620161690845" lon="-5.019461620049239"><ele>196.0</ele><time>2026-04-28T14:06:39Z</time></trkpt><trkpt lat="34.568682626158335" lon="-5.019371736313312"><ele>196.0</ele><time>2026-04-28T14:06:40Z</time></trkpt><trkpt lat="34.56875014684006" lon="-5.019287690971556"><ele>196.0</ele><time>2026-04-28T14:06:41Z</time></trkpt><trkpt lat="34.56881751334916" lon="-5.0192042626228295"><ele>196.0</ele><time>2026-04-28T14:06:42Z</time></trkpt><trkpt lat="34.56887905838152" lon="-5.019109747676917"><ele>196.0</ele><time>2026-04-28T14:06:43Z</time></trkpt><trkpt lat="34.568926559745734" lon="-5.018991481497931"><ele>197.20000000000002</ele><time>2026-04-28T14:06:44Z</time></trkpt><trkpt lat="34.56896340280326" lon="-5.0188716965242"><ele>198.4</ele><time>2026-04-28T14:06:45Z</time></trkpt><trkpt lat="34.56897611478665" lon="-5.018754527728666"><ele>199.6</ele><time>2026-04-28T14:06:46Z</time></trkpt><trkpt lat="34.56896477372655" lon="-5.018631265331682"><ele>200.8</ele><time>2026-04-28T14:06:47Z</time></trkpt><trkpt lat="34.568932372614476" lon="-5.01850350759345"><ele>202.0</ele><time>2026-04-28T14:06:48Z</time></trkpt><trkpt lat="34.56888557276069" lon="-5.018386009979364"><ele>202.6</ele><time>2026-04-28T14:06:49Z</time></trkpt><trkpt lat="34.5688398637321" lon="-5.018274699080063"><ele>203.2</ele><time>2026-04-28T14:06:50Z</time></trkpt><trkpt lat="34.56877951480671" lon="-5.018164935926197"><ele>203.8</ele><time>2026-04-28T14:06:51Z</time></trkpt><trkpt lat="34.568704243069114" lon="-5.018067518161516"><ele>204.4</ele><time>2026-04-28T14:06:52Z</time></trkpt><trkpt lat="34.56861115612389" lon="-5.017989402898924"><ele>205.0</ele><time>2026-04-28T14:06:53Z</time></trkpt><trkpt lat="34.568508777742124" lon="-5.017933678315796"><ele>207.2</ele><time>2026-04-28T14:06:54Z</time></trkpt><trkpt lat="34.56841380597852" lon="-5.01790120550507"><ele>209.4</ele><time>2026-04-28T14:06:55Z</time></trkpt><trkpt lat="34.56832331887662" lon="-5.017892888028102"><ele>211.60000000000002</ele><time>2026-04-28T14:06:56Z</time></trkpt><trkpt lat="34.568237339300936" lon="-5.017907196354671"><ele>213.8</ele><time>2026-04-28T14:06:57Z</time></trkpt><trkpt lat="34.56815325364653" lon="-5.017943660457717"><ele>216.0</ele><time>2026-04-28T14:06:58Z</time></trkpt><trkpt lat="34.568069045271315" lon="-5.018013903607443"><ele>216.0</ele><time>2026-04-28T14:06:59Z</time></trkpt><trkpt lat="34.56797906697321" lon="-5.0181079047045545"><ele>216.0</ele><time>2026-04-28T14:07:00Z</time></trkpt><trkpt lat="34.56788347556777" lon="-5.0182100253423485"><ele>216.0</ele><time>2026-04-28T14:07:01Z</time></trkpt><trkpt lat="34.56779672877388" lon="-5.0183067685403575"><ele>216.0</ele><time>2026-04-28T14:07:02Z</time></trkpt><trkpt lat="34.5676932870043" lon="-5.018406082733265"><ele>219.75</ele><time>2026-04-28T14:07:03Z</time></trkpt><trkpt lat="34.56759223617493" lon="-5.018508437347064"><ele>223.5</ele><time>2026-04-28T14:07:04Z</time></trkpt><trkpt lat="34.56749192535313" lon="-5.018613765597435"><ele>227.25</ele><time>2026-04-28T14:07:05Z</time></trkpt><trkpt lat="34.567385918007346" lon="-5.018721052728227"><ele>231.0</ele><time>2026-04-28T14:07:06Z</time></trkpt><trkpt lat="34.56728108771482" lon="-5.018829006722222"><ele>231.0</ele><time>2026-04-28T14:07:07Z</time></trkpt><trkpt lat="34.56717400997217" lon="-5.01893181655946"><ele>231.0</ele><time>2026-04-28T14:07:08Z</time></trkpt><trkpt lat="34.56707031107247" lon="-5.019025644830812"><ele>231.0</ele><time>2026-04-28T14:07:09Z</time></trkpt><trkpt lat="34.56696876447401" lon="-5.019126210884158"><ele>231.0</ele><time>2026-04-28T14:07:10Z</time></trkpt><trkpt lat="34.56686823242766" lon="-5.0192278230442655"><ele>231.0</ele><time>2026-04-28T14:07:11Z</time></trkpt><trkpt lat="34.56675858417111" lon="-5.019323716286415"><ele>231.0</ele><time>2026-04-28T14:07:12Z</time></trkpt><trkpt lat="34.56664091459153" lon="-5.019406375453684"><ele>231.0</ele><time>2026-04-28T14:07:12.999Z</time></trkpt><trkpt lat="34.56651399219949" lon="-5.019476999289037"><ele>231.0</ele><time>2026-04-28T14:07:13.999Z</time></trkpt><trkpt lat="34.566379410086796" lon="-5.0195467221070444"><ele>231.0</ele><time>2026-04-28T14:07:14.999Z</time></trkpt><trkpt lat="34.56624502417337" lon="-5.019616366881344"><ele>231.0</ele><time>2026-04-28T14:07:15.999Z</time></trkpt><trkpt lat="34.566115351245934" lon="-5.019680455402999"><ele>231.0</ele><time>2026-04-28T14:07:16.999Z</time></trkpt><trkpt lat="34.565977424244466" lon="-5.019742894772995"><ele>231.0</ele><time>2026-04-28T14:07:17.999Z</time></trkpt><trkpt lat="34.565823930343704" lon="-5.019792442512814"><ele>232.0</ele><time>2026-04-28T14:07:18.999Z</time></trkpt><trkpt lat="34.56565179455608" lon="-5.019820924054723"><ele>233.0</ele><time>2026-04-28T14:07:19.999Z</time></trkpt><trkpt lat="34.56547230203521" lon="-5.019836773666519"><ele>234.0</ele><time>2026-04-28T14:07:20.999Z</time></trkpt><trkpt lat="34.56529465199786" lon="-5.0198495940832455"><ele>234.0</ele><time>2026-04-28T14:07:21.999Z</time></trkpt><trkpt lat="34.56512406506224" lon="-5.019857544664111"><ele>234.0</ele><time>2026-04-28T14:07:22.999Z</time></trkpt><trkpt lat="34.56496916483757" lon="-5.019865142641685"><ele>234.0</ele><time>2026-04-28T14:07:23.999Z</time></trkpt><trkpt lat="34.56482660253687" lon="-5.019871528055534"><ele>234.0</ele><time>2026-04-28T14:07:24.999Z</time></trkpt><trkpt lat="34.56469161659948" lon="-5.019877962564558"><ele>234.0</ele><time>2026-04-28T14:07:25.999Z</time></trkpt><trkpt lat="34.564564421842846" lon="-5.0198825714737465"><ele>234.0</ele><time>2026-04-28T14:07:26.999Z</time></trkpt><trkpt lat="34.564442879412894" lon="-5.019888861259853"><ele>234.0</ele><time>2026-04-28T14:07:27.999Z</time></trkpt><trkpt lat="34.56432255299934" lon="-5.019894732141333"><ele>234.2</ele><time>2026-04-28T14:07:28.999Z</time></trkpt><trkpt lat="34.564199528813724" lon="-5.019898727171862"><ele>234.39999999999998</ele><time>2026-04-28T14:07:29.999Z</time></trkpt><trkpt lat="34.564084602980905" lon="-5.019907523602754"><ele>234.6</ele><time>2026-04-28T14:07:30.999Z</time></trkpt><trkpt lat="34.56398384005608" lon="-5.019918714806612"><ele>234.8</ele><time>2026-04-28T14:07:31.999Z</time></trkpt><trkpt lat="34.56390049080136" lon="-5.019947761193465"><ele>235.0</ele><time>2026-04-28T14:07:32.999Z</time></trkpt><trkpt lat="34.56383173010237" lon="-5.020017228543096"><ele>232.4</ele><time>2026-04-28T14:07:33.999Z</time></trkpt><trkpt lat="34.56378453091114" lon="-5.020112359973174"><ele>229.8</ele><time>2026-04-28T14:07:34.999Z</time></trkpt><trkpt lat="34.563768483829996" lon="-5.020230657439714"><ele>227.2</ele><time>2026-04-28T14:07:35.999Z</time></trkpt><trkpt lat="34.56378709436607" lon="-5.020344305842263"><ele>224.6</ele><time>2026-04-28T14:07:36.999Z</time></trkpt><trkpt lat="34.563826206870104" lon="-5.02045522843882"><ele>222.0</ele><time>2026-04-28T14:07:37.999Z</time></trkpt><trkpt lat="34.56385882450226" lon="-5.020570125848997"><ele>222.0</ele><time>2026-04-28T14:07:38.999Z</time></trkpt><trkpt lat="34.56388985689706" lon="-5.020689355157661"><ele>222.0</ele><time>2026-04-28T14:07:39.999Z</time></trkpt><trkpt lat="34.56391643657755" lon="-5.020802600285351"><ele>222.0</ele><time>2026-04-28T14:07:40.999Z</time></trkpt><trkpt lat="34.56391949046944" lon="-5.020917027342314"><ele>222.0</ele><time>2026-04-28T14:07:41.999Z</time></trkpt><trkpt lat="34.563897944369664" lon="-5.021039376559093"><ele>222.0</ele><time>2026-04-28T14:07:42.999Z</time></trkpt><trkpt lat="34.563858244620086" lon="-5.02116304511106"><ele>220.5</ele><time>2026-04-28T14:07:43.999Z</time></trkpt><trkpt lat="34.56380150066188" lon="-5.021281966474971"><ele>219.0</ele><time>2026-04-28T14:07:44.999Z</time></trkpt><trkpt lat="34.563726160135744" lon="-5.021390724509181"><ele>217.5</ele><time>2026-04-28T14:07:45.999Z</time></trkpt><trkpt lat="34.56363411921435" lon="-5.021480138768946"><ele>216.0</ele><time>2026-04-28T14:07:46.999Z</time></trkpt><trkpt lat="34.563532385071724" lon="-5.021552702831884"><ele>217.0</ele><time>2026-04-28T14:07:47.999Z</time></trkpt><trkpt lat="34.56343455144383" lon="-5.021615781579706"><ele>218.0</ele><time>2026-04-28T14:07:48.999Z</time></trkpt><trkpt lat="34.56332485387709" lon="-5.021660900888224"><ele>219.0</ele><time>2026-04-28T14:07:49.999Z</time></trkpt><trkpt lat="34.56319831357575" lon="-5.021680652189234"><ele>220.0</ele><time>2026-04-28T14:07:50.999Z</time></trkpt><trkpt lat="34.56306338255499" lon="-5.021702802921941"><ele>220.0</ele><time>2026-04-28T14:07:51.999Z</time></trkpt><trkpt lat="34.562924395546425" lon="-5.021731454626785"><ele>220.0</ele><time>2026-04-28T14:07:52.999Z</time></trkpt><trkpt lat="34.5627862376865" lon="-5.021762264084875"><ele>220.0</ele><time>2026-04-28T14:07:53.999Z</time></trkpt><trkpt lat="34.56266377850751" lon="-5.021790771239103"><ele>220.0</ele><time>2026-04-28T14:07:54.999Z</time></trkpt><trkpt lat="34.56255603983866" lon="-5.021803989191005"><ele>221.75</ele><time>2026-04-28T14:07:55.999Z</time></trkpt><trkpt lat="34.5624356134426" lon="-5.021805646316142"><ele>223.5</ele><time>2026-04-28T14:07:56.999Z</time></trkpt><trkpt lat="34.56230361933259" lon="-5.02181468764617"><ele>225.25</ele><time>2026-04-28T14:07:57.999Z</time></trkpt><trkpt lat="34.56216497388386" lon="-5.021816074786604"><ele>227.0</ele><time>2026-04-28T14:07:58.999Z</time></trkpt><trkpt lat="34.562033927128056" lon="-5.02181081344082"><ele>227.0</ele><time>2026-04-28T14:07:59.999Z</time></trkpt><trkpt lat="34.56191588485937" lon="-5.021807638113743"><ele>227.0</ele><time>2026-04-28T14:08:00.999Z</time></trkpt><trkpt lat="34.561809994409764" lon="-5.0217978800751135"><ele>227.0</ele><time>2026-04-28T14:08:01.999Z</time></trkpt><trkpt lat="34.56171036841628" lon="-5.021783630339302"><ele>227.0</ele><time>2026-04-28T14:08:02.999Z</time></trkpt><trkpt lat="34.561607480400724" lon="-5.021774219417197"><ele>227.0</ele><time>2026-04-28T14:08:03.999Z</time></trkpt><trkpt lat="34.56151315437381" lon="-5.021776886584971"><ele>227.0</ele><time>2026-04-28T14:08:04.999Z</time></trkpt><trkpt lat="34.56143217377552" lon="-5.021772198726044"><ele>227.0</ele><time>2026-04-28T14:08:05.999Z</time></trkpt><trkpt lat="34.56136786438333" lon="-5.0217521202975535"><ele>227.0</ele><time>2026-04-28T14:08:06.999Z</time></trkpt><trkpt lat="34.56127281604065" lon="-5.021685406959622"><ele>227.0</ele><time>2026-04-28T14:08:08.999Z</time></trkpt><trkpt lat="34.5612010168035" lon="-5.021551318418859"><ele>227.0</ele><time>2026-04-28T14:08:10.999Z</time></trkpt><trkpt lat="34.56122653185828" lon="-5.021386450459334"><ele>229.39999999999998</ele><time>2026-04-28T14:08:12.999Z</time></trkpt><trkpt lat="34.56131977864306" lon="-5.0213236779152215"><ele>231.79999999999998</ele><time>2026-04-28T14:08:13.999Z</time></trkpt><trkpt lat="34.5614051588368" lon="-5.021264885023761"><ele>234.2</ele><time>2026-04-28T14:08:14.999Z</time></trkpt><trkpt lat="34.56149461699225" lon="-5.021216054095933"><ele>236.6</ele><time>2026-04-28T14:08:15.999Z</time></trkpt><trkpt lat="34.561591557863224" lon="-5.021163483714431"><ele>239.0</ele><time>2026-04-28T14:08:16.999Z</time></trkpt><trkpt lat="34.56169784403859" lon="-5.021105845444954"><ele>239.0</ele><time>2026-04-28T14:08:17.999Z</time></trkpt><trkpt lat="34.56180327619103" lon="-5.0210485622454994"><ele>239.0</ele><time>2026-04-28T14:08:18.999Z</time></trkpt><trkpt lat="34.56190982896967" lon="-5.0209901190774175"><ele>239.0</ele><time>2026-04-28T14:08:19.999Z</time></trkpt><trkpt lat="34.562032622942205" lon="-5.020945784147683"><ele>239.0</ele><time>2026-04-28T14:08:20.999Z</time></trkpt><trkpt lat="34.562160286347485" lon="-5.020905762241127"><ele>239.0</ele><time>2026-04-28T14:08:21.999Z</time></trkpt><trkpt lat="34.56228608716124" lon="-5.020874347060061"><ele>239.0</ele><time>2026-04-28T14:08:22.999Z</time></trkpt><trkpt lat="34.56240374851658" lon="-5.0208453455252995"><ele>239.0</ele><time>2026-04-28T14:08:23.999Z</time></trkpt><trkpt lat="34.56249979189226" lon="-5.020802347206185"><ele>239.0</ele><time>2026-04-28T14:08:24.999Z</time></trkpt><trkpt lat="34.56258380362002" lon="-5.0207374750192635"><ele>241.0</ele><time>2026-04-28T14:08:25.999Z</time></trkpt><trkpt lat="34.562663606758306" lon="-5.020657373974914"><ele>242.99999999999997</ele><time>2026-04-28T14:08:26.999Z</time></trkpt><trkpt lat="34.562735212365" lon="-5.020578516407249"><ele>244.99999999999997</ele><time>2026-04-28T14:08:27.999Z</time></trkpt><trkpt lat="34.56276335225293" lon="-5.020484801099222"><ele>247.0</ele><time>2026-04-28T14:08:28.999Z</time></trkpt><trkpt lat="34.56276449482803" lon="-5.020389268595658"><ele>249.0</ele><time>2026-04-28T14:08:29.999Z</time></trkpt><trkpt lat="34.562729233923484" lon="-5.020287727024655"><ele>249.0</ele><time>2026-04-28T14:08:30.999Z</time></trkpt><trkpt lat="34.56268249932141" lon="-5.020177826191422"><ele>249.0</ele><time>2026-04-28T14:08:31.999Z</time></trkpt><trkpt lat="34.56263619403202" lon="-5.020052270683941"><ele>249.0</ele><time>2026-04-28T14:08:32.999Z</time></trkpt><trkpt lat="34.56258212756669" lon="-5.019919773090178"><ele>249.0</ele><time>2026-04-28T14:08:33.999Z</time></trkpt><trkpt lat="34.56252437401446" lon="-5.019778414829828"><ele>249.0</ele><time>2026-04-28T14:08:34.999Z</time></trkpt><trkpt lat="34.56247505130048" lon="-5.019622679778818"><ele>249.0</ele><time>2026-04-28T14:08:35.999Z</time></trkpt><trkpt lat="34.56241331114217" lon="-5.0194707604662145"><ele>249.0</ele><time>2026-04-28T14:08:37Z</time></trkpt><trkpt lat="34.56235399319141" lon="-5.0193127533259485"><ele>249.0</ele><time>2026-04-28T14:08:38Z</time></trkpt><trkpt lat="34.56226059752926" lon="-5.019178806359252"><ele>249.6</ele><time>2026-04-28T14:08:39Z</time></trkpt><trkpt lat="34.56219909220227" lon="-5.019043682299724"><ele>250.2</ele><time>2026-04-28T14:08:40Z</time></trkpt><trkpt lat="34.56213488176516" lon="-5.018937529039311"><ele>250.79999999999998</ele><time>2026-04-28T14:08:41Z</time></trkpt><trkpt lat="34.56208340054228" lon="-5.0188389432720335"><ele>251.39999999999998</ele><time>2026-04-28T14:08:42Z</time></trkpt><trkpt lat="34.56202451869573" lon="-5.018759991765886"><ele>252.0</ele><time>2026-04-28T14:08:43Z</time></trkpt><trkpt lat="34.561987577849465" lon="-5.018645970218836"><ele>252.0</ele><time>2026-04-28T14:08:44Z</time></trkpt><trkpt lat="34.56199255242008" lon="-5.018528515297059"><ele>252.0</ele><time>2026-04-28T14:08:45Z</time></trkpt><trkpt lat="34.562056088607946" lon="-5.018412869663544"><ele>252.0</ele><time>2026-04-28T14:08:46Z</time></trkpt><trkpt lat="34.56215699390225" lon="-5.018343859223423"><ele>252.0</ele><time>2026-04-28T14:08:47Z</time></trkpt><trkpt lat="34.56223695951049" lon="-5.018242329343079"><ele>252.0</ele><time>2026-04-28T14:08:48Z</time></trkpt><trkpt lat="34.562332285579735" lon="-5.0181502436391305"><ele>254.0</ele><time>2026-04-28T14:08:49Z</time></trkpt><trkpt lat="34.562359076069285" lon="-5.018015880354278"><ele>256.0</ele><time>2026-04-28T14:08:50Z</time></trkpt><trkpt lat="34.56236378908472" lon="-5.017893744600957"><ele>258.0</ele><time>2026-04-28T14:08:51Z</time></trkpt><trkpt lat="34.56238760335743" lon="-5.0177564281720635"><ele>260.0</ele><time>2026-04-28T14:08:52Z</time></trkpt><trkpt lat="34.56239450117857" lon="-5.017610079659401"><ele>257.75</ele><time>2026-04-28T14:08:53Z</time></trkpt><trkpt lat="34.5624143514052" lon="-5.017481539862852"><ele>255.5</ele><time>2026-04-28T14:08:54Z</time></trkpt><trkpt lat="34.56246699325047" lon="-5.017365946909428"><ele>253.25</ele><time>2026-04-28T14:08:55Z</time></trkpt><trkpt lat="34.56256231305197" lon="-5.017262128257615"><ele>251.0</ele><time>2026-04-28T14:08:56Z</time></trkpt><trkpt lat="34.562666855413205" lon="-5.017148467974795"><ele>251.0</ele><time>2026-04-28T14:08:57Z</time></trkpt><trkpt lat="34.56278246077967" lon="-5.017035559782609"><ele>251.0</ele><time>2026-04-28T14:08:58Z</time></trkpt><trkpt lat="34.5628960400555" lon="-5.016925004348881"><ele>251.0</ele><time>2026-04-28T14:08:59Z</time></trkpt><trkpt lat="34.56299539999902" lon="-5.016828777817415"><ele>251.0</ele><time>2026-04-28T14:09:00Z</time></trkpt><trkpt lat="34.563082175566095" lon="-5.016742541971715"><ele>254.75</ele><time>2026-04-28T14:09:01Z</time></trkpt><trkpt lat="34.56313492626705" lon="-5.016637207704025"><ele>258.5</ele><time>2026-04-28T14:09:02Z</time></trkpt><trkpt lat="34.56317081130296" lon="-5.016521506457089"><ele>262.25</ele><time>2026-04-28T14:09:03Z</time></trkpt><trkpt lat="34.563216840218224" lon="-5.016372161295034"><ele>266.0</ele><time>2026-04-28T14:09:04Z</time></trkpt><trkpt lat="34.56327141899677" lon="-5.016229913300464"><ele>266.0</ele><time>2026-04-28T14:09:05Z</time></trkpt><trkpt lat="34.563308370514676" lon="-5.0160755020550605"><ele>266.0</ele><time>2026-04-28T14:09:06Z</time></trkpt><trkpt lat="34.56337619772179" lon="-5.015961194732676"><ele>266.0</ele><time>2026-04-28T14:09:07Z</time></trkpt><trkpt lat="34.56342602335029" lon="-5.015836519924397"><ele>266.0</ele><time>2026-04-28T14:09:08Z</time></trkpt><trkpt lat="34.563486477508114" lon="-5.015706771771335"><ele>263.5</ele><time>2026-04-28T14:09:09Z</time></trkpt><trkpt lat="34.56355050548026" lon="-5.015598194826031"><ele>261.0</ele><time>2026-04-28T14:09:10Z</time></trkpt><trkpt lat="34.56361637660376" lon="-5.015483682770057"><ele>258.5</ele><time>2026-04-28T14:09:11Z</time></trkpt><trkpt lat="34.563669358356265" lon="-5.0153467607216"><ele>256.0</ele><time>2026-04-28T14:09:12Z</time></trkpt><trkpt lat="34.5637340839368" lon="-5.015218222270774"><ele>260.8</ele><time>2026-04-28T14:09:13Z</time></trkpt><trkpt lat="34.56379034220231" lon="-5.015092089396375"><ele>265.6</ele><time>2026-04-28T14:09:14Z</time></trkpt><trkpt lat="34.56383634269486" lon="-5.01496739140794"><ele>270.4</ele><time>2026-04-28T14:09:15Z</time></trkpt><trkpt lat="34.563868843657" lon="-5.01484944005421"><ele>275.2</ele><time>2026-04-28T14:09:16Z</time></trkpt><trkpt lat="34.56384891999736" lon="-5.0147263784242035"><ele>280.0</ele><time>2026-04-28T14:09:17Z</time></trkpt><trkpt lat="34.56383045711014" lon="-5.014613267944995"><ele>281.2</ele><time>2026-04-28T14:09:18Z</time></trkpt><trkpt lat="34.56381565534992" lon="-5.014485507115871"><ele>282.4</ele><time>2026-04-28T14:09:19Z</time></trkpt><trkpt lat="34.56376512102271" lon="-5.014373196603249"><ele>283.6</ele><time>2026-04-28T14:09:20Z</time></trkpt><trkpt lat="34.56371269786169" lon="-5.014253495169081"><ele>284.8</ele><time>2026-04-28T14:09:21Z</time></trkpt><trkpt lat="34.56366095898472" lon="-5.014125147673834"><ele>286.0</ele><time>2026-04-28T14:09:22Z</time></trkpt><trkpt lat="34.56361208214463" lon="-5.014000805266681"><ele>282.6</ele><time>2026-04-28T14:09:23Z</time></trkpt><trkpt lat="34.563574463974405" lon="-5.0138845523066085"><ele>279.20000000000005</ele><time>2026-04-28T14:09:24Z</time></trkpt><trkpt lat="34.56354766842846" lon="-5.013779496323606"><ele>275.79999999999995</ele><time>2026-04-28T14:09:25Z</time></trkpt><trkpt lat="34.56352071315114" lon="-5.013661998530285"><ele>272.4</ele><time>2026-04-28T14:09:26Z</time></trkpt><trkpt lat="34.56351458582545" lon="-5.013571710696844"><ele>269.0</ele><time>2026-04-28T14:09:27Z</time></trkpt><trkpt lat="34.563504879260435" lon="-5.013468843646606"><ele>269.0</ele><time>2026-04-28T14:09:28Z</time></trkpt><trkpt lat="34.56350493856858" lon="-5.013381040856572"><ele>269.0</ele><time>2026-04-28T14:09:28.999Z</time></trkpt><trkpt lat="34.563530198982484" lon="-5.013292625978389"><ele>269.0</ele><time>2026-04-28T14:09:29.999Z</time></trkpt><trkpt lat="34.5635424010853" lon="-5.013202829866662"><ele>269.0</ele><time>2026-04-28T14:09:30.999Z</time></trkpt><trkpt lat="34.563568317507674" lon="-5.013100944055733"><ele>269.0</ele><time>2026-04-28T14:09:31.999Z</time></trkpt><trkpt lat="34.563570244533885" lon="-5.013008429337735"><ele>269.0</ele><time>2026-04-28T14:09:32.999Z</time></trkpt><trkpt lat="34.563542590001184" lon="-5.012903195954318"><ele>271.25</ele><time>2026-04-28T14:09:33.999Z</time></trkpt><trkpt lat="34.563481907823444" lon="-5.012791632345776"><ele>273.5</ele><time>2026-04-28T14:09:34.999Z</time></trkpt><trkpt lat="34.56340641944787" lon="-5.012659319624864"><ele>275.75</ele><time>2026-04-28T14:09:35.999Z</time></trkpt><trkpt lat="34.563301029179456" lon="-5.012566371274648"><ele>278.0</ele><time>2026-04-28T14:09:36.999Z</time></trkpt><trkpt lat="34.56318145221478" lon="-5.012485852280821"><ele>279.25</ele><time>2026-04-28T14:09:37.999Z</time></trkpt><trkpt lat="34.563041766324275" lon="-5.012455636689182"><ele>280.5</ele><time>2026-04-28T14:09:38.999Z</time></trkpt><trkpt lat="34.56291946343962" lon="-5.012433544178361"><ele>281.75</ele><time>2026-04-28T14:09:39.999Z</time></trkpt><trkpt lat="34.56279766315745" lon="-5.012413388643573"><ele>283.0</ele><time>2026-04-28T14:09:40.999Z</time></trkpt><trkpt lat="34.56268293069809" lon="-5.01239458784571"><ele>283.0</ele><time>2026-04-28T14:09:41.999Z</time></trkpt><trkpt lat="34.5625552263109" lon="-5.012354691954921"><ele>283.0</ele><time>2026-04-28T14:09:42.999Z</time></trkpt><trkpt lat="34.56242635850695" lon="-5.012289033000677"><ele>283.0</ele><time>2026-04-28T14:09:43.999Z</time></trkpt><trkpt lat="34.56229498974189" lon="-5.012198441233084"><ele>283.0</ele><time>2026-04-28T14:09:44.999Z</time></trkpt><trkpt lat="34.5621650678398" lon="-5.012109625114334"><ele>280.3333333333333</ele><time>2026-04-28T14:09:45.999Z</time></trkpt><trkpt lat="34.56202528625077" lon="-5.01201481927538"><ele>277.6666666666667</ele><time>2026-04-28T14:09:46.999Z</time></trkpt><trkpt lat="34.56189123730298" lon="-5.011921026778007"><ele>275.0</ele><time>2026-04-28T14:09:47.999Z</time></trkpt><trkpt lat="34.561774707154655" lon="-5.011836265814033"><ele>275.0</ele><time>2026-04-28T14:09:48.999Z</time></trkpt><trkpt lat="34.56166238934571" lon="-5.011768492900367"><ele>275.0</ele><time>2026-04-28T14:09:49.999Z</time></trkpt><trkpt lat="34.561560884307724" lon="-5.01170995278544"><ele>275.0</ele><time>2026-04-28T14:09:50.999Z</time></trkpt><trkpt lat="34.56147444884441" lon="-5.011645967745723"><ele>275.0</ele><time>2026-04-28T14:09:51.999Z</time></trkpt><trkpt lat="34.56139556592572" lon="-5.011577183368861"><ele>275.0</ele><time>2026-04-28T14:09:52.999Z</time></trkpt><trkpt lat="34.561319786250216" lon="-5.011491548833212"><ele>276.2</ele><time>2026-04-28T14:09:53.999Z</time></trkpt><trkpt lat="34.56125687970198" lon="-5.011412601502505"><ele>277.4</ele><time>2026-04-28T14:09:54.999Z</time></trkpt><trkpt lat="34.56118974036426" lon="-5.011356938387648"><ele>278.6</ele><time>2026-04-28T14:09:55.999Z</time></trkpt><trkpt lat="34.56110444020385" lon="-5.011344516879949"><ele>279.8</ele><time>2026-04-28T14:09:56.999Z</time></trkpt><trkpt lat="34.561009469462135" lon="-5.011378796620153"><ele>281.0</ele><time>2026-04-28T14:09:57.999Z</time></trkpt><trkpt lat="34.56090690490486" lon="-5.011440924338837"><ele>281.0</ele><time>2026-04-28T14:09:58.999Z</time></trkpt><trkpt lat="34.56079554778792" lon="-5.0115166023287445"><ele>281.0</ele><time>2026-04-28T14:09:59.999Z</time></trkpt><trkpt lat="34.560676672941746" lon="-5.011572995231778"><ele>281.0</ele><time>2026-04-28T14:10:00.999Z</time></trkpt><trkpt lat="34.560558898170804" lon="-5.011595642829314"><ele>281.0</ele><time>2026-04-28T14:10:01.999Z</time></trkpt><trkpt lat="34.56043849739025" lon="-5.0116239978553665"><ele>279.40000000000003</ele><time>2026-04-28T14:10:02.999Z</time></trkpt><trkpt lat="34.560328065224134" lon="-5.011670206104697"><ele>277.8</ele><time>2026-04-28T14:10:03.999Z</time></trkpt><trkpt lat="34.56022340769653" lon="-5.011701857418046"><ele>276.20000000000005</ele><time>2026-04-28T14:10:04.999Z</time></trkpt><trkpt lat="34.56011579516831" lon="-5.01171134546229"><ele>274.6</ele><time>2026-04-28T14:10:05.999Z</time></trkpt><trkpt lat="34.56001337461676" lon="-5.01169525738274"><ele>273.0</ele><time>2026-04-28T14:10:06.999Z</time></trkpt><trkpt lat="34.55990373337296" lon="-5.01163931639335"><ele>273.0</ele><time>2026-04-28T14:10:07.999Z</time></trkpt><trkpt lat="34.55980408106722" lon="-5.011555047340688"><ele>273.0</ele><time>2026-04-28T14:10:08.999Z</time></trkpt><trkpt lat="34.559716394970295" lon="-5.011465770497949"><ele>273.0</ele><time>2026-04-28T14:10:09.999Z</time></trkpt><trkpt lat="34.55964103082323" lon="-5.011389113204782"><ele>273.0</ele><time>2026-04-28T14:10:10.999Z</time></trkpt><trkpt lat="34.55958094764609" lon="-5.011316799458023"><ele>273.0</ele><time>2026-04-28T14:10:11.999Z</time></trkpt><trkpt lat="34.55953578999368" lon="-5.011263263879266"><ele>271.2</ele><time>2026-04-28T14:10:12.999Z</time></trkpt><trkpt lat="34.55944943522714" lon="-5.011162649699725"><ele>269.4</ele><time>2026-04-28T14:10:14.999Z</time></trkpt><trkpt lat="34.55936652859249" lon="-5.011050597209856"><ele>267.59999999999997</ele><time>2026-04-28T14:10:16.999Z</time></trkpt><trkpt lat="34.55930362336982" lon="-5.01098734624987"><ele>265.8</ele><time>2026-04-28T14:10:17.999Z</time></trkpt><trkpt lat="34.55923538555374" lon="-5.010907595426406"><ele>264.0</ele><time>2026-04-28T14:10:18.999Z</time></trkpt><trkpt lat="34.559168989802274" lon="-5.010811449119418"><ele>264.0</ele><time>2026-04-28T14:10:19.999Z</time></trkpt><trkpt lat="34.55908493057676" lon="-5.010725663474808"><ele>264.0</ele><time>2026-04-28T14:10:20.999Z</time></trkpt><trkpt lat="34.55899570867978" lon="-5.010616703433927"><ele>264.0</ele><time>2026-04-28T14:10:21.999Z</time></trkpt><trkpt lat="34.558897837049734" lon="-5.010494544105842"><ele>264.0</ele><time>2026-04-28T14:10:22.999Z</time></trkpt><trkpt lat="34.55878283063779" lon="-5.01036386025202"><ele>261.3333333333333</ele><time>2026-04-28T14:10:23.999Z</time></trkpt><trkpt lat="34.55866972299038" lon="-5.010229689688272"><ele>258.66666666666663</ele><time>2026-04-28T14:10:24.999Z</time></trkpt><trkpt lat="34.558552821152524" lon="-5.01009124562316"><ele>256.0</ele><time>2026-04-28T14:10:25.999Z</time></trkpt><trkpt lat="34.55843593170992" lon="-5.009950760410993"><ele>256.0</ele><time>2026-04-28T14:10:26.999Z</time></trkpt><trkpt lat="34.55832297572741" lon="-5.009814304109528"><ele>256.0</ele><time>2026-04-28T14:10:27.999Z</time></trkpt><trkpt lat="34.55821403854018" lon="-5.0096862491955765"><ele>256.0</ele><time>2026-04-28T14:10:28.999Z</time></trkpt><trkpt lat="34.55810667077359" lon="-5.0095598955222655"><ele>256.0</ele><time>2026-04-28T14:10:29.999Z</time></trkpt><trkpt lat="34.558002513152" lon="-5.009433768674539"><ele>256.0</ele><time>2026-04-28T14:10:30.999Z</time></trkpt><trkpt lat="34.55790320825767" lon="-5.009312822779279"><ele>256.0</ele><time>2026-04-28T14:10:31.999Z</time></trkpt><trkpt lat="34.55780200457152" lon="-5.00919821811738"><ele>256.0</ele><time>2026-04-28T14:10:32.999Z</time></trkpt><trkpt lat="34.55770078761873" lon="-5.009091763642374"><ele>253.25</ele><time>2026-04-28T14:10:33.999Z</time></trkpt><trkpt lat="34.55759673824806" lon="-5.008994840852865"><ele>250.5</ele><time>2026-04-28T14:10:34.999Z</time></trkpt><trkpt lat="34.55748937694417" lon="-5.00891811932209"><ele>247.75</ele><time>2026-04-28T14:10:35.999Z</time></trkpt><trkpt lat="34.55737899238967" lon="-5.008860645344576"><ele>245.0</ele><time>2026-04-28T14:10:36.999Z</time></trkpt><trkpt lat="34.557269667330296" lon="-5.008809167998646"><ele>245.00000000000003</ele><time>2026-04-28T14:10:37.999Z</time></trkpt><trkpt lat="34.55718221822457" lon="-5.008766227693271"><ele>245.0</ele><time>2026-04-28T14:10:38.999Z</time></trkpt><trkpt lat="34.55711620430756" lon="-5.008719288038953"><ele>245.0</ele><time>2026-04-28T14:10:39.999Z</time></trkpt><trkpt lat="34.557068013643075" lon="-5.008654134517956"><ele>245.0</ele><time>2026-04-28T14:10:40.999Z</time></trkpt><trkpt lat="34.557049302100445" lon="-5.008563768227617"><ele>245.00000000000003</ele><time>2026-04-28T14:10:41.999Z</time></trkpt><trkpt lat="34.55704218989274" lon="-5.008449909149806"><ele>245.0</ele><time>2026-04-28T14:10:43Z</time></trkpt><trkpt lat="34.55704771211424" lon="-5.008322629779508"><ele>245.0</ele><time>2026-04-28T14:10:44Z</time></trkpt><trkpt lat="34.55704252969681" lon="-5.008198399656318"><ele>245.0</ele><time>2026-04-28T14:10:45Z</time></trkpt><trkpt lat="34.557071716987664" lon="-5.008038788351172"><ele>245.0</ele><time>2026-04-28T14:10:46Z</time></trkpt><trkpt lat="34.55709385946486" lon="-5.007865394222855"><ele>245.0</ele><time>2026-04-28T14:10:47Z</time></trkpt><trkpt lat="34.557098690579636" lon="-5.007706986971442"><ele>245.0</ele><time>2026-04-28T14:10:48Z</time></trkpt><trkpt lat="34.5571145725404" lon="-5.007566481991532"><ele>245.0</ele><time>2026-04-28T14:10:49Z</time></trkpt><trkpt lat="34.557129932201526" lon="-5.007430398262276"><ele>245.0</ele><time>2026-04-28T14:10:50Z</time></trkpt><trkpt lat="34.55714453852119" lon="-5.007301463595393"><ele>245.0</ele><time>2026-04-28T14:10:51Z</time></trkpt><trkpt lat="34.557157545141216" lon="-5.007186860035404"><ele>245.0</ele><time>2026-04-28T14:10:52Z</time></trkpt><trkpt lat="34.55712622615132" lon="-5.007090926754912"><ele>244.50000000000003</ele><time>2026-04-28T14:10:53Z</time></trkpt><trkpt lat="34.55706733225001" lon="-5.0070194032783935"><ele>244.0</ele><time>2026-04-28T14:10:54Z</time></trkpt><trkpt lat="34.55698333777831" lon="-5.006987429285815"><ele>243.5</ele><time>2026-04-28T14:10:55Z</time></trkpt><trkpt lat="34.55689829424495" lon="-5.006956773566067"><ele>243.0</ele><time>2026-04-28T14:10:56Z</time></trkpt><trkpt lat="34.556810195967635" lon="-5.006959735057686"><ele>242.50000000000003</ele><time>2026-04-28T14:10:57Z</time></trkpt><trkpt lat="34.55673605018989" lon="-5.007035911964335"><ele>242.0</ele><time>2026-04-28T14:10:58Z</time></trkpt><trkpt lat="34.55667248017668" lon="-5.00710547755051"><ele>240.6</ele><time>2026-04-28T14:10:59Z</time></trkpt><trkpt lat="34.5565938496117" lon="-5.007166590428007"><ele>239.2</ele><time>2026-04-28T14:11:00Z</time></trkpt><trkpt lat="34.55659114398733" lon="-5.0072575509280774"><ele>237.8</ele><time>2026-04-28T14:11:01Z</time></trkpt><trkpt lat="34.55661261423948" lon="-5.007369756900967"><ele>236.4</ele><time>2026-04-28T14:11:02Z</time></trkpt><trkpt lat="34.556573915133676" lon="-5.007494097379194"><ele>235.0</ele><time>2026-04-28T14:11:03Z</time></trkpt><trkpt lat="34.55656409164192" lon="-5.007639297679946"><ele>235.0</ele><time>2026-04-28T14:11:04Z</time></trkpt><trkpt lat="34.55653267386771" lon="-5.007771282579149"><ele>235.0</ele><time>2026-04-28T14:11:05Z</time></trkpt><trkpt lat="34.556482107016706" lon="-5.007881833013995"><ele>235.0</ele><time>2026-04-28T14:11:06Z</time></trkpt><trkpt lat="34.55642513164278" lon="-5.007943066643576"><ele>235.0</ele><time>2026-04-28T14:11:07Z</time></trkpt><trkpt lat="34.556362568529586" lon="-5.007999583167256"><ele>235.0</ele><time>2026-04-28T14:11:08Z</time></trkpt><trkpt lat="34.556274690104175" lon="-5.0080577193220766"><ele>233.4</ele><time>2026-04-28T14:11:09Z</time></trkpt><trkpt lat="34.556186461544186" lon="-5.008145610583273"><ele>231.8</ele><time>2026-04-28T14:11:10Z</time></trkpt><trkpt lat="34.55609916952105" lon="-5.008235817423193"><ele>230.2</ele><time>2026-04-28T14:11:11Z</time></trkpt><trkpt lat="34.55602084403675" lon="-5.008322051163424"><ele>228.6</ele><time>2026-04-28T14:11:12Z</time></trkpt><trkpt lat="34.55595662274716" lon="-5.008412475999575"><ele>227.0</ele><time>2026-04-28T14:11:13Z</time></trkpt><trkpt lat="34.55590734199056" lon="-5.008511013829633"><ele>227.0</ele><time>2026-04-28T14:11:14Z</time></trkpt><trkpt lat="34.555879357272055" lon="-5.008609454614547"><ele>227.0</ele><time>2026-04-28T14:11:15Z</time></trkpt><trkpt lat="34.55589256292488" lon="-5.00870195145296"><ele>227.0</ele><time>2026-04-28T14:11:16Z</time></trkpt><trkpt lat="34.555923162408924" lon="-5.008807566719777"><ele>227.0</ele><time>2026-04-28T14:11:17Z</time></trkpt><trkpt lat="34.55594520618225" lon="-5.00895038937631"><ele>227.0</ele><time>2026-04-28T14:11:18Z</time></trkpt><trkpt lat="34.555986669794585" lon="-5.009099189198588"><ele>226.0</ele><time>2026-04-28T14:11:19Z</time></trkpt><trkpt lat="34.556025358801556" lon="-5.0092537875209295"><ele>225.0</ele><time>2026-04-28T14:11:20Z</time></trkpt><trkpt lat="34.55605631213475" lon="-5.0093978996113675"><ele>224.0</ele><time>2026-04-28T14:11:21Z</time></trkpt><trkpt lat="34.55607881383274" lon="-5.009535643425204"><ele>223.0</ele><time>2026-04-28T14:11:22Z</time></trkpt><trkpt lat="34.55609969557664" lon="-5.009665791051444"><ele>223.0</ele><time>2026-04-28T14:11:23Z</time></trkpt><trkpt lat="34.556116384739546" lon="-5.009791413133459"><ele>223.0</ele><time>2026-04-28T14:11:24Z</time></trkpt><trkpt lat="34.556124491095254" lon="-5.009910395988702"><ele>223.0</ele><time>2026-04-28T14:11:25Z</time></trkpt><trkpt lat="34.556135919694725" lon="-5.010025384884489"><ele>223.0</ele><time>2026-04-28T14:11:26Z</time></trkpt><trkpt lat="34.55615456291817" lon="-5.010132094623359"><ele>223.0</ele><time>2026-04-28T14:11:27Z</time></trkpt><trkpt lat="34.55618908731118" lon="-5.010230452661829"><ele>223.66666666666666</ele><time>2026-04-28T14:11:28Z</time></trkpt><trkpt lat="34.55622793175453" lon="-5.010324625156978"><ele>224.33333333333331</ele><time>2026-04-28T14:11:29Z</time></trkpt><trkpt lat="34.556268046656974" lon="-5.010423816228965"><ele>225.0</ele><time>2026-04-28T14:11:30Z</time></trkpt><trkpt lat="34.55630545053626" lon="-5.010516294625378"><ele>225.66666666666669</ele><time>2026-04-28T14:11:31Z</time></trkpt><trkpt lat="34.556341904074074" lon="-5.0106064233653616"><ele>226.33333333333334</ele><time>2026-04-28T14:11:32Z</time></trkpt><trkpt lat="34.55638170851985" lon="-5.010704836974371"><ele>227.0</ele><time>2026-04-28T14:11:33Z</time></trkpt><trkpt lat="34.55639588329223" lon="-5.010816176465773"><ele>225.25</ele><time>2026-04-28T14:11:33.999Z</time></trkpt><trkpt lat="34.5564230882189" lon="-5.010946675795667"><ele>223.5</ele><time>2026-04-28T14:11:34.999Z</time></trkpt><trkpt lat="34.55643350872261" lon="-5.011085775184167"><ele>221.75</ele><time>2026-04-28T14:11:35.999Z</time></trkpt><trkpt lat="34.556442998956385" lon="-5.011232058558347"><ele>220.0</ele><time>2026-04-28T14:11:36.999Z</time></trkpt><trkpt lat="34.556445271317095" lon="-5.011368501833198"><ele>220.0</ele><time>2026-04-28T14:11:37.999Z</time></trkpt><trkpt lat="34.556465249890934" lon="-5.011493536385263"><ele>220.0</ele><time>2026-04-28T14:11:38.999Z</time></trkpt><trkpt lat="34.5564726579248" lon="-5.011613094904935"><ele>220.0</ele><time>2026-04-28T14:11:39.999Z</time></trkpt><trkpt lat="34.55647944092993" lon="-5.011727640234777"><ele>220.0</ele><time>2026-04-28T14:11:40.999Z</time></trkpt><trkpt lat="34.55647453601311" lon="-5.011837995308539"><ele>220.0</ele><time>2026-04-28T14:11:41.999Z</time></trkpt><trkpt lat="34.55648235695027" lon="-5.011945856496576"><ele>218.6</ele><time>2026-04-28T14:11:42.999Z</time></trkpt><trkpt lat="34.556480385437865" lon="-5.0120373338528115"><ele>217.2</ele><time>2026-04-28T14:11:43.999Z</time></trkpt><trkpt lat="34.5565264892084" lon="-5.012124946065924"><ele>215.8</ele><time>2026-04-28T14:11:44.999Z</time></trkpt><trkpt lat="34.55656104855701" lon="-5.012239731128798"><ele>214.4</ele><time>2026-04-28T14:11:45.999Z</time></trkpt><trkpt lat="34.556589234369646" lon="-5.012381915111361"><ele>213.0</ele><time>2026-04-28T14:11:46.999Z</time></trkpt><trkpt lat="34.55664968651553" lon="-5.012486207549007"><ele>212.0</ele><time>2026-04-28T14:11:47.999Z</time></trkpt><trkpt lat="34.55670228283912" lon="-5.012589199322166"><ele>211.0</ele><time>2026-04-28T14:11:48.999Z</time></trkpt><trkpt lat="34.556751874196934" lon="-5.012706172188559"><ele>210.0</ele><time>2026-04-28T14:11:49.999Z</time></trkpt><trkpt lat="34.55684186640024" lon="-5.012792252746782"><ele>209.0</ele><time>2026-04-28T14:11:50.999Z</time></trkpt><trkpt lat="34.55691532501255" lon="-5.012887822564528"><ele>208.0</ele><time>2026-04-28T14:11:51.999Z</time></trkpt><trkpt lat="34.5569752851155" lon="-5.012986810105826"><ele>208.49999999999997</ele><time>2026-04-28T14:11:52.999Z</time></trkpt><trkpt lat="34.55703879432153" lon="-5.013068720234472"><ele>209.0</ele><time>2026-04-28T14:11:53.999Z</time></trkpt><trkpt lat="34.55709992265884" lon="-5.0131279845271415"><ele>209.5</ele><time>2026-04-28T14:11:54.999Z</time></trkpt><trkpt lat="34.55710418542155" lon="-5.013231929319558"><ele>210.0</ele><time>2026-04-28T14:11:55.999Z</time></trkpt><trkpt lat="34.557097667520274" lon="-5.0133197199474315"><ele>210.49999999999997</ele><time>2026-04-28T14:11:56.999Z</time></trkpt><trkpt lat="34.557076504756225" lon="-5.01339550530121"><ele>211.0</ele><time>2026-04-28T14:11:57.999Z</time></trkpt><trkpt lat="34.55703719500213" lon="-5.013455238998354"><ele>210.25</ele><time>2026-04-28T14:11:58.999Z</time></trkpt><trkpt lat="34.55697173960732" lon="-5.013496188216455"><ele>209.5</ele><time>2026-04-28T14:11:59.999Z</time></trkpt><trkpt lat="34.556821129012405" lon="-5.013485269002109"><ele>208.75</ele><time>2026-04-28T14:12:01.999Z</time></trkpt><trkpt lat="34.556735516894925" lon="-5.013408651210024"><ele>208.0</ele><time>2026-04-28T14:12:02.999Z</time></trkpt><trkpt lat="34.55665959978734" lon="-5.0132940519424745"><ele>208.0</ele><time>2026-04-28T14:12:03.999Z</time></trkpt><trkpt lat="34.55658350730703" lon="-5.013200056940444"><ele>208.0</ele><time>2026-04-28T14:12:04.999Z</time></trkpt><trkpt lat="34.55653077453103" lon="-5.013102422655776"><ele>208.0</ele><time>2026-04-28T14:12:05.999Z</time></trkpt><trkpt lat="34.556456252552714" lon="-5.01302805635642"><ele>208.0</ele><time>2026-04-28T14:12:06.999Z</time></trkpt><trkpt lat="34.55638128940863" lon="-5.012947156488082"><ele>208.0</ele><time>2026-04-28T14:12:07.999Z</time></trkpt><trkpt lat="34.55629013459188" lon="-5.0128641469375825"><ele>205.25</ele><time>2026-04-28T14:12:08.999Z</time></trkpt><trkpt lat="34.55618439421423" lon="-5.012798514715777"><ele>202.5</ele><time>2026-04-28T14:12:09.999Z</time></trkpt><trkpt lat="34.55607848839668" lon="-5.012733488985331"><ele>199.75</ele><time>2026-04-28T14:12:10.999Z</time></trkpt><trkpt lat="34.55597869049882" lon="-5.012672933507413"><ele>197.0</ele><time>2026-04-28T14:12:11.999Z</time></trkpt><trkpt lat="34.55587698681827" lon="-5.012627482849021"><ele>197.0</ele><time>2026-04-28T14:12:12.999Z</time></trkpt><trkpt lat="34.555772205546575" lon="-5.012585186017567"><ele>197.0</ele><time>2026-04-28T14:12:13.999Z</time></trkpt><trkpt lat="34.555678886537976" lon="-5.01253677064613"><ele>197.0</ele><time>2026-04-28T14:12:14.999Z</time></trkpt><trkpt lat="34.55558270984278" lon="-5.012485300496791"><ele>197.0</ele><time>2026-04-28T14:12:15.999Z</time></trkpt><trkpt lat="34.55548622676129" lon="-5.012453503210219"><ele>197.0</ele><time>2026-04-28T14:12:16.999Z</time></trkpt><trkpt lat="34.55538217230399" lon="-5.012430349032491"><ele>197.5</ele><time>2026-04-28T14:12:17.999Z</time></trkpt><trkpt lat="34.555269251962144" lon="-5.0123845850779905"><ele>198.0</ele><time>2026-04-28T14:12:18.999Z</time></trkpt><trkpt lat="34.55516052550253" lon="-5.012330830922305"><ele>198.5</ele><time>2026-04-28T14:12:19.999Z</time></trkpt><trkpt lat="34.55506122105449" lon="-5.012268956729024"><ele>199.0</ele><time>2026-04-28T14:12:20.999Z</time></trkpt><trkpt lat="34.55496849214472" lon="-5.012211756124983"><ele>199.0</ele><time>2026-04-28T14:12:21.999Z</time></trkpt><trkpt lat="34.554883567418855" lon="-5.012149663650681"><ele>199.0</ele><time>2026-04-28T14:12:22.999Z</time></trkpt><trkpt lat="34.554804456965584" lon="-5.012068874248285"><ele>199.0</ele><time>2026-04-28T14:12:23.999Z</time></trkpt><trkpt lat="34.55472714765081" lon="-5.011973303223785"><ele>199.0</ele><time>2026-04-28T14:12:24.999Z</time></trkpt><trkpt lat="34.554654214572444" lon="-5.011868294503847"><ele>199.0</ele><time>2026-04-28T14:12:25.999Z</time></trkpt><trkpt lat="34.55458977838691" lon="-5.011749935116567"><ele>196.0</ele><time>2026-04-28T14:12:26.999Z</time></trkpt><trkpt lat="34.554535421454986" lon="-5.011618531055897"><ele>193.0</ele><time>2026-04-28T14:12:27.999Z</time></trkpt><trkpt lat="34.55448127743327" lon="-5.0114798073289"><ele>190.0</ele><time>2026-04-28T14:12:28.999Z</time></trkpt><trkpt lat="34.55441115166258" lon="-5.011352183871846"><ele>187.0</ele><time>2026-04-28T14:12:29.999Z</time></trkpt><trkpt lat="34.55436784965772" lon="-5.011211260151652"><ele>187.0</ele><time>2026-04-28T14:12:30.999Z</time></trkpt><trkpt lat="34.55430505084038" lon="-5.011083685173351"><ele>187.0</ele><time>2026-04-28T14:12:31.999Z</time></trkpt><trkpt lat="34.55424675735854" lon="-5.010957740154434"><ele>187.0</ele><time>2026-04-28T14:12:32.999Z</time></trkpt><trkpt lat="34.55418729887206" lon="-5.010840033747656"><ele>187.0</ele><time>2026-04-28T14:12:33.999Z</time></trkpt><trkpt lat="34.554119591890576" lon="-5.010736064520801"><ele>187.6</ele><time>2026-04-28T14:12:34.999Z</time></trkpt><trkpt lat="34.55406292308436" lon="-5.010624666080539"><ele>188.2</ele><time>2026-04-28T14:12:35.999Z</time></trkpt><trkpt lat="34.55401477309639" lon="-5.010520052178722"><ele>188.8</ele><time>2026-04-28T14:12:36.999Z</time></trkpt><trkpt lat="34.5539518973205" lon="-5.01040314303757"><ele>189.4</ele><time>2026-04-28T14:12:37.999Z</time></trkpt><trkpt lat="34.55389112315699" lon="-5.010286833441063"><ele>190.0</ele><time>2026-04-28T14:12:38.999Z</time></trkpt><trkpt lat="34.553823950480876" lon="-5.010162949525953"><ele>190.0</ele><time>2026-04-28T14:12:39.999Z</time></trkpt><trkpt lat="34.55375964834553" lon="-5.010044025743601"><ele>190.0</ele><time>2026-04-28T14:12:40.999Z</time></trkpt><trkpt lat="34.553697767995004" lon="-5.009930387503065"><ele>190.0</ele><time>2026-04-28T14:12:41.999Z</time></trkpt><trkpt lat="34.553637342952726" lon="-5.009823758290533"><ele>190.0</ele><time>2026-04-28T14:12:42.999Z</time></trkpt><trkpt lat="34.5535817659942" lon="-5.009723088547176"><ele>190.0</ele><time>2026-04-28T14:12:43.999Z</time></trkpt><trkpt lat="34.553534699804096" lon="-5.009624998711736"><ele>189.66666666666669</ele><time>2026-04-28T14:12:44.999Z</time></trkpt><trkpt lat="34.55349007988145" lon="-5.009530280546261"><ele>189.33333333333334</ele><time>2026-04-28T14:12:45.999Z</time></trkpt><trkpt lat="34.55344176149495" lon="-5.009438406917692"><ele>189.0</ele><time>2026-04-28T14:12:46.999Z</time></trkpt><trkpt lat="34.55339484795036" lon="-5.009362129948116"><ele>188.66666666666666</ele><time>2026-04-28T14:12:47.999Z</time></trkpt><trkpt lat="34.55334904710152" lon="-5.0092657005665275"><ele>188.33333333333331</ele><time>2026-04-28T14:12:49Z</time></trkpt><trkpt lat="34.55329582938609" lon="-5.009189793479517"><ele>188.0</ele><time>2026-04-28T14:12:50Z</time></trkpt><trkpt lat="34.55324289455761" lon="-5.00910526316921"><ele>188.0</ele><time>2026-04-28T14:12:51Z</time></trkpt><trkpt lat="34.553191222242546" lon="-5.008997441325027"><ele>188.0</ele><time>2026-04-28T14:12:52Z</time></trkpt><trkpt lat="34.55314318624898" lon="-5.00889023913996"><ele>188.0</ele><time>2026-04-28T14:12:53Z</time></trkpt><trkpt lat="34.55309971505262" lon="-5.008792013691119"><ele>188.0</ele><time>2026-04-28T14:12:54Z</time></trkpt><trkpt lat="34.55304873844184" lon="-5.008707099365709"><ele>188.0</ele><time>2026-04-28T14:12:55Z</time></trkpt><trkpt lat="34.55299764928412" lon="-5.0086288569062996"><ele>188.0</ele><time>2026-04-28T14:12:56Z</time></trkpt><trkpt lat="34.55296027943922" lon="-5.0085412082114305"><ele>188.0</ele><time>2026-04-28T14:12:57Z</time></trkpt><trkpt lat="34.55291077370161" lon="-5.008449401095"><ele>188.0</ele><time>2026-04-28T14:12:58Z</time></trkpt><trkpt lat="34.55286991731026" lon="-5.00835531029015"><ele>188.0</ele><time>2026-04-28T14:12:59.001Z</time></trkpt><trkpt lat="34.55286145538446" lon="-5.00823754391656"><ele>188.0</ele><time>2026-04-28T14:13:00.001Z</time></trkpt><trkpt lat="34.552854870319116" lon="-5.008096089339336"><ele>184.4</ele><time>2026-04-28T14:13:01.001Z</time></trkpt><trkpt lat="34.55285851244753" lon="-5.007953311916861"><ele>180.8</ele><time>2026-04-28T14:13:02.001Z</time></trkpt><trkpt lat="34.55286198183675" lon="-5.00782284864665"><ele>177.2</ele><time>2026-04-28T14:13:03.001Z</time></trkpt><trkpt lat="34.55286632283145" lon="-5.007692618745629"><ele>173.6</ele><time>2026-04-28T14:13:04.001Z</time></trkpt><trkpt lat="34.5528519851374" lon="-5.007554365425922"><ele>170.0</ele><time>2026-04-28T14:13:05.001Z</time></trkpt><trkpt lat="34.55280670093849" lon="-5.0074162037864625"><ele>170.0</ele><time>2026-04-28T14:13:06.001Z</time></trkpt><trkpt lat="34.55275262801034" lon="-5.007263444238921"><ele>170.0</ele><time>2026-04-28T14:13:07.001Z</time></trkpt><trkpt lat="34.55271076805696" lon="-5.00710782028798"><ele>170.0</ele><time>2026-04-28T14:13:08.001Z</time></trkpt><trkpt lat="34.552658496624296" lon="-5.006964458538327"><ele>170.0</ele><time>2026-04-28T14:13:09.001Z</time></trkpt><trkpt lat="34.552611537578635" lon="-5.00682971955502"><ele>170.0</ele><time>2026-04-28T14:13:10.001Z</time></trkpt><trkpt lat="34.55256388922375" lon="-5.006700952423238"><ele>170.0</ele><time>2026-04-28T14:13:11.001Z</time></trkpt><trkpt lat="34.55252072763086" lon="-5.006574757112152"><ele>170.0</ele><time>2026-04-28T14:13:12.001Z</time></trkpt><trkpt lat="34.55248945355847" lon="-5.006447658298092"><ele>170.0</ele><time>2026-04-28T14:13:13.001Z</time></trkpt><trkpt lat="34.55248304789146" lon="-5.0063088342579904"><ele>169.25</ele><time>2026-04-28T14:13:14.001Z</time></trkpt><trkpt lat="34.55251044454511" lon="-5.006161113652144"><ele>168.5</ele><time>2026-04-28T14:13:15.001Z</time></trkpt><trkpt lat="34.552536263445205" lon="-5.006004512086003"><ele>167.75</ele><time>2026-04-28T14:13:16.001Z</time></trkpt><trkpt lat="34.55256972828394" lon="-5.005863974250382"><ele>167.0</ele><time>2026-04-28T14:13:17.001Z</time></trkpt><trkpt lat="34.55262540008959" lon="-5.005759226575592"><ele>168.0</ele><time>2026-04-28T14:13:18.001Z</time></trkpt><trkpt lat="34.552667665417886" lon="-5.005669137753413"><ele>169.0</ele><time>2026-04-28T14:13:19.001Z</time></trkpt><trkpt lat="34.5527673385943" lon="-5.0055886673421455"><ele>170.0</ele><time>2026-04-28T14:13:20.001Z</time></trkpt><trkpt lat="34.552877575403826" lon="-5.005502223562363"><ele>171.0</ele><time>2026-04-28T14:13:21.001Z</time></trkpt><trkpt lat="34.55299897313803" lon="-5.005404990309222"><ele>171.0</ele><time>2026-04-28T14:13:22.001Z</time></trkpt><trkpt lat="34.553099473798675" lon="-5.005298833890834"><ele>171.0</ele><time>2026-04-28T14:13:23.001Z</time></trkpt><trkpt lat="34.55318403663725" lon="-5.005209584956893"><ele>171.0</ele><time>2026-04-28T14:13:24.001Z</time></trkpt><trkpt lat="34.55324358826846" lon="-5.005139000635957"><ele>171.0</ele><time>2026-04-28T14:13:25.001Z</time></trkpt><trkpt lat="34.55328946021284" lon="-5.0050776768580425"><ele>171.0</ele><time>2026-04-28T14:13:26.001Z</time></trkpt><trkpt lat="34.553374188716504" lon="-5.004964407797258"><ele>170.8</ele><time>2026-04-28T14:13:28.001Z</time></trkpt><trkpt lat="34.55343420095454" lon="-5.004883255259626"><ele>170.60000000000002</ele><time>2026-04-28T14:13:29.001Z</time></trkpt><trkpt lat="34.55348490872247" lon="-5.004784261604483"><ele>170.4</ele><time>2026-04-28T14:13:30.001Z</time></trkpt><trkpt lat="34.55353096317774" lon="-5.004690212137132"><ele>170.2</ele><time>2026-04-28T14:13:31.001Z</time></trkpt><trkpt lat="34.553570190353994" lon="-5.004609930742195"><ele>170.0</ele><time>2026-04-28T14:13:32.001Z</time></trkpt><trkpt lat="34.55362849024911" lon="-5.004454892073603"><ele>170.0</ele><time>2026-04-28T14:13:34Z</time></trkpt><trkpt lat="34.55367065890653" lon="-5.004332915330554"><ele>170.0</ele><time>2026-04-28T14:13:35Z</time></trkpt><trkpt lat="34.553692828870595" lon="-5.004210862868066"><ele>170.0</ele><time>2026-04-28T14:13:36Z</time></trkpt><trkpt lat="34.553696277373476" lon="-5.00407823115865"><ele>170.0</ele><time>2026-04-28T14:13:37Z</time></trkpt><trkpt lat="34.55369509029121" lon="-5.003939233896788"><ele>170.0</ele><time>2026-04-28T14:13:38Z</time></trkpt><trkpt lat="34.553625402816465" lon="-5.003841799485858"><ele>171.0</ele><time>2026-04-28T14:13:39Z</time></trkpt><trkpt lat="34.55356605659068" lon="-5.0037393068385745"><ele>172.0</ele><time>2026-04-28T14:13:40Z</time></trkpt><trkpt lat="34.553510257198795" lon="-5.003663451861467"><ele>173.0</ele><time>2026-04-28T14:13:41Z</time></trkpt><trkpt lat="34.553466564303804" lon="-5.00355480734764"><ele>174.0</ele><time>2026-04-28T14:13:42Z</time></trkpt><trkpt lat="34.553422974244015" lon="-5.003430685688721"><ele>175.0</ele><time>2026-04-28T14:13:43Z</time></trkpt><trkpt lat="34.55340670826661" lon="-5.003290388311679"><ele>175.2</ele><time>2026-04-28T14:13:44Z</time></trkpt><trkpt lat="34.55339587416027" lon="-5.003158212218716"><ele>175.4</ele><time>2026-04-28T14:13:45Z</time></trkpt><trkpt lat="34.55338622962769" lon="-5.003041702287558"><ele>175.60000000000002</ele><time>2026-04-28T14:13:46Z</time></trkpt><trkpt lat="34.55336972579451" lon="-5.002937900171766"><ele>175.8</ele><time>2026-04-28T14:13:47Z</time></trkpt><trkpt lat="34.55334556071421" lon="-5.002839611926112"><ele>176.0</ele><time>2026-04-28T14:13:48Z</time></trkpt><trkpt lat="34.553320955318426" lon="-5.002747966015987"><ele>176.0</ele><time>2026-04-28T14:13:49Z</time></trkpt><trkpt lat="34.553300899991854" lon="-5.002656753940586"><ele>176.0</ele><time>2026-04-28T14:13:51Z</time></trkpt><trkpt lat="34.55327915274658" lon="-5.0025533484939215"><ele>176.0</ele><time>2026-04-28T14:13:54Z</time></trkpt><trkpt lat="34.55327958103409" lon="-5.002419699655279"><ele>176.0</ele><time>2026-04-28T14:13:56Z</time></trkpt><trkpt lat="34.55325650819835" lon="-5.002328322756943"><ele>176.0</ele><time>2026-04-28T14:13:57Z</time></trkpt><trkpt lat="34.55325380004353" lon="-5.002238179897859"><ele>176.0</ele><time>2026-04-28T14:13:58Z</time></trkpt><trkpt lat="34.553255292031714" lon="-5.002146830638847"><ele>176.0</ele><time>2026-04-28T14:13:59Z</time></trkpt><trkpt lat="34.55327677592832" lon="-5.002023926531418"><ele>176.0</ele><time>2026-04-28T14:14:01Z</time></trkpt><trkpt lat="34.553262066938544" lon="-5.002108073057482"><ele>176.0</ele><time>2026-04-28T14:14:18Z</time></trkpt><trkpt lat="34.55324567286368" lon="-5.002199979960412"><ele>176.0</ele><time>2026-04-28T14:14:20Z</time></trkpt><trkpt lat="34.55325571765178" lon="-5.002302008890666"><ele>176.0</ele><time>2026-04-28T14:14:22Z</time></trkpt><trkpt lat="34.55326032649409" lon="-5.002380345993835"><ele>176.0</ele><time>2026-04-28T14:14:23Z</time></trkpt><trkpt lat="34.55328128429832" lon="-5.0024634385383635"><ele>176.0</ele><time>2026-04-28T14:14:25Z</time></trkpt><trkpt lat="34.55329212468691" lon="-5.002541166386877"><ele>176.0</ele><time>2026-04-28T14:14:27Z</time></trkpt><trkpt lat="34.553310397227825" lon="-5.002618343877344"><ele>176.0</ele><time>2026-04-28T14:14:29Z</time></trkpt><trkpt lat="34.55331819401541" lon="-5.0026945785601304"><ele>176.0</ele><time>2026-04-28T14:14:31Z</time></trkpt><trkpt lat="34.553328224050915" lon="-5.002773481615641"><ele>176.0</ele><time>2026-04-28T14:14:33Z</time></trkpt><trkpt lat="34.553377186105365" lon="-5.002864813558385"><ele>176.0</ele><time>2026-04-28T14:14:35Z</time></trkpt><trkpt lat="34.55341030068415" lon="-5.002986476110955"><ele>176.0</ele><time>2026-04-28T14:14:37Z</time></trkpt><trkpt lat="34.55342621272606" lon="-5.0030864344369474"><ele>176.0</ele><time>2026-04-28T14:14:39Z</time></trkpt><trkpt lat="34.553434622923604" lon="-5.003181414169868"><ele>176.0</ele><time>2026-04-28T14:14:41Z</time></trkpt><trkpt lat="34.55344086462985" lon="-5.003316137493617"><ele>176.0</ele><time>2026-04-28T14:14:43Z</time></trkpt><trkpt lat="34.553444895175566" lon="-5.003393552442995"><ele>176.0</ele><time>2026-04-28T14:14:44Z</time></trkpt><trkpt lat="34.55346510459469" lon="-5.00353279525624"><ele>175.83333333333331</ele><time>2026-04-28T14:14:46Z</time></trkpt><trkpt lat="34.553525825018994" lon="-5.0036720669781625"><ele>175.66666666666666</ele><time>2026-04-28T14:14:48Z</time></trkpt><trkpt lat="34.55357621946999" lon="-5.003740298432704"><ele>175.5</ele><time>2026-04-28T14:14:49Z</time></trkpt><trkpt lat="34.55362826514298" lon="-5.003813404974419"><ele>175.33333333333334</ele><time>2026-04-28T14:14:50Z</time></trkpt><trkpt lat="34.553676258345234" lon="-5.003888663549805"><ele>175.16666666666669</ele><time>2026-04-28T14:14:51Z</time></trkpt><trkpt lat="34.553708652503715" lon="-5.003969997150654"><ele>175.0</ele><time>2026-04-28T14:14:52Z</time></trkpt><trkpt lat="34.55372776279717" lon="-5.004059048910712"><ele>174.16666666666669</ele><time>2026-04-28T14:14:53Z</time></trkpt><trkpt lat="34.553733385756985" lon="-5.004152503000374"><ele>173.33333333333334</ele><time>2026-04-28T14:14:54.001Z</time></trkpt><trkpt lat="34.55372731730771" lon="-5.004248538640463"><ele>172.5</ele><time>2026-04-28T14:14:55.001Z</time></trkpt><trkpt lat="34.55371024644511" lon="-5.004339853194159"><ele>171.66666666666666</ele><time>2026-04-28T14:14:56.001Z</time></trkpt><trkpt lat="34.553687819080004" lon="-5.004427832861892"><ele>170.83333333333331</ele><time>2026-04-28T14:14:57.001Z</time></trkpt><trkpt lat="34.55365565964773" lon="-5.004507600542654"><ele>170.0</ele><time>2026-04-28T14:14:58.001Z</time></trkpt><trkpt lat="34.553607073876066" lon="-5.004637809101712"><ele>170.0</ele><time>2026-04-28T14:15:00.001Z</time></trkpt><trkpt lat="34.55356493835694" lon="-5.004747353532821"><ele>170.0</ele><time>2026-04-28T14:15:02.001Z</time></trkpt><trkpt lat="34.55350971290313" lon="-5.004855902701309"><ele>170.0</ele><time>2026-04-28T14:15:04.001Z</time></trkpt><trkpt lat="34.55344566438741" lon="-5.004940392848395"><ele>170.0</ele><time>2026-04-28T14:15:06.001Z</time></trkpt><trkpt lat="34.55337095870059" lon="-5.005031818846948"><ele>170.0</ele><time>2026-04-28T14:15:08.001Z</time></trkpt><trkpt lat="34.55330810251385" lon="-5.00512537597688"><ele>170.16666666666666</ele><time>2026-04-28T14:15:10.001Z</time></trkpt><trkpt lat="34.553217520234114" lon="-5.005238486799083"><ele>170.33333333333331</ele><time>2026-04-28T14:15:12.001Z</time></trkpt><trkpt lat="34.55316212549033" lon="-5.005300529088296"><ele>170.5</ele><time>2026-04-28T14:15:13.001Z</time></trkpt><trkpt lat="34.553105091273" lon="-5.005360480033528"><ele>170.66666666666666</ele><time>2026-04-28T14:15:14.001Z</time></trkpt><trkpt lat="34.55304444484447" lon="-5.005418707574966"><ele>170.83333333333334</ele><time>2026-04-28T14:15:15.001Z</time></trkpt><trkpt lat="34.55298381113811" lon="-5.005479284065204"><ele>171.0</ele><time>2026-04-28T14:15:16.001Z</time></trkpt><trkpt lat="34.55292380021872" lon="-5.005534224557313"><ele>170.33333333333334</ele><time>2026-04-28T14:15:17.001Z</time></trkpt><trkpt lat="34.552862457605926" lon="-5.005578751251743"><ele>169.66666666666666</ele><time>2026-04-28T14:15:18.001Z</time></trkpt><trkpt lat="34.552804688280325" lon="-5.005615189004257"><ele>169.0</ele><time>2026-04-28T14:15:19.001Z</time></trkpt><trkpt lat="34.552753950061934" lon="-5.005661657293454"><ele>168.33333333333331</ele><time>2026-04-28T14:15:20.001Z</time></trkpt><trkpt lat="34.55267381274337" lon="-5.005756132712586"><ele>167.66666666666666</ele><time>2026-04-28T14:15:22.001Z</time></trkpt><trkpt lat="34.55262015387752" lon="-5.005851780699746"><ele>167.0</ele><time>2026-04-28T14:15:24.001Z</time></trkpt><trkpt lat="34.55257923508786" lon="-5.005958432556653"><ele>167.0</ele><time>2026-04-28T14:15:26Z</time></trkpt><trkpt lat="34.552543240486706" lon="-5.006073648326556"><ele>167.0</ele><time>2026-04-28T14:15:28Z</time></trkpt><trkpt lat="34.55252492300582" lon="-5.006207399573169"><ele>167.0</ele><time>2026-04-28T14:15:30Z</time></trkpt><trkpt lat="34.55250232224714" lon="-5.006337211563831"><ele>167.0</ele><time>2026-04-28T14:15:32Z</time></trkpt><trkpt lat="34.5525111911362" lon="-5.006474075068265"><ele>167.0</ele><time>2026-04-28T14:15:34Z</time></trkpt><trkpt lat="34.55254947388031" lon="-5.006618008542072"><ele>167.5</ele><time>2026-04-28T14:15:36Z</time></trkpt><trkpt lat="34.552571312974905" lon="-5.006691220603016"><ele>168.0</ele><time>2026-04-28T14:15:37Z</time></trkpt><trkpt lat="34.55263183704004" lon="-5.006820069298981"><ele>168.5</ele><time>2026-04-28T14:15:39Z</time></trkpt><trkpt lat="34.55268113862696" lon="-5.006959127952978"><ele>169.0</ele><time>2026-04-28T14:15:41Z</time></trkpt><trkpt lat="34.55269409731904" lon="-5.007038363899989"><ele>169.5</ele><time>2026-04-28T14:15:42Z</time></trkpt><trkpt lat="34.5527213315954" lon="-5.007107453222345"><ele>170.0</ele><time>2026-04-28T14:15:43Z</time></trkpt><trkpt lat="34.552766422323614" lon="-5.0072404326095326"><ele>170.0</ele><time>2026-04-28T14:15:45Z</time></trkpt><trkpt lat="34.55282125005869" lon="-5.0073711526879245"><ele>170.0</ele><time>2026-04-28T14:15:47Z</time></trkpt><trkpt lat="34.55287049630104" lon="-5.007509084504961"><ele>170.0</ele><time>2026-04-28T14:15:49Z</time></trkpt><trkpt lat="34.55288801768662" lon="-5.00758371796289"><ele>170.0</ele><time>2026-04-28T14:15:50Z</time></trkpt><trkpt lat="34.552909477855955" lon="-5.007733440620688"><ele>170.0</ele><time>2026-04-28T14:15:52Z</time></trkpt><trkpt lat="34.55290914636264" lon="-5.007812838599168"><ele>172.83333333333331</ele><time>2026-04-28T14:15:53Z</time></trkpt><trkpt lat="34.55290716386583" lon="-5.007892448451303"><ele>175.66666666666666</ele><time>2026-04-28T14:15:54Z</time></trkpt><trkpt lat="34.552902813296825" lon="-5.007971040221369"><ele>178.5</ele><time>2026-04-28T14:15:55Z</time></trkpt><trkpt lat="34.552896939160995" lon="-5.008051502355712"><ele>181.33333333333334</ele><time>2026-04-28T14:15:56Z</time></trkpt><trkpt lat="34.552878567782166" lon="-5.008202752554352"><ele>184.16666666666669</ele><time>2026-04-28T14:15:58Z</time></trkpt><trkpt lat="34.55290280061476" lon="-5.008349243512153"><ele>187.0</ele><time>2026-04-28T14:16:00Z</time></trkpt><trkpt lat="34.55295879761156" lon="-5.00847734477555"><ele>187.2</ele><time>2026-04-28T14:16:02Z</time></trkpt><trkpt lat="34.55301612265278" lon="-5.0085962149195"><ele>187.39999999999998</ele><time>2026-04-28T14:16:04Z</time></trkpt><trkpt lat="34.55307270960702" lon="-5.008701566310678"><ele>187.60000000000002</ele><time>2026-04-28T14:16:06Z</time></trkpt><trkpt lat="34.55312841129378" lon="-5.008804626437138"><ele>187.8</ele><time>2026-04-28T14:16:08Z</time></trkpt><trkpt lat="34.553186534625134" lon="-5.008912743430759"><ele>188.0</ele><time>2026-04-28T14:16:10Z</time></trkpt><trkpt lat="34.55325089672984" lon="-5.0090326038327015"><ele>186.25</ele><time>2026-04-28T14:16:12Z</time></trkpt><trkpt lat="34.55331943747967" lon="-5.009160197962622"><ele>184.5</ele><time>2026-04-28T14:16:14Z</time></trkpt><trkpt lat="34.55338442626571" lon="-5.009280096574615"><ele>182.75</ele><time>2026-04-28T14:16:16Z</time></trkpt><trkpt lat="34.55344333801959" lon="-5.009388783594864"><ele>181.0</ele><time>2026-04-28T14:16:18Z</time></trkpt><trkpt lat="34.553503405013004" lon="-5.009501214239372"><ele>181.0</ele><time>2026-04-28T14:16:20Z</time></trkpt><trkpt lat="34.55356073644251" lon="-5.009608299820644"><ele>181.0</ele><time>2026-04-28T14:16:22Z</time></trkpt><trkpt lat="34.553619380034995" lon="-5.009718477670854"><ele>181.0</ele><time>2026-04-28T14:16:24Z</time></trkpt><trkpt lat="34.55367634749164" lon="-5.009826183243481"><ele>181.0</ele><time>2026-04-28T14:16:26Z</time></trkpt><trkpt lat="34.553741662236874" lon="-5.009948387793375"><ele>181.0</ele><time>2026-04-28T14:16:28Z</time></trkpt><trkpt lat="34.55377785969273" lon="-5.010016113597619"><ele>182.5</ele><time>2026-04-28T14:16:29Z</time></trkpt><trkpt lat="34.55381709794636" lon="-5.010089528766224"><ele>184.0</ele><time>2026-04-28T14:16:30Z</time></trkpt><trkpt lat="34.55385989929694" lon="-5.010169610526236"><ele>185.5</ele><time>2026-04-28T14:16:31Z</time></trkpt><trkpt lat="34.55390387288452" lon="-5.010251800248883"><ele>187.0</ele><time>2026-04-28T14:16:32Z</time></trkpt><trkpt lat="34.553948044898746" lon="-5.010334295017416"><ele>188.5</ele><time>2026-04-28T14:16:33Z</time></trkpt><trkpt lat="34.553989675456656" lon="-5.010412043410822"><ele>190.0</ele><time>2026-04-28T14:16:34Z</time></trkpt><trkpt lat="34.554030461051184" lon="-5.010488147903588"><ele>190.0</ele><time>2026-04-28T14:16:35Z</time></trkpt><trkpt lat="34.554069595090006" lon="-5.010561105388025"><ele>190.0</ele><time>2026-04-28T14:16:36Z</time></trkpt><trkpt lat="34.554091507602564" lon="-5.010641601615081"><ele>190.0</ele><time>2026-04-28T14:16:37Z</time></trkpt><trkpt lat="34.554129512309274" lon="-5.01071475130359"><ele>190.0</ele><time>2026-04-28T14:16:38Z</time></trkpt><trkpt lat="34.554167913818965" lon="-5.0107846784592285"><ele>190.0</ele><time>2026-04-28T14:16:39Z</time></trkpt><trkpt lat="34.55420389735016" lon="-5.010856850770829"><ele>190.0</ele><time>2026-04-28T14:16:40Z</time></trkpt><trkpt lat="34.55425250299784" lon="-5.01092060933674"><ele>190.0</ele><time>2026-04-28T14:16:41Z</time></trkpt><trkpt lat="34.55427442481136" lon="-5.011001699548215"><ele>189.57142857142858</ele><time>2026-04-28T14:16:42Z</time></trkpt><trkpt lat="34.55430792061166" lon="-5.011066469013292"><ele>189.14285714285717</ele><time>2026-04-28T14:16:43Z</time></trkpt><trkpt lat="34.55434192529346" lon="-5.011134144381023"><ele>188.71428571428572</ele><time>2026-04-28T14:16:44Z</time></trkpt><trkpt lat="34.55437507838574" lon="-5.011203551881027"><ele>188.28571428571428</ele><time>2026-04-28T14:16:45Z</time></trkpt><trkpt lat="34.55440683665305" lon="-5.011276743699299"><ele>187.85714285714286</ele><time>2026-04-28T14:16:46Z</time></trkpt><trkpt lat="34.554439803129235" lon="-5.0113533295301895"><ele>187.42857142857142</ele><time>2026-04-28T14:16:47Z</time></trkpt><trkpt lat="34.55447442666447" lon="-5.011430333810954"><ele>187.0</ele><time>2026-04-28T14:16:48Z</time></trkpt><trkpt lat="34.55450772279113" lon="-5.011508181244197"><ele>189.0</ele><time>2026-04-28T14:16:49Z</time></trkpt><trkpt lat="34.55454164086425" lon="-5.011586521617144"><ele>191.0</ele><time>2026-04-28T14:16:50Z</time></trkpt><trkpt lat="34.55457430599894" lon="-5.011666604937061"><ele>193.0</ele><time>2026-04-28T14:16:51Z</time></trkpt><trkpt lat="34.554623001316706" lon="-5.011735110941141"><ele>195.0</ele><time>2026-04-28T14:16:52Z</time></trkpt><trkpt lat="34.55464532278923" lon="-5.011821691738945"><ele>196.99999999999997</ele><time>2026-04-28T14:16:53Z</time></trkpt><trkpt lat="34.55470407372622" lon="-5.011879664545401"><ele>199.0</ele><time>2026-04-28T14:16:54Z</time></trkpt><trkpt lat="34.55475589172082" lon="-5.011950921351948"><ele>198.99999999999997</ele><time>2026-04-28T14:16:55Z</time></trkpt><trkpt lat="34.554811771199475" lon="-5.012009694388692"><ele>199.0</ele><time>2026-04-28T14:16:56Z</time></trkpt><trkpt lat="34.5548705528866" lon="-5.012071709355315"><ele>199.0</ele><time>2026-04-28T14:16:57Z</time></trkpt><trkpt lat="34.55492618315674" lon="-5.012122940329588"><ele>199.0</ele><time>2026-04-28T14:16:58Z</time></trkpt><trkpt lat="34.55498327812112" lon="-5.012175130076253"><ele>199.0</ele><time>2026-04-28T14:16:59Z</time></trkpt><trkpt lat="34.55503964327573" lon="-5.012215492118285"><ele>198.99999999999997</ele><time>2026-04-28T14:17:00.001Z</time></trkpt><trkpt lat="34.55510292608205" lon="-5.012255231509099"><ele>199.0</ele><time>2026-04-28T14:17:01.001Z</time></trkpt><trkpt lat="34.55516530482094" lon="-5.012294403177445"><ele>198.99999999999997</ele><time>2026-04-28T14:17:02.001Z</time></trkpt><trkpt lat="34.555233600063616" lon="-5.012320297799556"><ele>199.0</ele><time>2026-04-28T14:17:03.001Z</time></trkpt><trkpt lat="34.555306070416826" lon="-5.0123494275772735"><ele>199.0</ele><time>2026-04-28T14:17:04.001Z</time></trkpt><trkpt lat="34.55537724048401" lon="-5.01237790173911"><ele>199.0</ele><time>2026-04-28T14:17:05.001Z</time></trkpt><trkpt lat="34.555449687340094" lon="-5.012406877418892"><ele>198.99999999999997</ele><time>2026-04-28T14:17:06.001Z</time></trkpt><trkpt lat="34.55552357954001" lon="-5.0124364311726355"><ele>199.0</ele><time>2026-04-28T14:17:07.001Z</time></trkpt><trkpt lat="34.555592746380825" lon="-5.0124640949847"><ele>198.7142857142857</ele><time>2026-04-28T14:17:08.001Z</time></trkpt><trkpt lat="34.555659230049244" lon="-5.012490685639485"><ele>198.42857142857142</ele><time>2026-04-28T14:17:09.001Z</time></trkpt><trkpt lat="34.55572547720354" lon="-5.012517181700396"><ele>198.14285714285714</ele><time>2026-04-28T14:17:10.001Z</time></trkpt><trkpt lat="34.555791486879826" lon="-5.012543752973529"><ele>197.85714285714283</ele><time>2026-04-28T14:17:11.001Z</time></trkpt><trkpt lat="34.55585966674576" lon="-5.01257478485264"><ele>197.57142857142858</ele><time>2026-04-28T14:17:12.001Z</time></trkpt><trkpt lat="34.55592569235062" lon="-5.01260974541118"><ele>197.28571428571428</ele><time>2026-04-28T14:17:13.001Z</time></trkpt><trkpt lat="34.555991634669105" lon="-5.012644661869033"><ele>197.0</ele><time>2026-04-28T14:17:14.001Z</time></trkpt><trkpt lat="34.55605694270564" lon="-5.012679557402445"><ele>197.00000000000003</ele><time>2026-04-28T14:17:15.001Z</time></trkpt><trkpt lat="34.556121537883705" lon="-5.012718080522762"><ele>197.0</ele><time>2026-04-28T14:17:16.001Z</time></trkpt><trkpt lat="34.55618547413949" lon="-5.012760408694432"><ele>197.0</ele><time>2026-04-28T14:17:17.001Z</time></trkpt><trkpt lat="34.55624841294965" lon="-5.01280207652009"><ele>197.0</ele><time>2026-04-28T14:17:18.001Z</time></trkpt><trkpt lat="34.556318066076905" lon="-5.0128521291061485"><ele>197.00000000000003</ele><time>2026-04-28T14:17:19.001Z</time></trkpt><trkpt lat="34.55637492332027" lon="-5.012919730296753"><ele>197.0</ele><time>2026-04-28T14:17:20.001Z</time></trkpt><trkpt lat="34.55646581243164" lon="-5.013007542552771"><ele>199.2</ele><time>2026-04-28T14:17:22Z</time></trkpt><trkpt lat="34.556527590925725" lon="-5.013053150681776"><ele>201.39999999999998</ele><time>2026-04-28T14:17:24Z</time></trkpt><trkpt lat="34.55645054388982" lon="-5.012993848863772"><ele>203.60000000000002</ele><time>2026-04-28T14:17:37Z</time></trkpt><trkpt lat="34.556381833937216" lon="-5.012922811385138"><ele>205.8</ele><time>2026-04-28T14:17:39Z</time></trkpt><trkpt lat="34.55629840906112" lon="-5.012875564991394"><ele>208.0</ele><time>2026-04-28T14:17:41Z</time></trkpt><trkpt lat="34.55620610334806" lon="-5.012813307511042"><ele>205.8</ele><time>2026-04-28T14:17:43Z</time></trkpt><trkpt lat="34.55611195194998" lon="-5.012751004940429"><ele>203.60000000000002</ele><time>2026-04-28T14:17:45Z</time></trkpt><trkpt lat="34.55601596904134" lon="-5.012700720582726"><ele>201.39999999999998</ele><time>2026-04-28T14:17:47Z</time></trkpt><trkpt lat="34.55592281695339" lon="-5.012659519000936"><ele>199.2</ele><time>2026-04-28T14:17:49Z</time></trkpt><trkpt lat="34.555833047687464" lon="-5.012620840341342"><ele>197.0</ele><time>2026-04-28T14:17:51Z</time></trkpt><trkpt lat="34.55573839121527" lon="-5.012568408091109"><ele>197.0</ele><time>2026-04-28T14:17:53Z</time></trkpt><trkpt lat="34.55564245655835" lon="-5.012505492228308"><ele>197.0</ele><time>2026-04-28T14:17:55Z</time></trkpt><trkpt lat="34.555532749548306" lon="-5.012473966569467"><ele>197.0</ele><time>2026-04-28T14:17:57Z</time></trkpt><trkpt lat="34.55541127786791" lon="-5.012436664066843"><ele>197.0</ele><time>2026-04-28T14:17:59Z</time></trkpt><trkpt lat="34.55534985725992" lon="-5.0124083400252"><ele>197.0</ele><time>2026-04-28T14:18:00Z</time></trkpt><trkpt lat="34.55528952765227" lon="-5.012383780593179"><ele>197.39999999999998</ele><time>2026-04-28T14:18:01Z</time></trkpt><trkpt lat="34.55522872225554" lon="-5.012359572333397"><ele>197.79999999999998</ele><time>2026-04-28T14:18:02Z</time></trkpt><trkpt lat="34.55511741945189" lon="-5.012297317326918"><ele>198.2</ele><time>2026-04-28T14:18:04Z</time></trkpt><trkpt lat="34.55500762038997" lon="-5.012224349450063"><ele>198.6</ele><time>2026-04-28T14:18:06Z</time></trkpt><trkpt lat="34.554900379773414" lon="-5.012152398871752"><ele>199.0</ele><time>2026-04-28T14:18:08Z</time></trkpt><trkpt lat="34.55480863853552" lon="-5.0120463705813805"><ele>199.0</ele><time>2026-04-28T14:18:10Z</time></trkpt><trkpt lat="34.55472590167314" lon="-5.011948099272772"><ele>199.0</ele><time>2026-04-28T14:18:12Z</time></trkpt><trkpt lat="34.55463697885704" lon="-5.011848462943398"><ele>199.0</ele><time>2026-04-28T14:18:14Z</time></trkpt><trkpt lat="34.5546135197126" lon="-5.0117602105670445"><ele>199.0</ele><time>2026-04-28T14:18:15Z</time></trkpt><trkpt lat="34.55456331065317" lon="-5.0116886544366634"><ele>199.0</ele><time>2026-04-28T14:18:16Z</time></trkpt><trkpt lat="34.55452626024941" lon="-5.0116084931832185"><ele>197.28571428571428</ele><time>2026-04-28T14:18:17Z</time></trkpt><trkpt lat="34.55449014015766" lon="-5.011530468121714"><ele>195.57142857142856</ele><time>2026-04-28T14:18:18Z</time></trkpt><trkpt lat="34.55445505731264" lon="-5.011452229885114"><ele>193.85714285714283</ele><time>2026-04-28T14:18:19Z</time></trkpt><trkpt lat="34.55442138855394" lon="-5.011375510247823"><ele>192.14285714285714</ele><time>2026-04-28T14:18:20Z</time></trkpt><trkpt lat="34.55438802011108" lon="-5.011299474928184"><ele>190.42857142857144</ele><time>2026-04-28T14:18:21Z</time></trkpt><trkpt lat="34.55435613736666" lon="-5.011226825008415"><ele>188.7142857142857</ele><time>2026-04-28T14:18:22Z</time></trkpt><trkpt lat="34.55432405525175" lon="-5.0111537207920644"><ele>187.0</ele><time>2026-04-28T14:18:23Z</time></trkpt><trkpt lat="34.55430720461955" lon="-5.011075154101166"><ele>187.0</ele><time>2026-04-28T14:18:24Z</time></trkpt><trkpt lat="34.554275824376376" lon="-5.011006438897608"><ele>187.0</ele><time>2026-04-28T14:18:25Z</time></trkpt><trkpt lat="34.554243048210374" lon="-5.010940771425844"><ele>187.0</ele><time>2026-04-28T14:18:26Z</time></trkpt><trkpt lat="34.55416765964683" lon="-5.010830664130691"><ele>187.0</ele><time>2026-04-28T14:18:28Z</time></trkpt><trkpt lat="34.55412023087015" lon="-5.010700226162895"><ele>187.0</ele><time>2026-04-28T14:18:30Z</time></trkpt><trkpt lat="34.554054834702825" lon="-5.010587353756685"><ele>187.42857142857142</ele><time>2026-04-28T14:18:32Z</time></trkpt><trkpt lat="34.55401483614146" lon="-5.01051960896825"><ele>187.85714285714286</ele><time>2026-04-28T14:18:33Z</time></trkpt><trkpt lat="34.55397712565162" lon="-5.010451661384835"><ele>188.28571428571428</ele><time>2026-04-28T14:18:34Z</time></trkpt><trkpt lat="34.55393753131554" lon="-5.010386395270396"><ele>188.71428571428572</ele><time>2026-04-28T14:18:35Z</time></trkpt><trkpt lat="34.55389838186558" lon="-5.010313149111564"><ele>189.14285714285717</ele><time>2026-04-28T14:18:36Z</time></trkpt><trkpt lat="34.55385715809807" lon="-5.01024147787853"><ele>189.57142857142858</ele><time>2026-04-28T14:18:37Z</time></trkpt><trkpt lat="34.55382010328683" lon="-5.0101698678242474"><ele>190.0</ele><time>2026-04-28T14:18:38Z</time></trkpt><trkpt lat="34.55378386235248" lon="-5.010100703138911"><ele>190.0</ele><time>2026-04-28T14:18:39Z</time></trkpt><trkpt lat="34.55374833195113" lon="-5.010028044877235"><ele>190.0</ele><time>2026-04-28T14:18:40Z</time></trkpt><trkpt lat="34.55371009401921" lon="-5.009956684986387"><ele>190.0</ele><time>2026-04-28T14:18:41Z</time></trkpt><trkpt lat="34.553675952650266" lon="-5.009891879514883"><ele>190.0</ele><time>2026-04-28T14:18:42Z</time></trkpt><trkpt lat="34.553620216779585" lon="-5.009778009449613"><ele>190.0</ele><time>2026-04-28T14:18:44Z</time></trkpt><trkpt lat="34.553577343487525" lon="-5.009685466428064"><ele>190.0</ele><time>2026-04-28T14:18:46Z</time></trkpt><trkpt lat="34.553523825455" lon="-5.009583708872094"><ele>189.6</ele><time>2026-04-28T14:18:48Z</time></trkpt><trkpt lat="34.55346358270179" lon="-5.009490146254996"><ele>189.2</ele><time>2026-04-28T14:18:50Z</time></trkpt><trkpt lat="34.55340805385646" lon="-5.00937239424165"><ele>188.8</ele><time>2026-04-28T14:18:52Z</time></trkpt><trkpt lat="34.553352466460325" lon="-5.0092946959700555"><ele>188.4</ele><time>2026-04-28T14:18:54Z</time></trkpt><trkpt lat="34.55331152629426" lon="-5.00920465876403"><ele>188.0</ele><time>2026-04-28T14:18:56Z</time></trkpt><trkpt lat="34.55325739149082" lon="-5.009121262316276"><ele>188.0</ele><time>2026-04-28T14:18:58Z</time></trkpt><trkpt lat="34.553207087373" lon="-5.00902678572644"><ele>188.0</ele><time>2026-04-28T14:19:00Z</time></trkpt><trkpt lat="34.55315639142369" lon="-5.008927166268902"><ele>188.0</ele><time>2026-04-28T14:19:02Z</time></trkpt><trkpt lat="34.553109929234054" lon="-5.008829144111411"><ele>188.0</ele><time>2026-04-28T14:19:04Z</time></trkpt><trkpt lat="34.55306127270823" lon="-5.0087298404102505"><ele>188.0</ele><time>2026-04-28T14:19:06Z</time></trkpt><trkpt lat="34.55300321794086" lon="-5.008645576577915"><ele>188.0</ele><time>2026-04-28T14:19:08Z</time></trkpt><trkpt lat="34.552957258104286" lon="-5.008547955622492"><ele>188.0</ele><time>2026-04-28T14:19:10Z</time></trkpt><trkpt lat="34.552906644701025" lon="-5.008465655631141"><ele>188.0</ele><time>2026-04-28T14:19:12Z</time></trkpt><trkpt lat="34.55287059602418" lon="-5.0083615589273185"><ele>188.0</ele><time>2026-04-28T14:19:14Z</time></trkpt><trkpt lat="34.55286617600401" lon="-5.008237307256217"><ele>188.0</ele><time>2026-04-28T14:19:16Z</time></trkpt><trkpt lat="34.552854543008834" lon="-5.00810855060934"><ele>184.4</ele><time>2026-04-28T14:19:18Z</time></trkpt><trkpt lat="34.5528578926586" lon="-5.007979267987416"><ele>180.8</ele><time>2026-04-28T14:19:20Z</time></trkpt><trkpt lat="34.5528612347641" lon="-5.007845260859072"><ele>177.2</ele><time>2026-04-28T14:19:22Z</time></trkpt><trkpt lat="34.552865850249994" lon="-5.00770679622165"><ele>173.6</ele><time>2026-04-28T14:19:24Z</time></trkpt><trkpt lat="34.55285413841709" lon="-5.007575967675076"><ele>170.0</ele><time>2026-04-28T14:19:26Z</time></trkpt><trkpt lat="34.55281965330211" lon="-5.007453513640288"><ele>170.0</ele><time>2026-04-28T14:19:28Z</time></trkpt><trkpt lat="34.55277608630475" lon="-5.007329715447674"><ele>170.0</ele><time>2026-04-28T14:19:30Z</time></trkpt><trkpt lat="34.552733666093346" lon="-5.007209875586106"><ele>170.0</ele><time>2026-04-28T14:19:32Z</time></trkpt><trkpt lat="34.55270239696635" lon="-5.007121538264125"><ele>170.0</ele><time>2026-04-28T14:19:34Z</time></trkpt><trkpt lat="34.552678996988675" lon="-5.007014873884968"><ele>170.0</ele><time>2026-04-28T14:19:36Z</time></trkpt><trkpt lat="34.55263788093914" lon="-5.006909128003043"><ele>170.0</ele><time>2026-04-28T14:19:38Z</time></trkpt><trkpt lat="34.552597284150494" lon="-5.006796222757963"><ele>170.0</ele><time>2026-04-28T14:19:40Z</time></trkpt><trkpt lat="34.55255789960498" lon="-5.0066827273514845"><ele>170.0</ele><time>2026-04-28T14:19:42Z</time></trkpt><trkpt lat="34.55250856593493" lon="-5.006574550091359"><ele>170.0</ele><time>2026-04-28T14:19:44Z</time></trkpt><trkpt lat="34.552491159701496" lon="-5.006452113201067"><ele>170.0</ele><time>2026-04-28T14:19:46Z</time></trkpt><trkpt lat="34.552477382922156" lon="-5.006336109791517"><ele>169.4</ele><time>2026-04-28T14:19:48Z</time></trkpt><trkpt lat="34.55249618176444" lon="-5.006213848420564"><ele>168.8</ele><time>2026-04-28T14:19:50Z</time></trkpt><trkpt lat="34.552515560389914" lon="-5.006094240206884"><ele>168.2</ele><time>2026-04-28T14:19:52Z</time></trkpt><trkpt lat="34.55254155918854" lon="-5.005981560065584"><ele>167.6</ele><time>2026-04-28T14:19:54Z</time></trkpt><trkpt lat="34.552578854210736" lon="-5.0058584394389305"><ele>167.0</ele><time>2026-04-28T14:19:56Z</time></trkpt><trkpt lat="34.55262759466587" lon="-5.005754548824683"><ele>167.8</ele><time>2026-04-28T14:19:58Z</time></trkpt><trkpt lat="34.55270062776649" lon="-5.00566015588387"><ele>168.6</ele><time>2026-04-28T14:20:00Z</time></trkpt><trkpt lat="34.55277190101299" lon="-5.005583614750732"><ele>169.4</ele><time>2026-04-28T14:20:02Z</time></trkpt><trkpt lat="34.55286416817937" lon="-5.005512962054259"><ele>170.20000000000002</ele><time>2026-04-28T14:20:04Z</time></trkpt><trkpt lat="34.55294609479801" lon="-5.0054473431062805"><ele>171.0</ele><time>2026-04-28T14:20:06Z</time></trkpt><trkpt lat="34.553027556348546" lon="-5.005382096657345"><ele>171.0</ele><time>2026-04-28T14:20:08Z</time></trkpt><trkpt lat="34.553091832049894" lon="-5.005306899728373"><ele>171.0</ele><time>2026-04-28T14:20:10Z</time></trkpt><trkpt lat="34.55316832888909" lon="-5.005226157644504"><ele>171.0</ele><time>2026-04-28T14:20:12Z</time></trkpt><trkpt lat="34.55324128801251" lon="-5.005142075732279"><ele>171.0</ele><time>2026-04-28T14:20:14Z</time></trkpt><trkpt lat="34.55330832199418" lon="-5.005052461545801"><ele>171.0</ele><time>2026-04-28T14:20:16Z</time></trkpt><trkpt lat="34.5533780192106" lon="-5.004959287017769"><ele>170.8</ele><time>2026-04-28T14:20:18Z</time></trkpt><trkpt lat="34.55343977463294" lon="-5.004875356887784"><ele>170.60000000000002</ele><time>2026-04-28T14:20:20Z</time></trkpt><trkpt lat="34.553481280078614" lon="-5.004791671092179"><ele>170.4</ele><time>2026-04-28T14:20:22Z</time></trkpt><trkpt lat="34.5535278653385" lon="-5.0046964697772"><ele>170.2</ele><time>2026-04-28T14:20:24Z</time></trkpt><trkpt lat="34.5535831010885" lon="-5.004583384271485"><ele>170.0</ele><time>2026-04-28T14:20:26Z</time></trkpt><trkpt lat="34.55362727758084" lon="-5.004458410727654"><ele>170.0</ele><time>2026-04-28T14:20:28Z</time></trkpt><trkpt lat="34.55365165526341" lon="-5.004387823246071"><ele>170.0</ele><time>2026-04-28T14:20:29Z</time></trkpt><trkpt lat="34.55369890828212" lon="-5.004251293408576"><ele>170.0</ele><time>2026-04-28T14:20:31Z</time></trkpt><trkpt lat="34.55369667749276" lon="-5.004125081240541"><ele>170.0</ele><time>2026-04-28T14:20:33Z</time></trkpt><trkpt lat="34.553686249890845" lon="-5.003989614805404"><ele>170.0</ele><time>2026-04-28T14:20:35Z</time></trkpt><trkpt lat="34.55365227545504" lon="-5.003855237464206"><ele>171.25</ele><time>2026-04-28T14:20:37Z</time></trkpt><trkpt lat="34.553577818900195" lon="-5.0037499410836945"><ele>172.5</ele><time>2026-04-28T14:20:39Z</time></trkpt><trkpt lat="34.55349824135686" lon="-5.003627939301654"><ele>173.75</ele><time>2026-04-28T14:20:41Z</time></trkpt><trkpt lat="34.55344034750765" lon="-5.003493436249987"><ele>175.0</ele><time>2026-04-28T14:20:43Z</time></trkpt><trkpt lat="34.553411933271185" lon="-5.0033494118547495"><ele>175.16666666666669</ele><time>2026-04-28T14:20:45Z</time></trkpt><trkpt lat="34.55340211574609" lon="-5.003234359558777"><ele>175.33333333333334</ele><time>2026-04-28T14:20:47Z</time></trkpt><trkpt lat="34.55339509359168" lon="-5.003148689285045"><ele>175.5</ele><time>2026-04-28T14:20:49Z</time></trkpt><trkpt lat="34.553388252928876" lon="-5.003050245563858"><ele>175.66666666666666</ele><time>2026-04-28T14:20:51Z</time></trkpt><trkpt lat="34.55337288703501" lon="-5.002957069404183"><ele>175.83333333333331</ele><time>2026-04-28T14:20:53Z</time></trkpt><trkpt lat="34.55335451872787" lon="-5.002873599685786"><ele>176.0</ele><time>2026-04-28T14:20:55Z</time></trkpt><trkpt lat="34.55333401636027" lon="-5.002795811292231"><ele>176.0</ele><time>2026-04-28T14:20:58Z</time></trkpt><trkpt lat="34.55331069941248" lon="-5.002701321917388"><ele>176.0</ele><time>2026-04-28T14:30:21.999Z</time></trkpt><trkpt lat="34.55328919835486" lon="-5.002598198568901"><ele>176.0</ele><time>2026-04-28T14:30:25Z</time></trkpt><trkpt lat="34.55327490435625" lon="-5.002505997747586"><ele>176.0</ele><time>2026-04-28T14:30:27Z</time></trkpt><trkpt lat="34.55325994143829" lon="-5.002378782153588"><ele>176.0</ele><time>2026-04-28T14:30:29Z</time></trkpt><trkpt lat="34.55325512758615" lon="-5.002282368111135"><ele>176.0</ele><time>2026-04-28T14:30:30Z</time></trkpt><trkpt lat="34.55325207247796" lon="-5.002180676663356"><ele>176.0</ele><time>2026-04-28T14:30:31Z</time></trkpt><trkpt lat="34.553269785189215" lon="-5.002063918837392"><ele>176.0</ele><time>2026-04-28T14:30:32Z</time></trkpt><trkpt lat="34.553286348691636" lon="-5.001967292018597"><ele>176.0</ele><time>2026-04-28T14:30:33Z</time></trkpt><trkpt lat="34.553300451431376" lon="-5.00188060165179"><ele>176.0</ele><time>2026-04-28T14:30:34Z</time></trkpt><trkpt lat="34.55331415013034" lon="-5.001796394938887"><ele>176.0</ele><time>2026-04-28T14:30:35Z</time></trkpt><trkpt lat="34.55332970504558" lon="-5.0016995406148945"><ele>176.0</ele><time>2026-04-28T14:30:36Z</time></trkpt><trkpt lat="34.55334636023523" lon="-5.001594206287821"><ele>175.8</ele><time>2026-04-28T14:30:37Z</time></trkpt><trkpt lat="34.55335944105255" lon="-5.00147981551861"><ele>175.60000000000002</ele><time>2026-04-28T14:30:38Z</time></trkpt><trkpt lat="34.5533661682482" lon="-5.001347658420897"><ele>175.4</ele><time>2026-04-28T14:30:39Z</time></trkpt><trkpt lat="34.55337305151907" lon="-5.001209574107651"><ele>175.2</ele><time>2026-04-28T14:30:40Z</time></trkpt><trkpt lat="34.55338043500827" lon="-5.001061999589885"><ele>175.0</ele><time>2026-04-28T14:30:41Z</time></trkpt><trkpt lat="34.55338813663544" lon="-5.000910199691083"><ele>174.0</ele><time>2026-04-28T14:30:42Z</time></trkpt><trkpt lat="34.553395662419845" lon="-5.00076576866473"><ele>173.0</ele><time>2026-04-28T14:30:43Z</time></trkpt><trkpt lat="34.553402984195905" lon="-5.000614060071838"><ele>172.0</ele><time>2026-04-28T14:30:44Z</time></trkpt><trkpt lat="34.553413117235316" lon="-5.000456779379726"><ele>171.0</ele><time>2026-04-28T14:30:45Z</time></trkpt><trkpt lat="34.553443244873485" lon="-5.000269607477113"><ele>171.0</ele><time>2026-04-28T14:30:46Z</time></trkpt><trkpt lat="34.55347047483754" lon="-5.000100491564618"><ele>171.0</ele><time>2026-04-28T14:30:47Z</time></trkpt><trkpt lat="34.55349808489814" lon="-4.999929729170169"><ele>171.0</ele><time>2026-04-28T14:30:48Z</time></trkpt><trkpt lat="34.55352648079358" lon="-4.999756519458782"><ele>171.0</ele><time>2026-04-28T14:30:49Z</time></trkpt><trkpt lat="34.55355403088088" lon="-4.999589413381621"><ele>171.0</ele><time>2026-04-28T14:30:50Z</time></trkpt><trkpt lat="34.55358378767489" lon="-4.999413782822855"><ele>171.0</ele><time>2026-04-28T14:30:51Z</time></trkpt><trkpt lat="34.55361479378994" lon="-4.999234395917966"><ele>171.0</ele><time>2026-04-28T14:30:52Z</time></trkpt><trkpt lat="34.553637022073865" lon="-4.99905859826289"><ele>171.0</ele><time>2026-04-28T14:30:53Z</time></trkpt><trkpt lat="34.55365171901204" lon="-4.998885767985169"><ele>170.25</ele><time>2026-04-28T14:30:54Z</time></trkpt><trkpt lat="34.553652018062856" lon="-4.998707128505759"><ele>169.5</ele><time>2026-04-28T14:30:55Z</time></trkpt><trkpt lat="34.553651016856804" lon="-4.998536743843722"><ele>168.75</ele><time>2026-04-28T14:30:56Z</time></trkpt><trkpt lat="34.55365677889112" lon="-4.998374579453644"><ele>168.0</ele><time>2026-04-28T14:30:57Z</time></trkpt><trkpt lat="34.55367361451304" lon="-4.998205872916313"><ele>167.25</ele><time>2026-04-28T14:30:58Z</time></trkpt><trkpt lat="34.55369707200238" lon="-4.998049721628772"><ele>166.5</ele><time>2026-04-28T14:30:59Z</time></trkpt><trkpt lat="34.55371734125528" lon="-4.997908040775762"><ele>165.75</ele><time>2026-04-28T14:31:00Z</time></trkpt><trkpt lat="34.55373641343361" lon="-4.997774727398277"><ele>165.0</ele><time>2026-04-28T14:31:01Z</time></trkpt><trkpt lat="34.55375558384441" lon="-4.997646802670969"><ele>167.33333333333334</ele><time>2026-04-28T14:31:02Z</time></trkpt><trkpt lat="34.55377158642744" lon="-4.997531554732887"><ele>169.66666666666666</ele><time>2026-04-28T14:31:03Z</time></trkpt><trkpt lat="34.553783688165105" lon="-4.9974179136546955"><ele>172.0</ele><time>2026-04-28T14:31:04Z</time></trkpt><trkpt lat="34.55379542688476" lon="-4.99730946793025"><ele>174.33333333333331</ele><time>2026-04-28T14:31:05Z</time></trkpt><trkpt lat="34.55380314186823" lon="-4.99721121481204"><ele>176.66666666666666</ele><time>2026-04-28T14:31:06Z</time></trkpt><trkpt lat="34.55380788274724" lon="-4.997107885202497"><ele>179.0</ele><time>2026-04-28T14:31:07Z</time></trkpt><trkpt lat="34.55380245136676" lon="-4.997004169936818"><ele>179.0</ele><time>2026-04-28T14:31:08Z</time></trkpt><trkpt lat="34.553788739790235" lon="-4.9968749035501085"><ele>179.0</ele><time>2026-04-28T14:31:09Z</time></trkpt><trkpt lat="34.553773169962916" lon="-4.996759671390538"><ele>179.0</ele><time>2026-04-28T14:31:10Z</time></trkpt><trkpt lat="34.553755214591824" lon="-4.996650781685503"><ele>179.0</ele><time>2026-04-28T14:31:11Z</time></trkpt><trkpt lat="34.55373688986322" lon="-4.996539012970342"><ele>179.0</ele><time>2026-04-28T14:31:12Z</time></trkpt><trkpt lat="34.55371898598341" lon="-4.996413387926845"><ele>176.6</ele><time>2026-04-28T14:31:13Z</time></trkpt><trkpt lat="34.5537048830785" lon="-4.996277461438683"><ele>174.2</ele><time>2026-04-28T14:31:14Z</time></trkpt><trkpt lat="34.55369112057837" lon="-4.99613731549744"><ele>171.79999999999998</ele><time>2026-04-28T14:31:15Z</time></trkpt><trkpt lat="34.55367748527995" lon="-4.996005324517119"><ele>169.39999999999998</ele><time>2026-04-28T14:31:16Z</time></trkpt><trkpt lat="34.553665354176744" lon="-4.995883324231626"><ele>167.0</ele><time>2026-04-28T14:31:17Z</time></trkpt><trkpt lat="34.55365829994023" lon="-4.995747187678305"><ele>167.0</ele><time>2026-04-28T14:31:18Z</time></trkpt><trkpt lat="34.55365373787443" lon="-4.995616644369018"><ele>167.0</ele><time>2026-04-28T14:31:19Z</time></trkpt><trkpt lat="34.55364825406571" lon="-4.995467337841026"><ele>167.0</ele><time>2026-04-28T14:31:20Z</time></trkpt><trkpt lat="34.55364337003767" lon="-4.99531452415499"><ele>167.0</ele><time>2026-04-28T14:31:21Z</time></trkpt><trkpt lat="34.55363848156907" lon="-4.995149760479941"><ele>167.25</ele><time>2026-04-28T14:31:22Z</time></trkpt><trkpt lat="34.553632555476696" lon="-4.99497468288477"><ele>167.5</ele><time>2026-04-28T14:31:23Z</time></trkpt><trkpt lat="34.55362574226892" lon="-4.994798077853817"><ele>167.75</ele><time>2026-04-28T14:31:24Z</time></trkpt><trkpt lat="34.55361691155698" lon="-4.99462698735066"><ele>168.0</ele><time>2026-04-28T14:31:25Z</time></trkpt><trkpt lat="34.553608793142416" lon="-4.9944696972496985"><ele>168.0</ele><time>2026-04-28T14:31:26Z</time></trkpt><trkpt lat="34.553595535852466" lon="-4.99432177108372"><ele>168.0</ele><time>2026-04-28T14:31:27Z</time></trkpt><trkpt lat="34.5535722194547" lon="-4.994162667504937"><ele>168.0</ele><time>2026-04-28T14:31:28Z</time></trkpt><trkpt lat="34.553530808335886" lon="-4.9940035176537165"><ele>168.0</ele><time>2026-04-28T14:31:29Z</time></trkpt><trkpt lat="34.55347988358138" lon="-4.9938423473939695"><ele>168.0</ele><time>2026-04-28T14:31:30Z</time></trkpt><trkpt lat="34.55342605240326" lon="-4.993690175203027"><ele>168.0</ele><time>2026-04-28T14:31:31Z</time></trkpt><trkpt lat="34.55336629279655" lon="-4.993551361246236"><ele>168.0</ele><time>2026-04-28T14:31:32Z</time></trkpt><trkpt lat="34.55331173811109" lon="-4.993424637659388"><ele>168.0</ele><time>2026-04-28T14:31:33Z</time></trkpt><trkpt lat="34.55326087900106" lon="-4.993305256943975"><ele>168.75</ele><time>2026-04-28T14:31:34Z</time></trkpt><trkpt lat="34.553216279218226" lon="-4.9932012226635365"><ele>169.5</ele><time>2026-04-28T14:31:35Z</time></trkpt><trkpt lat="34.55316830676574" lon="-4.993089945544256"><ele>170.25</ele><time>2026-04-28T14:31:36Z</time></trkpt><trkpt lat="34.55310465107368" lon="-4.992939393441865"><ele>171.0</ele><time>2026-04-28T14:31:37Z</time></trkpt><trkpt lat="34.55303790601001" lon="-4.992783414567818"><ele>171.0</ele><time>2026-04-28T14:31:38Z</time></trkpt><trkpt lat="34.55296885849739" lon="-4.992622923350171"><ele>171.0</ele><time>2026-04-28T14:31:39Z</time></trkpt><trkpt lat="34.552896585895354" lon="-4.9924541579553425"><ele>171.0</ele><time>2026-04-28T14:31:40Z</time></trkpt><trkpt lat="34.55281963084688" lon="-4.992272807803208"><ele>170.66666666666666</ele><time>2026-04-28T14:31:40.999Z</time></trkpt><trkpt lat="34.55274372106362" lon="-4.992081040960012"><ele>170.33333333333331</ele><time>2026-04-28T14:31:41.999Z</time></trkpt><trkpt lat="34.55266802590025" lon="-4.991889869623117"><ele>170.0</ele><time>2026-04-28T14:31:42.999Z</time></trkpt><trkpt lat="34.55259364019145" lon="-4.991703802322154"><ele>170.33333333333331</ele><time>2026-04-28T14:31:43.999Z</time></trkpt><trkpt lat="34.55251841524869" lon="-4.991514015211306"><ele>170.66666666666666</ele><time>2026-04-28T14:31:44.999Z</time></trkpt><trkpt lat="34.5524524560984" lon="-4.991312869197944"><ele>171.0</ele><time>2026-04-28T14:31:45.999Z</time></trkpt><trkpt lat="34.5523778320633" lon="-4.991137557830279"><ele>171.0</ele><time>2026-04-28T14:31:46.999Z</time></trkpt><trkpt lat="34.55229297272357" lon="-4.990986360492727"><ele>171.0</ele><time>2026-04-28T14:31:47.999Z</time></trkpt><trkpt lat="34.55218153600615" lon="-4.9908757272756805"><ele>171.0</ele><time>2026-04-28T14:31:48.999Z</time></trkpt><trkpt lat="34.55205082862837" lon="-4.990795465435615"><ele>171.0</ele><time>2026-04-28T14:31:49.999Z</time></trkpt><trkpt lat="34.55190221793056" lon="-4.990743073360561"><ele>170.75</ele><time>2026-04-28T14:31:50.999Z</time></trkpt><trkpt lat="34.55175516155313" lon="-4.990696159392743"><ele>170.5</ele><time>2026-04-28T14:31:52Z</time></trkpt><trkpt lat="34.55162322788349" lon="-4.990655701141316"><ele>170.25</ele><time>2026-04-28T14:31:53Z</time></trkpt><trkpt lat="34.55149257601598" lon="-4.990609455230916"><ele>170.0</ele><time>2026-04-28T14:31:54Z</time></trkpt><trkpt lat="34.55136192522666" lon="-4.990557941111991"><ele>170.0</ele><time>2026-04-28T14:31:55Z</time></trkpt><trkpt lat="34.55122794087962" lon="-4.990495117541283"><ele>170.0</ele><time>2026-04-28T14:31:56Z</time></trkpt><trkpt lat="34.55108714481024" lon="-4.990431640560441"><ele>170.0</ele><time>2026-04-28T14:31:57Z</time></trkpt><trkpt lat="34.55094681562032" lon="-4.990354712170345"><ele>170.0</ele><time>2026-04-28T14:31:58Z</time></trkpt><trkpt lat="34.550811963997575" lon="-4.990261600923182"><ele>169.33333333333331</ele><time>2026-04-28T14:31:59Z</time></trkpt><trkpt lat="34.55068395083244" lon="-4.990150896162725"><ele>168.66666666666666</ele><time>2026-04-28T14:32:00Z</time></trkpt><trkpt lat="34.55055764977423" lon="-4.990021057580408"><ele>168.0</ele><time>2026-04-28T14:32:01Z</time></trkpt><trkpt lat="34.55043859097869" lon="-4.989865171911901"><ele>167.66666666666666</ele><time>2026-04-28T14:32:02Z</time></trkpt><trkpt lat="34.55031146551039" lon="-4.9897062277428725"><ele>167.33333333333331</ele><time>2026-04-28T14:32:03Z</time></trkpt><trkpt lat="34.55019438795656" lon="-4.989533395957695"><ele>167.0</ele><time>2026-04-28T14:32:04Z</time></trkpt><trkpt lat="34.550084449249326" lon="-4.989371875014673"><ele>167.0</ele><time>2026-04-28T14:32:05Z</time></trkpt><trkpt lat="34.54998308113839" lon="-4.989223639370618"><ele>167.0</ele><time>2026-04-28T14:32:06Z</time></trkpt><trkpt lat="34.54989482608164" lon="-4.989071655870037"><ele>167.0</ele><time>2026-04-28T14:32:07Z</time></trkpt><trkpt lat="34.54983001450778" lon="-4.988931444499268"><ele>167.0</ele><time>2026-04-28T14:32:08Z</time></trkpt><trkpt lat="34.54978781446901" lon="-4.9887711070934575"><ele>168.0</ele><time>2026-04-28T14:32:09Z</time></trkpt><trkpt lat="34.549752895430494" lon="-4.988618280163154"><ele>169.0</ele><time>2026-04-28T14:32:10Z</time></trkpt><trkpt lat="34.54972614731862" lon="-4.988492163350615"><ele>170.0</ele><time>2026-04-28T14:32:11Z</time></trkpt><trkpt lat="34.5497077645771" lon="-4.988403331472808"><ele>171.0</ele><time>2026-04-28T14:32:12Z</time></trkpt><trkpt lat="34.5496915423435" lon="-4.988324939238391"><ele>172.0</ele><time>2026-04-28T14:32:13Z</time></trkpt><trkpt lat="34.549674280971416" lon="-4.9882410444193575"><ele>171.66666666666669</ele><time>2026-04-28T14:32:14Z</time></trkpt><trkpt lat="34.54965495641701" lon="-4.988147130306291"><ele>171.33333333333334</ele><time>2026-04-28T14:32:15Z</time></trkpt><trkpt lat="34.54963487507604" lon="-4.9880495385891415"><ele>171.0</ele><time>2026-04-28T14:32:16Z</time></trkpt><trkpt lat="34.549605018843266" lon="-4.987955820464247"><ele>170.66666666666666</ele><time>2026-04-28T14:32:17Z</time></trkpt><trkpt lat="34.54956817925414" lon="-4.987847454222655"><ele>170.33333333333331</ele><time>2026-04-28T14:32:18Z</time></trkpt><trkpt lat="34.54949793276855" lon="-4.987757414144476"><ele>170.0</ele><time>2026-04-28T14:32:19Z</time></trkpt><trkpt lat="34.54941587018983" lon="-4.987680275761535"><ele>170.0</ele><time>2026-04-28T14:32:20Z</time></trkpt><trkpt lat="34.54931205764958" lon="-4.9876241140592"><ele>170.0</ele><time>2026-04-28T14:32:21Z</time></trkpt><trkpt lat="34.549185498080774" lon="-4.987573042271363"><ele>170.0</ele><time>2026-04-28T14:32:22Z</time></trkpt><trkpt lat="34.54903616891506" lon="-4.987585173223816"><ele>170.0</ele><time>2026-04-28T14:32:23Z</time></trkpt><trkpt lat="34.548886872351446" lon="-4.987569158690079"><ele>170.0</ele><time>2026-04-28T14:32:24Z</time></trkpt><trkpt lat="34.548740409325404" lon="-4.987571339043026"><ele>170.0</ele><time>2026-04-28T14:32:25Z</time></trkpt><trkpt lat="34.548597902680136" lon="-4.987559703345036"><ele>170.0</ele><time>2026-04-28T14:32:26Z</time></trkpt><trkpt lat="34.54845734373819" lon="-4.987547518756891"><ele>170.0</ele><time>2026-04-28T14:32:27Z</time></trkpt><trkpt lat="34.548318569923005" lon="-4.987540163825689"><ele>169.75</ele><time>2026-04-28T14:32:28Z</time></trkpt><trkpt lat="34.548179679133575" lon="-4.9875347338391425"><ele>169.5</ele><time>2026-04-28T14:32:29Z</time></trkpt><trkpt lat="34.54804156631129" lon="-4.987526219990729"><ele>169.25</ele><time>2026-04-28T14:32:30Z</time></trkpt><trkpt lat="34.54789956708263" lon="-4.987522156448852"><ele>169.0</ele><time>2026-04-28T14:32:31Z</time></trkpt><trkpt lat="34.54775161143122" lon="-4.987535861957695"><ele>169.0</ele><time>2026-04-28T14:32:32Z</time></trkpt><trkpt lat="34.54760320248657" lon="-4.987559829695593"><ele>169.0</ele><time>2026-04-28T14:32:33Z</time></trkpt><trkpt lat="34.547462144158864" lon="-4.98759016794543"><ele>169.0</ele><time>2026-04-28T14:32:34Z</time></trkpt><trkpt lat="34.54733394440079" lon="-4.987620795732348"><ele>169.0</ele><time>2026-04-28T14:32:35Z</time></trkpt><trkpt lat="34.54721512659094" lon="-4.987649517466545"><ele>169.0</ele><time>2026-04-28T14:32:36Z</time></trkpt><trkpt lat="34.54709651729734" lon="-4.987662628535822"><ele>169.0</ele><time>2026-04-28T14:32:37Z</time></trkpt><trkpt lat="34.54697098230922" lon="-4.9876435848856975"><ele>169.0</ele><time>2026-04-28T14:32:38Z</time></trkpt><trkpt lat="34.5468424995311" lon="-4.98759245407709"><ele>169.0</ele><time>2026-04-28T14:32:39Z</time></trkpt><trkpt lat="34.546714754529" lon="-4.987509938260089"><ele>168.66666666666669</ele><time>2026-04-28T14:32:40Z</time></trkpt><trkpt lat="34.54658605605791" lon="-4.9874051932805115"><ele>168.33333333333334</ele><time>2026-04-28T14:32:41Z</time></trkpt><trkpt lat="34.5464548651398" lon="-4.987297278140703"><ele>168.0</ele><time>2026-04-28T14:32:42Z</time></trkpt><trkpt lat="34.54631843964384" lon="-4.987190634338384"><ele>167.66666666666666</ele><time>2026-04-28T14:32:43Z</time></trkpt><trkpt lat="34.54618739839882" lon="-4.987079827322021"><ele>167.33333333333331</ele><time>2026-04-28T14:32:44Z</time></trkpt><trkpt lat="34.546064108500545" lon="-4.986960663746741"><ele>167.0</ele><time>2026-04-28T14:32:45Z</time></trkpt><trkpt lat="34.54595672537993" lon="-4.98684113500971"><ele>167.0</ele><time>2026-04-28T14:32:46Z</time></trkpt><trkpt lat="34.54585374064455" lon="-4.986735102333782"><ele>167.0</ele><time>2026-04-28T14:32:47Z</time></trkpt><trkpt lat="34.54577606681502" lon="-4.986588064832493"><ele>167.0</ele><time>2026-04-28T14:32:48Z</time></trkpt><trkpt lat="34.54571140629691" lon="-4.986448989126491"><ele>167.0</ele><time>2026-04-28T14:32:49Z</time></trkpt><trkpt lat="34.545672778050466" lon="-4.986303093606819"><ele>168.0</ele><time>2026-04-28T14:32:50Z</time></trkpt><trkpt lat="34.545640893766254" lon="-4.986168172771274"><ele>169.0</ele><time>2026-04-28T14:32:51Z</time></trkpt><trkpt lat="34.54560666094208" lon="-4.986020340529194"><ele>170.0</ele><time>2026-04-28T14:32:52Z</time></trkpt><trkpt lat="34.54555375876152" lon="-4.985868267745908"><ele>171.0</ele><time>2026-04-28T14:32:53Z</time></trkpt><trkpt lat="34.54547441705056" lon="-4.985723290331246"><ele>168.66666666666666</ele><time>2026-04-28T14:32:54Z</time></trkpt><trkpt lat="34.54538802122311" lon="-4.985571313284374"><ele>166.33333333333331</ele><time>2026-04-28T14:32:55Z</time></trkpt><trkpt lat="34.54529759210567" lon="-4.985412131832057"><ele>164.0</ele><time>2026-04-28T14:32:56Z</time></trkpt><trkpt lat="34.54520472430158" lon="-4.985249144333615"><ele>164.0</ele><time>2026-04-28T14:32:57Z</time></trkpt><trkpt lat="34.545109491238904" lon="-4.985081559950731"><ele>164.0</ele><time>2026-04-28T14:32:58Z</time></trkpt><trkpt lat="34.54501063825119" lon="-4.984904724282758"><ele>164.0</ele><time>2026-04-28T14:32:59Z</time></trkpt><trkpt lat="34.54491146859976" lon="-4.984725621790324"><ele>167.33333333333331</ele><time>2026-04-28T14:33:00Z</time></trkpt><trkpt lat="34.54481275533046" lon="-4.984545960040073"><ele>170.66666666666666</ele><time>2026-04-28T14:33:01Z</time></trkpt><trkpt lat="34.544717601558055" lon="-4.984373473533563"><ele>174.0</ele><time>2026-04-28T14:33:02Z</time></trkpt><trkpt lat="34.54462853715138" lon="-4.984210265547725"><ele>171.75</ele><time>2026-04-28T14:33:03Z</time></trkpt><trkpt lat="34.54453809782491" lon="-4.984061706743738"><ele>169.5</ele><time>2026-04-28T14:33:04Z</time></trkpt><trkpt lat="34.54444861803237" lon="-4.983922229345174"><ele>167.25</ele><time>2026-04-28T14:33:05Z</time></trkpt><trkpt lat="34.54436522441446" lon="-4.983791837550485"><ele>165.0</ele><time>2026-04-28T14:33:06Z</time></trkpt><trkpt lat="34.54428643220827" lon="-4.983687117814139"><ele>165.0</ele><time>2026-04-28T14:33:07Z</time></trkpt><trkpt lat="34.54421229940279" lon="-4.983593822757334"><ele>165.0</ele><time>2026-04-28T14:33:08Z</time></trkpt><trkpt lat="34.54415074065857" lon="-4.983515890658349"><ele>165.0</ele><time>2026-04-28T14:33:09Z</time></trkpt><trkpt lat="34.54410331206302" lon="-4.983455847026996"><ele>165.0</ele><time>2026-04-28T14:33:10Z</time></trkpt><trkpt lat="34.54404809553645" lon="-4.983385943823071"><ele>165.0</ele><time>2026-04-28T14:33:12Z</time></trkpt><trkpt lat="34.543989354921905" lon="-4.983311579621811"><ele>165.0</ele><time>2026-04-28T14:33:14Z</time></trkpt><trkpt lat="34.54390833014491" lon="-4.983209002915191"><ele>164.5</ele><time>2026-04-28T14:33:16Z</time></trkpt><trkpt lat="34.543852354707795" lon="-4.983138139125318"><ele>164.0</ele><time>2026-04-28T14:33:17Z</time></trkpt><trkpt lat="34.543789913134034" lon="-4.983059089314316"><ele>163.5</ele><time>2026-04-28T14:33:18Z</time></trkpt><trkpt lat="34.54373242738756" lon="-4.982986747697642"><ele>163.0</ele><time>2026-04-28T14:33:19Z</time></trkpt><trkpt lat="34.54366961147411" lon="-4.982908339502358"><ele>162.5</ele><time>2026-04-28T14:33:20Z</time></trkpt><trkpt lat="34.54360731470056" lon="-4.982830579224416"><ele>162.0</ele><time>2026-04-28T14:33:21Z</time></trkpt><trkpt lat="34.54355165313737" lon="-4.982732138288221"><ele>162.0</ele><time>2026-04-28T14:33:22Z</time></trkpt><trkpt lat="34.54347687515494" lon="-4.982652158114263"><ele>162.0</ele><time>2026-04-28T14:33:23Z</time></trkpt><trkpt lat="34.54341203007415" lon="-4.982567852012836"><ele>162.0</ele><time>2026-04-28T14:33:24Z</time></trkpt><trkpt lat="34.54333437362277" lon="-4.982506518116593"><ele>162.0</ele><time>2026-04-28T14:33:25Z</time></trkpt><trkpt lat="34.54327811867557" lon="-4.982422528614883"><ele>162.0</ele><time>2026-04-28T14:33:26Z</time></trkpt><trkpt lat="34.543209196525694" lon="-4.982349441280632"><ele>161.8</ele><time>2026-04-28T14:33:27Z</time></trkpt><trkpt lat="34.54313512687144" lon="-4.982277839003107"><ele>161.6</ele><time>2026-04-28T14:33:28Z</time></trkpt><trkpt lat="34.54306144865194" lon="-4.982198641801471"><ele>161.4</ele><time>2026-04-28T14:33:29Z</time></trkpt><trkpt lat="34.54298520692212" lon="-4.982110096502723"><ele>161.20000000000002</ele><time>2026-04-28T14:33:30Z</time></trkpt><trkpt lat="34.542900330989845" lon="-4.982019383512758"><ele>161.0</ele><time>2026-04-28T14:33:31Z</time></trkpt><trkpt lat="34.54280545710881" lon="-4.981920121266544"><ele>161.0</ele><time>2026-04-28T14:33:32Z</time></trkpt><trkpt lat="34.542703304368615" lon="-4.9818168777554"><ele>161.0</ele><time>2026-04-28T14:33:33Z</time></trkpt><trkpt lat="34.54260116332924" lon="-4.981702127353943"><ele>161.0</ele><time>2026-04-28T14:33:34Z</time></trkpt><trkpt lat="34.54249037566396" lon="-4.98160781007624"><ele>161.0</ele><time>2026-04-28T14:33:35Z</time></trkpt><trkpt lat="34.542402987681136" lon="-4.981498488750344"><ele>163.75</ele><time>2026-04-28T14:33:36Z</time></trkpt><trkpt lat="34.54233867722585" lon="-4.9813776995618255"><ele>166.5</ele><time>2026-04-28T14:33:37Z</time></trkpt><trkpt lat="34.542254496162485" lon="-4.981266021896036"><ele>169.25</ele><time>2026-04-28T14:33:38Z</time></trkpt><trkpt lat="34.54217052351736" lon="-4.981146596250967"><ele>172.0</ele><time>2026-04-28T14:33:39Z</time></trkpt><trkpt lat="34.54209585716452" lon="-4.981038392943225"><ele>171.39999999999998</ele><time>2026-04-28T14:33:40Z</time></trkpt><trkpt lat="34.54202848808681" lon="-4.980939593352535"><ele>170.79999999999998</ele><time>2026-04-28T14:33:41Z</time></trkpt><trkpt lat="34.541961797898026" lon="-4.980847440914156"><ele>170.2</ele><time>2026-04-28T14:33:42Z</time></trkpt><trkpt lat="34.541896068056175" lon="-4.980758031185583"><ele>169.6</ele><time>2026-04-28T14:33:43Z</time></trkpt><trkpt lat="34.54184388462847" lon="-4.980676782272949"><ele>169.0</ele><time>2026-04-28T14:33:44Z</time></trkpt><trkpt lat="34.54180032665879" lon="-4.980614899466829"><ele>169.0</ele><time>2026-04-28T14:33:45Z</time></trkpt><trkpt lat="34.54172670043506" lon="-4.980521447494257"><ele>169.0</ele><time>2026-04-28T14:33:47Z</time></trkpt><trkpt lat="34.54162553520215" lon="-4.980418387216732"><ele>169.0</ele><time>2026-04-28T14:33:49Z</time></trkpt><trkpt lat="34.541555667192355" lon="-4.9803421362498685"><ele>169.0</ele><time>2026-04-28T14:33:50Z</time></trkpt><trkpt lat="34.54147749809979" lon="-4.980258330687506"><ele>169.0</ele><time>2026-04-28T14:33:51Z</time></trkpt><trkpt lat="34.54139093660596" lon="-4.9801792991137575"><ele>169.0</ele><time>2026-04-28T14:33:52Z</time></trkpt><trkpt lat="34.54129979309886" lon="-4.98010158087607"><ele>169.0</ele><time>2026-04-28T14:33:53Z</time></trkpt><trkpt lat="34.54120599530946" lon="-4.980032352957847"><ele>169.0</ele><time>2026-04-28T14:33:54Z</time></trkpt><trkpt lat="34.541116486626755" lon="-4.979964673741662"><ele>169.0</ele><time>2026-04-28T14:33:55Z</time></trkpt><trkpt lat="34.541034981053805" lon="-4.979898829613955"><ele>169.0</ele><time>2026-04-28T14:33:56Z</time></trkpt><trkpt lat="34.54096518911516" lon="-4.979831807692227"><ele>168.83333333333334</ele><time>2026-04-28T14:33:57Z</time></trkpt><trkpt lat="34.54090095092262" lon="-4.97977136582193"><ele>168.66666666666669</ele><time>2026-04-28T14:33:58Z</time></trkpt><trkpt lat="34.54084094649639" lon="-4.979722625152961"><ele>168.5</ele><time>2026-04-28T14:33:59Z</time></trkpt><trkpt lat="34.54078569178747" lon="-4.97967567268806"><ele>168.33333333333334</ele><time>2026-04-28T14:34:00Z</time></trkpt><trkpt lat="34.540729981504384" lon="-4.979607438251372"><ele>168.16666666666666</ele><time>2026-04-28T14:34:01Z</time></trkpt><trkpt lat="34.54068388913295" lon="-4.979507754996226"><ele>168.0</ele><time>2026-04-28T14:34:02Z</time></trkpt><trkpt lat="34.5406294595566" lon="-4.979378966850067"><ele>168.0</ele><time>2026-04-28T14:34:03Z</time></trkpt><trkpt lat="34.54057070107777" lon="-4.979253663307318"><ele>168.0</ele><time>2026-04-28T14:34:04Z</time></trkpt><trkpt lat="34.54049261480945" lon="-4.979127532524096"><ele>168.0</ele><time>2026-04-28T14:34:05Z</time></trkpt><trkpt lat="34.540404443768516" lon="-4.978999653760097"><ele>168.0</ele><time>2026-04-28T14:34:06Z</time></trkpt><trkpt lat="34.54030314561141" lon="-4.978870259153764"><ele>168.25</ele><time>2026-04-28T14:34:07Z</time></trkpt><trkpt lat="34.54019323847628" lon="-4.978755639779955"><ele>168.5</ele><time>2026-04-28T14:34:08Z</time></trkpt><trkpt lat="34.54006780718456" lon="-4.97867213503243"><ele>168.75</ele><time>2026-04-28T14:34:09Z</time></trkpt><trkpt lat="34.53996982997746" lon="-4.978566864095525"><ele>169.0</ele><time>2026-04-28T14:34:10Z</time></trkpt><trkpt lat="34.53984071607722" lon="-4.978514885009424"><ele>169.0</ele><time>2026-04-28T14:34:11Z</time></trkpt><trkpt lat="34.539740209137584" lon="-4.978432199468884"><ele>169.0</ele><time>2026-04-28T14:34:12Z</time></trkpt><trkpt lat="34.53962529514736" lon="-4.978398769190199"><ele>169.0</ele><time>2026-04-28T14:34:13Z</time></trkpt><trkpt lat="34.53951670382714" lon="-4.978347394903767"><ele>169.0</ele><time>2026-04-28T14:34:14Z</time></trkpt><trkpt lat="34.5394078657033" lon="-4.9782606035472154"><ele>168.66666666666669</ele><time>2026-04-28T14:34:15Z</time></trkpt><trkpt lat="34.53928945302914" lon="-4.978148371470444"><ele>168.33333333333334</ele><time>2026-04-28T14:34:16Z</time></trkpt><trkpt lat="34.53916751556447" lon="-4.978023152811353"><ele>168.0</ele><time>2026-04-28T14:34:17Z</time></trkpt><trkpt lat="34.539046581109645" lon="-4.9778879517502"><ele>168.0</ele><time>2026-04-28T14:34:18Z</time></trkpt><trkpt lat="34.53893010603931" lon="-4.9777340248853035"><ele>168.0</ele><time>2026-04-28T14:34:19Z</time></trkpt><trkpt lat="34.53881009138052" lon="-4.977590350067152"><ele>168.0</ele><time>2026-04-28T14:34:20Z</time></trkpt><trkpt lat="34.538673800860664" lon="-4.97747541937041"><ele>168.33333333333334</ele><time>2026-04-28T14:34:21Z</time></trkpt><trkpt lat="34.53854200648973" lon="-4.977359536890092"><ele>168.66666666666669</ele><time>2026-04-28T14:34:22Z</time></trkpt><trkpt lat="34.53840801026805" lon="-4.977231075838478"><ele>169.0</ele><time>2026-04-28T14:34:23Z</time></trkpt><trkpt lat="34.538273531715014" lon="-4.977109890575665"><ele>169.0</ele><time>2026-04-28T14:34:24Z</time></trkpt><trkpt lat="34.5381412604864" lon="-4.977001501620984"><ele>169.0</ele><time>2026-04-28T14:34:25Z</time></trkpt><trkpt lat="34.53801595978622" lon="-4.976882515415223"><ele>169.0</ele><time>2026-04-28T14:34:26Z</time></trkpt><trkpt lat="34.5378865072422" lon="-4.976759088764101"><ele>170.33333333333334</ele><time>2026-04-28T14:34:27Z</time></trkpt><trkpt lat="34.53775135711369" lon="-4.97663466088874"><ele>171.66666666666666</ele><time>2026-04-28T14:34:28Z</time></trkpt><trkpt lat="34.53761641227466" lon="-4.976500191257852"><ele>173.0</ele><time>2026-04-28T14:34:29Z</time></trkpt><trkpt lat="34.53748455278898" lon="-4.976359567163173"><ele>173.0</ele><time>2026-04-28T14:34:30Z</time></trkpt><trkpt lat="34.537363928426394" lon="-4.976223909746493"><ele>173.0</ele><time>2026-04-28T14:34:31Z</time></trkpt><trkpt lat="34.53725867084693" lon="-4.976093721998796"><ele>173.0</ele><time>2026-04-28T14:34:32Z</time></trkpt><trkpt lat="34.53715829234126" lon="-4.975963371414627"><ele>171.66666666666666</ele><time>2026-04-28T14:34:33Z</time></trkpt><trkpt lat="34.537051418685145" lon="-4.9758194789435946"><ele>170.33333333333334</ele><time>2026-04-28T14:34:34Z</time></trkpt><trkpt lat="34.53694890147206" lon="-4.97565756568785"><ele>169.0</ele><time>2026-04-28T14:34:35Z</time></trkpt><trkpt lat="34.53685235113334" lon="-4.975490379161531"><ele>169.0</ele><time>2026-04-28T14:34:36Z</time></trkpt><trkpt lat="34.53676090868052" lon="-4.975333368621079"><ele>169.0</ele><time>2026-04-28T14:34:37Z</time></trkpt><trkpt lat="34.536653740022146" lon="-4.9751955644875725"><ele>169.0</ele><time>2026-04-28T14:34:38Z</time></trkpt><trkpt lat="34.53656587448889" lon="-4.975044115501123"><ele>170.66666666666669</ele><time>2026-04-28T14:34:39Z</time></trkpt><trkpt lat="34.53647097389339" lon="-4.974900546134249"><ele>172.33333333333334</ele><time>2026-04-28T14:34:40Z</time></trkpt><trkpt lat="34.53636507426445" lon="-4.974759179576801"><ele>174.0</ele><time>2026-04-28T14:34:41Z</time></trkpt><trkpt lat="34.53626216641302" lon="-4.974603842080147"><ele>172.33333333333334</ele><time>2026-04-28T14:34:42Z</time></trkpt><trkpt lat="34.536157832620326" lon="-4.97444620133943"><ele>170.66666666666669</ele><time>2026-04-28T14:34:43Z</time></trkpt><trkpt lat="34.536067307735244" lon="-4.974277888167541"><ele>169.0</ele><time>2026-04-28T14:34:44Z</time></trkpt><trkpt lat="34.535966355723495" lon="-4.974136862733958"><ele>169.0</ele><time>2026-04-28T14:34:45Z</time></trkpt><trkpt lat="34.53587242153999" lon="-4.973984532708196"><ele>169.0</ele><time>2026-04-28T14:34:46Z</time></trkpt><trkpt lat="34.535779588032696" lon="-4.973830660113298"><ele>169.0</ele><time>2026-04-28T14:34:47Z</time></trkpt><trkpt lat="34.53568826152056" lon="-4.973680511530363"><ele>169.0</ele><time>2026-04-28T14:34:48Z</time></trkpt><trkpt lat="34.53560404619152" lon="-4.973542636369584"><ele>169.0</ele><time>2026-04-28T14:34:49Z</time></trkpt><trkpt lat="34.53554041185581" lon="-4.973407136115619"><ele>169.0</ele><time>2026-04-28T14:34:50Z</time></trkpt><trkpt lat="34.53548927288604" lon="-4.973286744786911"><ele>169.0</ele><time>2026-04-28T14:34:51Z</time></trkpt><trkpt lat="34.53545651431402" lon="-4.973191802607281"><ele>169.2</ele><time>2026-04-28T14:34:52Z</time></trkpt><trkpt lat="34.53542368354624" lon="-4.973057318906323"><ele>169.39999999999998</ele><time>2026-04-28T14:34:54Z</time></trkpt><trkpt lat="34.535382083101865" lon="-4.972972507311286"><ele>169.6</ele><time>2026-04-28T14:34:56Z</time></trkpt><trkpt lat="34.535340543083784" lon="-4.972855376618719"><ele>169.8</ele><time>2026-04-28T14:34:58Z</time></trkpt><trkpt lat="34.535321053343544" lon="-4.972703734265992"><ele>170.0</ele><time>2026-04-28T14:35:00Z</time></trkpt><trkpt lat="34.53530495935931" lon="-4.972625635025033"><ele>169.57142857142858</ele><time>2026-04-28T14:35:01Z</time></trkpt><trkpt lat="34.535280178847806" lon="-4.972535375796189"><ele>169.14285714285714</ele><time>2026-04-28T14:35:02Z</time></trkpt><trkpt lat="34.53525468862212" lon="-4.9724425990530685"><ele>168.71428571428572</ele><time>2026-04-28T14:35:03Z</time></trkpt><trkpt lat="34.53523243402578" lon="-4.972358112901164"><ele>168.28571428571428</ele><time>2026-04-28T14:35:04Z</time></trkpt><trkpt lat="34.53519793380223" lon="-4.972281953740458"><ele>167.85714285714286</ele><time>2026-04-28T14:35:05Z</time></trkpt><trkpt lat="34.53517507605912" lon="-4.972196786111333"><ele>167.42857142857142</ele><time>2026-04-28T14:35:06Z</time></trkpt><trkpt lat="34.53515307147749" lon="-4.972116505643806"><ele>167.0</ele><time>2026-04-28T14:35:07Z</time></trkpt><trkpt lat="34.53513330639377" lon="-4.972043895339329"><ele>167.0</ele><time>2026-04-28T14:35:08Z</time></trkpt><trkpt lat="34.53510062350839" lon="-4.971922744212833"><ele>167.0</ele><time>2026-04-28T14:35:10Z</time></trkpt><trkpt lat="34.53507071092655" lon="-4.9718114521700985"><ele>167.0</ele><time>2026-04-28T14:35:12Z</time></trkpt><trkpt lat="34.53504258826159" lon="-4.9717066499571505"><ele>167.0</ele><time>2026-04-28T14:35:14Z</time></trkpt><trkpt lat="34.53501731252202" lon="-4.971613009405273"><ele>167.0</ele><time>2026-04-28T14:35:16Z</time></trkpt><trkpt lat="34.534991870279384" lon="-4.971518751917951"><ele>167.2</ele><time>2026-04-28T14:35:18Z</time></trkpt><trkpt lat="34.5349609377375" lon="-4.9714041541560245"><ele>167.39999999999998</ele><time>2026-04-28T14:35:20Z</time></trkpt><trkpt lat="34.534917479518555" lon="-4.97125544587468"><ele>167.60000000000002</ele><time>2026-04-28T14:35:22Z</time></trkpt><trkpt lat="34.534889836038666" lon="-4.971163603675689"><ele>167.8</ele><time>2026-04-28T14:35:23Z</time></trkpt><trkpt lat="34.53486245083374" lon="-4.971072618530558"><ele>168.0</ele><time>2026-04-28T14:35:24Z</time></trkpt><trkpt lat="34.534834622036975" lon="-4.971000447569042"><ele>168.0</ele><time>2026-04-28T14:35:25Z</time></trkpt><trkpt lat="34.53481899416734" lon="-4.970915660490399"><ele>168.0</ele><time>2026-04-28T14:35:26Z</time></trkpt><trkpt lat="34.534772238585994" lon="-4.970840119637081"><ele>168.0</ele><time>2026-04-28T14:35:27Z</time></trkpt><trkpt lat="34.53475157859749" lon="-4.970750553256751"><ele>168.0</ele><time>2026-04-28T14:35:28Z</time></trkpt><trkpt lat="34.53469903594303" lon="-4.970674692123435"><ele>168.0</ele><time>2026-04-28T14:35:29Z</time></trkpt><trkpt lat="34.53466634605681" lon="-4.970602987332937"><ele>168.0</ele><time>2026-04-28T14:35:30Z</time></trkpt><trkpt lat="34.53462903425735" lon="-4.970521144462647"><ele>168.0</ele><time>2026-04-28T14:35:31Z</time></trkpt><trkpt lat="34.534590180892806" lon="-4.970435933513998"><ele>168.0</ele><time>2026-04-28T14:35:32Z</time></trkpt><trkpt lat="34.53455156774203" lon="-4.970351268653667"><ele>168.0</ele><time>2026-04-28T14:35:33Z</time></trkpt><trkpt lat="34.53451907587119" lon="-4.9702800255446515"><ele>168.0</ele><time>2026-04-28T14:35:34Z</time></trkpt><trkpt lat="34.53448736390027" lon="-4.970210492357369"><ele>168.0</ele><time>2026-04-28T14:35:35Z</time></trkpt><trkpt lat="34.53443006135551" lon="-4.970084847815156"><ele>168.0</ele><time>2026-04-28T14:35:37Z</time></trkpt><trkpt lat="34.534385585207446" lon="-4.9699481620176025"><ele>168.0</ele><time>2026-04-28T14:35:39Z</time></trkpt><trkpt lat="34.53436019855752" lon="-4.969870986436134"><ele>168.0</ele><time>2026-04-28T14:35:40Z</time></trkpt><trkpt lat="34.53432870289545" lon="-4.969775239850098"><ele>168.0</ele><time>2026-04-28T14:35:41Z</time></trkpt><trkpt lat="34.53429467020748" lon="-4.969665221856369"><ele>168.0</ele><time>2026-04-28T14:35:42Z</time></trkpt><trkpt lat="34.534269663952195" lon="-4.969563398661916"><ele>168.0</ele><time>2026-04-28T14:35:43Z</time></trkpt><trkpt lat="34.534245935862415" lon="-4.969466779929586"><ele>168.0</ele><time>2026-04-28T14:35:44Z</time></trkpt><trkpt lat="34.53422435835831" lon="-4.96937903295537"><ele>168.0</ele><time>2026-04-28T14:35:45Z</time></trkpt><trkpt lat="34.534197477732334" lon="-4.969271823661055"><ele>168.0</ele><time>2026-04-28T14:35:47Z</time></trkpt><trkpt lat="34.53417486013302" lon="-4.969168754354822"><ele>168.0</ele><time>2026-04-28T14:35:49Z</time></trkpt><trkpt lat="34.5341591479887" lon="-4.969093816874529"><ele>168.0</ele><time>2026-04-28T14:35:50Z</time></trkpt><trkpt lat="34.53413605557995" lon="-4.96898368003998"><ele>168.0</ele><time>2026-04-28T14:35:52.001Z</time></trkpt><trkpt lat="34.53410246824405" lon="-4.968823488651132"><ele>168.66666666666666</ele><time>2026-04-28T14:35:54.001Z</time></trkpt><trkpt lat="34.53408558198832" lon="-4.968740019740556"><ele>169.33333333333334</ele><time>2026-04-28T14:35:55.001Z</time></trkpt><trkpt lat="34.53407057250294" lon="-4.96866500387772"><ele>170.0</ele><time>2026-04-28T14:35:56.001Z</time></trkpt><trkpt lat="34.534053740447455" lon="-4.96858087902908"><ele>170.66666666666669</ele><time>2026-04-28T14:35:57.001Z</time></trkpt><trkpt lat="34.53404643134985" lon="-4.968483253278715"><ele>171.33333333333334</ele><time>2026-04-28T14:35:58.001Z</time></trkpt><trkpt lat="34.53401774175069" lon="-4.968360943589485"><ele>172.0</ele><time>2026-04-28T14:35:59.001Z</time></trkpt><trkpt lat="34.533991500553796" lon="-4.968231289719659"><ele>172.5</ele><time>2026-04-28T14:36:00.001Z</time></trkpt><trkpt lat="34.53396465792464" lon="-4.968107904524901"><ele>173.0</ele><time>2026-04-28T14:36:01.001Z</time></trkpt><trkpt lat="34.53393954532921" lon="-4.967969011616507"><ele>173.5</ele><time>2026-04-28T14:36:02.001Z</time></trkpt><trkpt lat="34.53391021499851" lon="-4.967825868639578"><ele>174.0</ele><time>2026-04-28T14:36:03.001Z</time></trkpt><trkpt lat="34.53388282079693" lon="-4.9676927114698595"><ele>174.0</ele><time>2026-04-28T14:36:04.001Z</time></trkpt><trkpt lat="34.533861346872044" lon="-4.96756841807507"><ele>174.0</ele><time>2026-04-28T14:36:05.001Z</time></trkpt><trkpt lat="34.53384015135861" lon="-4.967438675086883"><ele>174.0</ele><time>2026-04-28T14:36:06.001Z</time></trkpt><trkpt lat="34.533810265058136" lon="-4.967301094570112"><ele>174.0</ele><time>2026-04-28T14:36:07.001Z</time></trkpt><trkpt lat="34.53377997063444" lon="-4.967155248620606"><ele>173.75</ele><time>2026-04-28T14:36:08.001Z</time></trkpt><trkpt lat="34.5337533700873" lon="-4.966998146271194"><ele>173.5</ele><time>2026-04-28T14:36:09.001Z</time></trkpt><trkpt lat="34.53373254253538" lon="-4.966842618711306"><ele>173.25</ele><time>2026-04-28T14:36:10.001Z</time></trkpt><trkpt lat="34.53369471258428" lon="-4.966701413188363"><ele>173.0</ele><time>2026-04-28T14:36:11.001Z</time></trkpt><trkpt lat="34.5336904997512" lon="-4.966549941241808"><ele>171.75</ele><time>2026-04-28T14:36:12.001Z</time></trkpt><trkpt lat="34.533671144453066" lon="-4.966398908815403"><ele>170.5</ele><time>2026-04-28T14:36:13.001Z</time></trkpt><trkpt lat="34.53364042996543" lon="-4.966262710715073"><ele>169.25</ele><time>2026-04-28T14:36:14.001Z</time></trkpt><trkpt lat="34.53362272537372" lon="-4.966120815133218"><ele>168.0</ele><time>2026-04-28T14:36:15.001Z</time></trkpt><trkpt lat="34.53360414947817" lon="-4.965972287890378"><ele>168.25</ele><time>2026-04-28T14:36:16.001Z</time></trkpt><trkpt lat="34.53358621786137" lon="-4.965829727443223"><ele>168.5</ele><time>2026-04-28T14:36:17.001Z</time></trkpt><trkpt lat="34.53356944047467" lon="-4.965695103877147"><ele>168.75</ele><time>2026-04-28T14:36:18.001Z</time></trkpt><trkpt lat="34.533552794288234" lon="-4.965562338375776"><ele>169.0</ele><time>2026-04-28T14:36:19.001Z</time></trkpt><trkpt lat="34.53353473928508" lon="-4.965418422115459"><ele>169.0</ele><time>2026-04-28T14:36:20.001Z</time></trkpt><trkpt lat="34.533516019765315" lon="-4.965266408359974"><ele>169.0</ele><time>2026-04-28T14:36:21.001Z</time></trkpt><trkpt lat="34.53349735860287" lon="-4.965114868436046"><ele>169.0</ele><time>2026-04-28T14:36:22.001Z</time></trkpt><trkpt lat="34.533478311796294" lon="-4.9649627348110394"><ele>169.0</ele><time>2026-04-28T14:36:23.001Z</time></trkpt><trkpt lat="34.533463360751746" lon="-4.964815659435235"><ele>169.39999999999998</ele><time>2026-04-28T14:36:24.001Z</time></trkpt><trkpt lat="34.53345418320892" lon="-4.964684170450769"><ele>169.8</ele><time>2026-04-28T14:36:25.001Z</time></trkpt><trkpt lat="34.533466984473534" lon="-4.96454968367547"><ele>170.2</ele><time>2026-04-28T14:36:26.001Z</time></trkpt><trkpt lat="34.53347425056569" lon="-4.9644201859463575"><ele>170.60000000000002</ele><time>2026-04-28T14:36:27.001Z</time></trkpt><trkpt lat="34.533490797438986" lon="-4.964288586756931"><ele>171.0</ele><time>2026-04-28T14:36:28.001Z</time></trkpt><trkpt lat="34.53351798618744" lon="-4.964162663415843"><ele>171.0</ele><time>2026-04-28T14:36:29.001Z</time></trkpt><trkpt lat="34.533539880986545" lon="-4.96404411990658"><ele>171.0</ele><time>2026-04-28T14:36:30.001Z</time></trkpt><trkpt lat="34.53357588312532" lon="-4.963932340434552"><ele>171.0</ele><time>2026-04-28T14:36:31.001Z</time></trkpt><trkpt lat="34.53361443864772" lon="-4.9638241628009565"><ele>171.0</ele><time>2026-04-28T14:36:32.001Z</time></trkpt><trkpt lat="34.53365354804465" lon="-4.963715826192164"><ele>171.0</ele><time>2026-04-28T14:36:33.001Z</time></trkpt><trkpt lat="34.533696935681704" lon="-4.963595638465942"><ele>172.4</ele><time>2026-04-28T14:36:34.001Z</time></trkpt><trkpt lat="34.533741415124354" lon="-4.963473588518975"><ele>173.8</ele><time>2026-04-28T14:36:35.001Z</time></trkpt><trkpt lat="34.53378607021489" lon="-4.963348530612472"><ele>175.20000000000002</ele><time>2026-04-28T14:36:36.001Z</time></trkpt><trkpt lat="34.533832307316985" lon="-4.963220063022284"><ele>176.60000000000002</ele><time>2026-04-28T14:36:37.001Z</time></trkpt><trkpt lat="34.53387632441168" lon="-4.9630986462594535"><ele>178.0</ele><time>2026-04-28T14:36:38.001Z</time></trkpt><trkpt lat="34.53391830486947" lon="-4.96298151557587"><ele>178.0</ele><time>2026-04-28T14:36:39.001Z</time></trkpt><trkpt lat="34.533955104672955" lon="-4.962877061311553"><ele>178.0</ele><time>2026-04-28T14:36:40.001Z</time></trkpt><trkpt lat="34.53399122007089" lon="-4.96277631055399"><ele>178.0</ele><time>2026-04-28T14:36:41.001Z</time></trkpt><trkpt lat="34.534031025838964" lon="-4.962663793981589"><ele>178.0</ele><time>2026-04-28T14:36:42.001Z</time></trkpt><trkpt lat="34.534067103693715" lon="-4.962555811731286"><ele>178.0</ele><time>2026-04-28T14:36:43.001Z</time></trkpt><trkpt lat="34.534105072529286" lon="-4.962444010015987"><ele>177.83333333333334</ele><time>2026-04-28T14:36:44.001Z</time></trkpt><trkpt lat="34.53413944072134" lon="-4.9623428105719025"><ele>177.66666666666669</ele><time>2026-04-28T14:36:45.001Z</time></trkpt><trkpt lat="34.53417202292995" lon="-4.962246617106586"><ele>177.5</ele><time>2026-04-28T14:36:46.001Z</time></trkpt><trkpt lat="34.534203585381704" lon="-4.962153224347426"><ele>177.33333333333334</ele><time>2026-04-28T14:36:47.001Z</time></trkpt><trkpt lat="34.53423684241861" lon="-4.962054316843732"><ele>177.16666666666666</ele><time>2026-04-28T14:36:48.001Z</time></trkpt><trkpt lat="34.53426964346647" lon="-4.961955855422752"><ele>177.0</ele><time>2026-04-28T14:36:49.001Z</time></trkpt><trkpt lat="34.53431393998269" lon="-4.961870747916098"><ele>177.0</ele><time>2026-04-28T14:36:50.001Z</time></trkpt><trkpt lat="34.53434868250678" lon="-4.96176713017909"><ele>177.0</ele><time>2026-04-28T14:36:51.001Z</time></trkpt><trkpt lat="34.53437254509558" lon="-4.9616617233667295"><ele>177.0</ele><time>2026-04-28T14:36:52.001Z</time></trkpt><trkpt lat="34.534411770243864" lon="-4.961551478675521"><ele>177.0</ele><time>2026-04-28T14:36:53.001Z</time></trkpt><trkpt lat="34.53445150257271" lon="-4.96144780037464"><ele>177.0</ele><time>2026-04-28T14:36:54.001Z</time></trkpt><trkpt lat="34.53449699132532" lon="-4.96134043796286"><ele>178.8</ele><time>2026-04-28T14:36:55.001Z</time></trkpt><trkpt lat="34.53455500392249" lon="-4.96124336248556"><ele>180.6</ele><time>2026-04-28T14:36:56.001Z</time></trkpt><trkpt lat="34.5345863187322" lon="-4.961128975165323"><ele>182.4</ele><time>2026-04-28T14:36:57.001Z</time></trkpt><trkpt lat="34.53463305436596" lon="-4.961020453936099"><ele>184.20000000000002</ele><time>2026-04-28T14:36:58.001Z</time></trkpt><trkpt lat="34.53467979023092" lon="-4.9609121348217124"><ele>186.0</ele><time>2026-04-28T14:36:59.001Z</time></trkpt><trkpt lat="34.534724328343955" lon="-4.9608089094275325"><ele>186.0</ele><time>2026-04-28T14:37:00.001Z</time></trkpt><trkpt lat="34.53477291332985" lon="-4.96069645012778"><ele>186.0</ele><time>2026-04-28T14:37:01.001Z</time></trkpt><trkpt lat="34.5348219077067" lon="-4.960583098130383"><ele>186.0</ele><time>2026-04-28T14:37:02.001Z</time></trkpt><trkpt lat="34.534876370613105" lon="-4.960462979468178"><ele>186.0</ele><time>2026-04-28T14:37:03.001Z</time></trkpt><trkpt lat="34.53492999728596" lon="-4.960343175409241"><ele>186.0</ele><time>2026-04-28T14:37:04.001Z</time></trkpt><trkpt lat="34.53498871936377" lon="-4.96023201200071"><ele>186.0</ele><time>2026-04-28T14:37:05.001Z</time></trkpt><trkpt lat="34.53504766426553" lon="-4.960118159933828"><ele>186.0</ele><time>2026-04-28T14:37:06.001Z</time></trkpt><trkpt lat="34.53510754424103" lon="-4.960002501776719"><ele>186.0</ele><time>2026-04-28T14:37:07.001Z</time></trkpt><trkpt lat="34.53516281554291" lon="-4.959895722307314"><ele>186.0</ele><time>2026-04-28T14:37:08.001Z</time></trkpt><trkpt lat="34.53522077197558" lon="-4.959783511259238"><ele>186.0</ele><time>2026-04-28T14:37:09.001Z</time></trkpt><trkpt lat="34.53528008035424" lon="-4.959668682677931"><ele>185.60000000000002</ele><time>2026-04-28T14:37:10.001Z</time></trkpt><trkpt lat="34.535341404303814" lon="-4.959558176423173"><ele>185.2</ele><time>2026-04-28T14:37:11.001Z</time></trkpt><trkpt lat="34.535402737323125" lon="-4.959454728065478"><ele>184.8</ele><time>2026-04-28T14:37:12.001Z</time></trkpt><trkpt lat="34.53546433142801" lon="-4.959366537317965"><ele>184.39999999999998</ele><time>2026-04-28T14:37:13.001Z</time></trkpt><trkpt lat="34.535518119312684" lon="-4.959292419414468"><ele>184.0</ele><time>2026-04-28T14:37:14.001Z</time></trkpt><trkpt lat="34.53557757445698" lon="-4.95921257601143"><ele>185.2</ele><time>2026-04-28T14:37:15.001Z</time></trkpt><trkpt lat="34.53564770592979" lon="-4.959126336331606"><ele>186.39999999999998</ele><time>2026-04-28T14:37:16.001Z</time></trkpt><trkpt lat="34.53572180428424" lon="-4.959041049356095"><ele>187.6</ele><time>2026-04-28T14:37:17.001Z</time></trkpt><trkpt lat="34.53579784406829" lon="-4.958962951335358"><ele>188.8</ele><time>2026-04-28T14:37:18.001Z</time></trkpt><trkpt lat="34.535879179490514" lon="-4.958882319141267"><ele>190.0</ele><time>2026-04-28T14:37:19.001Z</time></trkpt><trkpt lat="34.53595935000636" lon="-4.958809834707655"><ele>190.0</ele><time>2026-04-28T14:37:20.001Z</time></trkpt><trkpt lat="34.53604570096561" lon="-4.958732250011012"><ele>190.0</ele><time>2026-04-28T14:37:21.001Z</time></trkpt><trkpt lat="34.536128563126454" lon="-4.958657486403716"><ele>190.0</ele><time>2026-04-28T14:37:22.001Z</time></trkpt><trkpt lat="34.53622542114984" lon="-4.958583808279054"><ele>190.0</ele><time>2026-04-28T14:37:23.001Z</time></trkpt><trkpt lat="34.53631520598642" lon="-4.9585182313839615"><ele>190.0</ele><time>2026-04-28T14:37:24.001Z</time></trkpt><trkpt lat="34.536437850709824" lon="-4.9584741499349585"><ele>191.25</ele><time>2026-04-28T14:37:25.001Z</time></trkpt><trkpt lat="34.53655447852567" lon="-4.958437172891469"><ele>192.5</ele><time>2026-04-28T14:37:26.001Z</time></trkpt><trkpt lat="34.536671915884554" lon="-4.958413214254141"><ele>193.75</ele><time>2026-04-28T14:37:27.001Z</time></trkpt><trkpt lat="34.536787586873636" lon="-4.958387752107095"><ele>195.0</ele><time>2026-04-28T14:37:28.001Z</time></trkpt><trkpt lat="34.536894874729036" lon="-4.958364135279455"><ele>195.0</ele><time>2026-04-28T14:37:29.001Z</time></trkpt><trkpt lat="34.53698826756598" lon="-4.958337681339283"><ele>195.0</ele><time>2026-04-28T14:37:30.001Z</time></trkpt><trkpt lat="34.53707347553503" lon="-4.958301853633751"><ele>195.0</ele><time>2026-04-28T14:37:31.001Z</time></trkpt><trkpt lat="34.537147962815496" lon="-4.958238249001314"><ele>195.0</ele><time>2026-04-28T14:37:32.001Z</time></trkpt><trkpt lat="34.537219471273055" lon="-4.9581683295722065"><ele>195.0</ele><time>2026-04-28T14:37:33.001Z</time></trkpt><trkpt lat="34.53730834826128" lon="-4.958081167764787"><ele>196.6</ele><time>2026-04-28T14:37:34.001Z</time></trkpt><trkpt lat="34.53739378968227" lon="-4.957997375240894"><ele>198.2</ele><time>2026-04-28T14:37:35.001Z</time></trkpt><trkpt lat="34.53748033801635" lon="-4.95791249719273"><ele>199.8</ele><time>2026-04-28T14:37:36.001Z</time></trkpt><trkpt lat="34.53756557572928" lon="-4.957828905086588"><ele>201.4</ele><time>2026-04-28T14:37:37.001Z</time></trkpt><trkpt lat="34.53765200551723" lon="-4.957745105182313"><ele>203.0</ele><time>2026-04-28T14:37:38.001Z</time></trkpt><trkpt lat="34.53773666709901" lon="-4.957662863778277"><ele>203.0</ele><time>2026-04-28T14:37:39.001Z</time></trkpt><trkpt lat="34.53782126356331" lon="-4.957580685620178"><ele>203.0</ele><time>2026-04-28T14:37:40.001Z</time></trkpt><trkpt lat="34.53789946069543" lon="-4.957504723860866"><ele>203.0</ele><time>2026-04-28T14:37:41.001Z</time></trkpt><trkpt lat="34.53798106669888" lon="-4.957425450689472"><ele>203.0</ele><time>2026-04-28T14:37:42.001Z</time></trkpt><trkpt lat="34.53806254107005" lon="-4.957346305380087"><ele>203.0</ele><time>2026-04-28T14:37:43.001Z</time></trkpt><trkpt lat="34.538132087506646" lon="-4.957278747038523"><ele>203.0</ele><time>2026-04-28T14:37:44.001Z</time></trkpt><trkpt lat="34.53820399186244" lon="-4.957208810211862"><ele>203.0</ele><time>2026-04-28T14:37:45.001Z</time></trkpt><trkpt lat="34.53828470588474" lon="-4.957153618403594"><ele>203.0</ele><time>2026-04-28T14:37:46.001Z</time></trkpt><trkpt lat="34.53835552680865" lon="-4.957074258954329"><ele>203.0</ele><time>2026-04-28T14:37:47.001Z</time></trkpt><trkpt lat="34.53842924075053" lon="-4.957001033098541"><ele>203.0</ele><time>2026-04-28T14:37:48.001Z</time></trkpt><trkpt lat="34.53850087277702" lon="-4.956930946378133"><ele>203.0</ele><time>2026-04-28T14:37:49.001Z</time></trkpt><trkpt lat="34.53857724940206" lon="-4.956855850888393"><ele>203.0</ele><time>2026-04-28T14:37:50.001Z</time></trkpt><trkpt lat="34.538660147625926" lon="-4.956777079769883"><ele>203.0</ele><time>2026-04-28T14:37:51.001Z</time></trkpt><trkpt lat="34.53874551553762" lon="-4.956695328118084"><ele>203.0</ele><time>2026-04-28T14:37:52.001Z</time></trkpt><trkpt lat="34.53883287702846" lon="-4.956606495558098"><ele>203.0</ele><time>2026-04-28T14:37:53.001Z</time></trkpt><trkpt lat="34.538919018414475" lon="-4.956520902159931"><ele>202.5</ele><time>2026-04-28T14:37:54.001Z</time></trkpt><trkpt lat="34.53899900179409" lon="-4.95641169599898"><ele>202.0</ele><time>2026-04-28T14:37:55.001Z</time></trkpt><trkpt lat="34.5390911234423" lon="-4.956313587734839"><ele>201.5</ele><time>2026-04-28T14:37:56.001Z</time></trkpt><trkpt lat="34.53919246487616" lon="-4.956212222771409"><ele>201.0</ele><time>2026-04-28T14:37:57.001Z</time></trkpt><trkpt lat="34.53929389238754" lon="-4.956111495088013"><ele>201.0</ele><time>2026-04-28T14:37:58.001Z</time></trkpt><trkpt lat="34.53938673599709" lon="-4.956018773515546"><ele>201.0</ele><time>2026-04-28T14:37:59.001Z</time></trkpt><trkpt lat="34.53947792949321" lon="-4.955927537424343"><ele>201.0</ele><time>2026-04-28T14:38:00.001Z</time></trkpt><trkpt lat="34.53956775684225" lon="-4.955837754843922"><ele>201.0</ele><time>2026-04-28T14:38:01.001Z</time></trkpt><trkpt lat="34.539654597429816" lon="-4.955751073838403"><ele>200.4</ele><time>2026-04-28T14:38:02.001Z</time></trkpt><trkpt lat="34.539738947996156" lon="-4.955666878190198"><ele>199.8</ele><time>2026-04-28T14:38:03.001Z</time></trkpt><trkpt lat="34.53983489725272" lon="-4.955595243193709"><ele>199.20000000000002</ele><time>2026-04-28T14:38:04.001Z</time></trkpt><trkpt lat="34.5399074256937" lon="-4.955499502683071"><ele>198.60000000000002</ele><time>2026-04-28T14:38:05.001Z</time></trkpt><trkpt lat="34.53997892149646" lon="-4.955428493251287"><ele>198.0</ele><time>2026-04-28T14:38:06.001Z</time></trkpt><trkpt lat="34.540047642936656" lon="-4.9553602392607345"><ele>198.0</ele><time>2026-04-28T14:38:07.001Z</time></trkpt><trkpt lat="34.54011188717369" lon="-4.955296432079734"><ele>198.0</ele><time>2026-04-28T14:38:08.001Z</time></trkpt><trkpt lat="34.540168099851435" lon="-4.95524054046349"><ele>198.0</ele><time>2026-04-28T14:38:09.001Z</time></trkpt><trkpt lat="34.54023128946626" lon="-4.955177679001627"><ele>198.0</ele><time>2026-04-28T14:38:10.001Z</time></trkpt><trkpt lat="34.54029606249771" lon="-4.955136969787404"><ele>198.0</ele><time>2026-04-28T14:38:11.001Z</time></trkpt><trkpt lat="34.54034192760487" lon="-4.955074558439597"><ele>198.0</ele><time>2026-04-28T14:38:12.001Z</time></trkpt><trkpt lat="34.540378434731664" lon="-4.955010850952488"><ele>198.0</ele><time>2026-04-28T14:38:13.001Z</time></trkpt><trkpt lat="34.5404119814383" lon="-4.954868764647902"><ele>198.75</ele><time>2026-04-28T14:38:15.001Z</time></trkpt><trkpt lat="34.54043065854315" lon="-4.954773255700383"><ele>199.5</ele><time>2026-04-28T14:38:16.001Z</time></trkpt><trkpt lat="34.54023423046684" lon="-4.95477524188108"><ele>200.25</ele><time>2026-04-28T14:38:18.001Z</time></trkpt><trkpt lat="34.54014242953547" lon="-4.954808758644311"><ele>201.0</ele><time>2026-04-28T14:38:19.001Z</time></trkpt><trkpt lat="34.54003317323644" lon="-4.954839604043354"><ele>198.25</ele><time>2026-04-28T14:38:20.001Z</time></trkpt><trkpt lat="34.53992920292277" lon="-4.954882967117238"><ele>195.5</ele><time>2026-04-28T14:38:21.001Z</time></trkpt><trkpt lat="34.53981098758808" lon="-4.954921797669277"><ele>192.75</ele><time>2026-04-28T14:38:22.001Z</time></trkpt><trkpt lat="34.53968116154608" lon="-4.954946104140575"><ele>190.0</ele><time>2026-04-28T14:38:23.001Z</time></trkpt><trkpt lat="34.539554711870245" lon="-4.95499394953177"><ele>190.0</ele><time>2026-04-28T14:38:24.001Z</time></trkpt><trkpt lat="34.53943656693337" lon="-4.9550413868033285"><ele>190.0</ele><time>2026-04-28T14:38:25.001Z</time></trkpt><trkpt lat="34.53931854717318" lon="-4.95509110610647"><ele>190.0</ele><time>2026-04-28T14:38:26.001Z</time></trkpt><trkpt lat="34.53920402026211" lon="-4.9551481704863765"><ele>190.0</ele><time>2026-04-28T14:38:27.001Z</time></trkpt><trkpt lat="34.53910051386375" lon="-4.955230195739652"><ele>190.0</ele><time>2026-04-28T14:38:28.001Z</time></trkpt><trkpt lat="34.5389993250176" lon="-4.955320464705989"><ele>190.0</ele><time>2026-04-28T14:38:29.001Z</time></trkpt><trkpt lat="34.53889211376485" lon="-4.955397443116362"><ele>190.0</ele><time>2026-04-28T14:38:30.001Z</time></trkpt><trkpt lat="34.538766626125934" lon="-4.9553679845709"><ele>190.0</ele><time>2026-04-28T14:38:31.001Z</time></trkpt><trkpt lat="34.53866193439697" lon="-4.955428708495891"><ele>188.0</ele><time>2026-04-28T14:38:32.001Z</time></trkpt><trkpt lat="34.538563663609395" lon="-4.955482606515472"><ele>186.0</ele><time>2026-04-28T14:38:33.001Z</time></trkpt><trkpt lat="34.53847696142339" lon="-4.955530754824415"><ele>184.0</ele><time>2026-04-28T14:38:34.001Z</time></trkpt><trkpt lat="34.5383884914508" lon="-4.955550054091483"><ele>182.0</ele><time>2026-04-28T14:38:35.001Z</time></trkpt><trkpt lat="34.53829891809966" lon="-4.955524145701039"><ele>180.0</ele><time>2026-04-28T14:38:36.001Z</time></trkpt><trkpt lat="34.53821980191828" lon="-4.955452582520847"><ele>180.0</ele><time>2026-04-28T14:38:37.001Z</time></trkpt><trkpt lat="34.53816032051135" lon="-4.955353492036709"><ele>180.0</ele><time>2026-04-28T14:38:38.001Z</time></trkpt><trkpt lat="34.53811606123978" lon="-4.955240409351073"><ele>180.0</ele><time>2026-04-28T14:38:39.001Z</time></trkpt><trkpt lat="34.53806774025785" lon="-4.9551205030841"><ele>180.0</ele><time>2026-04-28T14:38:40.001Z</time></trkpt><trkpt lat="34.53801071430337" lon="-4.954996093286817"><ele>180.0</ele><time>2026-04-28T14:38:41.001Z</time></trkpt><trkpt lat="34.53795334237919" lon="-4.954874733711723"><ele>177.25</ele><time>2026-04-28T14:38:42.001Z</time></trkpt><trkpt lat="34.53789764775064" lon="-4.954748206825329"><ele>174.5</ele><time>2026-04-28T14:38:43.001Z</time></trkpt><trkpt lat="34.53783414125096" lon="-4.954617209839982"><ele>171.75</ele><time>2026-04-28T14:38:44.001Z</time></trkpt><trkpt lat="34.537767857583695" lon="-4.954484584774158"><ele>169.0</ele><time>2026-04-28T14:38:45.001Z</time></trkpt><trkpt lat="34.53769740480783" lon="-4.954343813555593"><ele>166.25</ele><time>2026-04-28T14:38:46.001Z</time></trkpt><trkpt lat="34.53762921014047" lon="-4.954200435317793"><ele>163.5</ele><time>2026-04-28T14:38:47.001Z</time></trkpt><trkpt lat="34.53755926596656" lon="-4.954059237172775"><ele>160.75</ele><time>2026-04-28T14:38:48.001Z</time></trkpt><trkpt lat="34.537494297830605" lon="-4.953922328795227"><ele>158.0</ele><time>2026-04-28T14:38:49.001Z</time></trkpt><trkpt lat="34.537431472519664" lon="-4.95379359186755"><ele>158.0</ele><time>2026-04-28T14:38:50.001Z</time></trkpt><trkpt lat="34.53737252539118" lon="-4.9536748208246975"><ele>158.0</ele><time>2026-04-28T14:38:51.001Z</time></trkpt><trkpt lat="34.537316436349386" lon="-4.953555392054564"><ele>158.0</ele><time>2026-04-28T14:38:52.001Z</time></trkpt><trkpt lat="34.53725971261361" lon="-4.953431387127476"><ele>158.0</ele><time>2026-04-28T14:38:53.001Z</time></trkpt><trkpt lat="34.53720067514501" lon="-4.953309868665339"><ele>158.20000000000002</ele><time>2026-04-28T14:38:54.001Z</time></trkpt><trkpt lat="34.53714745725188" lon="-4.95319805618307"><ele>158.4</ele><time>2026-04-28T14:38:55.001Z</time></trkpt><trkpt lat="34.537099845755584" lon="-4.953088499741243"><ele>158.60000000000002</ele><time>2026-04-28T14:38:56.001Z</time></trkpt><trkpt lat="34.53705634593994" lon="-4.95298811597357"><ele>158.8</ele><time>2026-04-28T14:38:57Z</time></trkpt><trkpt lat="34.53701227229828" lon="-4.952891295853324"><ele>159.0</ele><time>2026-04-28T14:38:58Z</time></trkpt><trkpt lat="34.5369606645994" lon="-4.952809707063677"><ele>160.6</ele><time>2026-04-28T14:38:59Z</time></trkpt><trkpt lat="34.5368945778082" lon="-4.952742918500543"><ele>162.2</ele><time>2026-04-28T14:39:00Z</time></trkpt><trkpt lat="34.53681329775192" lon="-4.952706427873288"><ele>163.79999999999998</ele><time>2026-04-28T14:39:01Z</time></trkpt><trkpt lat="34.53671927557608" lon="-4.952753752496248"><ele>165.4</ele><time>2026-04-28T14:39:02Z</time></trkpt><trkpt lat="34.53666989868044" lon="-4.952839837103287"><ele>167.0</ele><time>2026-04-28T14:39:03Z</time></trkpt><trkpt lat="34.53658260708099" lon="-4.952902907337581"><ele>167.0</ele><time>2026-04-28T14:39:04Z</time></trkpt><trkpt lat="34.53649054829345" lon="-4.952971676240105"><ele>167.0</ele><time>2026-04-28T14:39:05Z</time></trkpt><trkpt lat="34.53639529969845" lon="-4.9530392172352675"><ele>167.0</ele><time>2026-04-28T14:39:06Z</time></trkpt><trkpt lat="34.53631656964768" lon="-4.953114703335183"><ele>167.0</ele><time>2026-04-28T14:39:07Z</time></trkpt><trkpt lat="34.536235480846045" lon="-4.953164691013302"><ele>167.0</ele><time>2026-04-28T14:39:08Z</time></trkpt><trkpt lat="34.53614351652989" lon="-4.953201711387454"><ele>168.0</ele><time>2026-04-28T14:39:09Z</time></trkpt><trkpt lat="34.53605148231248" lon="-4.953205709893045"><ele>169.0</ele><time>2026-04-28T14:39:10Z</time></trkpt><trkpt lat="34.53596884871341" lon="-4.953192175288486"><ele>170.0</ele><time>2026-04-28T14:39:11Z</time></trkpt><trkpt lat="34.535898302082856" lon="-4.953175321130569"><ele>171.0</ele><time>2026-04-28T14:39:12Z</time></trkpt><trkpt lat="34.53584288882405" lon="-4.95313590388497"><ele>172.0</ele><time>2026-04-28T14:39:13Z</time></trkpt><trkpt lat="34.53579296468848" lon="-4.953016888993054"><ele>173.0</ele><time>2026-04-28T14:39:15Z</time></trkpt><trkpt lat="34.53586801903352" lon="-4.952887716346713"><ele>173.0</ele><time>2026-04-28T14:39:17Z</time></trkpt><trkpt lat="34.5359543518886" lon="-4.952844210926181"><ele>173.0</ele><time>2026-04-28T14:39:18Z</time></trkpt><trkpt lat="34.53604978939674" lon="-4.952805120902275"><ele>173.0</ele><time>2026-04-28T14:39:19Z</time></trkpt><trkpt lat="34.536159161367316" lon="-4.952756763811667"><ele>173.0</ele><time>2026-04-28T14:39:20Z</time></trkpt><trkpt lat="34.536282679362174" lon="-4.952687865523889"><ele>173.0</ele><time>2026-04-28T14:39:21Z</time></trkpt><trkpt lat="34.53640937428433" lon="-4.952616981856792"><ele>174.75</ele><time>2026-04-28T14:39:22Z</time></trkpt><trkpt lat="34.5365261138307" lon="-4.952528843213171"><ele>176.5</ele><time>2026-04-28T14:39:23Z</time></trkpt><trkpt lat="34.536658168641026" lon="-4.952467174057529"><ele>178.25</ele><time>2026-04-28T14:39:24Z</time></trkpt><trkpt lat="34.5367812968338" lon="-4.95236767633639"><ele>180.0</ele><time>2026-04-28T14:39:25Z</time></trkpt><trkpt lat="34.53690794488765" lon="-4.952271889552632"><ele>180.0</ele><time>2026-04-28T14:39:26Z</time></trkpt><trkpt lat="34.537036543770085" lon="-4.952168774633685"><ele>180.0</ele><time>2026-04-28T14:39:27Z</time></trkpt><trkpt lat="34.53717299589271" lon="-4.952061368264068"><ele>180.0</ele><time>2026-04-28T14:39:28Z</time></trkpt><trkpt lat="34.537309080397726" lon="-4.951952559924975"><ele>177.0</ele><time>2026-04-28T14:39:29Z</time></trkpt><trkpt lat="34.537438209260344" lon="-4.951860868559751"><ele>174.0</ele><time>2026-04-28T14:39:30Z</time></trkpt><trkpt lat="34.53756292002534" lon="-4.951790669482302"><ele>171.0</ele><time>2026-04-28T14:39:31Z</time></trkpt><trkpt lat="34.53768213796087" lon="-4.951730722059416"><ele>168.0</ele><time>2026-04-28T14:39:32Z</time></trkpt><trkpt lat="34.537796641130285" lon="-4.951655634495909"><ele>168.25</ele><time>2026-04-28T14:39:33Z</time></trkpt><trkpt lat="34.53790491858242" lon="-4.95156453122103"><ele>168.5</ele><time>2026-04-28T14:39:34Z</time></trkpt><trkpt lat="34.538006561440405" lon="-4.951458129054595"><ele>168.75</ele><time>2026-04-28T14:39:35Z</time></trkpt><trkpt lat="34.5381003373987" lon="-4.951337179389457"><ele>169.0</ele><time>2026-04-28T14:39:36Z</time></trkpt><trkpt lat="34.53818336610484" lon="-4.951207955731224"><ele>169.0</ele><time>2026-04-28T14:39:37Z</time></trkpt><trkpt lat="34.53823653667606" lon="-4.951075288680525"><ele>169.0</ele><time>2026-04-28T14:39:38Z</time></trkpt><trkpt lat="34.53827157234563" lon="-4.950933893222984"><ele>169.0</ele><time>2026-04-28T14:39:39Z</time></trkpt><trkpt lat="34.53828855622772" lon="-4.950788298146877"><ele>169.0</ele><time>2026-04-28T14:39:40Z</time></trkpt><trkpt lat="34.53828978550235" lon="-4.950633140522509"><ele>171.5</ele><time>2026-04-28T14:39:41Z</time></trkpt><trkpt lat="34.538295087936554" lon="-4.95048347342015"><ele>174.0</ele><time>2026-04-28T14:39:42Z</time></trkpt><trkpt lat="34.53831213156454" lon="-4.950334956227895"><ele>176.5</ele><time>2026-04-28T14:39:43Z</time></trkpt><trkpt lat="34.538352086342414" lon="-4.9501941565832865"><ele>179.0</ele><time>2026-04-28T14:39:44Z</time></trkpt><trkpt lat="34.538413108747164" lon="-4.9500698553050135"><ele>180.2</ele><time>2026-04-28T14:39:45Z</time></trkpt><trkpt lat="34.538471337142916" lon="-4.94995359723536"><ele>181.39999999999998</ele><time>2026-04-28T14:39:46Z</time></trkpt><trkpt lat="34.53854178686819" lon="-4.949857606245537"><ele>182.6</ele><time>2026-04-28T14:39:47Z</time></trkpt><trkpt lat="34.53862145319285" lon="-4.949772366916567"><ele>183.8</ele><time>2026-04-28T14:39:48Z</time></trkpt><trkpt lat="34.5386943102785" lon="-4.949686474867636"><ele>185.0</ele><time>2026-04-28T14:39:49Z</time></trkpt><trkpt lat="34.53876054800741" lon="-4.949601265180708"><ele>183.83333333333331</ele><time>2026-04-28T14:39:50Z</time></trkpt><trkpt lat="34.53882613350302" lon="-4.9495187947517545"><ele>182.66666666666666</ele><time>2026-04-28T14:39:51Z</time></trkpt><trkpt lat="34.538889592740645" lon="-4.949440356242368"><ele>181.5</ele><time>2026-04-28T14:39:52Z</time></trkpt><trkpt lat="34.538943866862745" lon="-4.9493750216652295"><ele>180.33333333333334</ele><time>2026-04-28T14:39:53Z</time></trkpt><trkpt lat="34.538992262497146" lon="-4.9493212236438335"><ele>179.16666666666669</ele><time>2026-04-28T14:39:54Z</time></trkpt><trkpt lat="34.53904775359656" lon="-4.949254682630818"><ele>178.0</ele><time>2026-04-28T14:39:56Z</time></trkpt><trkpt lat="34.539106608778354" lon="-4.949176420234707"><ele>178.0</ele><time>2026-04-28T14:40:09.001Z</time></trkpt><trkpt lat="34.53919088319972" lon="-4.949122474444029"><ele>178.0</ele><time>2026-04-28T14:40:11.001Z</time></trkpt><trkpt lat="34.539255764006604" lon="-4.949031119867011"><ele>178.0</ele><time>2026-04-28T14:40:13.001Z</time></trkpt><trkpt lat="34.53933027349126" lon="-4.948965476165469"><ele>178.0</ele><time>2026-04-28T14:40:15.001Z</time></trkpt><trkpt lat="34.53940911679024" lon="-4.948902686880128"><ele>178.0</ele><time>2026-04-28T14:40:17.001Z</time></trkpt><trkpt lat="34.53948489901816" lon="-4.948846673303538"><ele>178.0</ele><time>2026-04-28T14:40:19.001Z</time></trkpt><trkpt lat="34.5395427221267" lon="-4.9487816021567745"><ele>178.0</ele><time>2026-04-28T14:40:22.001Z</time></trkpt><trkpt lat="34.53949236925416" lon="-4.948892693940609"><ele>178.0</ele><time>2026-04-28T14:40:28.001Z</time></trkpt><trkpt lat="34.53941002399214" lon="-4.948985703150868"><ele>178.0</ele><time>2026-04-28T14:40:29.001Z</time></trkpt><trkpt lat="34.539325051060004" lon="-4.94904590346151"><ele>178.0</ele><time>2026-04-28T14:40:30.001Z</time></trkpt><trkpt lat="34.53925800137728" lon="-4.949093536894638"><ele>178.0</ele><time>2026-04-28T14:40:31.001Z</time></trkpt><trkpt lat="34.53915597153088" lon="-4.949149792968169"><ele>178.0</ele><time>2026-04-28T14:40:33.001Z</time></trkpt><trkpt lat="34.539074309676906" lon="-4.949223326393454"><ele>178.0</ele><time>2026-04-28T14:40:35.001Z</time></trkpt><trkpt lat="34.53901507410668" lon="-4.949264928598866"><ele>178.0</ele><time>2026-04-28T14:40:36.001Z</time></trkpt><trkpt lat="34.5389445755186" lon="-4.94931520041181"><ele>178.0</ele><time>2026-04-28T14:40:37.001Z</time></trkpt><trkpt lat="34.538873411491416" lon="-4.949366852692073"><ele>178.0</ele><time>2026-04-28T14:40:38.001Z</time></trkpt><trkpt lat="34.538793752853195" lon="-4.949424260196963"><ele>178.99999999999997</ele><time>2026-04-28T14:40:39Z</time></trkpt><trkpt lat="34.53871974447758" lon="-4.949476053377685"><ele>180.0</ele><time>2026-04-28T14:40:40Z</time></trkpt><trkpt lat="34.53865408773074" lon="-4.949507976104762"><ele>181.0</ele><time>2026-04-28T14:40:41Z</time></trkpt><trkpt lat="34.53859498822593" lon="-4.949538975729009"><ele>182.0</ele><time>2026-04-28T14:40:42Z</time></trkpt><trkpt lat="34.53853494625905" lon="-4.94956931239838"><ele>183.0</ele><time>2026-04-28T14:40:43Z</time></trkpt><trkpt lat="34.53846657412245" lon="-4.949602326232521"><ele>183.99999999999997</ele><time>2026-04-28T14:40:44Z</time></trkpt><trkpt lat="34.53839628084119" lon="-4.949636267740288"><ele>185.0</ele><time>2026-04-28T14:40:45Z</time></trkpt><trkpt lat="34.53832390389564" lon="-4.949671214770013"><ele>185.0</ele><time>2026-04-28T14:40:46Z</time></trkpt><trkpt lat="34.5382228971532" lon="-4.949651352426281"><ele>185.0</ele><time>2026-04-28T14:40:47Z</time></trkpt><trkpt lat="34.53814839674602" lon="-4.949651352420375"><ele>185.0</ele><time>2026-04-28T14:40:48Z</time></trkpt><trkpt lat="34.538064568457564" lon="-4.94965135241436"><ele>185.0</ele><time>2026-04-28T14:40:49Z</time></trkpt><trkpt lat="34.537966402551945" lon="-4.949651352412085"><ele>185.0</ele><time>2026-04-28T14:40:50Z</time></trkpt><trkpt lat="34.53787745354356" lon="-4.949650088796807"><ele>185.0</ele><time>2026-04-28T14:40:51Z</time></trkpt><trkpt lat="34.53773973739758" lon="-4.949557679502774"><ele>188.16666666666666</ele><time>2026-04-28T14:40:53Z</time></trkpt><trkpt lat="34.537673221303514" lon="-4.9495035171114985"><ele>191.33333333333331</ele><time>2026-04-28T14:40:54Z</time></trkpt><trkpt lat="34.53757725677036" lon="-4.949538454360297"><ele>194.5</ele><time>2026-04-28T14:40:56Z</time></trkpt><trkpt lat="34.53750739510721" lon="-4.94955164172262"><ele>197.66666666666666</ele><time>2026-04-28T14:40:57Z</time></trkpt><trkpt lat="34.53747259052584" lon="-4.949627987640681"><ele>200.83333333333334</ele><time>2026-04-28T14:40:58Z</time></trkpt><trkpt lat="34.537397865858296" lon="-4.949684138216177"><ele>204.0</ele><time>2026-04-28T14:40:59Z</time></trkpt><trkpt lat="34.53729824323777" lon="-4.94970453881849"><ele>204.0</ele><time>2026-04-28T14:41:00Z</time></trkpt><trkpt lat="34.53723088144137" lon="-4.949722473159484"><ele>204.0</ele><time>2026-04-28T14:41:01Z</time></trkpt><trkpt lat="34.537157113774825" lon="-4.949740723462559"><ele>204.0</ele><time>2026-04-28T14:41:02Z</time></trkpt><trkpt lat="34.53707374252636" lon="-4.949744924775023"><ele>204.0</ele><time>2026-04-28T14:41:03Z</time></trkpt><trkpt lat="34.53700330090836" lon="-4.949747180698666"><ele>204.0</ele><time>2026-04-28T14:41:04Z</time></trkpt><trkpt lat="34.53692712346429" lon="-4.949720081494561"><ele>204.0</ele><time>2026-04-28T14:41:05Z</time></trkpt><trkpt lat="34.53682163566052" lon="-4.949633091134267"><ele>206.85714285714286</ele><time>2026-04-28T14:41:07Z</time></trkpt><trkpt lat="34.536770642211835" lon="-4.949586646457047"><ele>209.71428571428572</ele><time>2026-04-28T14:41:08Z</time></trkpt><trkpt lat="34.53672590705047" lon="-4.949514176880448"><ele>212.57142857142856</ele><time>2026-04-28T14:41:09Z</time></trkpt><trkpt lat="34.53668335373669" lon="-4.949430428874908"><ele>215.42857142857144</ele><time>2026-04-28T14:41:10Z</time></trkpt><trkpt lat="34.53663419102574" lon="-4.949362923272425"><ele>218.28571428571428</ele><time>2026-04-28T14:41:11Z</time></trkpt><trkpt lat="34.536595944997686" lon="-4.9493004456990795"><ele>221.14285714285714</ele><time>2026-04-28T14:41:12Z</time></trkpt><trkpt lat="34.536563077876906" lon="-4.9492198618346235"><ele>224.0</ele><time>2026-04-28T14:41:13Z</time></trkpt><trkpt lat="34.53651208837013" lon="-4.9491508542342455"><ele>224.0</ele><time>2026-04-28T14:41:14Z</time></trkpt><trkpt lat="34.536473312905805" lon="-4.9490783066816455"><ele>224.0</ele><time>2026-04-28T14:41:15Z</time></trkpt><trkpt lat="34.53644545339979" lon="-4.949001392410613"><ele>224.0</ele><time>2026-04-28T14:41:16Z</time></trkpt><trkpt lat="34.53638015959607" lon="-4.948938855949508"><ele>224.0</ele><time>2026-04-28T14:41:18Z</time></trkpt><trkpt lat="34.53634687611109" lon="-4.949018252304303"><ele>224.0</ele><time>2026-04-28T14:41:20Z</time></trkpt><trkpt lat="34.53633426134088" lon="-4.949095560991214"><ele>224.0</ele><time>2026-04-28T14:41:23Z</time></trkpt><trkpt lat="34.53630432702316" lon="-4.949171646804454"><ele>224.0</ele><time>2026-04-28T14:41:24Z</time></trkpt><trkpt lat="34.536281307752596" lon="-4.949248147293471"><ele>224.00000000000003</ele><time>2026-04-28T14:41:25Z</time></trkpt><trkpt lat="34.536260092514816" lon="-4.949322945213593"><ele>224.0</ele><time>2026-04-28T14:41:26Z</time></trkpt><trkpt lat="34.53622407064794" lon="-4.949446321183101"><ele>224.0</ele><time>2026-04-28T14:41:28Z</time></trkpt><trkpt lat="34.536168657232714" lon="-4.949546848301515"><ele>224.0</ele><time>2026-04-28T14:41:30Z</time></trkpt><trkpt lat="34.53610187994916" lon="-4.94959383932856"><ele>224.00000000000003</ele><time>2026-04-28T14:41:31Z</time></trkpt><trkpt lat="34.53602903147942" lon="-4.949632538541244"><ele>224.0</ele><time>2026-04-28T14:41:33Z</time></trkpt><trkpt lat="34.53595610167382" lon="-4.949623564478316"><ele>225.66666666666669</ele><time>2026-04-28T14:41:34Z</time></trkpt><trkpt lat="34.53585625031112" lon="-4.949626439224484"><ele>227.33333333333334</ele><time>2026-04-28T14:41:36Z</time></trkpt><trkpt lat="34.53577291231239" lon="-4.949628700637944"><ele>229.0</ele><time>2026-04-28T14:41:38Z</time></trkpt><trkpt lat="34.53572226374848" lon="-4.949521335994196"><ele>230.66666666666669</ele><time>2026-04-28T14:41:40Z</time></trkpt><trkpt lat="34.5357469474709" lon="-4.949420566580521"><ele>232.33333333333334</ele><time>2026-04-28T14:41:42Z</time></trkpt><trkpt lat="34.53575225097257" lon="-4.9493416399161525"><ele>234.0</ele><time>2026-04-28T14:41:43Z</time></trkpt><trkpt lat="34.53571402240864" lon="-4.94924614965585"><ele>236.66666666666666</ele><time>2026-04-28T14:41:44Z</time></trkpt><trkpt lat="34.535697284828174" lon="-4.94915585774556"><ele>239.33333333333331</ele><time>2026-04-28T14:41:45Z</time></trkpt><trkpt lat="34.53561799525014" lon="-4.949111941738744"><ele>242.0</ele><time>2026-04-28T14:41:46Z</time></trkpt><trkpt lat="34.53557437285617" lon="-4.949042996105826"><ele>244.66666666666666</ele><time>2026-04-28T14:41:47Z</time></trkpt><trkpt lat="34.535510706636316" lon="-4.948964637641102"><ele>247.33333333333331</ele><time>2026-04-28T14:41:48Z</time></trkpt><trkpt lat="34.53546825347731" lon="-4.94889558635163"><ele>250.0</ele><time>2026-04-28T14:41:49Z</time></trkpt><trkpt lat="34.53539527794627" lon="-4.948837613023523"><ele>253.4</ele><time>2026-04-28T14:41:51Z</time></trkpt><trkpt lat="34.53532872848653" lon="-4.948886660350637"><ele>256.8</ele><time>2026-04-28T14:41:53Z</time></trkpt><trkpt lat="34.535289426162755" lon="-4.948749101218077"><ele>260.2</ele><time>2026-04-28T14:41:55Z</time></trkpt><trkpt lat="34.5352994171195" lon="-4.948658509145059"><ele>263.6</ele><time>2026-04-28T14:41:57Z</time></trkpt><trkpt lat="34.53522874800744" lon="-4.9486983630677335"><ele>267.0</ele><time>2026-04-28T14:42:01Z</time></trkpt><trkpt lat="34.535298369798745" lon="-4.94858688460682"><ele>267.0</ele><time>2026-04-28T14:42:03Z</time></trkpt><trkpt lat="34.53526708425191" lon="-4.948661778892929"><ele>267.0</ele><time>2026-04-28T14:42:29Z</time></trkpt><trkpt lat="34.535286879073915" lon="-4.948767386528325"><ele>267.0</ele><time>2026-04-28T14:42:40Z</time></trkpt><trkpt lat="34.53535457562127" lon="-4.9488068711073225"><ele>267.0</ele><time>2026-04-28T14:42:43Z</time></trkpt><trkpt lat="34.53542529518794" lon="-4.948844395376743"><ele>267.0</ele><time>2026-04-28T14:42:45Z</time></trkpt><trkpt lat="34.535484307322925" lon="-4.948910902542451"><ele>267.0</ele><time>2026-04-28T14:42:47Z</time></trkpt><trkpt lat="34.535538720283775" lon="-4.948996584536158"><ele>263.6</ele><time>2026-04-28T14:42:49Z</time></trkpt><trkpt lat="34.535616712547494" lon="-4.949093207215084"><ele>260.2</ele><time>2026-04-28T14:42:51Z</time></trkpt><trkpt lat="34.535687434314774" lon="-4.949185757207684"><ele>256.8</ele><time>2026-04-28T14:42:53Z</time></trkpt><trkpt lat="34.535733941013675" lon="-4.949302564381884"><ele>253.4</ele><time>2026-04-28T14:42:55Z</time></trkpt><trkpt lat="34.535731729593344" lon="-4.949413715264471"><ele>250.0</ele><time>2026-04-28T14:42:57Z</time></trkpt><trkpt lat="34.535717078706895" lon="-4.949503743712711"><ele>246.8</ele><time>2026-04-28T14:42:59Z</time></trkpt><trkpt lat="34.53576301403197" lon="-4.9495637836270285"><ele>243.6</ele><time>2026-04-28T14:43:01Z</time></trkpt><trkpt lat="34.53585939016921" lon="-4.94957821131359"><ele>240.39999999999998</ele><time>2026-04-28T14:43:03Z</time></trkpt><trkpt lat="34.53596636585872" lon="-4.9495557137945685"><ele>237.2</ele><time>2026-04-28T14:43:05Z</time></trkpt><trkpt lat="34.5360624594354" lon="-4.94952547116972"><ele>234.0</ele><time>2026-04-28T14:43:07Z</time></trkpt><trkpt lat="34.53614782311539" lon="-4.949442741901136"><ele>233.6</ele><time>2026-04-28T14:43:09Z</time></trkpt><trkpt lat="34.53622859988361" lon="-4.949309037666365"><ele>233.2</ele><time>2026-04-28T14:43:11Z</time></trkpt><trkpt lat="34.53624946060665" lon="-4.949236124399027"><ele>232.79999999999998</ele><time>2026-04-28T14:43:12Z</time></trkpt><trkpt lat="34.53626996043463" lon="-4.949163847906467"><ele>232.39999999999998</ele><time>2026-04-28T14:43:13Z</time></trkpt><trkpt lat="34.53632134036236" lon="-4.949033582398566"><ele>232.0</ele><time>2026-04-28T14:43:15Z</time></trkpt><trkpt lat="34.53637977408076" lon="-4.948991824276382"><ele>232.0</ele><time>2026-04-28T14:43:17Z</time></trkpt><trkpt lat="34.53644838009366" lon="-4.9489783844071455"><ele>232.0</ele><time>2026-04-28T14:43:21Z</time></trkpt><trkpt lat="34.53652123466612" lon="-4.949088916025722"><ele>232.0</ele><time>2026-04-28T14:43:23Z</time></trkpt><trkpt lat="34.53657768392616" lon="-4.949203231228009"><ele>232.0</ele><time>2026-04-28T14:43:25Z</time></trkpt><trkpt lat="34.53663141611795" lon="-4.949290618978191"><ele>232.0</ele><time>2026-04-28T14:43:27Z</time></trkpt><trkpt lat="34.536678046191966" lon="-4.94939122628108"><ele>230.39999999999998</ele><time>2026-04-28T14:43:29Z</time></trkpt><trkpt lat="34.536750421612936" lon="-4.949485022851582"><ele>228.79999999999998</ele><time>2026-04-28T14:43:31Z</time></trkpt><trkpt lat="34.53681762138104" lon="-4.949592723181831"><ele>227.2</ele><time>2026-04-28T14:43:33Z</time></trkpt><trkpt lat="34.536878998275114" lon="-4.949659930315124"><ele>225.6</ele><time>2026-04-28T14:43:35Z</time></trkpt><trkpt lat="34.536985620270286" lon="-4.949681592305747"><ele>224.0</ele><time>2026-04-28T14:43:37Z</time></trkpt><trkpt lat="34.53708540683576" lon="-4.949687642938903"><ele>220.66666666666669</ele><time>2026-04-28T14:43:39Z</time></trkpt><trkpt lat="34.53719659295948" lon="-4.949678640785169"><ele>217.33333333333334</ele><time>2026-04-28T14:43:41Z</time></trkpt><trkpt lat="34.537313130535544" lon="-4.94964412967728"><ele>214.0</ele><time>2026-04-28T14:43:43Z</time></trkpt><trkpt lat="34.537376736271064" lon="-4.949642871777969"><ele>210.66666666666669</ele><time>2026-04-28T14:43:44Z</time></trkpt><trkpt lat="34.537441512617356" lon="-4.949603879104619"><ele>207.33333333333334</ele><time>2026-04-28T14:43:45Z</time></trkpt><trkpt lat="34.537495063134735" lon="-4.949562693561344"><ele>204.0</ele><time>2026-04-28T14:43:46Z</time></trkpt><trkpt lat="34.53755132261188" lon="-4.9495187336985325"><ele>204.0</ele><time>2026-04-28T14:43:47Z</time></trkpt><trkpt lat="34.53764494872656" lon="-4.9494848555377615"><ele>204.0</ele><time>2026-04-28T14:43:49Z</time></trkpt><trkpt lat="34.53775716684611" lon="-4.9495208445296495"><ele>204.0</ele><time>2026-04-28T14:43:51Z</time></trkpt><trkpt lat="34.53781187004415" lon="-4.949571259222574"><ele>204.0</ele><time>2026-04-28T14:43:52Z</time></trkpt><trkpt lat="34.53793328911036" lon="-4.949620540826163"><ele>204.0</ele><time>2026-04-28T14:43:54Z</time></trkpt><trkpt lat="34.53800434056712" lon="-4.94961698586995"><ele>200.83333333333334</ele><time>2026-04-28T14:43:55Z</time></trkpt><trkpt lat="34.538074524248195" lon="-4.9496137577066825"><ele>197.66666666666666</ele><time>2026-04-28T14:43:56Z</time></trkpt><trkpt lat="34.53814242116724" lon="-4.949614549598392"><ele>194.5</ele><time>2026-04-28T14:43:57Z</time></trkpt><trkpt lat="34.538215593601855" lon="-4.949615699159684"><ele>191.33333333333331</ele><time>2026-04-28T14:43:58Z</time></trkpt><trkpt lat="34.53829140446732" lon="-4.949613652329461"><ele>188.16666666666666</ele><time>2026-04-28T14:43:59Z</time></trkpt><trkpt lat="34.53837289035897" lon="-4.949589874066683"><ele>185.0</ele><time>2026-04-28T14:44:00Z</time></trkpt><trkpt lat="34.538453171954416" lon="-4.949548022272558"><ele>185.0</ele><time>2026-04-28T14:44:01Z</time></trkpt><trkpt lat="34.53852717326055" lon="-4.949529662405587"><ele>185.0</ele><time>2026-04-28T14:44:02Z</time></trkpt><trkpt lat="34.538631522748005" lon="-4.949475874243399"><ele>185.0</ele><time>2026-04-28T14:44:04Z</time></trkpt><trkpt lat="34.53872362030413" lon="-4.949412295460499"><ele>185.0</ele><time>2026-04-28T14:44:06Z</time></trkpt><trkpt lat="34.53883994105995" lon="-4.949344088227578"><ele>185.0</ele><time>2026-04-28T14:44:08Z</time></trkpt><trkpt lat="34.53893070257058" lon="-4.949278253446884"><ele>181.83333333333331</ele><time>2026-04-28T14:44:10Z</time></trkpt><trkpt lat="34.53898981379095" lon="-4.949236051984352"><ele>178.66666666666666</ele><time>2026-04-28T14:44:12Z</time></trkpt><trkpt lat="34.539053888500646" lon="-4.949356470175407"><ele>175.5</ele><time>2026-04-28T14:44:19Z</time></trkpt><trkpt lat="34.538991167587625" lon="-4.949425674844907"><ele>172.33333333333334</ele><time>2026-04-28T14:44:20Z</time></trkpt><trkpt lat="34.5389321906171" lon="-4.949490746311658"><ele>169.16666666666669</ele><time>2026-04-28T14:44:21Z</time></trkpt><trkpt lat="34.53887755343957" lon="-4.949551029807742"><ele>166.0</ele><time>2026-04-28T14:44:22Z</time></trkpt><trkpt lat="34.53881962842886" lon="-4.949618511386515"><ele>166.0</ele><time>2026-04-28T14:44:23Z</time></trkpt><trkpt lat="34.53875545724163" lon="-4.949698585174758"><ele>166.0</ele><time>2026-04-28T14:44:24Z</time></trkpt><trkpt lat="34.53869446542205" lon="-4.949774691676326"><ele>166.0</ele><time>2026-04-28T14:44:25Z</time></trkpt><trkpt lat="34.538627555013385" lon="-4.949858316262938"><ele>166.0</ele><time>2026-04-28T14:44:26Z</time></trkpt><trkpt lat="34.538552271076654" lon="-4.9499527791219"><ele>166.0</ele><time>2026-04-28T14:44:27Z</time></trkpt><trkpt lat="34.53848654759786" lon="-4.950045211759367"><ele>168.60000000000002</ele><time>2026-04-28T14:44:28Z</time></trkpt><trkpt lat="34.53842031216497" lon="-4.95015078868459"><ele>171.2</ele><time>2026-04-28T14:44:29Z</time></trkpt><trkpt lat="34.53838629451089" lon="-4.950275475665184"><ele>173.8</ele><time>2026-04-28T14:44:30Z</time></trkpt><trkpt lat="34.538355994735035" lon="-4.950405427787969"><ele>176.39999999999998</ele><time>2026-04-28T14:44:31Z</time></trkpt><trkpt lat="34.538338002980126" lon="-4.950548875088441"><ele>179.0</ele><time>2026-04-28T14:44:32Z</time></trkpt><trkpt lat="34.53831926852458" lon="-4.950697275994555"><ele>179.0</ele><time>2026-04-28T14:44:33Z</time></trkpt><trkpt lat="34.538289605806376" lon="-4.950841581968547"><ele>179.0</ele><time>2026-04-28T14:44:34Z</time></trkpt><trkpt lat="34.53826257687146" lon="-4.950998982955477"><ele>179.0</ele><time>2026-04-28T14:44:35Z</time></trkpt><trkpt lat="34.53823613380755" lon="-4.9511608701714005"><ele>179.0</ele><time>2026-04-28T14:44:36Z</time></trkpt><trkpt lat="34.53817593552111" lon="-4.951316188160578"><ele>175.66666666666666</ele><time>2026-04-28T14:44:37Z</time></trkpt><trkpt lat="34.53807493499265" lon="-4.951457737649675"><ele>172.33333333333334</ele><time>2026-04-28T14:44:38Z</time></trkpt><trkpt lat="34.53795700586674" lon="-4.951586996385742"><ele>169.0</ele><time>2026-04-28T14:44:39Z</time></trkpt><trkpt lat="34.537818969872454" lon="-4.951714883876596"><ele>168.66666666666669</ele><time>2026-04-28T14:44:40Z</time></trkpt><trkpt lat="34.53768703964421" lon="-4.9518182159878625"><ele>168.33333333333334</ele><time>2026-04-28T14:44:41Z</time></trkpt><trkpt lat="34.53755857845567" lon="-4.951918596777303"><ele>168.0</ele><time>2026-04-28T14:44:42Z</time></trkpt><trkpt lat="34.537432274808346" lon="-4.951999374599984"><ele>168.0</ele><time>2026-04-28T14:44:43Z</time></trkpt><trkpt lat="34.53731050378606" lon="-4.952078880179707"><ele>168.0</ele><time>2026-04-28T14:44:44Z</time></trkpt><trkpt lat="34.53718724530039" lon="-4.952158249501214"><ele>168.0</ele><time>2026-04-28T14:44:45Z</time></trkpt><trkpt lat="34.53706260455326" lon="-4.952238508780589"><ele>168.0</ele><time>2026-04-28T14:44:46Z</time></trkpt><trkpt lat="34.53693863012286" lon="-4.952318309452665"><ele>167.75</ele><time>2026-04-28T14:44:47Z</time></trkpt><trkpt lat="34.53681695872506" lon="-4.952397035464671"><ele>167.5</ele><time>2026-04-28T14:44:48Z</time></trkpt><trkpt lat="34.53669175661696" lon="-4.952459239668848"><ele>167.25</ele><time>2026-04-28T14:44:49Z</time></trkpt><trkpt lat="34.53657378886864" lon="-4.952536167162339"><ele>167.0</ele><time>2026-04-28T14:44:50Z</time></trkpt><trkpt lat="34.536451357230106" lon="-4.952612658345517"><ele>167.0</ele><time>2026-04-28T14:44:51Z</time></trkpt><trkpt lat="34.536320581595405" lon="-4.952693465283072"><ele>167.0</ele><time>2026-04-28T14:44:52Z</time></trkpt><trkpt lat="34.53618453796364" lon="-4.952765141086772"><ele>167.0</ele><time>2026-04-28T14:44:53Z</time></trkpt><trkpt lat="34.53605695884806" lon="-4.95286104306575"><ele>167.0</ele><time>2026-04-28T14:44:54Z</time></trkpt><trkpt lat="34.53591982333235" lon="-4.952944777701673"><ele>169.0</ele><time>2026-04-28T14:44:55Z</time></trkpt><trkpt lat="34.53577716498863" lon="-4.953032077005079"><ele>171.0</ele><time>2026-04-28T14:44:56Z</time></trkpt><trkpt lat="34.53563445378807" lon="-4.95310844983504"><ele>173.0</ele><time>2026-04-28T14:44:57Z</time></trkpt><trkpt lat="34.53549371197052" lon="-4.953186783025924"><ele>172.33333333333331</ele><time>2026-04-28T14:44:58Z</time></trkpt><trkpt lat="34.53534558800006" lon="-4.953268781102715"><ele>171.66666666666666</ele><time>2026-04-28T14:44:59Z</time></trkpt><trkpt lat="34.535194976226194" lon="-4.953351019564247"><ele>171.0</ele><time>2026-04-28T14:45:00Z</time></trkpt><trkpt lat="34.53504142152504" lon="-4.953435753235394"><ele>171.0</ele><time>2026-04-28T14:45:01Z</time></trkpt><trkpt lat="34.53487936253777" lon="-4.953504715431922"><ele>171.0</ele><time>2026-04-28T14:45:02Z</time></trkpt><trkpt lat="34.53472334158362" lon="-4.953592151719775"><ele>171.0</ele><time>2026-04-28T14:45:03Z</time></trkpt><trkpt lat="34.53456395084373" lon="-4.9536778739537555"><ele>175.0</ele><time>2026-04-28T14:45:04Z</time></trkpt><trkpt lat="34.53441294399421" lon="-4.953779508951126"><ele>179.0</ele><time>2026-04-28T14:45:05Z</time></trkpt><trkpt lat="34.53425883730683" lon="-4.953863633634352"><ele>183.0</ele><time>2026-04-28T14:45:06Z</time></trkpt><trkpt lat="34.53410133873714" lon="-4.953952883857127"><ele>183.0</ele><time>2026-04-28T14:45:07Z</time></trkpt><trkpt lat="34.53393299476503" lon="-4.954028221786826"><ele>183.0</ele><time>2026-04-28T14:45:08Z</time></trkpt><trkpt lat="34.53377490710266" lon="-4.9541331183360136"><ele>183.0</ele><time>2026-04-28T14:45:09Z</time></trkpt><trkpt lat="34.53366034739956" lon="-4.954206464639394"><ele>183.5</ele><time>2026-04-28T14:45:10Z</time></trkpt><trkpt lat="34.53352578082055" lon="-4.954284085784749"><ele>184.0</ele><time>2026-04-28T14:45:11Z</time></trkpt><trkpt lat="34.533156627774325" lon="-4.954498873485231"><ele>184.0</ele><time>2026-04-28T14:45:14Z</time></trkpt><trkpt lat="34.533032444323474" lon="-4.954573159874728"><ele>184.0</ele><time>2026-04-28T14:45:15Z</time></trkpt><trkpt lat="34.532910518369796" lon="-4.954646864341872"><ele>184.0</ele><time>2026-04-28T14:45:16Z</time></trkpt><trkpt lat="34.53279165773863" lon="-4.954718743294456"><ele>184.0</ele><time>2026-04-28T14:45:17Z</time></trkpt><trkpt lat="34.53267257358268" lon="-4.954791066322305"><ele>183.25</ele><time>2026-04-28T14:45:18Z</time></trkpt><trkpt lat="34.532554273523544" lon="-4.954863443563885"><ele>182.5</ele><time>2026-04-28T14:45:19Z</time></trkpt><trkpt lat="34.53242945679966" lon="-4.9549397288442005"><ele>181.75</ele><time>2026-04-28T14:45:20Z</time></trkpt><trkpt lat="34.532303649465426" lon="-4.95502151441126"><ele>181.0</ele><time>2026-04-28T14:45:21Z</time></trkpt><trkpt lat="34.53217760053072" lon="-4.955115743275335"><ele>183.33333333333334</ele><time>2026-04-28T14:45:22Z</time></trkpt><trkpt lat="34.53205203372124" lon="-4.955219360664746"><ele>185.66666666666666</ele><time>2026-04-28T14:45:23Z</time></trkpt><trkpt lat="34.5319359250408" lon="-4.955341837871583"><ele>188.0</ele><time>2026-04-28T14:45:24Z</time></trkpt><trkpt lat="34.53180465828991" lon="-4.9554551521731"><ele>188.0</ele><time>2026-04-28T14:45:25Z</time></trkpt><trkpt lat="34.53169498386652" lon="-4.955599762466861"><ele>188.0</ele><time>2026-04-28T14:45:26Z</time></trkpt><trkpt lat="34.531585315669496" lon="-4.95573839767577"><ele>188.0</ele><time>2026-04-28T14:45:27Z</time></trkpt><trkpt lat="34.53147983895322" lon="-4.955869064216371"><ele>189.0</ele><time>2026-04-28T14:45:28Z</time></trkpt><trkpt lat="34.531375904134954" lon="-4.955993683575101"><ele>190.0</ele><time>2026-04-28T14:45:29Z</time></trkpt><trkpt lat="34.53126808620626" lon="-4.95612419776958"><ele>191.0</ele><time>2026-04-28T14:45:30Z</time></trkpt><trkpt lat="34.53115526435111" lon="-4.956263516688599"><ele>191.0</ele><time>2026-04-28T14:45:31Z</time></trkpt><trkpt lat="34.53103556376765" lon="-4.9564081718694375"><ele>191.0</ele><time>2026-04-28T14:45:32Z</time></trkpt><trkpt lat="34.530911534447114" lon="-4.9565552830791955"><ele>191.0</ele><time>2026-04-28T14:45:33Z</time></trkpt><trkpt lat="34.53079432349237" lon="-4.956713990230786"><ele>186.66666666666666</ele><time>2026-04-28T14:45:34Z</time></trkpt><trkpt lat="34.53067177690859" lon="-4.956859751778046"><ele>182.33333333333334</ele><time>2026-04-28T14:45:35Z</time></trkpt><trkpt lat="34.53055329279067" lon="-4.957000415606114"><ele>178.0</ele><time>2026-04-28T14:45:36Z</time></trkpt><trkpt lat="34.530428315691374" lon="-4.957122939607874"><ele>178.75</ele><time>2026-04-28T14:45:37Z</time></trkpt><trkpt lat="34.530318845670166" lon="-4.957253034253421"><ele>179.5</ele><time>2026-04-28T14:45:38Z</time></trkpt><trkpt lat="34.53021655888472" lon="-4.957377404085239"><ele>180.25</ele><time>2026-04-28T14:45:39Z</time></trkpt><trkpt lat="34.530117470354426" lon="-4.95750027145738"><ele>181.0</ele><time>2026-04-28T14:45:40Z</time></trkpt><trkpt lat="34.53001491220034" lon="-4.957623452523132"><ele>181.0</ele><time>2026-04-28T14:45:41Z</time></trkpt><trkpt lat="34.52991072232322" lon="-4.95774433948904"><ele>181.0</ele><time>2026-04-28T14:45:42Z</time></trkpt><trkpt lat="34.529806035520124" lon="-4.957869480680598"><ele>181.0</ele><time>2026-04-28T14:45:43Z</time></trkpt><trkpt lat="34.5296994920969" lon="-4.957995569990891"><ele>181.0</ele><time>2026-04-28T14:45:44Z</time></trkpt><trkpt lat="34.52958722034008" lon="-4.958128798291097"><ele>180.66666666666669</ele><time>2026-04-28T14:45:45Z</time></trkpt><trkpt lat="34.52947051704499" lon="-4.958262998755906"><ele>180.33333333333334</ele><time>2026-04-28T14:45:46Z</time></trkpt><trkpt lat="34.52935276684126" lon="-4.958398188812172"><ele>180.0</ele><time>2026-04-28T14:45:47Z</time></trkpt><trkpt lat="34.52923696828616" lon="-4.958534719538492"><ele>180.0</ele><time>2026-04-28T14:45:48Z</time></trkpt><trkpt lat="34.52912046954814" lon="-4.958671024222896"><ele>180.0</ele><time>2026-04-28T14:45:49Z</time></trkpt><trkpt lat="34.52900389999347" lon="-4.958807681297917"><ele>180.0</ele><time>2026-04-28T14:45:50Z</time></trkpt><trkpt lat="34.52888850220348" lon="-4.9589454677859335"><ele>180.0</ele><time>2026-04-28T14:45:51Z</time></trkpt><trkpt lat="34.528771469067294" lon="-4.959083083956913"><ele>180.0</ele><time>2026-04-28T14:45:52Z</time></trkpt><trkpt lat="34.5286518231802" lon="-4.959223408683483"><ele>180.0</ele><time>2026-04-28T14:45:53Z</time></trkpt><trkpt lat="34.52853356444651" lon="-4.959363201483373"><ele>179.0</ele><time>2026-04-28T14:45:54Z</time></trkpt><trkpt lat="34.528418262016125" lon="-4.959506654182381"><ele>178.0</ele><time>2026-04-28T14:45:55Z</time></trkpt><trkpt lat="34.52830535548469" lon="-4.959642509190684"><ele>177.0</ele><time>2026-04-28T14:45:56Z</time></trkpt><trkpt lat="34.528191179443134" lon="-4.9597761653518875"><ele>177.0</ele><time>2026-04-28T14:45:57Z</time></trkpt><trkpt lat="34.52807699789499" lon="-4.959908597149034"><ele>177.0</ele><time>2026-04-28T14:45:58Z</time></trkpt><trkpt lat="34.52796351299756" lon="-4.960047396752016"><ele>177.0</ele><time>2026-04-28T14:45:59Z</time></trkpt><trkpt lat="34.52785038402091" lon="-4.9601805205460066"><ele>179.33333333333334</ele><time>2026-04-28T14:46:00Z</time></trkpt><trkpt lat="34.52773997962978" lon="-4.960314790770661"><ele>181.66666666666669</ele><time>2026-04-28T14:46:01Z</time></trkpt><trkpt lat="34.527637918708926" lon="-4.9604469106113385"><ele>184.0</ele><time>2026-04-28T14:46:02Z</time></trkpt><trkpt lat="34.52753768562033" lon="-4.96057685466407"><ele>184.0</ele><time>2026-04-28T14:46:03Z</time></trkpt><trkpt lat="34.52743500259902" lon="-4.960695839353394"><ele>184.0</ele><time>2026-04-28T14:46:04Z</time></trkpt><trkpt lat="34.527352015782135" lon="-4.960818361998935"><ele>184.0</ele><time>2026-04-28T14:46:05Z</time></trkpt><trkpt lat="34.52727543977125" lon="-4.960914470483866"><ele>184.0</ele><time>2026-04-28T14:46:06Z</time></trkpt><trkpt lat="34.52721202097194" lon="-4.960992698427831"><ele>186.2</ele><time>2026-04-28T14:46:07Z</time></trkpt><trkpt lat="34.52714744837057" lon="-4.961043249560855"><ele>188.39999999999998</ele><time>2026-04-28T14:46:08Z</time></trkpt><trkpt lat="34.52708798608682" lon="-4.961115092478759"><ele>190.6</ele><time>2026-04-28T14:46:10Z</time></trkpt><trkpt lat="34.52702421210258" lon="-4.961231310813669"><ele>192.8</ele><time>2026-04-28T14:46:53Z</time></trkpt><trkpt lat="34.52697193823539" lon="-4.961308502058792"><ele>195.0</ele><time>2026-04-28T14:46:54Z</time></trkpt><trkpt lat="34.526916282049264" lon="-4.96141865646769"><ele>195.0</ele><time>2026-04-28T14:46:55Z</time></trkpt><trkpt lat="34.526857067181304" lon="-4.9615383981267405"><ele>195.0</ele><time>2026-04-28T14:46:56Z</time></trkpt><trkpt lat="34.52679223581895" lon="-4.961673692454431"><ele>195.0</ele><time>2026-04-28T14:46:57Z</time></trkpt><trkpt lat="34.52672401211966" lon="-4.961819208777372"><ele>195.0</ele><time>2026-04-28T14:46:58Z</time></trkpt><trkpt lat="34.52664773368549" lon="-4.961952417598563"><ele>188.0</ele><time>2026-04-28T14:46:59Z</time></trkpt><trkpt lat="34.52657105304407" lon="-4.962074907898761"><ele>181.0</ele><time>2026-04-28T14:47:00Z</time></trkpt><trkpt lat="34.52647678633393" lon="-4.962178021194084"><ele>174.0</ele><time>2026-04-28T14:47:01Z</time></trkpt><trkpt lat="34.526367676189246" lon="-4.962250421695499"><ele>167.0</ele><time>2026-04-28T14:47:02Z</time></trkpt><trkpt lat="34.52624715970909" lon="-4.962311395405875"><ele>169.33333333333331</ele><time>2026-04-28T14:47:03Z</time></trkpt><trkpt lat="34.526107321603625" lon="-4.962360233463444"><ele>171.66666666666666</ele><time>2026-04-28T14:47:04Z</time></trkpt><trkpt lat="34.525959836748534" lon="-4.962408183128842"><ele>174.0</ele><time>2026-04-28T14:47:05Z</time></trkpt><trkpt lat="34.52580809909009" lon="-4.96246015868442"><ele>174.0</ele><time>2026-04-28T14:47:06Z</time></trkpt><trkpt lat="34.52565874872881" lon="-4.962517198128375"><ele>174.0</ele><time>2026-04-28T14:47:07Z</time></trkpt><trkpt lat="34.525511029859814" lon="-4.962570265501673"><ele>174.0</ele><time>2026-04-28T14:47:08Z</time></trkpt><trkpt lat="34.52536069694375" lon="-4.962624283787873"><ele>170.0</ele><time>2026-04-28T14:47:09Z</time></trkpt><trkpt lat="34.52521364288215" lon="-4.9626951976862355"><ele>166.0</ele><time>2026-04-28T14:47:10Z</time></trkpt><trkpt lat="34.52505868175325" lon="-4.962746054159229"><ele>162.0</ele><time>2026-04-28T14:47:11Z</time></trkpt><trkpt lat="34.524903855458916" lon="-4.962778105833145"><ele>162.0</ele><time>2026-04-28T14:47:12Z</time></trkpt><trkpt lat="34.52474958037185" lon="-4.962803974168947"><ele>162.0</ele><time>2026-04-28T14:47:13Z</time></trkpt><trkpt lat="34.52459630737589" lon="-4.962829122862856"><ele>162.0</ele><time>2026-04-28T14:47:14Z</time></trkpt><trkpt lat="34.52445302712604" lon="-4.962861040410583"><ele>163.75</ele><time>2026-04-28T14:47:15Z</time></trkpt><trkpt lat="34.5243231348312" lon="-4.962913475154894"><ele>165.5</ele><time>2026-04-28T14:47:16Z</time></trkpt><trkpt lat="34.52419940698202" lon="-4.962994474781294"><ele>167.25</ele><time>2026-04-28T14:47:17Z</time></trkpt><trkpt lat="34.524053221605094" lon="-4.963080431613049"><ele>169.0</ele><time>2026-04-28T14:47:18Z</time></trkpt><trkpt lat="34.52389628780839" lon="-4.963143696263172"><ele>169.33333333333334</ele><time>2026-04-28T14:47:19Z</time></trkpt><trkpt lat="34.523725066935995" lon="-4.963171855023694"><ele>169.66666666666666</ele><time>2026-04-28T14:47:20Z</time></trkpt><trkpt lat="34.523551762813305" lon="-4.963199006596535"><ele>170.0</ele><time>2026-04-28T14:47:21Z</time></trkpt><trkpt lat="34.52337440947428" lon="-4.963241535842238"><ele>170.0</ele><time>2026-04-28T14:47:22Z</time></trkpt><trkpt lat="34.52319631535319" lon="-4.963274329412313"><ele>170.0</ele><time>2026-04-28T14:47:23Z</time></trkpt><trkpt lat="34.52301811792115" lon="-4.963307505192399"><ele>170.0</ele><time>2026-04-28T14:47:24Z</time></trkpt><trkpt lat="34.522848697104074" lon="-4.963337934582013"><ele>169.0</ele><time>2026-04-28T14:47:25Z</time></trkpt><trkpt lat="34.522679090976105" lon="-4.963370877038018"><ele>168.0</ele><time>2026-04-28T14:47:26Z</time></trkpt><trkpt lat="34.52250768972291" lon="-4.963417683410826"><ele>167.0</ele><time>2026-04-28T14:47:27Z</time></trkpt><trkpt lat="34.52233129313289" lon="-4.9634928566202055"><ele>167.0</ele><time>2026-04-28T14:47:28Z</time></trkpt><trkpt lat="34.522177697067235" lon="-4.963633334188798"><ele>167.0</ele><time>2026-04-28T14:47:29Z</time></trkpt><trkpt lat="34.52202382685841" lon="-4.963799722887978"><ele>167.0</ele><time>2026-04-28T14:47:30Z</time></trkpt><trkpt lat="34.521898144754914" lon="-4.964008282635499"><ele>167.66666666666666</ele><time>2026-04-28T14:47:31Z</time></trkpt><trkpt lat="34.52176598954838" lon="-4.964207858905248"><ele>168.33333333333334</ele><time>2026-04-28T14:47:32Z</time></trkpt><trkpt lat="34.52164232776696" lon="-4.9644188454922915"><ele>169.0</ele><time>2026-04-28T14:47:33Z</time></trkpt><trkpt lat="34.52150843152457" lon="-4.964623930993459"><ele>169.0</ele><time>2026-04-28T14:47:34Z</time></trkpt><trkpt lat="34.521372548668964" lon="-4.964830901554643"><ele>169.0</ele><time>2026-04-28T14:47:35Z</time></trkpt><trkpt lat="34.52123887012038" lon="-4.965035986579477"><ele>169.0</ele><time>2026-04-28T14:47:36Z</time></trkpt><trkpt lat="34.52111279909288" lon="-4.965228516559815"><ele>171.33333333333334</ele><time>2026-04-28T14:47:37Z</time></trkpt><trkpt lat="34.52099611191158" lon="-4.96540661397466"><ele>173.66666666666666</ele><time>2026-04-28T14:47:38Z</time></trkpt><trkpt lat="34.52088218631839" lon="-4.9655905982373225"><ele>176.0</ele><time>2026-04-28T14:47:39Z</time></trkpt><trkpt lat="34.520813149262" lon="-4.965806270706492"><ele>173.66666666666666</ele><time>2026-04-28T14:47:40Z</time></trkpt><trkpt lat="34.52074684924378" lon="-4.9660483155414035"><ele>171.33333333333334</ele><time>2026-04-28T14:47:41Z</time></trkpt><trkpt lat="34.520695744227375" lon="-4.966313074373101"><ele>169.0</ele><time>2026-04-28T14:47:42Z</time></trkpt><trkpt lat="34.52062854205885" lon="-4.966569778900789"><ele>167.0</ele><time>2026-04-28T14:47:43Z</time></trkpt><trkpt lat="34.52055488706271" lon="-4.966822474173033"><ele>165.0</ele><time>2026-04-28T14:47:44Z</time></trkpt><trkpt lat="34.520457795936736" lon="-4.967069892775722"><ele>163.0</ele><time>2026-04-28T14:47:45Z</time></trkpt><trkpt lat="34.52034448851088" lon="-4.967311363354724"><ele>167.0</ele><time>2026-04-28T14:47:46Z</time></trkpt><trkpt lat="34.52023097164662" lon="-4.967553023217064"><ele>171.0</ele><time>2026-04-28T14:47:47Z</time></trkpt><trkpt lat="34.52011177280863" lon="-4.967790907016339"><ele>171.0</ele><time>2026-04-28T14:47:48Z</time></trkpt><trkpt lat="34.51998513270601" lon="-4.968023608922114"><ele>171.0</ele><time>2026-04-28T14:47:49Z</time></trkpt><trkpt lat="34.519858196789244" lon="-4.96825689126568"><ele>166.0</ele><time>2026-04-28T14:47:50Z</time></trkpt><trkpt lat="34.519754529457984" lon="-4.968508993983785"><ele>161.0</ele><time>2026-04-28T14:47:51Z</time></trkpt><trkpt lat="34.51964448740102" lon="-4.968752605425591"><ele>165.0</ele><time>2026-04-28T14:47:52Z</time></trkpt><trkpt lat="34.51953569887161" lon="-4.969001361667371"><ele>169.0</ele><time>2026-04-28T14:47:53Z</time></trkpt><trkpt lat="34.51942713146201" lon="-4.969230193358375"><ele>169.0</ele><time>2026-04-28T14:47:54Z</time></trkpt><trkpt lat="34.519338851708305" lon="-4.969451123422612"><ele>169.0</ele><time>2026-04-28T14:47:55Z</time></trkpt><trkpt lat="34.51925031629732" lon="-4.969655340921068"><ele>169.0</ele><time>2026-04-28T14:47:56Z</time></trkpt><trkpt lat="34.51916969691325" lon="-4.9698342480383655"><ele>169.0</ele><time>2026-04-28T14:47:57Z</time></trkpt><trkpt lat="34.51908110205148" lon="-4.969981049838676"><ele>169.0</ele><time>2026-04-28T14:47:58Z</time></trkpt><trkpt lat="34.51896562861152" lon="-4.9700943142072"><ele>169.0</ele><time>2026-04-28T14:47:59Z</time></trkpt><trkpt lat="34.51882388699882" lon="-4.970163349702098"><ele>166.66666666666669</ele><time>2026-04-28T14:48:00Z</time></trkpt><trkpt lat="34.518647915085424" lon="-4.970200495346028"><ele>164.33333333333334</ele><time>2026-04-28T14:48:01Z</time></trkpt><trkpt lat="34.518458024452585" lon="-4.970204978492406"><ele>162.0</ele><time>2026-04-28T14:48:02Z</time></trkpt><trkpt lat="34.518251875349144" lon="-4.970213217514105"><ele>162.0</ele><time>2026-04-28T14:48:03Z</time></trkpt><trkpt lat="34.518039421656454" lon="-4.97023399391424"><ele>162.0</ele><time>2026-04-28T14:48:04Z</time></trkpt><trkpt lat="34.51782717508455" lon="-4.970286577825575"><ele>162.0</ele><time>2026-04-28T14:48:05Z</time></trkpt><trkpt lat="34.51761345007972" lon="-4.970324637843287"><ele>164.66666666666666</ele><time>2026-04-28T14:48:06Z</time></trkpt><trkpt lat="34.51740021337011" lon="-4.970348191834087"><ele>167.33333333333331</ele><time>2026-04-28T14:48:07Z</time></trkpt><trkpt lat="34.517183739722896" lon="-4.9703733753990464"><ele>170.0</ele><time>2026-04-28T14:48:08Z</time></trkpt><trkpt lat="34.51696112106421" lon="-4.9703991460130315"><ele>170.5</ele><time>2026-04-28T14:48:09Z</time></trkpt><trkpt lat="34.51672852626931" lon="-4.970407195706216"><ele>171.0</ele><time>2026-04-28T14:48:10Z</time></trkpt><trkpt lat="34.516491945342054" lon="-4.970438041841663"><ele>171.0</ele><time>2026-04-28T14:48:11Z</time></trkpt><trkpt lat="34.51625656226265" lon="-4.970467866093394"><ele>171.0</ele><time>2026-04-28T14:48:11.999Z</time></trkpt><trkpt lat="34.51602352564139" lon="-4.970499614755742"><ele>171.0</ele><time>2026-04-28T14:48:12.999Z</time></trkpt><trkpt lat="34.51579274150997" lon="-4.970525127115971"><ele>171.0</ele><time>2026-04-28T14:48:13.999Z</time></trkpt><trkpt lat="34.51557768719877" lon="-4.970535356604581"><ele>171.0</ele><time>2026-04-28T14:48:14.999Z</time></trkpt><trkpt lat="34.515372227185864" lon="-4.97053290894928"><ele>171.0</ele><time>2026-04-28T14:48:15.999Z</time></trkpt><trkpt lat="34.515162342013255" lon="-4.970558029839468"><ele>171.0</ele><time>2026-04-28T14:48:16.999Z</time></trkpt><trkpt lat="34.514950175189796" lon="-4.9705735263373985"><ele>171.0</ele><time>2026-04-28T14:48:17.999Z</time></trkpt><trkpt lat="34.51474666633203" lon="-4.970562233165118"><ele>171.33333333333334</ele><time>2026-04-28T14:48:18.999Z</time></trkpt><trkpt lat="34.5145605344502" lon="-4.970564934506626"><ele>171.66666666666669</ele><time>2026-04-28T14:48:19.999Z</time></trkpt><trkpt lat="34.51438853429404" lon="-4.970555338373117"><ele>172.0</ele><time>2026-04-28T14:48:20.999Z</time></trkpt><trkpt lat="34.51422736277625" lon="-4.970517506938281"><ele>172.0</ele><time>2026-04-28T14:48:21.999Z</time></trkpt><trkpt lat="34.5140773271828" lon="-4.9704347956992425"><ele>172.0</ele><time>2026-04-28T14:48:22.999Z</time></trkpt><trkpt lat="34.51392450591945" lon="-4.970329553239842"><ele>172.0</ele><time>2026-04-28T14:48:23.999Z</time></trkpt><trkpt lat="34.51377549885928" lon="-4.970184773671564"><ele>171.66666666666669</ele><time>2026-04-28T14:48:24.999Z</time></trkpt><trkpt lat="34.51362248922231" lon="-4.9700295109101456"><ele>171.33333333333334</ele><time>2026-04-28T14:48:25.999Z</time></trkpt><trkpt lat="34.513463115557535" lon="-4.9698649315591945"><ele>171.0</ele><time>2026-04-28T14:48:26.999Z</time></trkpt><trkpt lat="34.51330253384975" lon="-4.9697031763579895"><ele>171.66666666666666</ele><time>2026-04-28T14:48:28Z</time></trkpt><trkpt lat="34.513138985769366" lon="-4.969544184815485"><ele>172.33333333333331</ele><time>2026-04-28T14:48:29Z</time></trkpt><trkpt lat="34.51297462149105" lon="-4.969385057615445"><ele>173.0</ele><time>2026-04-28T14:48:30Z</time></trkpt><trkpt lat="34.51281103356311" lon="-4.969219562138044"><ele>174.66666666666666</ele><time>2026-04-28T14:48:31Z</time></trkpt><trkpt lat="34.51265155368796" lon="-4.969056687341371"><ele>176.33333333333334</ele><time>2026-04-28T14:48:32Z</time></trkpt><trkpt lat="34.51247738230379" lon="-4.968909386923427"><ele>178.0</ele><time>2026-04-28T14:48:33Z</time></trkpt><trkpt lat="34.51228254920172" lon="-4.968800615880278"><ele>178.0</ele><time>2026-04-28T14:48:34Z</time></trkpt><trkpt lat="34.512075614560885" lon="-4.9687174558548355"><ele>178.0</ele><time>2026-04-28T14:48:35Z</time></trkpt><trkpt lat="34.511866739410905" lon="-4.968635884937426"><ele>178.0</ele><time>2026-04-28T14:48:36Z</time></trkpt><trkpt lat="34.511674067300675" lon="-4.968553964896918"><ele>179.0</ele><time>2026-04-28T14:48:37Z</time></trkpt><trkpt lat="34.51149641137867" lon="-4.968474506543156"><ele>180.0</ele><time>2026-04-28T14:48:38Z</time></trkpt><trkpt lat="34.51132957968868" lon="-4.968399067097188"><ele>181.0</ele><time>2026-04-28T14:48:39Z</time></trkpt><trkpt lat="34.5111713973738" lon="-4.9683314211014205"><ele>182.0</ele><time>2026-04-28T14:48:40Z</time></trkpt><trkpt lat="34.5110169696298" lon="-4.968261352416489"><ele>183.0</ele><time>2026-04-28T14:48:41Z</time></trkpt><trkpt lat="34.51086020803195" lon="-4.968191596979932"><ele>184.0</ele><time>2026-04-28T14:48:42Z</time></trkpt><trkpt lat="34.51070069331904" lon="-4.968121036636046"><ele>184.0</ele><time>2026-04-28T14:48:43Z</time></trkpt><trkpt lat="34.51053877805517" lon="-4.968049790096264"><ele>184.0</ele><time>2026-04-28T14:48:44Z</time></trkpt><trkpt lat="34.51037250309484" lon="-4.967980398408752"><ele>184.0</ele><time>2026-04-28T14:48:45Z</time></trkpt><trkpt lat="34.510199020481366" lon="-4.967902964865898"><ele>184.66666666666669</ele><time>2026-04-28T14:48:46Z</time></trkpt><trkpt lat="34.510025027314164" lon="-4.967804822857851"><ele>185.33333333333334</ele><time>2026-04-28T14:48:47Z</time></trkpt><trkpt lat="34.509860109506" lon="-4.967686259745278"><ele>186.0</ele><time>2026-04-28T14:48:48Z</time></trkpt><trkpt lat="34.50970544924172" lon="-4.967550006535926"><ele>185.0</ele><time>2026-04-28T14:48:49Z</time></trkpt><trkpt lat="34.509558718670135" lon="-4.9673802202454"><ele>184.0</ele><time>2026-04-28T14:48:50Z</time></trkpt><trkpt lat="34.50941732881632" lon="-4.967196570961136"><ele>183.0</ele><time>2026-04-28T14:48:51Z</time></trkpt><trkpt lat="34.509282940950406" lon="-4.967009083500138"><ele>183.0</ele><time>2026-04-28T14:48:52Z</time></trkpt><trkpt lat="34.50914385572304" lon="-4.966819771663855"><ele>183.0</ele><time>2026-04-28T14:48:53Z</time></trkpt><trkpt lat="34.50902514930664" lon="-4.966627390334354"><ele>183.0</ele><time>2026-04-28T14:48:54Z</time></trkpt><trkpt lat="34.508924711022885" lon="-4.966433525867624"><ele>181.33333333333334</ele><time>2026-04-28T14:48:55Z</time></trkpt><trkpt lat="34.50884112100576" lon="-4.966235047162651"><ele>179.66666666666669</ele><time>2026-04-28T14:48:56Z</time></trkpt><trkpt lat="34.50877294200289" lon="-4.966028352973482"><ele>178.0</ele><time>2026-04-28T14:48:57Z</time></trkpt><trkpt lat="34.50870048719985" lon="-4.965804545233317"><ele>178.0</ele><time>2026-04-28T14:48:58Z</time></trkpt><trkpt lat="34.508623042201464" lon="-4.965575270961789"><ele>178.0</ele><time>2026-04-28T14:48:59Z</time></trkpt><trkpt lat="34.50853534376124" lon="-4.965348340691004"><ele>178.0</ele><time>2026-04-28T14:49:00Z</time></trkpt><trkpt lat="34.50842850352704" lon="-4.965136656227808"><ele>179.0</ele><time>2026-04-28T14:49:01Z</time></trkpt><trkpt lat="34.50830245050826" lon="-4.9649439876890025"><ele>180.0</ele><time>2026-04-28T14:49:02Z</time></trkpt><trkpt lat="34.50815856067" lon="-4.964778046210186"><ele>181.0</ele><time>2026-04-28T14:49:03Z</time></trkpt><trkpt lat="34.508004170404746" lon="-4.964633386774104"><ele>179.66666666666669</ele><time>2026-04-28T14:49:04Z</time></trkpt><trkpt lat="34.50783767489717" lon="-4.964514270398196"><ele>178.33333333333334</ele><time>2026-04-28T14:49:05Z</time></trkpt><trkpt lat="34.507658033328575" lon="-4.964417295749645"><ele>177.0</ele><time>2026-04-28T14:49:06Z</time></trkpt><trkpt lat="34.507467840389054" lon="-4.964355234748251"><ele>177.0</ele><time>2026-04-28T14:49:07Z</time></trkpt><trkpt lat="34.50726715319829" lon="-4.964310208410376"><ele>177.0</ele><time>2026-04-28T14:49:08Z</time></trkpt><trkpt lat="34.507065972168746" lon="-4.964263899773121"><ele>177.0</ele><time>2026-04-28T14:49:09Z</time></trkpt><trkpt lat="34.50687045202627" lon="-4.964213095153211"><ele>180.0</ele><time>2026-04-28T14:49:10Z</time></trkpt><trkpt lat="34.50666660844917" lon="-4.964160091111953"><ele>183.0</ele><time>2026-04-28T14:49:11Z</time></trkpt><trkpt lat="34.50645959682763" lon="-4.964111451663244"><ele>186.0</ele><time>2026-04-28T14:49:12Z</time></trkpt><trkpt lat="34.50624851104938" lon="-4.964058555569695"><ele>185.66666666666666</ele><time>2026-04-28T14:49:13Z</time></trkpt><trkpt lat="34.50603840700808" lon="-4.964002923266202"><ele>185.33333333333331</ele><time>2026-04-28T14:49:14Z</time></trkpt><trkpt lat="34.50583028326892" lon="-4.963945251133316"><ele>185.0</ele><time>2026-04-28T14:49:15Z</time></trkpt><trkpt lat="34.50562409400684" lon="-4.963875408348545"><ele>185.0</ele><time>2026-04-28T14:49:16Z</time></trkpt><trkpt lat="34.505420962432105" lon="-4.963784435415057"><ele>185.0</ele><time>2026-04-28T14:49:17Z</time></trkpt><trkpt lat="34.50522141082595" lon="-4.963672858989737"><ele>185.0</ele><time>2026-04-28T14:49:18Z</time></trkpt><trkpt lat="34.50502226216313" lon="-4.963556807236474"><ele>184.66666666666666</ele><time>2026-04-28T14:49:19Z</time></trkpt><trkpt lat="34.50482680779508" lon="-4.9634350795720055"><ele>184.33333333333334</ele><time>2026-04-28T14:49:20Z</time></trkpt><trkpt lat="34.50463898011276" lon="-4.963302181779547"><ele>184.0</ele><time>2026-04-28T14:49:21Z</time></trkpt><trkpt lat="34.50445458335176" lon="-4.963157727151433"><ele>185.5</ele><time>2026-04-28T14:49:22Z</time></trkpt><trkpt lat="34.50426889014095" lon="-4.962998568895941"><ele>187.0</ele><time>2026-04-28T14:49:23Z</time></trkpt><trkpt lat="34.50407692628003" lon="-4.962837872339839"><ele>187.0</ele><time>2026-04-28T14:49:24Z</time></trkpt><trkpt lat="34.503890299910246" lon="-4.9626761312466465"><ele>187.0</ele><time>2026-04-28T14:49:25Z</time></trkpt><trkpt lat="34.50370106106734" lon="-4.962516627268554"><ele>188.0</ele><time>2026-04-28T14:49:26Z</time></trkpt><trkpt lat="34.50351283228964" lon="-4.962363252032105"><ele>189.0</ele><time>2026-04-28T14:49:27Z</time></trkpt><trkpt lat="34.503324320752405" lon="-4.962207892058811"><ele>189.0</ele><time>2026-04-28T14:49:28Z</time></trkpt><trkpt lat="34.503138192728876" lon="-4.9620524224805695"><ele>189.0</ele><time>2026-04-28T14:49:29Z</time></trkpt><trkpt lat="34.50295361610788" lon="-4.961897351324376"><ele>188.66666666666666</ele><time>2026-04-28T14:49:30Z</time></trkpt><trkpt lat="34.502771882212656" lon="-4.9617447478156205"><ele>188.33333333333331</ele><time>2026-04-28T14:49:31Z</time></trkpt><trkpt lat="34.50259105153625" lon="-4.9615953499279195"><ele>188.0</ele><time>2026-04-28T14:49:32Z</time></trkpt><trkpt lat="34.50240668785933" lon="-4.961446538730991"><ele>189.5</ele><time>2026-04-28T14:49:33Z</time></trkpt><trkpt lat="34.502220256734404" lon="-4.9612955139866575"><ele>191.0</ele><time>2026-04-28T14:49:34Z</time></trkpt><trkpt lat="34.50203296767349" lon="-4.961139367760929"><ele>191.0</ele><time>2026-04-28T14:49:35Z</time></trkpt><trkpt lat="34.50184505642052" lon="-4.9609834055030255"><ele>191.0</ele><time>2026-04-28T14:49:36Z</time></trkpt><trkpt lat="34.5016554707409" lon="-4.960827355962957"><ele>192.5</ele><time>2026-04-28T14:49:37Z</time></trkpt><trkpt lat="34.50146452449777" lon="-4.960669670479426"><ele>194.0</ele><time>2026-04-28T14:49:38Z</time></trkpt><trkpt lat="34.50127712207702" lon="-4.960514703190309"><ele>192.66666666666669</ele><time>2026-04-28T14:49:39Z</time></trkpt><trkpt lat="34.501092398520825" lon="-4.960364081603748"><ele>191.33333333333334</ele><time>2026-04-28T14:49:40Z</time></trkpt><trkpt lat="34.50091071745881" lon="-4.960216766835591"><ele>190.0</ele><time>2026-04-28T14:49:41Z</time></trkpt><trkpt lat="34.500732594902836" lon="-4.960075161516163"><ele>190.66666666666669</ele><time>2026-04-28T14:49:42Z</time></trkpt><trkpt lat="34.50055170722447" lon="-4.959932159535022"><ele>191.33333333333334</ele><time>2026-04-28T14:49:43Z</time></trkpt><trkpt lat="34.50036421518766" lon="-4.959793650055006"><ele>192.0</ele><time>2026-04-28T14:49:44Z</time></trkpt><trkpt lat="34.500170250968914" lon="-4.959666320826949"><ele>192.0</ele><time>2026-04-28T14:49:45Z</time></trkpt><trkpt lat="34.49996943318885" lon="-4.959547972403741"><ele>192.0</ele><time>2026-04-28T14:49:46Z</time></trkpt><trkpt lat="34.499770144414924" lon="-4.959421025029258"><ele>192.0</ele><time>2026-04-28T14:49:47Z</time></trkpt><trkpt lat="34.499574442487365" lon="-4.959290026131973"><ele>193.66666666666669</ele><time>2026-04-28T14:49:48Z</time></trkpt><trkpt lat="34.499378753061265" lon="-4.95916322630119"><ele>195.33333333333334</ele><time>2026-04-28T14:49:49Z</time></trkpt><trkpt lat="34.49917799548762" lon="-4.959073885761876"><ele>197.0</ele><time>2026-04-28T14:49:50Z</time></trkpt><trkpt lat="34.49897531106025" lon="-4.958987607913206"><ele>197.0</ele><time>2026-04-28T14:49:51Z</time></trkpt><trkpt lat="34.498774672854026" lon="-4.9589033230859405"><ele>197.0</ele><time>2026-04-28T14:49:52Z</time></trkpt><trkpt lat="34.49856861707993" lon="-4.958849301708178"><ele>197.0</ele><time>2026-04-28T14:49:53Z</time></trkpt><trkpt lat="34.49836592545414" lon="-4.95877447306116"><ele>198.0</ele><time>2026-04-28T14:49:54Z</time></trkpt><trkpt lat="34.49815810773486" lon="-4.958727168979439"><ele>199.0</ele><time>2026-04-28T14:49:55Z</time></trkpt><trkpt lat="34.497950609056176" lon="-4.958678565564889"><ele>200.0</ele><time>2026-04-28T14:49:55.999Z</time></trkpt><trkpt lat="34.497743158101486" lon="-4.958629469007993"><ele>200.0</ele><time>2026-04-28T14:49:56.999Z</time></trkpt><trkpt lat="34.49753917708225" lon="-4.958583695909202"><ele>200.0</ele><time>2026-04-28T14:49:57.999Z</time></trkpt><trkpt lat="34.49733644664199" lon="-4.958538325474333"><ele>200.0</ele><time>2026-04-28T14:49:58.999Z</time></trkpt><trkpt lat="34.497139290922654" lon="-4.958492236158582"><ele>198.66666666666669</ele><time>2026-04-28T14:49:59.999Z</time></trkpt><trkpt lat="34.49696535814371" lon="-4.958448508134292"><ele>197.33333333333331</ele><time>2026-04-28T14:50:00.999Z</time></trkpt><trkpt lat="34.4968067525192" lon="-4.958411426997358"><ele>196.0</ele><time>2026-04-28T14:50:01.999Z</time></trkpt><trkpt lat="34.49664984574292" lon="-4.958372674297798"><ele>200.33333333333331</ele><time>2026-04-28T14:50:02.999Z</time></trkpt><trkpt lat="34.49649282982938" lon="-4.958335067596284"><ele>204.66666666666669</ele><time>2026-04-28T14:50:03.999Z</time></trkpt><trkpt lat="34.49633099522504" lon="-4.958301790873504"><ele>209.0</ele><time>2026-04-28T14:50:04.999Z</time></trkpt><trkpt lat="34.49615216271319" lon="-4.958264189812238"><ele>209.0</ele><time>2026-04-28T14:50:05.999Z</time></trkpt><trkpt lat="34.49596531876178" lon="-4.958215980908608"><ele>209.0</ele><time>2026-04-28T14:50:06.999Z</time></trkpt><trkpt lat="34.49576481133893" lon="-4.958151109807848"><ele>209.0</ele><time>2026-04-28T14:50:07.999Z</time></trkpt><trkpt lat="34.495535416203374" lon="-4.958112513768849"><ele>205.5</ele><time>2026-04-28T14:50:08.999Z</time></trkpt><trkpt lat="34.49530056136976" lon="-4.958042670299287"><ele>202.0</ele><time>2026-04-28T14:50:09.999Z</time></trkpt><trkpt lat="34.49506482454682" lon="-4.958007340480442"><ele>202.0</ele><time>2026-04-28T14:50:10.999Z</time></trkpt><trkpt lat="34.49484764301367" lon="-4.9579664713205105"><ele>202.0</ele><time>2026-04-28T14:50:11.999Z</time></trkpt><trkpt lat="34.49464125852696" lon="-4.957913190659836"><ele>202.0</ele><time>2026-04-28T14:50:12.999Z</time></trkpt><trkpt lat="34.494434480836716" lon="-4.957857734630534"><ele>200.66666666666666</ele><time>2026-04-28T14:50:13.999Z</time></trkpt><trkpt lat="34.49422805674239" lon="-4.957800039493704"><ele>199.33333333333331</ele><time>2026-04-28T14:50:14.999Z</time></trkpt><trkpt lat="34.49401948126067" lon="-4.95773544650546"><ele>198.0</ele><time>2026-04-28T14:50:15.999Z</time></trkpt><trkpt lat="34.49381729192366" lon="-4.957667498578528"><ele>198.33333333333331</ele><time>2026-04-28T14:50:16.999Z</time></trkpt><trkpt lat="34.49362601911267" lon="-4.957608098058895"><ele>198.66666666666666</ele><time>2026-04-28T14:50:17.999Z</time></trkpt><trkpt lat="34.4934617909004" lon="-4.957557142648618"><ele>199.0</ele><time>2026-04-28T14:50:18.999Z</time></trkpt><trkpt lat="34.49330291704626" lon="-4.957511051188613"><ele>199.0</ele><time>2026-04-28T14:50:19.999Z</time></trkpt><trkpt lat="34.493146844081615" lon="-4.957465348171028"><ele>199.0</ele><time>2026-04-28T14:50:20.999Z</time></trkpt><trkpt lat="34.49299497280467" lon="-4.957416837047915"><ele>199.0</ele><time>2026-04-28T14:50:21.999Z</time></trkpt><trkpt lat="34.49284657728168" lon="-4.957371911488915"><ele>199.0</ele><time>2026-04-28T14:50:22.999Z</time></trkpt><trkpt lat="34.49270192424549" lon="-4.957325384976119"><ele>199.0</ele><time>2026-04-28T14:50:23.999Z</time></trkpt><trkpt lat="34.49256083551932" lon="-4.957279496734823"><ele>199.0</ele><time>2026-04-28T14:50:24.999Z</time></trkpt><trkpt lat="34.49241464508079" lon="-4.957234796552068"><ele>199.0</ele><time>2026-04-28T14:50:25.999Z</time></trkpt><trkpt lat="34.492265862205926" lon="-4.957191176447212"><ele>199.0</ele><time>2026-04-28T14:50:26.999Z</time></trkpt><trkpt lat="34.4921171322437" lon="-4.957144852098518"><ele>199.0</ele><time>2026-04-28T14:50:27.999Z</time></trkpt><trkpt lat="34.49196634553732" lon="-4.957099212473835"><ele>199.0</ele><time>2026-04-28T14:50:28.999Z</time></trkpt><trkpt lat="34.49180987997163" lon="-4.957051621497489"><ele>199.0</ele><time>2026-04-28T14:50:29.999Z</time></trkpt><trkpt lat="34.49164950008282" lon="-4.957005514406197"><ele>199.0</ele><time>2026-04-28T14:50:30.999Z</time></trkpt><trkpt lat="34.491479777808024" lon="-4.956955001161971"><ele>199.0</ele><time>2026-04-28T14:50:31.999Z</time></trkpt><trkpt lat="34.49130110373977" lon="-4.9569009394266486"><ele>198.33333333333331</ele><time>2026-04-28T14:50:32.999Z</time></trkpt><trkpt lat="34.491127617056975" lon="-4.956846648411609"><ele>197.66666666666669</ele><time>2026-04-28T14:50:34Z</time></trkpt><trkpt lat="34.490936768114686" lon="-4.956779873400903"><ele>197.0</ele><time>2026-04-28T14:50:35Z</time></trkpt><trkpt lat="34.49073708216167" lon="-4.956713609944203"><ele>198.66666666666669</ele><time>2026-04-28T14:50:36Z</time></trkpt><trkpt lat="34.49053490193926" lon="-4.956651589262786"><ele>200.33333333333331</ele><time>2026-04-28T14:50:37Z</time></trkpt><trkpt lat="34.49032663383624" lon="-4.956587122913911"><ele>202.0</ele><time>2026-04-28T14:50:38Z</time></trkpt><trkpt lat="34.490115418237615" lon="-4.956522612274468"><ele>202.0</ele><time>2026-04-28T14:50:39Z</time></trkpt><trkpt lat="34.48990448037018" lon="-4.9564559697771955"><ele>202.0</ele><time>2026-04-28T14:50:40Z</time></trkpt><trkpt lat="34.48969429611064" lon="-4.956393432906832"><ele>202.0</ele><time>2026-04-28T14:50:41Z</time></trkpt><trkpt lat="34.489490847832656" lon="-4.956332609088582"><ele>201.66666666666666</ele><time>2026-04-28T14:50:42Z</time></trkpt><trkpt lat="34.489290201641495" lon="-4.956268316887123"><ele>201.33333333333331</ele><time>2026-04-28T14:50:43Z</time></trkpt><trkpt lat="34.489093685735334" lon="-4.956207567614895"><ele>201.0</ele><time>2026-04-28T14:50:44Z</time></trkpt><trkpt lat="34.488895384781515" lon="-4.956164655326255"><ele>200.66666666666669</ele><time>2026-04-28T14:50:45Z</time></trkpt><trkpt lat="34.48869409836618" lon="-4.9561039088767425"><ele>200.33333333333334</ele><time>2026-04-28T14:50:46Z</time></trkpt><trkpt lat="34.48849482888311" lon="-4.956043771276287"><ele>200.0</ele><time>2026-04-28T14:50:47Z</time></trkpt><trkpt lat="34.48829575856474" lon="-4.955983693844834"><ele>200.0</ele><time>2026-04-28T14:50:48Z</time></trkpt><trkpt lat="34.48811332082547" lon="-4.955894025603404"><ele>200.0</ele><time>2026-04-28T14:50:49Z</time></trkpt><trkpt lat="34.487932032345" lon="-4.955842736281331"><ele>200.0</ele><time>2026-04-28T14:50:50Z</time></trkpt><trkpt lat="34.487747136039296" lon="-4.955799811730796"><ele>200.66666666666669</ele><time>2026-04-28T14:50:51Z</time></trkpt><trkpt lat="34.48755151158161" lon="-4.955791695639573"><ele>201.33333333333331</ele><time>2026-04-28T14:50:52Z</time></trkpt><trkpt lat="34.487358956472335" lon="-4.955825511743116"><ele>202.0</ele><time>2026-04-28T14:50:53Z</time></trkpt><trkpt lat="34.48716220487907" lon="-4.955895899910698"><ele>202.66666666666666</ele><time>2026-04-28T14:50:54Z</time></trkpt><trkpt lat="34.48697172204911" lon="-4.95599243932265"><ele>203.33333333333331</ele><time>2026-04-28T14:50:55Z</time></trkpt><trkpt lat="34.48678904585388" lon="-4.956128475890917"><ele>204.0</ele><time>2026-04-28T14:50:56Z</time></trkpt><trkpt lat="34.48661577203941" lon="-4.9562976430205845"><ele>204.0</ele><time>2026-04-28T14:50:57Z</time></trkpt><trkpt lat="34.48644108682173" lon="-4.9564413422925595"><ele>204.0</ele><time>2026-04-28T14:50:58Z</time></trkpt><trkpt lat="34.48626573198087" lon="-4.956577818153514"><ele>204.0</ele><time>2026-04-28T14:50:59Z</time></trkpt><trkpt lat="34.48609362872929" lon="-4.956711374006241"><ele>204.66666666666669</ele><time>2026-04-28T14:51:00Z</time></trkpt><trkpt lat="34.48594749717391" lon="-4.956880600187132"><ele>205.33333333333334</ele><time>2026-04-28T14:51:01Z</time></trkpt><trkpt lat="34.4857899002411" lon="-4.95700703223661"><ele>206.0</ele><time>2026-04-28T14:51:02Z</time></trkpt><trkpt lat="34.48563081342477" lon="-4.957134017693205"><ele>206.0</ele><time>2026-04-28T14:51:03Z</time></trkpt><trkpt lat="34.485468647287504" lon="-4.957263827531625"><ele>206.0</ele><time>2026-04-28T14:51:04Z</time></trkpt><trkpt lat="34.48530011831429" lon="-4.95739851258781"><ele>206.0</ele><time>2026-04-28T14:51:05Z</time></trkpt><trkpt lat="34.485137216910665" lon="-4.957539218223558"><ele>205.66666666666669</ele><time>2026-04-28T14:51:06Z</time></trkpt><trkpt lat="34.484977946929845" lon="-4.957695204624273"><ele>205.33333333333331</ele><time>2026-04-28T14:51:07Z</time></trkpt><trkpt lat="34.48482067825155" lon="-4.957849564419901"><ele>205.0</ele><time>2026-04-28T14:51:08Z</time></trkpt><trkpt lat="34.48468328648938" lon="-4.958019853364479"><ele>204.33333333333331</ele><time>2026-04-28T14:51:09Z</time></trkpt><trkpt lat="34.484549685155415" lon="-4.958210555508987"><ele>203.66666666666669</ele><time>2026-04-28T14:51:10Z</time></trkpt><trkpt lat="34.484407281069714" lon="-4.958395447755691"><ele>203.0</ele><time>2026-04-28T14:51:11Z</time></trkpt><trkpt lat="34.484286326347956" lon="-4.958595125467305"><ele>205.33333333333334</ele><time>2026-04-28T14:51:12Z</time></trkpt><trkpt lat="34.48416618251009" lon="-4.958791400242021"><ele>207.66666666666669</ele><time>2026-04-28T14:51:13Z</time></trkpt><trkpt lat="34.484047689383914" lon="-4.958988829771827"><ele>210.0</ele><time>2026-04-28T14:51:14Z</time></trkpt><trkpt lat="34.48394837472898" lon="-4.959191966056199"><ele>209.66666666666669</ele><time>2026-04-28T14:51:15Z</time></trkpt><trkpt lat="34.4838471118468" lon="-4.959386508500982"><ele>209.33333333333334</ele><time>2026-04-28T14:51:16Z</time></trkpt><trkpt lat="34.48367762240435" lon="-4.9595293096161575"><ele>209.0</ele><time>2026-04-28T14:51:17Z</time></trkpt><trkpt lat="34.483492487468865" lon="-4.959602126301235"><ele>209.0</ele><time>2026-04-28T14:51:18Z</time></trkpt><trkpt lat="34.48331129217581" lon="-4.9596877954384055"><ele>209.0</ele><time>2026-04-28T14:51:19Z</time></trkpt><trkpt lat="34.483115673671435" lon="-4.959748512408833"><ele>209.0</ele><time>2026-04-28T14:51:20Z</time></trkpt><trkpt lat="34.48291521931184" lon="-4.959801844877574"><ele>209.0</ele><time>2026-04-28T14:51:21Z</time></trkpt><trkpt lat="34.4827294809848" lon="-4.959905631589545"><ele>209.0</ele><time>2026-04-28T14:51:22Z</time></trkpt><trkpt lat="34.48253947383084" lon="-4.959991699041032"><ele>209.0</ele><time>2026-04-28T14:51:23Z</time></trkpt><trkpt lat="34.482351792817575" lon="-4.960076712823764"><ele>209.0</ele><time>2026-04-28T14:51:24Z</time></trkpt><trkpt lat="34.48216722812527" lon="-4.960161336647646"><ele>209.0</ele><time>2026-04-28T14:51:25Z</time></trkpt><trkpt lat="34.48193530209638" lon="-4.960160692095901"><ele>209.0</ele><time>2026-04-28T14:51:26Z</time></trkpt><trkpt lat="34.48174365958018" lon="-4.960160139443504"><ele>208.33333333333334</ele><time>2026-04-28T14:51:27Z</time></trkpt><trkpt lat="34.481544204649744" lon="-4.960147962731759"><ele>207.66666666666669</ele><time>2026-04-28T14:51:28Z</time></trkpt><trkpt lat="34.481337780326015" lon="-4.960128787151416"><ele>207.0</ele><time>2026-04-28T14:51:29Z</time></trkpt><trkpt lat="34.48113038897742" lon="-4.96009726105623"><ele>207.0</ele><time>2026-04-28T14:51:30Z</time></trkpt><trkpt lat="34.480922537281415" lon="-4.960053342540851"><ele>207.0</ele><time>2026-04-28T14:51:31Z</time></trkpt><trkpt lat="34.48071750129733" lon="-4.959995001712579"><ele>207.0</ele><time>2026-04-28T14:51:32Z</time></trkpt><trkpt lat="34.48051610905174" lon="-4.9599418996979905"><ele>207.0</ele><time>2026-04-28T14:51:33Z</time></trkpt><trkpt lat="34.48031609970657" lon="-4.959896136615497"><ele>207.0</ele><time>2026-04-28T14:51:34Z</time></trkpt><trkpt lat="34.48011563056281" lon="-4.959851856652368"><ele>207.0</ele><time>2026-04-28T14:51:35Z</time></trkpt><trkpt lat="34.4799187879955" lon="-4.959808316906136"><ele>207.0</ele><time>2026-04-28T14:51:36Z</time></trkpt><trkpt lat="34.479732764031915" lon="-4.959762734114056"><ele>207.0</ele><time>2026-04-28T14:51:37Z</time></trkpt><trkpt lat="34.47955688528731" lon="-4.959721601502705"><ele>207.0</ele><time>2026-04-28T14:51:38Z</time></trkpt><trkpt lat="34.47939011456364" lon="-4.959684035318544"><ele>207.33333333333331</ele><time>2026-04-28T14:51:39Z</time></trkpt><trkpt lat="34.47923035838502" lon="-4.9596468664690185"><ele>207.66666666666666</ele><time>2026-04-28T14:51:40Z</time></trkpt><trkpt lat="34.47907752865472" lon="-4.959609470609748"><ele>208.0</ele><time>2026-04-28T14:51:41Z</time></trkpt><trkpt lat="34.47893280712239" lon="-4.959573172061229"><ele>208.0</ele><time>2026-04-28T14:51:42Z</time></trkpt><trkpt lat="34.47879287020604" lon="-4.959540803487153"><ele>208.0</ele><time>2026-04-28T14:51:43Z</time></trkpt><trkpt lat="34.478659246939024" lon="-4.959508776810628"><ele>208.0</ele><time>2026-04-28T14:51:44Z</time></trkpt><trkpt lat="34.478532346116324" lon="-4.959479144722774"><ele>208.0</ele><time>2026-04-28T14:51:45Z</time></trkpt><trkpt lat="34.4784148482832" lon="-4.959448377552723"><ele>208.4</ele><time>2026-04-28T14:51:46Z</time></trkpt><trkpt lat="34.478307132716076" lon="-4.959413412908605"><ele>208.8</ele><time>2026-04-28T14:51:47Z</time></trkpt><trkpt lat="34.47820732435599" lon="-4.959380264823638"><ele>209.2</ele><time>2026-04-28T14:51:48Z</time></trkpt><trkpt lat="34.47811873620531" lon="-4.959350875005446"><ele>209.6</ele><time>2026-04-28T14:51:48.999Z</time></trkpt><trkpt lat="34.478030664306985" lon="-4.959322282330761"><ele>210.0</ele><time>2026-04-28T14:51:49.999Z</time></trkpt><trkpt lat="34.47793991746284" lon="-4.959293860002951"><ele>210.83333333333334</ele><time>2026-04-28T14:51:50.999Z</time></trkpt><trkpt lat="34.47784905151879" lon="-4.959264713133131"><ele>211.66666666666669</ele><time>2026-04-28T14:51:51.999Z</time></trkpt><trkpt lat="34.477760415262644" lon="-4.95923731646049"><ele>212.5</ele><time>2026-04-28T14:51:52.999Z</time></trkpt><trkpt lat="34.47768193834572" lon="-4.959214697048077"><ele>213.33333333333334</ele><time>2026-04-28T14:51:53.999Z</time></trkpt><trkpt lat="34.4776097082074" lon="-4.959193989273508"><ele>214.16666666666669</ele><time>2026-04-28T14:51:54.999Z</time></trkpt><trkpt lat="34.47753938221898" lon="-4.959170377345514"><ele>215.0</ele><time>2026-04-28T14:51:55.999Z</time></trkpt><trkpt lat="34.47745207203874" lon="-4.959162376024605"><ele>215.0</ele><time>2026-04-28T14:51:56.999Z</time></trkpt><trkpt lat="34.47735643798854" lon="-4.9591063699762215"><ele>215.0</ele><time>2026-04-28T14:51:57.999Z</time></trkpt><trkpt lat="34.47724561660958" lon="-4.959067914470974"><ele>215.0</ele><time>2026-04-28T14:51:58.999Z</time></trkpt><trkpt lat="34.47712237320869" lon="-4.959025774697109"><ele>215.0</ele><time>2026-04-28T14:51:59.999Z</time></trkpt><trkpt lat="34.47699089114287" lon="-4.958979625212389"><ele>217.0</ele><time>2026-04-28T14:52:00.999Z</time></trkpt><trkpt lat="34.47685357611027" lon="-4.958927373139653"><ele>219.0</ele><time>2026-04-28T14:52:01.999Z</time></trkpt><trkpt lat="34.47671664806062" lon="-4.958868516867623"><ele>221.0</ele><time>2026-04-28T14:52:02.999Z</time></trkpt><trkpt lat="34.47657302395939" lon="-4.958802616602332"><ele>223.0</ele><time>2026-04-28T14:52:03.999Z</time></trkpt><trkpt lat="34.47642909325506" lon="-4.958735714394939"><ele>223.0</ele><time>2026-04-28T14:52:04.999Z</time></trkpt><trkpt lat="34.47628706485678" lon="-4.958666948200173"><ele>223.0</ele><time>2026-04-28T14:52:05.999Z</time></trkpt><trkpt lat="34.476147338766324" lon="-4.95859450851449"><ele>223.0</ele><time>2026-04-28T14:52:06.999Z</time></trkpt><trkpt lat="34.476019598527635" lon="-4.958522241189626"><ele>223.0</ele><time>2026-04-28T14:52:07.999Z</time></trkpt><trkpt lat="34.47590274550092" lon="-4.958437971269323"><ele>223.25</ele><time>2026-04-28T14:52:08.999Z</time></trkpt><trkpt lat="34.47579163322391" lon="-4.958340143370033"><ele>223.5</ele><time>2026-04-28T14:52:09.999Z</time></trkpt><trkpt lat="34.47568278034968" lon="-4.958255651838444"><ele>223.75</ele><time>2026-04-28T14:52:10.999Z</time></trkpt><trkpt lat="34.47557391563042" lon="-4.958201517351635"><ele>224.0</ele><time>2026-04-28T14:52:11.999Z</time></trkpt><trkpt lat="34.47545486590066" lon="-4.9581708191753275"><ele>224.33333333333334</ele><time>2026-04-28T14:52:12.999Z</time></trkpt><trkpt lat="34.475317727218695" lon="-4.958184724205941"><ele>224.66666666666669</ele><time>2026-04-28T14:52:13.999Z</time></trkpt><trkpt lat="34.47516176654189" lon="-4.958183845499804"><ele>225.0</ele><time>2026-04-28T14:52:14.999Z</time></trkpt><trkpt lat="34.474994660359876" lon="-4.95821055704544"><ele>225.0</ele><time>2026-04-28T14:52:15.999Z</time></trkpt><trkpt lat="34.474821789380705" lon="-4.95822628876107"><ele>225.0</ele><time>2026-04-28T14:52:16.999Z</time></trkpt><trkpt lat="34.47463759606648" lon="-4.9582378232229045"><ele>225.0</ele><time>2026-04-28T14:52:17.999Z</time></trkpt><trkpt lat="34.4744481983637" lon="-4.95825023476717"><ele>224.0</ele><time>2026-04-28T14:52:18.999Z</time></trkpt><trkpt lat="34.47425808521632" lon="-4.9582670372258475"><ele>223.0</ele><time>2026-04-28T14:52:19.999Z</time></trkpt><trkpt lat="34.47406487871022" lon="-4.958281668419728"><ele>222.0</ele><time>2026-04-28T14:52:20.999Z</time></trkpt><trkpt lat="34.473864449394725" lon="-4.958298000668531"><ele>222.0</ele><time>2026-04-28T14:52:21.999Z</time></trkpt><trkpt lat="34.473664577759315" lon="-4.958313737733556"><ele>222.0</ele><time>2026-04-28T14:52:22.999Z</time></trkpt><trkpt lat="34.47346626417545" lon="-4.958327652705702"><ele>222.0</ele><time>2026-04-28T14:52:23.999Z</time></trkpt><trkpt lat="34.47327250694908" lon="-4.958343555785636"><ele>222.0</ele><time>2026-04-28T14:52:24.999Z</time></trkpt><trkpt lat="34.47307628969365" lon="-4.958361199090639"><ele>222.0</ele><time>2026-04-28T14:52:25.999Z</time></trkpt><trkpt lat="34.472882993846696" lon="-4.9583798070341265"><ele>222.0</ele><time>2026-04-28T14:52:26.999Z</time></trkpt><trkpt lat="34.47269022007904" lon="-4.958398354553862"><ele>224.66666666666669</ele><time>2026-04-28T14:52:27.999Z</time></trkpt><trkpt lat="34.47249862875168" lon="-4.958415009350088"><ele>227.33333333333334</ele><time>2026-04-28T14:52:28.999Z</time></trkpt><trkpt lat="34.47230494624748" lon="-4.95843004470071"><ele>230.0</ele><time>2026-04-28T14:52:29.999Z</time></trkpt><trkpt lat="34.472111075915926" lon="-4.958447110020742"><ele>229.0</ele><time>2026-04-28T14:52:30.999Z</time></trkpt><trkpt lat="34.471923808409066" lon="-4.958464036741181"><ele>228.0</ele><time>2026-04-28T14:52:31.999Z</time></trkpt><trkpt lat="34.47173320668217" lon="-4.9584814181035695"><ele>227.0</ele><time>2026-04-28T14:52:32.999Z</time></trkpt><trkpt lat="34.47154246927559" lon="-4.95849904016741"><ele>227.0</ele><time>2026-04-28T14:52:33.999Z</time></trkpt><trkpt lat="34.47134772379638" lon="-4.958518007353159"><ele>227.0</ele><time>2026-04-28T14:52:34.999Z</time></trkpt><trkpt lat="34.471147293973026" lon="-4.958535665459524"><ele>227.0</ele><time>2026-04-28T14:52:35.999Z</time></trkpt><trkpt lat="34.47094578287913" lon="-4.958553369473596"><ele>225.0</ele><time>2026-04-28T14:52:36.999Z</time></trkpt><trkpt lat="34.47074210328979" lon="-4.9585726912031465"><ele>223.0</ele><time>2026-04-28T14:52:37.999Z</time></trkpt><trkpt lat="34.470541080035574" lon="-4.958595253762327"><ele>221.0</ele><time>2026-04-28T14:52:38.999Z</time></trkpt><trkpt lat="34.470332371158854" lon="-4.958621299952963"><ele>221.0</ele><time>2026-04-28T14:52:40Z</time></trkpt><trkpt lat="34.470124421216056" lon="-4.95864500813068"><ele>221.0</ele><time>2026-04-28T14:52:41Z</time></trkpt><trkpt lat="34.469912064278255" lon="-4.9586622877364395"><ele>221.0</ele><time>2026-04-28T14:52:42Z</time></trkpt><trkpt lat="34.46969690081214" lon="-4.958676131918016"><ele>222.66666666666669</ele><time>2026-04-28T14:52:43Z</time></trkpt><trkpt lat="34.46948792721901" lon="-4.958688163292415"><ele>224.33333333333331</ele><time>2026-04-28T14:52:44Z</time></trkpt><trkpt lat="34.46928450888331" lon="-4.958696225935949"><ele>226.0</ele><time>2026-04-28T14:52:45Z</time></trkpt><trkpt lat="34.46908639709874" lon="-4.958690339031522"><ele>226.0</ele><time>2026-04-28T14:52:46Z</time></trkpt><trkpt lat="34.46889400145807" lon="-4.958659140865335"><ele>226.0</ele><time>2026-04-28T14:52:47Z</time></trkpt><trkpt lat="34.46871209258667" lon="-4.95859216956298"><ele>226.0</ele><time>2026-04-28T14:52:48Z</time></trkpt><trkpt lat="34.46853980791105" lon="-4.958497391579902"><ele>228.0</ele><time>2026-04-28T14:52:49Z</time></trkpt><trkpt lat="34.468373396461814" lon="-4.958377792324101"><ele>230.0</ele><time>2026-04-28T14:52:50Z</time></trkpt><trkpt lat="34.4682098061434" lon="-4.958250947611571"><ele>232.0</ele><time>2026-04-28T14:52:51Z</time></trkpt><trkpt lat="34.468043971931294" lon="-4.958127555283662"><ele>237.66666666666666</ele><time>2026-04-28T14:52:52Z</time></trkpt><trkpt lat="34.46788012372239" lon="-4.9580015855106785"><ele>243.33333333333331</ele><time>2026-04-28T14:52:53Z</time></trkpt><trkpt lat="34.4677124729744" lon="-4.957875158108085"><ele>249.0</ele><time>2026-04-28T14:52:54Z</time></trkpt><trkpt lat="34.46754452701465" lon="-4.95775937522542"><ele>249.0</ele><time>2026-04-28T14:52:55Z</time></trkpt><trkpt lat="34.46737071693954" lon="-4.957645109405314"><ele>249.0</ele><time>2026-04-28T14:52:56Z</time></trkpt><trkpt lat="34.46720320031925" lon="-4.957526511978787"><ele>249.0</ele><time>2026-04-28T14:52:57Z</time></trkpt><trkpt lat="34.46703673284044" lon="-4.957407698090983"><ele>251.66666666666669</ele><time>2026-04-28T14:52:58Z</time></trkpt><trkpt lat="34.466870822002534" lon="-4.957313708754903"><ele>254.33333333333334</ele><time>2026-04-28T14:52:59Z</time></trkpt><trkpt lat="34.466707270861164" lon="-4.957244491870833"><ele>257.0</ele><time>2026-04-28T14:53:00Z</time></trkpt><trkpt lat="34.466557072456986" lon="-4.957199772770362"><ele>257.0</ele><time>2026-04-28T14:53:01Z</time></trkpt><trkpt lat="34.466409148530424" lon="-4.957200190207592"><ele>257.0</ele><time>2026-04-28T14:53:02Z</time></trkpt><trkpt lat="34.466273358665575" lon="-4.957170189822483"><ele>257.0</ele><time>2026-04-28T14:53:03Z</time></trkpt><trkpt lat="34.46615028115886" lon="-4.957112665131794"><ele>257.0</ele><time>2026-04-28T14:53:04Z</time></trkpt><trkpt lat="34.4660478271901" lon="-4.95700757614344"><ele>257.0</ele><time>2026-04-28T14:53:05Z</time></trkpt><trkpt lat="34.46592793446368" lon="-4.956914644160354"><ele>257.0</ele><time>2026-04-28T14:53:06Z</time></trkpt><trkpt lat="34.46579457893794" lon="-4.956807674770064"><ele>257.0</ele><time>2026-04-28T14:53:07Z</time></trkpt><trkpt lat="34.46565019546935" lon="-4.956689538683104"><ele>256.33333333333337</ele><time>2026-04-28T14:53:08Z</time></trkpt><trkpt lat="34.465500884120566" lon="-4.956562838352435"><ele>255.66666666666669</ele><time>2026-04-28T14:53:09Z</time></trkpt><trkpt lat="34.46534568473105" lon="-4.956430103674594"><ele>255.0</ele><time>2026-04-28T14:53:10Z</time></trkpt><trkpt lat="34.46518197775864" lon="-4.956301014839677"><ele>252.0</ele><time>2026-04-28T14:53:11Z</time></trkpt><trkpt lat="34.46500557599745" lon="-4.956193758460974"><ele>249.0</ele><time>2026-04-28T14:53:12Z</time></trkpt><trkpt lat="34.464813686725975" lon="-4.956146995845583"><ele>246.0</ele><time>2026-04-28T14:53:13Z</time></trkpt><trkpt lat="34.46462472092205" lon="-4.95608988866715"><ele>245.33333333333331</ele><time>2026-04-28T14:53:14Z</time></trkpt><trkpt lat="34.46442768541435" lon="-4.956089723654129"><ele>244.66666666666666</ele><time>2026-04-28T14:53:15Z</time></trkpt><trkpt lat="34.464227481376845" lon="-4.956082057182933"><ele>244.0</ele><time>2026-04-28T14:53:16Z</time></trkpt><trkpt lat="34.46402262224946" lon="-4.956062269650698"><ele>244.0</ele><time>2026-04-28T14:53:17Z</time></trkpt><trkpt lat="34.46381792461915" lon="-4.956062374237694"><ele>244.0</ele><time>2026-04-28T14:53:18Z</time></trkpt><trkpt lat="34.46360807912517" lon="-4.956056939771973"><ele>244.0</ele><time>2026-04-28T14:53:19Z</time></trkpt><trkpt lat="34.46339631646175" lon="-4.956052827995489"><ele>244.0</ele><time>2026-04-28T14:53:20Z</time></trkpt><trkpt lat="34.46318251203473" lon="-4.956050813175965"><ele>244.0</ele><time>2026-04-28T14:53:21Z</time></trkpt><trkpt lat="34.462967409336095" lon="-4.9560511061457575"><ele>244.0</ele><time>2026-04-28T14:53:22Z</time></trkpt><trkpt lat="34.462749084700874" lon="-4.956049849483889"><ele>244.0</ele><time>2026-04-28T14:53:23Z</time></trkpt><trkpt lat="34.46253372280516" lon="-4.956048738299073"><ele>244.0</ele><time>2026-04-28T14:53:24Z</time></trkpt><trkpt lat="34.462316868022704" lon="-4.956040973782267"><ele>244.0</ele><time>2026-04-28T14:53:25Z</time></trkpt><trkpt lat="34.46209986632479" lon="-4.956033034262382"><ele>245.0</ele><time>2026-04-28T14:53:26Z</time></trkpt><trkpt lat="34.461881363289194" lon="-4.95602602738067"><ele>246.0</ele><time>2026-04-28T14:53:27Z</time></trkpt><trkpt lat="34.46166283170408" lon="-4.956020313080239"><ele>247.0</ele><time>2026-04-28T14:53:28Z</time></trkpt><trkpt lat="34.461447844655886" lon="-4.956016324550427"><ele>247.66666666666666</ele><time>2026-04-28T14:53:29Z</time></trkpt><trkpt lat="34.461229746786266" lon="-4.956014415550886"><ele>248.33333333333331</ele><time>2026-04-28T14:53:30Z</time></trkpt><trkpt lat="34.46101060406655" lon="-4.956008446429231"><ele>249.0</ele><time>2026-04-28T14:53:31Z</time></trkpt><trkpt lat="34.46079211395127" lon="-4.9560014536554045"><ele>249.0</ele><time>2026-04-28T14:53:32Z</time></trkpt><trkpt lat="34.46057422093283" lon="-4.955996169042809"><ele>249.0</ele><time>2026-04-28T14:53:33Z</time></trkpt><trkpt lat="34.46035528431473" lon="-4.955991793960022"><ele>249.0</ele><time>2026-04-28T14:53:34Z</time></trkpt><trkpt lat="34.460140719575676" lon="-4.955987284892614"><ele>249.0</ele><time>2026-04-28T14:53:35Z</time></trkpt><trkpt lat="34.4599241717869" lon="-4.9559818469971875"><ele>249.0</ele><time>2026-04-28T14:53:36Z</time></trkpt><trkpt lat="34.45971256693598" lon="-4.955977727481262"><ele>249.0</ele><time>2026-04-28T14:53:37Z</time></trkpt><trkpt lat="34.45949841395271" lon="-4.955972399436513"><ele>249.66666666666669</ele><time>2026-04-28T14:53:37.999Z</time></trkpt><trkpt lat="34.459285807843386" lon="-4.955968826089531"><ele>250.33333333333334</ele><time>2026-04-28T14:53:38.999Z</time></trkpt><trkpt lat="34.45907375039772" lon="-4.9559691928882215"><ele>251.0</ele><time>2026-04-28T14:53:39.999Z</time></trkpt><trkpt lat="34.45886165861938" lon="-4.955967458714184"><ele>251.33333333333334</ele><time>2026-04-28T14:53:40.999Z</time></trkpt><trkpt lat="34.458650876822475" lon="-4.955965229497985"><ele>251.66666666666669</ele><time>2026-04-28T14:53:41.999Z</time></trkpt><trkpt lat="34.45843771681784" lon="-4.955958980317738"><ele>252.0</ele><time>2026-04-28T14:53:42.999Z</time></trkpt><trkpt lat="34.458219203358304" lon="-4.95594713938546"><ele>252.0</ele><time>2026-04-28T14:53:43.999Z</time></trkpt><trkpt lat="34.45799849430657" lon="-4.955938100642853"><ele>252.0</ele><time>2026-04-28T14:53:44.999Z</time></trkpt><trkpt lat="34.457774108078475" lon="-4.955934784703863"><ele>252.0</ele><time>2026-04-28T14:53:45.999Z</time></trkpt><trkpt lat="34.45754926660986" lon="-4.955930702070714"><ele>252.66666666666669</ele><time>2026-04-28T14:53:46.999Z</time></trkpt><trkpt lat="34.45732840228343" lon="-4.955923046965885"><ele>253.33333333333334</ele><time>2026-04-28T14:53:47.999Z</time></trkpt><trkpt lat="34.45711164795231" lon="-4.955912830308494"><ele>254.0</ele><time>2026-04-28T14:53:48.999Z</time></trkpt><trkpt lat="34.456894113198295" lon="-4.95590314222546"><ele>254.33333333333334</ele><time>2026-04-28T14:53:49.999Z</time></trkpt><trkpt lat="34.456677738023274" lon="-4.955894719929711"><ele>254.66666666666669</ele><time>2026-04-28T14:53:50.999Z</time></trkpt><trkpt lat="34.45646297456892" lon="-4.955886554371478"><ele>255.0</ele><time>2026-04-28T14:53:51.999Z</time></trkpt><trkpt lat="34.456250266382305" lon="-4.955886816064552"><ele>256.0</ele><time>2026-04-28T14:53:52.999Z</time></trkpt><trkpt lat="34.45604684140283" lon="-4.955888721777869"><ele>257.0</ele><time>2026-04-28T14:53:53.999Z</time></trkpt><trkpt lat="34.45584245445229" lon="-4.955884153978649"><ele>258.0</ele><time>2026-04-28T14:53:54.999Z</time></trkpt><trkpt lat="34.4556429930896" lon="-4.955876865300727"><ele>259.6666666666667</ele><time>2026-04-28T14:53:55.999Z</time></trkpt><trkpt lat="34.455447223035634" lon="-4.955870020673733"><ele>261.33333333333337</ele><time>2026-04-28T14:53:56.999Z</time></trkpt><trkpt lat="34.45526447314232" lon="-4.9558579549268105"><ele>263.0</ele><time>2026-04-28T14:53:57.999Z</time></trkpt><trkpt lat="34.45509074251335" lon="-4.955822421276562"><ele>263.0</ele><time>2026-04-28T14:53:58.999Z</time></trkpt><trkpt lat="34.45492226323827" lon="-4.955765179087485"><ele>263.0</ele><time>2026-04-28T14:53:59.999Z</time></trkpt><trkpt lat="34.45475265210963" lon="-4.955682562911733"><ele>263.0</ele><time>2026-04-28T14:54:00.999Z</time></trkpt><trkpt lat="34.4545840357294" lon="-4.955581231505258"><ele>265.0</ele><time>2026-04-28T14:54:01.999Z</time></trkpt><trkpt lat="34.45442335464087" lon="-4.955473476561072"><ele>267.0</ele><time>2026-04-28T14:54:02.999Z</time></trkpt><trkpt lat="34.45427532667704" lon="-4.955366847961681"><ele>269.0</ele><time>2026-04-28T14:54:03.999Z</time></trkpt><trkpt lat="34.454139508588035" lon="-4.955271180489472"><ele>269.0</ele><time>2026-04-28T14:54:04.999Z</time></trkpt><trkpt lat="34.45399624301189" lon="-4.955217811507631"><ele>269.0</ele><time>2026-04-28T14:54:05.999Z</time></trkpt><trkpt lat="34.45386823609469" lon="-4.955203167464101"><ele>269.0</ele><time>2026-04-28T14:54:06.999Z</time></trkpt><trkpt lat="34.45375015230279" lon="-4.955219541970241"><ele>269.0</ele><time>2026-04-28T14:54:07.999Z</time></trkpt><trkpt lat="34.45364111143657" lon="-4.955254585315686"><ele>272.0</ele><time>2026-04-28T14:54:08.999Z</time></trkpt><trkpt lat="34.45355324837484" lon="-4.955346993600546"><ele>275.0</ele><time>2026-04-28T14:54:09.999Z</time></trkpt><trkpt lat="34.453472008473575" lon="-4.955463865128923"><ele>278.0</ele><time>2026-04-28T14:54:10.999Z</time></trkpt><trkpt lat="34.45340087527895" lon="-4.955602717219404"><ele>281.0</ele><time>2026-04-28T14:54:11.999Z</time></trkpt><trkpt lat="34.453326454037835" lon="-4.955744528059131"><ele>282.5</ele><time>2026-04-28T14:54:12.999Z</time></trkpt><trkpt lat="34.4532533002479" lon="-4.95589814744817"><ele>284.0</ele><time>2026-04-28T14:54:13.999Z</time></trkpt><trkpt lat="34.4531865527045" lon="-4.956050013549109"><ele>285.5</ele><time>2026-04-28T14:54:14.999Z</time></trkpt><trkpt lat="34.453141696930054" lon="-4.956186177284871"><ele>287.0</ele><time>2026-04-28T14:54:15.999Z</time></trkpt><trkpt lat="34.45313865139336" lon="-4.956318021889148"><ele>287.0</ele><time>2026-04-28T14:54:16.999Z</time></trkpt><trkpt lat="34.453182747256434" lon="-4.9564577975472055"><ele>287.0</ele><time>2026-04-28T14:54:17.999Z</time></trkpt><trkpt lat="34.453252246886045" lon="-4.9566017023988715"><ele>287.0</ele><time>2026-04-28T14:54:18.999Z</time></trkpt><trkpt lat="34.45333668868825" lon="-4.956746231084538"><ele>287.0</ele><time>2026-04-28T14:54:19.999Z</time></trkpt><trkpt lat="34.45341433470701" lon="-4.956891347833958"><ele>289.0</ele><time>2026-04-28T14:54:20.999Z</time></trkpt><trkpt lat="34.45347252259395" lon="-4.957016085501261"><ele>291.0</ele><time>2026-04-28T14:54:21.999Z</time></trkpt><trkpt lat="34.453502309420806" lon="-4.957142496243058"><ele>293.0</ele><time>2026-04-28T14:54:22.999Z</time></trkpt><trkpt lat="34.45350136780665" lon="-4.957282013209604"><ele>295.0</ele><time>2026-04-28T14:54:23.999Z</time></trkpt><trkpt lat="34.45347108011509" lon="-4.957417163013697"><ele>296.75</ele><time>2026-04-28T14:54:24.999Z</time></trkpt><trkpt lat="34.45341010445982" lon="-4.95754524174454"><ele>298.5</ele><time>2026-04-28T14:54:25.999Z</time></trkpt><trkpt lat="34.45331906384279" lon="-4.957673745827963"><ele>300.25</ele><time>2026-04-28T14:54:26.999Z</time></trkpt><trkpt lat="34.45321973748804" lon="-4.957788891722035"><ele>302.0</ele><time>2026-04-28T14:54:27.999Z</time></trkpt><trkpt lat="34.45310233078126" lon="-4.957895474513622"><ele>302.0</ele><time>2026-04-28T14:54:28.999Z</time></trkpt><trkpt lat="34.45297167407743" lon="-4.957984161203799"><ele>302.0</ele><time>2026-04-28T14:54:29.999Z</time></trkpt><trkpt lat="34.45282821939094" lon="-4.9580572898968205"><ele>302.0</ele><time>2026-04-28T14:54:30.999Z</time></trkpt><trkpt lat="34.45268593654214" lon="-4.958115434130778"><ele>302.0</ele><time>2026-04-28T14:54:31.999Z</time></trkpt><trkpt lat="34.452558925171324" lon="-4.958160244468467"><ele>302.0</ele><time>2026-04-28T14:54:32.999Z</time></trkpt><trkpt lat="34.4524391879571" lon="-4.9582012444889445"><ele>302.0</ele><time>2026-04-28T14:54:33.999Z</time></trkpt><trkpt lat="34.45232455139205" lon="-4.958250636440473"><ele>302.0</ele><time>2026-04-28T14:54:34.999Z</time></trkpt><trkpt lat="34.452206073066954" lon="-4.9583155947192035"><ele>299.6666666666667</ele><time>2026-04-28T14:54:35.999Z</time></trkpt><trkpt lat="34.45207854355579" lon="-4.958384371720716"><ele>297.3333333333333</ele><time>2026-04-28T14:54:36.999Z</time></trkpt><trkpt lat="34.45194851600559" lon="-4.958473289094789"><ele>295.0</ele><time>2026-04-28T14:54:37.999Z</time></trkpt><trkpt lat="34.45183006560241" lon="-4.958607104136648"><ele>295.0</ele><time>2026-04-28T14:54:38.999Z</time></trkpt><trkpt lat="34.45172691770389" lon="-4.958768350706663"><ele>295.0</ele><time>2026-04-28T14:54:39.999Z</time></trkpt><trkpt lat="34.451627436824246" lon="-4.958948102487399"><ele>295.0</ele><time>2026-04-28T14:54:40.999Z</time></trkpt><trkpt lat="34.451518915766975" lon="-4.959127879679485"><ele>296.3333333333333</ele><time>2026-04-28T14:54:41.999Z</time></trkpt><trkpt lat="34.45140678827753" lon="-4.959310972147248"><ele>297.6666666666667</ele><time>2026-04-28T14:54:42.999Z</time></trkpt><trkpt lat="34.45130126249776" lon="-4.959481439954677"><ele>299.0</ele><time>2026-04-28T14:54:43.999Z</time></trkpt><trkpt lat="34.45120050027912" lon="-4.959647136702888"><ele>299.0</ele><time>2026-04-28T14:54:45Z</time></trkpt><trkpt lat="34.45111189609263" lon="-4.959813723945508"><ele>299.0</ele><time>2026-04-28T14:54:46Z</time></trkpt><trkpt lat="34.451028022087044" lon="-4.959977148387084"><ele>299.0</ele><time>2026-04-28T14:54:47Z</time></trkpt><trkpt lat="34.45093753043143" lon="-4.960127800212794"><ele>294.6666666666667</ele><time>2026-04-28T14:54:48Z</time></trkpt><trkpt lat="34.450831724703846" lon="-4.960273699724358"><ele>290.3333333333333</ele><time>2026-04-28T14:54:49Z</time></trkpt><trkpt lat="34.45070439892871" lon="-4.9604122206055346"><ele>286.0</ele><time>2026-04-28T14:54:50Z</time></trkpt><trkpt lat="34.45056255885133" lon="-4.960545619138147"><ele>284.3333333333333</ele><time>2026-04-28T14:54:51Z</time></trkpt><trkpt lat="34.45040682220606" lon="-4.960677927092755"><ele>282.6666666666667</ele><time>2026-04-28T14:54:52Z</time></trkpt><trkpt lat="34.45025452231305" lon="-4.960806065051971"><ele>281.0</ele><time>2026-04-28T14:54:53Z</time></trkpt><trkpt lat="34.45009959718301" lon="-4.960934631772664"><ele>281.0</ele><time>2026-04-28T14:54:54Z</time></trkpt><trkpt lat="34.44994031656398" lon="-4.961057546659217"><ele>281.0</ele><time>2026-04-28T14:54:55Z</time></trkpt><trkpt lat="34.44978383418019" lon="-4.961173693294607"><ele>281.0</ele><time>2026-04-28T14:54:56Z</time></trkpt><trkpt lat="34.449638227242" lon="-4.961293438910128"><ele>284.0</ele><time>2026-04-28T14:54:57Z</time></trkpt><trkpt lat="34.4495021473556" lon="-4.961406220655288"><ele>287.0</ele><time>2026-04-28T14:54:58Z</time></trkpt><trkpt lat="34.44937399120895" lon="-4.961499615420689"><ele>290.0</ele><time>2026-04-28T14:54:59Z</time></trkpt><trkpt lat="34.44923998905692" lon="-4.961561195123456"><ele>290.0</ele><time>2026-04-28T14:55:00Z</time></trkpt><trkpt lat="34.44909649195266" lon="-4.961594919063867"><ele>290.0</ele><time>2026-04-28T14:55:01Z</time></trkpt><trkpt lat="34.44893308663941" lon="-4.961594023604051"><ele>290.0</ele><time>2026-04-28T14:55:02Z</time></trkpt><trkpt lat="34.448753789984046" lon="-4.961576988074534"><ele>290.6666666666667</ele><time>2026-04-28T14:55:03Z</time></trkpt><trkpt lat="34.44856717682526" lon="-4.961556930840819"><ele>291.3333333333333</ele><time>2026-04-28T14:55:04Z</time></trkpt><trkpt lat="34.44837884640128" lon="-4.961544658475649"><ele>292.0</ele><time>2026-04-28T14:55:05Z</time></trkpt><trkpt lat="34.448202438319335" lon="-4.961537616142799"><ele>292.0</ele><time>2026-04-28T14:55:06Z</time></trkpt><trkpt lat="34.44803337700237" lon="-4.961528965802282"><ele>292.0</ele><time>2026-04-28T14:55:07Z</time></trkpt><trkpt lat="34.44787021323472" lon="-4.961516737101732"><ele>292.0</ele><time>2026-04-28T14:55:08Z</time></trkpt><trkpt lat="34.4477149194615" lon="-4.9614846065947456"><ele>293.3333333333333</ele><time>2026-04-28T14:55:09Z</time></trkpt><trkpt lat="34.44755609006583" lon="-4.961421780210616"><ele>294.6666666666667</ele><time>2026-04-28T14:55:10Z</time></trkpt><trkpt lat="34.44741105478513" lon="-4.9613266431658225"><ele>296.0</ele><time>2026-04-28T14:55:11Z</time></trkpt><trkpt lat="34.4472740950604" lon="-4.961191940988207"><ele>296.0</ele><time>2026-04-28T14:55:12Z</time></trkpt><trkpt lat="34.44713929271077" lon="-4.961035553154612"><ele>296.0</ele><time>2026-04-28T14:55:13Z</time></trkpt><trkpt lat="34.44701808194871" lon="-4.960874656688214"><ele>296.0</ele><time>2026-04-28T14:55:14Z</time></trkpt><trkpt lat="34.446899096805595" lon="-4.960731542068316"><ele>294.6666666666667</ele><time>2026-04-28T14:55:15Z</time></trkpt><trkpt lat="34.44677109438618" lon="-4.96061623250643"><ele>293.3333333333333</ele><time>2026-04-28T14:55:16Z</time></trkpt><trkpt lat="34.4466286563937" lon="-4.9605383784014005"><ele>292.0</ele><time>2026-04-28T14:55:17Z</time></trkpt><trkpt lat="34.44647175918125" lon="-4.960503467004357"><ele>292.0</ele><time>2026-04-28T14:55:18Z</time></trkpt><trkpt lat="34.44631681638599" lon="-4.960518160737136"><ele>292.0</ele><time>2026-04-28T14:55:19Z</time></trkpt><trkpt lat="34.44615918881243" lon="-4.960532055325206"><ele>292.0</ele><time>2026-04-28T14:55:20Z</time></trkpt><trkpt lat="34.4459972974967" lon="-4.960528341538265"><ele>291.0</ele><time>2026-04-28T14:55:21Z</time></trkpt><trkpt lat="34.445840396836566" lon="-4.960550628178902"><ele>290.0</ele><time>2026-04-28T14:55:22Z</time></trkpt><trkpt lat="34.44568675958268" lon="-4.960564426753889"><ele>289.0</ele><time>2026-04-28T14:55:23Z</time></trkpt><trkpt lat="34.44553460727385" lon="-4.960575236588242"><ele>285.66666666666663</ele><time>2026-04-28T14:55:24Z</time></trkpt><trkpt lat="34.44537672773757" lon="-4.960584518625732"><ele>282.3333333333333</ele><time>2026-04-28T14:55:25Z</time></trkpt><trkpt lat="34.44522452025931" lon="-4.960594442425568"><ele>279.0</ele><time>2026-04-28T14:55:26Z</time></trkpt><trkpt lat="34.44507492946473" lon="-4.960602445688804"><ele>279.0</ele><time>2026-04-28T14:55:27Z</time></trkpt><trkpt lat="34.44492500335628" lon="-4.960609192535501"><ele>279.0</ele><time>2026-04-28T14:55:28Z</time></trkpt><trkpt lat="34.444774871571724" lon="-4.960614751657148"><ele>279.0</ele><time>2026-04-28T14:55:29Z</time></trkpt><trkpt lat="34.44461859099822" lon="-4.960615991129158"><ele>277.0</ele><time>2026-04-28T14:55:30Z</time></trkpt><trkpt lat="34.44445976917856" lon="-4.960614434452146"><ele>275.0</ele><time>2026-04-28T14:55:31Z</time></trkpt><trkpt lat="34.44428343588642" lon="-4.960627181453913"><ele>273.0</ele><time>2026-04-28T14:55:32Z</time></trkpt><trkpt lat="34.44407934546302" lon="-4.960636043455454"><ele>273.0</ele><time>2026-04-28T14:55:33Z</time></trkpt><trkpt lat="34.44387054285818" lon="-4.960645098806353"><ele>273.0</ele><time>2026-04-28T14:55:34Z</time></trkpt><trkpt lat="34.44366676369403" lon="-4.960654252623974"><ele>273.0</ele><time>2026-04-28T14:55:35Z</time></trkpt><trkpt lat="34.44347078110892" lon="-4.960666816206922"><ele>272.0</ele><time>2026-04-28T14:55:36Z</time></trkpt><trkpt lat="34.44328161127372" lon="-4.960689067900579"><ele>271.0</ele><time>2026-04-28T14:55:37Z</time></trkpt><trkpt lat="34.44309481290597" lon="-4.960710262853582"><ele>270.0</ele><time>2026-04-28T14:55:38Z</time></trkpt><trkpt lat="34.44291490034614" lon="-4.9607429850867"><ele>267.6666666666667</ele><time>2026-04-28T14:55:38.999Z</time></trkpt><trkpt lat="34.442738912841705" lon="-4.960791341828121"><ele>265.33333333333337</ele><time>2026-04-28T14:55:39.999Z</time></trkpt><trkpt lat="34.44256232817609" lon="-4.9608237690141275"><ele>263.0</ele><time>2026-04-28T14:55:40.999Z</time></trkpt><trkpt lat="34.44238685734356" lon="-4.960883940603191"><ele>262.33333333333337</ele><time>2026-04-28T14:55:41.999Z</time></trkpt><trkpt lat="34.442213539433254" lon="-4.96096675663383"><ele>261.6666666666667</ele><time>2026-04-28T14:55:42.999Z</time></trkpt><trkpt lat="34.442032101526735" lon="-4.961036661912326"><ele>261.0</ele><time>2026-04-28T14:55:43.999Z</time></trkpt><trkpt lat="34.44186924976069" lon="-4.961147248197046"><ele>261.0</ele><time>2026-04-28T14:55:44.999Z</time></trkpt><trkpt lat="34.44170814483902" lon="-4.961278312602423"><ele>261.0</ele><time>2026-04-28T14:55:45.999Z</time></trkpt><trkpt lat="34.44156331490616" lon="-4.961415832525465"><ele>261.0</ele><time>2026-04-28T14:55:46.999Z</time></trkpt><trkpt lat="34.441419097899065" lon="-4.961556967605534"><ele>259.3333333333333</ele><time>2026-04-28T14:55:47.999Z</time></trkpt><trkpt lat="34.44127292258844" lon="-4.961700052358783"><ele>257.66666666666663</ele><time>2026-04-28T14:55:48.999Z</time></trkpt><trkpt lat="34.441109429867126" lon="-4.961826292356305"><ele>256.0</ele><time>2026-04-28T14:55:49.999Z</time></trkpt><trkpt lat="34.44092876449351" lon="-4.961922212286184"><ele>256.0</ele><time>2026-04-28T14:55:50.999Z</time></trkpt><trkpt lat="34.44072642231016" lon="-4.961934804884126"><ele>256.0</ele><time>2026-04-28T14:55:51.999Z</time></trkpt><trkpt lat="34.44053150491937" lon="-4.9619799087426495"><ele>256.0</ele><time>2026-04-28T14:55:52.999Z</time></trkpt><trkpt lat="34.440326333338405" lon="-4.962011787760125"><ele>251.33333333333331</ele><time>2026-04-28T14:55:53.999Z</time></trkpt><trkpt lat="34.44011176706309" lon="-4.96204317825633"><ele>246.66666666666669</ele><time>2026-04-28T14:55:54.999Z</time></trkpt><trkpt lat="34.43989058495769" lon="-4.962084449370339"><ele>242.0</ele><time>2026-04-28T14:55:55.999Z</time></trkpt><trkpt lat="34.439664368812345" lon="-4.96213494122267"><ele>238.0</ele><time>2026-04-28T14:55:56.999Z</time></trkpt><trkpt lat="34.43944377343588" lon="-4.962230970249536"><ele>234.0</ele><time>2026-04-28T14:55:57.999Z</time></trkpt><trkpt lat="34.43922818084066" lon="-4.9623244544552305"><ele>234.0</ele><time>2026-04-28T14:55:58.999Z</time></trkpt><trkpt lat="34.43901639800494" lon="-4.962402386749294"><ele>234.0</ele><time>2026-04-28T14:55:59.999Z</time></trkpt><trkpt lat="34.43881508719532" lon="-4.9625015886074575"><ele>234.0</ele><time>2026-04-28T14:56:00.999Z</time></trkpt><trkpt lat="34.43857089677913" lon="-4.962527049456791"><ele>231.33333333333331</ele><time>2026-04-28T14:56:01.999Z</time></trkpt><trkpt lat="34.438373697608554" lon="-4.962660299117333"><ele>228.66666666666666</ele><time>2026-04-28T14:56:02.999Z</time></trkpt><trkpt lat="34.43818272977632" lon="-4.962799569215713"><ele>226.0</ele><time>2026-04-28T14:56:03.999Z</time></trkpt><trkpt lat="34.43798530401481" lon="-4.962905772523398"><ele>226.0</ele><time>2026-04-28T14:56:04.999Z</time></trkpt><trkpt lat="34.43779506277661" lon="-4.963009716553246"><ele>226.0</ele><time>2026-04-28T14:56:05.999Z</time></trkpt><trkpt lat="34.437609099591924" lon="-4.963103513808135"><ele>226.0</ele><time>2026-04-28T14:56:06.999Z</time></trkpt><trkpt lat="34.437419809696586" lon="-4.963198169391169"><ele>226.0</ele><time>2026-04-28T14:56:07.999Z</time></trkpt><trkpt lat="34.437236704560405" lon="-4.963287063936706"><ele>226.0</ele><time>2026-04-28T14:56:08.999Z</time></trkpt><trkpt lat="34.43705518553683" lon="-4.963365632385026"><ele>226.0</ele><time>2026-04-28T14:56:09.999Z</time></trkpt><trkpt lat="34.436877831998935" lon="-4.963435654206248"><ele>225.66666666666666</ele><time>2026-04-28T14:56:10.999Z</time></trkpt><trkpt lat="34.43670391486883" lon="-4.963488078143366"><ele>225.33333333333331</ele><time>2026-04-28T14:56:11.999Z</time></trkpt><trkpt lat="34.436540729136055" lon="-4.963520946773145"><ele>225.0</ele><time>2026-04-28T14:56:12.999Z</time></trkpt><trkpt lat="34.43638177662163" lon="-4.963537974424427"><ele>224.33333333333331</ele><time>2026-04-28T14:56:13.999Z</time></trkpt><trkpt lat="34.436224675350346" lon="-4.963544838574863"><ele>223.66666666666666</ele><time>2026-04-28T14:56:14.999Z</time></trkpt><trkpt lat="34.436061802706554" lon="-4.963549492304355"><ele>223.0</ele><time>2026-04-28T14:56:15.999Z</time></trkpt><trkpt lat="34.43588819489396" lon="-4.963556548681447"><ele>223.0</ele><time>2026-04-28T14:56:16.999Z</time></trkpt><trkpt lat="34.43570681221601" lon="-4.963563236109962"><ele>223.0</ele><time>2026-04-28T14:56:17.999Z</time></trkpt><trkpt lat="34.43552731716962" lon="-4.963572861769084"><ele>223.0</ele><time>2026-04-28T14:56:18.999Z</time></trkpt><trkpt lat="34.43535349572006" lon="-4.963589117780837"><ele>222.33333333333331</ele><time>2026-04-28T14:56:19.999Z</time></trkpt><trkpt lat="34.435190209823965" lon="-4.963598225431488"><ele>221.66666666666669</ele><time>2026-04-28T14:56:20.999Z</time></trkpt><trkpt lat="34.43503006354153" lon="-4.96360858363534"><ele>221.0</ele><time>2026-04-28T14:56:21.999Z</time></trkpt><trkpt lat="34.43488922834033" lon="-4.963623118386016"><ele>221.0</ele><time>2026-04-28T14:56:22.999Z</time></trkpt><trkpt lat="34.434767229331406" lon="-4.963634151128647"><ele>221.00000000000003</ele><time>2026-04-28T14:56:23.999Z</time></trkpt><trkpt lat="34.43465362832264" lon="-4.963645034835094"><ele>221.00000000000003</ele><time>2026-04-28T14:56:24.999Z</time></trkpt><trkpt lat="34.43454581157846" lon="-4.963648818229404"><ele>221.0</ele><time>2026-04-28T14:56:25.999Z</time></trkpt><trkpt lat="34.43444304218372" lon="-4.9636518501072375"><ele>221.0</ele><time>2026-04-28T14:56:26.999Z</time></trkpt><trkpt lat="34.43434661066174" lon="-4.963655247787709"><ele>220.8</ele><time>2026-04-28T14:56:27.999Z</time></trkpt><trkpt lat="34.43426255650788" lon="-4.963662046537454"><ele>220.60000000000002</ele><time>2026-04-28T14:56:28.999Z</time></trkpt><trkpt lat="34.434192164334796" lon="-4.963669962983082"><ele>220.4</ele><time>2026-04-28T14:56:29.999Z</time></trkpt><trkpt lat="34.434073518974984" lon="-4.963674234357975"><ele>220.2</ele><time>2026-04-28T14:56:31.999Z</time></trkpt><trkpt lat="34.433947435455735" lon="-4.963672984194868"><ele>220.0</ele><time>2026-04-28T14:56:33.999Z</time></trkpt><trkpt lat="34.4338740191571" lon="-4.963676399204612"><ele>219.66666666666666</ele><time>2026-04-28T14:56:34.999Z</time></trkpt><trkpt lat="34.43379271102027" lon="-4.963676598987444"><ele>219.33333333333331</ele><time>2026-04-28T14:56:35.999Z</time></trkpt><trkpt lat="34.43370790214794" lon="-4.963684235309382"><ele>219.0</ele><time>2026-04-28T14:56:36.999Z</time></trkpt><trkpt lat="34.433621818325044" lon="-4.9636980884286634"><ele>218.66666666666669</ele><time>2026-04-28T14:56:37.999Z</time></trkpt><trkpt lat="34.433536394895704" lon="-4.9637061516523575"><ele>218.33333333333334</ele><time>2026-04-28T14:56:38.999Z</time></trkpt><trkpt lat="34.43345220061424" lon="-4.9637101292334425"><ele>218.0</ele><time>2026-04-28T14:56:39.999Z</time></trkpt><trkpt lat="34.43337036925304" lon="-4.963710406714176"><ele>218.0</ele><time>2026-04-28T14:56:40.999Z</time></trkpt><trkpt lat="34.43329107371583" lon="-4.963709631829027"><ele>218.0</ele><time>2026-04-28T14:56:41.999Z</time></trkpt><trkpt lat="34.43321382202923" lon="-4.963721791479511"><ele>218.0</ele><time>2026-04-28T14:56:42.999Z</time></trkpt><trkpt lat="34.433138963001774" lon="-4.963730233446616"><ele>218.0</ele><time>2026-04-28T14:56:43.999Z</time></trkpt><trkpt lat="34.433067206034536" lon="-4.963738881227338"><ele>218.0</ele><time>2026-04-28T14:56:44.999Z</time></trkpt><trkpt lat="34.432998684899076" lon="-4.963746061640536"><ele>218.0</ele><time>2026-04-28T14:56:45.999Z</time></trkpt><trkpt lat="34.43292902850845" lon="-4.963748596615084"><ele>218.0</ele><time>2026-04-28T14:56:46.999Z</time></trkpt><trkpt lat="34.43285684657288" lon="-4.963753483990154"><ele>217.85714285714286</ele><time>2026-04-28T14:56:47.999Z</time></trkpt><trkpt lat="34.43278281826472" lon="-4.963760216805694"><ele>217.71428571428572</ele><time>2026-04-28T14:56:48.999Z</time></trkpt><trkpt lat="34.43270836287805" lon="-4.963769865353848"><ele>217.57142857142856</ele><time>2026-04-28T14:56:50Z</time></trkpt><trkpt lat="34.43263474419961" lon="-4.963774565917588"><ele>217.42857142857144</ele><time>2026-04-28T14:56:51Z</time></trkpt><trkpt lat="34.43256149146023" lon="-4.963773270426932"><ele>217.28571428571428</ele><time>2026-04-28T14:56:52Z</time></trkpt><trkpt lat="34.43248832136256" lon="-4.963775900721137"><ele>217.14285714285714</ele><time>2026-04-28T14:56:53Z</time></trkpt><trkpt lat="34.43241600694018" lon="-4.963786556910485"><ele>217.0</ele><time>2026-04-28T14:56:54Z</time></trkpt><trkpt lat="34.43234355969936" lon="-4.963794628544227"><ele>216.99999999999997</ele><time>2026-04-28T14:56:55Z</time></trkpt><trkpt lat="34.43227310346924" lon="-4.9637956923672295"><ele>217.0</ele><time>2026-04-28T14:56:56Z</time></trkpt><trkpt lat="34.43220420247457" lon="-4.963794103795249"><ele>217.0</ele><time>2026-04-28T14:56:57Z</time></trkpt><trkpt lat="34.43213731769128" lon="-4.963797501442832"><ele>217.0</ele><time>2026-04-28T14:56:58Z</time></trkpt><trkpt lat="34.432017297008755" lon="-4.96381014622372"><ele>216.99999999999997</ele><time>2026-04-28T14:57:00Z</time></trkpt><trkpt lat="34.43190996631211" lon="-4.963817423347645"><ele>217.0</ele><time>2026-04-28T14:57:02Z</time></trkpt><trkpt lat="34.43181837702656" lon="-4.96382005392035"><ele>216.83333333333331</ele><time>2026-04-28T14:57:04Z</time></trkpt><trkpt lat="34.43173119893577" lon="-4.9638341610504995"><ele>216.66666666666666</ele><time>2026-04-28T14:57:06Z</time></trkpt><trkpt lat="34.431644551404865" lon="-4.963849147231192"><ele>216.5</ele><time>2026-04-28T14:57:08Z</time></trkpt><trkpt lat="34.43155608196525" lon="-4.963857766383758"><ele>216.33333333333331</ele><time>2026-04-28T14:57:10Z</time></trkpt><trkpt lat="34.431478827318806" lon="-4.963855206272203"><ele>216.16666666666666</ele><time>2026-04-28T14:57:12Z</time></trkpt><trkpt lat="34.43139624850051" lon="-4.963855635328875"><ele>216.0</ele><time>2026-04-28T14:57:14Z</time></trkpt><trkpt lat="34.43130901833744" lon="-4.963862592279925"><ele>215.8</ele><time>2026-04-28T14:57:16Z</time></trkpt><trkpt lat="34.43122076121112" lon="-4.963867148895322"><ele>215.60000000000002</ele><time>2026-04-28T14:57:18Z</time></trkpt><trkpt lat="34.43112701957669" lon="-4.963874478906798"><ele>215.4</ele><time>2026-04-28T14:57:20Z</time></trkpt><trkpt lat="34.43102471360828" lon="-4.9638722471335415"><ele>215.2</ele><time>2026-04-28T14:57:22Z</time></trkpt><trkpt lat="34.43091396952756" lon="-4.963879865423279"><ele>215.0</ele><time>2026-04-28T14:57:24Z</time></trkpt><trkpt lat="34.430808700786116" lon="-4.963889113334578"><ele>215.0</ele><time>2026-04-28T14:57:26Z</time></trkpt><trkpt lat="34.430703531800155" lon="-4.963894889983337"><ele>215.0</ele><time>2026-04-28T14:57:28Z</time></trkpt><trkpt lat="34.43060839819546" lon="-4.963899680706117"><ele>215.0</ele><time>2026-04-28T14:57:30Z</time></trkpt><trkpt lat="34.430507623447305" lon="-4.963908779170999"><ele>215.0</ele><time>2026-04-28T14:57:32Z</time></trkpt><trkpt lat="34.43038707887785" lon="-4.96391718807591"><ele>215.0</ele><time>2026-04-28T14:57:34Z</time></trkpt><trkpt lat="34.430269657716366" lon="-4.963935436158252"><ele>214.33333333333334</ele><time>2026-04-28T14:57:36Z</time></trkpt><trkpt lat="34.43019635106059" lon="-4.96394004551698"><ele>213.66666666666669</ele><time>2026-04-28T14:57:37Z</time></trkpt><trkpt lat="34.43012657062125" lon="-4.96392617254251"><ele>213.0</ele><time>2026-04-28T14:57:38Z</time></trkpt><trkpt lat="34.43005544117031" lon="-4.963940383897647"><ele>212.33333333333331</ele><time>2026-04-28T14:57:39Z</time></trkpt><trkpt lat="34.429980318483196" lon="-4.9639486330047315"><ele>211.66666666666666</ele><time>2026-04-28T14:57:40Z</time></trkpt><trkpt lat="34.42989459298742" lon="-4.963946789768401"><ele>211.0</ele><time>2026-04-28T14:57:40.999Z</time></trkpt><trkpt lat="34.42981155680157" lon="-4.963966162794223"><ele>211.0</ele><time>2026-04-28T14:57:41.999Z</time></trkpt><trkpt lat="34.42973079404855" lon="-4.963971315265429"><ele>211.0</ele><time>2026-04-28T14:57:42.999Z</time></trkpt><trkpt lat="34.42961475100126" lon="-4.963961071448402"><ele>211.0</ele><time>2026-04-28T14:57:43.999Z</time></trkpt><trkpt lat="34.42950024453882" lon="-4.963976062608124"><ele>211.0</ele><time>2026-04-28T14:57:44.999Z</time></trkpt><trkpt lat="34.42935874699747" lon="-4.963983365937557"><ele>211.33333333333331</ele><time>2026-04-28T14:57:45.999Z</time></trkpt><trkpt lat="34.42921013664247" lon="-4.9639930222665605"><ele>211.66666666666669</ele><time>2026-04-28T14:57:46.999Z</time></trkpt><trkpt lat="34.42904178918223" lon="-4.964001797422686"><ele>212.0</ele><time>2026-04-28T14:57:47.999Z</time></trkpt><trkpt lat="34.428865826766035" lon="-4.964027033837744"><ele>211.66666666666669</ele><time>2026-04-28T14:57:48.999Z</time></trkpt><trkpt lat="34.42868769265903" lon="-4.9640385629264285"><ele>211.33333333333331</ele><time>2026-04-28T14:57:49.999Z</time></trkpt><trkpt lat="34.42850537587527" lon="-4.964032886546589"><ele>211.0</ele><time>2026-04-28T14:57:50.999Z</time></trkpt><trkpt lat="34.42832589750888" lon="-4.964053809407087"><ele>211.0</ele><time>2026-04-28T14:57:51.999Z</time></trkpt><trkpt lat="34.42814544381585" lon="-4.964069925358298"><ele>211.0</ele><time>2026-04-28T14:57:52.999Z</time></trkpt><trkpt lat="34.42796056246909" lon="-4.964075519678818"><ele>211.0</ele><time>2026-04-28T14:57:53.999Z</time></trkpt><trkpt lat="34.42777817687825" lon="-4.964089940543269"><ele>211.0</ele><time>2026-04-28T14:57:54.999Z</time></trkpt><trkpt lat="34.42759178150762" lon="-4.964102609382986"><ele>211.0</ele><time>2026-04-28T14:57:55.999Z</time></trkpt><trkpt lat="34.427387100996654" lon="-4.964114626608398"><ele>211.0</ele><time>2026-04-28T14:57:56.999Z</time></trkpt><trkpt lat="34.42717839333882" lon="-4.964120400354189"><ele>210.5</ele><time>2026-04-28T14:57:57.999Z</time></trkpt><trkpt lat="34.42695653137982" lon="-4.964107176038118"><ele>210.0</ele><time>2026-04-28T14:57:58.999Z</time></trkpt><trkpt lat="34.426718986319344" lon="-4.964089017335221"><ele>210.0</ele><time>2026-04-28T14:57:59.999Z</time></trkpt><trkpt lat="34.42648556925911" lon="-4.964068836453804"><ele>210.0</ele><time>2026-04-28T14:58:00.999Z</time></trkpt><trkpt lat="34.42625447463649" lon="-4.964056496534708"><ele>209.5</ele><time>2026-04-28T14:58:01.999Z</time></trkpt><trkpt lat="34.42602206159548" lon="-4.964043336364961"><ele>209.0</ele><time>2026-04-28T14:58:02.999Z</time></trkpt><trkpt lat="34.42579356431135" lon="-4.964039655944775"><ele>209.0</ele><time>2026-04-28T14:58:03.999Z</time></trkpt><trkpt lat="34.4255755463709" lon="-4.964039347093999"><ele>209.0</ele><time>2026-04-28T14:58:04.999Z</time></trkpt><trkpt lat="34.42537917349941" lon="-4.964021532579159"><ele>209.0</ele><time>2026-04-28T14:58:05.999Z</time></trkpt><trkpt lat="34.42516639778339" lon="-4.9640191738194686"><ele>208.5</ele><time>2026-04-28T14:58:06.999Z</time></trkpt><trkpt lat="34.42494435074451" lon="-4.964013945227145"><ele>208.0</ele><time>2026-04-28T14:58:07.999Z</time></trkpt><trkpt lat="34.424714499991005" lon="-4.963995720620359"><ele>208.0</ele><time>2026-04-28T14:58:08.999Z</time></trkpt><trkpt lat="34.42448691414868" lon="-4.963972940902159"><ele>208.0</ele><time>2026-04-28T14:58:09.999Z</time></trkpt><trkpt lat="34.42426751009854" lon="-4.9639755601720745"><ele>208.0</ele><time>2026-04-28T14:58:10.999Z</time></trkpt><trkpt lat="34.42405646028955" lon="-4.964018446967553"><ele>208.0</ele><time>2026-04-28T14:58:11.999Z</time></trkpt><trkpt lat="34.423855180967436" lon="-4.9640827692730545"><ele>208.0</ele><time>2026-04-28T14:58:12.999Z</time></trkpt><trkpt lat="34.42366510286289" lon="-4.964132272993975"><ele>208.0</ele><time>2026-04-28T14:58:13.999Z</time></trkpt><trkpt lat="34.42347976081206" lon="-4.9641616281159155"><ele>208.66666666666666</ele><time>2026-04-28T14:58:14.999Z</time></trkpt><trkpt lat="34.4233003892904" lon="-4.964169232354031"><ele>209.33333333333331</ele><time>2026-04-28T14:58:15.999Z</time></trkpt><trkpt lat="34.423131735563835" lon="-4.964155674763633"><ele>210.0</ele><time>2026-04-28T14:58:16.999Z</time></trkpt><trkpt lat="34.422964696137115" lon="-4.964103782835051"><ele>208.66666666666669</ele><time>2026-04-28T14:58:17.999Z</time></trkpt><trkpt lat="34.4227877912445" lon="-4.96400552415582"><ele>207.33333333333334</ele><time>2026-04-28T14:58:18.999Z</time></trkpt><trkpt lat="34.42258901846745" lon="-4.963883152657347"><ele>206.0</ele><time>2026-04-28T14:58:19.999Z</time></trkpt><trkpt lat="34.422380304149115" lon="-4.963767722884593"><ele>206.0</ele><time>2026-04-28T14:58:20.999Z</time></trkpt><trkpt lat="34.42216220851279" lon="-4.963649851766948"><ele>206.0</ele><time>2026-04-28T14:58:21.999Z</time></trkpt><trkpt lat="34.4219444813523" lon="-4.9635315363856956"><ele>204.0</ele><time>2026-04-28T14:58:22.999Z</time></trkpt><trkpt lat="34.421719579669464" lon="-4.963438704972596"><ele>202.0</ele><time>2026-04-28T14:58:23.999Z</time></trkpt><trkpt lat="34.421484592968376" lon="-4.963393609416119"><ele>202.0</ele><time>2026-04-28T14:58:24.999Z</time></trkpt><trkpt lat="34.42124234200098" lon="-4.963341826506597"><ele>202.0</ele><time>2026-04-28T14:58:25.999Z</time></trkpt><trkpt lat="34.42099004127599" lon="-4.963328911188101"><ele>202.0</ele><time>2026-04-28T14:58:26.999Z</time></trkpt><trkpt lat="34.420734279365305" lon="-4.96332593128227"><ele>202.0</ele><time>2026-04-28T14:58:27.999Z</time></trkpt><trkpt lat="34.42047564562561" lon="-4.96332898132462"><ele>201.5</ele><time>2026-04-28T14:58:28.999Z</time></trkpt><trkpt lat="34.42021295929093" lon="-4.963358871001338"><ele>201.0</ele><time>2026-04-28T14:58:29.999Z</time></trkpt><trkpt lat="34.41995227282995" lon="-4.9634097357752225"><ele>200.5</ele><time>2026-04-28T14:58:30.999Z</time></trkpt><trkpt lat="34.41969935573838" lon="-4.963486133114924"><ele>200.0</ele><time>2026-04-28T14:58:31.999Z</time></trkpt><trkpt lat="34.419449400492276" lon="-4.9635731541547905"><ele>199.5</ele><time>2026-04-28T14:58:32.999Z</time></trkpt><trkpt lat="34.41920482802654" lon="-4.963655853714034"><ele>199.0</ele><time>2026-04-28T14:58:33.999Z</time></trkpt><trkpt lat="34.41896231482051" lon="-4.96373051680556"><ele>199.0</ele><time>2026-04-28T14:58:34.999Z</time></trkpt><trkpt lat="34.41872121073398" lon="-4.963805993129402"><ele>199.0</ele><time>2026-04-28T14:58:35.999Z</time></trkpt><trkpt lat="34.41847984818103" lon="-4.963878261862566"><ele>199.0</ele><time>2026-04-28T14:58:36.999Z</time></trkpt><trkpt lat="34.418246103969146" lon="-4.963950898933996"><ele>199.0</ele><time>2026-04-28T14:58:37.999Z</time></trkpt><trkpt lat="34.418007222918014" lon="-4.9640230104321725"><ele>198.5</ele><time>2026-04-28T14:58:38.999Z</time></trkpt><trkpt lat="34.417773777766" lon="-4.964091971756271"><ele>198.0</ele><time>2026-04-28T14:58:39.999Z</time></trkpt><trkpt lat="34.417542600322726" lon="-4.964166324134263"><ele>199.0</ele><time>2026-04-28T14:58:40.999Z</time></trkpt><trkpt lat="34.41731356091665" lon="-4.96424201753786"><ele>200.0</ele><time>2026-04-28T14:58:41.999Z</time></trkpt><trkpt lat="34.41707667919798" lon="-4.964315388210412"><ele>201.0</ele><time>2026-04-28T14:58:42.999Z</time></trkpt><trkpt lat="34.416772381816386" lon="-4.96420049021799"><ele>202.0</ele><time>2026-04-28T14:58:43.999Z</time></trkpt><trkpt lat="34.416568053978395" lon="-4.964388109831316"><ele>202.0</ele><time>2026-04-28T14:58:44.999Z</time></trkpt><trkpt lat="34.416379847952854" lon="-4.964525747112694"><ele>202.0</ele><time>2026-04-28T14:58:45.999Z</time></trkpt><trkpt lat="34.41615347080011" lon="-4.964598658943843"><ele>202.5</ele><time>2026-04-28T14:58:46.999Z</time></trkpt><trkpt lat="34.415928080264116" lon="-4.96467395639334"><ele>203.0</ele><time>2026-04-28T14:58:47.999Z</time></trkpt><trkpt lat="34.415715485588" lon="-4.964743418965381"><ele>203.0</ele><time>2026-04-28T14:58:48.999Z</time></trkpt><trkpt lat="34.415517825879554" lon="-4.96480424393361"><ele>203.0</ele><time>2026-04-28T14:58:49.999Z</time></trkpt><trkpt lat="34.41532624613845" lon="-4.964861125218871"><ele>203.0</ele><time>2026-04-28T14:58:50.999Z</time></trkpt><trkpt lat="34.415134982503915" lon="-4.964913138856902"><ele>203.66666666666669</ele><time>2026-04-28T14:58:51.999Z</time></trkpt><trkpt lat="34.41495668170072" lon="-4.964957551183237"><ele>204.33333333333331</ele><time>2026-04-28T14:58:52.999Z</time></trkpt><trkpt lat="34.41479417516437" lon="-4.965000250406718"><ele>205.0</ele><time>2026-04-28T14:58:53.999Z</time></trkpt><trkpt lat="34.4146304702445" lon="-4.96503764830837"><ele>206.0</ele><time>2026-04-28T14:58:54.999Z</time></trkpt><trkpt lat="34.41445734557287" lon="-4.965074545112774"><ele>207.0</ele><time>2026-04-28T14:58:56Z</time></trkpt><trkpt lat="34.41427041608914" lon="-4.965104924885315"><ele>208.0</ele><time>2026-04-28T14:58:57Z</time></trkpt><trkpt lat="34.41406633906396" lon="-4.965129912253663"><ele>208.0</ele><time>2026-04-28T14:58:58Z</time></trkpt><trkpt lat="34.41384676042828" lon="-4.965150483570571"><ele>208.0</ele><time>2026-04-28T14:58:59Z</time></trkpt><trkpt lat="34.41361456029507" lon="-4.965171488474608"><ele>206.5</ele><time>2026-04-28T14:59:00Z</time></trkpt><trkpt lat="34.413374654276005" lon="-4.965192744205808"><ele>205.0</ele><time>2026-04-28T14:59:01Z</time></trkpt><trkpt lat="34.41313016031633" lon="-4.965219991500465"><ele>205.5</ele><time>2026-04-28T14:59:02Z</time></trkpt><trkpt lat="34.41288222912776" lon="-4.965252186711767"><ele>206.0</ele><time>2026-04-28T14:59:03Z</time></trkpt><trkpt lat="34.41263258373886" lon="-4.965284756437275"><ele>206.0</ele><time>2026-04-28T14:59:04Z</time></trkpt><trkpt lat="34.41238257766444" lon="-4.9653143294768896"><ele>206.0</ele><time>2026-04-28T14:59:05Z</time></trkpt><trkpt lat="34.4121278269687" lon="-4.965335879475345"><ele>205.5</ele><time>2026-04-28T14:59:06Z</time></trkpt><trkpt lat="34.41187577942003" lon="-4.9653565459399465"><ele>205.0</ele><time>2026-04-28T14:59:07Z</time></trkpt><trkpt lat="34.41163011286636" lon="-4.9653781836785935"><ele>205.0</ele><time>2026-04-28T14:59:08Z</time></trkpt><trkpt lat="34.41139826827902" lon="-4.965399378919361"><ele>205.0</ele><time>2026-04-28T14:59:09Z</time></trkpt><trkpt lat="34.41118757219958" lon="-4.965417272169281"><ele>205.0</ele><time>2026-04-28T14:59:10Z</time></trkpt><trkpt lat="34.41099132707526" lon="-4.965436514669003"><ele>205.0</ele><time>2026-04-28T14:59:11Z</time></trkpt><trkpt lat="34.410814747701664" lon="-4.965452751087209"><ele>205.0</ele><time>2026-04-28T14:59:12Z</time></trkpt><trkpt lat="34.410653818971205" lon="-4.9654680911583124"><ele>205.0</ele><time>2026-04-28T14:59:13Z</time></trkpt><trkpt lat="34.41051055193015" lon="-4.965488738643694"><ele>205.2</ele><time>2026-04-28T14:59:14Z</time></trkpt><trkpt lat="34.410389871150024" lon="-4.965502129663877"><ele>205.4</ele><time>2026-04-28T14:59:15Z</time></trkpt><trkpt lat="34.41030203351399" lon="-4.965500124416595"><ele>205.60000000000002</ele><time>2026-04-28T14:59:16Z</time></trkpt><trkpt lat="34.41020736483114" lon="-4.965501067516258"><ele>205.8</ele><time>2026-04-28T14:59:17Z</time></trkpt><trkpt lat="34.41009473078543" lon="-4.9655157429233245"><ele>206.0</ele><time>2026-04-28T14:59:18Z</time></trkpt><trkpt lat="34.40998638744676" lon="-4.965529216273995"><ele>206.0</ele><time>2026-04-28T14:59:19Z</time></trkpt><trkpt lat="34.409857392948446" lon="-4.96554358428705"><ele>206.0</ele><time>2026-04-28T14:59:20Z</time></trkpt><trkpt lat="34.40971065777715" lon="-4.965557700243119"><ele>206.0</ele><time>2026-04-28T14:59:21Z</time></trkpt><trkpt lat="34.40954943939476" lon="-4.965573027966702"><ele>206.0</ele><time>2026-04-28T14:59:22Z</time></trkpt><trkpt lat="34.409391626713486" lon="-4.9655885062728435"><ele>206.0</ele><time>2026-04-28T14:59:23Z</time></trkpt><trkpt lat="34.409229286702036" lon="-4.965605592897534"><ele>206.0</ele><time>2026-04-28T14:59:24Z</time></trkpt><trkpt lat="34.40905666145776" lon="-4.965625146929365"><ele>206.0</ele><time>2026-04-28T14:59:25Z</time></trkpt><trkpt lat="34.40887768492585" lon="-4.96564328752903"><ele>206.33333333333334</ele><time>2026-04-28T14:59:26Z</time></trkpt><trkpt lat="34.40868963835023" lon="-4.9656599861630335"><ele>206.66666666666669</ele><time>2026-04-28T14:59:27Z</time></trkpt><trkpt lat="34.408499502696266" lon="-4.965676233546297"><ele>207.0</ele><time>2026-04-28T14:59:28Z</time></trkpt><trkpt lat="34.408312963634344" lon="-4.965695649033294"><ele>207.0</ele><time>2026-04-28T14:59:29Z</time></trkpt><trkpt lat="34.408126206290575" lon="-4.965715152539364"><ele>207.0</ele><time>2026-04-28T14:59:30Z</time></trkpt><trkpt lat="34.407935477809744" lon="-4.965734699616362"><ele>207.0</ele><time>2026-04-28T14:59:31Z</time></trkpt><trkpt lat="34.407742795176745" lon="-4.965750422090518"><ele>208.0</ele><time>2026-04-28T14:59:32Z</time></trkpt><trkpt lat="34.40754689268383" lon="-4.965765798446686"><ele>209.0</ele><time>2026-04-28T14:59:33Z</time></trkpt><trkpt lat="34.40734731015392" lon="-4.965781196738398"><ele>210.0</ele><time>2026-04-28T14:59:33.999Z</time></trkpt><trkpt lat="34.407144972347474" lon="-4.965793864833943"><ele>211.33333333333331</ele><time>2026-04-28T14:59:34.999Z</time></trkpt><trkpt lat="34.40694111611858" lon="-4.965804687330723"><ele>212.66666666666666</ele><time>2026-04-28T14:59:35.999Z</time></trkpt><trkpt lat="34.40673626924353" lon="-4.96581179584686"><ele>214.0</ele><time>2026-04-28T14:59:36.999Z</time></trkpt><trkpt lat="34.4065262676048" lon="-4.965822416336341"><ele>212.66666666666666</ele><time>2026-04-28T14:59:37.999Z</time></trkpt><trkpt lat="34.406319030489115" lon="-4.965840775382719"><ele>211.33333333333331</ele><time>2026-04-28T14:59:38.999Z</time></trkpt><trkpt lat="34.406112935389075" lon="-4.96586457327961"><ele>210.0</ele><time>2026-04-28T14:59:39.999Z</time></trkpt><trkpt lat="34.405914810045566" lon="-4.965881245306628"><ele>208.66666666666669</ele><time>2026-04-28T14:59:40.999Z</time></trkpt><trkpt lat="34.4057273162702" lon="-4.965887723974014"><ele>207.33333333333334</ele><time>2026-04-28T14:59:41.999Z</time></trkpt><trkpt lat="34.405545073930824" lon="-4.965895590290563"><ele>206.0</ele><time>2026-04-28T14:59:42.999Z</time></trkpt><trkpt lat="34.40536845729969" lon="-4.965914611436089"><ele>205.0</ele><time>2026-04-28T14:59:43.999Z</time></trkpt><trkpt lat="34.405180873643204" lon="-4.965940921566509"><ele>204.0</ele><time>2026-04-28T14:59:44.999Z</time></trkpt><trkpt lat="34.40497649868701" lon="-4.965964362537023"><ele>203.0</ele><time>2026-04-28T14:59:45.999Z</time></trkpt><trkpt lat="34.404762493286874" lon="-4.96599101681346"><ele>199.5</ele><time>2026-04-28T14:59:46.999Z</time></trkpt><trkpt lat="34.404540343712014" lon="-4.966012275652059"><ele>196.0</ele><time>2026-04-28T14:59:47.999Z</time></trkpt><trkpt lat="34.404313170141535" lon="-4.966015126762379"><ele>196.0</ele><time>2026-04-28T14:59:48.999Z</time></trkpt><trkpt lat="34.404092478401544" lon="-4.9659999055226445"><ele>196.0</ele><time>2026-04-28T14:59:49.999Z</time></trkpt><trkpt lat="34.403875263218126" lon="-4.965962088547863"><ele>196.0</ele><time>2026-04-28T14:59:50.999Z</time></trkpt><trkpt lat="34.40365947507508" lon="-4.965919425929928"><ele>195.33333333333331</ele><time>2026-04-28T14:59:51.999Z</time></trkpt><trkpt lat="34.40344361039497" lon="-4.965882229407812"><ele>194.66666666666669</ele><time>2026-04-28T14:59:52.999Z</time></trkpt><trkpt lat="34.403219596922234" lon="-4.965847981216925"><ele>194.0</ele><time>2026-04-28T14:59:53.999Z</time></trkpt><trkpt lat="34.40298768812655" lon="-4.96581075944309"><ele>191.0</ele><time>2026-04-28T14:59:54.999Z</time></trkpt><trkpt lat="34.40275517066043" lon="-4.965774295395052"><ele>188.0</ele><time>2026-04-28T14:59:55.999Z</time></trkpt><trkpt lat="34.40252675298842" lon="-4.965735365661422"><ele>188.0</ele><time>2026-04-28T14:59:56.999Z</time></trkpt><trkpt lat="34.402302416466306" lon="-4.965697346124559"><ele>188.0</ele><time>2026-04-28T14:59:57.999Z</time></trkpt><trkpt lat="34.40208906334506" lon="-4.965661831333839"><ele>188.0</ele><time>2026-04-28T14:59:58.999Z</time></trkpt><trkpt lat="34.4018748372566" lon="-4.965625178038583"><ele>186.5</ele><time>2026-04-28T14:59:59.999Z</time></trkpt><trkpt lat="34.40164377806855" lon="-4.96558527468569"><ele>185.0</ele><time>2026-04-28T15:00:00.999Z</time></trkpt><trkpt lat="34.40138873079823" lon="-4.965557669837483"><ele>184.0</ele><time>2026-04-28T15:00:01.999Z</time></trkpt><trkpt lat="34.4011223364483" lon="-4.965514670589823"><ele>183.0</ele><time>2026-04-28T15:00:02.999Z</time></trkpt><trkpt lat="34.4008558199948" lon="-4.965471651633903"><ele>183.0</ele><time>2026-04-28T15:00:03.999Z</time></trkpt><trkpt lat="34.40058450560658" lon="-4.965427858233455"><ele>183.0</ele><time>2026-04-28T15:00:04.999Z</time></trkpt><trkpt lat="34.40032164583448" lon="-4.965384950766259"><ele>182.5</ele><time>2026-04-28T15:00:05.999Z</time></trkpt><trkpt lat="34.40005919834919" lon="-4.965335543325724"><ele>182.0</ele><time>2026-04-28T15:00:06.999Z</time></trkpt><trkpt lat="34.39979503832943" lon="-4.96530119292566"><ele>182.0</ele><time>2026-04-28T15:00:07.999Z</time></trkpt><trkpt lat="34.39953343050028" lon="-4.965257238915024"><ele>182.0</ele><time>2026-04-28T15:00:08.999Z</time></trkpt><trkpt lat="34.399268383979106" lon="-4.965216427218547"><ele>182.0</ele><time>2026-04-28T15:00:09.999Z</time></trkpt><trkpt lat="34.39900445857497" lon="-4.965177340124257"><ele>182.0</ele><time>2026-04-28T15:00:10.999Z</time></trkpt><trkpt lat="34.39874390367009" lon="-4.965139131377854"><ele>181.0</ele><time>2026-04-28T15:00:11.999Z</time></trkpt><trkpt lat="34.39848053915619" lon="-4.965099584527314"><ele>180.0</ele><time>2026-04-28T15:00:12.999Z</time></trkpt><trkpt lat="34.398217487165006" lon="-4.965059231745184"><ele>179.5</ele><time>2026-04-28T15:00:13.999Z</time></trkpt><trkpt lat="34.397951156521415" lon="-4.965015413077086"><ele>179.0</ele><time>2026-04-28T15:00:14.999Z</time></trkpt><trkpt lat="34.397689460973496" lon="-4.964972292812413"><ele>179.0</ele><time>2026-04-28T15:00:15.999Z</time></trkpt><trkpt lat="34.39742418379697" lon="-4.964927886789188"><ele>179.0</ele><time>2026-04-28T15:00:16.999Z</time></trkpt><trkpt lat="34.397159322700695" lon="-4.964874136094512"><ele>180.0</ele><time>2026-04-28T15:00:17.999Z</time></trkpt><trkpt lat="34.39689289400756" lon="-4.964807448155351"><ele>181.0</ele><time>2026-04-28T15:00:18.999Z</time></trkpt><trkpt lat="34.39662728902248" lon="-4.964735844107786"><ele>181.0</ele><time>2026-04-28T15:00:19.999Z</time></trkpt><trkpt lat="34.396363724625445" lon="-4.964666794791986"><ele>181.0</ele><time>2026-04-28T15:00:20.999Z</time></trkpt><trkpt lat="34.396102335224754" lon="-4.9645931092325055"><ele>180.0</ele><time>2026-04-28T15:00:21.999Z</time></trkpt><trkpt lat="34.39585555409177" lon="-4.96452395999485"><ele>179.0</ele><time>2026-04-28T15:00:22.999Z</time></trkpt><trkpt lat="34.39562565530603" lon="-4.964452815042738"><ele>178.0</ele><time>2026-04-28T15:00:23.999Z</time></trkpt><trkpt lat="34.39540426887708" lon="-4.96438953095576"><ele>177.0</ele><time>2026-04-28T15:00:24.999Z</time></trkpt><trkpt lat="34.395182372401315" lon="-4.9643292284378395"><ele>177.0</ele><time>2026-04-28T15:00:25.999Z</time></trkpt><trkpt lat="34.39496420810076" lon="-4.964271990805514"><ele>177.0</ele><time>2026-04-28T15:00:26.999Z</time></trkpt><trkpt lat="34.394763846632905" lon="-4.964232231030361"><ele>177.0</ele><time>2026-04-28T15:00:27.999Z</time></trkpt><trkpt lat="34.394573550181256" lon="-4.964196356507542"><ele>180.66666666666666</ele><time>2026-04-28T15:00:28.999Z</time></trkpt><trkpt lat="34.394396401649026" lon="-4.964158245717324"><ele>184.33333333333331</ele><time>2026-04-28T15:00:29.999Z</time></trkpt><trkpt lat="34.3942247680008" lon="-4.964116839328522"><ele>188.0</ele><time>2026-04-28T15:00:30.999Z</time></trkpt><trkpt lat="34.394040283028716" lon="-4.964064937538442"><ele>188.0</ele><time>2026-04-28T15:00:31.999Z</time></trkpt><trkpt lat="34.393841296690326" lon="-4.964006009345102"><ele>188.0</ele><time>2026-04-28T15:00:32.999Z</time></trkpt><trkpt lat="34.39363883890753" lon="-4.963943685167163"><ele>188.0</ele><time>2026-04-28T15:00:33.999Z</time></trkpt><trkpt lat="34.39343462445633" lon="-4.963872861272576"><ele>186.66666666666666</ele><time>2026-04-28T15:00:34.999Z</time></trkpt><trkpt lat="34.39322601445729" lon="-4.963785275520232"><ele>185.33333333333334</ele><time>2026-04-28T15:00:35.999Z</time></trkpt><trkpt lat="34.393015454955034" lon="-4.963685391842947"><ele>184.0</ele><time>2026-04-28T15:00:36.999Z</time></trkpt><trkpt lat="34.39279981618182" lon="-4.96357067949424"><ele>184.5</ele><time>2026-04-28T15:00:37.999Z</time></trkpt><trkpt lat="34.39259277903848" lon="-4.96345602667293"><ele>185.0</ele><time>2026-04-28T15:00:38.999Z</time></trkpt><trkpt lat="34.39238706881826" lon="-4.963345566882776"><ele>185.0</ele><time>2026-04-28T15:00:39.999Z</time></trkpt><trkpt lat="34.3921826718737" lon="-4.963240962066223"><ele>185.0</ele><time>2026-04-28T15:00:40.999Z</time></trkpt><trkpt lat="34.39198393441048" lon="-4.963136718081001"><ele>185.0</ele><time>2026-04-28T15:00:41.999Z</time></trkpt><trkpt lat="34.39179167258288" lon="-4.963032044242888"><ele>185.33333333333331</ele><time>2026-04-28T15:00:42.999Z</time></trkpt><trkpt lat="34.39160578439663" lon="-4.962928539071935"><ele>185.66666666666666</ele><time>2026-04-28T15:00:43.999Z</time></trkpt><trkpt lat="34.391429157407565" lon="-4.962830480760737"><ele>186.0</ele><time>2026-04-28T15:00:44.999Z</time></trkpt><trkpt lat="34.391264185201834" lon="-4.962733695998769"><ele>186.33333333333334</ele><time>2026-04-28T15:00:45.999Z</time></trkpt><trkpt lat="34.39111197582649" lon="-4.9626428459159"><ele>186.66666666666669</ele><time>2026-04-28T15:00:46.999Z</time></trkpt><trkpt lat="34.39096792781734" lon="-4.962563099215961"><ele>187.0</ele><time>2026-04-28T15:00:47.999Z</time></trkpt><trkpt lat="34.39081911340074" lon="-4.962483071390024"><ele>187.0</ele><time>2026-04-28T15:00:48.999Z</time></trkpt><trkpt lat="34.390661846956526" lon="-4.962395680042472"><ele>187.0</ele><time>2026-04-28T15:00:49.999Z</time></trkpt><trkpt lat="34.390498404661066" lon="-4.962311280610474"><ele>187.0</ele><time>2026-04-28T15:00:50.999Z</time></trkpt><trkpt lat="34.390344589736266" lon="-4.962228213479613"><ele>187.66666666666669</ele><time>2026-04-28T15:00:51.999Z</time></trkpt><trkpt lat="34.39018741885729" lon="-4.962143935275514"><ele>188.33333333333334</ele><time>2026-04-28T15:00:52.999Z</time></trkpt><trkpt lat="34.39002630313716" lon="-4.9620577888861614"><ele>189.0</ele><time>2026-04-28T15:00:53.999Z</time></trkpt><trkpt lat="34.38986204089007" lon="-4.961974298906969"><ele>189.0</ele><time>2026-04-28T15:00:54.999Z</time></trkpt><trkpt lat="34.38969583601534" lon="-4.961889959071762"><ele>189.0</ele><time>2026-04-28T15:00:55.999Z</time></trkpt><trkpt lat="34.38953075534829" lon="-4.961802947530981"><ele>189.0</ele><time>2026-04-28T15:00:56.999Z</time></trkpt><trkpt lat="34.389365936604186" lon="-4.9617180752531045"><ele>190.66666666666669</ele><time>2026-04-28T15:00:57.999Z</time></trkpt><trkpt lat="34.38920242298066" lon="-4.961637405147368"><ele>192.33333333333334</ele><time>2026-04-28T15:00:58.999Z</time></trkpt><trkpt lat="34.38903724036993" lon="-4.961563105843118"><ele>194.0</ele><time>2026-04-28T15:00:59.999Z</time></trkpt><trkpt lat="34.38886421023575" lon="-4.961488856102698"><ele>194.33333333333334</ele><time>2026-04-28T15:01:00.999Z</time></trkpt><trkpt lat="34.38867692908036" lon="-4.9614142746292895"><ele>194.66666666666669</ele><time>2026-04-28T15:01:02Z</time></trkpt><trkpt lat="34.3884768214178" lon="-4.961338345346813"><ele>195.0</ele><time>2026-04-28T15:01:03Z</time></trkpt><trkpt lat="34.38826491696818" lon="-4.961254267466986"><ele>195.0</ele><time>2026-04-28T15:01:04Z</time></trkpt><trkpt lat="34.38804434394163" lon="-4.961165206348172"><ele>195.0</ele><time>2026-04-28T15:01:05Z</time></trkpt><trkpt lat="34.38781788626692" lon="-4.96107855366065"><ele>194.0</ele><time>2026-04-28T15:01:06Z</time></trkpt><trkpt lat="34.38759898393182" lon="-4.960998651389447"><ele>193.0</ele><time>2026-04-28T15:01:07Z</time></trkpt><trkpt lat="34.387374756591605" lon="-4.960920212842758"><ele>193.0</ele><time>2026-04-28T15:01:08Z</time></trkpt><trkpt lat="34.38715524918083" lon="-4.960839620793004"><ele>193.0</ele><time>2026-04-28T15:01:09Z</time></trkpt><trkpt lat="34.386931298458535" lon="-4.9607522405170155"><ele>193.0</ele><time>2026-04-28T15:01:10Z</time></trkpt><trkpt lat="34.38670577892687" lon="-4.960667057604764"><ele>193.0</ele><time>2026-04-28T15:01:11Z</time></trkpt><trkpt lat="34.386472181873664" lon="-4.9605866795694284"><ele>193.5</ele><time>2026-04-28T15:01:12Z</time></trkpt><trkpt lat="34.38623216316662" lon="-4.960507800187466"><ele>194.0</ele><time>2026-04-28T15:01:13Z</time></trkpt><trkpt lat="34.38598372191024" lon="-4.960438232796188"><ele>194.0</ele><time>2026-04-28T15:01:14Z</time></trkpt><trkpt lat="34.38573606467392" lon="-4.960375544918371"><ele>194.0</ele><time>2026-04-28T15:01:15Z</time></trkpt><trkpt lat="34.385494448381245" lon="-4.960317224727757"><ele>196.0</ele><time>2026-04-28T15:01:16Z</time></trkpt><trkpt lat="34.385254439625896" lon="-4.9602644429143"><ele>198.0</ele><time>2026-04-28T15:01:17Z</time></trkpt><trkpt lat="34.385020183337915" lon="-4.9602210690211725"><ele>198.0</ele><time>2026-04-28T15:01:18Z</time></trkpt><trkpt lat="34.38478188200566" lon="-4.960177137193845"><ele>198.0</ele><time>2026-04-28T15:01:19Z</time></trkpt><trkpt lat="34.38454166753616" lon="-4.960137495259006"><ele>198.33333333333331</ele><time>2026-04-28T15:01:20Z</time></trkpt><trkpt lat="34.38431007203407" lon="-4.960094610950864"><ele>198.66666666666666</ele><time>2026-04-28T15:01:21Z</time></trkpt><trkpt lat="34.384101980890264" lon="-4.960043631039158"><ele>199.0</ele><time>2026-04-28T15:01:22Z</time></trkpt><trkpt lat="34.383893758621184" lon="-4.960001367609473"><ele>200.5</ele><time>2026-04-28T15:01:23Z</time></trkpt><trkpt lat="34.38367156652588" lon="-4.960019850606106"><ele>202.0</ele><time>2026-04-28T15:01:24Z</time></trkpt><trkpt lat="34.38343780155688" lon="-4.960015048425899"><ele>208.0</ele><time>2026-04-28T15:01:25Z</time></trkpt><trkpt lat="34.38321718341011" lon="-4.960047245077329"><ele>214.0</ele><time>2026-04-28T15:01:26Z</time></trkpt><trkpt lat="34.38301027062017" lon="-4.960070642666948"><ele>220.0</ele><time>2026-04-28T15:01:27Z</time></trkpt><trkpt lat="34.38281998346386" lon="-4.960079651277034"><ele>222.33333333333331</ele><time>2026-04-28T15:01:28Z</time></trkpt><trkpt lat="34.38263998561386" lon="-4.960073910652086"><ele>224.66666666666669</ele><time>2026-04-28T15:01:29Z</time></trkpt><trkpt lat="34.38247380536359" lon="-4.96004128105024"><ele>227.0</ele><time>2026-04-28T15:01:30Z</time></trkpt><trkpt lat="34.38231511937534" lon="-4.959965322158301"><ele>223.0</ele><time>2026-04-28T15:01:31Z</time></trkpt><trkpt lat="34.382158562753915" lon="-4.959850811031546"><ele>219.0</ele><time>2026-04-28T15:01:32Z</time></trkpt><trkpt lat="34.3820021572855" lon="-4.959712344116085"><ele>215.0</ele><time>2026-04-28T15:01:33Z</time></trkpt><trkpt lat="34.38181392987994" lon="-4.959607303544299"><ele>215.0</ele><time>2026-04-28T15:01:34Z</time></trkpt><trkpt lat="34.381627002462125" lon="-4.959482587451419"><ele>215.0</ele><time>2026-04-28T15:01:35Z</time></trkpt><trkpt lat="34.38141988769619" lon="-4.959390269783404"><ele>215.0</ele><time>2026-04-28T15:01:36Z</time></trkpt><trkpt lat="34.381229408799854" lon="-4.959295167996227"><ele>216.33333333333334</ele><time>2026-04-28T15:01:37Z</time></trkpt><trkpt lat="34.3810461084487" lon="-4.959221308061422"><ele>217.66666666666669</ele><time>2026-04-28T15:01:38Z</time></trkpt><trkpt lat="34.38086322188338" lon="-4.959172575334514"><ele>219.0</ele><time>2026-04-28T15:01:39Z</time></trkpt><trkpt lat="34.3806658332722" lon="-4.959158222697226"><ele>218.0</ele><time>2026-04-28T15:01:40Z</time></trkpt><trkpt lat="34.38045302656149" lon="-4.959175423618819"><ele>217.0</ele><time>2026-04-28T15:01:41Z</time></trkpt><trkpt lat="34.3802453010543" lon="-4.9591990528471035"><ele>216.0</ele><time>2026-04-28T15:01:42Z</time></trkpt><trkpt lat="34.38005179300705" lon="-4.959209702775545"><ele>216.0</ele><time>2026-04-28T15:01:43Z</time></trkpt><trkpt lat="34.379875430305624" lon="-4.959208135730546"><ele>216.0</ele><time>2026-04-28T15:01:44Z</time></trkpt><trkpt lat="34.37970568814705" lon="-4.9591919071189094"><ele>216.0</ele><time>2026-04-28T15:01:44.999Z</time></trkpt><trkpt lat="34.379529226227426" lon="-4.959152144341159"><ele>214.0</ele><time>2026-04-28T15:01:45.999Z</time></trkpt><trkpt lat="34.379356269712716" lon="-4.959068229180373"><ele>212.0</ele><time>2026-04-28T15:01:46.999Z</time></trkpt><trkpt lat="34.379188437832845" lon="-4.958952703305171"><ele>210.0</ele><time>2026-04-28T15:01:47.999Z</time></trkpt><trkpt lat="34.37901835942492" lon="-4.958814421514269"><ele>210.66666666666669</ele><time>2026-04-28T15:01:48.999Z</time></trkpt><trkpt lat="34.37884432318262" lon="-4.958674215218618"><ele>211.33333333333334</ele><time>2026-04-28T15:01:49.999Z</time></trkpt><trkpt lat="34.37866051773081" lon="-4.958533881664624"><ele>212.0</ele><time>2026-04-28T15:01:50.999Z</time></trkpt><trkpt lat="34.37847409937526" lon="-4.958394271103625"><ele>211.66666666666669</ele><time>2026-04-28T15:01:51.999Z</time></trkpt><trkpt lat="34.378286365050855" lon="-4.95825905974499"><ele>211.33333333333331</ele><time>2026-04-28T15:01:52.999Z</time></trkpt><trkpt lat="34.378101081118814" lon="-4.958126897388163"><ele>211.0</ele><time>2026-04-28T15:01:53.999Z</time></trkpt><trkpt lat="34.37791802517821" lon="-4.9579914126788305"><ele>211.0</ele><time>2026-04-28T15:01:54.999Z</time></trkpt><trkpt lat="34.377735660720894" lon="-4.957852648410244"><ele>211.0</ele><time>2026-04-28T15:01:55.999Z</time></trkpt><trkpt lat="34.37755336054799" lon="-4.9577117769021335"><ele>211.0</ele><time>2026-04-28T15:01:56.999Z</time></trkpt><trkpt lat="34.377367603028006" lon="-4.957576614899678"><ele>211.33333333333331</ele><time>2026-04-28T15:01:57.999Z</time></trkpt><trkpt lat="34.377190269604604" lon="-4.957444415790355"><ele>211.66666666666669</ele><time>2026-04-28T15:01:58.999Z</time></trkpt><trkpt lat="34.37702845724208" lon="-4.95732467870965"><ele>212.0</ele><time>2026-04-28T15:01:59.999Z</time></trkpt><trkpt lat="34.37686601610048" lon="-4.957232361022071"><ele>215.66666666666669</ele><time>2026-04-28T15:02:00.999Z</time></trkpt><trkpt lat="34.37669347585313" lon="-4.957164560574779"><ele>219.33333333333331</ele><time>2026-04-28T15:02:01.999Z</time></trkpt><trkpt lat="34.37650649235939" lon="-4.957118822809607"><ele>223.0</ele><time>2026-04-28T15:02:02.999Z</time></trkpt><trkpt lat="34.376314191683505" lon="-4.957085908416978"><ele>224.0</ele><time>2026-04-28T15:02:03.999Z</time></trkpt><trkpt lat="34.37611631770223" lon="-4.957060837547267"><ele>225.0</ele><time>2026-04-28T15:02:04.999Z</time></trkpt><trkpt lat="34.37591136816096" lon="-4.957048171146396"><ele>226.0</ele><time>2026-04-28T15:02:05.999Z</time></trkpt><trkpt lat="34.3757048563036" lon="-4.957057710136423"><ele>226.0</ele><time>2026-04-28T15:02:06.999Z</time></trkpt><trkpt lat="34.37549378576023" lon="-4.95707539501031"><ele>226.0</ele><time>2026-04-28T15:02:07.999Z</time></trkpt><trkpt lat="34.37528250671621" lon="-4.957112322173575"><ele>226.0</ele><time>2026-04-28T15:02:08.999Z</time></trkpt><trkpt lat="34.375069199301386" lon="-4.95716532907401"><ele>226.0</ele><time>2026-04-28T15:02:09.999Z</time></trkpt><trkpt lat="34.374857430011076" lon="-4.9572282816284154"><ele>226.0</ele><time>2026-04-28T15:02:10.999Z</time></trkpt><trkpt lat="34.37464305634456" lon="-4.957296511262184"><ele>226.0</ele><time>2026-04-28T15:02:11.999Z</time></trkpt><trkpt lat="34.37443966879523" lon="-4.957370659094491"><ele>225.33333333333331</ele><time>2026-04-28T15:02:12.999Z</time></trkpt><trkpt lat="34.37425166621643" lon="-4.957440010932695"><ele>224.66666666666669</ele><time>2026-04-28T15:02:13.999Z</time></trkpt><trkpt lat="34.37407248027332" lon="-4.957510779176407"><ele>224.0</ele><time>2026-04-28T15:02:14.999Z</time></trkpt><trkpt lat="34.37390143387695" lon="-4.957566283001729"><ele>227.66666666666669</ele><time>2026-04-28T15:02:15.999Z</time></trkpt><trkpt lat="34.37373186614448" lon="-4.957618558757101"><ele>231.33333333333331</ele><time>2026-04-28T15:02:16.999Z</time></trkpt><trkpt lat="34.373576616288226" lon="-4.957673398812034"><ele>235.0</ele><time>2026-04-28T15:02:17.999Z</time></trkpt><trkpt lat="34.373426924210435" lon="-4.957724616261161"><ele>235.0</ele><time>2026-04-28T15:02:18.999Z</time></trkpt><trkpt lat="34.3732730234099" lon="-4.957752957046584"><ele>235.0</ele><time>2026-04-28T15:02:19.999Z</time></trkpt><trkpt lat="34.37311547146854" lon="-4.957748493556035"><ele>235.0</ele><time>2026-04-28T15:02:20.999Z</time></trkpt><trkpt lat="34.37295576476253" lon="-4.9577071590463895"><ele>233.0</ele><time>2026-04-28T15:02:21.999Z</time></trkpt><trkpt lat="34.37280171433168" lon="-4.9576287190995085"><ele>231.0</ele><time>2026-04-28T15:02:22.999Z</time></trkpt><trkpt lat="34.372647355713525" lon="-4.957520053442743"><ele>229.0</ele><time>2026-04-28T15:02:23.999Z</time></trkpt><trkpt lat="34.37249966127917" lon="-4.9573975068260046"><ele>226.33333333333331</ele><time>2026-04-28T15:02:24.999Z</time></trkpt><trkpt lat="34.37238069749242" lon="-4.957245858923797"><ele>223.66666666666669</ele><time>2026-04-28T15:02:25.999Z</time></trkpt><trkpt lat="34.37229147618919" lon="-4.957067360839135"><ele>221.0</ele><time>2026-04-28T15:02:26.999Z</time></trkpt><trkpt lat="34.37222300697157" lon="-4.95687095997294"><ele>228.0</ele><time>2026-04-28T15:02:27.999Z</time></trkpt><trkpt lat="34.37216105583588" lon="-4.9566622488911944"><ele>235.0</ele><time>2026-04-28T15:02:28.999Z</time></trkpt><trkpt lat="34.3720882908796" lon="-4.95645358598749"><ele>242.0</ele><time>2026-04-28T15:02:29.999Z</time></trkpt><trkpt lat="34.372011174961756" lon="-4.956256622759595"><ele>242.0</ele><time>2026-04-28T15:02:30.999Z</time></trkpt><trkpt lat="34.3719388218791" lon="-4.956070509082185"><ele>242.0</ele><time>2026-04-28T15:02:31.999Z</time></trkpt><trkpt lat="34.371874180130796" lon="-4.955900711884249"><ele>242.0</ele><time>2026-04-28T15:02:32.999Z</time></trkpt><trkpt lat="34.3718142329463" lon="-4.955751049726069"><ele>241.5</ele><time>2026-04-28T15:02:33.999Z</time></trkpt><trkpt lat="34.37174763001408" lon="-4.955618169929226"><ele>241.0</ele><time>2026-04-28T15:02:34.999Z</time></trkpt><trkpt lat="34.37166866733261" lon="-4.955521189450488"><ele>240.5</ele><time>2026-04-28T15:02:35.999Z</time></trkpt><trkpt lat="34.37158757087216" lon="-4.955439537307414"><ele>240.0</ele><time>2026-04-28T15:02:36.999Z</time></trkpt><trkpt lat="34.37149101874004" lon="-4.955364456725012"><ele>240.0</ele><time>2026-04-28T15:02:37.999Z</time></trkpt><trkpt lat="34.371382080483265" lon="-4.955296084791517"><ele>240.0</ele><time>2026-04-28T15:02:38.999Z</time></trkpt><trkpt lat="34.37126299821597" lon="-4.955244680279198"><ele>240.0</ele><time>2026-04-28T15:02:39.999Z</time></trkpt><trkpt lat="34.37114412345818" lon="-4.955209529578031"><ele>240.0</ele><time>2026-04-28T15:02:40.999Z</time></trkpt><trkpt lat="34.371030194899284" lon="-4.955199756224163"><ele>244.5</ele><time>2026-04-28T15:02:41.999Z</time></trkpt><trkpt lat="34.37092442235648" lon="-4.955199190705456"><ele>249.0</ele><time>2026-04-28T15:02:42.999Z</time></trkpt><trkpt lat="34.370812364277974" lon="-4.955197810896599"><ele>253.5</ele><time>2026-04-28T15:02:43.999Z</time></trkpt><trkpt lat="34.37070286500871" lon="-4.955285810794305"><ele>258.0</ele><time>2026-04-28T15:02:44.999Z</time></trkpt><trkpt lat="34.370569063681984" lon="-4.95531940562583"><ele>261.0</ele><time>2026-04-28T15:02:45.999Z</time></trkpt><trkpt lat="34.37042522067859" lon="-4.955356467779396"><ele>264.0</ele><time>2026-04-28T15:02:46.999Z</time></trkpt><trkpt lat="34.37027907387487" lon="-4.955394123529208"><ele>267.0</ele><time>2026-04-28T15:02:47.999Z</time></trkpt><trkpt lat="34.37012369135874" lon="-4.955434158921342"><ele>267.0</ele><time>2026-04-28T15:02:48.999Z</time></trkpt><trkpt lat="34.3699600661978" lon="-4.955460944920983"><ele>267.0</ele><time>2026-04-28T15:02:49.999Z</time></trkpt><trkpt lat="34.369791967327956" lon="-4.9554771784949905"><ele>267.0</ele><time>2026-04-28T15:02:50.999Z</time></trkpt><trkpt lat="34.369618603389796" lon="-4.955461349994523"><ele>267.3333333333333</ele><time>2026-04-28T15:02:51.999Z</time></trkpt><trkpt lat="34.36946089163275" lon="-4.955454755380151"><ele>267.66666666666663</ele><time>2026-04-28T15:02:52.999Z</time></trkpt><trkpt lat="34.369305045018116" lon="-4.955443729312246"><ele>268.0</ele><time>2026-04-28T15:02:53.999Z</time></trkpt><trkpt lat="34.36915051649939" lon="-4.955455325097995"><ele>268.0</ele><time>2026-04-28T15:02:54.999Z</time></trkpt><trkpt lat="34.368997924470136" lon="-4.955444046595287"><ele>268.0</ele><time>2026-04-28T15:02:55.999Z</time></trkpt><trkpt lat="34.36884881947662" lon="-4.955427002614304"><ele>268.0</ele><time>2026-04-28T15:02:56.999Z</time></trkpt><trkpt lat="34.36870758449386" lon="-4.955410858244633"><ele>268.0</ele><time>2026-04-28T15:02:57.999Z</time></trkpt><trkpt lat="34.36858366463008" lon="-4.955385086264661"><ele>268.0</ele><time>2026-04-28T15:02:58.999Z</time></trkpt><trkpt lat="34.368467601644916" lon="-4.9553775076926545"><ele>268.0</ele><time>2026-04-28T15:02:59.999Z</time></trkpt><trkpt lat="34.36835001135944" lon="-4.955369629014981"><ele>268.0</ele><time>2026-04-28T15:03:00.999Z</time></trkpt><trkpt lat="34.368217031659356" lon="-4.955348792077609"><ele>268.0</ele><time>2026-04-28T15:03:01.999Z</time></trkpt><trkpt lat="34.36808753307762" lon="-4.95534290169237"><ele>267.3333333333333</ele><time>2026-04-28T15:03:02.999Z</time></trkpt><trkpt lat="34.36796358737964" lon="-4.955256448692976"><ele>266.6666666666667</ele><time>2026-04-28T15:03:03.999Z</time></trkpt><trkpt lat="34.367814356378126" lon="-4.95521447489261"><ele>266.0</ele><time>2026-04-28T15:03:04.999Z</time></trkpt><trkpt lat="34.36765341484532" lon="-4.955199364900327"><ele>266.0</ele><time>2026-04-28T15:03:05.999Z</time></trkpt><trkpt lat="34.36749472504457" lon="-4.955195850882991"><ele>266.0</ele><time>2026-04-28T15:03:07Z</time></trkpt><trkpt lat="34.36733596826938" lon="-4.9551977535472975"><ele>266.0</ele><time>2026-04-28T15:03:08Z</time></trkpt><trkpt lat="34.36717773427533" lon="-4.955199773371981"><ele>269.5</ele><time>2026-04-28T15:03:09Z</time></trkpt><trkpt lat="34.36702355420519" lon="-4.9552017414493665"><ele>273.0</ele><time>2026-04-28T15:03:10Z</time></trkpt><trkpt lat="34.36687199927178" lon="-4.955200435013508"><ele>276.5</ele><time>2026-04-28T15:03:11Z</time></trkpt><trkpt lat="34.366728987895456" lon="-4.955198485285574"><ele>280.0</ele><time>2026-04-28T15:03:12Z</time></trkpt><trkpt lat="34.36659793269393" lon="-4.955216837171045"><ele>280.0</ele><time>2026-04-28T15:03:13Z</time></trkpt><trkpt lat="34.366474193884805" lon="-4.95523371712743"><ele>280.0</ele><time>2026-04-28T15:03:14Z</time></trkpt><trkpt lat="34.366371559519465" lon="-4.955279836462785"><ele>280.0</ele><time>2026-04-28T15:03:15Z</time></trkpt><trkpt lat="34.36627099950967" lon="-4.955316445838926"><ele>280.0</ele><time>2026-04-28T15:03:16Z</time></trkpt><trkpt lat="34.36616449544303" lon="-4.955355019641534"><ele>281.75</ele><time>2026-04-28T15:03:17Z</time></trkpt><trkpt lat="34.36605321340238" lon="-4.955396389327317"><ele>283.5</ele><time>2026-04-28T15:03:18Z</time></trkpt><trkpt lat="34.365936039519376" lon="-4.955435792935989"><ele>285.25</ele><time>2026-04-28T15:03:19Z</time></trkpt><trkpt lat="34.36581867763725" lon="-4.955473958170984"><ele>287.0</ele><time>2026-04-28T15:03:20Z</time></trkpt><trkpt lat="34.365703954358274" lon="-4.955508967976869"><ele>287.0</ele><time>2026-04-28T15:03:21Z</time></trkpt><trkpt lat="34.36558724514682" lon="-4.955530675684948"><ele>287.0</ele><time>2026-04-28T15:03:22Z</time></trkpt><trkpt lat="34.36545579514827" lon="-4.955535272208307"><ele>287.0</ele><time>2026-04-28T15:03:23Z</time></trkpt><trkpt lat="34.36531072548778" lon="-4.95552795889115"><ele>287.0</ele><time>2026-04-28T15:03:24Z</time></trkpt><trkpt lat="34.36515146841733" lon="-4.955507361306143"><ele>285.33333333333337</ele><time>2026-04-28T15:03:25Z</time></trkpt><trkpt lat="34.36498279164028" lon="-4.955488116738503"><ele>283.6666666666667</ele><time>2026-04-28T15:03:26Z</time></trkpt><trkpt lat="34.36480584360616" lon="-4.955475483712773"><ele>282.0</ele><time>2026-04-28T15:03:27Z</time></trkpt><trkpt lat="34.36462031129169" lon="-4.955447898861445"><ele>280.6666666666667</ele><time>2026-04-28T15:03:28Z</time></trkpt><trkpt lat="34.36443262964171" lon="-4.9554297358056925"><ele>279.33333333333337</ele><time>2026-04-28T15:03:29Z</time></trkpt><trkpt lat="34.36424236089615" lon="-4.955408585607282"><ele>278.0</ele><time>2026-04-28T15:03:30Z</time></trkpt><trkpt lat="34.36405739198002" lon="-4.955386458458572"><ele>278.0</ele><time>2026-04-28T15:03:31Z</time></trkpt><trkpt lat="34.363875176934556" lon="-4.955364335703908"><ele>278.0</ele><time>2026-04-28T15:03:32Z</time></trkpt><trkpt lat="34.36369367238402" lon="-4.955340196560043"><ele>278.0</ele><time>2026-04-28T15:03:33Z</time></trkpt><trkpt lat="34.36351169540438" lon="-4.955311433340926"><ele>277.6666666666667</ele><time>2026-04-28T15:03:34Z</time></trkpt><trkpt lat="34.36333102800115" lon="-4.955281617129201"><ele>277.3333333333333</ele><time>2026-04-28T15:03:34.999Z</time></trkpt><trkpt lat="34.36315295712451" lon="-4.955259014945966"><ele>277.0</ele><time>2026-04-28T15:03:35.999Z</time></trkpt><trkpt lat="34.36297336415656" lon="-4.955237518074738"><ele>275.66666666666663</ele><time>2026-04-28T15:03:36.999Z</time></trkpt><trkpt lat="34.36279076989239" lon="-4.955217431862736"><ele>274.3333333333333</ele><time>2026-04-28T15:03:37.999Z</time></trkpt><trkpt lat="34.36260898373955" lon="-4.955195822630107"><ele>273.0</ele><time>2026-04-28T15:03:38.999Z</time></trkpt><trkpt lat="34.36243318461428" lon="-4.95517536843579"><ele>273.0</ele><time>2026-04-28T15:03:39.999Z</time></trkpt><trkpt lat="34.362264445413324" lon="-4.95515456377225"><ele>273.0</ele><time>2026-04-28T15:03:40.999Z</time></trkpt><trkpt lat="34.36209517475006" lon="-4.9551312199152875"><ele>273.0</ele><time>2026-04-28T15:03:41.999Z</time></trkpt><trkpt lat="34.361925279286716" lon="-4.955101675156072"><ele>274.6666666666667</ele><time>2026-04-28T15:03:42.999Z</time></trkpt><trkpt lat="34.36175354627575" lon="-4.955072756574725"><ele>276.33333333333337</ele><time>2026-04-28T15:03:43.999Z</time></trkpt><trkpt lat="34.361572937517124" lon="-4.955051450603865"><ele>278.0</ele><time>2026-04-28T15:03:44.999Z</time></trkpt><trkpt lat="34.36138142628213" lon="-4.9550400659534395"><ele>275.6666666666667</ele><time>2026-04-28T15:03:45.999Z</time></trkpt><trkpt lat="34.36119252826988" lon="-4.955023121660408"><ele>273.3333333333333</ele><time>2026-04-28T15:03:46.999Z</time></trkpt><trkpt lat="34.360999072119476" lon="-4.95500263050929"><ele>271.0</ele><time>2026-04-28T15:03:47.999Z</time></trkpt><trkpt lat="34.36079988367857" lon="-4.95498684935414"><ele>271.0</ele><time>2026-04-28T15:03:48.999Z</time></trkpt><trkpt lat="34.36061523658233" lon="-4.954967083960994"><ele>271.0</ele><time>2026-04-28T15:03:49.999Z</time></trkpt><trkpt lat="34.36043812395094" lon="-4.954935887295777"><ele>271.0</ele><time>2026-04-28T15:03:50.999Z</time></trkpt><trkpt lat="34.360256712811726" lon="-4.954886353940231"><ele>270.3333333333333</ele><time>2026-04-28T15:03:51.999Z</time></trkpt><trkpt lat="34.36006981527991" lon="-4.954829368167501"><ele>269.6666666666667</ele><time>2026-04-28T15:03:52.999Z</time></trkpt><trkpt lat="34.35988372227534" lon="-4.954769097262296"><ele>269.0</ele><time>2026-04-28T15:03:53.999Z</time></trkpt><trkpt lat="34.35969226181536" lon="-4.954707401709302"><ele>268.0</ele><time>2026-04-28T15:03:54.999Z</time></trkpt><trkpt lat="34.35950094215193" lon="-4.954654841716342"><ele>267.0</ele><time>2026-04-28T15:03:55.999Z</time></trkpt><trkpt lat="34.359317851653834" lon="-4.954644413240985"><ele>266.0</ele><time>2026-04-28T15:03:56.999Z</time></trkpt><trkpt lat="34.35914619853501" lon="-4.954663957952334"><ele>266.0</ele><time>2026-04-28T15:03:57.999Z</time></trkpt><trkpt lat="34.358973121543066" lon="-4.9547034821150975"><ele>266.0</ele><time>2026-04-28T15:03:58.999Z</time></trkpt><trkpt lat="34.35879409700794" lon="-4.954748466997952"><ele>266.0</ele><time>2026-04-28T15:03:59.999Z</time></trkpt><trkpt lat="34.35861408062589" lon="-4.954796731480806"><ele>265.33333333333337</ele><time>2026-04-28T15:04:00.999Z</time></trkpt><trkpt lat="34.3584302368312" lon="-4.954838559692967"><ele>264.6666666666667</ele><time>2026-04-28T15:04:01.999Z</time></trkpt><trkpt lat="34.35824015394175" lon="-4.9548528305309"><ele>264.0</ele><time>2026-04-28T15:04:02.999Z</time></trkpt><trkpt lat="34.358050828194656" lon="-4.9548431249687095"><ele>262.3333333333333</ele><time>2026-04-28T15:04:03.999Z</time></trkpt><trkpt lat="34.357863404928025" lon="-4.954833565249896"><ele>260.66666666666663</ele><time>2026-04-28T15:04:04.999Z</time></trkpt><trkpt lat="34.35767670493586" lon="-4.9548244157336"><ele>259.0</ele><time>2026-04-28T15:04:05.999Z</time></trkpt><trkpt lat="34.357486670579654" lon="-4.954809616425533"><ele>259.0</ele><time>2026-04-28T15:04:06.999Z</time></trkpt><trkpt lat="34.357296154730165" lon="-4.954857607399761"><ele>259.0</ele><time>2026-04-28T15:04:07.999Z</time></trkpt><trkpt lat="34.357118495297016" lon="-4.954956995206988"><ele>259.0</ele><time>2026-04-28T15:04:08.999Z</time></trkpt><trkpt lat="34.356930423302316" lon="-4.955049507118031"><ele>263.3333333333333</ele><time>2026-04-28T15:04:09.999Z</time></trkpt><trkpt lat="34.35673922436456" lon="-4.95511830848294"><ele>267.6666666666667</ele><time>2026-04-28T15:04:10.999Z</time></trkpt><trkpt lat="34.35655236017418" lon="-4.955190006583542"><ele>272.0</ele><time>2026-04-28T15:04:11.999Z</time></trkpt><trkpt lat="34.356358753011364" lon="-4.955252522795205"><ele>272.6666666666667</ele><time>2026-04-28T15:04:12.999Z</time></trkpt><trkpt lat="34.356168237010884" lon="-4.955300348298928"><ele>273.3333333333333</ele><time>2026-04-28T15:04:13.999Z</time></trkpt><trkpt lat="34.355972146082685" lon="-4.955333878684109"><ele>274.0</ele><time>2026-04-28T15:04:14.999Z</time></trkpt><trkpt lat="34.355771092706405" lon="-4.9553597216247525"><ele>274.0</ele><time>2026-04-28T15:04:15.999Z</time></trkpt><trkpt lat="34.35557472077918" lon="-4.955384539063086"><ele>274.0</ele><time>2026-04-28T15:04:16.999Z</time></trkpt><trkpt lat="34.35538727891548" lon="-4.955439655244812"><ele>274.0</ele><time>2026-04-28T15:04:17.999Z</time></trkpt><trkpt lat="34.35519881290314" lon="-4.955477763640726"><ele>272.66666666666663</ele><time>2026-04-28T15:04:18.999Z</time></trkpt><trkpt lat="34.355017381565744" lon="-4.955513708738026"><ele>271.3333333333333</ele><time>2026-04-28T15:04:19.999Z</time></trkpt><trkpt lat="34.35483664601005" lon="-4.955549604121518"><ele>270.0</ele><time>2026-04-28T15:04:20.999Z</time></trkpt><trkpt lat="34.35465682319807" lon="-4.955584018273669"><ele>268.3333333333333</ele><time>2026-04-28T15:04:21.999Z</time></trkpt><trkpt lat="34.35447046611696" lon="-4.955611085807422"><ele>266.66666666666663</ele><time>2026-04-28T15:04:22.999Z</time></trkpt><trkpt lat="34.354282880938676" lon="-4.955623614796085"><ele>265.0</ele><time>2026-04-28T15:04:23.999Z</time></trkpt><trkpt lat="34.354091866233425" lon="-4.955648953857991"><ele>265.0</ele><time>2026-04-28T15:04:24.999Z</time></trkpt><trkpt lat="34.35390759908253" lon="-4.955691296533044"><ele>265.0</ele><time>2026-04-28T15:04:25.999Z</time></trkpt><trkpt lat="34.35372673428782" lon="-4.955692621119386"><ele>265.0</ele><time>2026-04-28T15:04:26.999Z</time></trkpt><trkpt lat="34.35354350892993" lon="-4.955701561827295"><ele>265.0</ele><time>2026-04-28T15:04:27.999Z</time></trkpt><trkpt lat="34.35335269555245" lon="-4.955665356319679"><ele>265.0</ele><time>2026-04-28T15:04:28.999Z</time></trkpt><trkpt lat="34.35315856329445" lon="-4.955594036282715"><ele>265.0</ele><time>2026-04-28T15:04:29.999Z</time></trkpt><trkpt lat="34.352959726724805" lon="-4.95550800918896"><ele>265.0</ele><time>2026-04-28T15:04:30.999Z</time></trkpt><trkpt lat="34.3527589903083" lon="-4.955419071020097"><ele>265.0</ele><time>2026-04-28T15:04:31.999Z</time></trkpt><trkpt lat="34.35255115505121" lon="-4.955343919350522"><ele>265.0</ele><time>2026-04-28T15:04:32.999Z</time></trkpt><trkpt lat="34.35233772502149" lon="-4.955277098140514"><ele>264.3333333333333</ele><time>2026-04-28T15:04:33.999Z</time></trkpt><trkpt lat="34.35212648367867" lon="-4.955211817557944"><ele>263.6666666666667</ele><time>2026-04-28T15:04:34.999Z</time></trkpt><trkpt lat="34.351909662643074" lon="-4.955147083315395"><ele>263.0</ele><time>2026-04-28T15:04:35.999Z</time></trkpt><trkpt lat="34.35169425216371" lon="-4.955086697556228"><ele>255.0</ele><time>2026-04-28T15:04:36.999Z</time></trkpt><trkpt lat="34.35147771756339" lon="-4.955028787756756"><ele>247.0</ele><time>2026-04-28T15:04:37.999Z</time></trkpt><trkpt lat="34.35125834636597" lon="-4.954998092381078"><ele>239.0</ele><time>2026-04-28T15:04:38.999Z</time></trkpt><trkpt lat="34.35104136695736" lon="-4.954972495036174"><ele>238.33333333333334</ele><time>2026-04-28T15:04:39.999Z</time></trkpt><trkpt lat="34.35082619854074" lon="-4.9549561335005"><ele>237.66666666666669</ele><time>2026-04-28T15:04:40.999Z</time></trkpt><trkpt lat="34.350609599833646" lon="-4.954943709736937"><ele>237.0</ele><time>2026-04-28T15:04:41.999Z</time></trkpt><trkpt lat="34.35039266786337" lon="-4.954931341397471"><ele>235.66666666666669</ele><time>2026-04-28T15:04:42.999Z</time></trkpt><trkpt lat="34.35017893752347" lon="-4.954907009041107"><ele>234.33333333333334</ele><time>2026-04-28T15:04:43.999Z</time></trkpt><trkpt lat="34.34996916511407" lon="-4.954870466057635"><ele>233.0</ele><time>2026-04-28T15:04:44.999Z</time></trkpt><trkpt lat="34.349759417733274" lon="-4.95482781987182"><ele>231.0</ele><time>2026-04-28T15:04:45.999Z</time></trkpt><trkpt lat="34.3495492169731" lon="-4.954790779304987"><ele>229.0</ele><time>2026-04-28T15:04:46.999Z</time></trkpt><trkpt lat="34.34933991521149" lon="-4.9547630412165375"><ele>227.0</ele><time>2026-04-28T15:04:47.999Z</time></trkpt><trkpt lat="34.34912748754637" lon="-4.954736884113055"><ele>227.0</ele><time>2026-04-28T15:04:48.999Z</time></trkpt><trkpt lat="34.348915819882066" lon="-4.9547078841799355"><ele>227.0</ele><time>2026-04-28T15:04:49.999Z</time></trkpt><trkpt lat="34.34870254557594" lon="-4.954680161427116"><ele>227.0</ele><time>2026-04-28T15:04:50.999Z</time></trkpt><trkpt lat="34.348484175236294" lon="-4.954677363693335"><ele>226.66666666666669</ele><time>2026-04-28T15:04:51.999Z</time></trkpt><trkpt lat="34.348272618813624" lon="-4.954690934147883"><ele>226.33333333333331</ele><time>2026-04-28T15:04:52.999Z</time></trkpt><trkpt lat="34.34806285359863" lon="-4.954737099428941"><ele>226.0</ele><time>2026-04-28T15:04:53.999Z</time></trkpt><trkpt lat="34.34786409894259" lon="-4.954821244244989"><ele>226.0</ele><time>2026-04-28T15:04:54.999Z</time></trkpt><trkpt lat="34.34767185088159" lon="-4.954928435968664"><ele>226.0</ele><time>2026-04-28T15:04:55.999Z</time></trkpt><trkpt lat="34.34748836887086" lon="-4.955039016155497"><ele>226.0</ele><time>2026-04-28T15:04:56.999Z</time></trkpt><trkpt lat="34.3473177795907" lon="-4.955136345909356"><ele>224.0</ele><time>2026-04-28T15:04:57.999Z</time></trkpt><trkpt lat="34.347158416728846" lon="-4.955220215011338"><ele>222.0</ele><time>2026-04-28T15:04:58.999Z</time></trkpt><trkpt lat="34.347004565271604" lon="-4.955277298632734"><ele>220.0</ele><time>2026-04-28T15:04:59.999Z</time></trkpt><trkpt lat="34.34684199921081" lon="-4.955308046428695"><ele>220.0</ele><time>2026-04-28T15:05:00.999Z</time></trkpt><trkpt lat="34.34666227447372" lon="-4.9553251089808805"><ele>220.0</ele><time>2026-04-28T15:05:01.999Z</time></trkpt><trkpt lat="34.346483015384045" lon="-4.95534364078733"><ele>220.0</ele><time>2026-04-28T15:05:02.999Z</time></trkpt><trkpt lat="34.3462953619161" lon="-4.955377771824522"><ele>218.66666666666666</ele><time>2026-04-28T15:05:03.999Z</time></trkpt><trkpt lat="34.346099165114985" lon="-4.9554088138549535"><ele>217.33333333333331</ele><time>2026-04-28T15:05:04.999Z</time></trkpt><trkpt lat="34.345901698820114" lon="-4.955428839716106"><ele>216.0</ele><time>2026-04-28T15:05:05.999Z</time></trkpt><trkpt lat="34.34569568284398" lon="-4.955446949132861"><ele>215.0</ele><time>2026-04-28T15:05:06.999Z</time></trkpt><trkpt lat="34.345484844701296" lon="-4.955471061839603"><ele>214.0</ele><time>2026-04-28T15:05:07.999Z</time></trkpt><trkpt lat="34.34527017868562" lon="-4.9554981439350305"><ele>213.0</ele><time>2026-04-28T15:05:08.999Z</time></trkpt><trkpt lat="34.345068412066645" lon="-4.955516624427771"><ele>213.0</ele><time>2026-04-28T15:05:09.999Z</time></trkpt><trkpt lat="34.34486182180605" lon="-4.955531745958798"><ele>213.0</ele><time>2026-04-28T15:05:10.999Z</time></trkpt><trkpt lat="34.344660945284154" lon="-4.955550110294658"><ele>213.0</ele><time>2026-04-28T15:05:11.999Z</time></trkpt><trkpt lat="34.34446075984303" lon="-4.955573132217927"><ele>212.66666666666669</ele><time>2026-04-28T15:05:13Z</time></trkpt><trkpt lat="34.34426523134166" lon="-4.95559571553467"><ele>212.33333333333334</ele><time>2026-04-28T15:05:14Z</time></trkpt><trkpt lat="34.34407842282018" lon="-4.955619100832378"><ele>212.0</ele><time>2026-04-28T15:05:15Z</time></trkpt><trkpt lat="34.343885411804735" lon="-4.955640459680484"><ele>210.66666666666669</ele><time>2026-04-28T15:05:16Z</time></trkpt><trkpt lat="34.3436898514747" lon="-4.955667174566919"><ele>209.33333333333331</ele><time>2026-04-28T15:05:17Z</time></trkpt><trkpt lat="34.34349264295821" lon="-4.9557128908098615"><ele>208.0</ele><time>2026-04-28T15:05:18Z</time></trkpt><trkpt lat="34.34329445872548" lon="-4.9557864456711105"><ele>208.0</ele><time>2026-04-28T15:05:19Z</time></trkpt><trkpt lat="34.34309266048683" lon="-4.955865998081756"><ele>208.0</ele><time>2026-04-28T15:05:20Z</time></trkpt><trkpt lat="34.34288422509795" lon="-4.955945948098347"><ele>208.0</ele><time>2026-04-28T15:05:21Z</time></trkpt><trkpt lat="34.342678815121936" lon="-4.956025589312837"><ele>208.0</ele><time>2026-04-28T15:05:22Z</time></trkpt><trkpt lat="34.342474303917186" lon="-4.956106317767652"><ele>208.0</ele><time>2026-04-28T15:05:23Z</time></trkpt><trkpt lat="34.34226874126423" lon="-4.956182911443627"><ele>208.0</ele><time>2026-04-28T15:05:24Z</time></trkpt><trkpt lat="34.342063800723345" lon="-4.95625300101768"><ele>208.0</ele><time>2026-04-28T15:05:25Z</time></trkpt><trkpt lat="34.341860976943764" lon="-4.95632509911174"><ele>208.0</ele><time>2026-04-28T15:05:26Z</time></trkpt><trkpt lat="34.34167247976024" lon="-4.956394020424556"><ele>208.0</ele><time>2026-04-28T15:05:27Z</time></trkpt><trkpt lat="34.34149822108308" lon="-4.956463677580564"><ele>206.66666666666666</ele><time>2026-04-28T15:05:28Z</time></trkpt><trkpt lat="34.34134380894766" lon="-4.956539415624085"><ele>205.33333333333331</ele><time>2026-04-28T15:05:29Z</time></trkpt><trkpt lat="34.341213395085816" lon="-4.956635869023349"><ele>204.0</ele><time>2026-04-28T15:05:30Z</time></trkpt><trkpt lat="34.34109935787577" lon="-4.95675726304561"><ele>204.0</ele><time>2026-04-28T15:05:31Z</time></trkpt><trkpt lat="34.34098658827241" lon="-4.956908397952654"><ele>204.0</ele><time>2026-04-28T15:05:32Z</time></trkpt><trkpt lat="34.340873563942864" lon="-4.957067373075853"><ele>204.0</ele><time>2026-04-28T15:05:33Z</time></trkpt><trkpt lat="34.340761530322744" lon="-4.957193465343318"><ele>204.0</ele><time>2026-04-28T15:05:34Z</time></trkpt><trkpt lat="34.34064131423802" lon="-4.957295286820397"><ele>204.0</ele><time>2026-04-28T15:05:35Z</time></trkpt><trkpt lat="34.34051649920876" lon="-4.95738433891089"><ele>204.0</ele><time>2026-04-28T15:05:36Z</time></trkpt><trkpt lat="34.34038513811128" lon="-4.957480657478972"><ele>204.0</ele><time>2026-04-28T15:05:37Z</time></trkpt><trkpt lat="34.340250208078004" lon="-4.957586686583544"><ele>200.0</ele><time>2026-04-28T15:05:38Z</time></trkpt><trkpt lat="34.34010434217691" lon="-4.957697977907533"><ele>196.0</ele><time>2026-04-28T15:05:39Z</time></trkpt><trkpt lat="34.33994508706875" lon="-4.957797072335845"><ele>192.0</ele><time>2026-04-28T15:05:40Z</time></trkpt><trkpt lat="34.33978905370116" lon="-4.957883472375838"><ele>192.66666666666669</ele><time>2026-04-28T15:05:41Z</time></trkpt><trkpt lat="34.33964217889338" lon="-4.957958819215934"><ele>193.33333333333334</ele><time>2026-04-28T15:05:41.999Z</time></trkpt><trkpt lat="34.33950502124677" lon="-4.958031906853277"><ele>194.0</ele><time>2026-04-28T15:05:42.999Z</time></trkpt><trkpt lat="34.33937642583414" lon="-4.9581175062533225"><ele>194.0</ele><time>2026-04-28T15:05:43.999Z</time></trkpt><trkpt lat="34.33925985529124" lon="-4.9581988799665675"><ele>194.0</ele><time>2026-04-28T15:05:44.999Z</time></trkpt><trkpt lat="34.339135574105164" lon="-4.958269995725704"><ele>194.0</ele><time>2026-04-28T15:05:45.999Z</time></trkpt><trkpt lat="34.33900588830737" lon="-4.958336239656157"><ele>194.0</ele><time>2026-04-28T15:05:46.999Z</time></trkpt><trkpt lat="34.33888529078283" lon="-4.958392853734023"><ele>192.5</ele><time>2026-04-28T15:05:47.999Z</time></trkpt><trkpt lat="34.33876518263328" lon="-4.958456767066466"><ele>191.0</ele><time>2026-04-28T15:05:48.999Z</time></trkpt><trkpt lat="34.33864055378966" lon="-4.958534275436278"><ele>189.5</ele><time>2026-04-28T15:05:49.999Z</time></trkpt><trkpt lat="34.33849353534676" lon="-4.958604601999815"><ele>188.0</ele><time>2026-04-28T15:05:50.999Z</time></trkpt><trkpt lat="34.338333035107475" lon="-4.9586561021041735"><ele>188.0</ele><time>2026-04-28T15:05:51.999Z</time></trkpt><trkpt lat="34.33817979391782" lon="-4.958688301209207"><ele>188.0</ele><time>2026-04-28T15:05:52.999Z</time></trkpt><trkpt lat="34.338033065911674" lon="-4.9587121907914575"><ele>188.0</ele><time>2026-04-28T15:05:53.999Z</time></trkpt><trkpt lat="34.33791024790551" lon="-4.958736266625108"><ele>188.0</ele><time>2026-04-28T15:05:54.999Z</time></trkpt><trkpt lat="34.33778918381563" lon="-4.9587575939795805"><ele>187.25</ele><time>2026-04-28T15:05:55.999Z</time></trkpt><trkpt lat="34.337675065814366" lon="-4.958757561590099"><ele>186.5</ele><time>2026-04-28T15:05:56.999Z</time></trkpt><trkpt lat="34.33755433192583" lon="-4.958737317142951"><ele>185.75</ele><time>2026-04-28T15:05:57.999Z</time></trkpt><trkpt lat="34.337424703000934" lon="-4.958689865763246"><ele>185.0</ele><time>2026-04-28T15:05:58.999Z</time></trkpt><trkpt lat="34.33727990687606" lon="-4.958608667866303"><ele>184.33333333333331</ele><time>2026-04-28T15:05:59.999Z</time></trkpt><trkpt lat="34.33712483506509" lon="-4.958506360145906"><ele>183.66666666666666</ele><time>2026-04-28T15:06:00.999Z</time></trkpt><trkpt lat="34.336955630400716" lon="-4.958393936318505"><ele>183.0</ele><time>2026-04-28T15:06:01.999Z</time></trkpt><trkpt lat="34.336776768061526" lon="-4.958283627916784"><ele>183.66666666666666</ele><time>2026-04-28T15:06:02.999Z</time></trkpt><trkpt lat="34.33658270298638" lon="-4.95818763289686"><ele>184.33333333333331</ele><time>2026-04-28T15:06:03.999Z</time></trkpt><trkpt lat="34.336368815699394" lon="-4.95811745891211"><ele>185.0</ele><time>2026-04-28T15:06:04.999Z</time></trkpt><trkpt lat="34.33615199333613" lon="-4.958039173399647"><ele>185.0</ele><time>2026-04-28T15:06:05.999Z</time></trkpt><trkpt lat="34.33594034037449" lon="-4.957926233240826"><ele>185.0</ele><time>2026-04-28T15:06:06.999Z</time></trkpt><trkpt lat="34.33573457918735" lon="-4.957805692337858"><ele>186.0</ele><time>2026-04-28T15:06:07.999Z</time></trkpt><trkpt lat="34.3355330669872" lon="-4.9577011162883435"><ele>187.0</ele><time>2026-04-28T15:06:08.999Z</time></trkpt><trkpt lat="34.33534213512977" lon="-4.957603039019523"><ele>188.0</ele><time>2026-04-28T15:06:09.999Z</time></trkpt><trkpt lat="34.335147808870914" lon="-4.957499070654059"><ele>188.0</ele><time>2026-04-28T15:06:10.999Z</time></trkpt><trkpt lat="34.334947942751135" lon="-4.95739248141968"><ele>188.0</ele><time>2026-04-28T15:06:11.999Z</time></trkpt><trkpt lat="34.334737491141446" lon="-4.9573002040400915"><ele>188.0</ele><time>2026-04-28T15:06:12.999Z</time></trkpt><trkpt lat="34.3345071952025" lon="-4.957232758735561"><ele>184.5</ele><time>2026-04-28T15:06:13.999Z</time></trkpt><trkpt lat="34.33427059150338" lon="-4.957181574702809"><ele>181.0</ele><time>2026-04-28T15:06:14.999Z</time></trkpt><trkpt lat="34.33404574530998" lon="-4.957129781408489"><ele>179.0</ele><time>2026-04-28T15:06:15.999Z</time></trkpt><trkpt lat="34.33383359338966" lon="-4.957072010329156"><ele>177.0</ele><time>2026-04-28T15:06:16.999Z</time></trkpt><trkpt lat="34.3336282265602" lon="-4.9569924711027005"><ele>175.0</ele><time>2026-04-28T15:06:17.999Z</time></trkpt><trkpt lat="34.33341985652294" lon="-4.956892005109374"><ele>175.0</ele><time>2026-04-28T15:06:18.999Z</time></trkpt><trkpt lat="34.33321294999519" lon="-4.956786135857851"><ele>175.0</ele><time>2026-04-28T15:06:19.999Z</time></trkpt><trkpt lat="34.33299963245741" lon="-4.956708285612216"><ele>175.0</ele><time>2026-04-28T15:06:20.999Z</time></trkpt><trkpt lat="34.33277852273816" lon="-4.956648360762356"><ele>175.0</ele><time>2026-04-28T15:06:21.999Z</time></trkpt><trkpt lat="34.33256237683429" lon="-4.95658515392323"><ele>175.0</ele><time>2026-04-28T15:06:22.999Z</time></trkpt><trkpt lat="34.332350036503435" lon="-4.956525083809085"><ele>175.0</ele><time>2026-04-28T15:06:23.999Z</time></trkpt><trkpt lat="34.33213017330222" lon="-4.956466746381118"><ele>173.0</ele><time>2026-04-28T15:06:24.999Z</time></trkpt><trkpt lat="34.331907234166295" lon="-4.956415195627644"><ele>171.0</ele><time>2026-04-28T15:06:25.999Z</time></trkpt><trkpt lat="34.33168702227827" lon="-4.956376140993087"><ele>171.0</ele><time>2026-04-28T15:06:26.999Z</time></trkpt><trkpt lat="34.33147717914401" lon="-4.956345339947441"><ele>171.0</ele><time>2026-04-28T15:06:27.999Z</time></trkpt><trkpt lat="34.33127496491953" lon="-4.956305790525123"><ele>171.0</ele><time>2026-04-28T15:06:28.999Z</time></trkpt><trkpt lat="34.33107928098197" lon="-4.956251481086381"><ele>171.0</ele><time>2026-04-28T15:06:29.999Z</time></trkpt><trkpt lat="34.33088318245412" lon="-4.9561928640794655"><ele>171.0</ele><time>2026-04-28T15:06:30.999Z</time></trkpt><trkpt lat="34.330689717202034" lon="-4.956135206038497"><ele>171.0</ele><time>2026-04-28T15:06:31.999Z</time></trkpt><trkpt lat="34.330502073304096" lon="-4.956067105821085"><ele>171.33333333333334</ele><time>2026-04-28T15:06:32.999Z</time></trkpt><trkpt lat="34.330318533069025" lon="-4.9559805377577835"><ele>171.66666666666669</ele><time>2026-04-28T15:06:33.999Z</time></trkpt><trkpt lat="34.330139469739535" lon="-4.955886476254688"><ele>172.0</ele><time>2026-04-28T15:06:34.999Z</time></trkpt><trkpt lat="34.32997312348598" lon="-4.955790526582336"><ele>173.0</ele><time>2026-04-28T15:06:35.999Z</time></trkpt><trkpt lat="34.329814820668666" lon="-4.9556933722980085"><ele>174.0</ele><time>2026-04-28T15:06:36.999Z</time></trkpt><trkpt lat="34.32965722734445" lon="-4.9555911420154155"><ele>175.0</ele><time>2026-04-28T15:06:37.999Z</time></trkpt><trkpt lat="34.3295026814239" lon="-4.955476706875698"><ele>175.0</ele><time>2026-04-28T15:06:38.999Z</time></trkpt><trkpt lat="34.329353230278976" lon="-4.955345637836123"><ele>175.0</ele><time>2026-04-28T15:06:39.999Z</time></trkpt><trkpt lat="34.32922052219262" lon="-4.955204665710634"><ele>175.0</ele><time>2026-04-28T15:06:40.999Z</time></trkpt><trkpt lat="34.329098210305276" lon="-4.955071560087954"><ele>176.66666666666669</ele><time>2026-04-28T15:06:41.999Z</time></trkpt><trkpt lat="34.32898539434326" lon="-4.954938498794402"><ele>178.33333333333334</ele><time>2026-04-28T15:06:42.999Z</time></trkpt><trkpt lat="34.328887331773004" lon="-4.95479086291419"><ele>180.0</ele><time>2026-04-28T15:06:43.999Z</time></trkpt><trkpt lat="34.32881175012657" lon="-4.954625337671325"><ele>181.0</ele><time>2026-04-28T15:06:44.999Z</time></trkpt><trkpt lat="34.328752561619645" lon="-4.954445018418601"><ele>182.0</ele><time>2026-04-28T15:06:45.999Z</time></trkpt><trkpt lat="34.328715276125024" lon="-4.954255180988269"><ele>183.0</ele><time>2026-04-28T15:06:46.999Z</time></trkpt><trkpt lat="34.32869951650033" lon="-4.954050890637497"><ele>183.66666666666666</ele><time>2026-04-28T15:06:47.999Z</time></trkpt><trkpt lat="34.328700306199316" lon="-4.95383488267322"><ele>184.33333333333331</ele><time>2026-04-28T15:06:48.999Z</time></trkpt><trkpt lat="34.32869872315578" lon="-4.953612518465953"><ele>185.0</ele><time>2026-04-28T15:06:49.999Z</time></trkpt><trkpt lat="34.32870069175639" lon="-4.953387138587524"><ele>185.66666666666666</ele><time>2026-04-28T15:06:50.999Z</time></trkpt><trkpt lat="34.32870895515616" lon="-4.953173026021829"><ele>186.33333333333334</ele><time>2026-04-28T15:06:51.999Z</time></trkpt><trkpt lat="34.32872374150907" lon="-4.952981261680329"><ele>187.0</ele><time>2026-04-28T15:06:52.999Z</time></trkpt><trkpt lat="34.3287640743005" lon="-4.952804256080563"><ele>187.0</ele><time>2026-04-28T15:06:53.999Z</time></trkpt><trkpt lat="34.328844025955554" lon="-4.952639217607752"><ele>187.0</ele><time>2026-04-28T15:06:54.999Z</time></trkpt><trkpt lat="34.32894908273813" lon="-4.952490245299707"><ele>187.0</ele><time>2026-04-28T15:06:55.999Z</time></trkpt><trkpt lat="34.32904300828058" lon="-4.952349804577665"><ele>189.0</ele><time>2026-04-28T15:06:56.999Z</time></trkpt><trkpt lat="34.329114643234625" lon="-4.952202665800782"><ele>191.0</ele><time>2026-04-28T15:06:57.999Z</time></trkpt><trkpt lat="34.32914791317794" lon="-4.952051853894399"><ele>193.0</ele><time>2026-04-28T15:06:58.999Z</time></trkpt><trkpt lat="34.32912856230625" lon="-4.951906100889394"><ele>195.0</ele><time>2026-04-28T15:06:59.999Z</time></trkpt><trkpt lat="34.32907197928766" lon="-4.951772196335092"><ele>195.75</ele><time>2026-04-28T15:07:00.999Z</time></trkpt><trkpt lat="34.32898723859536" lon="-4.951648431314059"><ele>196.5</ele><time>2026-04-28T15:07:01.999Z</time></trkpt><trkpt lat="34.32889231965271" lon="-4.9515447191011495"><ele>197.25</ele><time>2026-04-28T15:07:02.999Z</time></trkpt><trkpt lat="34.32878836792081" lon="-4.951482090053956"><ele>198.0</ele><time>2026-04-28T15:07:03.999Z</time></trkpt><trkpt lat="34.32866652491697" lon="-4.951465442251053"><ele>199.25</ele><time>2026-04-28T15:07:04.999Z</time></trkpt><trkpt lat="34.32853718522702" lon="-4.951488775729678"><ele>200.5</ele><time>2026-04-28T15:07:05.999Z</time></trkpt><trkpt lat="34.32840309986787" lon="-4.951541917469979"><ele>201.75</ele><time>2026-04-28T15:07:06.999Z</time></trkpt><trkpt lat="34.32826334884519" lon="-4.951610798157221"><ele>203.0</ele><time>2026-04-28T15:07:07.999Z</time></trkpt><trkpt lat="34.3281207900355" lon="-4.95169061938912"><ele>203.5</ele><time>2026-04-28T15:07:08.999Z</time></trkpt><trkpt lat="34.32797739274887" lon="-4.951775758217848"><ele>204.0</ele><time>2026-04-28T15:07:09.999Z</time></trkpt><trkpt lat="34.3278437276741" lon="-4.9518487090309025"><ele>204.5</ele><time>2026-04-28T15:07:10.999Z</time></trkpt><trkpt lat="34.327712456711076" lon="-4.951895379126917"><ele>205.0</ele><time>2026-04-28T15:07:11.999Z</time></trkpt><trkpt lat="34.32757601875787" lon="-4.951922185792765"><ele>205.0</ele><time>2026-04-28T15:07:12.999Z</time></trkpt><trkpt lat="34.32743783407571" lon="-4.951923220525843"><ele>205.0</ele><time>2026-04-28T15:07:13.999Z</time></trkpt><trkpt lat="34.32728738138356" lon="-4.951899316479092"><ele>205.0</ele><time>2026-04-28T15:07:14.999Z</time></trkpt><trkpt lat="34.327127471228664" lon="-4.951873901207968"><ele>209.0</ele><time>2026-04-28T15:07:15.999Z</time></trkpt><trkpt lat="34.32696712991097" lon="-4.951857353941462"><ele>213.0</ele><time>2026-04-28T15:07:16.999Z</time></trkpt><trkpt lat="34.32681468867927" lon="-4.951874831422769"><ele>217.0</ele><time>2026-04-28T15:07:17.999Z</time></trkpt><trkpt lat="34.32667034100542" lon="-4.951930734625914"><ele>217.0</ele><time>2026-04-28T15:07:19Z</time></trkpt><trkpt lat="34.32653180136182" lon="-4.952005064170975"><ele>217.0</ele><time>2026-04-28T15:07:20Z</time></trkpt><trkpt lat="34.32640662228181" lon="-4.952113719185044"><ele>217.0</ele><time>2026-04-28T15:07:21Z</time></trkpt><trkpt lat="34.326285933637074" lon="-4.952253061916294"><ele>220.0</ele><time>2026-04-28T15:07:22Z</time></trkpt><trkpt lat="34.326167265602336" lon="-4.952410375891447"><ele>223.0</ele><time>2026-04-28T15:07:23Z</time></trkpt><trkpt lat="34.326056827546225" lon="-4.952532618677123"><ele>226.0</ele><time>2026-04-28T15:07:24Z</time></trkpt><trkpt lat="34.325958212127375" lon="-4.952638741504831"><ele>226.0</ele><time>2026-04-28T15:07:25Z</time></trkpt><trkpt lat="34.32585685652576" lon="-4.952737635727794"><ele>226.0</ele><time>2026-04-28T15:07:26Z</time></trkpt><trkpt lat="34.32574970387583" lon="-4.95282296976261"><ele>226.0</ele><time>2026-04-28T15:07:27Z</time></trkpt><trkpt lat="34.325635147572896" lon="-4.952895220360565"><ele>226.0</ele><time>2026-04-28T15:07:28Z</time></trkpt><trkpt lat="34.32549785942508" lon="-4.95295205886926"><ele>225.0</ele><time>2026-04-28T15:07:29Z</time></trkpt><trkpt lat="34.32534455996117" lon="-4.9530016525855585"><ele>224.0</ele><time>2026-04-28T15:07:30Z</time></trkpt><trkpt lat="34.32517377739793" lon="-4.9530564017997625"><ele>223.0</ele><time>2026-04-28T15:07:31Z</time></trkpt><trkpt lat="34.32500074230582" lon="-4.953110042226375"><ele>223.0</ele><time>2026-04-28T15:07:32Z</time></trkpt><trkpt lat="34.324829244993914" lon="-4.9531619630594"><ele>223.0</ele><time>2026-04-28T15:07:33Z</time></trkpt><trkpt lat="34.3246601591123" lon="-4.953213828808309"><ele>223.0</ele><time>2026-04-28T15:07:34Z</time></trkpt><trkpt lat="34.324492278360516" lon="-4.953252570481756"><ele>222.33333333333331</ele><time>2026-04-28T15:07:35Z</time></trkpt><trkpt lat="34.32431721160927" lon="-4.953262820946198"><ele>221.66666666666669</ele><time>2026-04-28T15:07:36Z</time></trkpt><trkpt lat="34.32413288806047" lon="-4.953224167438194"><ele>221.0</ele><time>2026-04-28T15:07:36.999Z</time></trkpt><trkpt lat="34.323942223083066" lon="-4.953156300567633"><ele>220.66666666666669</ele><time>2026-04-28T15:07:37.999Z</time></trkpt><trkpt lat="34.32374491390986" lon="-4.953057591312143"><ele>220.33333333333331</ele><time>2026-04-28T15:07:38.999Z</time></trkpt><trkpt lat="34.32354767917908" lon="-4.9529385806240445"><ele>220.0</ele><time>2026-04-28T15:07:39.999Z</time></trkpt><trkpt lat="34.32336337758602" lon="-4.952815199744746"><ele>220.0</ele><time>2026-04-28T15:07:40.999Z</time></trkpt><trkpt lat="34.32318992504608" lon="-4.952692028734009"><ele>220.0</ele><time>2026-04-28T15:07:41.999Z</time></trkpt><trkpt lat="34.32303174831402" lon="-4.952558867267521"><ele>220.0</ele><time>2026-04-28T15:07:42.999Z</time></trkpt><trkpt lat="34.322876888176204" lon="-4.952426077304154"><ele>217.33333333333331</ele><time>2026-04-28T15:07:43.999Z</time></trkpt><trkpt lat="34.322728552519" lon="-4.952299358146829"><ele>214.66666666666669</ele><time>2026-04-28T15:07:44.999Z</time></trkpt><trkpt lat="34.322579593292886" lon="-4.952185691403316"><ele>212.0</ele><time>2026-04-28T15:07:45.999Z</time></trkpt><trkpt lat="34.322414339048684" lon="-4.952106587114019"><ele>212.0</ele><time>2026-04-28T15:07:46.999Z</time></trkpt><trkpt lat="34.32223821957624" lon="-4.952059892268276"><ele>212.0</ele><time>2026-04-28T15:07:47.999Z</time></trkpt><trkpt lat="34.322052939160855" lon="-4.952032056999198"><ele>212.0</ele><time>2026-04-28T15:07:48.999Z</time></trkpt><trkpt lat="34.321862340084465" lon="-4.952028745957196"><ele>210.66666666666669</ele><time>2026-04-28T15:07:49.999Z</time></trkpt><trkpt lat="34.32167269623868" lon="-4.952040221755211"><ele>209.33333333333331</ele><time>2026-04-28T15:07:50.999Z</time></trkpt><trkpt lat="34.32146887846205" lon="-4.952064068156394"><ele>208.0</ele><time>2026-04-28T15:07:51.999Z</time></trkpt><trkpt lat="34.32125418554079" lon="-4.9520837630977415"><ele>205.5</ele><time>2026-04-28T15:07:52.999Z</time></trkpt><trkpt lat="34.32102819356229" lon="-4.952089940170258"><ele>203.0</ele><time>2026-04-28T15:07:53.999Z</time></trkpt><trkpt lat="34.320797800958864" lon="-4.952086702097745"><ele>203.0</ele><time>2026-04-28T15:07:54.999Z</time></trkpt><trkpt lat="34.320567091907314" lon="-4.9520609419427455"><ele>203.0</ele><time>2026-04-28T15:07:55.999Z</time></trkpt><trkpt lat="34.32033892031995" lon="-4.952015332123187"><ele>201.0</ele><time>2026-04-28T15:07:56.999Z</time></trkpt><trkpt lat="34.32010798994295" lon="-4.951960427833751"><ele>199.0</ele><time>2026-04-28T15:07:57.999Z</time></trkpt><trkpt lat="34.319879873384636" lon="-4.951912420634513"><ele>196.0</ele><time>2026-04-28T15:07:58.999Z</time></trkpt><trkpt lat="34.31965580204485" lon="-4.951868939623413"><ele>193.0</ele><time>2026-04-28T15:07:59.999Z</time></trkpt><trkpt lat="34.31942888726595" lon="-4.951825056773893"><ele>193.0</ele><time>2026-04-28T15:08:00.999Z</time></trkpt><trkpt lat="34.31919755264656" lon="-4.951783965404126"><ele>193.0</ele><time>2026-04-28T15:08:01.999Z</time></trkpt><trkpt lat="34.31896170171864" lon="-4.951742916761915"><ele>197.5</ele><time>2026-04-28T15:08:02.999Z</time></trkpt><trkpt lat="34.31872491433683" lon="-4.9517065564591345"><ele>202.0</ele><time>2026-04-28T15:08:03.999Z</time></trkpt><trkpt lat="34.318486693096276" lon="-4.951668594072935"><ele>202.0</ele><time>2026-04-28T15:08:04.999Z</time></trkpt><trkpt lat="34.318246552416426" lon="-4.951634943234877"><ele>202.0</ele><time>2026-04-28T15:08:05.999Z</time></trkpt><trkpt lat="34.31801711369179" lon="-4.951605448276551"><ele>201.66666666666666</ele><time>2026-04-28T15:08:06.999Z</time></trkpt><trkpt lat="34.31779771298945" lon="-4.951572434945894"><ele>201.33333333333331</ele><time>2026-04-28T15:08:07.999Z</time></trkpt><trkpt lat="34.31758101341738" lon="-4.95152969759241"><ele>201.0</ele><time>2026-04-28T15:08:08.999Z</time></trkpt><trkpt lat="34.3173743324039" lon="-4.951483371726536"><ele>202.0</ele><time>2026-04-28T15:08:09.999Z</time></trkpt><trkpt lat="34.317181761291636" lon="-4.951440098657531"><ele>203.0</ele><time>2026-04-28T15:08:10.999Z</time></trkpt><trkpt lat="34.31700247922008" lon="-4.951392938196151"><ele>204.0</ele><time>2026-04-28T15:08:11.999Z</time></trkpt><trkpt lat="34.316834689538275" lon="-4.951341694049709"><ele>204.0</ele><time>2026-04-28T15:08:12.999Z</time></trkpt><trkpt lat="34.31666427159252" lon="-4.951285972658779"><ele>204.0</ele><time>2026-04-28T15:08:13.999Z</time></trkpt><trkpt lat="34.31648109594406" lon="-4.951225643649668"><ele>204.0</ele><time>2026-04-28T15:08:14.999Z</time></trkpt><trkpt lat="34.316288182284815" lon="-4.951159148586209"><ele>204.66666666666669</ele><time>2026-04-28T15:08:15.999Z</time></trkpt><trkpt lat="34.31608635551606" lon="-4.951087524582642"><ele>205.33333333333334</ele><time>2026-04-28T15:08:16.999Z</time></trkpt><trkpt lat="34.31587550103976" lon="-4.951016407380503"><ele>206.0</ele><time>2026-04-28T15:08:17.999Z</time></trkpt><trkpt lat="34.315657687530994" lon="-4.95095026441878"><ele>206.0</ele><time>2026-04-28T15:08:18.999Z</time></trkpt><trkpt lat="34.31543710530853" lon="-4.950878937632147"><ele>206.0</ele><time>2026-04-28T15:08:19.999Z</time></trkpt><trkpt lat="34.3152076385655" lon="-4.950799801472408"><ele>206.0</ele><time>2026-04-28T15:08:20.999Z</time></trkpt><trkpt lat="34.314973874717595" lon="-4.950714443701791"><ele>206.0</ele><time>2026-04-28T15:08:21.999Z</time></trkpt><trkpt lat="34.31473942006925" lon="-4.950626423865776"><ele>205.5</ele><time>2026-04-28T15:08:22.999Z</time></trkpt><trkpt lat="34.31450864259716" lon="-4.950534671300448"><ele>205.0</ele><time>2026-04-28T15:08:23.999Z</time></trkpt><trkpt lat="34.314277884225085" lon="-4.950442689886351"><ele>205.0</ele><time>2026-04-28T15:08:24.999Z</time></trkpt><trkpt lat="34.31405702964214" lon="-4.950349285818571"><ele>205.0</ele><time>2026-04-28T15:08:25.999Z</time></trkpt><trkpt lat="34.313843721039234" lon="-4.9502525770025025"><ele>206.66666666666666</ele><time>2026-04-28T15:08:26.999Z</time></trkpt><trkpt lat="34.31362941469173" lon="-4.9501577257841705"><ele>208.33333333333331</ele><time>2026-04-28T15:08:27.999Z</time></trkpt><trkpt lat="34.31342005742321" lon="-4.950070751129958"><ele>210.0</ele><time>2026-04-28T15:08:28.999Z</time></trkpt><trkpt lat="34.313224716097004" lon="-4.9499832940164215"><ele>207.0</ele><time>2026-04-28T15:08:29.999Z</time></trkpt><trkpt lat="34.31303878458578" lon="-4.949891992692937"><ele>204.0</ele><time>2026-04-28T15:08:30.999Z</time></trkpt><trkpt lat="34.312869678596584" lon="-4.949807743050007"><ele>201.0</ele><time>2026-04-28T15:08:31.999Z</time></trkpt><trkpt lat="34.312707061243614" lon="-4.949732281824176"><ele>201.0</ele><time>2026-04-28T15:08:32.999Z</time></trkpt><trkpt lat="34.312540355019706" lon="-4.949694148953249"><ele>201.0</ele><time>2026-04-28T15:08:33.999Z</time></trkpt><trkpt lat="34.31236576917756" lon="-4.949691932678365"><ele>201.0</ele><time>2026-04-28T15:08:34.999Z</time></trkpt><trkpt lat="34.31219201654557" lon="-4.94969193832362"><ele>203.0</ele><time>2026-04-28T15:08:35.999Z</time></trkpt><trkpt lat="34.31202216234232" lon="-4.94969132905536"><ele>205.0</ele><time>2026-04-28T15:08:36.999Z</time></trkpt><trkpt lat="34.311862764149" lon="-4.94968608384169"><ele>207.0</ele><time>2026-04-28T15:08:37.999Z</time></trkpt><trkpt lat="34.311710839970836" lon="-4.949680347144211"><ele>207.0</ele><time>2026-04-28T15:08:38.999Z</time></trkpt><trkpt lat="34.31155763911247" lon="-4.9496724605451545"><ele>207.0</ele><time>2026-04-28T15:08:39.999Z</time></trkpt><trkpt lat="34.31139483440026" lon="-4.9496718184596284"><ele>207.0</ele><time>2026-04-28T15:08:40.999Z</time></trkpt><trkpt lat="34.31122275637794" lon="-4.949678838838078"><ele>205.0</ele><time>2026-04-28T15:08:41.999Z</time></trkpt><trkpt lat="34.31104431958721" lon="-4.94969101237392"><ele>203.0</ele><time>2026-04-28T15:08:42.999Z</time></trkpt><trkpt lat="34.310857541445806" lon="-4.949707824309081"><ele>201.0</ele><time>2026-04-28T15:08:43.999Z</time></trkpt><trkpt lat="34.31066615355871" lon="-4.949726760410328"><ele>199.66666666666669</ele><time>2026-04-28T15:08:44.999Z</time></trkpt><trkpt lat="34.31046597718903" lon="-4.949745109163089"><ele>198.33333333333334</ele><time>2026-04-28T15:08:45.999Z</time></trkpt><trkpt lat="34.31025937321661" lon="-4.949765353942767"><ele>197.0</ele><time>2026-04-28T15:08:46.999Z</time></trkpt><trkpt lat="34.31005330623152" lon="-4.949785812383185"><ele>197.0</ele><time>2026-04-28T15:08:47.999Z</time></trkpt><trkpt lat="34.3098470410211" lon="-4.949807286291407"><ele>197.0</ele><time>2026-04-28T15:08:48.999Z</time></trkpt><trkpt lat="34.30963894542255" lon="-4.949828381861369"><ele>197.0</ele><time>2026-04-28T15:08:49.999Z</time></trkpt><trkpt lat="34.30943064253501" lon="-4.949848581990946"><ele>196.66666666666669</ele><time>2026-04-28T15:08:50.999Z</time></trkpt><trkpt lat="34.30922330420788" lon="-4.949869684259308"><ele>196.33333333333331</ele><time>2026-04-28T15:08:51.999Z</time></trkpt><trkpt lat="34.30901231752718" lon="-4.949890111554128"><ele>196.0</ele><time>2026-04-28T15:08:52.999Z</time></trkpt><trkpt lat="34.308798433769674" lon="-4.949910100043985"><ele>194.66666666666666</ele><time>2026-04-28T15:08:53.999Z</time></trkpt><trkpt lat="34.30859042822792" lon="-4.949929765364652"><ele>193.33333333333331</ele><time>2026-04-28T15:08:54.999Z</time></trkpt><trkpt lat="34.308392469264966" lon="-4.9499492011703925"><ele>192.0</ele><time>2026-04-28T15:08:55.999Z</time></trkpt><trkpt lat="34.30820221762934" lon="-4.949970282694535"><ele>190.0</ele><time>2026-04-28T15:08:56.999Z</time></trkpt><trkpt lat="34.30801514233432" lon="-4.949986139633744"><ele>188.0</ele><time>2026-04-28T15:08:57.999Z</time></trkpt><trkpt lat="34.30782097070722" lon="-4.950003418757003"><ele>186.0</ele><time>2026-04-28T15:08:58.999Z</time></trkpt><trkpt lat="34.30761645065339" lon="-4.9500262458502995"><ele>187.33333333333334</ele><time>2026-04-28T15:08:59.999Z</time></trkpt><trkpt lat="34.307405803826136" lon="-4.950053018963434"><ele>188.66666666666669</ele><time>2026-04-28T15:09:00.999Z</time></trkpt><trkpt lat="34.30719610623007" lon="-4.950076585167491"><ele>190.0</ele><time>2026-04-28T15:09:01.999Z</time></trkpt><trkpt lat="34.30698760289173" lon="-4.950100091273922"><ele>190.0</ele><time>2026-04-28T15:09:02.999Z</time></trkpt><trkpt lat="34.3067889581882" lon="-4.950116900688659"><ele>190.0</ele><time>2026-04-28T15:09:03.999Z</time></trkpt><trkpt lat="34.30658561081751" lon="-4.950130552971614"><ele>190.0</ele><time>2026-04-28T15:09:04.999Z</time></trkpt><trkpt lat="34.30638008951489" lon="-4.950146381165042"><ele>186.66666666666669</ele><time>2026-04-28T15:09:05.999Z</time></trkpt><trkpt lat="34.306184742743035" lon="-4.950164370320715"><ele>183.33333333333334</ele><time>2026-04-28T15:09:06.999Z</time></trkpt><trkpt lat="34.30600730523958" lon="-4.950194833896448"><ele>180.0</ele><time>2026-04-28T15:09:07.999Z</time></trkpt><trkpt lat="34.30585009322736" lon="-4.950254623347605"><ele>180.0</ele><time>2026-04-28T15:09:08.999Z</time></trkpt><trkpt lat="34.30570915909803" lon="-4.95034838216718"><ele>180.0</ele><time>2026-04-28T15:09:09.999Z</time></trkpt><trkpt lat="34.30557480098054" lon="-4.950464034803899"><ele>180.0</ele><time>2026-04-28T15:09:10.999Z</time></trkpt><trkpt lat="34.305441418025644" lon="-4.950582021246941"><ele>179.33333333333334</ele><time>2026-04-28T15:09:11.999Z</time></trkpt><trkpt lat="34.305313816515294" lon="-4.95069902274383"><ele>178.66666666666669</ele><time>2026-04-28T15:09:12.999Z</time></trkpt><trkpt lat="34.30519680150267" lon="-4.950814317820069"><ele>178.0</ele><time>2026-04-28T15:09:13.999Z</time></trkpt><trkpt lat="34.30507768333441" lon="-4.950930486866909"><ele>178.0</ele><time>2026-04-28T15:09:14.999Z</time></trkpt><trkpt lat="34.30495998766595" lon="-4.951040602935058"><ele>178.0</ele><time>2026-04-28T15:09:15.999Z</time></trkpt><trkpt lat="34.30484066834372" lon="-4.951153112100345"><ele>178.0</ele><time>2026-04-28T15:09:16.999Z</time></trkpt><trkpt lat="34.30471719362486" lon="-4.951254175734862"><ele>178.0</ele><time>2026-04-28T15:09:17.999Z</time></trkpt><trkpt lat="34.30458425998576" lon="-4.951325542428416"><ele>176.8</ele><time>2026-04-28T15:09:18.999Z</time></trkpt><trkpt lat="34.30445784039825" lon="-4.951362680941559"><ele>175.60000000000002</ele><time>2026-04-28T15:09:19.999Z</time></trkpt><trkpt lat="34.30435785574181" lon="-4.951368790120318"><ele>174.39999999999998</ele><time>2026-04-28T15:09:20.999Z</time></trkpt><trkpt lat="34.30427561921913" lon="-4.951355912623561"><ele>173.2</ele><time>2026-04-28T15:09:21.999Z</time></trkpt><trkpt lat="34.30416330921758" lon="-4.951352040885083"><ele>172.0</ele><time>2026-04-28T15:09:23.999Z</time></trkpt><trkpt lat="34.30405506047563" lon="-4.951364236818835"><ele>172.0</ele><time>2026-04-28T15:09:26Z</time></trkpt><trkpt lat="34.30396155489481" lon="-4.951361705445619"><ele>172.0</ele><time>2026-04-28T15:09:28Z</time></trkpt><trkpt lat="34.30385840510452" lon="-4.95136815685457"><ele>172.0</ele><time>2026-04-28T15:09:30Z</time></trkpt><trkpt lat="34.30372538081355" lon="-4.951357766598068"><ele>172.0</ele><time>2026-04-28T15:09:32Z</time></trkpt><trkpt lat="34.30363769321122" lon="-4.9513518642067735"><ele>172.0</ele><time>2026-04-28T15:09:33Z</time></trkpt><trkpt lat="34.30353321157495" lon="-4.951353222418737"><ele>169.75</ele><time>2026-04-28T15:09:34Z</time></trkpt><trkpt lat="34.303412432293" lon="-4.951355709901307"><ele>167.5</ele><time>2026-04-28T15:09:35Z</time></trkpt><trkpt lat="34.30328078541484" lon="-4.9513588186699184"><ele>165.25</ele><time>2026-04-28T15:09:36Z</time></trkpt><trkpt lat="34.30314654965603" lon="-4.951370333114171"><ele>163.0</ele><time>2026-04-28T15:09:37Z</time></trkpt><trkpt lat="34.303009872485596" lon="-4.951389306435385"><ele>160.75</ele><time>2026-04-28T15:09:38Z</time></trkpt><trkpt lat="34.302876753613624" lon="-4.951417636471863"><ele>158.5</ele><time>2026-04-28T15:09:39Z</time></trkpt><trkpt lat="34.30274331270573" lon="-4.95146397698824"><ele>156.25</ele><time>2026-04-28T15:09:40Z</time></trkpt><trkpt lat="34.302616866673766" lon="-4.951528239134284"><ele>154.0</ele><time>2026-04-28T15:09:41Z</time></trkpt><trkpt lat="34.30248998710268" lon="-4.951595350592902"><ele>154.0</ele><time>2026-04-28T15:09:42Z</time></trkpt><trkpt lat="34.30235675603525" lon="-4.951629052940889"><ele>154.0</ele><time>2026-04-28T15:09:42.999Z</time></trkpt><trkpt lat="34.30221723613302" lon="-4.9516224020938555"><ele>154.0</ele><time>2026-04-28T15:09:43.999Z</time></trkpt><trkpt lat="34.302076320896" lon="-4.951593629484514"><ele>154.0</ele><time>2026-04-28T15:09:44.999Z</time></trkpt><trkpt lat="34.30194118674053" lon="-4.951559471678519"><ele>151.0</ele><time>2026-04-28T15:09:45.999Z</time></trkpt><trkpt lat="34.301808684812755" lon="-4.95152367866067"><ele>148.0</ele><time>2026-04-28T15:09:46.999Z</time></trkpt><trkpt lat="34.301673301589716" lon="-4.9514887964512395"><ele>145.0</ele><time>2026-04-28T15:09:47.999Z</time></trkpt><trkpt lat="34.30154399920963" lon="-4.951450664756683"><ele>142.0</ele><time>2026-04-28T15:09:48.999Z</time></trkpt><trkpt lat="34.3014232185022" lon="-4.951413969510604"><ele>141.4</ele><time>2026-04-28T15:09:49.999Z</time></trkpt><trkpt lat="34.30132478062182" lon="-4.951382870232274"><ele>140.79999999999998</ele><time>2026-04-28T15:09:50.999Z</time></trkpt><trkpt lat="34.301243665569665" lon="-4.951361700669448"><ele>140.2</ele><time>2026-04-28T15:09:51.999Z</time></trkpt><trkpt lat="34.301148299264355" lon="-4.951343622202273"><ele>139.6</ele><time>2026-04-28T15:09:53.999Z</time></trkpt><trkpt lat="34.3010664764006" lon="-4.951320985201083"><ele>139.0</ele><time>2026-04-28T15:09:55.999Z</time></trkpt><trkpt lat="34.30097209852237" lon="-4.951280043836527"><ele>139.0</ele><time>2026-04-28T15:09:57.999Z</time></trkpt><trkpt lat="34.30087386423604" lon="-4.951249136341608"><ele>139.0</ele><time>2026-04-28T15:09:59.999Z</time></trkpt><trkpt lat="34.30077934227381" lon="-4.951224775760157"><ele>139.0</ele><time>2026-04-28T15:10:01.999Z</time></trkpt><trkpt lat="34.30069594151891" lon="-4.95120065485154"><ele>139.0</ele><time>2026-04-28T15:10:04.999Z</time></trkpt><trkpt lat="34.30062249030624" lon="-4.951188952959883"><ele>139.0</ele><time>2026-04-28T15:10:17Z</time></trkpt><trkpt lat="34.30049199615818" lon="-4.951148931246893"><ele>138.2</ele><time>2026-04-28T15:10:19Z</time></trkpt><trkpt lat="34.30038994902078" lon="-4.95111399966228"><ele>137.4</ele><time>2026-04-28T15:10:20Z</time></trkpt><trkpt lat="34.30027094799299" lon="-4.951080820093642"><ele>136.6</ele><time>2026-04-28T15:10:21Z</time></trkpt><trkpt lat="34.3001704449743" lon="-4.9510573753020495"><ele>135.8</ele><time>2026-04-28T15:10:22Z</time></trkpt><trkpt lat="34.300081898541684" lon="-4.951031008913376"><ele>135.0</ele><time>2026-04-28T15:10:23Z</time></trkpt><trkpt lat="34.29997538619538" lon="-4.951004587757332"><ele>135.0</ele><time>2026-04-28T15:10:24Z</time></trkpt><trkpt lat="34.299769617704314" lon="-4.95093137759428"><ele>135.0</ele><time>2026-04-28T15:10:25Z</time></trkpt><trkpt lat="34.29958880220479" lon="-4.950880806048523"><ele>135.0</ele><time>2026-04-28T15:10:26Z</time></trkpt><trkpt lat="34.29939998072118" lon="-4.950828453641867"><ele>133.33333333333334</ele><time>2026-04-28T15:10:27Z</time></trkpt><trkpt lat="34.29919329308284" lon="-4.950771537562711"><ele>131.66666666666669</ele><time>2026-04-28T15:10:28Z</time></trkpt><trkpt lat="34.298980150761544" lon="-4.950712919144186"><ele>130.0</ele><time>2026-04-28T15:10:29Z</time></trkpt><trkpt lat="34.298753975202736" lon="-4.950646342632933"><ele>130.0</ele><time>2026-04-28T15:10:30Z</time></trkpt><trkpt lat="34.29852739020305" lon="-4.950588101965537"><ele>130.0</ele><time>2026-04-28T15:10:31Z</time></trkpt><trkpt lat="34.29830987615126" lon="-4.950529568676806"><ele>130.0</ele><time>2026-04-28T15:10:32Z</time></trkpt><trkpt lat="34.298104932340316" lon="-4.950471743689019"><ele>130.0</ele><time>2026-04-28T15:10:33Z</time></trkpt><trkpt lat="34.29790698549685" lon="-4.950413736653205"><ele>130.0</ele><time>2026-04-28T15:10:34Z</time></trkpt><trkpt lat="34.297714671866196" lon="-4.950364488649053"><ele>130.0</ele><time>2026-04-28T15:10:35Z</time></trkpt><trkpt lat="34.297530978502955" lon="-4.950314462563028"><ele>130.0</ele><time>2026-04-28T15:10:36Z</time></trkpt><trkpt lat="34.29734406507607" lon="-4.950260407070164"><ele>130.0</ele><time>2026-04-28T15:10:37Z</time></trkpt><trkpt lat="34.29715585288973" lon="-4.95020122979787"><ele>129.0</ele><time>2026-04-28T15:10:38Z</time></trkpt><trkpt lat="34.29696002202685" lon="-4.950148026083732"><ele>128.0</ele><time>2026-04-28T15:10:39Z</time></trkpt><trkpt lat="34.29678084287499" lon="-4.95010008828775"><ele>127.0</ele><time>2026-04-28T15:10:40Z</time></trkpt><trkpt lat="34.29661330926915" lon="-4.95005735571545"><ele>126.66666666666667</ele><time>2026-04-28T15:10:41Z</time></trkpt><trkpt lat="34.29645671002213" lon="-4.950012774261079"><ele>126.33333333333334</ele><time>2026-04-28T15:10:42Z</time></trkpt><trkpt lat="34.29630768177808" lon="-4.949972131165376"><ele>126.0</ele><time>2026-04-28T15:10:43Z</time></trkpt><trkpt lat="34.29616413609155" lon="-4.9499273323885395"><ele>126.0</ele><time>2026-04-28T15:10:44Z</time></trkpt><trkpt lat="34.29601379228013" lon="-4.949880502670638"><ele>126.0</ele><time>2026-04-28T15:10:45Z</time></trkpt><trkpt lat="34.29585894245228" lon="-4.949837620982717"><ele>126.0</ele><time>2026-04-28T15:10:46Z</time></trkpt><trkpt lat="34.29569467822729" lon="-4.949795941396576"><ele>125.66666666666666</ele><time>2026-04-28T15:10:47Z</time></trkpt><trkpt lat="34.29551773312564" lon="-4.949747833852101"><ele>125.33333333333333</ele><time>2026-04-28T15:10:48Z</time></trkpt><trkpt lat="34.295353223376544" lon="-4.949703688428625"><ele>125.0</ele><time>2026-04-28T15:10:49Z</time></trkpt><trkpt lat="34.29520570778084" lon="-4.949658124954558"><ele>125.0</ele><time>2026-04-28T15:10:50Z</time></trkpt><trkpt lat="34.2950578862492" lon="-4.949619825477168"><ele>125.0</ele><time>2026-04-28T15:10:51Z</time></trkpt><trkpt lat="34.294899562884346" lon="-4.949576813602621"><ele>125.0</ele><time>2026-04-28T15:10:52Z</time></trkpt><trkpt lat="34.294741647178974" lon="-4.949531677895478"><ele>124.0</ele><time>2026-04-28T15:10:53Z</time></trkpt><trkpt lat="34.294579645015645" lon="-4.949485485529842"><ele>123.0</ele><time>2026-04-28T15:10:54Z</time></trkpt><trkpt lat="34.29441787430442" lon="-4.949440716448197"><ele>122.0</ele><time>2026-04-28T15:10:55Z</time></trkpt><trkpt lat="34.29425098038873" lon="-4.949394825907235"><ele>122.0</ele><time>2026-04-28T15:10:56Z</time></trkpt><trkpt lat="34.2940829527725" lon="-4.949342580531133"><ele>122.0</ele><time>2026-04-28T15:10:57Z</time></trkpt><trkpt lat="34.29391461947519" lon="-4.949290391419464"><ele>122.0</ele><time>2026-04-28T15:10:58Z</time></trkpt><trkpt lat="34.29375728008542" lon="-4.949245201192506"><ele>122.0</ele><time>2026-04-28T15:10:59Z</time></trkpt><trkpt lat="34.29360491050297" lon="-4.949197956999818"><ele>122.0</ele><time>2026-04-28T15:11:00Z</time></trkpt><trkpt lat="34.293450773655785" lon="-4.949156772959719"><ele>122.0</ele><time>2026-04-28T15:11:01Z</time></trkpt><trkpt lat="34.293311179356216" lon="-4.949113352712735"><ele>122.0</ele><time>2026-04-28T15:11:02Z</time></trkpt><trkpt lat="34.29317946007083" lon="-4.9490712985861975"><ele>121.99999999999999</ele><time>2026-04-28T15:11:03Z</time></trkpt><trkpt lat="34.29306273647014" lon="-4.949040197810381"><ele>121.99999999999999</ele><time>2026-04-28T15:11:04Z</time></trkpt><trkpt lat="34.292962941158116" lon="-4.949004363863405"><ele>122.0</ele><time>2026-04-28T15:11:05Z</time></trkpt><trkpt lat="34.29287759878809" lon="-4.948973689305204"><ele>122.0</ele><time>2026-04-28T15:11:06Z</time></trkpt><trkpt lat="34.292819024281584" lon="-4.948944325236901"><ele>121.8</ele><time>2026-04-28T15:11:07Z</time></trkpt><trkpt lat="34.29274528803584" lon="-4.948918915763233"><ele>121.6</ele><time>2026-04-28T15:11:08Z</time></trkpt><trkpt lat="34.292670215663826" lon="-4.9489155768561455"><ele>121.39999999999999</ele><time>2026-04-28T15:11:09Z</time></trkpt><trkpt lat="34.29257474682999" lon="-4.948913715998976"><ele>121.19999999999999</ele><time>2026-04-28T15:11:10Z</time></trkpt><trkpt lat="34.29248626181569" lon="-4.948902223577315"><ele>121.0</ele><time>2026-04-28T15:11:11Z</time></trkpt><trkpt lat="34.2923009553686" lon="-4.948817220109317"><ele>121.0</ele><time>2026-04-28T15:11:12Z</time></trkpt><trkpt lat="34.29214176819099" lon="-4.948769190317554"><ele>121.0</ele><time>2026-04-28T15:11:13Z</time></trkpt><trkpt lat="34.291984659514355" lon="-4.948738380083464"><ele>121.0</ele><time>2026-04-28T15:11:14Z</time></trkpt><trkpt lat="34.29184268302847" lon="-4.94870895137813"><ele>121.0</ele><time>2026-04-28T15:11:15Z</time></trkpt><trkpt lat="34.29170744875335" lon="-4.9486738555683685"><ele>121.0</ele><time>2026-04-28T15:11:16Z</time></trkpt><trkpt lat="34.291584358813125" lon="-4.948631166666769"><ele>121.0</ele><time>2026-04-28T15:11:17Z</time></trkpt><trkpt lat="34.291454365649294" lon="-4.94858439104175"><ele>121.0</ele><time>2026-04-28T15:11:18Z</time></trkpt><trkpt lat="34.29131083019191" lon="-4.948540154585623"><ele>120.75</ele><time>2026-04-28T15:11:19Z</time></trkpt><trkpt lat="34.29116185052872" lon="-4.948506734074531"><ele>120.5</ele><time>2026-04-28T15:11:20Z</time></trkpt><trkpt lat="34.29101188472052" lon="-4.948477409319311"><ele>120.25</ele><time>2026-04-28T15:11:21Z</time></trkpt><trkpt lat="34.29087395382335" lon="-4.948436117328113"><ele>120.0</ele><time>2026-04-28T15:11:22Z</time></trkpt><trkpt lat="34.29074312712255" lon="-4.948392716128999"><ele>119.75</ele><time>2026-04-28T15:11:23Z</time></trkpt><trkpt lat="34.29061824189853" lon="-4.948352811398603"><ele>119.5</ele><time>2026-04-28T15:11:24Z</time></trkpt><trkpt lat="34.29049150733048" lon="-4.948320850527695"><ele>119.25</ele><time>2026-04-28T15:11:25Z</time></trkpt><trkpt lat="34.29036063565799" lon="-4.948290751933781"><ele>119.0</ele><time>2026-04-28T15:11:26Z</time></trkpt><trkpt lat="34.29022495231692" lon="-4.948257749176262"><ele>119.0</ele><time>2026-04-28T15:11:27Z</time></trkpt><trkpt lat="34.29008700353467" lon="-4.94822216762212"><ele>119.0</ele><time>2026-04-28T15:11:28Z</time></trkpt><trkpt lat="34.28995282446615" lon="-4.948181714591978"><ele>119.0</ele><time>2026-04-28T15:11:29Z</time></trkpt><trkpt lat="34.28982444500149" lon="-4.94813550367307"><ele>119.0</ele><time>2026-04-28T15:11:30Z</time></trkpt><trkpt lat="34.28970926372523" lon="-4.9480632497000165"><ele>118.75</ele><time>2026-04-28T15:11:31Z</time></trkpt><trkpt lat="34.28960660084402" lon="-4.947977740592115"><ele>118.5</ele><time>2026-04-28T15:11:32.001Z</time></trkpt><trkpt lat="34.28951945481987" lon="-4.947867290375814"><ele>118.25</ele><time>2026-04-28T15:11:33Z</time></trkpt><trkpt lat="34.289445414155274" lon="-4.947749268385153"><ele>118.0</ele><time>2026-04-28T15:11:34Z</time></trkpt><trkpt lat="34.28939256412157" lon="-4.947626361451658"><ele>118.75</ele><time>2026-04-28T15:11:35Z</time></trkpt><trkpt lat="34.2893610303382" lon="-4.947496147075025"><ele>119.5</ele><time>2026-04-28T15:11:36Z</time></trkpt><trkpt lat="34.28936626341485" lon="-4.947357706992405"><ele>120.25</ele><time>2026-04-28T15:11:37Z</time></trkpt><trkpt lat="34.28938960613471" lon="-4.947204325292504"><ele>121.0</ele><time>2026-04-28T15:11:38Z</time></trkpt><trkpt lat="34.28940265147979" lon="-4.947024627599805"><ele>121.0</ele><time>2026-04-28T15:11:39Z</time></trkpt><trkpt lat="34.2894251916752" lon="-4.946835453275223"><ele>121.0</ele><time>2026-04-28T15:11:40Z</time></trkpt><trkpt lat="34.28945469773577" lon="-4.946637072453714"><ele>121.0</ele><time>2026-04-28T15:11:41Z</time></trkpt><trkpt lat="34.28947711132909" lon="-4.946421713931512"><ele>122.66666666666667</ele><time>2026-04-28T15:11:42Z</time></trkpt><trkpt lat="34.289497014650124" lon="-4.9461971893583385"><ele>124.33333333333334</ele><time>2026-04-28T15:11:43Z</time></trkpt><trkpt lat="34.28952476719539" lon="-4.94597550099805"><ele>126.0</ele><time>2026-04-28T15:11:44Z</time></trkpt><trkpt lat="34.289553769513674" lon="-4.945755323837737"><ele>127.66666666666666</ele><time>2026-04-28T15:11:45Z</time></trkpt><trkpt lat="34.2895737895822" lon="-4.94554217497057"><ele>129.33333333333331</ele><time>2026-04-28T15:11:46Z</time></trkpt><trkpt lat="34.28959014384784" lon="-4.945339049302884"><ele>131.0</ele><time>2026-04-28T15:11:47Z</time></trkpt><trkpt lat="34.28961358208137" lon="-4.945166232491098"><ele>132.75</ele><time>2026-04-28T15:11:48Z</time></trkpt><trkpt lat="34.289626664415465" lon="-4.94500486203206"><ele>134.5</ele><time>2026-04-28T15:11:49Z</time></trkpt><trkpt lat="34.289639715707736" lon="-4.944851593027635"><ele>136.25</ele><time>2026-04-28T15:11:50Z</time></trkpt><trkpt lat="34.28964839566249" lon="-4.944699956185122"><ele>138.0</ele><time>2026-04-28T15:11:51Z</time></trkpt><trkpt lat="34.28965928605911" lon="-4.944544785964161"><ele>138.0</ele><time>2026-04-28T15:11:52Z</time></trkpt><trkpt lat="34.289660081734326" lon="-4.944389349019847"><ele>138.0</ele><time>2026-04-28T15:11:53Z</time></trkpt><trkpt lat="34.28964916770466" lon="-4.944231856881311"><ele>138.0</ele><time>2026-04-28T15:11:54Z</time></trkpt><trkpt lat="34.28960352994123" lon="-4.944090001912507"><ele>138.0</ele><time>2026-04-28T15:11:55Z</time></trkpt><trkpt lat="34.28952706158908" lon="-4.943981312765929"><ele>139.75</ele><time>2026-04-28T15:11:56Z</time></trkpt><trkpt lat="34.289422432280176" lon="-4.943894015812381"><ele>141.5</ele><time>2026-04-28T15:11:57Z</time></trkpt><trkpt lat="34.28929337495196" lon="-4.943845702392953"><ele>143.25</ele><time>2026-04-28T15:11:58Z</time></trkpt><trkpt lat="34.28914085877767" lon="-4.943813674988322"><ele>145.0</ele><time>2026-04-28T15:11:59Z</time></trkpt><trkpt lat="34.28897735412613" lon="-4.943800588994338"><ele>148.33333333333334</ele><time>2026-04-28T15:12:00Z</time></trkpt><trkpt lat="34.28880776188081" lon="-4.943786084619021"><ele>151.66666666666666</ele><time>2026-04-28T15:12:01Z</time></trkpt><trkpt lat="34.28865317090157" lon="-4.943782324179386"><ele>155.0</ele><time>2026-04-28T15:12:02Z</time></trkpt><trkpt lat="34.28850528920626" lon="-4.943815934348155"><ele>155.0</ele><time>2026-04-28T15:12:03Z</time></trkpt><trkpt lat="34.28836375497181" lon="-4.943874403294065"><ele>155.0</ele><time>2026-04-28T15:12:04Z</time></trkpt><trkpt lat="34.2882250084817" lon="-4.943964580875309"><ele>155.0</ele><time>2026-04-28T15:12:05Z</time></trkpt><trkpt lat="34.28808632210456" lon="-4.944058932979712"><ele>154.5</ele><time>2026-04-28T15:12:06Z</time></trkpt><trkpt lat="34.28795222592652" lon="-4.9441328672838445"><ele>154.0</ele><time>2026-04-28T15:12:07Z</time></trkpt><trkpt lat="34.28782699744912" lon="-4.944198002139012"><ele>153.5</ele><time>2026-04-28T15:12:08Z</time></trkpt><trkpt lat="34.28772013751777" lon="-4.944249142565398"><ele>153.0</ele><time>2026-04-28T15:12:09Z</time></trkpt><trkpt lat="34.28761388719385" lon="-4.944279928815692"><ele>153.0</ele><time>2026-04-28T15:12:10Z</time></trkpt><trkpt lat="34.287502699299694" lon="-4.944306003081868"><ele>153.0</ele><time>2026-04-28T15:12:11Z</time></trkpt><trkpt lat="34.28739114495856" lon="-4.944313730946536"><ele>153.0</ele><time>2026-04-28T15:12:12Z</time></trkpt><trkpt lat="34.28727763089046" lon="-4.944303666034689"><ele>153.0</ele><time>2026-04-28T15:12:13Z</time></trkpt><trkpt lat="34.28716234317452" lon="-4.94428460905124"><ele>152.8</ele><time>2026-04-28T15:12:14Z</time></trkpt><trkpt lat="34.28705320450588" lon="-4.944253457688684"><ele>152.60000000000002</ele><time>2026-04-28T15:12:15Z</time></trkpt><trkpt lat="34.2869582538406" lon="-4.944203025093034"><ele>152.39999999999998</ele><time>2026-04-28T15:12:16Z</time></trkpt><trkpt lat="34.28687659653571" lon="-4.94413499909327"><ele>152.2</ele><time>2026-04-28T15:12:17Z</time></trkpt><trkpt lat="34.286807704945026" lon="-4.944044648656773"><ele>152.0</ele><time>2026-04-28T15:12:18Z</time></trkpt><trkpt lat="34.2867615241125" lon="-4.943940002445473"><ele>155.39999999999998</ele><time>2026-04-28T15:12:19Z</time></trkpt><trkpt lat="34.286749854966594" lon="-4.9438271009709505"><ele>158.79999999999998</ele><time>2026-04-28T15:12:20Z</time></trkpt><trkpt lat="34.286763753506804" lon="-4.943713141154019"><ele>162.2</ele><time>2026-04-28T15:12:21Z</time></trkpt><trkpt lat="34.286804216237826" lon="-4.943602701626707"><ele>165.6</ele><time>2026-04-28T15:12:22Z</time></trkpt><trkpt lat="34.286880203354634" lon="-4.943502990203515"><ele>169.0</ele><time>2026-04-28T15:12:23Z</time></trkpt><trkpt lat="34.2869837576646" lon="-4.943438985543341"><ele>169.0</ele><time>2026-04-28T15:12:24Z</time></trkpt><trkpt lat="34.287090690270475" lon="-4.943397715806216"><ele>169.0</ele><time>2026-04-28T15:12:25Z</time></trkpt><trkpt lat="34.287191321287466" lon="-4.943363008245215"><ele>169.0</ele><time>2026-04-28T15:12:26Z</time></trkpt><trkpt lat="34.28729286209296" lon="-4.943324080526054"><ele>169.0</ele><time>2026-04-28T15:12:27Z</time></trkpt><trkpt lat="34.28739282741727" lon="-4.94327935393883"><ele>169.0</ele><time>2026-04-28T15:12:28Z</time></trkpt><trkpt lat="34.28749241969803" lon="-4.943206571728801"><ele>171.5</ele><time>2026-04-28T15:12:29Z</time></trkpt><trkpt lat="34.28759002347648" lon="-4.943107670495423"><ele>174.0</ele><time>2026-04-28T15:12:30Z</time></trkpt><trkpt lat="34.287688142072355" lon="-4.94299542861036"><ele>176.5</ele><time>2026-04-28T15:12:31Z</time></trkpt><trkpt lat="34.287789029719846" lon="-4.942881090480873"><ele>179.0</ele><time>2026-04-28T15:12:32Z</time></trkpt><trkpt lat="34.28789382215107" lon="-4.942763996261614"><ele>179.0</ele><time>2026-04-28T15:12:33Z</time></trkpt><trkpt lat="34.287997255939274" lon="-4.942642879465953"><ele>179.0</ele><time>2026-04-28T15:12:34Z</time></trkpt><trkpt lat="34.28808769217516" lon="-4.942508378609219"><ele>179.0</ele><time>2026-04-28T15:12:35Z</time></trkpt><trkpt lat="34.28816402132707" lon="-4.942357860920784"><ele>179.0</ele><time>2026-04-28T15:12:36Z</time></trkpt><trkpt lat="34.28822843950159" lon="-4.942201668812109"><ele>181.0</ele><time>2026-04-28T15:12:37Z</time></trkpt><trkpt lat="34.28827904367257" lon="-4.942055593921987"><ele>183.0</ele><time>2026-04-28T15:12:38Z</time></trkpt><trkpt lat="34.28833098299393" lon="-4.941921373095074"><ele>185.0</ele><time>2026-04-28T15:12:39Z</time></trkpt><trkpt lat="34.2883913511237" lon="-4.941789928120218"><ele>187.0</ele><time>2026-04-28T15:12:40Z</time></trkpt><trkpt lat="34.288460068703074" lon="-4.941656155088011"><ele>189.75</ele><time>2026-04-28T15:12:41Z</time></trkpt><trkpt lat="34.28852389097094" lon="-4.94152063825929"><ele>192.5</ele><time>2026-04-28T15:12:42Z</time></trkpt><trkpt lat="34.288587125323936" lon="-4.941370769832171"><ele>195.25</ele><time>2026-04-28T15:12:43Z</time></trkpt><trkpt lat="34.28866425966719" lon="-4.941201545050122"><ele>198.0</ele><time>2026-04-28T15:12:44Z</time></trkpt><trkpt lat="34.288741650590715" lon="-4.941012591422248"><ele>198.0</ele><time>2026-04-28T15:12:45Z</time></trkpt><trkpt lat="34.288814753316856" lon="-4.940814808799432"><ele>198.0</ele><time>2026-04-28T15:12:46Z</time></trkpt><trkpt lat="34.28888519017609" lon="-4.940617475036249"><ele>198.0</ele><time>2026-04-28T15:12:47Z</time></trkpt><trkpt lat="34.288954880497954" lon="-4.9404176800954165"><ele>198.0</ele><time>2026-04-28T15:12:48Z</time></trkpt><trkpt lat="34.28902756062549" lon="-4.94022372783074"><ele>198.0</ele><time>2026-04-28T15:12:49Z</time></trkpt><trkpt lat="34.289102872684744" lon="-4.940029288702786"><ele>198.0</ele><time>2026-04-28T15:12:50Z</time></trkpt><trkpt lat="34.28917884466618" lon="-4.939833820105857"><ele>199.66666666666669</ele><time>2026-04-28T15:12:51Z</time></trkpt><trkpt lat="34.289258553143505" lon="-4.9396340547560715"><ele>201.33333333333334</ele><time>2026-04-28T15:12:52Z</time></trkpt><trkpt lat="34.289334352038146" lon="-4.939435468024164"><ele>203.0</ele><time>2026-04-28T15:12:53Z</time></trkpt><trkpt lat="34.289409645673494" lon="-4.939243096395458"><ele>206.0</ele><time>2026-04-28T15:12:54Z</time></trkpt><trkpt lat="34.28948487546948" lon="-4.939054900428001"><ele>209.0</ele><time>2026-04-28T15:12:55Z</time></trkpt><trkpt lat="34.28955589219947" lon="-4.93887282844813"><ele>212.0</ele><time>2026-04-28T15:12:56Z</time></trkpt><trkpt lat="34.28962407016719" lon="-4.938694717767042"><ele>212.0</ele><time>2026-04-28T15:12:57Z</time></trkpt><trkpt lat="34.289689291687615" lon="-4.9385219743845745"><ele>212.0</ele><time>2026-04-28T15:12:58Z</time></trkpt><trkpt lat="34.28975381242645" lon="-4.938355182638258"><ele>212.0</ele><time>2026-04-28T15:12:59Z</time></trkpt><trkpt lat="34.289817986452114" lon="-4.938186341761453"><ele>212.66666666666669</ele><time>2026-04-28T15:13:00Z</time></trkpt><trkpt lat="34.289876439763376" lon="-4.938012480109568"><ele>213.33333333333331</ele><time>2026-04-28T15:13:01Z</time></trkpt><trkpt lat="34.28991175761875" lon="-4.937828905325333"><ele>214.0</ele><time>2026-04-28T15:13:02Z</time></trkpt><trkpt lat="34.289913256455506" lon="-4.937634288439255"><ele>216.66666666666666</ele><time>2026-04-28T15:13:03Z</time></trkpt><trkpt lat="34.28989078126745" lon="-4.937436217429866"><ele>219.33333333333331</ele><time>2026-04-28T15:13:04Z</time></trkpt><trkpt lat="34.289865353098605" lon="-4.937241831400933"><ele>222.0</ele><time>2026-04-28T15:13:05Z</time></trkpt><trkpt lat="34.28984195958447" lon="-4.937067826095859"><ele>222.0</ele><time>2026-04-28T15:13:06Z</time></trkpt><trkpt lat="34.289813890347325" lon="-4.936904439189367"><ele>222.0</ele><time>2026-04-28T15:13:07Z</time></trkpt><trkpt lat="34.289766182004485" lon="-4.936739092543956"><ele>222.0</ele><time>2026-04-28T15:13:08Z</time></trkpt><trkpt lat="34.28969613278405" lon="-4.936547787672685"><ele>224.0</ele><time>2026-04-28T15:13:09Z</time></trkpt><trkpt lat="34.28960912870846" lon="-4.936337478099989"><ele>226.0</ele><time>2026-04-28T15:13:10Z</time></trkpt><trkpt lat="34.289510503842685" lon="-4.936119987888125"><ele>228.0</ele><time>2026-04-28T15:13:11Z</time></trkpt><trkpt lat="34.28940478964988" lon="-4.935893565000238"><ele>225.66666666666669</ele><time>2026-04-28T15:13:12Z</time></trkpt><trkpt lat="34.289298245286844" lon="-4.935666969632525"><ele>223.33333333333334</ele><time>2026-04-28T15:13:13Z</time></trkpt><trkpt lat="34.289196491316176" lon="-4.935450090444561"><ele>221.0</ele><time>2026-04-28T15:13:14Z</time></trkpt><trkpt lat="34.28909760578735" lon="-4.935237766839108"><ele>219.66666666666669</ele><time>2026-04-28T15:13:15Z</time></trkpt><trkpt lat="34.2890005991722" lon="-4.935024213212474"><ele>218.33333333333331</ele><time>2026-04-28T15:13:16Z</time></trkpt><trkpt lat="34.288894835027506" lon="-4.93480477500551"><ele>217.0</ele><time>2026-04-28T15:13:17Z</time></trkpt><trkpt lat="34.28878672149557" lon="-4.934587476056175"><ele>218.66666666666666</ele><time>2026-04-28T15:13:18Z</time></trkpt><trkpt lat="34.28868480379806" lon="-4.934383629420346"><ele>220.33333333333331</ele><time>2026-04-28T15:13:19Z</time></trkpt><trkpt lat="34.28858822990339" lon="-4.934184489072058"><ele>222.0</ele><time>2026-04-28T15:13:20Z</time></trkpt><trkpt lat="34.288509723996526" lon="-4.933990994020387"><ele>222.0</ele><time>2026-04-28T15:13:21Z</time></trkpt><trkpt lat="34.28846035143599" lon="-4.933787066062962"><ele>222.0</ele><time>2026-04-28T15:13:22Z</time></trkpt><trkpt lat="34.28843205538216" lon="-4.933569619086704"><ele>222.0</ele><time>2026-04-28T15:13:23Z</time></trkpt><trkpt lat="34.28843477142577" lon="-4.933344097236539"><ele>219.33333333333331</ele><time>2026-04-28T15:13:24Z</time></trkpt><trkpt lat="34.28846183075747" lon="-4.933127120527534"><ele>216.66666666666666</ele><time>2026-04-28T15:13:25Z</time></trkpt><trkpt lat="34.28849786613572" lon="-4.9329263662197445"><ele>214.0</ele><time>2026-04-28T15:13:26Z</time></trkpt><trkpt lat="34.288521890320496" lon="-4.9327557085650096"><ele>213.99999999999997</ele><time>2026-04-28T15:13:27Z</time></trkpt><trkpt lat="34.288527780359416" lon="-4.932605842665404"><ele>214.0</ele><time>2026-04-28T15:13:28Z</time></trkpt><trkpt lat="34.28852213579326" lon="-4.932483093930382"><ele>214.0</ele><time>2026-04-28T15:13:29Z</time></trkpt><trkpt lat="34.288518759175325" lon="-4.932380146342357"><ele>214.0</ele><time>2026-04-28T15:13:30Z</time></trkpt><trkpt lat="34.28851382335176" lon="-4.932290081944921"><ele>213.99999999999997</ele><time>2026-04-28T15:13:31Z</time></trkpt><trkpt lat="34.288504910558935" lon="-4.9322131222727"><ele>214.0</ele><time>2026-04-28T15:13:32Z</time></trkpt><trkpt lat="34.2884855699974" lon="-4.932104492991579"><ele>213.99999999999997</ele><time>2026-04-28T15:13:34Z</time></trkpt><trkpt lat="34.28847331753963" lon="-4.9320263421222625"><ele>214.0</ele><time>2026-04-28T15:13:39Z</time></trkpt><trkpt lat="34.28845415521232" lon="-4.93193255849945"><ele>214.0</ele><time>2026-04-28T15:13:44Z</time></trkpt><trkpt lat="34.28843286880736" lon="-4.9317934440239135"><ele>214.0</ele><time>2026-04-28T15:13:46Z</time></trkpt><trkpt lat="34.28841546022724" lon="-4.931656282008191"><ele>213.99999999999997</ele><time>2026-04-28T15:13:48Z</time></trkpt><trkpt lat="34.28840403315266" lon="-4.931575003588302"><ele>214.0</ele><time>2026-04-28T15:13:49Z</time></trkpt><trkpt lat="34.288392228250856" lon="-4.931494919204759"><ele>213.5</ele><time>2026-04-28T15:13:50Z</time></trkpt><trkpt lat="34.28839143270635" lon="-4.931378935436826"><ele>213.0</ele><time>2026-04-28T15:13:51Z</time></trkpt><trkpt lat="34.288362434882686" lon="-4.931259528153065"><ele>212.5</ele><time>2026-04-28T15:13:52Z</time></trkpt><trkpt lat="34.288349412539205" lon="-4.93110441151782"><ele>212.0</ele><time>2026-04-28T15:13:53Z</time></trkpt><trkpt lat="34.28830830426677" lon="-4.93094900543537"><ele>213.5</ele><time>2026-04-28T15:13:54Z</time></trkpt><trkpt lat="34.28827615571242" lon="-4.930798988981613"><ele>215.0</ele><time>2026-04-28T15:13:55Z</time></trkpt><trkpt lat="34.28824465815235" lon="-4.930629320385325"><ele>216.5</ele><time>2026-04-28T15:13:56Z</time></trkpt><trkpt lat="34.28821317995253" lon="-4.930450668942869"><ele>218.0</ele><time>2026-04-28T15:13:57Z</time></trkpt><trkpt lat="34.28818995810813" lon="-4.930268333830189"><ele>218.0</ele><time>2026-04-28T15:13:58Z</time></trkpt><trkpt lat="34.28816828818348" lon="-4.93008386090755"><ele>218.0</ele><time>2026-04-28T15:13:59Z</time></trkpt><trkpt lat="34.288137695648516" lon="-4.9299002290115235"><ele>218.0</ele><time>2026-04-28T15:14:00Z</time></trkpt><trkpt lat="34.28810100426606" lon="-4.929710663728151"><ele>218.0</ele><time>2026-04-28T15:14:01Z</time></trkpt><trkpt lat="34.28806671396596" lon="-4.929505673547156"><ele>218.0</ele><time>2026-04-28T15:14:02Z</time></trkpt><trkpt lat="34.288035454667714" lon="-4.929301764441377"><ele>218.0</ele><time>2026-04-28T15:14:03Z</time></trkpt><trkpt lat="34.28800424010392" lon="-4.929106465281969"><ele>219.0</ele><time>2026-04-28T15:14:04Z</time></trkpt><trkpt lat="34.287977221522716" lon="-4.928922531185244"><ele>220.0</ele><time>2026-04-28T15:14:05Z</time></trkpt><trkpt lat="34.287953589194736" lon="-4.928746487538731"><ele>221.0</ele><time>2026-04-28T15:14:06Z</time></trkpt><trkpt lat="34.287929393206234" lon="-4.928570931498236"><ele>222.0</ele><time>2026-04-28T15:14:07Z</time></trkpt><trkpt lat="34.287902912199584" lon="-4.928391203660981"><ele>223.5</ele><time>2026-04-28T15:14:08Z</time></trkpt><trkpt lat="34.28787511533083" lon="-4.92821100920498"><ele>225.0</ele><time>2026-04-28T15:14:09Z</time></trkpt><trkpt lat="34.287849909402865" lon="-4.928041671946649"><ele>226.5</ele><time>2026-04-28T15:14:10Z</time></trkpt><trkpt lat="34.28782330081068" lon="-4.927906824270258"><ele>228.0</ele><time>2026-04-28T15:14:11Z</time></trkpt><trkpt lat="34.28779871299435" lon="-4.927758126141026"><ele>228.0</ele><time>2026-04-28T15:14:12Z</time></trkpt><trkpt lat="34.287777583474266" lon="-4.927609526530391"><ele>228.0</ele><time>2026-04-28T15:14:13Z</time></trkpt><trkpt lat="34.28775212867343" lon="-4.927455695865288"><ele>228.0</ele><time>2026-04-28T15:14:14Z</time></trkpt><trkpt lat="34.28771433826128" lon="-4.927286561221727"><ele>228.0</ele><time>2026-04-28T15:14:15Z</time></trkpt><trkpt lat="34.28767211514748" lon="-4.927105306574572"><ele>231.25</ele><time>2026-04-28T15:14:16Z</time></trkpt><trkpt lat="34.287623297768164" lon="-4.926934944325281"><ele>234.5</ele><time>2026-04-28T15:14:17Z</time></trkpt><trkpt lat="34.28756375971519" lon="-4.926773492693985"><ele>237.75</ele><time>2026-04-28T15:14:18Z</time></trkpt><trkpt lat="34.28749849661325" lon="-4.9266291924686545"><ele>241.0</ele><time>2026-04-28T15:14:19Z</time></trkpt><trkpt lat="34.28743287214167" lon="-4.926497914016778"><ele>241.20000000000002</ele><time>2026-04-28T15:14:20Z</time></trkpt><trkpt lat="34.287377261202046" lon="-4.926389904522392"><ele>241.40000000000003</ele><time>2026-04-28T15:14:21Z</time></trkpt><trkpt lat="34.28732542677727" lon="-4.926284560848002"><ele>241.6</ele><time>2026-04-28T15:14:22Z</time></trkpt><trkpt lat="34.28726246823413" lon="-4.926202221552072"><ele>241.8</ele><time>2026-04-28T15:14:23Z</time></trkpt><trkpt lat="34.28719746106126" lon="-4.926124214979018"><ele>242.0</ele><time>2026-04-28T15:14:24Z</time></trkpt><trkpt lat="34.28713591592316" lon="-4.926037592446785"><ele>241.83333333333334</ele><time>2026-04-28T15:14:25Z</time></trkpt><trkpt lat="34.287090339879356" lon="-4.925939981138547"><ele>241.66666666666669</ele><time>2026-04-28T15:14:26Z</time></trkpt><trkpt lat="34.28705197882705" lon="-4.925840770086282"><ele>241.5</ele><time>2026-04-28T15:14:27Z</time></trkpt><trkpt lat="34.28700894450792" lon="-4.925746383205161"><ele>241.33333333333331</ele><time>2026-04-28T15:14:28Z</time></trkpt><trkpt lat="34.28696476807195" lon="-4.925664174764642"><ele>241.16666666666666</ele><time>2026-04-28T15:14:29Z</time></trkpt><trkpt lat="34.28692588002698" lon="-4.925582088822353"><ele>241.0</ele><time>2026-04-28T15:14:30Z</time></trkpt><trkpt lat="34.2868878532773" lon="-4.92551524559637"><ele>240.99999999999997</ele><time>2026-04-28T15:14:31Z</time></trkpt><trkpt lat="34.28685067238892" lon="-4.925452380461982"><ele>241.0</ele><time>2026-04-28T15:14:32Z</time></trkpt><trkpt lat="34.28679032946536" lon="-4.925321698836066"><ele>241.0</ele><time>2026-04-28T15:14:34Z</time></trkpt><trkpt lat="34.28674869221917" lon="-4.925254272117636"><ele>241.0</ele><time>2026-04-28T15:14:35Z</time></trkpt><trkpt lat="34.286705639972496" lon="-4.925174469705208"><ele>240.99999999999997</ele><time>2026-04-28T15:14:36Z</time></trkpt><trkpt lat="34.28666249540815" lon="-4.9250638939621005"><ele>241.0</ele><time>2026-04-28T15:14:37Z</time></trkpt><trkpt lat="34.28661537527445" lon="-4.92494501875371"><ele>239.33333333333331</ele><time>2026-04-28T15:14:38Z</time></trkpt><trkpt lat="34.28657413972309" lon="-4.92482607268532"><ele>237.66666666666666</ele><time>2026-04-28T15:14:39Z</time></trkpt><trkpt lat="34.28653485938546" lon="-4.924718480432313"><ele>236.0</ele><time>2026-04-28T15:14:40Z</time></trkpt><trkpt lat="34.28650113972228" lon="-4.924625960712565"><ele>234.33333333333331</ele><time>2026-04-28T15:14:41Z</time></trkpt><trkpt lat="34.28647911575306" lon="-4.924535447034026"><ele>232.66666666666666</ele><time>2026-04-28T15:14:42Z</time></trkpt><trkpt lat="34.28646676287693" lon="-4.924448500810053"><ele>231.0</ele><time>2026-04-28T15:14:43Z</time></trkpt><trkpt lat="34.28645377735149" lon="-4.924357804704822"><ele>231.0</ele><time>2026-04-28T15:14:44Z</time></trkpt><trkpt lat="34.28644354488648" lon="-4.92426352801532"><ele>231.00000000000003</ele><time>2026-04-28T15:14:45Z</time></trkpt><trkpt lat="34.2864332677367" lon="-4.924173865352778"><ele>231.00000000000003</ele><time>2026-04-28T15:14:46Z</time></trkpt><trkpt lat="34.28642171327474" lon="-4.924071839470836"><ele>231.0</ele><time>2026-04-28T15:14:47Z</time></trkpt><trkpt lat="34.28641117225764" lon="-4.9239291133568805"><ele>231.0</ele><time>2026-04-28T15:14:48Z</time></trkpt><trkpt lat="34.286402463378714" lon="-4.92375563819222"><ele>233.33333333333331</ele><time>2026-04-28T15:14:49Z</time></trkpt><trkpt lat="34.286386232135285" lon="-4.923549470275696"><ele>235.66666666666666</ele><time>2026-04-28T15:14:50Z</time></trkpt><trkpt lat="34.28637107990586" lon="-4.923324339194527"><ele>238.0</ele><time>2026-04-28T15:14:51Z</time></trkpt><trkpt lat="34.286358453168745" lon="-4.9231151476867625"><ele>239.66666666666666</ele><time>2026-04-28T15:14:52Z</time></trkpt><trkpt lat="34.286343738722856" lon="-4.922922591649494"><ele>241.33333333333331</ele><time>2026-04-28T15:14:53Z</time></trkpt><trkpt lat="34.286316704141015" lon="-4.922722099287804"><ele>243.0</ele><time>2026-04-28T15:14:54Z</time></trkpt><trkpt lat="34.28628128581669" lon="-4.922503384639304"><ele>243.0</ele><time>2026-04-28T15:14:55Z</time></trkpt><trkpt lat="34.28626159996999" lon="-4.922269035345531"><ele>243.0</ele><time>2026-04-28T15:14:56Z</time></trkpt><trkpt lat="34.28626263434879" lon="-4.922032284444671"><ele>243.0</ele><time>2026-04-28T15:14:57Z</time></trkpt><trkpt lat="34.28627947774648" lon="-4.921784290775353"><ele>242.0</ele><time>2026-04-28T15:14:58Z</time></trkpt><trkpt lat="34.28629490420416" lon="-4.921534542473901"><ele>241.0</ele><time>2026-04-28T15:14:59Z</time></trkpt><trkpt lat="34.28630700992956" lon="-4.9212920133356635"><ele>240.0</ele><time>2026-04-28T15:15:00Z</time></trkpt><trkpt lat="34.286314689727895" lon="-4.92105539921418"><ele>241.66666666666669</ele><time>2026-04-28T15:15:01Z</time></trkpt><trkpt lat="34.28631726804522" lon="-4.9208277198252555"><ele>243.33333333333334</ele><time>2026-04-28T15:15:02Z</time></trkpt><trkpt lat="34.28631376493426" lon="-4.92059999287491"><ele>245.0</ele><time>2026-04-28T15:15:03Z</time></trkpt><trkpt lat="34.28630949893066" lon="-4.920368761972049"><ele>245.0</ele><time>2026-04-28T15:15:04Z</time></trkpt><trkpt lat="34.28630552380761" lon="-4.920136357876366"><ele>245.0</ele><time>2026-04-28T15:15:05Z</time></trkpt><trkpt lat="34.28630125353673" lon="-4.919910799984304"><ele>245.0</ele><time>2026-04-28T15:15:06Z</time></trkpt><trkpt lat="34.28629175849232" lon="-4.919705543581372"><ele>245.0</ele><time>2026-04-28T15:15:07Z</time></trkpt><trkpt lat="34.28627637715877" lon="-4.91949700962979"><ele>245.0</ele><time>2026-04-28T15:15:08Z</time></trkpt><trkpt lat="34.28626365642616" lon="-4.9192860869232335"><ele>245.0</ele><time>2026-04-28T15:15:09Z</time></trkpt><trkpt lat="34.286260096716255" lon="-4.919078050991828"><ele>246.0</ele><time>2026-04-28T15:15:10Z</time></trkpt><trkpt lat="34.28625196405035" lon="-4.91888180183358"><ele>247.0</ele><time>2026-04-28T15:15:11Z</time></trkpt><trkpt lat="34.28623987315468" lon="-4.918674395834237"><ele>248.0</ele><time>2026-04-28T15:15:12Z</time></trkpt><trkpt lat="34.2862343509577" lon="-4.918459632721444"><ele>249.66666666666669</ele><time>2026-04-28T15:15:13Z</time></trkpt><trkpt lat="34.286230266228436" lon="-4.918249137218229"><ele>251.33333333333331</ele><time>2026-04-28T15:15:14Z</time></trkpt><trkpt lat="34.286227227031446" lon="-4.918040798652771"><ele>253.0</ele><time>2026-04-28T15:15:15Z</time></trkpt><trkpt lat="34.28622115328258" lon="-4.917846822191458"><ele>253.0</ele><time>2026-04-28T15:15:16Z</time></trkpt><trkpt lat="34.2862004200855" lon="-4.917655888328635"><ele>253.0</ele><time>2026-04-28T15:15:17Z</time></trkpt><trkpt lat="34.2861494986443" lon="-4.917467776106537"><ele>253.0</ele><time>2026-04-28T15:15:18Z</time></trkpt><trkpt lat="34.28606140264741" lon="-4.917284161662742"><ele>255.66666666666666</ele><time>2026-04-28T15:15:19Z</time></trkpt><trkpt lat="34.285935627489444" lon="-4.917109191808213"><ele>258.3333333333333</ele><time>2026-04-28T15:15:20Z</time></trkpt><trkpt lat="34.285824965305586" lon="-4.9169438650453"><ele>261.0</ele><time>2026-04-28T15:15:21Z</time></trkpt><trkpt lat="34.28571181413679" lon="-4.916770420086841"><ele>262.3333333333333</ele><time>2026-04-28T15:15:22Z</time></trkpt><trkpt lat="34.28560688634235" lon="-4.916593646589084"><ele>263.66666666666663</ele><time>2026-04-28T15:15:23Z</time></trkpt><trkpt lat="34.285492121728005" lon="-4.916416780551076"><ele>265.0</ele><time>2026-04-28T15:15:24Z</time></trkpt><trkpt lat="34.28537372012751" lon="-4.916233001814648"><ele>265.0</ele><time>2026-04-28T15:15:25Z</time></trkpt><trkpt lat="34.28525715909984" lon="-4.916045517689646"><ele>265.0</ele><time>2026-04-28T15:15:26Z</time></trkpt><trkpt lat="34.285131835017786" lon="-4.915868346969436"><ele>265.0</ele><time>2026-04-28T15:15:27Z</time></trkpt><trkpt lat="34.285008348722435" lon="-4.915688746363152"><ele>266.3333333333333</ele><time>2026-04-28T15:15:28Z</time></trkpt><trkpt lat="34.28488642354093" lon="-4.915505176673344"><ele>267.6666666666667</ele><time>2026-04-28T15:15:29Z</time></trkpt><trkpt lat="34.28476846588373" lon="-4.915320299629312"><ele>269.0</ele><time>2026-04-28T15:15:30Z</time></trkpt><trkpt lat="34.2846579366549" lon="-4.9151418211235764"><ele>273.0</ele><time>2026-04-28T15:15:31Z</time></trkpt><trkpt lat="34.28454497290759" lon="-4.914961325951078"><ele>277.0</ele><time>2026-04-28T15:15:32Z</time></trkpt><trkpt lat="34.28442846631179" lon="-4.914775755675729"><ele>281.0</ele><time>2026-04-28T15:15:33Z</time></trkpt><trkpt lat="34.28431261472974" lon="-4.914597870377578"><ele>281.0</ele><time>2026-04-28T15:15:34Z</time></trkpt><trkpt lat="34.284205437148216" lon="-4.914420271999872"><ele>281.0</ele><time>2026-04-28T15:15:35Z</time></trkpt><trkpt lat="34.28409198897255" lon="-4.914249541249022"><ele>281.0</ele><time>2026-04-28T15:15:36Z</time></trkpt><trkpt lat="34.283954300626235" lon="-4.914122588598879"><ele>284.6666666666667</ele><time>2026-04-28T15:15:37Z</time></trkpt><trkpt lat="34.28380458115924" lon="-4.914024887588169"><ele>288.3333333333333</ele><time>2026-04-28T15:15:38Z</time></trkpt><trkpt lat="34.28364993114309" lon="-4.9139566056233965"><ele>292.0</ele><time>2026-04-28T15:15:39Z</time></trkpt><trkpt lat="34.28348903288348" lon="-4.9139300108147825"><ele>292.0</ele><time>2026-04-28T15:15:40Z</time></trkpt><trkpt lat="34.2833078141071" lon="-4.913932315736231"><ele>292.0</ele><time>2026-04-28T15:15:41Z</time></trkpt><trkpt lat="34.283121722130524" lon="-4.9139749638274814"><ele>292.0</ele><time>2026-04-28T15:15:42Z</time></trkpt><trkpt lat="34.28292137934661" lon="-4.914022234007007"><ele>295.0</ele><time>2026-04-28T15:15:43Z</time></trkpt><trkpt lat="34.28271596055953" lon="-4.914074614019504"><ele>298.0</ele><time>2026-04-28T15:15:44Z</time></trkpt><trkpt lat="34.28251062343845" lon="-4.914131045366695"><ele>301.0</ele><time>2026-04-28T15:15:45Z</time></trkpt><trkpt lat="34.28230869649282" lon="-4.91418653947143"><ele>302.66666666666663</ele><time>2026-04-28T15:15:46Z</time></trkpt><trkpt lat="34.282108026892246" lon="-4.914231212271207"><ele>304.3333333333333</ele><time>2026-04-28T15:15:47Z</time></trkpt><trkpt lat="34.281917303342" lon="-4.914271661745667"><ele>306.0</ele><time>2026-04-28T15:15:48Z</time></trkpt><trkpt lat="34.28172936363842" lon="-4.914311409971783"><ele>306.0</ele><time>2026-04-28T15:15:49Z</time></trkpt><trkpt lat="34.28155067864302" lon="-4.914350974257825"><ele>306.0</ele><time>2026-04-28T15:15:50Z</time></trkpt><trkpt lat="34.28137100968782" lon="-4.914391602403594"><ele>306.0</ele><time>2026-04-28T15:15:51Z</time></trkpt><trkpt lat="34.281183030160385" lon="-4.914419569816892"><ele>308.0</ele><time>2026-04-28T15:15:52Z</time></trkpt><trkpt lat="34.28099627744297" lon="-4.914469258140115"><ele>310.0</ele><time>2026-04-28T15:15:53Z</time></trkpt><trkpt lat="34.280814104915294" lon="-4.914511874705072"><ele>312.0</ele><time>2026-04-28T15:15:54Z</time></trkpt><trkpt lat="34.28063709073343" lon="-4.914548132585942"><ele>309.6666666666667</ele><time>2026-04-28T15:15:55Z</time></trkpt><trkpt lat="34.280460122362705" lon="-4.914582475856358"><ele>307.33333333333337</ele><time>2026-04-28T15:15:56Z</time></trkpt><trkpt lat="34.280279142460685" lon="-4.914598730955924"><ele>305.0</ele><time>2026-04-28T15:15:57Z</time></trkpt><trkpt lat="34.28009742201545" lon="-4.914585257076476"><ele>305.0</ele><time>2026-04-28T15:15:58Z</time></trkpt><trkpt lat="34.27991220128747" lon="-4.914525861069439"><ele>305.0</ele><time>2026-04-28T15:15:59Z</time></trkpt><trkpt lat="34.27974344916087" lon="-4.914437477137634"><ele>305.0</ele><time>2026-04-28T15:16:00Z</time></trkpt><trkpt lat="34.27959788181309" lon="-4.914342907279728"><ele>304.25</ele><time>2026-04-28T15:16:01Z</time></trkpt><trkpt lat="34.27946952214345" lon="-4.914269786150688"><ele>303.5</ele><time>2026-04-28T15:16:02Z</time></trkpt><trkpt lat="34.279345506719984" lon="-4.914212058082873"><ele>302.75</ele><time>2026-04-28T15:16:03Z</time></trkpt><trkpt lat="34.27921433471235" lon="-4.91415298243866"><ele>302.0</ele><time>2026-04-28T15:16:04Z</time></trkpt><trkpt lat="34.27907980640914" lon="-4.914076641747406"><ele>296.6666666666667</ele><time>2026-04-28T15:16:05Z</time></trkpt><trkpt lat="34.27893786978436" lon="-4.914008298120895"><ele>291.3333333333333</ele><time>2026-04-28T15:16:06Z</time></trkpt><trkpt lat="34.27880218726744" lon="-4.913950978024483"><ele>286.0</ele><time>2026-04-28T15:16:07Z</time></trkpt><trkpt lat="34.27865834488476" lon="-4.913883401014105"><ele>285.75</ele><time>2026-04-28T15:16:08Z</time></trkpt><trkpt lat="34.27853072292749" lon="-4.913814031972195"><ele>285.5</ele><time>2026-04-28T15:16:09Z</time></trkpt><trkpt lat="34.278407544613046" lon="-4.913733380202107"><ele>285.25</ele><time>2026-04-28T15:16:10Z</time></trkpt><trkpt lat="34.27830266276678" lon="-4.913620918469211"><ele>285.0</ele><time>2026-04-28T15:16:11Z</time></trkpt><trkpt lat="34.27821818818486" lon="-4.913487667105609"><ele>283.25</ele><time>2026-04-28T15:16:12Z</time></trkpt><trkpt lat="34.27813304966437" lon="-4.913347254393974"><ele>281.5</ele><time>2026-04-28T15:16:13Z</time></trkpt><trkpt lat="34.278051569269884" lon="-4.913209437778192"><ele>279.75</ele><time>2026-04-28T15:16:14Z</time></trkpt><trkpt lat="34.27796821919092" lon="-4.913071604165487"><ele>278.0</ele><time>2026-04-28T15:16:15Z</time></trkpt><trkpt lat="34.27788649727191" lon="-4.912932650275604"><ele>278.0</ele><time>2026-04-28T15:16:16Z</time></trkpt><trkpt lat="34.2778090423208" lon="-4.912787691531463"><ele>278.0</ele><time>2026-04-28T15:16:17Z</time></trkpt><trkpt lat="34.27773478173055" lon="-4.912645751609087"><ele>278.0</ele><time>2026-04-28T15:16:18Z</time></trkpt><trkpt lat="34.27766054747616" lon="-4.912503590281656"><ele>278.0</ele><time>2026-04-28T15:16:19Z</time></trkpt><trkpt lat="34.27758882130563" lon="-4.912362489270425"><ele>275.0</ele><time>2026-04-28T15:16:20Z</time></trkpt><trkpt lat="34.27751515491904" lon="-4.912218388116867"><ele>272.0</ele><time>2026-04-28T15:16:21Z</time></trkpt><trkpt lat="34.277440632759216" lon="-4.912083412693079"><ele>269.0</ele><time>2026-04-28T15:16:22Z</time></trkpt><trkpt lat="34.27736296600784" lon="-4.911951360655839"><ele>266.0</ele><time>2026-04-28T15:16:23Z</time></trkpt><trkpt lat="34.27729213386969" lon="-4.911822986634633"><ele>262.5</ele><time>2026-04-28T15:16:24Z</time></trkpt><trkpt lat="34.27721928676974" lon="-4.9116942406413395"><ele>259.0</ele><time>2026-04-28T15:16:25Z</time></trkpt><trkpt lat="34.27714640450992" lon="-4.911567700933557"><ele>255.5</ele><time>2026-04-28T15:16:26Z</time></trkpt><trkpt lat="34.27707109445064" lon="-4.9114427585071905"><ele>252.0</ele><time>2026-04-28T15:16:27Z</time></trkpt><trkpt lat="34.27700663390801" lon="-4.911343427293017"><ele>252.0</ele><time>2026-04-28T15:16:28Z</time></trkpt><trkpt lat="34.27694748524528" lon="-4.911248653431544"><ele>252.0</ele><time>2026-04-28T15:16:29Z</time></trkpt><trkpt lat="34.27687987264153" lon="-4.911151943032581"><ele>252.0</ele><time>2026-04-28T15:16:30Z</time></trkpt><trkpt lat="34.27680799311895" lon="-4.911060085652014"><ele>252.0</ele><time>2026-04-28T15:16:31Z</time></trkpt><trkpt lat="34.27673588030896" lon="-4.910970390590096"><ele>252.0</ele><time>2026-04-28T15:16:32Z</time></trkpt><trkpt lat="34.276659135965964" lon="-4.910881199110978"><ele>249.39999999999998</ele><time>2026-04-28T15:16:33Z</time></trkpt><trkpt lat="34.27657088039617" lon="-4.910815332589665"><ele>246.79999999999998</ele><time>2026-04-28T15:16:34Z</time></trkpt><trkpt lat="34.276471711191476" lon="-4.910789291934243"><ele>244.2</ele><time>2026-04-28T15:16:35Z</time></trkpt><trkpt lat="34.276367586519406" lon="-4.910792374466284"><ele>241.6</ele><time>2026-04-28T15:16:36Z</time></trkpt><trkpt lat="34.27626576756982" lon="-4.910828978391999"><ele>239.0</ele><time>2026-04-28T15:16:37Z</time></trkpt><trkpt lat="34.27616606990339" lon="-4.91087480278447"><ele>239.2</ele><time>2026-04-28T15:16:38Z</time></trkpt><trkpt lat="34.276064154389594" lon="-4.91091759866342"><ele>239.39999999999998</ele><time>2026-04-28T15:16:39Z</time></trkpt><trkpt lat="34.27596654549538" lon="-4.910970754675039"><ele>239.6</ele><time>2026-04-28T15:16:40Z</time></trkpt><trkpt lat="34.27587252514544" lon="-4.91102626445245"><ele>239.8</ele><time>2026-04-28T15:16:41Z</time></trkpt><trkpt lat="34.275793022379034" lon="-4.911082813039164"><ele>240.0</ele><time>2026-04-28T15:16:42Z</time></trkpt><trkpt lat="34.27572078362731" lon="-4.911125414906704"><ele>240.0</ele><time>2026-04-28T15:16:43Z</time></trkpt><trkpt lat="34.27566171668511" lon="-4.911162426472706"><ele>240.0</ele><time>2026-04-28T15:16:44Z</time></trkpt><trkpt lat="34.27557713128384" lon="-4.911216741705527"><ele>240.0</ele><time>2026-04-28T15:16:46Z</time></trkpt><trkpt lat="34.275479405167474" lon="-4.911271077616713"><ele>240.0</ele><time>2026-04-28T15:16:49Z</time></trkpt><trkpt lat="34.275393324741074" lon="-4.9113215078035966"><ele>240.0</ele><time>2026-04-28T15:16:51Z</time></trkpt><trkpt lat="34.27533212678423" lon="-4.911348936456096"><ele>240.0</ele><time>2026-04-28T15:16:52Z</time></trkpt><trkpt lat="34.27526172579532" lon="-4.91137668335261"><ele>237.5</ele><time>2026-04-28T15:16:53Z</time></trkpt><trkpt lat="34.2751754340417" lon="-4.911407740671527"><ele>235.0</ele><time>2026-04-28T15:16:54Z</time></trkpt><trkpt lat="34.27508785739497" lon="-4.9114424781561175"><ele>232.5</ele><time>2026-04-28T15:16:55Z</time></trkpt><trkpt lat="34.275009362447406" lon="-4.911478793325348"><ele>230.0</ele><time>2026-04-28T15:16:56Z</time></trkpt><trkpt lat="34.2749365974795" lon="-4.911505495865779"><ele>227.5</ele><time>2026-04-28T15:16:57Z</time></trkpt><trkpt lat="34.27486499252186" lon="-4.9115007019421775"><ele>225.0</ele><time>2026-04-28T15:16:58Z</time></trkpt><trkpt lat="34.27480023280752" lon="-4.911449246852316"><ele>225.0</ele><time>2026-04-28T15:16:59Z</time></trkpt><trkpt lat="34.27474689606551" lon="-4.911372507737649"><ele>225.0</ele><time>2026-04-28T15:17:00Z</time></trkpt><trkpt lat="34.274731796458944" lon="-4.91127338045604"><ele>225.0</ele><time>2026-04-28T15:17:01Z</time></trkpt><trkpt lat="34.27474403491671" lon="-4.911173579662328"><ele>225.0</ele><time>2026-04-28T15:17:02Z</time></trkpt><trkpt lat="34.27479438026436" lon="-4.911079435842488"><ele>225.0</ele><time>2026-04-28T15:17:03Z</time></trkpt><trkpt lat="34.274865148716266" lon="-4.910979712500719"><ele>223.6</ele><time>2026-04-28T15:17:04Z</time></trkpt><trkpt lat="34.27492314252086" lon="-4.910876633413835"><ele>222.2</ele><time>2026-04-28T15:17:05Z</time></trkpt><trkpt lat="34.27498161579691" lon="-4.910784734143334"><ele>220.8</ele><time>2026-04-28T15:17:06Z</time></trkpt><trkpt lat="34.275032906543764" lon="-4.910682436395394"><ele>219.4</ele><time>2026-04-28T15:17:07Z</time></trkpt><trkpt lat="34.27506689958892" lon="-4.910569145667517"><ele>218.0</ele><time>2026-04-28T15:17:08Z</time></trkpt><trkpt lat="34.275082726618365" lon="-4.910449824658627"><ele>218.0</ele><time>2026-04-28T15:17:09Z</time></trkpt><trkpt lat="34.275073942892305" lon="-4.9103243649506965"><ele>218.0</ele><time>2026-04-28T15:17:10Z</time></trkpt><trkpt lat="34.27502341107807" lon="-4.910192354450283"><ele>218.0</ele><time>2026-04-28T15:17:11Z</time></trkpt><trkpt lat="34.27495702711075" lon="-4.910056093104341"><ele>218.0</ele><time>2026-04-28T15:17:12Z</time></trkpt><trkpt lat="34.27488423356962" lon="-4.909907282117677"><ele>216.25</ele><time>2026-04-28T15:17:13Z</time></trkpt><trkpt lat="34.2748114600257" lon="-4.909754946207782"><ele>214.5</ele><time>2026-04-28T15:17:14Z</time></trkpt><trkpt lat="34.27474730761619" lon="-4.909608532279074"><ele>212.75</ele><time>2026-04-28T15:17:15Z</time></trkpt><trkpt lat="34.274675453017174" lon="-4.909476336229894"><ele>211.0</ele><time>2026-04-28T15:17:16Z</time></trkpt><trkpt lat="34.274591477262874" lon="-4.909353934806103"><ele>206.5</ele><time>2026-04-28T15:17:17Z</time></trkpt><trkpt lat="34.274498859232224" lon="-4.9092507831304735"><ele>202.0</ele><time>2026-04-28T15:17:18Z</time></trkpt><trkpt lat="34.27440562550819" lon="-4.909149283033361"><ele>197.5</ele><time>2026-04-28T15:17:19Z</time></trkpt><trkpt lat="34.2743127430493" lon="-4.909050153505255"><ele>193.0</ele><time>2026-04-28T15:17:20Z</time></trkpt><trkpt lat="34.27421996122626" lon="-4.908959474015717"><ele>193.0</ele><time>2026-04-28T15:17:21Z</time></trkpt><trkpt lat="34.27412397008367" lon="-4.908874606772135"><ele>193.0</ele><time>2026-04-28T15:17:22Z</time></trkpt><trkpt lat="34.27402794238914" lon="-4.908794440899919"><ele>193.0</ele><time>2026-04-28T15:17:23Z</time></trkpt><trkpt lat="34.27394091787055" lon="-4.908707570102583"><ele>193.0</ele><time>2026-04-28T15:17:24Z</time></trkpt><trkpt lat="34.27387866547091" lon="-4.908599710808803"><ele>189.60000000000002</ele><time>2026-04-28T15:17:25Z</time></trkpt><trkpt lat="34.27383918161696" lon="-4.9084796543311064"><ele>186.20000000000002</ele><time>2026-04-28T15:17:26Z</time></trkpt><trkpt lat="34.27381907967122" lon="-4.908348329032969"><ele>182.8</ele><time>2026-04-28T15:17:27Z</time></trkpt><trkpt lat="34.27381859292759" lon="-4.908218766413886"><ele>179.4</ele><time>2026-04-28T15:17:28Z</time></trkpt><trkpt lat="34.273825391685584" lon="-4.9080927383833615"><ele>176.0</ele><time>2026-04-28T15:17:29Z</time></trkpt><trkpt lat="34.273859929117314" lon="-4.90795003791539"><ele>175.75</ele><time>2026-04-28T15:17:30Z</time></trkpt><trkpt lat="34.27390988876524" lon="-4.9077953681885464"><ele>175.5</ele><time>2026-04-28T15:17:31Z</time></trkpt><trkpt lat="34.273963362228386" lon="-4.907642077390045"><ele>175.25</ele><time>2026-04-28T15:17:32Z</time></trkpt><trkpt lat="34.27401402750929" lon="-4.907502164466323"><ele>175.0</ele><time>2026-04-28T15:17:33Z</time></trkpt><trkpt lat="34.274047070981965" lon="-4.907367678708938"><ele>177.75</ele><time>2026-04-28T15:17:34Z</time></trkpt><trkpt lat="34.27407021812326" lon="-4.907236846872545"><ele>180.5</ele><time>2026-04-28T15:17:35Z</time></trkpt><trkpt lat="34.27410715569872" lon="-4.907098592481249"><ele>183.25</ele><time>2026-04-28T15:17:36Z</time></trkpt><trkpt lat="34.274170098788886" lon="-4.906989029228474"><ele>186.0</ele><time>2026-04-28T15:17:37Z</time></trkpt><trkpt lat="34.27425246826397" lon="-4.906897733626292"><ele>186.0</ele><time>2026-04-28T15:17:38Z</time></trkpt><trkpt lat="34.274365014425186" lon="-4.906825088025709"><ele>186.0</ele><time>2026-04-28T15:17:39Z</time></trkpt><trkpt lat="34.27449930891534" lon="-4.906768388984223"><ele>186.0</ele><time>2026-04-28T15:17:40Z</time></trkpt><trkpt lat="34.27462633826937" lon="-4.906723603119218"><ele>186.0</ele><time>2026-04-28T15:17:41Z</time></trkpt><trkpt lat="34.27474583753583" lon="-4.906681771791708"><ele>183.8</ele><time>2026-04-28T15:17:42Z</time></trkpt><trkpt lat="34.274855135218765" lon="-4.90663021617636"><ele>181.60000000000002</ele><time>2026-04-28T15:17:43Z</time></trkpt><trkpt lat="34.27493465742229" lon="-4.906556649925765"><ele>179.4</ele><time>2026-04-28T15:17:44Z</time></trkpt><trkpt lat="34.27497499240118" lon="-4.906453772071251"><ele>177.2</ele><time>2026-04-28T15:17:45Z</time></trkpt><trkpt lat="34.27497499727972" lon="-4.906330141430206"><ele>175.0</ele><time>2026-04-28T15:17:46Z</time></trkpt><trkpt lat="34.27492557709324" lon="-4.906196634574009"><ele>175.0</ele><time>2026-04-28T15:17:47Z</time></trkpt><trkpt lat="34.27484850688383" lon="-4.906061955385006"><ele>175.0</ele><time>2026-04-28T15:17:48Z</time></trkpt><trkpt lat="34.27475366791344" lon="-4.905931958884155"><ele>175.0</ele><time>2026-04-28T15:17:49Z</time></trkpt><trkpt lat="34.274663749783095" lon="-4.905814192171008"><ele>175.0</ele><time>2026-04-28T15:17:50Z</time></trkpt><trkpt lat="34.27458017608378" lon="-4.905693104763571"><ele>172.75</ele><time>2026-04-28T15:17:51Z</time></trkpt><trkpt lat="34.27449270431653" lon="-4.905588440369299"><ele>170.5</ele><time>2026-04-28T15:17:52Z</time></trkpt><trkpt lat="34.27439289898239" lon="-4.9054913619115394"><ele>168.25</ele><time>2026-04-28T15:17:53Z</time></trkpt><trkpt lat="34.27429303252378" lon="-4.905414349879712"><ele>166.0</ele><time>2026-04-28T15:17:54Z</time></trkpt><trkpt lat="34.2741858584937" lon="-4.905355624139672"><ele>166.0</ele><time>2026-04-28T15:17:55Z</time></trkpt><trkpt lat="34.274075147062604" lon="-4.905311079751525"><ele>166.0</ele><time>2026-04-28T15:17:56Z</time></trkpt><trkpt lat="34.27396258762936" lon="-4.905278025177319"><ele>166.0</ele><time>2026-04-28T15:17:57Z</time></trkpt><trkpt lat="34.27384802163448" lon="-4.905252439038033"><ele>166.0</ele><time>2026-04-28T15:17:58Z</time></trkpt><trkpt lat="34.273736420498615" lon="-4.905222032260713"><ele>164.0</ele><time>2026-04-28T15:17:59Z</time></trkpt><trkpt lat="34.27362466890627" lon="-4.905192533745562"><ele>162.0</ele><time>2026-04-28T15:18:00Z</time></trkpt><trkpt lat="34.273511653257664" lon="-4.9051678901896"><ele>160.0</ele><time>2026-04-28T15:18:01Z</time></trkpt><trkpt lat="34.27340038398219" lon="-4.905175791896073"><ele>158.0</ele><time>2026-04-28T15:18:02Z</time></trkpt><trkpt lat="34.273293846230004" lon="-4.905219607501767"><ele>158.0</ele><time>2026-04-28T15:18:03Z</time></trkpt><trkpt lat="34.27320396640003" lon="-4.9052993228661865"><ele>158.0</ele><time>2026-04-28T15:18:04Z</time></trkpt><trkpt lat="34.27309968639699" lon="-4.9053481450228835"><ele>158.0</ele><time>2026-04-28T15:18:05Z</time></trkpt><trkpt lat="34.27300800496279" lon="-4.905417711479253"><ele>158.0</ele><time>2026-04-28T15:18:06Z</time></trkpt><trkpt lat="34.27291643435282" lon="-4.9054804665792595"><ele>158.0</ele><time>2026-04-28T15:18:07Z</time></trkpt><trkpt lat="34.27281962756768" lon="-4.905520198341522"><ele>155.6</ele><time>2026-04-28T15:18:08Z</time></trkpt><trkpt lat="34.2727239133649" lon="-4.9055261724580514"><ele>153.20000000000002</ele><time>2026-04-28T15:18:09Z</time></trkpt><trkpt lat="34.27262976525939" lon="-4.9055145890011795"><ele>150.8</ele><time>2026-04-28T15:18:10Z</time></trkpt><trkpt lat="34.27254278513928" lon="-4.9054771162477815"><ele>148.4</ele><time>2026-04-28T15:18:11Z</time></trkpt><trkpt lat="34.27246419860663" lon="-4.905416479523285"><ele>146.0</ele><time>2026-04-28T15:18:12Z</time></trkpt><trkpt lat="34.27240400314709" lon="-4.905331722343325"><ele>146.0</ele><time>2026-04-28T15:18:13Z</time></trkpt><trkpt lat="34.27236092280833" lon="-4.905230261293831"><ele>146.0</ele><time>2026-04-28T15:18:14Z</time></trkpt><trkpt lat="34.27233247412414" lon="-4.905108918480744"><ele>146.0</ele><time>2026-04-28T15:18:15Z</time></trkpt><trkpt lat="34.27232138805265" lon="-4.904974181165817"><ele>146.0</ele><time>2026-04-28T15:18:16Z</time></trkpt><trkpt lat="34.27231110881221" lon="-4.904825600880876"><ele>146.0</ele><time>2026-04-28T15:18:17Z</time></trkpt><trkpt lat="34.2723013649372" lon="-4.904668512893265"><ele>145.25</ele><time>2026-04-28T15:18:18Z</time></trkpt><trkpt lat="34.27230170626267" lon="-4.904516137950672"><ele>144.5</ele><time>2026-04-28T15:18:19Z</time></trkpt><trkpt lat="34.27230524747525" lon="-4.904372136173683"><ele>143.75</ele><time>2026-04-28T15:18:20Z</time></trkpt><trkpt lat="34.272303144530014" lon="-4.904225526273496"><ele>143.0</ele><time>2026-04-28T15:18:21Z</time></trkpt><trkpt lat="34.272302248849435" lon="-4.904080948484076"><ele>142.25</ele><time>2026-04-28T15:18:22Z</time></trkpt><trkpt lat="34.27230314406979" lon="-4.903934624332247"><ele>141.5</ele><time>2026-04-28T15:18:23Z</time></trkpt><trkpt lat="34.27229976790812" lon="-4.903786432300054"><ele>140.75</ele><time>2026-04-28T15:18:24Z</time></trkpt><trkpt lat="34.27229894035092" lon="-4.903634008838992"><ele>140.0</ele><time>2026-04-28T15:18:25Z</time></trkpt><trkpt lat="34.27229824524548" lon="-4.903476627086995"><ele>140.5</ele><time>2026-04-28T15:18:26Z</time></trkpt><trkpt lat="34.27229704536354" lon="-4.903311860823544"><ele>141.0</ele><time>2026-04-28T15:18:27Z</time></trkpt><trkpt lat="34.27229789567812" lon="-4.903142039406305"><ele>141.5</ele><time>2026-04-28T15:18:28Z</time></trkpt><trkpt lat="34.272297799544155" lon="-4.902970378764471"><ele>142.0</ele><time>2026-04-28T15:18:29Z</time></trkpt><trkpt lat="34.272295778043656" lon="-4.902805810704915"><ele>142.0</ele><time>2026-04-28T15:18:30Z</time></trkpt><trkpt lat="34.272285561484075" lon="-4.902650363331353"><ele>142.0</ele><time>2026-04-28T15:18:31Z</time></trkpt><trkpt lat="34.2722559476083" lon="-4.90249761884702"><ele>142.0</ele><time>2026-04-28T15:18:32Z</time></trkpt><trkpt lat="34.27221167021012" lon="-4.902342618592475"><ele>142.0</ele><time>2026-04-28T15:18:33Z</time></trkpt><trkpt lat="34.27215055283754" lon="-4.902185198873142"><ele>141.33333333333334</ele><time>2026-04-28T15:18:34Z</time></trkpt><trkpt lat="34.272072075518004" lon="-4.902033999228481"><ele>140.66666666666666</ele><time>2026-04-28T15:18:35Z</time></trkpt><trkpt lat="34.2719895092573" lon="-4.901878214523411"><ele>140.0</ele><time>2026-04-28T15:18:36Z</time></trkpt><trkpt lat="34.27190175357466" lon="-4.901720213146179"><ele>139.33333333333331</ele><time>2026-04-28T15:18:37Z</time></trkpt><trkpt lat="34.271811182592366" lon="-4.901563257709133"><ele>138.66666666666666</ele><time>2026-04-28T15:18:38Z</time></trkpt><trkpt lat="34.27171993468113" lon="-4.901408142198931"><ele>138.0</ele><time>2026-04-28T15:18:39Z</time></trkpt><trkpt lat="34.27163189661751" lon="-4.901251697594771"><ele>138.0</ele><time>2026-04-28T15:18:40Z</time></trkpt><trkpt lat="34.27154594276199" lon="-4.901107236934634"><ele>138.0</ele><time>2026-04-28T15:18:41Z</time></trkpt><trkpt lat="34.271463295717815" lon="-4.900968909076556"><ele>138.0</ele><time>2026-04-28T15:18:42Z</time></trkpt><trkpt lat="34.27137942223163" lon="-4.900826478317389"><ele>138.0</ele><time>2026-04-28T15:18:43Z</time></trkpt><trkpt lat="34.27130139466728" lon="-4.900685226789062"><ele>138.0</ele><time>2026-04-28T15:18:44Z</time></trkpt><trkpt lat="34.27122490426" lon="-4.900546074326176"><ele>138.0</ele><time>2026-04-28T15:18:45Z</time></trkpt><trkpt lat="34.27114855527954" lon="-4.900411577101891"><ele>138.0</ele><time>2026-04-28T15:18:46Z</time></trkpt><trkpt lat="34.271071782279826" lon="-4.900283100361508"><ele>138.0</ele><time>2026-04-28T15:18:47Z</time></trkpt><trkpt lat="34.27099975931922" lon="-4.900161142829102"><ele>138.20000000000002</ele><time>2026-04-28T15:18:48Z</time></trkpt><trkpt lat="34.27092995190021" lon="-4.900044670699836"><ele>138.4</ele><time>2026-04-28T15:18:49Z</time></trkpt><trkpt lat="34.27086611882595" lon="-4.899934330983832"><ele>138.60000000000002</ele><time>2026-04-28T15:18:50Z</time></trkpt><trkpt lat="34.2708075266909" lon="-4.89982917332125"><ele>138.8</ele><time>2026-04-28T15:18:51Z</time></trkpt><trkpt lat="34.2707519625808" lon="-4.89973140258573"><ele>139.0</ele><time>2026-04-28T15:18:52Z</time></trkpt><trkpt lat="34.270699938439485" lon="-4.8996352829273775"><ele>139.0</ele><time>2026-04-28T15:18:53Z</time></trkpt><trkpt lat="34.27065148739433" lon="-4.899545870447195"><ele>139.0</ele><time>2026-04-28T15:18:54Z</time></trkpt><trkpt lat="34.2706048737638" lon="-4.899462198639104"><ele>139.0</ele><time>2026-04-28T15:18:55Z</time></trkpt><trkpt lat="34.2705610113519" lon="-4.8993857591981955"><ele>139.0</ele><time>2026-04-28T15:18:56Z</time></trkpt><trkpt lat="34.27051741286021" lon="-4.899313603259375"><ele>139.0</ele><time>2026-04-28T15:18:57Z</time></trkpt><trkpt lat="34.270475045251764" lon="-4.899243938347536"><ele>139.0</ele><time>2026-04-28T15:18:58Z</time></trkpt><trkpt lat="34.27043135075481" lon="-4.899184956240613"><ele>138.6</ele><time>2026-04-28T15:18:59Z</time></trkpt><trkpt lat="34.270371665257024" lon="-4.899139862212963"><ele>138.2</ele><time>2026-04-28T15:19:00Z</time></trkpt><trkpt lat="34.27030843200766" lon="-4.89905965262517"><ele>137.79999999999998</ele><time>2026-04-28T15:19:02Z</time></trkpt><trkpt lat="34.270178923569205" lon="-4.89917365432601"><ele>137.4</ele><time>2026-04-28T15:19:03Z</time></trkpt><trkpt lat="34.270106441892544" lon="-4.8992181781261905"><ele>137.0</ele><time>2026-04-28T15:19:04Z</time></trkpt><trkpt lat="34.27001959317725" lon="-4.899271365568938"><ele>137.0</ele><time>2026-04-28T15:19:05Z</time></trkpt><trkpt lat="34.26992383573991" lon="-4.899330008814958"><ele>137.0</ele><time>2026-04-28T15:19:06Z</time></trkpt><trkpt lat="34.26981907765225" lon="-4.899394164201265"><ele>137.0</ele><time>2026-04-28T15:19:07Z</time></trkpt><trkpt lat="34.269698425373505" lon="-4.899468053446648"><ele>137.0</ele><time>2026-04-28T15:19:08Z</time></trkpt><trkpt lat="34.26956541743214" lon="-4.899549797751463"><ele>136.33333333333331</ele><time>2026-04-28T15:19:09Z</time></trkpt><trkpt lat="34.26940718346688" lon="-4.899647108267395"><ele>135.66666666666666</ele><time>2026-04-28T15:19:10Z</time></trkpt><trkpt lat="34.269234461016914" lon="-4.899753186893355"><ele>135.0</ele><time>2026-04-28T15:19:11Z</time></trkpt><trkpt lat="34.26904859482739" lon="-4.899867337884221"><ele>134.33333333333334</ele><time>2026-04-28T15:19:12Z</time></trkpt><trkpt lat="34.26885855486102" lon="-4.899984896567496"><ele>133.66666666666669</ele><time>2026-04-28T15:19:13Z</time></trkpt><trkpt lat="34.26866261307965" lon="-4.900105494924242"><ele>133.0</ele><time>2026-04-28T15:19:14Z</time></trkpt><trkpt lat="34.26846657764529" lon="-4.9002259423225984"><ele>133.0</ele><time>2026-04-28T15:19:15Z</time></trkpt><trkpt lat="34.268273197724966" lon="-4.90034473559353"><ele>133.0</ele><time>2026-04-28T15:19:16Z</time></trkpt><trkpt lat="34.268077094946925" lon="-4.900465200476051"><ele>133.0</ele><time>2026-04-28T15:19:17Z</time></trkpt><trkpt lat="34.26787464531772" lon="-4.9005694567061315"><ele>132.66666666666669</ele><time>2026-04-28T15:19:18Z</time></trkpt><trkpt lat="34.267678416956905" lon="-4.9006930790810985"><ele>132.33333333333334</ele><time>2026-04-28T15:19:19Z</time></trkpt><trkpt lat="34.267483903275924" lon="-4.900816034119142"><ele>132.0</ele><time>2026-04-28T15:19:20Z</time></trkpt><trkpt lat="34.267290296902274" lon="-4.900937343936732"><ele>130.66666666666666</ele><time>2026-04-28T15:19:21Z</time></trkpt><trkpt lat="34.267093723553394" lon="-4.901060912218975"><ele>129.33333333333331</ele><time>2026-04-28T15:19:22Z</time></trkpt><trkpt lat="34.26689836507028" lon="-4.901185692639439"><ele>128.0</ele><time>2026-04-28T15:19:23Z</time></trkpt><trkpt lat="34.26669948888984" lon="-4.9013098899601"><ele>128.0</ele><time>2026-04-28T15:19:24Z</time></trkpt><trkpt lat="34.2665009669549" lon="-4.901433473477459"><ele>128.0</ele><time>2026-04-28T15:19:25Z</time></trkpt><trkpt lat="34.26630914454288" lon="-4.90157815935714"><ele>128.0</ele><time>2026-04-28T15:19:26Z</time></trkpt><trkpt lat="34.26611453602666" lon="-4.9017037548938065"><ele>128.0</ele><time>2026-04-28T15:19:27Z</time></trkpt><trkpt lat="34.265917346395256" lon="-4.901831037499655"><ele>128.0</ele><time>2026-04-28T15:19:28Z</time></trkpt><trkpt lat="34.26572034964175" lon="-4.90195836778141"><ele>128.0</ele><time>2026-04-28T15:19:29Z</time></trkpt><trkpt lat="34.26552744311033" lon="-4.902083288540666"><ele>127.66666666666666</ele><time>2026-04-28T15:19:30Z</time></trkpt><trkpt lat="34.26534661673845" lon="-4.902196653420443"><ele>127.33333333333334</ele><time>2026-04-28T15:19:31Z</time></trkpt><trkpt lat="34.26517442675562" lon="-4.902302912592186"><ele>127.0</ele><time>2026-04-28T15:19:32Z</time></trkpt><trkpt lat="34.26500310963984" lon="-4.902408418897678"><ele>127.0</ele><time>2026-04-28T15:19:33Z</time></trkpt><trkpt lat="34.264825487251755" lon="-4.902517596016198"><ele>127.0</ele><time>2026-04-28T15:19:34Z</time></trkpt><trkpt lat="34.2646474364339" lon="-4.902625437167367"><ele>127.0</ele><time>2026-04-28T15:19:35Z</time></trkpt><trkpt lat="34.26446248407091" lon="-4.902713638399583"><ele>127.0</ele><time>2026-04-28T15:19:36Z</time></trkpt><trkpt lat="34.264294720678485" lon="-4.9028354364012054"><ele>127.0</ele><time>2026-04-28T15:19:37Z</time></trkpt><trkpt lat="34.264121889702075" lon="-4.902926432866947"><ele>127.0</ele><time>2026-04-28T15:19:38Z</time></trkpt><trkpt lat="34.263943084814436" lon="-4.902989952269085"><ele>127.0</ele><time>2026-04-28T15:19:39Z</time></trkpt><trkpt lat="34.26377270151341" lon="-4.903083436215426"><ele>127.0</ele><time>2026-04-28T15:19:40Z</time></trkpt><trkpt lat="34.263591181729986" lon="-4.903130481914292"><ele>127.0</ele><time>2026-04-28T15:19:41Z</time></trkpt><trkpt lat="34.26341586545611" lon="-4.9031889463933505"><ele>127.0</ele><time>2026-04-28T15:19:42Z</time></trkpt><trkpt lat="34.263242690134724" lon="-4.903234914502896"><ele>127.0</ele><time>2026-04-28T15:19:43Z</time></trkpt><trkpt lat="34.263076422130865" lon="-4.90329491697081"><ele>127.0</ele><time>2026-04-28T15:19:44Z</time></trkpt><trkpt lat="34.262914850014276" lon="-4.903316142831269"><ele>127.33333333333334</ele><time>2026-04-28T15:19:45Z</time></trkpt><trkpt lat="34.26274797755032" lon="-4.903334218848532"><ele>127.66666666666666</ele><time>2026-04-28T15:19:46Z</time></trkpt><trkpt lat="34.26257381197076" lon="-4.90334295961734"><ele>128.0</ele><time>2026-04-28T15:19:47Z</time></trkpt><trkpt lat="34.26237639959198" lon="-4.903352988142912"><ele>128.33333333333331</ele><time>2026-04-28T15:19:48Z</time></trkpt><trkpt lat="34.262169968117284" lon="-4.903363550614236"><ele>128.66666666666666</ele><time>2026-04-28T15:19:49Z</time></trkpt><trkpt lat="34.261955716822264" lon="-4.903372590572305"><ele>129.0</ele><time>2026-04-28T15:19:50Z</time></trkpt><trkpt lat="34.26176381336198" lon="-4.90335980658377"><ele>129.0</ele><time>2026-04-28T15:19:51Z</time></trkpt><trkpt lat="34.261594763763206" lon="-4.9033760626463625"><ele>129.0</ele><time>2026-04-28T15:19:52Z</time></trkpt><trkpt lat="34.261444246385075" lon="-4.903384478687304"><ele>129.0</ele><time>2026-04-28T15:19:53Z</time></trkpt><trkpt lat="34.261305027672776" lon="-4.903397146069779"><ele>128.8</ele><time>2026-04-28T15:19:54Z</time></trkpt><trkpt lat="34.261181412051755" lon="-4.903405226243645"><ele>128.60000000000002</ele><time>2026-04-28T15:19:55Z</time></trkpt><trkpt lat="34.26107604821511" lon="-4.903409704327194"><ele>128.4</ele><time>2026-04-28T15:19:56Z</time></trkpt><trkpt lat="34.26098914516594" lon="-4.903416206515915"><ele>128.20000000000002</ele><time>2026-04-28T15:19:57Z</time></trkpt><trkpt lat="34.26091643446078" lon="-4.903423977368433"><ele>128.0</ele><time>2026-04-28T15:19:58Z</time></trkpt><trkpt lat="34.260814002290516" lon="-4.9034267629333925"><ele>127.99999999999999</ele><time>2026-04-28T15:20:00Z</time></trkpt><trkpt lat="34.260732111284774" lon="-4.903426036257347"><ele>128.0</ele><time>2026-04-28T15:20:02Z</time></trkpt><trkpt lat="34.26064895523706" lon="-4.903426787635626"><ele>128.0</ele><time>2026-04-28T15:20:06Z</time></trkpt><trkpt lat="34.26056512818608" lon="-4.903430018762836"><ele>128.0</ele><time>2026-04-28T15:20:09Z</time></trkpt><trkpt lat="34.26048821152674" lon="-4.903428877697329"><ele>127.99999999999999</ele><time>2026-04-28T15:20:12Z</time></trkpt><trkpt lat="34.260402132827316" lon="-4.903429471081726"><ele>128.0</ele><time>2026-04-28T15:20:15Z</time></trkpt><trkpt lat="34.26032088317479" lon="-4.903430904287208"><ele>127.4</ele><time>2026-04-28T15:20:18Z</time></trkpt><trkpt lat="34.26022551392095" lon="-4.9034330762286595"><ele>126.80000000000001</ele><time>2026-04-28T15:20:21Z</time></trkpt><trkpt lat="34.26012611656857" lon="-4.903443671849059"><ele>126.2</ele><time>2026-04-28T15:20:24Z</time></trkpt><trkpt lat="34.26003799837891" lon="-4.903451995533746"><ele>125.6</ele><time>2026-04-28T15:20:26Z</time></trkpt><trkpt lat="34.259934852152526" lon="-4.903454338046193"><ele>125.0</ele><time>2026-04-28T15:20:28Z</time></trkpt><trkpt lat="34.25983683214008" lon="-4.903455693502809"><ele>125.2</ele><time>2026-04-28T15:20:30Z</time></trkpt><trkpt lat="34.25974695215122" lon="-4.9034638943241795"><ele>125.4</ele><time>2026-04-28T15:20:32Z</time></trkpt><trkpt lat="34.2596528171185" lon="-4.90346974582869"><ele>125.6</ele><time>2026-04-28T15:20:34Z</time></trkpt><trkpt lat="34.259554987412294" lon="-4.903477430945025"><ele>125.8</ele><time>2026-04-28T15:20:36Z</time></trkpt><trkpt lat="34.25945899960684" lon="-4.903483306047033"><ele>126.0</ele><time>2026-04-28T15:20:38Z</time></trkpt><trkpt lat="34.259365591116854" lon="-4.903489831166402"><ele>126.0</ele><time>2026-04-28T15:20:40Z</time></trkpt><trkpt lat="34.25928438138897" lon="-4.903501307156894"><ele>126.0</ele><time>2026-04-28T15:20:42Z</time></trkpt><trkpt lat="34.25921473626344" lon="-4.9035052928054315"><ele>126.0</ele><time>2026-04-28T15:20:44Z</time></trkpt><trkpt lat="34.259139372104876" lon="-4.903504057677123"><ele>126.0</ele><time>2026-04-28T15:20:46Z</time></trkpt><trkpt lat="34.25904967831865" lon="-4.903509715758553"><ele>126.0</ele><time>2026-04-28T15:20:48Z</time></trkpt><trkpt lat="34.25892194253183" lon="-4.903510895129144"><ele>126.0</ele><time>2026-04-28T15:20:50Z</time></trkpt><trkpt lat="34.258837172585544" lon="-4.903512342892773"><ele>126.25</ele><time>2026-04-28T15:20:51Z</time></trkpt><trkpt lat="34.258727688334154" lon="-4.903513634460129"><ele>126.5</ele><time>2026-04-28T15:20:52Z</time></trkpt><trkpt lat="34.25860566046968" lon="-4.903523803725926"><ele>126.75</ele><time>2026-04-28T15:20:53Z</time></trkpt><trkpt lat="34.258480589682286" lon="-4.903542215597197"><ele>127.0</ele><time>2026-04-28T15:20:54Z</time></trkpt><trkpt lat="34.25833621466086" lon="-4.903564847061866"><ele>127.0</ele><time>2026-04-28T15:20:55Z</time></trkpt><trkpt lat="34.25818262628123" lon="-4.903580748196928"><ele>127.0</ele><time>2026-04-28T15:20:56Z</time></trkpt><trkpt lat="34.25802545028685" lon="-4.903587790985735"><ele>127.0</ele><time>2026-04-28T15:20:57Z</time></trkpt><trkpt lat="34.2578657186295" lon="-4.903598512260227"><ele>129.0</ele><time>2026-04-28T15:20:58Z</time></trkpt><trkpt lat="34.25769522610052" lon="-4.903608901042944"><ele>131.0</ele><time>2026-04-28T15:20:59Z</time></trkpt><trkpt lat="34.25752586306795" lon="-4.903617349651174"><ele>133.0</ele><time>2026-04-28T15:21:00Z</time></trkpt><trkpt lat="34.25735596415808" lon="-4.903630007777022"><ele>134.66666666666669</ele><time>2026-04-28T15:21:01Z</time></trkpt><trkpt lat="34.25718891978611" lon="-4.903643451080163"><ele>136.33333333333334</ele><time>2026-04-28T15:21:02Z</time></trkpt><trkpt lat="34.25701828220303" lon="-4.903655154216744"><ele>138.0</ele><time>2026-04-28T15:21:03Z</time></trkpt><trkpt lat="34.25683871972643" lon="-4.903666794132259"><ele>138.0</ele><time>2026-04-28T15:21:04Z</time></trkpt><trkpt lat="34.25665239231752" lon="-4.903683319032718"><ele>138.0</ele><time>2026-04-28T15:21:05Z</time></trkpt><trkpt lat="34.25646105702522" lon="-4.903704938956048"><ele>138.0</ele><time>2026-04-28T15:21:06Z</time></trkpt><trkpt lat="34.2562675884766" lon="-4.90373356923711"><ele>138.66666666666666</ele><time>2026-04-28T15:21:07Z</time></trkpt><trkpt lat="34.25607651429314" lon="-4.9037696799282955"><ele>139.33333333333331</ele><time>2026-04-28T15:21:08Z</time></trkpt><trkpt lat="34.255883775413146" lon="-4.9038150784885"><ele>140.0</ele><time>2026-04-28T15:21:09Z</time></trkpt><trkpt lat="34.255693490734025" lon="-4.903873562229718"><ele>140.33333333333331</ele><time>2026-04-28T15:21:10Z</time></trkpt><trkpt lat="34.25550565597196" lon="-4.903945010552166"><ele>140.66666666666666</ele><time>2026-04-28T15:21:11Z</time></trkpt><trkpt lat="34.25531897025036" lon="-4.904027055081147"><ele>141.0</ele><time>2026-04-28T15:21:12Z</time></trkpt><trkpt lat="34.25513403866786" lon="-4.90411269176674"><ele>141.0</ele><time>2026-04-28T15:21:13Z</time></trkpt><trkpt lat="34.2549464543314" lon="-4.9042042625350515"><ele>141.0</ele><time>2026-04-28T15:21:14Z</time></trkpt><trkpt lat="34.254756183954086" lon="-4.904301013218241"><ele>141.0</ele><time>2026-04-28T15:21:15Z</time></trkpt><trkpt lat="34.25456745942009" lon="-4.904395026091006"><ele>142.0</ele><time>2026-04-28T15:21:16Z</time></trkpt><trkpt lat="34.25437790876165" lon="-4.904481027921748"><ele>143.0</ele><time>2026-04-28T15:21:17Z</time></trkpt><trkpt lat="34.254191331831" lon="-4.904589527082402"><ele>144.0</ele><time>2026-04-28T15:21:18Z</time></trkpt><trkpt lat="34.25399476367728" lon="-4.904686445656714"><ele>144.0</ele><time>2026-04-28T15:21:19Z</time></trkpt><trkpt lat="34.25379407944539" lon="-4.904785667219337"><ele>144.0</ele><time>2026-04-28T15:21:20Z</time></trkpt><trkpt lat="34.253590673165746" lon="-4.904882143145573"><ele>144.0</ele><time>2026-04-28T15:21:21Z</time></trkpt><trkpt lat="34.25338914221884" lon="-4.904974849243979"><ele>144.0</ele><time>2026-04-28T15:21:22Z</time></trkpt><trkpt lat="34.253189329362286" lon="-4.905067003608433"><ele>144.0</ele><time>2026-04-28T15:21:23Z</time></trkpt><trkpt lat="34.25298211516612" lon="-4.905143909172807"><ele>144.0</ele><time>2026-04-28T15:21:24Z</time></trkpt><trkpt lat="34.25277985384507" lon="-4.905238050278904"><ele>144.0</ele><time>2026-04-28T15:21:25Z</time></trkpt><trkpt lat="34.25258802537787" lon="-4.905351417729925"><ele>144.0</ele><time>2026-04-28T15:21:26Z</time></trkpt><trkpt lat="34.2524010697094" lon="-4.905468853580828"><ele>144.0</ele><time>2026-04-28T15:21:27Z</time></trkpt><trkpt lat="34.25222692882039" lon="-4.90561480274858"><ele>144.0</ele><time>2026-04-28T15:21:28Z</time></trkpt><trkpt lat="34.25207769353436" lon="-4.90579628390688"><ele>144.0</ele><time>2026-04-28T15:21:29Z</time></trkpt><trkpt lat="34.25194326892258" lon="-4.905988832937789"><ele>144.0</ele><time>2026-04-28T15:21:30Z</time></trkpt><trkpt lat="34.25183528737071" lon="-4.906192972008123"><ele>143.66666666666666</ele><time>2026-04-28T15:21:31Z</time></trkpt><trkpt lat="34.2517240486042" lon="-4.9064037888034555"><ele>143.33333333333331</ele><time>2026-04-28T15:21:32Z</time></trkpt><trkpt lat="34.25163372865552" lon="-4.906634717992915"><ele>143.0</ele><time>2026-04-28T15:21:33Z</time></trkpt><trkpt lat="34.25154335420034" lon="-4.906864155930065"><ele>142.33333333333331</ele><time>2026-04-28T15:21:34Z</time></trkpt><trkpt lat="34.25146127370404" lon="-4.907086290244601"><ele>141.66666666666666</ele><time>2026-04-28T15:21:35Z</time></trkpt><trkpt lat="34.25137778787793" lon="-4.907300122653321"><ele>141.0</ele><time>2026-04-28T15:21:36Z</time></trkpt><trkpt lat="34.251297608572145" lon="-4.907505906326469"><ele>140.0</ele><time>2026-04-28T15:21:37Z</time></trkpt><trkpt lat="34.2512207748165" lon="-4.907703101732576"><ele>139.0</ele><time>2026-04-28T15:21:38Z</time></trkpt><trkpt lat="34.251138718065135" lon="-4.907895625677894"><ele>138.0</ele><time>2026-04-28T15:21:39Z</time></trkpt><trkpt lat="34.25103369893048" lon="-4.908079220350105"><ele>138.0</ele><time>2026-04-28T15:21:40Z</time></trkpt><trkpt lat="34.25090593624088" lon="-4.908254586045391"><ele>138.0</ele><time>2026-04-28T15:21:41Z</time></trkpt><trkpt lat="34.25077050753818" lon="-4.908430656247958"><ele>138.0</ele><time>2026-04-28T15:21:42Z</time></trkpt><trkpt lat="34.25062304254962" lon="-4.908618268800686"><ele>137.66666666666666</ele><time>2026-04-28T15:21:43Z</time></trkpt><trkpt lat="34.25046882267057" lon="-4.908813251153804"><ele>137.33333333333331</ele><time>2026-04-28T15:21:44Z</time></trkpt><trkpt lat="34.25031239232463" lon="-4.909011249316615"><ele>137.0</ele><time>2026-04-28T15:21:45Z</time></trkpt><trkpt lat="34.25015620889689" lon="-4.909208171545154"><ele>136.33333333333331</ele><time>2026-04-28T15:21:46Z</time></trkpt><trkpt lat="34.2500030971413" lon="-4.909401502807477"><ele>135.66666666666666</ele><time>2026-04-28T15:21:47Z</time></trkpt><trkpt lat="34.24985245505369" lon="-4.909591216494587"><ele>135.0</ele><time>2026-04-28T15:21:48Z</time></trkpt><trkpt lat="34.24970323695122" lon="-4.9097786221330315"><ele>135.0</ele><time>2026-04-28T15:21:49Z</time></trkpt><trkpt lat="34.249563937400545" lon="-4.909957417126203"><ele>135.0</ele><time>2026-04-28T15:21:50Z</time></trkpt><trkpt lat="34.2494310465987" lon="-4.910131503565392"><ele>135.0</ele><time>2026-04-28T15:21:51Z</time></trkpt><trkpt lat="34.249297099186215" lon="-4.910306974363752"><ele>135.0</ele><time>2026-04-28T15:21:52Z</time></trkpt><trkpt lat="34.249164453548445" lon="-4.910480276688519"><ele>135.0</ele><time>2026-04-28T15:21:53Z</time></trkpt><trkpt lat="34.2490377271791" lon="-4.9106516853441216"><ele>135.0</ele><time>2026-04-28T15:21:54Z</time></trkpt><trkpt lat="34.24891265158402" lon="-4.910822859681363"><ele>134.66666666666666</ele><time>2026-04-28T15:21:55Z</time></trkpt><trkpt lat="34.24878311342905" lon="-4.911001532301469"><ele>134.33333333333331</ele><time>2026-04-28T15:21:56Z</time></trkpt><trkpt lat="34.248650198517595" lon="-4.911183179757397"><ele>134.0</ele><time>2026-04-28T15:21:57Z</time></trkpt><trkpt lat="34.248524934906925" lon="-4.911354370778342"><ele>134.0</ele><time>2026-04-28T15:21:58Z</time></trkpt><trkpt lat="34.24839913752494" lon="-4.911521833301892"><ele>134.0</ele><time>2026-04-28T15:21:59Z</time></trkpt><trkpt lat="34.24826804403885" lon="-4.911694354333035"><ele>134.0</ele><time>2026-04-28T15:22:00Z</time></trkpt><trkpt lat="34.24813741546456" lon="-4.911867844114546"><ele>132.33333333333331</ele><time>2026-04-28T15:22:01Z</time></trkpt><trkpt lat="34.248000626587135" lon="-4.912047104427976"><ele>130.66666666666666</ele><time>2026-04-28T15:22:02Z</time></trkpt><trkpt lat="34.24786142270818" lon="-4.9122312682301486"><ele>129.0</ele><time>2026-04-28T15:22:03Z</time></trkpt><trkpt lat="34.2477168250119" lon="-4.912423033362095"><ele>129.33333333333334</ele><time>2026-04-28T15:22:04Z</time></trkpt><trkpt lat="34.24757117618333" lon="-4.912621210435646"><ele>129.66666666666669</ele><time>2026-04-28T15:22:05Z</time></trkpt><trkpt lat="34.24742179655582" lon="-4.9128248829221635"><ele>130.0</ele><time>2026-04-28T15:22:06Z</time></trkpt><trkpt lat="34.24727103949271" lon="-4.913030998834857"><ele>130.0</ele><time>2026-04-28T15:22:07Z</time></trkpt><trkpt lat="34.2471197896671" lon="-4.913237678924726"><ele>130.0</ele><time>2026-04-28T15:22:08Z</time></trkpt><trkpt lat="34.246972354054414" lon="-4.9134387145640535"><ele>130.0</ele><time>2026-04-28T15:22:09Z</time></trkpt><trkpt lat="34.246824747294355" lon="-4.913640181408317"><ele>130.0</ele><time>2026-04-28T15:22:10Z</time></trkpt><trkpt lat="34.2466831121782" lon="-4.913840042498648"><ele>130.0</ele><time>2026-04-28T15:22:11Z</time></trkpt><trkpt lat="34.24654266124641" lon="-4.914039971082221"><ele>130.66666666666669</ele><time>2026-04-28T15:22:12Z</time></trkpt><trkpt lat="34.24640369065836" lon="-4.9142375267046186"><ele>131.33333333333334</ele><time>2026-04-28T15:22:13Z</time></trkpt><trkpt lat="34.24626556704232" lon="-4.914433819323415"><ele>132.0</ele><time>2026-04-28T15:22:14Z</time></trkpt><trkpt lat="34.24612571855573" lon="-4.914632563148916"><ele>132.0</ele><time>2026-04-28T15:22:15Z</time></trkpt><trkpt lat="34.24598481349317" lon="-4.914832187313024"><ele>132.0</ele><time>2026-04-28T15:22:16Z</time></trkpt><trkpt lat="34.2458416110758" lon="-4.915031635459053"><ele>132.0</ele><time>2026-04-28T15:22:17Z</time></trkpt><trkpt lat="34.24569645195802" lon="-4.915233966155841"><ele>131.33333333333334</ele><time>2026-04-28T15:22:18Z</time></trkpt><trkpt lat="34.24555185265083" lon="-4.915435537071862"><ele>130.66666666666669</ele><time>2026-04-28T15:22:19Z</time></trkpt><trkpt lat="34.24540787995972" lon="-4.915636282511668"><ele>130.0</ele><time>2026-04-28T15:22:20Z</time></trkpt><trkpt lat="34.24526495750804" lon="-4.9158355635524424"><ele>128.33333333333334</ele><time>2026-04-28T15:22:21Z</time></trkpt><trkpt lat="34.24512342008219" lon="-4.916033692864421"><ele>126.66666666666666</ele><time>2026-04-28T15:22:22Z</time></trkpt><trkpt lat="34.24498247605939" lon="-4.916231110637832"><ele>125.0</ele><time>2026-04-28T15:22:23Z</time></trkpt><trkpt lat="34.24484096171976" lon="-4.916429117835928"><ele>125.66666666666666</ele><time>2026-04-28T15:22:24Z</time></trkpt><trkpt lat="34.244700099092704" lon="-4.916626063909507"><ele>126.33333333333334</ele><time>2026-04-28T15:22:25Z</time></trkpt><trkpt lat="34.244559066731235" lon="-4.916823247252074"><ele>127.0</ele><time>2026-04-28T15:22:26Z</time></trkpt><trkpt lat="34.24441739175864" lon="-4.917021874491916"><ele>127.0</ele><time>2026-04-28T15:22:27Z</time></trkpt><trkpt lat="34.24427531596895" lon="-4.917221117005408"><ele>127.0</ele><time>2026-04-28T15:22:28Z</time></trkpt><trkpt lat="34.244134178428894" lon="-4.917419649025524"><ele>127.0</ele><time>2026-04-28T15:22:29Z</time></trkpt><trkpt lat="34.243996540619584" lon="-4.917618058183803"><ele>130.66666666666669</ele><time>2026-04-28T15:22:30Z</time></trkpt><trkpt lat="34.24385265521072" lon="-4.917826378879374"><ele>134.33333333333334</ele><time>2026-04-28T15:22:31Z</time></trkpt><trkpt lat="34.24371206202589" lon="-4.918029897221297"><ele>138.0</ele><time>2026-04-28T15:22:32Z</time></trkpt><trkpt lat="34.2435695804785" lon="-4.918235214425261"><ele>137.33333333333334</ele><time>2026-04-28T15:22:33Z</time></trkpt><trkpt lat="34.243427015246525" lon="-4.918440647369309"><ele>136.66666666666669</ele><time>2026-04-28T15:22:34Z</time></trkpt><trkpt lat="34.24328697089759" lon="-4.91864244778215"><ele>136.0</ele><time>2026-04-28T15:22:35Z</time></trkpt><trkpt lat="34.243148055280514" lon="-4.9188380162235985"><ele>137.66666666666669</ele><time>2026-04-28T15:22:36Z</time></trkpt><trkpt lat="34.24297847832949" lon="-4.918992443795234"><ele>139.33333333333334</ele><time>2026-04-28T15:22:37Z</time></trkpt><trkpt lat="34.242847868482556" lon="-4.919179635706689"><ele>141.0</ele><time>2026-04-28T15:22:38Z</time></trkpt><trkpt lat="34.24271410563715" lon="-4.9193660530841"><ele>141.0</ele><time>2026-04-28T15:22:39Z</time></trkpt><trkpt lat="34.242577240139354" lon="-4.919552197307877"><ele>141.0</ele><time>2026-04-28T15:22:40Z</time></trkpt><trkpt lat="34.242439527137" lon="-4.91974030929926"><ele>141.0</ele><time>2026-04-28T15:22:41Z</time></trkpt><trkpt lat="34.24230715075896" lon="-4.919931156451654"><ele>144.0</ele><time>2026-04-28T15:22:42Z</time></trkpt><trkpt lat="34.24218146560053" lon="-4.92011291546176"><ele>147.0</ele><time>2026-04-28T15:22:43Z</time></trkpt><trkpt lat="34.24206802643445" lon="-4.920274416155941"><ele>150.0</ele><time>2026-04-28T15:22:44Z</time></trkpt><trkpt lat="34.24194035263844" lon="-4.920415641620384"><ele>150.0</ele><time>2026-04-28T15:22:45Z</time></trkpt><trkpt lat="34.241794682536224" lon="-4.920536973827003"><ele>150.0</ele><time>2026-04-28T15:22:46Z</time></trkpt><trkpt lat="34.241627573261525" lon="-4.920639099767025"><ele>150.0</ele><time>2026-04-28T15:22:47Z</time></trkpt><trkpt lat="34.241449482983185" lon="-4.920728465911796"><ele>153.0</ele><time>2026-04-28T15:22:48Z</time></trkpt><trkpt lat="34.24126586460665" lon="-4.920790248314959"><ele>156.0</ele><time>2026-04-28T15:22:49Z</time></trkpt><trkpt lat="34.24107915798851" lon="-4.920836724361712"><ele>159.0</ele><time>2026-04-28T15:22:50Z</time></trkpt><trkpt lat="34.24089964434077" lon="-4.920891866151032"><ele>156.33333333333334</ele><time>2026-04-28T15:22:51Z</time></trkpt><trkpt lat="34.24071685181379" lon="-4.920961131859332"><ele>153.66666666666669</ele><time>2026-04-28T15:22:52Z</time></trkpt><trkpt lat="34.240531940114515" lon="-4.9210256165200486"><ele>151.0</ele><time>2026-04-28T15:22:53Z</time></trkpt><trkpt lat="34.240353196630466" lon="-4.921086502782781"><ele>151.0</ele><time>2026-04-28T15:22:54Z</time></trkpt><trkpt lat="34.24017882396715" lon="-4.921128768977689"><ele>151.0</ele><time>2026-04-28T15:22:55Z</time></trkpt><trkpt lat="34.23999792015709" lon="-4.921140017244529"><ele>151.0</ele><time>2026-04-28T15:22:56Z</time></trkpt><trkpt lat="34.239815901925034" lon="-4.921116628408013"><ele>152.0</ele><time>2026-04-28T15:22:57Z</time></trkpt><trkpt lat="34.23963988757193" lon="-4.92107218044861"><ele>153.0</ele><time>2026-04-28T15:22:58Z</time></trkpt><trkpt lat="34.239473336447205" lon="-4.920998516143413"><ele>154.0</ele><time>2026-04-28T15:22:59Z</time></trkpt><trkpt lat="34.23930885540912" lon="-4.920896637035174"><ele>155.66666666666669</ele><time>2026-04-28T15:23:00Z</time></trkpt><trkpt lat="34.23916116311569" lon="-4.920765973504286"><ele>157.33333333333334</ele><time>2026-04-28T15:23:01Z</time></trkpt><trkpt lat="34.239031661333705" lon="-4.92060859990972"><ele>159.0</ele><time>2026-04-28T15:23:02Z</time></trkpt><trkpt lat="34.2389178191616" lon="-4.920418035672039"><ele>159.0</ele><time>2026-04-28T15:23:03Z</time></trkpt><trkpt lat="34.23879691597659" lon="-4.920239761069855"><ele>159.0</ele><time>2026-04-28T15:23:04Z</time></trkpt><trkpt lat="34.238676021619675" lon="-4.9200526235516335"><ele>159.0</ele><time>2026-04-28T15:23:05Z</time></trkpt><trkpt lat="34.23855377302931" lon="-4.919861849343092"><ele>162.66666666666666</ele><time>2026-04-28T15:23:06Z</time></trkpt><trkpt lat="34.23843812922477" lon="-4.91968602522307"><ele>166.33333333333331</ele><time>2026-04-28T15:23:07Z</time></trkpt><trkpt lat="34.23832138753235" lon="-4.9195341113286215"><ele>170.0</ele><time>2026-04-28T15:23:08Z</time></trkpt><trkpt lat="34.238196398725925" lon="-4.919406254043158"><ele>172.0</ele><time>2026-04-28T15:23:09Z</time></trkpt><trkpt lat="34.23805735900894" lon="-4.919303340569046"><ele>174.0</ele><time>2026-04-28T15:23:10Z</time></trkpt><trkpt lat="34.23790266119867" lon="-4.919232261459738"><ele>176.0</ele><time>2026-04-28T15:23:11Z</time></trkpt><trkpt lat="34.23773485277591" lon="-4.919204049216848"><ele>176.33333333333331</ele><time>2026-04-28T15:23:12Z</time></trkpt><trkpt lat="34.237563586874174" lon="-4.919207258203145"><ele>176.66666666666666</ele><time>2026-04-28T15:23:13Z</time></trkpt><trkpt lat="34.23739131210473" lon="-4.919222106471194"><ele>177.0</ele><time>2026-04-28T15:23:14Z</time></trkpt><trkpt lat="34.23721799712576" lon="-4.919234472542915"><ele>181.0</ele><time>2026-04-28T15:23:15Z</time></trkpt><trkpt lat="34.23705300706418" lon="-4.919223176228399"><ele>185.0</ele><time>2026-04-28T15:23:16Z</time></trkpt><trkpt lat="34.236890846581915" lon="-4.91920472955426"><ele>189.0</ele><time>2026-04-28T15:23:17Z</time></trkpt><trkpt lat="34.23672413574627" lon="-4.919155789745529"><ele>189.0</ele><time>2026-04-28T15:23:18Z</time></trkpt><trkpt lat="34.23655332180009" lon="-4.91909086214666"><ele>189.0</ele><time>2026-04-28T15:23:19Z</time></trkpt><trkpt lat="34.23638194649187" lon="-4.919003681515829"><ele>189.0</ele><time>2026-04-28T15:23:20Z</time></trkpt><trkpt lat="34.236205034039756" lon="-4.918916272979143"><ele>190.0</ele><time>2026-04-28T15:23:21Z</time></trkpt><trkpt lat="34.23602272219043" lon="-4.918827413955691"><ele>191.0</ele><time>2026-04-28T15:23:22Z</time></trkpt><trkpt lat="34.235842678621886" lon="-4.9187428643819056"><ele>192.0</ele><time>2026-04-28T15:23:23Z</time></trkpt><trkpt lat="34.23566216560728" lon="-4.918656650819862"><ele>195.0</ele><time>2026-04-28T15:23:24Z</time></trkpt><trkpt lat="34.23548859055427" lon="-4.91858395942135"><ele>198.0</ele><time>2026-04-28T15:23:25Z</time></trkpt><trkpt lat="34.235310026061946" lon="-4.918527367431687"><ele>201.0</ele><time>2026-04-28T15:23:26Z</time></trkpt><trkpt lat="34.235140959136885" lon="-4.918475272412693"><ele>201.0</ele><time>2026-04-28T15:23:27Z</time></trkpt><trkpt lat="34.23498486813015" lon="-4.918418813168435"><ele>201.0</ele><time>2026-04-28T15:23:28Z</time></trkpt><trkpt lat="34.23482373295256" lon="-4.918364059152344"><ele>201.0</ele><time>2026-04-28T15:23:29Z</time></trkpt><trkpt lat="34.23465812427873" lon="-4.918303769174744"><ele>197.0</ele><time>2026-04-28T15:23:30Z</time></trkpt><trkpt lat="34.234487452648985" lon="-4.918236830624723"><ele>193.0</ele><time>2026-04-28T15:23:31Z</time></trkpt><trkpt lat="34.23431230843045" lon="-4.918173320047636"><ele>189.0</ele><time>2026-04-28T15:23:32Z</time></trkpt><trkpt lat="34.234138554294994" lon="-4.918114401502458"><ele>188.0</ele><time>2026-04-28T15:23:33Z</time></trkpt><trkpt lat="34.23396039254165" lon="-4.918057536204137"><ele>187.0</ele><time>2026-04-28T15:23:34Z</time></trkpt><trkpt lat="34.23378266326715" lon="-4.91799689226378"><ele>186.0</ele><time>2026-04-28T15:23:35Z</time></trkpt><trkpt lat="34.233606177243736" lon="-4.917942480916867"><ele>186.0</ele><time>2026-04-28T15:23:36Z</time></trkpt><trkpt lat="34.23343762416369" lon="-4.917877106907038"><ele>186.0</ele><time>2026-04-28T15:23:37Z</time></trkpt><trkpt lat="34.233277537361275" lon="-4.9178102776119434"><ele>186.0</ele><time>2026-04-28T15:23:38Z</time></trkpt><trkpt lat="34.23311544427546" lon="-4.917760199589212"><ele>183.0</ele><time>2026-04-28T15:23:39Z</time></trkpt><trkpt lat="34.232943349368085" lon="-4.9177591898344515"><ele>180.0</ele><time>2026-04-28T15:23:40Z</time></trkpt><trkpt lat="34.23276619478284" lon="-4.917759136142099"><ele>177.0</ele><time>2026-04-28T15:23:41Z</time></trkpt><trkpt lat="34.2325791548347" lon="-4.917769836630007"><ele>177.0</ele><time>2026-04-28T15:23:42Z</time></trkpt><trkpt lat="34.232392454066996" lon="-4.917789403583767"><ele>177.0</ele><time>2026-04-28T15:23:43Z</time></trkpt><trkpt lat="34.23222002459918" lon="-4.917817297730378"><ele>177.0</ele><time>2026-04-28T15:23:44Z</time></trkpt><trkpt lat="34.23207469720465" lon="-4.917869472058481"><ele>174.0</ele><time>2026-04-28T15:23:45Z</time></trkpt><trkpt lat="34.23195383613073" lon="-4.917947667335454"><ele>171.0</ele><time>2026-04-28T15:23:46Z</time></trkpt><trkpt lat="34.23184849653806" lon="-4.918026646705103"><ele>168.0</ele><time>2026-04-28T15:23:47Z</time></trkpt><trkpt lat="34.23174139629828" lon="-4.918080807550305"><ele>165.0</ele><time>2026-04-28T15:23:48Z</time></trkpt><trkpt lat="34.23161679027353" lon="-4.91809221591989"><ele>165.0</ele><time>2026-04-28T15:23:49Z</time></trkpt><trkpt lat="34.23147931246794" lon="-4.918066792983546"><ele>165.0</ele><time>2026-04-28T15:23:50Z</time></trkpt><trkpt lat="34.23134081129939" lon="-4.918031944063822"><ele>165.0</ele><time>2026-04-28T15:23:51Z</time></trkpt><trkpt lat="34.23120830190014" lon="-4.918005917107451"><ele>165.0</ele><time>2026-04-28T15:23:52Z</time></trkpt><trkpt lat="34.23107661424823" lon="-4.918023988147772"><ele>163.0</ele><time>2026-04-28T15:23:53Z</time></trkpt><trkpt lat="34.2309425226288" lon="-4.918080654498396"><ele>161.0</ele><time>2026-04-28T15:23:54Z</time></trkpt><trkpt lat="34.230811602012" lon="-4.918156089479346"><ele>159.0</ele><time>2026-04-28T15:23:55Z</time></trkpt><trkpt lat="34.230688951214866" lon="-4.9182205927071925"><ele>157.0</ele><time>2026-04-28T15:23:56Z</time></trkpt><trkpt lat="34.23056873621175" lon="-4.918273753583729"><ele>155.79999999999998</ele><time>2026-04-28T15:23:57Z</time></trkpt><trkpt lat="34.23045413665355" lon="-4.918314850959549"><ele>154.6</ele><time>2026-04-28T15:23:58Z</time></trkpt><trkpt lat="34.23034402851124" lon="-4.918346213075742"><ele>153.39999999999998</ele><time>2026-04-28T15:23:59Z</time></trkpt><trkpt lat="34.23024233870615" lon="-4.918378225391887"><ele>152.2</ele><time>2026-04-28T15:24:00Z</time></trkpt><trkpt lat="34.23014959345344" lon="-4.918406120480008"><ele>151.0</ele><time>2026-04-28T15:24:01Z</time></trkpt><trkpt lat="34.23006023498034" lon="-4.918428819475869"><ele>151.0</ele><time>2026-04-28T15:24:02Z</time></trkpt><trkpt lat="34.22998058095419" lon="-4.918452693131931"><ele>151.0</ele><time>2026-04-28T15:24:03Z</time></trkpt><trkpt lat="34.22987318810078" lon="-4.918480130683244"><ele>151.0</ele><time>2026-04-28T15:24:05Z</time></trkpt><trkpt lat="34.22979545386833" lon="-4.918512569826164"><ele>151.0</ele><time>2026-04-28T15:24:07Z</time></trkpt><trkpt lat="34.22973190548006" lon="-4.918569304723896"><ele>151.0</ele><time>2026-04-28T15:24:10Z</time></trkpt><trkpt lat="34.229676625477886" lon="-4.918624357698412"><ele>151.0</ele><time>2026-04-28T15:24:13Z</time></trkpt><trkpt lat="34.22959360644996" lon="-4.918631182739002"><ele>150.16666666666669</ele><time>2026-04-28T15:24:16Z</time></trkpt><trkpt lat="34.229525684184125" lon="-4.918658138372287"><ele>149.33333333333334</ele><time>2026-04-28T15:24:18Z</time></trkpt><trkpt lat="34.22946844596623" lon="-4.918611020277659"><ele>148.5</ele><time>2026-04-28T15:24:20Z</time></trkpt><trkpt lat="34.2293865414774" lon="-4.918579339123057"><ele>147.66666666666666</ele><time>2026-04-28T15:24:23Z</time></trkpt><trkpt lat="34.22932054086387" lon="-4.918567832878932"><ele>146.83333333333331</ele><time>2026-04-28T15:24:26Z</time></trkpt><trkpt lat="34.22925212452585" lon="-4.918556661436578"><ele>146.0</ele><time>2026-04-28T15:24:34Z</time></trkpt><trkpt lat="34.22916419850975" lon="-4.918538208587383"><ele>146.0</ele><time>2026-04-28T15:24:37Z</time></trkpt><trkpt lat="34.229080472698634" lon="-4.918523370487356"><ele>146.0</ele><time>2026-04-28T15:24:41Z</time></trkpt><trkpt lat="34.22900198101468" lon="-4.91850514539418"><ele>146.0</ele><time>2026-04-28T15:24:44Z</time></trkpt><trkpt lat="34.22893848511392" lon="-4.918486810887187"><ele>146.0</ele><time>2026-04-28T15:24:46Z</time></trkpt><trkpt lat="34.22885036901712" lon="-4.91848925163372"><ele>146.0</ele><time>2026-04-28T15:24:48Z</time></trkpt><trkpt lat="34.22874496359095" lon="-4.918486172552812"><ele>146.0</ele><time>2026-04-28T15:24:50Z</time></trkpt><trkpt lat="34.228639673664894" lon="-4.91846734133159"><ele>145.0</ele><time>2026-04-28T15:24:52Z</time></trkpt><trkpt lat="34.228528531662086" lon="-4.918461879373133"><ele>144.0</ele><time>2026-04-28T15:24:54Z</time></trkpt><trkpt lat="34.228426860672684" lon="-4.91848369710094"><ele>143.0</ele><time>2026-04-28T15:24:56Z</time></trkpt><trkpt lat="34.22831923921183" lon="-4.918463781504809"><ele>142.0</ele><time>2026-04-28T15:24:58Z</time></trkpt><trkpt lat="34.228190333998874" lon="-4.918439927301911"><ele>141.66666666666669</ele><time>2026-04-28T15:25:00Z</time></trkpt><trkpt lat="34.22811596841151" lon="-4.918426187215232"><ele>141.33333333333334</ele><time>2026-04-28T15:25:01Z</time></trkpt><trkpt lat="34.228030072707455" lon="-4.918410344102691"><ele>141.0</ele><time>2026-04-28T15:25:02Z</time></trkpt><trkpt lat="34.227938736662225" lon="-4.918393299637204"><ele>140.66666666666666</ele><time>2026-04-28T15:25:03Z</time></trkpt><trkpt lat="34.22784211445946" lon="-4.918375363327451"><ele>140.33333333333331</ele><time>2026-04-28T15:25:04Z</time></trkpt><trkpt lat="34.22775157249091" lon="-4.918359005289425"><ele>140.0</ele><time>2026-04-28T15:25:05Z</time></trkpt><trkpt lat="34.2276549435959" lon="-4.918342167073417"><ele>140.0</ele><time>2026-04-28T15:25:06Z</time></trkpt><trkpt lat="34.22755420617299" lon="-4.9183245814471315"><ele>140.0</ele><time>2026-04-28T15:25:07Z</time></trkpt><trkpt lat="34.22745176042464" lon="-4.91830648480974"><ele>140.0</ele><time>2026-04-28T15:25:08Z</time></trkpt><trkpt lat="34.22734910699474" lon="-4.918288351488811"><ele>140.0</ele><time>2026-04-28T15:25:09Z</time></trkpt><trkpt lat="34.2272669368169" lon="-4.918273836446534"><ele>140.0</ele><time>2026-04-28T15:25:10Z</time></trkpt><trkpt lat="34.22720061118814" lon="-4.9182467389900655"><ele>140.0</ele><time>2026-04-28T15:25:11Z</time></trkpt><trkpt lat="34.227139256237656" lon="-4.918190369466244"><ele>140.0</ele><time>2026-04-28T15:25:12Z</time></trkpt><trkpt lat="34.22706730109495" lon="-4.918161332800929"><ele>140.0</ele><time>2026-04-28T15:25:13Z</time></trkpt><trkpt lat="34.22698558051495" lon="-4.91815275821218"><ele>140.0</ele><time>2026-04-28T15:25:14Z</time></trkpt><trkpt lat="34.22687510899234" lon="-4.918133037122678"><ele>140.0</ele><time>2026-04-28T15:25:15Z</time></trkpt><trkpt lat="34.22674211970943" lon="-4.91810942628902"><ele>140.0</ele><time>2026-04-28T15:25:16Z</time></trkpt><trkpt lat="34.22659754978206" lon="-4.918083804879525"><ele>140.0</ele><time>2026-04-28T15:25:17Z</time></trkpt><trkpt lat="34.22645097180358" lon="-4.918057838996105"><ele>140.0</ele><time>2026-04-28T15:25:18Z</time></trkpt><trkpt lat="34.22629189400983" lon="-4.918013272328821"><ele>142.0</ele><time>2026-04-28T15:25:19Z</time></trkpt><trkpt lat="34.226121707421655" lon="-4.917991591209995"><ele>144.0</ele><time>2026-04-28T15:25:20Z</time></trkpt><trkpt lat="34.22594831120452" lon="-4.9179723874885815"><ele>146.0</ele><time>2026-04-28T15:25:21Z</time></trkpt><trkpt lat="34.22578743560132" lon="-4.9179495961572295"><ele>149.0</ele><time>2026-04-28T15:25:22Z</time></trkpt><trkpt lat="34.22563368596241" lon="-4.917918204325853"><ele>152.0</ele><time>2026-04-28T15:25:23Z</time></trkpt><trkpt lat="34.225481436913725" lon="-4.917887286131576"><ele>155.0</ele><time>2026-04-28T15:25:24Z</time></trkpt><trkpt lat="34.22532743100926" lon="-4.917864387722743"><ele>155.0</ele><time>2026-04-28T15:25:25Z</time></trkpt><trkpt lat="34.22517018462017" lon="-4.917850636330619"><ele>155.0</ele><time>2026-04-28T15:25:26Z</time></trkpt><trkpt lat="34.22500977580069" lon="-4.917884019189301"><ele>155.0</ele><time>2026-04-28T15:25:27Z</time></trkpt><trkpt lat="34.22484786776556" lon="-4.9179207664154"><ele>152.0</ele><time>2026-04-28T15:25:28Z</time></trkpt><trkpt lat="34.22468951132645" lon="-4.917981043076463"><ele>149.0</ele><time>2026-04-28T15:25:29Z</time></trkpt><trkpt lat="34.22453255198663" lon="-4.9180611645312515"><ele>146.0</ele><time>2026-04-28T15:25:30Z</time></trkpt><trkpt lat="34.224368805691796" lon="-4.918164059381994"><ele>146.0</ele><time>2026-04-28T15:25:31Z</time></trkpt><trkpt lat="34.22420461838702" lon="-4.918279383566616"><ele>146.0</ele><time>2026-04-28T15:25:32Z</time></trkpt><trkpt lat="34.22403399891035" lon="-4.9184037625003265"><ele>146.0</ele><time>2026-04-28T15:25:33Z</time></trkpt><trkpt lat="34.22386568839828" lon="-4.9185389157426425"><ele>145.0</ele><time>2026-04-28T15:25:34Z</time></trkpt><trkpt lat="34.22369827093518" lon="-4.91868508677398"><ele>144.0</ele><time>2026-04-28T15:25:35Z</time></trkpt><trkpt lat="34.22353440641574" lon="-4.918828156633657"><ele>143.0</ele><time>2026-04-28T15:25:36Z</time></trkpt><trkpt lat="34.22336566486191" lon="-4.918975484632673"><ele>143.0</ele><time>2026-04-28T15:25:37Z</time></trkpt><trkpt lat="34.22318683997702" lon="-4.919111181807847"><ele>143.0</ele><time>2026-04-28T15:25:38Z</time></trkpt><trkpt lat="34.22301360791859" lon="-4.919266805558616"><ele>143.0</ele><time>2026-04-28T15:25:39Z</time></trkpt><trkpt lat="34.22283922423976" lon="-4.919421766373058"><ele>144.0</ele><time>2026-04-28T15:25:40Z</time></trkpt><trkpt lat="34.22266336838254" lon="-4.919579967085783"><ele>145.0</ele><time>2026-04-28T15:25:41Z</time></trkpt><trkpt lat="34.22248736288993" lon="-4.919744751533286"><ele>146.0</ele><time>2026-04-28T15:25:42Z</time></trkpt><trkpt lat="34.222322940935214" lon="-4.91993150977097"><ele>144.0</ele><time>2026-04-28T15:25:43Z</time></trkpt><trkpt lat="34.22215293959395" lon="-4.920109839195161"><ele>142.0</ele><time>2026-04-28T15:25:44Z</time></trkpt><trkpt lat="34.221980990321654" lon="-4.92029837858724"><ele>142.0</ele><time>2026-04-28T15:25:45Z</time></trkpt><trkpt lat="34.221811449266816" lon="-4.920491737234712"><ele>142.0</ele><time>2026-04-28T15:25:46Z</time></trkpt><trkpt lat="34.22164114867581" lon="-4.920690241370514"><ele>139.0</ele><time>2026-04-28T15:25:47Z</time></trkpt><trkpt lat="34.22147292313232" lon="-4.920896349256103"><ele>136.0</ele><time>2026-04-28T15:25:48Z</time></trkpt><trkpt lat="34.221307268472344" lon="-4.921110353481557"><ele>136.0</ele><time>2026-04-28T15:25:49Z</time></trkpt><trkpt lat="34.221141416956925" lon="-4.921330283211891"><ele>136.0</ele><time>2026-04-28T15:25:50Z</time></trkpt><trkpt lat="34.22096188077627" lon="-4.921538846467814"><ele>137.0</ele><time>2026-04-28T15:25:51Z</time></trkpt><trkpt lat="34.220808605286514" lon="-4.921782119116375"><ele>138.0</ele><time>2026-04-28T15:25:52Z</time></trkpt><trkpt lat="34.22064372215219" lon="-4.9220117058998945"><ele>138.0</ele><time>2026-04-28T15:25:53Z</time></trkpt><trkpt lat="34.22047625180692" lon="-4.922244251572773"><ele>138.0</ele><time>2026-04-28T15:25:54Z</time></trkpt><trkpt lat="34.220308627909795" lon="-4.922476163261183"><ele>138.5</ele><time>2026-04-28T15:25:55Z</time></trkpt><trkpt lat="34.22013676646247" lon="-4.922703373375288"><ele>139.0</ele><time>2026-04-28T15:25:56Z</time></trkpt><trkpt lat="34.21996664251022" lon="-4.922928910752695"><ele>138.0</ele><time>2026-04-28T15:25:57Z</time></trkpt><trkpt lat="34.21979806840095" lon="-4.923152393440955"><ele>137.0</ele><time>2026-04-28T15:25:58Z</time></trkpt><trkpt lat="34.21962739845138" lon="-4.923378654679315"><ele>137.0</ele><time>2026-04-28T15:25:59Z</time></trkpt><trkpt lat="34.21945816473968" lon="-4.923603011816842"><ele>137.0</ele><time>2026-04-28T15:26:00Z</time></trkpt><trkpt lat="34.21928874107079" lon="-4.9238280415302835"><ele>137.0</ele><time>2026-04-28T15:26:01Z</time></trkpt><trkpt lat="34.219118576773404" lon="-4.924052888683435"><ele>137.0</ele><time>2026-04-28T15:26:02Z</time></trkpt><trkpt lat="34.21895202198087" lon="-4.9242731934763615"><ele>136.5</ele><time>2026-04-28T15:26:03Z</time></trkpt><trkpt lat="34.2187848438499" lon="-4.924494280025971"><ele>136.0</ele><time>2026-04-28T15:26:04Z</time></trkpt><trkpt lat="34.218620739884656" lon="-4.924711267720812"><ele>136.0</ele><time>2026-04-28T15:26:05Z</time></trkpt><trkpt lat="34.218455330460074" lon="-4.9249299817856595"><ele>136.0</ele><time>2026-04-28T15:26:06Z</time></trkpt><trkpt lat="34.21829265144536" lon="-4.925145085502707"><ele>135.5</ele><time>2026-04-28T15:26:07Z</time></trkpt><trkpt lat="34.21812794195375" lon="-4.925362462116668"><ele>135.0</ele><time>2026-04-28T15:26:08Z</time></trkpt><trkpt lat="34.21796643695502" lon="-4.925576107379069"><ele>135.0</ele><time>2026-04-28T15:26:09Z</time></trkpt><trkpt lat="34.21780458025973" lon="-4.925792071915863"><ele>135.0</ele><time>2026-04-28T15:26:10Z</time></trkpt><trkpt lat="34.21763164201076" lon="-4.925995026294548"><ele>136.5</ele><time>2026-04-28T15:26:11Z</time></trkpt><trkpt lat="34.21746982324514" lon="-4.926209870629286"><ele>138.0</ele><time>2026-04-28T15:26:12Z</time></trkpt><trkpt lat="34.21731935407766" lon="-4.92644093195609"><ele>137.5</ele><time>2026-04-28T15:26:13Z</time></trkpt><trkpt lat="34.21715891041065" lon="-4.926656629481687"><ele>137.0</ele><time>2026-04-28T15:26:14Z</time></trkpt><trkpt lat="34.21699513421519" lon="-4.926876703051776"><ele>138.0</ele><time>2026-04-28T15:26:15Z</time></trkpt><trkpt lat="34.216833976041826" lon="-4.927092998641633"><ele>139.0</ele><time>2026-04-28T15:26:16Z</time></trkpt><trkpt lat="34.216671135372046" lon="-4.927310947241823"><ele>139.0</ele><time>2026-04-28T15:26:17Z</time></trkpt><trkpt lat="34.21651233775877" lon="-4.927523484496425"><ele>139.0</ele><time>2026-04-28T15:26:18Z</time></trkpt><trkpt lat="34.216350461683064" lon="-4.927738431401167"><ele>138.0</ele><time>2026-04-28T15:26:19Z</time></trkpt><trkpt lat="34.21619142455556" lon="-4.927949402165337"><ele>137.0</ele><time>2026-04-28T15:26:20Z</time></trkpt><trkpt lat="34.216032028090865" lon="-4.928160849608598"><ele>137.0</ele><time>2026-04-28T15:26:21Z</time></trkpt><trkpt lat="34.21585400654811" lon="-4.928349149475453"><ele>137.0</ele><time>2026-04-28T15:26:22Z</time></trkpt><trkpt lat="34.21570140493483" lon="-4.928566455505858"><ele>137.5</ele><time>2026-04-28T15:26:23Z</time></trkpt><trkpt lat="34.21554789834472" lon="-4.928780249263565"><ele>138.0</ele><time>2026-04-28T15:26:24Z</time></trkpt><trkpt lat="34.215389250695765" lon="-4.928988936118898"><ele>138.0</ele><time>2026-04-28T15:26:25Z</time></trkpt><trkpt lat="34.21522672399696" lon="-4.929192856731436"><ele>138.0</ele><time>2026-04-28T15:26:26Z</time></trkpt><trkpt lat="34.21505688793628" lon="-4.9293950778143545"><ele>139.0</ele><time>2026-04-28T15:26:27Z</time></trkpt><trkpt lat="34.21488502068675" lon="-4.92959297024264"><ele>140.0</ele><time>2026-04-28T15:26:28Z</time></trkpt><trkpt lat="34.21470564634666" lon="-4.929781019143452"><ele>140.0</ele><time>2026-04-28T15:26:29Z</time></trkpt><trkpt lat="34.21451728644751" lon="-4.92995184216808"><ele>140.0</ele><time>2026-04-28T15:26:30Z</time></trkpt><trkpt lat="34.214316890600685" lon="-4.930113669729979"><ele>142.5</ele><time>2026-04-28T15:26:31Z</time></trkpt><trkpt lat="34.21411279562246" lon="-4.9302590524451055"><ele>145.0</ele><time>2026-04-28T15:26:32Z</time></trkpt><trkpt lat="34.213908898281936" lon="-4.930401058935368"><ele>145.0</ele><time>2026-04-28T15:26:33Z</time></trkpt><trkpt lat="34.213708466807866" lon="-4.930530627592674"><ele>145.0</ele><time>2026-04-28T15:26:34Z</time></trkpt><trkpt lat="34.21350763173781" lon="-4.9306390676086735"><ele>145.0</ele><time>2026-04-28T15:26:35Z</time></trkpt><trkpt lat="34.21330933552798" lon="-4.930725948929335"><ele>144.33333333333334</ele><time>2026-04-28T15:26:36Z</time></trkpt><trkpt lat="34.21312593543779" lon="-4.930802359940462"><ele>143.66666666666666</ele><time>2026-04-28T15:26:37Z</time></trkpt><trkpt lat="34.21295874066969" lon="-4.930883710545082"><ele>143.0</ele><time>2026-04-28T15:26:38Z</time></trkpt><trkpt lat="34.21281548228816" lon="-4.930980398604608"><ele>143.0</ele><time>2026-04-28T15:26:39Z</time></trkpt><trkpt lat="34.21268707498329" lon="-4.931097887834928"><ele>143.0</ele><time>2026-04-28T15:26:40Z</time></trkpt><trkpt lat="34.21257624720795" lon="-4.93123782924654"><ele>143.0</ele><time>2026-04-28T15:26:41Z</time></trkpt><trkpt lat="34.212491331324046" lon="-4.931398606280875"><ele>143.0</ele><time>2026-04-28T15:26:42Z</time></trkpt><trkpt lat="34.2124273081226" lon="-4.931581384140261"><ele>143.0</ele><time>2026-04-28T15:26:43Z</time></trkpt><trkpt lat="34.21237825448359" lon="-4.931788254031488"><ele>143.0</ele><time>2026-04-28T15:26:44Z</time></trkpt><trkpt lat="34.21232227879721" lon="-4.9320029939875"><ele>142.0</ele><time>2026-04-28T15:26:45Z</time></trkpt><trkpt lat="34.21226127606832" lon="-4.932214854805769"><ele>141.0</ele><time>2026-04-28T15:26:46Z</time></trkpt><trkpt lat="34.21220192846357" lon="-4.932409225224628"><ele>140.0</ele><time>2026-04-28T15:26:47Z</time></trkpt><trkpt lat="34.21212710276999" lon="-4.9325798157612635"><ele>142.66666666666666</ele><time>2026-04-28T15:26:48Z</time></trkpt><trkpt lat="34.21202569509045" lon="-4.932721230259241"><ele>145.33333333333334</ele><time>2026-04-28T15:26:49Z</time></trkpt><trkpt lat="34.211898904741766" lon="-4.9328476302060835"><ele>148.0</ele><time>2026-04-28T15:26:50Z</time></trkpt><trkpt lat="34.21174995013178" lon="-4.932947151126631"><ele>148.0</ele><time>2026-04-28T15:26:51Z</time></trkpt><trkpt lat="34.21157485772535" lon="-4.93301423053789"><ele>148.0</ele><time>2026-04-28T15:26:52Z</time></trkpt><trkpt lat="34.21138252100546" lon="-4.933061199758273"><ele>148.0</ele><time>2026-04-28T15:26:53Z</time></trkpt><trkpt lat="34.21118143039586" lon="-4.933083602588752"><ele>148.0</ele><time>2026-04-28T15:26:54Z</time></trkpt><trkpt lat="34.21096998409459" lon="-4.933111402608863"><ele>148.0</ele><time>2026-04-28T15:26:55Z</time></trkpt><trkpt lat="34.21075935337265" lon="-4.933143179086455"><ele>148.0</ele><time>2026-04-28T15:26:56Z</time></trkpt><trkpt lat="34.21055822956465" lon="-4.9331671931616645"><ele>148.0</ele><time>2026-04-28T15:26:57Z</time></trkpt><trkpt lat="34.210359720341636" lon="-4.933192024479464"><ele>148.0</ele><time>2026-04-28T15:26:58Z</time></trkpt><trkpt lat="34.210161565889024" lon="-4.933254440926315"><ele>148.0</ele><time>2026-04-28T15:26:59Z</time></trkpt><trkpt lat="34.20995966668119" lon="-4.933357351897253"><ele>150.5</ele><time>2026-04-28T15:27:00Z</time></trkpt><trkpt lat="34.20975730259256" lon="-4.93347549371354"><ele>153.0</ele><time>2026-04-28T15:27:01Z</time></trkpt><trkpt lat="34.20954356373307" lon="-4.933597457541576"><ele>153.0</ele><time>2026-04-28T15:27:02Z</time></trkpt><trkpt lat="34.2093362749895" lon="-4.933712557409839"><ele>153.0</ele><time>2026-04-28T15:27:03Z</time></trkpt><trkpt lat="34.209134475103426" lon="-4.933830324028809"><ele>153.0</ele><time>2026-04-28T15:27:04Z</time></trkpt><trkpt lat="34.208939540217905" lon="-4.933944297139535"><ele>153.0</ele><time>2026-04-28T15:27:05Z</time></trkpt><trkpt lat="34.20874823783905" lon="-4.9340538652549695"><ele>153.0</ele><time>2026-04-28T15:27:06Z</time></trkpt><trkpt lat="34.20855750484042" lon="-4.934163731590191"><ele>153.66666666666666</ele><time>2026-04-28T15:27:07Z</time></trkpt><trkpt lat="34.20836833259204" lon="-4.934271796658383"><ele>154.33333333333331</ele><time>2026-04-28T15:27:08Z</time></trkpt><trkpt lat="34.20819016259521" lon="-4.934370471550837"><ele>155.0</ele><time>2026-04-28T15:27:09Z</time></trkpt><trkpt lat="34.20802436532878" lon="-4.934458771452996"><ele>155.0</ele><time>2026-04-28T15:27:10Z</time></trkpt><trkpt lat="34.20786632755425" lon="-4.934543647066715"><ele>155.0</ele><time>2026-04-28T15:27:11Z</time></trkpt><trkpt lat="34.207718983489514" lon="-4.93463149532599"><ele>155.0</ele><time>2026-04-28T15:27:12Z</time></trkpt><trkpt lat="34.2075789291696" lon="-4.934719814715211"><ele>155.0</ele><time>2026-04-28T15:27:13Z</time></trkpt><trkpt lat="34.20744383032464" lon="-4.9348011182339055"><ele>155.0</ele><time>2026-04-28T15:27:14Z</time></trkpt><trkpt lat="34.207303237564645" lon="-4.934870650305143"><ele>155.0</ele><time>2026-04-28T15:27:15Z</time></trkpt><trkpt lat="34.20715841019917" lon="-4.934926414703262"><ele>155.5</ele><time>2026-04-28T15:27:16Z</time></trkpt><trkpt lat="34.2070187917109" lon="-4.934976272076566"><ele>156.0</ele><time>2026-04-28T15:27:17Z</time></trkpt><trkpt lat="34.206882950101296" lon="-4.935021365855648"><ele>156.5</ele><time>2026-04-28T15:27:18Z</time></trkpt><trkpt lat="34.206746728175" lon="-4.935063316681838"><ele>157.0</ele><time>2026-04-28T15:27:19Z</time></trkpt><trkpt lat="34.20660831210061" lon="-4.935107762889267"><ele>158.5</ele><time>2026-04-28T15:27:20Z</time></trkpt><trkpt lat="34.206466386148676" lon="-4.93515155414156"><ele>160.0</ele><time>2026-04-28T15:27:21Z</time></trkpt><trkpt lat="34.20632174139492" lon="-4.935192945115878"><ele>161.5</ele><time>2026-04-28T15:27:22Z</time></trkpt><trkpt lat="34.20617118453219" lon="-4.935226245711186"><ele>163.0</ele><time>2026-04-28T15:27:23Z</time></trkpt><trkpt lat="34.20601253601716" lon="-4.935249377207626"><ele>163.0</ele><time>2026-04-28T15:27:24Z</time></trkpt><trkpt lat="34.20584897977992" lon="-4.935267775146793"><ele>163.0</ele><time>2026-04-28T15:27:25Z</time></trkpt><trkpt lat="34.20568436912595" lon="-4.935289167797742"><ele>163.0</ele><time>2026-04-28T15:27:26Z</time></trkpt><trkpt lat="34.205519052046824" lon="-4.935310688222596"><ele>163.66666666666669</ele><time>2026-04-28T15:27:27Z</time></trkpt><trkpt lat="34.20535271470438" lon="-4.935327030189594"><ele>164.33333333333334</ele><time>2026-04-28T15:27:28Z</time></trkpt><trkpt lat="34.20518768950702" lon="-4.935345806985764"><ele>165.0</ele><time>2026-04-28T15:27:29Z</time></trkpt><trkpt lat="34.20502585940086" lon="-4.935371692888968"><ele>165.0</ele><time>2026-04-28T15:27:30Z</time></trkpt><trkpt lat="34.20487453588984" lon="-4.93539048845999"><ele>165.0</ele><time>2026-04-28T15:27:31Z</time></trkpt><trkpt lat="34.2047353825889" lon="-4.935424899600315"><ele>165.0</ele><time>2026-04-28T15:27:32Z</time></trkpt><trkpt lat="34.204606644053364" lon="-4.935442563985011"><ele>165.0</ele><time>2026-04-28T15:27:33Z</time></trkpt><trkpt lat="34.20448749243184" lon="-4.935458695293987"><ele>166.2</ele><time>2026-04-28T15:27:34Z</time></trkpt><trkpt lat="34.20437437050465" lon="-4.935473844304664"><ele>167.4</ele><time>2026-04-28T15:27:35Z</time></trkpt><trkpt lat="34.20425836038103" lon="-4.935489016832653"><ele>168.60000000000002</ele><time>2026-04-28T15:27:36Z</time></trkpt><trkpt lat="34.20415599860724" lon="-4.935502450187995"><ele>169.8</ele><time>2026-04-28T15:27:37Z</time></trkpt><trkpt lat="34.20404791264094" lon="-4.935498561410528"><ele>171.0</ele><time>2026-04-28T15:27:38Z</time></trkpt><trkpt lat="34.203937897667245" lon="-4.935516035559554"><ele>171.60000000000002</ele><time>2026-04-28T15:27:39Z</time></trkpt><trkpt lat="34.20383378467775" lon="-4.935527952682799"><ele>172.2</ele><time>2026-04-28T15:27:40Z</time></trkpt><trkpt lat="34.20373450362683" lon="-4.935540960769541"><ele>172.8</ele><time>2026-04-28T15:27:41Z</time></trkpt><trkpt lat="34.20363992842561" lon="-4.9355556801164875"><ele>173.39999999999998</ele><time>2026-04-28T15:27:42Z</time></trkpt><trkpt lat="34.20355941399296" lon="-4.935566204397434"><ele>174.0</ele><time>2026-04-28T15:27:43Z</time></trkpt><trkpt lat="34.20343354004503" lon="-4.93557889558128"><ele>174.0</ele><time>2026-04-28T15:27:45Z</time></trkpt><trkpt lat="34.203355854190384" lon="-4.935590222068786"><ele>174.0</ele><time>2026-04-28T15:27:46Z</time></trkpt><trkpt lat="34.20327197998945" lon="-4.935606520845045"><ele>174.0</ele><time>2026-04-28T15:27:47Z</time></trkpt><trkpt lat="34.20318590596792" lon="-4.935619558288854"><ele>174.0</ele><time>2026-04-28T15:27:48Z</time></trkpt><trkpt lat="34.20309925026826" lon="-4.935631581979832"><ele>174.0</ele><time>2026-04-28T15:27:49Z</time></trkpt><trkpt lat="34.20300893294028" lon="-4.93564054031602"><ele>174.0</ele><time>2026-04-28T15:27:50Z</time></trkpt><trkpt lat="34.20291446951669" lon="-4.935651410958964"><ele>174.39999999999998</ele><time>2026-04-28T15:27:51Z</time></trkpt><trkpt lat="34.202817743341996" lon="-4.935661583394994"><ele>174.8</ele><time>2026-04-28T15:27:52Z</time></trkpt><trkpt lat="34.20272278828373" lon="-4.935673985719913"><ele>175.2</ele><time>2026-04-28T15:27:53Z</time></trkpt><trkpt lat="34.202630669627546" lon="-4.935688973656038"><ele>175.60000000000002</ele><time>2026-04-28T15:27:54Z</time></trkpt><trkpt lat="34.20253812066053" lon="-4.935702633437308"><ele>176.0</ele><time>2026-04-28T15:27:55Z</time></trkpt><trkpt lat="34.20244367376998" lon="-4.935714652183144"><ele>176.0</ele><time>2026-04-28T15:27:56Z</time></trkpt><trkpt lat="34.20234734364378" lon="-4.935728206619804"><ele>176.0</ele><time>2026-04-28T15:27:57Z</time></trkpt><trkpt lat="34.2022475576568" lon="-4.9357437534988815"><ele>176.0</ele><time>2026-04-28T15:27:58Z</time></trkpt><trkpt lat="34.202148098223304" lon="-4.935756357099975"><ele>176.0</ele><time>2026-04-28T15:27:59Z</time></trkpt><trkpt lat="34.20205084188517" lon="-4.935769871767801"><ele>176.0</ele><time>2026-04-28T15:28:00Z</time></trkpt><trkpt lat="34.20195294330798" lon="-4.935781886617518"><ele>176.0</ele><time>2026-04-28T15:28:01Z</time></trkpt><trkpt lat="34.201855247858816" lon="-4.9357980737801075"><ele>176.0</ele><time>2026-04-28T15:28:02Z</time></trkpt><trkpt lat="34.20175582578804" lon="-4.935815864715109"><ele>176.0</ele><time>2026-04-28T15:28:03Z</time></trkpt><trkpt lat="34.20165337396653" lon="-4.935830011430902"><ele>176.0</ele><time>2026-04-28T15:28:04Z</time></trkpt><trkpt lat="34.20155464708631" lon="-4.935844321342407"><ele>176.0</ele><time>2026-04-28T15:28:05Z</time></trkpt><trkpt lat="34.20146127538856" lon="-4.935859251799434"><ele>176.0</ele><time>2026-04-28T15:28:06Z</time></trkpt><trkpt lat="34.201373327343155" lon="-4.9358733282026686"><ele>176.0</ele><time>2026-04-28T15:28:07Z</time></trkpt><trkpt lat="34.201286454734465" lon="-4.935886435440192"><ele>176.0</ele><time>2026-04-28T15:28:08Z</time></trkpt><trkpt lat="34.201199054018005" lon="-4.935898539699904"><ele>176.0</ele><time>2026-04-28T15:28:09Z</time></trkpt><trkpt lat="34.201109315050005" lon="-4.935908928491049"><ele>176.0</ele><time>2026-04-28T15:28:10Z</time></trkpt><trkpt lat="34.20101678760142" lon="-4.93592084475317"><ele>176.0</ele><time>2026-04-28T15:28:11Z</time></trkpt><trkpt lat="34.20092421990875" lon="-4.935955217310915"><ele>176.16666666666666</ele><time>2026-04-28T15:28:12Z</time></trkpt><trkpt lat="34.20083031749249" lon="-4.93596956454729"><ele>176.33333333333331</ele><time>2026-04-28T15:28:13Z</time></trkpt><trkpt lat="34.200741314295826" lon="-4.935982810987335"><ele>176.5</ele><time>2026-04-28T15:28:14Z</time></trkpt><trkpt lat="34.20065384564714" lon="-4.935995648960417"><ele>176.66666666666666</ele><time>2026-04-28T15:28:15Z</time></trkpt><trkpt lat="34.20056778497944" lon="-4.936008773215404"><ele>176.83333333333334</ele><time>2026-04-28T15:28:16Z</time></trkpt><trkpt lat="34.20047947766916" lon="-4.936022375535614"><ele>177.0</ele><time>2026-04-28T15:28:17Z</time></trkpt><trkpt lat="34.20039161729445" lon="-4.9360359090116805"><ele>177.0</ele><time>2026-04-28T15:28:18Z</time></trkpt><trkpt lat="34.20030639135093" lon="-4.9360490366937855"><ele>177.0</ele><time>2026-04-28T15:28:19Z</time></trkpt><trkpt lat="34.20022554043288" lon="-4.93606149047252"><ele>177.0</ele><time>2026-04-28T15:28:20Z</time></trkpt><trkpt lat="34.200149823898435" lon="-4.9360556912824425"><ele>177.0</ele><time>2026-04-28T15:28:21Z</time></trkpt><trkpt lat="34.2000862293889" lon="-4.936071672393162"><ele>177.0</ele><time>2026-04-28T15:28:22Z</time></trkpt><trkpt lat="34.19999079716725" lon="-4.936107332662671"><ele>177.0</ele><time>2026-04-28T15:28:24Z</time></trkpt><trkpt lat="34.19993532669193" lon="-4.936192555845638"><ele>177.0</ele><time>2026-04-28T15:28:26Z</time></trkpt><trkpt lat="34.19986868026035" lon="-4.936203646914422"><ele>177.0</ele><time>2026-04-28T15:28:29Z</time></trkpt><trkpt lat="34.19978867853983" lon="-4.936230910308986"><ele>177.0</ele><time>2026-04-28T15:28:33Z</time></trkpt><trkpt lat="34.199711547823306" lon="-4.936213830085101"><ele>177.0</ele><time>2026-04-28T15:28:37Z</time></trkpt><trkpt lat="34.19953099058266" lon="-4.936354142548392"><ele>177.0</ele><time>2026-04-28T15:28:56Z</time></trkpt><trkpt lat="34.199478827153754" lon="-4.936278799417222"><ele>176.39999999999998</ele><time>2026-04-28T15:28:58Z</time></trkpt><trkpt lat="34.19940380657002" lon="-4.936227831543041"><ele>175.79999999999998</ele><time>2026-04-28T15:29:01Z</time></trkpt><trkpt lat="34.19929181275617" lon="-4.936222340545456"><ele>175.2</ele><time>2026-04-28T15:29:07Z</time></trkpt><trkpt lat="34.199234371996994" lon="-4.936281933168317"><ele>174.6</ele><time>2026-04-28T15:29:08Z</time></trkpt><trkpt lat="34.19912110839915" lon="-4.936321285071136"><ele>174.0</ele><time>2026-04-28T15:29:09Z</time></trkpt><trkpt lat="34.19897883044217" lon="-4.936406660415254"><ele>174.0</ele><time>2026-04-28T15:29:10Z</time></trkpt><trkpt lat="34.19883782579951" lon="-4.936520889472472"><ele>174.0</ele><time>2026-04-28T15:29:11Z</time></trkpt><trkpt lat="34.198732917658795" lon="-4.936604302996623"><ele>174.0</ele><time>2026-04-28T15:29:12Z</time></trkpt><trkpt lat="34.19865608944443" lon="-4.936668326546601"><ele>174.0</ele><time>2026-04-28T15:29:13Z</time></trkpt><trkpt lat="34.19857068706079" lon="-4.936738366555909"><ele>174.0</ele><time>2026-04-28T15:29:14Z</time></trkpt><trkpt lat="34.19849890520455" lon="-4.936818734291297"><ele>174.0</ele><time>2026-04-28T15:29:15Z</time></trkpt><trkpt lat="34.19841746603383" lon="-4.936892691730459"><ele>174.0</ele><time>2026-04-28T15:29:16Z</time></trkpt><trkpt lat="34.19832042426161" lon="-4.936972949821232"><ele>174.0</ele><time>2026-04-28T15:29:17Z</time></trkpt><trkpt lat="34.198228584470996" lon="-4.937048982695713"><ele>174.0</ele><time>2026-04-28T15:29:18Z</time></trkpt><trkpt lat="34.198135005731196" lon="-4.937134313559206"><ele>172.79999999999998</ele><time>2026-04-28T15:29:19Z</time></trkpt><trkpt lat="34.19804849799293" lon="-4.937213693204153"><ele>171.6</ele><time>2026-04-28T15:29:20Z</time></trkpt><trkpt lat="34.197971168919885" lon="-4.937284194386955"><ele>170.4</ele><time>2026-04-28T15:29:21Z</time></trkpt><trkpt lat="34.19789616530234" lon="-4.937352811777428"><ele>169.2</ele><time>2026-04-28T15:29:22Z</time></trkpt><trkpt lat="34.197821126485316" lon="-4.9374213410964725"><ele>168.0</ele><time>2026-04-28T15:29:23Z</time></trkpt><trkpt lat="34.19773609160306" lon="-4.9374819736563715"><ele>168.8</ele><time>2026-04-28T15:29:24Z</time></trkpt><trkpt lat="34.19765625478826" lon="-4.937564818843031"><ele>169.60000000000002</ele><time>2026-04-28T15:29:25Z</time></trkpt><trkpt lat="34.19757551848903" lon="-4.93764073515218"><ele>170.39999999999998</ele><time>2026-04-28T15:29:26Z</time></trkpt><trkpt lat="34.19750185380048" lon="-4.9377038003636855"><ele>171.2</ele><time>2026-04-28T15:29:27Z</time></trkpt><trkpt lat="34.19744026576259" lon="-4.937764612976854"><ele>172.0</ele><time>2026-04-28T15:29:28Z</time></trkpt><trkpt lat="34.19737093715397" lon="-4.9378229649958065"><ele>169.8</ele><time>2026-04-28T15:29:29Z</time></trkpt><trkpt lat="34.19729506961899" lon="-4.937889313863479"><ele>167.6</ele><time>2026-04-28T15:29:30Z</time></trkpt><trkpt lat="34.19720797382449" lon="-4.937963958405106"><ele>165.4</ele><time>2026-04-28T15:29:31Z</time></trkpt><trkpt lat="34.1971215160205" lon="-4.938039660368955"><ele>163.20000000000002</ele><time>2026-04-28T15:29:32Z</time></trkpt><trkpt lat="34.19702979461514" lon="-4.938133088326851"><ele>161.0</ele><time>2026-04-28T15:29:33Z</time></trkpt><trkpt lat="34.19692814450267" lon="-4.938241030498447"><ele>161.0</ele><time>2026-04-28T15:29:34Z</time></trkpt><trkpt lat="34.19681718557121" lon="-4.938338703690218"><ele>161.0</ele><time>2026-04-28T15:29:35Z</time></trkpt><trkpt lat="34.19670480977238" lon="-4.938439574709517"><ele>161.0</ele><time>2026-04-28T15:29:36Z</time></trkpt><trkpt lat="34.196587936523834" lon="-4.938540178636713"><ele>161.0</ele><time>2026-04-28T15:29:37Z</time></trkpt><trkpt lat="34.196488783131564" lon="-4.938665850080727"><ele>162.25</ele><time>2026-04-28T15:29:38Z</time></trkpt><trkpt lat="34.196382183422905" lon="-4.93877369960005"><ele>163.5</ele><time>2026-04-28T15:29:39Z</time></trkpt><trkpt lat="34.196216752365196" lon="-4.9387931391091096"><ele>164.75</ele><time>2026-04-28T15:29:40Z</time></trkpt><trkpt lat="34.19608701524066" lon="-4.938839137106442"><ele>166.0</ele><time>2026-04-28T15:29:41Z</time></trkpt><trkpt lat="34.19594833568369" lon="-4.938852511783063"><ele>166.0</ele><time>2026-04-28T15:29:42Z</time></trkpt><trkpt lat="34.195807454376144" lon="-4.938842753440331"><ele>166.0</ele><time>2026-04-28T15:29:43Z</time></trkpt><trkpt lat="34.19566327289729" lon="-4.938792098760121"><ele>166.0</ele><time>2026-04-28T15:29:44Z</time></trkpt><trkpt lat="34.195520962368825" lon="-4.938721895854274"><ele>166.0</ele><time>2026-04-28T15:29:45Z</time></trkpt><trkpt lat="34.19537838669065" lon="-4.938646198271781"><ele>163.33333333333334</ele><time>2026-04-28T15:29:46Z</time></trkpt><trkpt lat="34.195233923708024" lon="-4.938573651715693"><ele>160.66666666666666</ele><time>2026-04-28T15:29:47Z</time></trkpt><trkpt lat="34.19509371098376" lon="-4.938517150957715"><ele>158.0</ele><time>2026-04-28T15:29:48Z</time></trkpt><trkpt lat="34.194951008730136" lon="-4.938467994314965"><ele>160.33333333333331</ele><time>2026-04-28T15:29:49Z</time></trkpt><trkpt lat="34.1947991884965" lon="-4.938439357925593"><ele>162.66666666666666</ele><time>2026-04-28T15:29:50Z</time></trkpt><trkpt lat="34.19464383035706" lon="-4.9384626787022174"><ele>165.0</ele><time>2026-04-28T15:29:51Z</time></trkpt><trkpt lat="34.19448596081787" lon="-4.9384867261144265"><ele>165.0</ele><time>2026-04-28T15:29:52Z</time></trkpt><trkpt lat="34.19435441017389" lon="-4.938575914813784"><ele>165.0</ele><time>2026-04-28T15:29:53Z</time></trkpt><trkpt lat="34.194213454794664" lon="-4.938670567787813"><ele>165.0</ele><time>2026-04-28T15:29:54Z</time></trkpt><trkpt lat="34.19406870121427" lon="-4.938782880074102"><ele>170.33333333333334</ele><time>2026-04-28T15:29:55Z</time></trkpt><trkpt lat="34.19393761011077" lon="-4.9389174091480506"><ele>175.66666666666669</ele><time>2026-04-28T15:29:56Z</time></trkpt><trkpt lat="34.193803548516506" lon="-4.939049215843165"><ele>181.0</ele><time>2026-04-28T15:29:57Z</time></trkpt><trkpt lat="34.193680645855565" lon="-4.939170146928442"><ele>177.75</ele><time>2026-04-28T15:29:58Z</time></trkpt><trkpt lat="34.193572443607515" lon="-4.939275404108866"><ele>174.5</ele><time>2026-04-28T15:29:59Z</time></trkpt><trkpt lat="34.19347429300747" lon="-4.9393694550618275"><ele>171.25</ele><time>2026-04-28T15:30:00Z</time></trkpt><trkpt lat="34.19338262134567" lon="-4.939456709383153"><ele>168.0</ele><time>2026-04-28T15:30:01Z</time></trkpt><trkpt lat="34.19329386704611" lon="-4.939532158355119"><ele>168.0</ele><time>2026-04-28T15:30:02Z</time></trkpt><trkpt lat="34.193211490515935" lon="-4.939589328839529"><ele>168.0</ele><time>2026-04-28T15:30:03Z</time></trkpt><trkpt lat="34.1931337393177" lon="-4.939629141083132"><ele>168.0</ele><time>2026-04-28T15:30:04Z</time></trkpt><trkpt lat="34.19306636043585" lon="-4.939659349037477"><ele>168.0</ele><time>2026-04-28T15:30:05Z</time></trkpt><trkpt lat="34.19299819624511" lon="-4.939676204579953"><ele>168.0</ele><time>2026-04-28T15:30:06Z</time></trkpt><trkpt lat="34.19293607029139" lon="-4.939690383470323"><ele>168.0</ele><time>2026-04-28T15:30:07Z</time></trkpt><trkpt lat="34.192790614468564" lon="-4.939681088843674"><ele>169.60000000000002</ele><time>2026-04-28T15:30:09Z</time></trkpt><trkpt lat="34.19269056283121" lon="-4.939685581330929"><ele>171.20000000000002</ele><time>2026-04-28T15:30:10Z</time></trkpt><trkpt lat="34.192587973718254" lon="-4.939667962486818"><ele>172.8</ele><time>2026-04-28T15:30:11Z</time></trkpt><trkpt lat="34.19248387218955" lon="-4.939649365233741"><ele>174.4</ele><time>2026-04-28T15:30:12Z</time></trkpt><trkpt lat="34.19236892465739" lon="-4.939627506758955"><ele>176.0</ele><time>2026-04-28T15:30:13Z</time></trkpt><trkpt lat="34.192251376238524" lon="-4.939601729559887"><ele>177.60000000000002</ele><time>2026-04-28T15:30:14Z</time></trkpt><trkpt lat="34.19214183054946" lon="-4.939577707283853"><ele>179.2</ele><time>2026-04-28T15:30:15Z</time></trkpt><trkpt lat="34.19203440307715" lon="-4.939539635788639"><ele>180.8</ele><time>2026-04-28T15:30:16Z</time></trkpt><trkpt lat="34.19192688170513" lon="-4.939514777930165"><ele>182.39999999999998</ele><time>2026-04-28T15:30:17Z</time></trkpt><trkpt lat="34.19181591062447" lon="-4.939515596076057"><ele>184.0</ele><time>2026-04-28T15:30:18Z</time></trkpt><trkpt lat="34.19170169333899" lon="-4.939515196346608"><ele>184.0</ele><time>2026-04-28T15:30:19Z</time></trkpt><trkpt lat="34.1915796798121" lon="-4.93951667057815"><ele>184.0</ele><time>2026-04-28T15:30:20Z</time></trkpt><trkpt lat="34.19147564496355" lon="-4.939573728115763"><ele>184.0</ele><time>2026-04-28T15:30:21Z</time></trkpt><trkpt lat="34.19139354209593" lon="-4.939669402763688"><ele>184.0</ele><time>2026-04-28T15:30:22Z</time></trkpt><trkpt lat="34.19133344509054" lon="-4.93978982056483"><ele>186.75</ele><time>2026-04-28T15:30:23Z</time></trkpt><trkpt lat="34.19125022885677" lon="-4.939904405913112"><ele>189.5</ele><time>2026-04-28T15:30:24Z</time></trkpt><trkpt lat="34.19115222293514" lon="-4.940008832857242"><ele>192.25</ele><time>2026-04-28T15:30:25Z</time></trkpt><trkpt lat="34.19107297388553" lon="-4.94012593240242"><ele>195.0</ele><time>2026-04-28T15:30:26Z</time></trkpt><trkpt lat="34.19097722161824" lon="-4.940217024776049"><ele>195.0</ele><time>2026-04-28T15:30:27Z</time></trkpt><trkpt lat="34.190867878800695" lon="-4.940291341460693"><ele>195.0</ele><time>2026-04-28T15:30:28Z</time></trkpt><trkpt lat="34.19075179471887" lon="-4.940353110898915"><ele>195.0</ele><time>2026-04-28T15:30:29Z</time></trkpt><trkpt lat="34.19063855410068" lon="-4.940415590239197"><ele>195.0</ele><time>2026-04-28T15:30:30Z</time></trkpt><trkpt lat="34.190522697148886" lon="-4.940489791802476"><ele>197.25</ele><time>2026-04-28T15:30:31Z</time></trkpt><trkpt lat="34.19039685203701" lon="-4.940566258216621"><ele>199.5</ele><time>2026-04-28T15:30:32Z</time></trkpt><trkpt lat="34.19027135953124" lon="-4.940642565984803"><ele>201.75</ele><time>2026-04-28T15:30:33Z</time></trkpt><trkpt lat="34.190142626755076" lon="-4.940723608808442"><ele>204.0</ele><time>2026-04-28T15:30:34Z</time></trkpt><trkpt lat="34.19001255049669" lon="-4.940807700411383"><ele>204.66666666666669</ele><time>2026-04-28T15:30:35Z</time></trkpt><trkpt lat="34.18987792016704" lon="-4.940890187734284"><ele>205.33333333333334</ele><time>2026-04-28T15:30:36Z</time></trkpt><trkpt lat="34.18974893872685" lon="-4.940995622778992"><ele>206.0</ele><time>2026-04-28T15:30:37Z</time></trkpt><trkpt lat="34.189610605126845" lon="-4.941086071666602"><ele>206.0</ele><time>2026-04-28T15:30:38Z</time></trkpt><trkpt lat="34.189462614890466" lon="-4.941161090169309"><ele>206.0</ele><time>2026-04-28T15:30:39Z</time></trkpt><trkpt lat="34.18931760599751" lon="-4.941259007185608"><ele>206.0</ele><time>2026-04-28T15:30:40Z</time></trkpt><trkpt lat="34.18917232158144" lon="-4.941357924629527"><ele>206.0</ele><time>2026-04-28T15:30:41Z</time></trkpt><trkpt lat="34.189034063387425" lon="-4.941450223665639"><ele>206.0</ele><time>2026-04-28T15:30:42Z</time></trkpt><trkpt lat="34.18889353452913" lon="-4.941543074668866"><ele>206.0</ele><time>2026-04-28T15:30:43Z</time></trkpt><trkpt lat="34.18874984846111" lon="-4.941636915534535"><ele>209.33333333333334</ele><time>2026-04-28T15:30:44Z</time></trkpt><trkpt lat="34.188606078987085" lon="-4.9417233326882"><ele>212.66666666666669</ele><time>2026-04-28T15:30:45Z</time></trkpt><trkpt lat="34.18846090549926" lon="-4.941803089439939"><ele>216.0</ele><time>2026-04-28T15:30:46Z</time></trkpt><trkpt lat="34.188314626831485" lon="-4.941888997993504"><ele>216.66666666666669</ele><time>2026-04-28T15:30:47Z</time></trkpt><trkpt lat="34.18816778264807" lon="-4.94198417142933"><ele>217.33333333333334</ele><time>2026-04-28T15:30:48Z</time></trkpt><trkpt lat="34.18802374915084" lon="-4.942077370159781"><ele>218.0</ele><time>2026-04-28T15:30:49Z</time></trkpt><trkpt lat="34.187880925455715" lon="-4.942166743351862"><ele>218.0</ele><time>2026-04-28T15:30:50Z</time></trkpt><trkpt lat="34.18773621547442" lon="-4.9422557086838275"><ele>218.0</ele><time>2026-04-28T15:30:51Z</time></trkpt><trkpt lat="34.18758811723406" lon="-4.942343656862814"><ele>218.0</ele><time>2026-04-28T15:30:52Z</time></trkpt><trkpt lat="34.187437182255984" lon="-4.942434006330581"><ele>217.66666666666669</ele><time>2026-04-28T15:30:53Z</time></trkpt><trkpt lat="34.18728783975729" lon="-4.942524995301807"><ele>217.33333333333331</ele><time>2026-04-28T15:30:54Z</time></trkpt><trkpt lat="34.187137690336286" lon="-4.942621300122539"><ele>217.0</ele><time>2026-04-28T15:30:55Z</time></trkpt><trkpt lat="34.18699070015985" lon="-4.942727427871142"><ele>221.0</ele><time>2026-04-28T15:30:56Z</time></trkpt><trkpt lat="34.186840157871636" lon="-4.942829000422067"><ele>225.0</ele><time>2026-04-28T15:30:57Z</time></trkpt><trkpt lat="34.18668578705784" lon="-4.942916992094441"><ele>229.0</ele><time>2026-04-28T15:30:58Z</time></trkpt><trkpt lat="34.186527920904176" lon="-4.943006180027182"><ele>227.66666666666666</ele><time>2026-04-28T15:30:59Z</time></trkpt><trkpt lat="34.1863758168133" lon="-4.943104633840667"><ele>226.33333333333331</ele><time>2026-04-28T15:31:00Z</time></trkpt><trkpt lat="34.18622507500797" lon="-4.943206275009289"><ele>225.0</ele><time>2026-04-28T15:31:01Z</time></trkpt><trkpt lat="34.18607168522544" lon="-4.9433050763879995"><ele>229.66666666666669</ele><time>2026-04-28T15:31:02Z</time></trkpt><trkpt lat="34.1859122376049" lon="-4.943397710187721"><ele>234.33333333333334</ele><time>2026-04-28T15:31:03Z</time></trkpt><trkpt lat="34.18575671761139" lon="-4.943495128289123"><ele>239.0</ele><time>2026-04-28T15:31:04Z</time></trkpt><trkpt lat="34.185603652483096" lon="-4.943598097345612"><ele>239.0</ele><time>2026-04-28T15:31:05Z</time></trkpt><trkpt lat="34.18545059129279" lon="-4.9436955828155424"><ele>239.0</ele><time>2026-04-28T15:31:06Z</time></trkpt><trkpt lat="34.185298018781815" lon="-4.943789071629006"><ele>239.0</ele><time>2026-04-28T15:31:07Z</time></trkpt><trkpt lat="34.18514650082556" lon="-4.9438821773479456"><ele>239.0</ele><time>2026-04-28T15:31:08Z</time></trkpt><trkpt lat="34.18498955973308" lon="-4.943971785326526"><ele>239.0</ele><time>2026-04-28T15:31:09Z</time></trkpt><trkpt lat="34.184828211328885" lon="-4.944059669855851"><ele>239.0</ele><time>2026-04-28T15:31:10Z</time></trkpt><trkpt lat="34.18466966132449" lon="-4.944148235016399"><ele>240.0</ele><time>2026-04-28T15:31:11Z</time></trkpt><trkpt lat="34.18451828291125" lon="-4.944232971560255"><ele>241.0</ele><time>2026-04-28T15:31:12Z</time></trkpt><trkpt lat="34.18436339918716" lon="-4.944320688419353"><ele>242.0</ele><time>2026-04-28T15:31:13Z</time></trkpt><trkpt lat="34.184200229636865" lon="-4.9444092335987"><ele>242.0</ele><time>2026-04-28T15:31:14Z</time></trkpt><trkpt lat="34.184026144748294" lon="-4.944498901394988"><ele>242.0</ele><time>2026-04-28T15:31:15Z</time></trkpt><trkpt lat="34.18384813777185" lon="-4.944587151257555"><ele>242.0</ele><time>2026-04-28T15:31:16Z</time></trkpt><trkpt lat="34.18366482468768" lon="-4.944682448409964"><ele>240.66666666666669</ele><time>2026-04-28T15:31:17Z</time></trkpt><trkpt lat="34.18348438216852" lon="-4.944774110398359"><ele>239.33333333333331</ele><time>2026-04-28T15:31:18Z</time></trkpt><trkpt lat="34.18330691202653" lon="-4.944864733377981"><ele>238.0</ele><time>2026-04-28T15:31:19Z</time></trkpt><trkpt lat="34.18313579927549" lon="-4.944954319406521"><ele>237.66666666666666</ele><time>2026-04-28T15:31:20Z</time></trkpt><trkpt lat="34.18297024819717" lon="-4.9450430911298175"><ele>237.33333333333331</ele><time>2026-04-28T15:31:21Z</time></trkpt><trkpt lat="34.18281006927925" lon="-4.945129165399887"><ele>237.0</ele><time>2026-04-28T15:31:22Z</time></trkpt><trkpt lat="34.18265130290519" lon="-4.945211768633201"><ele>240.33333333333331</ele><time>2026-04-28T15:31:23Z</time></trkpt><trkpt lat="34.18249326999598" lon="-4.945293243319958"><ele>243.66666666666666</ele><time>2026-04-28T15:31:24Z</time></trkpt><trkpt lat="34.182332512934174" lon="-4.94537459894796"><ele>247.0</ele><time>2026-04-28T15:31:25Z</time></trkpt><trkpt lat="34.1821724111485" lon="-4.945454733132757"><ele>247.0</ele><time>2026-04-28T15:31:26Z</time></trkpt><trkpt lat="34.182013784149035" lon="-4.945536441385267"><ele>247.0</ele><time>2026-04-28T15:31:27Z</time></trkpt><trkpt lat="34.18185271345733" lon="-4.945623581681505"><ele>247.0</ele><time>2026-04-28T15:31:28Z</time></trkpt><trkpt lat="34.1816891044999" lon="-4.94570799086369"><ele>247.0</ele><time>2026-04-28T15:31:29Z</time></trkpt><trkpt lat="34.1815198571121" lon="-4.945795351694338"><ele>247.0</ele><time>2026-04-28T15:31:30Z</time></trkpt><trkpt lat="34.18135071668892" lon="-4.9458855087282165"><ele>247.0</ele><time>2026-04-28T15:31:31Z</time></trkpt><trkpt lat="34.18117469078701" lon="-4.9459802266666655"><ele>249.0</ele><time>2026-04-28T15:31:32Z</time></trkpt><trkpt lat="34.18099482105093" lon="-4.946071781370058"><ele>251.0</ele><time>2026-04-28T15:31:33Z</time></trkpt><trkpt lat="34.18081853034702" lon="-4.9461594137361535"><ele>253.0</ele><time>2026-04-28T15:31:34Z</time></trkpt><trkpt lat="34.18064791622344" lon="-4.9462510299147695"><ele>253.0</ele><time>2026-04-28T15:31:35Z</time></trkpt><trkpt lat="34.18048111618182" lon="-4.9463414726074335"><ele>253.0</ele><time>2026-04-28T15:31:36Z</time></trkpt><trkpt lat="34.1803176674972" lon="-4.946425532897984"><ele>253.0</ele><time>2026-04-28T15:31:37Z</time></trkpt><trkpt lat="34.18015799167899" lon="-4.94650140368978"><ele>253.0</ele><time>2026-04-28T15:31:38Z</time></trkpt><trkpt lat="34.179998572199956" lon="-4.946576937653555"><ele>253.0</ele><time>2026-04-28T15:31:39Z</time></trkpt><trkpt lat="34.179851470453535" lon="-4.946637644150165"><ele>253.0</ele><time>2026-04-28T15:31:40Z</time></trkpt><trkpt lat="34.17970270803525" lon="-4.9466931140259724"><ele>255.33333333333331</ele><time>2026-04-28T15:31:41Z</time></trkpt><trkpt lat="34.179543103732954" lon="-4.946729863305812"><ele>257.6666666666667</ele><time>2026-04-28T15:31:42Z</time></trkpt><trkpt lat="34.17937913915691" lon="-4.946754102881683"><ele>260.0</ele><time>2026-04-28T15:31:43Z</time></trkpt><trkpt lat="34.17921435676048" lon="-4.946773110613945"><ele>260.0</ele><time>2026-04-28T15:31:44Z</time></trkpt><trkpt lat="34.17905324846375" lon="-4.9467898008529705"><ele>260.0</ele><time>2026-04-28T15:31:45Z</time></trkpt><trkpt lat="34.1788921590511" lon="-4.946815803479937"><ele>260.0</ele><time>2026-04-28T15:31:46Z</time></trkpt><trkpt lat="34.17873710985547" lon="-4.946850258411577"><ele>255.5</ele><time>2026-04-28T15:31:47Z</time></trkpt><trkpt lat="34.17860140698725" lon="-4.946884754650616"><ele>251.0</ele><time>2026-04-28T15:31:48Z</time></trkpt><trkpt lat="34.17847883555988" lon="-4.9469643753511185"><ele>246.5</ele><time>2026-04-28T15:31:49Z</time></trkpt><trkpt lat="34.17835459335458" lon="-4.947045988412173"><ele>242.0</ele><time>2026-04-28T15:31:50Z</time></trkpt><trkpt lat="34.17822983878063" lon="-4.947144803414979"><ele>236.0</ele><time>2026-04-28T15:31:51Z</time></trkpt><trkpt lat="34.17810130502162" lon="-4.947248596270703"><ele>230.0</ele><time>2026-04-28T15:31:52Z</time></trkpt><trkpt lat="34.17797687425548" lon="-4.94735723610546"><ele>224.0</ele><time>2026-04-28T15:31:53Z</time></trkpt><trkpt lat="34.17785674602279" lon="-4.94746307711972"><ele>226.5</ele><time>2026-04-28T15:31:54Z</time></trkpt><trkpt lat="34.17773609320738" lon="-4.947565391637448"><ele>229.0</ele><time>2026-04-28T15:31:55Z</time></trkpt><trkpt lat="34.177611770471735" lon="-4.9476592896647915"><ele>231.5</ele><time>2026-04-28T15:31:56Z</time></trkpt><trkpt lat="34.17747152033173" lon="-4.947724857993798"><ele>234.0</ele><time>2026-04-28T15:31:57Z</time></trkpt><trkpt lat="34.1773245368819" lon="-4.94776409910971"><ele>234.0</ele><time>2026-04-28T15:31:58Z</time></trkpt><trkpt lat="34.17717578860889" lon="-4.94774954774524"><ele>234.0</ele><time>2026-04-28T15:31:59Z</time></trkpt><trkpt lat="34.177022283109295" lon="-4.947727276667025"><ele>234.0</ele><time>2026-04-28T15:32:00Z</time></trkpt><trkpt lat="34.17686599334483" lon="-4.9476975940700765"><ele>234.0</ele><time>2026-04-28T15:32:01Z</time></trkpt><trkpt lat="34.176714833905685" lon="-4.947661848509266"><ele>234.0</ele><time>2026-04-28T15:32:02Z</time></trkpt><trkpt lat="34.176562708668556" lon="-4.947621993095594"><ele>234.0</ele><time>2026-04-28T15:32:03Z</time></trkpt><trkpt lat="34.17641156083801" lon="-4.947584767023519"><ele>231.75</ele><time>2026-04-28T15:32:04Z</time></trkpt><trkpt lat="34.17626235938862" lon="-4.947560351040345"><ele>229.5</ele><time>2026-04-28T15:32:05Z</time></trkpt><trkpt lat="34.17611492310555" lon="-4.9475532568814184"><ele>227.25</ele><time>2026-04-28T15:32:06Z</time></trkpt><trkpt lat="34.17596825163959" lon="-4.947563527649704"><ele>225.0</ele><time>2026-04-28T15:32:07Z</time></trkpt><trkpt lat="34.1758225944469" lon="-4.9475902910767235"><ele>220.75</ele><time>2026-04-28T15:32:08Z</time></trkpt><trkpt lat="34.17567910366704" lon="-4.94763036247972"><ele>216.5</ele><time>2026-04-28T15:32:09Z</time></trkpt><trkpt lat="34.17553975866152" lon="-4.947690428387927"><ele>212.25</ele><time>2026-04-28T15:32:10Z</time></trkpt><trkpt lat="34.175406226332875" lon="-4.947763483542405"><ele>208.0</ele><time>2026-04-28T15:32:11Z</time></trkpt><trkpt lat="34.17527649392217" lon="-4.947843867183761"><ele>208.0</ele><time>2026-04-28T15:32:12Z</time></trkpt><trkpt lat="34.1751440234094" lon="-4.947920199830821"><ele>208.0</ele><time>2026-04-28T15:32:13Z</time></trkpt><trkpt lat="34.175014976236234" lon="-4.947988068680649"><ele>208.0</ele><time>2026-04-28T15:32:14Z</time></trkpt><trkpt lat="34.174887345334476" lon="-4.948048439683896"><ele>208.0</ele><time>2026-04-28T15:32:15Z</time></trkpt><trkpt lat="34.17475687035848" lon="-4.9480869082995795"><ele>206.0</ele><time>2026-04-28T15:32:16Z</time></trkpt><trkpt lat="34.17462688732444" lon="-4.948090614125554"><ele>204.0</ele><time>2026-04-28T15:32:17Z</time></trkpt><trkpt lat="34.17450551478317" lon="-4.948057202006442"><ele>202.0</ele><time>2026-04-28T15:32:18Z</time></trkpt><trkpt lat="34.17439292988793" lon="-4.94799495755205"><ele>200.0</ele><time>2026-04-28T15:32:19Z</time></trkpt><trkpt lat="34.17429576545629" lon="-4.947905236610928"><ele>200.0</ele><time>2026-04-28T15:32:20Z</time></trkpt><trkpt lat="34.17422396397924" lon="-4.947787848680707"><ele>200.0</ele><time>2026-04-28T15:32:21Z</time></trkpt><trkpt lat="34.17416912653324" lon="-4.947648307413314"><ele>200.0</ele><time>2026-04-28T15:32:22Z</time></trkpt><trkpt lat="34.17414407003515" lon="-4.947492066113681"><ele>200.0</ele><time>2026-04-28T15:32:23Z</time></trkpt><trkpt lat="34.17414242885696" lon="-4.9473261908144694"><ele>199.33333333333334</ele><time>2026-04-28T15:32:24Z</time></trkpt><trkpt lat="34.17415584471389" lon="-4.947153643963311"><ele>198.66666666666669</ele><time>2026-04-28T15:32:25Z</time></trkpt><trkpt lat="34.17417855730068" lon="-4.946972699674583"><ele>198.0</ele><time>2026-04-28T15:32:26Z</time></trkpt><trkpt lat="34.174203738671515" lon="-4.946782175779051"><ele>197.0</ele><time>2026-04-28T15:32:27Z</time></trkpt><trkpt lat="34.17422674607953" lon="-4.946590621964634"><ele>196.0</ele><time>2026-04-28T15:32:28Z</time></trkpt><trkpt lat="34.1742522464822" lon="-4.946398732880744"><ele>195.0</ele><time>2026-04-28T15:32:29Z</time></trkpt><trkpt lat="34.17428437527323" lon="-4.94619775184608"><ele>195.0</ele><time>2026-04-28T15:32:30Z</time></trkpt><trkpt lat="34.17431383946469" lon="-4.945997085287187"><ele>195.0</ele><time>2026-04-28T15:32:31Z</time></trkpt><trkpt lat="34.17432970932203" lon="-4.945800134505016"><ele>195.0</ele><time>2026-04-28T15:32:32Z</time></trkpt><trkpt lat="34.174337130476765" lon="-4.945609239088448"><ele>194.0</ele><time>2026-04-28T15:32:33Z</time></trkpt><trkpt lat="34.174347299945396" lon="-4.945420999218692"><ele>193.0</ele><time>2026-04-28T15:32:34Z</time></trkpt><trkpt lat="34.17436557375139" lon="-4.945237565993742"><ele>192.0</ele><time>2026-04-28T15:32:35Z</time></trkpt><trkpt lat="34.174387334013524" lon="-4.945058340285654"><ele>191.0</ele><time>2026-04-28T15:32:36Z</time></trkpt><trkpt lat="34.17440534538668" lon="-4.944884046736223"><ele>190.0</ele><time>2026-04-28T15:32:37Z</time></trkpt><trkpt lat="34.174413455267825" lon="-4.944716025524576"><ele>189.0</ele><time>2026-04-28T15:32:38Z</time></trkpt><trkpt lat="34.17440542759736" lon="-4.94454908966072"><ele>188.0</ele><time>2026-04-28T15:32:39Z</time></trkpt><trkpt lat="34.17435965017934" lon="-4.944383796648156"><ele>188.0</ele><time>2026-04-28T15:32:40Z</time></trkpt><trkpt lat="34.17426418313231" lon="-4.944216918492025"><ele>188.0</ele><time>2026-04-28T15:32:41Z</time></trkpt><trkpt lat="34.17414361697415" lon="-4.9440696093934635"><ele>188.0</ele><time>2026-04-28T15:32:42Z</time></trkpt><trkpt lat="34.17400582726629" lon="-4.9439436587458"><ele>188.0</ele><time>2026-04-28T15:32:43Z</time></trkpt><trkpt lat="34.17384846125205" lon="-4.943825980031549"><ele>188.0</ele><time>2026-04-28T15:32:44Z</time></trkpt><trkpt lat="34.173698596713145" lon="-4.943713446101847"><ele>188.0</ele><time>2026-04-28T15:32:45Z</time></trkpt><trkpt lat="34.173555588936814" lon="-4.943565645706913"><ele>188.0</ele><time>2026-04-28T15:32:46Z</time></trkpt><trkpt lat="34.173479338450285" lon="-4.943386544263057"><ele>188.0</ele><time>2026-04-28T15:32:47Z</time></trkpt><trkpt lat="34.173385484747676" lon="-4.943252939295411"><ele>188.0</ele><time>2026-04-28T15:32:48Z</time></trkpt><trkpt lat="34.17327924767103" lon="-4.943087865362947"><ele>186.66666666666666</ele><time>2026-04-28T15:32:49Z</time></trkpt><trkpt lat="34.17317008404873" lon="-4.942914525115488"><ele>185.33333333333334</ele><time>2026-04-28T15:32:50Z</time></trkpt><trkpt lat="34.173056383277945" lon="-4.9427391934563385"><ele>184.0</ele><time>2026-04-28T15:32:51Z</time></trkpt><trkpt lat="34.17294291956244" lon="-4.9425682030880385"><ele>182.33333333333334</ele><time>2026-04-28T15:32:52Z</time></trkpt><trkpt lat="34.17282993258389" lon="-4.9423918176864845"><ele>180.66666666666666</ele><time>2026-04-28T15:32:53Z</time></trkpt><trkpt lat="34.172716878934274" lon="-4.94222105320715"><ele>179.0</ele><time>2026-04-28T15:32:54Z</time></trkpt><trkpt lat="34.17260525378974" lon="-4.942052569000856"><ele>179.0</ele><time>2026-04-28T15:32:55Z</time></trkpt><trkpt lat="34.17250032778948" lon="-4.94187885697931"><ele>179.0</ele><time>2026-04-28T15:32:56Z</time></trkpt><trkpt lat="34.17241020452831" lon="-4.941682968651302"><ele>179.0</ele><time>2026-04-28T15:32:57Z</time></trkpt><trkpt lat="34.172330244846066" lon="-4.941479266373651"><ele>178.33333333333331</ele><time>2026-04-28T15:32:58Z</time></trkpt><trkpt lat="34.172243411493184" lon="-4.9412732525272425"><ele>177.66666666666666</ele><time>2026-04-28T15:32:59Z</time></trkpt><trkpt lat="34.17215619793735" lon="-4.941071783104066"><ele>177.0</ele><time>2026-04-28T15:33:00Z</time></trkpt><trkpt lat="34.172078970307695" lon="-4.9408654733197785"><ele>177.0</ele><time>2026-04-28T15:33:01Z</time></trkpt><trkpt lat="34.17200482851878" lon="-4.940644551680412"><ele>177.0</ele><time>2026-04-28T15:33:02Z</time></trkpt><trkpt lat="34.17194225393894" lon="-4.940419195507445"><ele>177.0</ele><time>2026-04-28T15:33:03Z</time></trkpt><trkpt lat="34.171889456935" lon="-4.940201616375436"><ele>173.33333333333334</ele><time>2026-04-28T15:33:04Z</time></trkpt><trkpt lat="34.17182971268693" lon="-4.939987073872947"><ele>169.66666666666669</ele><time>2026-04-28T15:33:05Z</time></trkpt><trkpt lat="34.171750047602366" lon="-4.939778577634354"><ele>166.0</ele><time>2026-04-28T15:33:06Z</time></trkpt><trkpt lat="34.17164575435116" lon="-4.939580696062951"><ele>166.0</ele><time>2026-04-28T15:33:07Z</time></trkpt><trkpt lat="34.17153170561143" lon="-4.939382249787676"><ele>166.0</ele><time>2026-04-28T15:33:08Z</time></trkpt><trkpt lat="34.171417450999684" lon="-4.93918243155453"><ele>166.0</ele><time>2026-04-28T15:33:09Z</time></trkpt><trkpt lat="34.1713088778242" lon="-4.938978369964437"><ele>166.66666666666669</ele><time>2026-04-28T15:33:10Z</time></trkpt><trkpt lat="34.17120144480821" lon="-4.938777050978314"><ele>167.33333333333334</ele><time>2026-04-28T15:33:11Z</time></trkpt><trkpt lat="34.171098388128584" lon="-4.938580957302211"><ele>168.0</ele><time>2026-04-28T15:33:12Z</time></trkpt><trkpt lat="34.170994965907035" lon="-4.938389586930006"><ele>166.66666666666666</ele><time>2026-04-28T15:33:13Z</time></trkpt><trkpt lat="34.17088879927198" lon="-4.938211054420147"><ele>165.33333333333331</ele><time>2026-04-28T15:33:14Z</time></trkpt><trkpt lat="34.170783576273024" lon="-4.938042015080413"><ele>164.0</ele><time>2026-04-28T15:33:15Z</time></trkpt><trkpt lat="34.1706866439734" lon="-4.937875005362055"><ele>167.33333333333331</ele><time>2026-04-28T15:33:16Z</time></trkpt><trkpt lat="34.170610815824325" lon="-4.937706834122814"><ele>170.66666666666666</ele><time>2026-04-28T15:33:17Z</time></trkpt><trkpt lat="34.17055828194331" lon="-4.9375340369607725"><ele>174.0</ele><time>2026-04-28T15:33:18Z</time></trkpt><trkpt lat="34.17053426201742" lon="-4.937353300065657"><ele>174.0</ele><time>2026-04-28T15:33:19Z</time></trkpt><trkpt lat="34.17053910191174" lon="-4.937165355491206"><ele>174.0</ele><time>2026-04-28T15:33:20Z</time></trkpt><trkpt lat="34.170553295491565" lon="-4.936967002460638"><ele>174.0</ele><time>2026-04-28T15:33:21Z</time></trkpt><trkpt lat="34.17057576288452" lon="-4.93676330131368"><ele>174.33333333333334</ele><time>2026-04-28T15:33:22Z</time></trkpt><trkpt lat="34.170597623292025" lon="-4.936552319225355"><ele>174.66666666666669</ele><time>2026-04-28T15:33:23Z</time></trkpt><trkpt lat="34.17061911638237" lon="-4.936337115812648"><ele>175.0</ele><time>2026-04-28T15:33:24Z</time></trkpt><trkpt lat="34.170637824937344" lon="-4.9361151313348985"><ele>175.0</ele><time>2026-04-28T15:33:25Z</time></trkpt><trkpt lat="34.170658761121565" lon="-4.93589534643478"><ele>175.0</ele><time>2026-04-28T15:33:26Z</time></trkpt><trkpt lat="34.17067608917698" lon="-4.935668522542344"><ele>175.0</ele><time>2026-04-28T15:33:27Z</time></trkpt><trkpt lat="34.17068768956211" lon="-4.9354423844238875"><ele>173.66666666666669</ele><time>2026-04-28T15:33:28Z</time></trkpt><trkpt lat="34.17069221247735" lon="-4.9352108744651675"><ele>172.33333333333334</ele><time>2026-04-28T15:33:29Z</time></trkpt><trkpt lat="34.17068247907715" lon="-4.9349766629737735"><ele>171.0</ele><time>2026-04-28T15:33:30Z</time></trkpt><trkpt lat="34.17065861075609" lon="-4.934745709420432"><ele>171.0</ele><time>2026-04-28T15:33:31Z</time></trkpt><trkpt lat="34.17061820344771" lon="-4.934516026056007"><ele>171.0</ele><time>2026-04-28T15:33:32Z</time></trkpt><trkpt lat="34.17056165845197" lon="-4.934286872420974"><ele>171.0</ele><time>2026-04-28T15:33:33Z</time></trkpt><trkpt lat="34.17049211686198" lon="-4.9340620981415695"><ele>167.33333333333334</ele><time>2026-04-28T15:33:34Z</time></trkpt><trkpt lat="34.17041354840102" lon="-4.933843618950001"><ele>163.66666666666669</ele><time>2026-04-28T15:33:35Z</time></trkpt><trkpt lat="34.17032626682111" lon="-4.933632459201912"><ele>160.0</ele><time>2026-04-28T15:33:36Z</time></trkpt><trkpt lat="34.170238405012384" lon="-4.933425155702218"><ele>159.66666666666669</ele><time>2026-04-28T15:33:37Z</time></trkpt><trkpt lat="34.17013986107888" lon="-4.933226281082505"><ele>159.33333333333334</ele><time>2026-04-28T15:33:38Z</time></trkpt><trkpt lat="34.17002782852917" lon="-4.9330375510278035"><ele>159.0</ele><time>2026-04-28T15:33:39Z</time></trkpt><trkpt lat="34.16990355179282" lon="-4.932860700705902"><ele>160.33333333333334</ele><time>2026-04-28T15:33:40Z</time></trkpt><trkpt lat="34.16976482896376" lon="-4.9326932756036985"><ele>161.66666666666669</ele><time>2026-04-28T15:33:41Z</time></trkpt><trkpt lat="34.169614607017394" lon="-4.932534009544847"><ele>163.0</ele><time>2026-04-28T15:33:42Z</time></trkpt><trkpt lat="34.16945704240074" lon="-4.932387208718548"><ele>163.0</ele><time>2026-04-28T15:33:43Z</time></trkpt><trkpt lat="34.169293184038644" lon="-4.932253868586531"><ele>163.0</ele><time>2026-04-28T15:33:44Z</time></trkpt><trkpt lat="34.16912486329246" lon="-4.932137227696657"><ele>163.0</ele><time>2026-04-28T15:33:45Z</time></trkpt><trkpt lat="34.168939835217365" lon="-4.932050377664504"><ele>165.0</ele><time>2026-04-28T15:33:46Z</time></trkpt><trkpt lat="34.168746921643674" lon="-4.931974105678254"><ele>167.0</ele><time>2026-04-28T15:33:47Z</time></trkpt><trkpt lat="34.16854839274226" lon="-4.931917672949219"><ele>169.0</ele><time>2026-04-28T15:33:48Z</time></trkpt><trkpt lat="34.16834652846852" lon="-4.931873878577645"><ele>168.0</ele><time>2026-04-28T15:33:49Z</time></trkpt><trkpt lat="34.16814309449139" lon="-4.931833378410775"><ele>167.0</ele><time>2026-04-28T15:33:50Z</time></trkpt><trkpt lat="34.16794786205818" lon="-4.931791878763369"><ele>166.0</ele><time>2026-04-28T15:33:51Z</time></trkpt><trkpt lat="34.167764132390495" lon="-4.9317540670560955"><ele>166.0</ele><time>2026-04-28T15:33:52Z</time></trkpt><trkpt lat="34.16758562621122" lon="-4.931721566585757"><ele>166.0</ele><time>2026-04-28T15:33:53Z</time></trkpt><trkpt lat="34.167416448231904" lon="-4.9316902319571705"><ele>166.0</ele><time>2026-04-28T15:33:54Z</time></trkpt><trkpt lat="34.1672533957589" lon="-4.9316565802988865"><ele>166.0</ele><time>2026-04-28T15:33:55Z</time></trkpt><trkpt lat="34.167094342640254" lon="-4.9316198237410385"><ele>166.0</ele><time>2026-04-28T15:33:56Z</time></trkpt><trkpt lat="34.166938627548674" lon="-4.931578168699398"><ele>166.0</ele><time>2026-04-28T15:33:57Z</time></trkpt><trkpt lat="34.1667905284919" lon="-4.93153711728892"><ele>166.0</ele><time>2026-04-28T15:33:58Z</time></trkpt><trkpt lat="34.16664217201321" lon="-4.931478525634856"><ele>166.0</ele><time>2026-04-28T15:33:59Z</time></trkpt><trkpt lat="34.166497624179996" lon="-4.931405973293215"><ele>166.0</ele><time>2026-04-28T15:34:00Z</time></trkpt><trkpt lat="34.16635375015453" lon="-4.931332117332634"><ele>165.75</ele><time>2026-04-28T15:34:01Z</time></trkpt><trkpt lat="34.16622076766531" lon="-4.931234911573242"><ele>165.5</ele><time>2026-04-28T15:34:02Z</time></trkpt><trkpt lat="34.16610118798283" lon="-4.931124849646357"><ele>165.25</ele><time>2026-04-28T15:34:03Z</time></trkpt><trkpt lat="34.16599863893056" lon="-4.931006336516898"><ele>165.0</ele><time>2026-04-28T15:34:04Z</time></trkpt><trkpt lat="34.165900653181424" lon="-4.9308859444071"><ele>164.0</ele><time>2026-04-28T15:34:05Z</time></trkpt><trkpt lat="34.16581513756685" lon="-4.930761581172313"><ele>163.0</ele><time>2026-04-28T15:34:06Z</time></trkpt><trkpt lat="34.16573899480903" lon="-4.930633095705706"><ele>162.0</ele><time>2026-04-28T15:34:07Z</time></trkpt><trkpt lat="34.1656715301972" lon="-4.930502410252299"><ele>161.0</ele><time>2026-04-28T15:34:08Z</time></trkpt><trkpt lat="34.16560558474445" lon="-4.930374797938243"><ele>160.75</ele><time>2026-04-28T15:34:09Z</time></trkpt><trkpt lat="34.16553221568598" lon="-4.930236687787332"><ele>160.5</ele><time>2026-04-28T15:34:10Z</time></trkpt><trkpt lat="34.16545198667413" lon="-4.93009646284802"><ele>160.25</ele><time>2026-04-28T15:34:11Z</time></trkpt><trkpt lat="34.165364123074895" lon="-4.92995941005084"><ele>160.0</ele><time>2026-04-28T15:34:12Z</time></trkpt><trkpt lat="34.165275143215574" lon="-4.929821266868182"><ele>159.75</ele><time>2026-04-28T15:34:13Z</time></trkpt><trkpt lat="34.16518709901872" lon="-4.929674915226418"><ele>159.5</ele><time>2026-04-28T15:34:14Z</time></trkpt><trkpt lat="34.16510327910466" lon="-4.929528131272616"><ele>159.25</ele><time>2026-04-28T15:34:15Z</time></trkpt><trkpt lat="34.16502153844848" lon="-4.929378504707524"><ele>159.0</ele><time>2026-04-28T15:34:16Z</time></trkpt><trkpt lat="34.16493917626134" lon="-4.929230680557231"><ele>158.33333333333334</ele><time>2026-04-28T15:34:17Z</time></trkpt><trkpt lat="34.164855298311856" lon="-4.9290764601231905"><ele>157.66666666666669</ele><time>2026-04-28T15:34:18Z</time></trkpt><trkpt lat="34.164769974723995" lon="-4.928921803832208"><ele>157.0</ele><time>2026-04-28T15:34:19Z</time></trkpt><trkpt lat="34.16468166417954" lon="-4.928763830880592"><ele>157.0</ele><time>2026-04-28T15:34:20Z</time></trkpt><trkpt lat="34.16459374378831" lon="-4.928604115800222"><ele>157.0</ele><time>2026-04-28T15:34:21Z</time></trkpt><trkpt lat="34.164505933048616" lon="-4.928443044873723"><ele>157.0</ele><time>2026-04-28T15:34:22Z</time></trkpt><trkpt lat="34.164413671669124" lon="-4.928283319754826"><ele>156.33333333333334</ele><time>2026-04-28T15:34:23Z</time></trkpt><trkpt lat="34.16431993704937" lon="-4.928122716649925"><ele>155.66666666666666</ele><time>2026-04-28T15:34:24Z</time></trkpt><trkpt lat="34.16422685880926" lon="-4.927960155409796"><ele>155.0</ele><time>2026-04-28T15:34:25Z</time></trkpt><trkpt lat="34.16413161547685" lon="-4.927797692541634"><ele>155.0</ele><time>2026-04-28T15:34:26Z</time></trkpt><trkpt lat="34.164033374546804" lon="-4.9276383500374825"><ele>155.0</ele><time>2026-04-28T15:34:27Z</time></trkpt><trkpt lat="34.16392927563128" lon="-4.927480603072229"><ele>155.0</ele><time>2026-04-28T15:34:28Z</time></trkpt><trkpt lat="34.16381420387064" lon="-4.927329804641535"><ele>154.66666666666666</ele><time>2026-04-28T15:34:29Z</time></trkpt><trkpt lat="34.163691444004755" lon="-4.927177967684547"><ele>154.33333333333334</ele><time>2026-04-28T15:34:30Z</time></trkpt><trkpt lat="34.16356842559621" lon="-4.927021857386698"><ele>154.0</ele><time>2026-04-28T15:34:31Z</time></trkpt><trkpt lat="34.16344325434167" lon="-4.926868752648121"><ele>153.66666666666669</ele><time>2026-04-28T15:34:32Z</time></trkpt><trkpt lat="34.16332168752127" lon="-4.926718907909609"><ele>153.33333333333334</ele><time>2026-04-28T15:34:33Z</time></trkpt><trkpt lat="34.163201662614334" lon="-4.926571714692457"><ele>153.0</ele><time>2026-04-28T15:34:34Z</time></trkpt><trkpt lat="34.163085174082404" lon="-4.926430977205366"><ele>154.0</ele><time>2026-04-28T15:34:35Z</time></trkpt><trkpt lat="34.16297890589729" lon="-4.926293477307286"><ele>155.0</ele><time>2026-04-28T15:34:36Z</time></trkpt><trkpt lat="34.16287921180777" lon="-4.926161720788906"><ele>156.0</ele><time>2026-04-28T15:34:37Z</time></trkpt><trkpt lat="34.16277580905805" lon="-4.926020635381754"><ele>156.0</ele><time>2026-04-28T15:34:38Z</time></trkpt><trkpt lat="34.16268273911975" lon="-4.925874050039904"><ele>156.0</ele><time>2026-04-28T15:34:39Z</time></trkpt><trkpt lat="34.16261446782201" lon="-4.925709618926167"><ele>156.0</ele><time>2026-04-28T15:34:40Z</time></trkpt><trkpt lat="34.162564244101034" lon="-4.925529032652039"><ele>156.0</ele><time>2026-04-28T15:34:41Z</time></trkpt><trkpt lat="34.162517169324566" lon="-4.92535144271242"><ele>156.0</ele><time>2026-04-28T15:34:42Z</time></trkpt><trkpt lat="34.16247779182305" lon="-4.925186384552326"><ele>156.0</ele><time>2026-04-28T15:34:43Z</time></trkpt><trkpt lat="34.162439934388985" lon="-4.925029532621023"><ele>156.0</ele><time>2026-04-28T15:34:44Z</time></trkpt><trkpt lat="34.162397716908046" lon="-4.924870676520979"><ele>161.33333333333334</ele><time>2026-04-28T15:34:45Z</time></trkpt><trkpt lat="34.16234081342699" lon="-4.924708246325087"><ele>166.66666666666669</ele><time>2026-04-28T15:34:46Z</time></trkpt><trkpt lat="34.16226319659899" lon="-4.924540160043844"><ele>172.0</ele><time>2026-04-28T15:34:47Z</time></trkpt><trkpt lat="34.16217738438551" lon="-4.924373031175585"><ele>170.33333333333334</ele><time>2026-04-28T15:34:48Z</time></trkpt><trkpt lat="34.16208474034359" lon="-4.924193650294794"><ele>168.66666666666666</ele><time>2026-04-28T15:34:49Z</time></trkpt><trkpt lat="34.161992234266606" lon="-4.92401182941807"><ele>167.0</ele><time>2026-04-28T15:34:50Z</time></trkpt><trkpt lat="34.161890055286136" lon="-4.923827396548522"><ele>167.0</ele><time>2026-04-28T15:34:51Z</time></trkpt><trkpt lat="34.16178513760913" lon="-4.923635199261641"><ele>167.0</ele><time>2026-04-28T15:34:52Z</time></trkpt><trkpt lat="34.1616800427515" lon="-4.92343698272996"><ele>167.0</ele><time>2026-04-28T15:34:53Z</time></trkpt><trkpt lat="34.1615684107956" lon="-4.923235761019313"><ele>166.33333333333331</ele><time>2026-04-28T15:34:54Z</time></trkpt><trkpt lat="34.161456074788035" lon="-4.923033584868726"><ele>165.66666666666666</ele><time>2026-04-28T15:34:55Z</time></trkpt><trkpt lat="34.1613416193642" lon="-4.922825448586282"><ele>165.0</ele><time>2026-04-28T15:34:56Z</time></trkpt><trkpt lat="34.16122654912346" lon="-4.922624995265966"><ele>164.66666666666666</ele><time>2026-04-28T15:34:57Z</time></trkpt><trkpt lat="34.1611147929626" lon="-4.922429247008396"><ele>164.33333333333331</ele><time>2026-04-28T15:34:58Z</time></trkpt><trkpt lat="34.161012342669515" lon="-4.922249370077683"><ele>164.0</ele><time>2026-04-28T15:34:59Z</time></trkpt><trkpt lat="34.16091584072717" lon="-4.922073414877196"><ele>164.0</ele><time>2026-04-28T15:35:00Z</time></trkpt><trkpt lat="34.160827510057594" lon="-4.9219081301714755"><ele>164.0</ele><time>2026-04-28T15:35:01Z</time></trkpt><trkpt lat="34.1607422300443" lon="-4.921750869158026"><ele>164.0</ele><time>2026-04-28T15:35:02Z</time></trkpt><trkpt lat="34.16066298332319" lon="-4.921603486229251"><ele>166.25</ele><time>2026-04-28T15:35:03Z</time></trkpt><trkpt lat="34.16061039221046" lon="-4.921460489819044"><ele>168.5</ele><time>2026-04-28T15:35:04Z</time></trkpt><trkpt lat="34.16059476201158" lon="-4.921320932618927"><ele>170.75</ele><time>2026-04-28T15:35:05Z</time></trkpt><trkpt lat="34.160613581478984" lon="-4.921181503627221"><ele>173.0</ele><time>2026-04-28T15:35:06Z</time></trkpt><trkpt lat="34.16067357723917" lon="-4.921040718406445"><ele>172.5</ele><time>2026-04-28T15:35:07Z</time></trkpt><trkpt lat="34.160760695416414" lon="-4.920904777977794"><ele>172.0</ele><time>2026-04-28T15:35:08Z</time></trkpt><trkpt lat="34.16085798499679" lon="-4.920773681884008"><ele>171.5</ele><time>2026-04-28T15:35:09Z</time></trkpt><trkpt lat="34.160949282175956" lon="-4.920645156188565"><ele>171.0</ele><time>2026-04-28T15:35:10Z</time></trkpt><trkpt lat="34.16101505714845" lon="-4.920502565808535"><ele>171.0</ele><time>2026-04-28T15:35:11Z</time></trkpt><trkpt lat="34.161046136748915" lon="-4.920341158162187"><ele>171.0</ele><time>2026-04-28T15:35:12Z</time></trkpt><trkpt lat="34.16104649728415" lon="-4.9201776666669055"><ele>171.0</ele><time>2026-04-28T15:35:13Z</time></trkpt><trkpt lat="34.16102152549595" lon="-4.92002338255311"><ele>171.0</ele><time>2026-04-28T15:35:14Z</time></trkpt><trkpt lat="34.16096874154584" lon="-4.919870011322873"><ele>171.75</ele><time>2026-04-28T15:35:15Z</time></trkpt><trkpt lat="34.16090146390817" lon="-4.919714268635091"><ele>172.5</ele><time>2026-04-28T15:35:16Z</time></trkpt><trkpt lat="34.16082501664329" lon="-4.9195590957993005"><ele>173.25</ele><time>2026-04-28T15:35:17Z</time></trkpt><trkpt lat="34.16075285918683" lon="-4.919399058368338"><ele>174.0</ele><time>2026-04-28T15:35:18Z</time></trkpt><trkpt lat="34.16069237867327" lon="-4.919224091431602"><ele>177.66666666666666</ele><time>2026-04-28T15:35:19Z</time></trkpt><trkpt lat="34.16063457382967" lon="-4.919042776734349"><ele>181.33333333333331</ele><time>2026-04-28T15:35:20Z</time></trkpt><trkpt lat="34.160560216211024" lon="-4.918869729652949"><ele>185.0</ele><time>2026-04-28T15:35:21Z</time></trkpt><trkpt lat="34.16048564394509" lon="-4.9186918248664835"><ele>185.0</ele><time>2026-04-28T15:35:22Z</time></trkpt><trkpt lat="34.16041105009971" lon="-4.918507995607585"><ele>185.0</ele><time>2026-04-28T15:35:23Z</time></trkpt><trkpt lat="34.16033676360128" lon="-4.918323746875407"><ele>185.0</ele><time>2026-04-28T15:35:24Z</time></trkpt><trkpt lat="34.16025233237598" lon="-4.91813878144634"><ele>186.33333333333331</ele><time>2026-04-28T15:35:25Z</time></trkpt><trkpt lat="34.16016100211369" lon="-4.917957115899838"><ele>187.66666666666666</ele><time>2026-04-28T15:35:26Z</time></trkpt><trkpt lat="34.160076609423854" lon="-4.9177720147924"><ele>189.0</ele><time>2026-04-28T15:35:27Z</time></trkpt><trkpt lat="34.15999107965512" lon="-4.917583674510622"><ele>188.0</ele><time>2026-04-28T15:35:28Z</time></trkpt><trkpt lat="34.159900485743144" lon="-4.917396544974144"><ele>187.0</ele><time>2026-04-28T15:35:29Z</time></trkpt><trkpt lat="34.15980934344946" lon="-4.9172134008389365"><ele>186.0</ele><time>2026-04-28T15:35:30Z</time></trkpt><trkpt lat="34.15970310120121" lon="-4.917038037637875"><ele>190.66666666666669</ele><time>2026-04-28T15:35:31Z</time></trkpt><trkpt lat="34.15958485593356" lon="-4.9168723216518355"><ele>195.33333333333334</ele><time>2026-04-28T15:35:32Z</time></trkpt><trkpt lat="34.15946385214875" lon="-4.916704757680634"><ele>200.0</ele><time>2026-04-28T15:35:33Z</time></trkpt><trkpt lat="34.15933446086557" lon="-4.916552689602514"><ele>200.0</ele><time>2026-04-28T15:35:34Z</time></trkpt><trkpt lat="34.1591851749809" lon="-4.9164271335965575"><ele>200.0</ele><time>2026-04-28T15:35:35Z</time></trkpt><trkpt lat="34.15902267752874" lon="-4.916312452731157"><ele>200.0</ele><time>2026-04-28T15:35:36Z</time></trkpt><trkpt lat="34.15885933743572" lon="-4.9162092035027545"><ele>201.0</ele><time>2026-04-28T15:35:37Z</time></trkpt><trkpt lat="34.15870763367825" lon="-4.91611543512478"><ele>202.0</ele><time>2026-04-28T15:35:38Z</time></trkpt><trkpt lat="34.158576964141744" lon="-4.916003962870816"><ele>203.0</ele><time>2026-04-28T15:35:39Z</time></trkpt><trkpt lat="34.15845844188126" lon="-4.915875570997722"><ele>203.0</ele><time>2026-04-28T15:35:40Z</time></trkpt><trkpt lat="34.15836571459608" lon="-4.91572594941162"><ele>203.0</ele><time>2026-04-28T15:35:41Z</time></trkpt><trkpt lat="34.158288566185085" lon="-4.915558353689021"><ele>203.0</ele><time>2026-04-28T15:35:42Z</time></trkpt><trkpt lat="34.158227562592295" lon="-4.915391075006746"><ele>209.0</ele><time>2026-04-28T15:35:43Z</time></trkpt><trkpt lat="34.158175416663845" lon="-4.915207657492596"><ele>215.0</ele><time>2026-04-28T15:35:44Z</time></trkpt><trkpt lat="34.158127626835224" lon="-4.915020226221779"><ele>221.0</ele><time>2026-04-28T15:35:45Z</time></trkpt><trkpt lat="34.1580780023504" lon="-4.914829710140053"><ele>221.0</ele><time>2026-04-28T15:35:46Z</time></trkpt><trkpt lat="34.1580309478506" lon="-4.914631568860312"><ele>221.0</ele><time>2026-04-28T15:35:47Z</time></trkpt><trkpt lat="34.15799207683731" lon="-4.914438188758508"><ele>221.0</ele><time>2026-04-28T15:35:48Z</time></trkpt><trkpt lat="34.157963327811835" lon="-4.914247348775833"><ele>219.33333333333334</ele><time>2026-04-28T15:35:49Z</time></trkpt><trkpt lat="34.15795109484862" lon="-4.914059779010302"><ele>217.66666666666669</ele><time>2026-04-28T15:35:50Z</time></trkpt><trkpt lat="34.157954867501175" lon="-4.913869208113905"><ele>216.0</ele><time>2026-04-28T15:35:51Z</time></trkpt><trkpt lat="34.15799837206017" lon="-4.91367485932496"><ele>216.0</ele><time>2026-04-28T15:35:52Z</time></trkpt><trkpt lat="34.158056619082856" lon="-4.91348474901029"><ele>216.0</ele><time>2026-04-28T15:35:53Z</time></trkpt><trkpt lat="34.15812338708175" lon="-4.913291884421165"><ele>216.0</ele><time>2026-04-28T15:35:54Z</time></trkpt><trkpt lat="34.15819112555502" lon="-4.913097113423214"><ele>207.66666666666666</ele><time>2026-04-28T15:35:55Z</time></trkpt><trkpt lat="34.158252744103564" lon="-4.912904619102338"><ele>199.33333333333331</ele><time>2026-04-28T15:35:56Z</time></trkpt><trkpt lat="34.1583080640896" lon="-4.9127074100047174"><ele>191.0</ele><time>2026-04-28T15:35:57Z</time></trkpt><trkpt lat="34.158360062946095" lon="-4.912509141241498"><ele>189.66666666666666</ele><time>2026-04-28T15:35:58Z</time></trkpt><trkpt lat="34.158415934317205" lon="-4.912312178707688"><ele>188.33333333333334</ele><time>2026-04-28T15:35:59Z</time></trkpt><trkpt lat="34.15847889028033" lon="-4.912119442950086"><ele>187.0</ele><time>2026-04-28T15:36:00Z</time></trkpt><trkpt lat="34.158553890536815" lon="-4.911936658106278"><ele>187.0</ele><time>2026-04-28T15:36:01Z</time></trkpt><trkpt lat="34.15864039847383" lon="-4.91177047836589"><ele>187.0</ele><time>2026-04-28T15:36:02Z</time></trkpt><trkpt lat="34.15874530688421" lon="-4.911623390672257"><ele>187.0</ele><time>2026-04-28T15:36:03Z</time></trkpt><trkpt lat="34.15886067760231" lon="-4.911490243453723"><ele>185.33333333333334</ele><time>2026-04-28T15:36:04Z</time></trkpt><trkpt lat="34.15897530027017" lon="-4.911356262978581"><ele>183.66666666666666</ele><time>2026-04-28T15:36:05Z</time></trkpt><trkpt lat="34.1590674768522" lon="-4.911205784813548"><ele>182.0</ele><time>2026-04-28T15:36:06Z</time></trkpt><trkpt lat="34.15912591318225" lon="-4.911046737849551"><ele>178.5</ele><time>2026-04-28T15:36:07Z</time></trkpt><trkpt lat="34.159151468537" lon="-4.910883492068955"><ele>175.0</ele><time>2026-04-28T15:36:08Z</time></trkpt><trkpt lat="34.15916664550634" lon="-4.9107215133099675"><ele>171.5</ele><time>2026-04-28T15:36:09Z</time></trkpt><trkpt lat="34.159115960152455" lon="-4.910536180329234"><ele>168.0</ele><time>2026-04-28T15:36:10Z</time></trkpt><trkpt lat="34.159047218059534" lon="-4.910357297535129"><ele>171.33333333333334</ele><time>2026-04-28T15:36:11Z</time></trkpt><trkpt lat="34.15896813191577" lon="-4.910171126595773"><ele>174.66666666666669</ele><time>2026-04-28T15:36:12Z</time></trkpt><trkpt lat="34.15890025066057" lon="-4.9099900709937785"><ele>178.0</ele><time>2026-04-28T15:36:13Z</time></trkpt><trkpt lat="34.15883357027761" lon="-4.909822522572735"><ele>178.0</ele><time>2026-04-28T15:36:14Z</time></trkpt><trkpt lat="34.15876806318125" lon="-4.9096598261126445"><ele>178.0</ele><time>2026-04-28T15:36:15Z</time></trkpt><trkpt lat="34.15871719601255" lon="-4.9094951795175215"><ele>178.0</ele><time>2026-04-28T15:36:16Z</time></trkpt><trkpt lat="34.15867242859388" lon="-4.9093233911577965"><ele>178.0</ele><time>2026-04-28T15:36:17Z</time></trkpt><trkpt lat="34.15864812746154" lon="-4.90915262038433"><ele>176.5</ele><time>2026-04-28T15:36:18Z</time></trkpt><trkpt lat="34.15866212364665" lon="-4.9089901713739685"><ele>175.0</ele><time>2026-04-28T15:36:19Z</time></trkpt><trkpt lat="34.15870717907702" lon="-4.908817662769556"><ele>173.5</ele><time>2026-04-28T15:36:20Z</time></trkpt><trkpt lat="34.15876519404737" lon="-4.9086492075287715"><ele>172.0</ele><time>2026-04-28T15:36:21Z</time></trkpt><trkpt lat="34.158827546620415" lon="-4.908480245324039"><ele>173.0</ele><time>2026-04-28T15:36:22Z</time></trkpt><trkpt lat="34.15889073872298" lon="-4.908308990240183"><ele>174.0</ele><time>2026-04-28T15:36:23Z</time></trkpt><trkpt lat="34.15895222816468" lon="-4.908136644889408"><ele>175.0</ele><time>2026-04-28T15:36:24Z</time></trkpt><trkpt lat="34.159012437052134" lon="-4.907962605404828"><ele>171.75</ele><time>2026-04-28T15:36:25Z</time></trkpt><trkpt lat="34.15906159901908" lon="-4.907802389271264"><ele>168.5</ele><time>2026-04-28T15:36:26Z</time></trkpt><trkpt lat="34.1590991548908" lon="-4.907633872681991"><ele>165.25</ele><time>2026-04-28T15:36:27Z</time></trkpt><trkpt lat="34.159123352590576" lon="-4.907469733432888"><ele>162.0</ele><time>2026-04-28T15:36:28Z</time></trkpt><trkpt lat="34.159123603445174" lon="-4.9073055222224164"><ele>162.0</ele><time>2026-04-28T15:36:29Z</time></trkpt><trkpt lat="34.159099172315535" lon="-4.907131800127615"><ele>162.0</ele><time>2026-04-28T15:36:30Z</time></trkpt><trkpt lat="34.15905202224588" lon="-4.906964496318306"><ele>162.0</ele><time>2026-04-28T15:36:31Z</time></trkpt><trkpt lat="34.15898098085234" lon="-4.9067832466379055"><ele>165.66666666666666</ele><time>2026-04-28T15:36:32Z</time></trkpt><trkpt lat="34.15892719620391" lon="-4.906586643264551"><ele>169.33333333333331</ele><time>2026-04-28T15:36:33Z</time></trkpt><trkpt lat="34.158873522458315" lon="-4.906385790667017"><ele>173.0</ele><time>2026-04-28T15:36:34Z</time></trkpt><trkpt lat="34.1588227298419" lon="-4.906173679544838"><ele>173.0</ele><time>2026-04-28T15:36:35Z</time></trkpt><trkpt lat="34.15876860978987" lon="-4.905955098104737"><ele>173.0</ele><time>2026-04-28T15:36:36Z</time></trkpt><trkpt lat="34.15870632004572" lon="-4.90572336941517"><ele>173.0</ele><time>2026-04-28T15:36:37Z</time></trkpt><trkpt lat="34.15864549607872" lon="-4.905478720558182"><ele>171.0</ele><time>2026-04-28T15:36:38Z</time></trkpt><trkpt lat="34.158590997705694" lon="-4.905230207893743"><ele>169.0</ele><time>2026-04-28T15:36:39Z</time></trkpt><trkpt lat="34.15853507320256" lon="-4.904973837460631"><ele>167.0</ele><time>2026-04-28T15:36:40Z</time></trkpt><trkpt lat="34.15846924919938" lon="-4.904717171040383"><ele>166.33333333333331</ele><time>2026-04-28T15:36:41Z</time></trkpt><trkpt lat="34.15838714092547" lon="-4.904473793829305"><ele>165.66666666666666</ele><time>2026-04-28T15:36:42Z</time></trkpt><trkpt lat="34.15830737632724" lon="-4.904239561496871"><ele>165.0</ele><time>2026-04-28T15:36:43Z</time></trkpt><trkpt lat="34.1582405199796" lon="-4.904005809552225"><ele>168.0</ele><time>2026-04-28T15:36:44Z</time></trkpt><trkpt lat="34.15817465794996" lon="-4.90376837562214"><ele>171.0</ele><time>2026-04-28T15:36:45Z</time></trkpt><trkpt lat="34.15811398428979" lon="-4.903530312024189"><ele>174.0</ele><time>2026-04-28T15:36:46Z</time></trkpt><trkpt lat="34.158048766258894" lon="-4.903290899141138"><ele>174.0</ele><time>2026-04-28T15:36:47Z</time></trkpt><trkpt lat="34.15797272265454" lon="-4.90305807871434"><ele>174.0</ele><time>2026-04-28T15:36:48Z</time></trkpt><trkpt lat="34.15788040979479" lon="-4.902834276362368"><ele>174.0</ele><time>2026-04-28T15:36:49Z</time></trkpt><trkpt lat="34.157769739766955" lon="-4.90261898057576"><ele>170.66666666666666</ele><time>2026-04-28T15:36:50Z</time></trkpt><trkpt lat="34.15765258257337" lon="-4.902415425241978"><ele>167.33333333333331</ele><time>2026-04-28T15:36:51Z</time></trkpt><trkpt lat="34.15753941673585" lon="-4.902229637607881"><ele>164.0</ele><time>2026-04-28T15:36:52Z</time></trkpt><trkpt lat="34.15742644948193" lon="-4.902056347564184"><ele>169.0</ele><time>2026-04-28T15:36:53Z</time></trkpt><trkpt lat="34.157299957491496" lon="-4.901914291664942"><ele>174.0</ele><time>2026-04-28T15:36:54Z</time></trkpt><trkpt lat="34.15714009003993" lon="-4.901843506091338"><ele>179.0</ele><time>2026-04-28T15:36:55Z</time></trkpt><trkpt lat="34.15697796129665" lon="-4.9017694785447485"><ele>175.66666666666666</ele><time>2026-04-28T15:36:56Z</time></trkpt><trkpt lat="34.15680830352013" lon="-4.901690027078418"><ele>172.33333333333334</ele><time>2026-04-28T15:36:57Z</time></trkpt><trkpt lat="34.15663031847956" lon="-4.901618726787181"><ele>169.0</ele><time>2026-04-28T15:36:58Z</time></trkpt><trkpt lat="34.15644563721762" lon="-4.901561971463485"><ele>169.0</ele><time>2026-04-28T15:36:59Z</time></trkpt><trkpt lat="34.15626195463528" lon="-4.901499109081808"><ele>169.0</ele><time>2026-04-28T15:37:00Z</time></trkpt><trkpt lat="34.15607433115969" lon="-4.901452903908158"><ele>169.0</ele><time>2026-04-28T15:37:01Z</time></trkpt><trkpt lat="34.15588464627181" lon="-4.901434871309678"><ele>168.33333333333334</ele><time>2026-04-28T15:37:02Z</time></trkpt><trkpt lat="34.15569259349339" lon="-4.901440660518816"><ele>167.66666666666666</ele><time>2026-04-28T15:37:03Z</time></trkpt><trkpt lat="34.15549777319412" lon="-4.9014591927724025"><ele>167.0</ele><time>2026-04-28T15:37:04Z</time></trkpt><trkpt lat="34.15530104279082" lon="-4.901478247453431"><ele>167.0</ele><time>2026-04-28T15:37:05Z</time></trkpt><trkpt lat="34.155102777975365" lon="-4.901498599914272"><ele>167.0</ele><time>2026-04-28T15:37:06Z</time></trkpt><trkpt lat="34.15490454541159" lon="-4.901506364761878"><ele>167.0</ele><time>2026-04-28T15:37:07Z</time></trkpt><trkpt lat="34.154710031165216" lon="-4.901528891066078"><ele>165.66666666666666</ele><time>2026-04-28T15:37:08Z</time></trkpt><trkpt lat="34.154513929024404" lon="-4.901531247609832"><ele>164.33333333333334</ele><time>2026-04-28T15:37:09Z</time></trkpt><trkpt lat="34.15431687078196" lon="-4.90152224372553"><ele>163.0</ele><time>2026-04-28T15:37:10Z</time></trkpt><trkpt lat="34.15412204379215" lon="-4.901507878290683"><ele>162.66666666666669</ele><time>2026-04-28T15:37:11Z</time></trkpt><trkpt lat="34.15392851199879" lon="-4.901487594588612"><ele>162.33333333333334</ele><time>2026-04-28T15:37:12Z</time></trkpt><trkpt lat="34.15373351246349" lon="-4.901462651292077"><ele>162.0</ele><time>2026-04-28T15:37:13Z</time></trkpt><trkpt lat="34.153538767777036" lon="-4.901430202472077"><ele>162.0</ele><time>2026-04-28T15:37:14Z</time></trkpt><trkpt lat="34.15334265175539" lon="-4.901396036402606"><ele>162.0</ele><time>2026-04-28T15:37:15Z</time></trkpt><trkpt lat="34.15314855299368" lon="-4.901365273737771"><ele>162.0</ele><time>2026-04-28T15:37:16Z</time></trkpt><trkpt lat="34.15295109128391" lon="-4.901341152598925"><ele>163.0</ele><time>2026-04-28T15:37:17Z</time></trkpt><trkpt lat="34.152756915977875" lon="-4.901317531487253"><ele>164.0</ele><time>2026-04-28T15:37:18Z</time></trkpt><trkpt lat="34.15255847831924" lon="-4.901286732491534"><ele>165.0</ele><time>2026-04-28T15:37:19Z</time></trkpt><trkpt lat="34.152359854943256" lon="-4.901253420420645"><ele>165.33333333333334</ele><time>2026-04-28T15:37:20Z</time></trkpt><trkpt lat="34.152162919631245" lon="-4.901226998391347"><ele>165.66666666666669</ele><time>2026-04-28T15:37:21Z</time></trkpt><trkpt lat="34.151963674380525" lon="-4.901200640875285"><ele>166.0</ele><time>2026-04-28T15:37:22Z</time></trkpt><trkpt lat="34.15176624810979" lon="-4.901165310170955"><ele>166.0</ele><time>2026-04-28T15:37:23Z</time></trkpt><trkpt lat="34.151570061138834" lon="-4.901124854028554"><ele>166.0</ele><time>2026-04-28T15:37:24Z</time></trkpt><trkpt lat="34.15137830900915" lon="-4.901084013875261"><ele>166.0</ele><time>2026-04-28T15:37:25Z</time></trkpt><trkpt lat="34.1511879923916" lon="-4.901036299677837"><ele>167.33333333333334</ele><time>2026-04-28T15:37:26Z</time></trkpt><trkpt lat="34.151004068397306" lon="-4.900981434583535"><ele>168.66666666666666</ele><time>2026-04-28T15:37:27Z</time></trkpt><trkpt lat="34.150834696300784" lon="-4.90091711849467"><ele>170.0</ele><time>2026-04-28T15:37:28Z</time></trkpt><trkpt lat="34.15067886827736" lon="-4.900844669131405"><ele>170.0</ele><time>2026-04-28T15:37:29Z</time></trkpt><trkpt lat="34.15052848273485" lon="-4.900764656003211"><ele>170.0</ele><time>2026-04-28T15:37:30Z</time></trkpt><trkpt lat="34.15037341842812" lon="-4.900678719847361"><ele>170.0</ele><time>2026-04-28T15:37:31Z</time></trkpt><trkpt lat="34.15021484497311" lon="-4.900597406520926"><ele>170.0</ele><time>2026-04-28T15:37:32Z</time></trkpt><trkpt lat="34.150055699908386" lon="-4.900516825187622"><ele>170.0</ele><time>2026-04-28T15:37:33Z</time></trkpt><trkpt lat="34.14989403939359" lon="-4.900428135510832"><ele>170.0</ele><time>2026-04-28T15:37:34Z</time></trkpt><trkpt lat="34.149723808938774" lon="-4.9003288857031695"><ele>168.66666666666666</ele><time>2026-04-28T15:37:35Z</time></trkpt><trkpt lat="34.14955181902613" lon="-4.900221088047931"><ele>167.33333333333334</ele><time>2026-04-28T15:37:36Z</time></trkpt><trkpt lat="34.14937944436587" lon="-4.900118381404101"><ele>166.0</ele><time>2026-04-28T15:37:37Z</time></trkpt><trkpt lat="34.14920370678842" lon="-4.900020015136237"><ele>168.0</ele><time>2026-04-28T15:37:38Z</time></trkpt><trkpt lat="34.14902608079066" lon="-4.899921876760119"><ele>170.0</ele><time>2026-04-28T15:37:39Z</time></trkpt><trkpt lat="34.14885389463857" lon="-4.899818974659179"><ele>172.0</ele><time>2026-04-28T15:37:40Z</time></trkpt><trkpt lat="34.14868625296008" lon="-4.899715436309342"><ele>172.0</ele><time>2026-04-28T15:37:41Z</time></trkpt><trkpt lat="34.1485148230293" lon="-4.899616590376096"><ele>172.0</ele><time>2026-04-28T15:37:42Z</time></trkpt><trkpt lat="34.148338709563426" lon="-4.8995283392261415"><ele>172.0</ele><time>2026-04-28T15:37:43Z</time></trkpt><trkpt lat="34.14815055419985" lon="-4.899485192772205"><ele>174.66666666666669</ele><time>2026-04-28T15:37:44Z</time></trkpt><trkpt lat="34.147963212602725" lon="-4.899433824167391"><ele>177.33333333333334</ele><time>2026-04-28T15:37:45Z</time></trkpt><trkpt lat="34.14776631168035" lon="-4.899415670374173"><ele>180.0</ele><time>2026-04-28T15:37:46Z</time></trkpt><trkpt lat="34.147570164533555" lon="-4.899390451268273"><ele>178.66666666666666</ele><time>2026-04-28T15:37:47Z</time></trkpt><trkpt lat="34.147372285626105" lon="-4.899365069952763"><ele>177.33333333333331</ele><time>2026-04-28T15:37:48Z</time></trkpt><trkpt lat="34.14717283590867" lon="-4.89934295637385"><ele>176.0</ele><time>2026-04-28T15:37:49Z</time></trkpt><trkpt lat="34.146976190747544" lon="-4.899321066117758"><ele>176.0</ele><time>2026-04-28T15:37:50Z</time></trkpt><trkpt lat="34.14677832159282" lon="-4.899300380840797"><ele>176.0</ele><time>2026-04-28T15:37:51Z</time></trkpt><trkpt lat="34.14658460955246" lon="-4.899275958916318"><ele>176.0</ele><time>2026-04-28T15:37:52Z</time></trkpt><trkpt lat="34.146390168069466" lon="-4.899245558518044"><ele>175.33333333333331</ele><time>2026-04-28T15:37:53Z</time></trkpt><trkpt lat="34.14620081743509" lon="-4.89921824584032"><ele>174.66666666666666</ele><time>2026-04-28T15:37:54Z</time></trkpt><trkpt lat="34.146010563981875" lon="-4.8991979301904705"><ele>174.0</ele><time>2026-04-28T15:37:55Z</time></trkpt><trkpt lat="34.14582346718599" lon="-4.899180755185265"><ele>174.33333333333334</ele><time>2026-04-28T15:37:56Z</time></trkpt><trkpt lat="34.145633833727395" lon="-4.899160355273807"><ele>174.66666666666669</ele><time>2026-04-28T15:37:57Z</time></trkpt><trkpt lat="34.1454429908329" lon="-4.899138808777491"><ele>175.0</ele><time>2026-04-28T15:37:58Z</time></trkpt><trkpt lat="34.14525055226395" lon="-4.899121720640974"><ele>175.0</ele><time>2026-04-28T15:37:59Z</time></trkpt><trkpt lat="34.14506209040386" lon="-4.899107381607771"><ele>175.0</ele><time>2026-04-28T15:38:00Z</time></trkpt><trkpt lat="34.14488530654174" lon="-4.899092969455007"><ele>175.0</ele><time>2026-04-28T15:38:01Z</time></trkpt><trkpt lat="34.14471333738702" lon="-4.899071489790096"><ele>177.0</ele><time>2026-04-28T15:38:02Z</time></trkpt><trkpt lat="34.14454788167402" lon="-4.89904647514286"><ele>179.0</ele><time>2026-04-28T15:38:03Z</time></trkpt><trkpt lat="34.14439437495698" lon="-4.899021741589247"><ele>181.0</ele><time>2026-04-28T15:38:04Z</time></trkpt><trkpt lat="34.14424844264302" lon="-4.898996949984925"><ele>181.0</ele><time>2026-04-28T15:38:05Z</time></trkpt><trkpt lat="34.14411024653475" lon="-4.89897415895728"><ele>181.0</ele><time>2026-04-28T15:38:06Z</time></trkpt><trkpt lat="34.14397612173239" lon="-4.898958083059782"><ele>181.0</ele><time>2026-04-28T15:38:07Z</time></trkpt><trkpt lat="34.1438424512975" lon="-4.898943915672685"><ele>181.0</ele><time>2026-04-28T15:38:08Z</time></trkpt><trkpt lat="34.14370502988467" lon="-4.8989178789511625"><ele>181.33333333333334</ele><time>2026-04-28T15:38:09Z</time></trkpt><trkpt lat="34.14356308704798" lon="-4.898874362434983"><ele>181.66666666666666</ele><time>2026-04-28T15:38:10Z</time></trkpt><trkpt lat="34.14341945607515" lon="-4.898814823442387"><ele>182.0</ele><time>2026-04-28T15:38:11Z</time></trkpt><trkpt lat="34.14327329504016" lon="-4.898740314523914"><ele>183.33333333333331</ele><time>2026-04-28T15:38:12Z</time></trkpt><trkpt lat="34.1431254742948" lon="-4.8986496054119275"><ele>184.66666666666666</ele><time>2026-04-28T15:38:13Z</time></trkpt><trkpt lat="34.142975394303775" lon="-4.898545354255693"><ele>186.0</ele><time>2026-04-28T15:38:14Z</time></trkpt><trkpt lat="34.1428171260501" lon="-4.89844730937383"><ele>184.33333333333334</ele><time>2026-04-28T15:38:15Z</time></trkpt><trkpt lat="34.14265520205574" lon="-4.898351192915134"><ele>182.66666666666669</ele><time>2026-04-28T15:38:16Z</time></trkpt><trkpt lat="34.142491769855" lon="-4.898251313634101"><ele>181.0</ele><time>2026-04-28T15:38:17Z</time></trkpt><trkpt lat="34.14233100502877" lon="-4.8981495003889215"><ele>181.0</ele><time>2026-04-28T15:38:18Z</time></trkpt><trkpt lat="34.14216885841697" lon="-4.898046579907241"><ele>181.0</ele><time>2026-04-28T15:38:19Z</time></trkpt><trkpt lat="34.142008012573285" lon="-4.897945362940702"><ele>181.0</ele><time>2026-04-28T15:38:20Z</time></trkpt><trkpt lat="34.14184402185621" lon="-4.897840185075381"><ele>181.0</ele><time>2026-04-28T15:38:21Z</time></trkpt><trkpt lat="34.14167539542516" lon="-4.89773179675133"><ele>181.0</ele><time>2026-04-28T15:38:22Z</time></trkpt><trkpt lat="34.14149344453771" lon="-4.897642851473997"><ele>181.0</ele><time>2026-04-28T15:38:23Z</time></trkpt><trkpt lat="34.14132593393421" lon="-4.897509726528895"><ele>179.33333333333334</ele><time>2026-04-28T15:38:24Z</time></trkpt><trkpt lat="34.14114859964376" lon="-4.897399832444028"><ele>177.66666666666666</ele><time>2026-04-28T15:38:25Z</time></trkpt><trkpt lat="34.14097460027454" lon="-4.897289042624279"><ele>176.0</ele><time>2026-04-28T15:38:26Z</time></trkpt><trkpt lat="34.1408043955612" lon="-4.897178330970013"><ele>179.0</ele><time>2026-04-28T15:38:27Z</time></trkpt><trkpt lat="34.14064057608626" lon="-4.897069126670645"><ele>182.0</ele><time>2026-04-28T15:38:28Z</time></trkpt><trkpt lat="34.14048144700044" lon="-4.896959209850709"><ele>185.0</ele><time>2026-04-28T15:38:29Z</time></trkpt><trkpt lat="34.140318144460885" lon="-4.896850310644098"><ele>183.66666666666666</ele><time>2026-04-28T15:38:30Z</time></trkpt><trkpt lat="34.14015659353307" lon="-4.896747186353321"><ele>182.33333333333334</ele><time>2026-04-28T15:38:31Z</time></trkpt><trkpt lat="34.139988617636924" lon="-4.896664984111547"><ele>181.0</ele><time>2026-04-28T15:38:32Z</time></trkpt><trkpt lat="34.13982489384366" lon="-4.896581403036465"><ele>181.0</ele><time>2026-04-28T15:38:33Z</time></trkpt><trkpt lat="34.13965938986925" lon="-4.8964860713360965"><ele>181.0</ele><time>2026-04-28T15:38:34Z</time></trkpt><trkpt lat="34.139484733410434" lon="-4.896423001983814"><ele>181.0</ele><time>2026-04-28T15:38:35Z</time></trkpt><trkpt lat="34.13930344769114" lon="-4.89637400548492"><ele>181.0</ele><time>2026-04-28T15:38:36Z</time></trkpt><trkpt lat="34.13911774241452" lon="-4.896340384327263"><ele>181.0</ele><time>2026-04-28T15:38:37Z</time></trkpt><trkpt lat="34.138931595821575" lon="-4.8963094979102735"><ele>181.0</ele><time>2026-04-28T15:38:38Z</time></trkpt><trkpt lat="34.13874253483556" lon="-4.896271563216855"><ele>181.0</ele><time>2026-04-28T15:38:39Z</time></trkpt><trkpt lat="34.138552632222655" lon="-4.896232782642058"><ele>181.0</ele><time>2026-04-28T15:38:40Z</time></trkpt><trkpt lat="34.13836348957763" lon="-4.896197147916843"><ele>181.0</ele><time>2026-04-28T15:38:41Z</time></trkpt><trkpt lat="34.1381730880091" lon="-4.896165739780581"><ele>181.33333333333334</ele><time>2026-04-28T15:38:42Z</time></trkpt><trkpt lat="34.137975947704746" lon="-4.896132731838864"><ele>181.66666666666666</ele><time>2026-04-28T15:38:43Z</time></trkpt><trkpt lat="34.13778433895725" lon="-4.896091856354388"><ele>182.0</ele><time>2026-04-28T15:38:44Z</time></trkpt><trkpt lat="34.13758739330803" lon="-4.896050367941127"><ele>182.0</ele><time>2026-04-28T15:38:45Z</time></trkpt><trkpt lat="34.137392011057194" lon="-4.89601237912175"><ele>182.0</ele><time>2026-04-28T15:38:46Z</time></trkpt><trkpt lat="34.13719530236564" lon="-4.895976385699207"><ele>182.0</ele><time>2026-04-28T15:38:47Z</time></trkpt><trkpt lat="34.13699967327583" lon="-4.895940813067117"><ele>182.33333333333331</ele><time>2026-04-28T15:38:48Z</time></trkpt><trkpt lat="34.13680546333285" lon="-4.895900746175993"><ele>182.66666666666666</ele><time>2026-04-28T15:38:49Z</time></trkpt><trkpt lat="34.136612702154295" lon="-4.895858344971061"><ele>183.0</ele><time>2026-04-28T15:38:50Z</time></trkpt><trkpt lat="34.1364169757545" lon="-4.895818858818452"><ele>183.33333333333334</ele><time>2026-04-28T15:38:51Z</time></trkpt><trkpt lat="34.13622081242952" lon="-4.895783292306074"><ele>183.66666666666669</ele><time>2026-04-28T15:38:52Z</time></trkpt><trkpt lat="34.136021478815984" lon="-4.89574743374697"><ele>184.0</ele><time>2026-04-28T15:38:53Z</time></trkpt><trkpt lat="34.135822160093035" lon="-4.89571135552791"><ele>184.33333333333334</ele><time>2026-04-28T15:38:54Z</time></trkpt><trkpt lat="34.13562169770421" lon="-4.8956792970685825"><ele>184.66666666666666</ele><time>2026-04-28T15:38:55Z</time></trkpt><trkpt lat="34.135422321583526" lon="-4.895637087736088"><ele>185.0</ele><time>2026-04-28T15:38:56Z</time></trkpt><trkpt lat="34.135220995566264" lon="-4.895592113159612"><ele>185.0</ele><time>2026-04-28T15:38:57Z</time></trkpt><trkpt lat="34.13502075963692" lon="-4.895549374924853"><ele>185.0</ele><time>2026-04-28T15:38:58Z</time></trkpt><trkpt lat="34.13481600717064" lon="-4.895508083210465"><ele>185.0</ele><time>2026-04-28T15:38:59Z</time></trkpt><trkpt lat="34.13460965254413" lon="-4.895476540790782"><ele>185.66666666666666</ele><time>2026-04-28T15:39:00Z</time></trkpt><trkpt lat="34.134397933871426" lon="-4.895443754174909"><ele>186.33333333333334</ele><time>2026-04-28T15:39:01Z</time></trkpt><trkpt lat="34.13419011353042" lon="-4.895405036529901"><ele>187.0</ele><time>2026-04-28T15:39:02Z</time></trkpt><trkpt lat="34.13398257288202" lon="-4.895368789533696"><ele>187.66666666666669</ele><time>2026-04-28T15:39:03Z</time></trkpt><trkpt lat="34.13378601862791" lon="-4.895329802279667"><ele>188.33333333333334</ele><time>2026-04-28T15:39:04Z</time></trkpt><trkpt lat="34.13358843224345" lon="-4.895301016038323"><ele>189.0</ele><time>2026-04-28T15:39:05Z</time></trkpt><trkpt lat="34.133392213876036" lon="-4.895261559453586"><ele>188.0</ele><time>2026-04-28T15:39:06Z</time></trkpt><trkpt lat="34.13319087920288" lon="-4.895225000755897"><ele>187.0</ele><time>2026-04-28T15:39:07Z</time></trkpt><trkpt lat="34.13299296368666" lon="-4.895192290994713"><ele>186.0</ele><time>2026-04-28T15:39:08Z</time></trkpt><trkpt lat="34.13279622915878" lon="-4.895156295747482"><ele>186.0</ele><time>2026-04-28T15:39:09Z</time></trkpt><trkpt lat="34.132604280782594" lon="-4.8951175426025655"><ele>186.0</ele><time>2026-04-28T15:39:10Z</time></trkpt><trkpt lat="34.13241888952324" lon="-4.895077359229322"><ele>186.0</ele><time>2026-04-28T15:39:11Z</time></trkpt><trkpt lat="34.13223660628517" lon="-4.895041465706499"><ele>182.33333333333334</ele><time>2026-04-28T15:39:12Z</time></trkpt><trkpt lat="34.13206231378644" lon="-4.895008255935804"><ele>178.66666666666669</ele><time>2026-04-28T15:39:13Z</time></trkpt><trkpt lat="34.13189371848224" lon="-4.8949820457825535"><ele>175.0</ele><time>2026-04-28T15:39:14Z</time></trkpt><trkpt lat="34.131718445067094" lon="-4.894951020523498"><ele>175.0</ele><time>2026-04-28T15:39:15Z</time></trkpt><trkpt lat="34.13154244201529" lon="-4.894921692272087"><ele>175.0</ele><time>2026-04-28T15:39:16Z</time></trkpt><trkpt lat="34.13136720918142" lon="-4.89489275655689"><ele>175.0</ele><time>2026-04-28T15:39:17Z</time></trkpt><trkpt lat="34.131190015647874" lon="-4.894858049032652"><ele>175.0</ele><time>2026-04-28T15:39:18Z</time></trkpt><trkpt lat="34.13101136905451" lon="-4.894817398312556"><ele>175.0</ele><time>2026-04-28T15:39:19Z</time></trkpt><trkpt lat="34.13083022532619" lon="-4.894781131772741"><ele>175.0</ele><time>2026-04-28T15:39:20Z</time></trkpt><trkpt lat="34.130649584096744" lon="-4.894753182295472"><ele>175.0</ele><time>2026-04-28T15:39:21Z</time></trkpt><trkpt lat="34.13046980879218" lon="-4.894721479841326"><ele>175.0</ele><time>2026-04-28T15:39:22Z</time></trkpt><trkpt lat="34.13028949466293" lon="-4.8946850831718"><ele>175.0</ele><time>2026-04-28T15:39:23Z</time></trkpt><trkpt lat="34.13011072306606" lon="-4.894650999405358"><ele>175.0</ele><time>2026-04-28T15:39:24Z</time></trkpt><trkpt lat="34.12993324987902" lon="-4.894618049865523"><ele>175.0</ele><time>2026-04-28T15:39:25Z</time></trkpt><trkpt lat="34.12975920335925" lon="-4.8945884027144695"><ele>175.0</ele><time>2026-04-28T15:39:26Z</time></trkpt><trkpt lat="34.129590215834966" lon="-4.8945593501417735"><ele>176.33333333333334</ele><time>2026-04-28T15:39:27Z</time></trkpt><trkpt lat="34.129426358852314" lon="-4.894527037620101"><ele>177.66666666666666</ele><time>2026-04-28T15:39:28Z</time></trkpt><trkpt lat="34.12926208956821" lon="-4.894497293657406"><ele>179.0</ele><time>2026-04-28T15:39:29Z</time></trkpt><trkpt lat="34.1291030730211" lon="-4.8944657859305964"><ele>179.33333333333331</ele><time>2026-04-28T15:39:30Z</time></trkpt><trkpt lat="34.128947726502105" lon="-4.894435623041306"><ele>179.66666666666666</ele><time>2026-04-28T15:39:31Z</time></trkpt><trkpt lat="34.12879294756865" lon="-4.89440506893666"><ele>180.0</ele><time>2026-04-28T15:39:32Z</time></trkpt><trkpt lat="34.12863979340923" lon="-4.894400877232636"><ele>180.0</ele><time>2026-04-28T15:39:33Z</time></trkpt><trkpt lat="34.12848278323237" lon="-4.8944091881770575"><ele>180.0</ele><time>2026-04-28T15:39:34Z</time></trkpt><trkpt lat="34.128328120666716" lon="-4.89446491064797"><ele>180.0</ele><time>2026-04-28T15:39:35Z</time></trkpt><trkpt lat="34.128170505382144" lon="-4.894505914897125"><ele>179.66666666666666</ele><time>2026-04-28T15:39:36Z</time></trkpt><trkpt lat="34.12800648344625" lon="-4.894540102854768"><ele>179.33333333333331</ele><time>2026-04-28T15:39:37Z</time></trkpt><trkpt lat="34.12783971576639" lon="-4.8945950110002485"><ele>179.0</ele><time>2026-04-28T15:39:38Z</time></trkpt><trkpt lat="34.1276734010671" lon="-4.894649694563859"><ele>179.0</ele><time>2026-04-28T15:39:39Z</time></trkpt><trkpt lat="34.12750363689902" lon="-4.894705354004856"><ele>179.0</ele><time>2026-04-28T15:39:40Z</time></trkpt><trkpt lat="34.12732576069966" lon="-4.8947589864708805"><ele>179.0</ele><time>2026-04-28T15:39:41Z</time></trkpt><trkpt lat="34.12715115302302" lon="-4.89481112791865"><ele>179.0</ele><time>2026-04-28T15:39:42Z</time></trkpt><trkpt lat="34.126979541875855" lon="-4.8948636135186225"><ele>179.0</ele><time>2026-04-28T15:39:43Z</time></trkpt><trkpt lat="34.126806786819536" lon="-4.894918558671024"><ele>179.0</ele><time>2026-04-28T15:39:44Z</time></trkpt><trkpt lat="34.126632953585805" lon="-4.894977230046268"><ele>179.0</ele><time>2026-04-28T15:39:45Z</time></trkpt><trkpt lat="34.12646038158629" lon="-4.895036248908441"><ele>179.0</ele><time>2026-04-28T15:39:46Z</time></trkpt><trkpt lat="34.126285647913974" lon="-4.895095500572855"><ele>179.0</ele><time>2026-04-28T15:39:47Z</time></trkpt><trkpt lat="34.126115326824426" lon="-4.895151109365641"><ele>179.33333333333331</ele><time>2026-04-28T15:39:48Z</time></trkpt><trkpt lat="34.12593649790986" lon="-4.895209837999752"><ele>179.66666666666666</ele><time>2026-04-28T15:39:49Z</time></trkpt><trkpt lat="34.12575374537767" lon="-4.895265973854011"><ele>180.0</ele><time>2026-04-28T15:39:50Z</time></trkpt><trkpt lat="34.125567228590775" lon="-4.895325555898884"><ele>180.0</ele><time>2026-04-28T15:39:51Z</time></trkpt><trkpt lat="34.12537816739101" lon="-4.895387377952144"><ele>180.0</ele><time>2026-04-28T15:39:52Z</time></trkpt><trkpt lat="34.125184802188286" lon="-4.89545044828243"><ele>180.0</ele><time>2026-04-28T15:39:53Z</time></trkpt><trkpt lat="34.124989038184914" lon="-4.8955113541032125"><ele>179.66666666666666</ele><time>2026-04-28T15:39:54Z</time></trkpt><trkpt lat="34.124790505648754" lon="-4.895570051934906"><ele>179.33333333333331</ele><time>2026-04-28T15:39:55Z</time></trkpt><trkpt lat="34.12459287409517" lon="-4.895632867754547"><ele>179.0</ele><time>2026-04-28T15:39:56Z</time></trkpt><trkpt lat="34.124393380782735" lon="-4.895695838685385"><ele>179.0</ele><time>2026-04-28T15:39:57Z</time></trkpt><trkpt lat="34.124193363011855" lon="-4.895762017531843"><ele>179.0</ele><time>2026-04-28T15:39:58Z</time></trkpt><trkpt lat="34.12399588793539" lon="-4.895827462278976"><ele>179.0</ele><time>2026-04-28T15:39:59Z</time></trkpt><trkpt lat="34.123797565350344" lon="-4.895892699881419"><ele>180.66666666666666</ele><time>2026-04-28T15:40:00Z</time></trkpt><trkpt lat="34.1236004909962" lon="-4.895954553584411"><ele>182.33333333333334</ele><time>2026-04-28T15:40:01Z</time></trkpt><trkpt lat="34.12340216199065" lon="-4.896013387046821"><ele>184.0</ele><time>2026-04-28T15:40:02Z</time></trkpt><trkpt lat="34.12319961272819" lon="-4.896069420689086"><ele>184.33333333333334</ele><time>2026-04-28T15:40:03Z</time></trkpt><trkpt lat="34.12299837103762" lon="-4.896107228828669"><ele>184.66666666666666</ele><time>2026-04-28T15:40:04Z</time></trkpt><trkpt lat="34.12279747025577" lon="-4.896118416549632"><ele>185.0</ele><time>2026-04-28T15:40:05Z</time></trkpt><trkpt lat="34.122593780719434" lon="-4.896110385074375"><ele>186.0</ele><time>2026-04-28T15:40:06Z</time></trkpt><trkpt lat="34.122391019488894" lon="-4.89609121113899"><ele>187.0</ele><time>2026-04-28T15:40:07Z</time></trkpt><trkpt lat="34.12219203727432" lon="-4.896057494004027"><ele>188.0</ele><time>2026-04-28T15:40:08Z</time></trkpt><trkpt lat="34.12199053227821" lon="-4.896022851733905"><ele>188.0</ele><time>2026-04-28T15:40:09Z</time></trkpt><trkpt lat="34.12179237158531" lon="-4.895992745314456"><ele>188.0</ele><time>2026-04-28T15:40:10Z</time></trkpt><trkpt lat="34.12159639430102" lon="-4.895962135656943"><ele>188.0</ele><time>2026-04-28T15:40:11Z</time></trkpt><trkpt lat="34.121404819762354" lon="-4.895928316082152"><ele>187.66666666666666</ele><time>2026-04-28T15:40:12Z</time></trkpt><trkpt lat="34.12122120255212" lon="-4.895879401513071"><ele>187.33333333333334</ele><time>2026-04-28T15:40:13Z</time></trkpt><trkpt lat="34.12104067700337" lon="-4.895814927703449"><ele>187.0</ele><time>2026-04-28T15:40:14Z</time></trkpt><trkpt lat="34.12086729398331" lon="-4.895731980843224"><ele>188.66666666666669</ele><time>2026-04-28T15:40:15Z</time></trkpt><trkpt lat="34.1207101102493" lon="-4.895638770697224"><ele>190.33333333333334</ele><time>2026-04-28T15:40:16Z</time></trkpt><trkpt lat="34.12056617556542" lon="-4.8955363979044995"><ele>192.0</ele><time>2026-04-28T15:40:17Z</time></trkpt><trkpt lat="34.120422735901" lon="-4.895426393797258"><ele>192.0</ele><time>2026-04-28T15:40:18Z</time></trkpt><trkpt lat="34.12027832626765" lon="-4.8953105033922935"><ele>192.0</ele><time>2026-04-28T15:40:19Z</time></trkpt><trkpt lat="34.12014117858839" lon="-4.895185555840438"><ele>192.0</ele><time>2026-04-28T15:40:20Z</time></trkpt><trkpt lat="34.12001490962298" lon="-4.895046694385074"><ele>191.0</ele><time>2026-04-28T15:40:21Z</time></trkpt><trkpt lat="34.11988928850105" lon="-4.894897959201896"><ele>190.0</ele><time>2026-04-28T15:40:22Z</time></trkpt><trkpt lat="34.11976911259214" lon="-4.894737063849105"><ele>189.0</ele><time>2026-04-28T15:40:23Z</time></trkpt><trkpt lat="34.11965159991465" lon="-4.894572788794024"><ele>189.0</ele><time>2026-04-28T15:40:24Z</time></trkpt><trkpt lat="34.11953577253779" lon="-4.894400823247122"><ele>189.0</ele><time>2026-04-28T15:40:25Z</time></trkpt><trkpt lat="34.11941730167792" lon="-4.894227787794779"><ele>189.0</ele><time>2026-04-28T15:40:26Z</time></trkpt><trkpt lat="34.11929638687236" lon="-4.894057779237761"><ele>188.0</ele><time>2026-04-28T15:40:27Z</time></trkpt><trkpt lat="34.11917402843035" lon="-4.893887560518488"><ele>187.0</ele><time>2026-04-28T15:40:28Z</time></trkpt><trkpt lat="34.11904986627633" lon="-4.893717922356235"><ele>186.0</ele><time>2026-04-28T15:40:29Z</time></trkpt><trkpt lat="34.118923190004" lon="-4.893549528852742"><ele>186.0</ele><time>2026-04-28T15:40:30Z</time></trkpt><trkpt lat="34.11879869010385" lon="-4.893380537471685"><ele>186.0</ele><time>2026-04-28T15:40:31Z</time></trkpt><trkpt lat="34.11867310752388" lon="-4.893209532018894"><ele>186.0</ele><time>2026-04-28T15:40:32Z</time></trkpt><trkpt lat="34.118549751546254" lon="-4.893040745148206"><ele>186.0</ele><time>2026-04-28T15:40:33Z</time></trkpt><trkpt lat="34.11843035250884" lon="-4.892875668133922"><ele>186.0</ele><time>2026-04-28T15:40:34Z</time></trkpt><trkpt lat="34.11831514046524" lon="-4.892709639844101"><ele>186.0</ele><time>2026-04-28T15:40:35Z</time></trkpt><trkpt lat="34.11820139299224" lon="-4.892549179626786"><ele>184.0</ele><time>2026-04-28T15:40:36Z</time></trkpt><trkpt lat="34.118085824912164" lon="-4.892388155878353"><ele>182.0</ele><time>2026-04-28T15:40:37Z</time></trkpt><trkpt lat="34.11797035371632" lon="-4.892225757984748"><ele>180.0</ele><time>2026-04-28T15:40:38Z</time></trkpt><trkpt lat="34.117860665141734" lon="-4.89206941510409"><ele>180.0</ele><time>2026-04-28T15:40:39Z</time></trkpt><trkpt lat="34.11774796893601" lon="-4.891917065563037"><ele>180.0</ele><time>2026-04-28T15:40:40Z</time></trkpt><trkpt lat="34.117636879231554" lon="-4.891769566067811"><ele>180.0</ele><time>2026-04-28T15:40:41Z</time></trkpt><trkpt lat="34.1175277954008" lon="-4.891623518478739"><ele>179.0</ele><time>2026-04-28T15:40:42Z</time></trkpt><trkpt lat="34.11741631820506" lon="-4.8914852402713835"><ele>178.0</ele><time>2026-04-28T15:40:43Z</time></trkpt><trkpt lat="34.117300905388326" lon="-4.891359127152722"><ele>177.0</ele><time>2026-04-28T15:40:44Z</time></trkpt><trkpt lat="34.117166894061974" lon="-4.891253236885895"><ele>176.0</ele><time>2026-04-28T15:40:44.999Z</time></trkpt><trkpt lat="34.117013929643996" lon="-4.891178195924543"><ele>175.0</ele><time>2026-04-28T15:40:45.999Z</time></trkpt><trkpt lat="34.11685970585799" lon="-4.891129068063469"><ele>174.0</ele><time>2026-04-28T15:40:46.999Z</time></trkpt><trkpt lat="34.116710340054034" lon="-4.891089930261474"><ele>174.0</ele><time>2026-04-28T15:40:47.999Z</time></trkpt><trkpt lat="34.11655516515227" lon="-4.891059938732932"><ele>174.0</ele><time>2026-04-28T15:40:48.999Z</time></trkpt><trkpt lat="34.11639886385945" lon="-4.89103335479814"><ele>174.0</ele><time>2026-04-28T15:40:49.999Z</time></trkpt><trkpt lat="34.11624216438243" lon="-4.891006108704178"><ele>174.0</ele><time>2026-04-28T15:40:50.999Z</time></trkpt><trkpt lat="34.1160872927739" lon="-4.890984041123278"><ele>174.0</ele><time>2026-04-28T15:40:51.999Z</time></trkpt><trkpt lat="34.11594322860057" lon="-4.890968184280281"><ele>174.0</ele><time>2026-04-28T15:40:52.999Z</time></trkpt><trkpt lat="34.11580091712285" lon="-4.890959841922827"><ele>174.0</ele><time>2026-04-28T15:40:54Z</time></trkpt><trkpt lat="34.115651415164905" lon="-4.890964229517241"><ele>173.66666666666666</ele><time>2026-04-28T15:40:55Z</time></trkpt><trkpt lat="34.11549775610876" lon="-4.8909682918516735"><ele>173.33333333333331</ele><time>2026-04-28T15:40:56Z</time></trkpt><trkpt lat="34.11534857936083" lon="-4.890966200712046"><ele>173.0</ele><time>2026-04-28T15:40:57Z</time></trkpt><trkpt lat="34.11519738763025" lon="-4.890963221303385"><ele>173.0</ele><time>2026-04-28T15:40:58Z</time></trkpt><trkpt lat="34.115039615071126" lon="-4.890963805709463"><ele>173.0</ele><time>2026-04-28T15:40:59Z</time></trkpt><trkpt lat="34.11487779406681" lon="-4.890965755830302"><ele>173.0</ele><time>2026-04-28T15:41:00Z</time></trkpt><trkpt lat="34.114720678322904" lon="-4.890967001365817"><ele>174.0</ele><time>2026-04-28T15:41:01Z</time></trkpt><trkpt lat="34.11456656216906" lon="-4.890963451862593"><ele>175.0</ele><time>2026-04-28T15:41:02Z</time></trkpt><trkpt lat="34.1144118154149" lon="-4.890946966215355"><ele>176.0</ele><time>2026-04-28T15:41:03Z</time></trkpt><trkpt lat="34.11426002770174" lon="-4.890892984114635"><ele>176.0</ele><time>2026-04-28T15:41:04Z</time></trkpt><trkpt lat="34.114117009156224" lon="-4.890797354453674"><ele>176.0</ele><time>2026-04-28T15:41:05Z</time></trkpt><trkpt lat="34.11398530520571" lon="-4.890666083016115"><ele>176.0</ele><time>2026-04-28T15:41:06Z</time></trkpt><trkpt lat="34.11386617717288" lon="-4.8905145925865625"><ele>177.66666666666666</ele><time>2026-04-28T15:41:07Z</time></trkpt><trkpt lat="34.113766080453885" lon="-4.890339374655696"><ele>179.33333333333334</ele><time>2026-04-28T15:41:08Z</time></trkpt><trkpt lat="34.11366355627517" lon="-4.890160680847586"><ele>181.0</ele><time>2026-04-28T15:41:09Z</time></trkpt><trkpt lat="34.113555460677546" lon="-4.889979259574064"><ele>181.0</ele><time>2026-04-28T15:41:10Z</time></trkpt><trkpt lat="34.113443843469945" lon="-4.889791579670143"><ele>181.0</ele><time>2026-04-28T15:41:11Z</time></trkpt><trkpt lat="34.1133333783416" lon="-4.889601048795303"><ele>181.0</ele><time>2026-04-28T15:41:12Z</time></trkpt><trkpt lat="34.11322426836378" lon="-4.889408367317244"><ele>182.0</ele><time>2026-04-28T15:41:13Z</time></trkpt><trkpt lat="34.11311598641585" lon="-4.889219414164126"><ele>183.0</ele><time>2026-04-28T15:41:14Z</time></trkpt><trkpt lat="34.11300748340239" lon="-4.8890316916589995"><ele>184.0</ele><time>2026-04-28T15:41:15Z</time></trkpt><trkpt lat="34.1129033665965" lon="-4.888855752346666"><ele>184.0</ele><time>2026-04-28T15:41:16Z</time></trkpt><trkpt lat="34.112803733031456" lon="-4.888686589964462"><ele>184.0</ele><time>2026-04-28T15:41:17Z</time></trkpt><trkpt lat="34.112699826454055" lon="-4.888517734355514"><ele>184.0</ele><time>2026-04-28T15:41:18Z</time></trkpt><trkpt lat="34.11259648080742" lon="-4.888349950639983"><ele>184.0</ele><time>2026-04-28T15:41:19Z</time></trkpt><trkpt lat="34.11249999663276" lon="-4.888188911100222"><ele>184.0</ele><time>2026-04-28T15:41:20Z</time></trkpt><trkpt lat="34.11241186244579" lon="-4.888035668108427"><ele>184.0</ele><time>2026-04-28T15:41:21Z</time></trkpt><trkpt lat="34.112325373417065" lon="-4.887889188161299"><ele>184.5</ele><time>2026-04-28T15:41:22Z</time></trkpt><trkpt lat="34.11224168138337" lon="-4.8877520824650995"><ele>185.0</ele><time>2026-04-28T15:41:23Z</time></trkpt><trkpt lat="34.112160689116344" lon="-4.887622152862358"><ele>185.5</ele><time>2026-04-28T15:41:24Z</time></trkpt><trkpt lat="34.11208057949987" lon="-4.887494259299583"><ele>186.0</ele><time>2026-04-28T15:41:25Z</time></trkpt><trkpt lat="34.1120002086918" lon="-4.887367140072103"><ele>186.20000000000002</ele><time>2026-04-28T15:41:26Z</time></trkpt><trkpt lat="34.11192726406176" lon="-4.887246261983855"><ele>186.4</ele><time>2026-04-28T15:41:27Z</time></trkpt><trkpt lat="34.11186103487351" lon="-4.887132160142279"><ele>186.6</ele><time>2026-04-28T15:41:28Z</time></trkpt><trkpt lat="34.11179695676147" lon="-4.887040968216825"><ele>186.8</ele><time>2026-04-28T15:41:29Z</time></trkpt><trkpt lat="34.11173995801058" lon="-4.886981075148418"><ele>187.0</ele><time>2026-04-28T15:41:30Z</time></trkpt><trkpt lat="34.11166524001284" lon="-4.8869158165737465"><ele>187.0</ele><time>2026-04-28T15:41:32Z</time></trkpt><trkpt lat="34.111599856502984" lon="-4.8868404653128446"><ele>187.0</ele><time>2026-04-28T15:41:40Z</time></trkpt><trkpt lat="34.1116462799831" lon="-4.886711423348904"><ele>187.0</ele><time>2026-04-28T15:41:41Z</time></trkpt><trkpt lat="34.11170621947508" lon="-4.886634927216521"><ele>187.0</ele><time>2026-04-28T15:41:42Z</time></trkpt><trkpt lat="34.11177987092047" lon="-4.8865598995468496"><ele>187.0</ele><time>2026-04-28T15:41:43Z</time></trkpt><trkpt lat="34.11186230179825" lon="-4.886485637452856"><ele>187.75</ele><time>2026-04-28T15:41:44Z</time></trkpt><trkpt lat="34.11194414266969" lon="-4.886401650161933"><ele>188.5</ele><time>2026-04-28T15:41:45Z</time></trkpt><trkpt lat="34.11203428752244" lon="-4.886308874580727"><ele>189.25</ele><time>2026-04-28T15:41:46Z</time></trkpt><trkpt lat="34.11212387005892" lon="-4.886220648471181"><ele>190.0</ele><time>2026-04-28T15:41:47Z</time></trkpt><trkpt lat="34.11221235595051" lon="-4.886129631858006"><ele>190.0</ele><time>2026-04-28T15:41:48Z</time></trkpt><trkpt lat="34.112306218477784" lon="-4.886036145595555"><ele>190.0</ele><time>2026-04-28T15:41:49Z</time></trkpt><trkpt lat="34.112402477236" lon="-4.885936739115063"><ele>190.0</ele><time>2026-04-28T15:41:50Z</time></trkpt><trkpt lat="34.11250556667045" lon="-4.885832819392888"><ele>190.0</ele><time>2026-04-28T15:41:51Z</time></trkpt><trkpt lat="34.11261244905521" lon="-4.8857263027986635"><ele>188.75</ele><time>2026-04-28T15:41:52Z</time></trkpt><trkpt lat="34.112707671702445" lon="-4.88561848247671"><ele>187.5</ele><time>2026-04-28T15:41:53Z</time></trkpt><trkpt lat="34.11282225563342" lon="-4.885504224751948"><ele>186.25</ele><time>2026-04-28T15:41:54Z</time></trkpt><trkpt lat="34.1129390144704" lon="-4.88538908236488"><ele>185.0</ele><time>2026-04-28T15:41:55Z</time></trkpt><trkpt lat="34.11305409861578" lon="-4.885270830014659"><ele>185.0</ele><time>2026-04-28T15:41:56Z</time></trkpt><trkpt lat="34.11317098134623" lon="-4.885148371955017"><ele>185.0</ele><time>2026-04-28T15:41:57Z</time></trkpt><trkpt lat="34.11329584699447" lon="-4.885025870161145"><ele>185.0</ele><time>2026-04-28T15:41:58Z</time></trkpt><trkpt lat="34.11342274869683" lon="-4.884902012474404"><ele>185.0</ele><time>2026-04-28T15:41:59Z</time></trkpt><trkpt lat="34.11354697289345" lon="-4.884780365543552"><ele>185.0</ele><time>2026-04-28T15:42:00Z</time></trkpt><trkpt lat="34.11366912253612" lon="-4.884649453928087"><ele>185.0</ele><time>2026-04-28T15:42:01Z</time></trkpt><trkpt lat="34.113784410253096" lon="-4.884530048333066"><ele>185.0</ele><time>2026-04-28T15:42:02Z</time></trkpt><trkpt lat="34.11389261198439" lon="-4.884420289876071"><ele>185.0</ele><time>2026-04-28T15:42:03Z</time></trkpt><trkpt lat="34.113994791737674" lon="-4.884316312565469"><ele>185.0</ele><time>2026-04-28T15:42:04Z</time></trkpt><trkpt lat="34.11409210971262" lon="-4.8842237673095354"><ele>185.0</ele><time>2026-04-28T15:42:05Z</time></trkpt><trkpt lat="34.11418819739087" lon="-4.884128089746916"><ele>185.5</ele><time>2026-04-28T15:42:06Z</time></trkpt><trkpt lat="34.11428532762226" lon="-4.8840253156505025"><ele>186.0</ele><time>2026-04-28T15:42:07Z</time></trkpt><trkpt lat="34.11438068032808" lon="-4.883924991272064"><ele>186.5</ele><time>2026-04-28T15:42:08Z</time></trkpt><trkpt lat="34.11446922007388" lon="-4.883836110642948"><ele>187.0</ele><time>2026-04-28T15:42:09Z</time></trkpt><trkpt lat="34.11455962166752" lon="-4.8837409836879235"><ele>187.0</ele><time>2026-04-28T15:42:10Z</time></trkpt><trkpt lat="34.11464397617725" lon="-4.883653653067101"><ele>187.0</ele><time>2026-04-28T15:42:11Z</time></trkpt><trkpt lat="34.11471607779031" lon="-4.8835826986600175"><ele>187.0</ele><time>2026-04-28T15:42:12Z</time></trkpt><trkpt lat="34.114763187923586" lon="-4.883517226184053"><ele>187.0</ele><time>2026-04-28T15:42:13Z</time></trkpt><trkpt lat="34.11480894536983" lon="-4.883464021598057"><ele>187.0</ele><time>2026-04-28T15:42:15Z</time></trkpt><trkpt lat="34.11491929923139" lon="-4.883615711726251"><ele>187.0</ele><time>2026-04-28T15:42:16Z</time></trkpt><trkpt lat="34.11497186995808" lon="-4.883707292282037"><ele>187.0</ele><time>2026-04-28T15:42:18Z</time></trkpt><trkpt lat="34.11496640454144" lon="-4.8838165052276885"><ele>187.0</ele><time>2026-04-28T15:42:20Z</time></trkpt><trkpt lat="34.11493489134972" lon="-4.883888148209057"><ele>187.0</ele><time>2026-04-28T15:42:22Z</time></trkpt><trkpt lat="34.114882733497595" lon="-4.883951571879425"><ele>187.0</ele><time>2026-04-28T15:42:26Z</time></trkpt><trkpt lat="34.11483436454519" lon="-4.884008759773627"><ele>187.0</ele><time>2026-04-28T15:42:28Z</time></trkpt><trkpt lat="34.11474131729625" lon="-4.884039576317684"><ele>187.0</ele><time>2026-04-28T15:42:30Z</time></trkpt><trkpt lat="34.114627744359225" lon="-4.883986894445236"><ele>187.0</ele><time>2026-04-28T15:42:32Z</time></trkpt><trkpt lat="34.11454148744345" lon="-4.883936169849159"><ele>187.0</ele><time>2026-04-28T15:42:34Z</time></trkpt><trkpt lat="34.11447205008447" lon="-4.883950505927424"><ele>187.0</ele><time>2026-04-28T15:42:36Z</time></trkpt><trkpt lat="34.11435346726273" lon="-4.883999133421709"><ele>187.0</ele><time>2026-04-28T15:42:38Z</time></trkpt><trkpt lat="34.11429114505176" lon="-4.884052671127602"><ele>187.0</ele><time>2026-04-28T15:42:39Z</time></trkpt><trkpt lat="34.114220987906556" lon="-4.8841282078002015"><ele>187.0</ele><time>2026-04-28T15:42:40Z</time></trkpt><trkpt lat="34.114140755912956" lon="-4.884223539880559"><ele>187.0</ele><time>2026-04-28T15:42:41Z</time></trkpt><trkpt lat="34.11405001084243" lon="-4.884318181514884"><ele>187.0</ele><time>2026-04-28T15:42:42Z</time></trkpt><trkpt lat="34.11394390521153" lon="-4.884422790326486"><ele>186.33333333333334</ele><time>2026-04-28T15:42:42.999Z</time></trkpt><trkpt lat="34.11383090777582" lon="-4.884533746906894"><ele>185.66666666666666</ele><time>2026-04-28T15:42:43.999Z</time></trkpt><trkpt lat="34.11371463702635" lon="-4.88465112361089"><ele>185.0</ele><time>2026-04-28T15:42:44.999Z</time></trkpt><trkpt lat="34.11360803394103" lon="-4.88478370404262"><ele>185.0</ele><time>2026-04-28T15:42:45.999Z</time></trkpt><trkpt lat="34.113485583642856" lon="-4.884909763872504"><ele>185.0</ele><time>2026-04-28T15:42:46.999Z</time></trkpt><trkpt lat="34.113363094787864" lon="-4.885035646820563"><ele>185.0</ele><time>2026-04-28T15:42:47.999Z</time></trkpt><trkpt lat="34.11323727472563" lon="-4.885164903749842"><ele>185.0</ele><time>2026-04-28T15:42:48.999Z</time></trkpt><trkpt lat="34.1131083628598" lon="-4.885297114939209"><ele>185.0</ele><time>2026-04-28T15:42:49.999Z</time></trkpt><trkpt lat="34.11297605787069" lon="-4.885432806095718"><ele>185.0</ele><time>2026-04-28T15:42:50.999Z</time></trkpt><trkpt lat="34.11284249752978" lon="-4.885570251819249"><ele>185.0</ele><time>2026-04-28T15:42:51.999Z</time></trkpt><trkpt lat="34.11272085269962" lon="-4.885695614815052"><ele>185.0</ele><time>2026-04-28T15:42:52.999Z</time></trkpt><trkpt lat="34.11261588778601" lon="-4.885803552580126"><ele>185.0</ele><time>2026-04-28T15:42:53.999Z</time></trkpt><trkpt lat="34.112524110844355" lon="-4.885897859270796"><ele>185.0</ele><time>2026-04-28T15:42:54.999Z</time></trkpt><trkpt lat="34.112435374597574" lon="-4.885989041472472"><ele>186.25</ele><time>2026-04-28T15:42:55.999Z</time></trkpt><trkpt lat="34.11234742302361" lon="-4.886079633932959"><ele>187.5</ele><time>2026-04-28T15:42:56.999Z</time></trkpt><trkpt lat="34.11225463037626" lon="-4.886175559698933"><ele>188.75</ele><time>2026-04-28T15:42:57.999Z</time></trkpt><trkpt lat="34.11215699495892" lon="-4.886276156840688"><ele>190.0</ele><time>2026-04-28T15:42:59Z</time></trkpt><trkpt lat="34.112051009266295" lon="-4.886384976222988"><ele>190.0</ele><time>2026-04-28T15:43:00Z</time></trkpt><trkpt lat="34.11194256530837" lon="-4.886496319628686"><ele>190.0</ele><time>2026-04-28T15:43:01Z</time></trkpt><trkpt lat="34.11183024451924" lon="-4.88661164349811"><ele>190.0</ele><time>2026-04-28T15:43:02Z</time></trkpt><trkpt lat="34.11171448946587" lon="-4.886730493880123"><ele>190.0</ele><time>2026-04-28T15:43:03Z</time></trkpt><trkpt lat="34.11159375235807" lon="-4.886846823259162"><ele>189.0</ele><time>2026-04-28T15:43:04Z</time></trkpt><trkpt lat="34.11146878371126" lon="-4.886966684160423"><ele>188.0</ele><time>2026-04-28T15:43:05Z</time></trkpt><trkpt lat="34.111342962395824" lon="-4.8870868207091815"><ele>187.0</ele><time>2026-04-28T15:43:06Z</time></trkpt><trkpt lat="34.11120308356332" lon="-4.887195948005282"><ele>187.0</ele><time>2026-04-28T15:43:07Z</time></trkpt><trkpt lat="34.111075835696916" lon="-4.887329949887081"><ele>187.0</ele><time>2026-04-28T15:43:08Z</time></trkpt><trkpt lat="34.11094532952519" lon="-4.8874654228511005"><ele>187.0</ele><time>2026-04-28T15:43:09Z</time></trkpt><trkpt lat="34.110806249741394" lon="-4.887598741634487"><ele>185.33333333333334</ele><time>2026-04-28T15:43:10Z</time></trkpt><trkpt lat="34.1106624119577" lon="-4.887726834227858"><ele>183.66666666666666</ele><time>2026-04-28T15:43:11Z</time></trkpt><trkpt lat="34.110516416592525" lon="-4.887841322518811"><ele>182.0</ele><time>2026-04-28T15:43:12Z</time></trkpt><trkpt lat="34.11036408127449" lon="-4.887942072609367"><ele>182.0</ele><time>2026-04-28T15:43:13Z</time></trkpt><trkpt lat="34.11020816237934" lon="-4.888040041933285"><ele>182.0</ele><time>2026-04-28T15:43:14Z</time></trkpt><trkpt lat="34.11004603213431" lon="-4.8881435535007745"><ele>182.0</ele><time>2026-04-28T15:43:15Z</time></trkpt><trkpt lat="34.1098816503378" lon="-4.888246717473972"><ele>181.66666666666666</ele><time>2026-04-28T15:43:16Z</time></trkpt><trkpt lat="34.10970886653875" lon="-4.8883533153118135"><ele>181.33333333333334</ele><time>2026-04-28T15:43:17Z</time></trkpt><trkpt lat="34.1095327691276" lon="-4.888459378634534"><ele>181.0</ele><time>2026-04-28T15:43:18Z</time></trkpt><trkpt lat="34.1093519117858" lon="-4.88856661466795"><ele>181.33333333333334</ele><time>2026-04-28T15:43:19Z</time></trkpt><trkpt lat="34.109172952182256" lon="-4.888676886140444"><ele>181.66666666666666</ele><time>2026-04-28T15:43:20Z</time></trkpt><trkpt lat="34.10899272057021" lon="-4.888785939521763"><ele>182.0</ele><time>2026-04-28T15:43:21Z</time></trkpt><trkpt lat="34.10881000172749" lon="-4.888887367158205"><ele>182.0</ele><time>2026-04-28T15:43:22Z</time></trkpt><trkpt lat="34.108621321581545" lon="-4.888973631151756"><ele>182.0</ele><time>2026-04-28T15:43:23Z</time></trkpt><trkpt lat="34.10842631149623" lon="-4.889028436612792"><ele>182.0</ele><time>2026-04-28T15:43:24Z</time></trkpt><trkpt lat="34.108236205430934" lon="-4.889101253809341"><ele>181.33333333333331</ele><time>2026-04-28T15:43:25Z</time></trkpt><trkpt lat="34.108029368960466" lon="-4.889102923642185"><ele>180.66666666666666</ele><time>2026-04-28T15:43:26Z</time></trkpt><trkpt lat="34.10783255545955" lon="-4.889103796915099"><ele>180.0</ele><time>2026-04-28T15:43:27Z</time></trkpt><trkpt lat="34.10763564951877" lon="-4.889121363321466"><ele>180.0</ele><time>2026-04-28T15:43:28Z</time></trkpt><trkpt lat="34.107440617238225" lon="-4.889134857528975"><ele>180.0</ele><time>2026-04-28T15:43:29Z</time></trkpt><trkpt lat="34.10725156398073" lon="-4.8891853543907144"><ele>180.0</ele><time>2026-04-28T15:43:30Z</time></trkpt><trkpt lat="34.107064594275776" lon="-4.889225287601474"><ele>180.0</ele><time>2026-04-28T15:43:31Z</time></trkpt><trkpt lat="34.10688435806965" lon="-4.889292848560691"><ele>180.0</ele><time>2026-04-28T15:43:32Z</time></trkpt><trkpt lat="34.10670497140806" lon="-4.889383000314393"><ele>180.0</ele><time>2026-04-28T15:43:33Z</time></trkpt><trkpt lat="34.10652627778152" lon="-4.889472802311442"><ele>180.0</ele><time>2026-04-28T15:43:34Z</time></trkpt><trkpt lat="34.106368408578994" lon="-4.889601175425317"><ele>180.0</ele><time>2026-04-28T15:43:35Z</time></trkpt><trkpt lat="34.10620404750795" lon="-4.889725321338783"><ele>180.0</ele><time>2026-04-28T15:43:36Z</time></trkpt><trkpt lat="34.106062205724236" lon="-4.889872387465577"><ele>180.0</ele><time>2026-04-28T15:43:37Z</time></trkpt><trkpt lat="34.10591668511293" lon="-4.890020695788649"><ele>180.0</ele><time>2026-04-28T15:43:38Z</time></trkpt><trkpt lat="34.10580803653628" lon="-4.890198879005272"><ele>180.0</ele><time>2026-04-28T15:43:39Z</time></trkpt><trkpt lat="34.105699986601785" lon="-4.890385745021723"><ele>180.0</ele><time>2026-04-28T15:43:40Z</time></trkpt><trkpt lat="34.10560507237447" lon="-4.890567582408067"><ele>180.0</ele><time>2026-04-28T15:43:41Z</time></trkpt><trkpt lat="34.10552366056675" lon="-4.890773254237997"><ele>180.0</ele><time>2026-04-28T15:43:42Z</time></trkpt><trkpt lat="34.105454907899244" lon="-4.8909766409171676"><ele>180.0</ele><time>2026-04-28T15:43:43Z</time></trkpt><trkpt lat="34.10539286300839" lon="-4.8911924343524324"><ele>180.0</ele><time>2026-04-28T15:43:44Z</time></trkpt><trkpt lat="34.10534485064302" lon="-4.891406702345358"><ele>180.0</ele><time>2026-04-28T15:43:45Z</time></trkpt><trkpt lat="34.105307198358325" lon="-4.89163024484103"><ele>180.0</ele><time>2026-04-28T15:43:46Z</time></trkpt><trkpt lat="34.10527259914302" lon="-4.891859251625086"><ele>180.0</ele><time>2026-04-28T15:43:47Z</time></trkpt><trkpt lat="34.10523740606428" lon="-4.892089337552256"><ele>180.0</ele><time>2026-04-28T15:43:48Z</time></trkpt><trkpt lat="34.10520193457627" lon="-4.892321243279327"><ele>180.0</ele><time>2026-04-28T15:43:49Z</time></trkpt><trkpt lat="34.10515174754565" lon="-4.892553142529911"><ele>180.0</ele><time>2026-04-28T15:43:50Z</time></trkpt><trkpt lat="34.10512191239396" lon="-4.8927892072115915"><ele>180.0</ele><time>2026-04-28T15:43:51Z</time></trkpt><trkpt lat="34.10508965258174" lon="-4.893026101317915"><ele>179.33333333333334</ele><time>2026-04-28T15:43:52Z</time></trkpt><trkpt lat="34.105053770901726" lon="-4.893264482735325"><ele>178.66666666666669</ele><time>2026-04-28T15:43:53Z</time></trkpt><trkpt lat="34.10501709413563" lon="-4.8935039954024235"><ele>178.0</ele><time>2026-04-28T15:43:54Z</time></trkpt><trkpt lat="34.10498493116989" lon="-4.893745651757182"><ele>178.0</ele><time>2026-04-28T15:43:55Z</time></trkpt><trkpt lat="34.10495388957365" lon="-4.893986441244382"><ele>178.0</ele><time>2026-04-28T15:43:56Z</time></trkpt><trkpt lat="34.104908965497" lon="-4.894224036967369"><ele>178.0</ele><time>2026-04-28T15:43:57Z</time></trkpt><trkpt lat="34.10484496279269" lon="-4.894455690285461"><ele>180.0</ele><time>2026-04-28T15:43:58Z</time></trkpt><trkpt lat="34.10477339356647" lon="-4.894682275237615"><ele>182.0</ele><time>2026-04-28T15:43:59Z</time></trkpt><trkpt lat="34.10468266227773" lon="-4.894900682385925"><ele>184.0</ele><time>2026-04-28T15:44:00Z</time></trkpt><trkpt lat="34.10457711472064" lon="-4.895101215339376"><ele>184.0</ele><time>2026-04-28T15:44:01Z</time></trkpt><trkpt lat="34.10444921883937" lon="-4.895283058308228"><ele>184.0</ele><time>2026-04-28T15:44:02Z</time></trkpt><trkpt lat="34.104325032194325" lon="-4.895456030244586"><ele>184.0</ele><time>2026-04-28T15:44:03Z</time></trkpt><trkpt lat="34.10416700662125" lon="-4.895600334882816"><ele>184.33333333333334</ele><time>2026-04-28T15:44:04Z</time></trkpt><trkpt lat="34.10400301211707" lon="-4.895707539811843"><ele>184.66666666666666</ele><time>2026-04-28T15:44:05Z</time></trkpt><trkpt lat="34.10384865999073" lon="-4.895831533008613"><ele>185.0</ele><time>2026-04-28T15:44:06Z</time></trkpt><trkpt lat="34.103688943608844" lon="-4.895951255346353"><ele>185.0</ele><time>2026-04-28T15:44:07Z</time></trkpt><trkpt lat="34.10352241222073" lon="-4.896069656921582"><ele>185.0</ele><time>2026-04-28T15:44:08Z</time></trkpt><trkpt lat="34.10335864216282" lon="-4.896201887047195"><ele>185.0</ele><time>2026-04-28T15:44:09Z</time></trkpt><trkpt lat="34.10319869571232" lon="-4.896334538530175"><ele>185.33333333333331</ele><time>2026-04-28T15:44:10Z</time></trkpt><trkpt lat="34.103035708413685" lon="-4.896464271421138"><ele>185.66666666666666</ele><time>2026-04-28T15:44:11Z</time></trkpt><trkpt lat="34.10287077026476" lon="-4.89659272216648"><ele>186.0</ele><time>2026-04-28T15:44:12Z</time></trkpt><trkpt lat="34.10270430516565" lon="-4.896722895836056"><ele>185.66666666666666</ele><time>2026-04-28T15:44:13Z</time></trkpt><trkpt lat="34.10253801002972" lon="-4.896856114607829"><ele>185.33333333333331</ele><time>2026-04-28T15:44:14Z</time></trkpt><trkpt lat="34.10237263889187" lon="-4.896991853042026"><ele>185.0</ele><time>2026-04-28T15:44:15Z</time></trkpt><trkpt lat="34.1022063278209" lon="-4.8971237701342645"><ele>185.0</ele><time>2026-04-28T15:44:16Z</time></trkpt><trkpt lat="34.10203978174611" lon="-4.897252248697064"><ele>185.0</ele><time>2026-04-28T15:44:17Z</time></trkpt><trkpt lat="34.10187250087868" lon="-4.897380665193014"><ele>185.0</ele><time>2026-04-28T15:44:18Z</time></trkpt><trkpt lat="34.10171904660708" lon="-4.897525585676344"><ele>184.0</ele><time>2026-04-28T15:44:19Z</time></trkpt><trkpt lat="34.10155513127721" lon="-4.897656656387641"><ele>183.0</ele><time>2026-04-28T15:44:20Z</time></trkpt><trkpt lat="34.10139036483501" lon="-4.897786809382431"><ele>182.0</ele><time>2026-04-28T15:44:21Z</time></trkpt><trkpt lat="34.10122358446113" lon="-4.897916701746066"><ele>182.0</ele><time>2026-04-28T15:44:22Z</time></trkpt><trkpt lat="34.10104726256874" lon="-4.898030379407249"><ele>182.0</ele><time>2026-04-28T15:44:23Z</time></trkpt><trkpt lat="34.10088626404218" lon="-4.8981802148883"><ele>182.0</ele><time>2026-04-28T15:44:24Z</time></trkpt><trkpt lat="34.10071692605189" lon="-4.898312957303017"><ele>181.66666666666666</ele><time>2026-04-28T15:44:25Z</time></trkpt><trkpt lat="34.100546322042696" lon="-4.898446864015235"><ele>181.33333333333334</ele><time>2026-04-28T15:44:26Z</time></trkpt><trkpt lat="34.10037691660423" lon="-4.898580219622576"><ele>181.0</ele><time>2026-04-28T15:44:27Z</time></trkpt><trkpt lat="34.10020927665169" lon="-4.898712086365763"><ele>181.0</ele><time>2026-04-28T15:44:28Z</time></trkpt><trkpt lat="34.10003984411239" lon="-4.89884647000579"><ele>181.0</ele><time>2026-04-28T15:44:29Z</time></trkpt><trkpt lat="34.09987340109134" lon="-4.89897672769431"><ele>181.0</ele><time>2026-04-28T15:44:30Z</time></trkpt><trkpt lat="34.09969723796719" lon="-4.899093365701247"><ele>181.0</ele><time>2026-04-28T15:44:31Z</time></trkpt><trkpt lat="34.099531754059804" lon="-4.899225236021322"><ele>181.0</ele><time>2026-04-28T15:44:32Z</time></trkpt><trkpt lat="34.09936562987141" lon="-4.899354096139845"><ele>181.0</ele><time>2026-04-28T15:44:33Z</time></trkpt><trkpt lat="34.09920089970928" lon="-4.89948312069009"><ele>181.0</ele><time>2026-04-28T15:44:34Z</time></trkpt><trkpt lat="34.09903915196761" lon="-4.899613092370515"><ele>181.0</ele><time>2026-04-28T15:44:35Z</time></trkpt><trkpt lat="34.098877321334214" lon="-4.8997379588488394"><ele>181.0</ele><time>2026-04-28T15:44:36Z</time></trkpt><trkpt lat="34.098713495048024" lon="-4.89986116179222"><ele>181.0</ele><time>2026-04-28T15:44:37Z</time></trkpt><trkpt lat="34.098550763555274" lon="-4.899987839239706"><ele>181.0</ele><time>2026-04-28T15:44:38Z</time></trkpt><trkpt lat="34.09839077197366" lon="-4.900116497758012"><ele>181.0</ele><time>2026-04-28T15:44:39Z</time></trkpt><trkpt lat="34.09823015706444" lon="-4.900243374032084"><ele>180.66666666666669</ele><time>2026-04-28T15:44:40Z</time></trkpt><trkpt lat="34.098072299644045" lon="-4.900371941909408"><ele>180.33333333333334</ele><time>2026-04-28T15:44:41Z</time></trkpt><trkpt lat="34.0979139610385" lon="-4.900501349404269"><ele>180.0</ele><time>2026-04-28T15:44:42Z</time></trkpt><trkpt lat="34.09775335972768" lon="-4.900629485001881"><ele>180.0</ele><time>2026-04-28T15:44:42.999Z</time></trkpt><trkpt lat="34.09759296571898" lon="-4.900754788677662"><ele>180.0</ele><time>2026-04-28T15:44:43.999Z</time></trkpt><trkpt lat="34.09743064572882" lon="-4.9008755149752625"><ele>180.0</ele><time>2026-04-28T15:44:44.999Z</time></trkpt><trkpt lat="34.09726650240177" lon="-4.900998700836038"><ele>180.33333333333334</ele><time>2026-04-28T15:44:45.999Z</time></trkpt><trkpt lat="34.09710567754955" lon="-4.901125371156895"><ele>180.66666666666669</ele><time>2026-04-28T15:44:46.999Z</time></trkpt><trkpt lat="34.09694292628068" lon="-4.901252465400339"><ele>181.0</ele><time>2026-04-28T15:44:47.999Z</time></trkpt><trkpt lat="34.096779350862384" lon="-4.901379880965715"><ele>181.0</ele><time>2026-04-28T15:44:48.999Z</time></trkpt><trkpt lat="34.09661591714929" lon="-4.901506610143069"><ele>181.0</ele><time>2026-04-28T15:44:49.999Z</time></trkpt><trkpt lat="34.09645272248374" lon="-4.9016364256378875"><ele>181.0</ele><time>2026-04-28T15:44:50.999Z</time></trkpt><trkpt lat="34.09629175474977" lon="-4.901766173569342"><ele>181.33333333333334</ele><time>2026-04-28T15:44:51.999Z</time></trkpt><trkpt lat="34.09612958072178" lon="-4.90189456581853"><ele>181.66666666666666</ele><time>2026-04-28T15:44:52.999Z</time></trkpt><trkpt lat="34.09596526607252" lon="-4.902023909901295"><ele>182.0</ele><time>2026-04-28T15:44:53.999Z</time></trkpt><trkpt lat="34.095799779135575" lon="-4.902151819429493"><ele>181.66666666666666</ele><time>2026-04-28T15:44:54.999Z</time></trkpt><trkpt lat="34.09563241732892" lon="-4.902279091220287"><ele>181.33333333333334</ele><time>2026-04-28T15:44:55.999Z</time></trkpt><trkpt lat="34.09546565229124" lon="-4.902409328751159"><ele>181.0</ele><time>2026-04-28T15:44:56.999Z</time></trkpt><trkpt lat="34.09529830309158" lon="-4.902541701027694"><ele>181.33333333333334</ele><time>2026-04-28T15:44:57.999Z</time></trkpt><trkpt lat="34.095130130154075" lon="-4.902676356291677"><ele>181.66666666666666</ele><time>2026-04-28T15:44:58.999Z</time></trkpt><trkpt lat="34.094960832523725" lon="-4.9028112556122885"><ele>182.0</ele><time>2026-04-28T15:44:59.999Z</time></trkpt><trkpt lat="34.0947910913462" lon="-4.902946118778219"><ele>182.0</ele><time>2026-04-28T15:45:00.999Z</time></trkpt><trkpt lat="34.0946231196938" lon="-4.903081070395416"><ele>182.0</ele><time>2026-04-28T15:45:01.999Z</time></trkpt><trkpt lat="34.094454565070905" lon="-4.903212188754782"><ele>182.0</ele><time>2026-04-28T15:45:02.999Z</time></trkpt><trkpt lat="34.09428723791526" lon="-4.903342054865014"><ele>181.66666666666666</ele><time>2026-04-28T15:45:03.999Z</time></trkpt><trkpt lat="34.094120548078" lon="-4.90347234174501"><ele>181.33333333333334</ele><time>2026-04-28T15:45:05Z</time></trkpt><trkpt lat="34.09395369708487" lon="-4.903603535914539"><ele>181.0</ele><time>2026-04-28T15:45:06Z</time></trkpt><trkpt lat="34.09378787811645" lon="-4.903732364323707"><ele>182.0</ele><time>2026-04-28T15:45:07Z</time></trkpt><trkpt lat="34.09362158022825" lon="-4.903861985935759"><ele>183.0</ele><time>2026-04-28T15:45:08Z</time></trkpt><trkpt lat="34.09345448908697" lon="-4.9039907620721115"><ele>184.0</ele><time>2026-04-28T15:45:09Z</time></trkpt><trkpt lat="34.09328848252679" lon="-4.904118836575694"><ele>184.0</ele><time>2026-04-28T15:45:10Z</time></trkpt><trkpt lat="34.09312299662575" lon="-4.904243599290049"><ele>184.0</ele><time>2026-04-28T15:45:11Z</time></trkpt><trkpt lat="34.09296623052334" lon="-4.904374404369635"><ele>184.0</ele><time>2026-04-28T15:45:12Z</time></trkpt><trkpt lat="34.09278530892625" lon="-4.904454761344279"><ele>184.0</ele><time>2026-04-28T15:45:13Z</time></trkpt><trkpt lat="34.09260478005464" lon="-4.904532623193344"><ele>184.0</ele><time>2026-04-28T15:45:14Z</time></trkpt><trkpt lat="34.09242173770122" lon="-4.9045927696102"><ele>184.0</ele><time>2026-04-28T15:45:15Z</time></trkpt><trkpt lat="34.09223615851667" lon="-4.904640297315483"><ele>184.33333333333334</ele><time>2026-04-28T15:45:16Z</time></trkpt><trkpt lat="34.092049392151516" lon="-4.904673622373908"><ele>184.66666666666666</ele><time>2026-04-28T15:45:17Z</time></trkpt><trkpt lat="34.09185902633998" lon="-4.904692366663655"><ele>185.0</ele><time>2026-04-28T15:45:18Z</time></trkpt><trkpt lat="34.091666533839145" lon="-4.90469871845187"><ele>185.0</ele><time>2026-04-28T15:45:19Z</time></trkpt><trkpt lat="34.09147919923301" lon="-4.904705305930512"><ele>185.0</ele><time>2026-04-28T15:45:20Z</time></trkpt><trkpt lat="34.091292185172165" lon="-4.904722655312179"><ele>185.0</ele><time>2026-04-28T15:45:21Z</time></trkpt><trkpt lat="34.09110452329739" lon="-4.90473854845312"><ele>185.0</ele><time>2026-04-28T15:45:22Z</time></trkpt><trkpt lat="34.090916462223454" lon="-4.904751207549677"><ele>185.0</ele><time>2026-04-28T15:45:23Z</time></trkpt><trkpt lat="34.090727241452846" lon="-4.904764904910624"><ele>185.0</ele><time>2026-04-28T15:45:24Z</time></trkpt><trkpt lat="34.09053819901858" lon="-4.904779031846198"><ele>185.66666666666666</ele><time>2026-04-28T15:45:25Z</time></trkpt><trkpt lat="34.09034884474604" lon="-4.904791754315582"><ele>186.33333333333334</ele><time>2026-04-28T15:45:26Z</time></trkpt><trkpt lat="34.090158604809396" lon="-4.904805533520596"><ele>187.0</ele><time>2026-04-28T15:45:27Z</time></trkpt><trkpt lat="34.089969361424295" lon="-4.904824825814125"><ele>188.33333333333334</ele><time>2026-04-28T15:45:28Z</time></trkpt><trkpt lat="34.089779900297444" lon="-4.904849934706753"><ele>189.66666666666666</ele><time>2026-04-28T15:45:29Z</time></trkpt><trkpt lat="34.089590119869094" lon="-4.904883546020053"><ele>191.0</ele><time>2026-04-28T15:45:30Z</time></trkpt><trkpt lat="34.08940312165308" lon="-4.904932302077184"><ele>191.0</ele><time>2026-04-28T15:45:31Z</time></trkpt><trkpt lat="34.08922233119232" lon="-4.90500161189814"><ele>191.0</ele><time>2026-04-28T15:45:32Z</time></trkpt><trkpt lat="34.08904838614389" lon="-4.905087223007438"><ele>191.0</ele><time>2026-04-28T15:45:33Z</time></trkpt><trkpt lat="34.08888292241758" lon="-4.905189481498025"><ele>192.66666666666666</ele><time>2026-04-28T15:45:34Z</time></trkpt><trkpt lat="34.08872655991638" lon="-4.905306335217846"><ele>194.33333333333331</ele><time>2026-04-28T15:45:35Z</time></trkpt><trkpt lat="34.08857298510581" lon="-4.905429189907051"><ele>196.0</ele><time>2026-04-28T15:45:36Z</time></trkpt><trkpt lat="34.08841954087864" lon="-4.905550041004823"><ele>196.0</ele><time>2026-04-28T15:45:37Z</time></trkpt><trkpt lat="34.08826727332696" lon="-4.905672894599883"><ele>196.0</ele><time>2026-04-28T15:45:38Z</time></trkpt><trkpt lat="34.08811433483344" lon="-4.9057972165351185"><ele>196.0</ele><time>2026-04-28T15:45:39Z</time></trkpt><trkpt lat="34.087962429003916" lon="-4.905919787187396"><ele>196.33333333333331</ele><time>2026-04-28T15:45:40Z</time></trkpt><trkpt lat="34.08780982851564" lon="-4.906041214057154"><ele>196.66666666666669</ele><time>2026-04-28T15:45:41Z</time></trkpt><trkpt lat="34.08765692734539" lon="-4.906162551792867"><ele>197.0</ele><time>2026-04-28T15:45:42Z</time></trkpt><trkpt lat="34.08750421502725" lon="-4.9062834796488195"><ele>199.0</ele><time>2026-04-28T15:45:43Z</time></trkpt><trkpt lat="34.08735176680454" lon="-4.906406593925111"><ele>201.0</ele><time>2026-04-28T15:45:44Z</time></trkpt><trkpt lat="34.08720086266276" lon="-4.906535244007199"><ele>203.0</ele><time>2026-04-28T15:45:45Z</time></trkpt><trkpt lat="34.087055285323586" lon="-4.906671867127451"><ele>202.0</ele><time>2026-04-28T15:45:46Z</time></trkpt><trkpt lat="34.08691388961557" lon="-4.9068134415853155"><ele>201.0</ele><time>2026-04-28T15:45:47Z</time></trkpt><trkpt lat="34.086772210273864" lon="-4.906955808828167"><ele>200.0</ele><time>2026-04-28T15:45:48Z</time></trkpt><trkpt lat="34.08663461565555" lon="-4.907103492074355"><ele>201.33333333333334</ele><time>2026-04-28T15:45:49Z</time></trkpt><trkpt lat="34.08649902000526" lon="-4.907254783316891"><ele>202.66666666666669</ele><time>2026-04-28T15:45:50Z</time></trkpt><trkpt lat="34.08636471525459" lon="-4.907404921881508"><ele>204.0</ele><time>2026-04-28T15:45:51Z</time></trkpt><trkpt lat="34.08623227525372" lon="-4.9075551733764495"><ele>203.33333333333331</ele><time>2026-04-28T15:45:52Z</time></trkpt><trkpt lat="34.0860999503577" lon="-4.907704909351348"><ele>202.66666666666666</ele><time>2026-04-28T15:45:53Z</time></trkpt><trkpt lat="34.08596740243254" lon="-4.907854768008163"><ele>202.0</ele><time>2026-04-28T15:45:54Z</time></trkpt><trkpt lat="34.08583619279506" lon="-4.908006081836483"><ele>202.0</ele><time>2026-04-28T15:45:55Z</time></trkpt><trkpt lat="34.08570503940593" lon="-4.908156130414113"><ele>202.0</ele><time>2026-04-28T15:45:56Z</time></trkpt><trkpt lat="34.08557186464948" lon="-4.908308808257989"><ele>202.0</ele><time>2026-04-28T15:45:57Z</time></trkpt><trkpt lat="34.0854374731722" lon="-4.908464245906218"><ele>202.0</ele><time>2026-04-28T15:45:58Z</time></trkpt><trkpt lat="34.08530320246215" lon="-4.90862034508418"><ele>202.0</ele><time>2026-04-28T15:45:59Z</time></trkpt><trkpt lat="34.085167605774636" lon="-4.9087773746901915"><ele>202.0</ele><time>2026-04-28T15:46:00Z</time></trkpt><trkpt lat="34.08503349363005" lon="-4.908933785873815"><ele>203.0</ele><time>2026-04-28T15:46:01Z</time></trkpt><trkpt lat="34.084900164623086" lon="-4.9090904624631"><ele>204.0</ele><time>2026-04-28T15:46:02Z</time></trkpt><trkpt lat="34.084765834579684" lon="-4.909244922758145"><ele>205.0</ele><time>2026-04-28T15:46:03Z</time></trkpt><trkpt lat="34.08463180841903" lon="-4.909397338263995"><ele>205.0</ele><time>2026-04-28T15:46:04Z</time></trkpt><trkpt lat="34.08449827356971" lon="-4.909548927950451"><ele>205.0</ele><time>2026-04-28T15:46:05Z</time></trkpt><trkpt lat="34.08436577781153" lon="-4.909701493512692"><ele>205.0</ele><time>2026-04-28T15:46:06Z</time></trkpt><trkpt lat="34.08423159364867" lon="-4.909852980561776"><ele>205.0</ele><time>2026-04-28T15:46:07Z</time></trkpt><trkpt lat="34.084097053663015" lon="-4.91000578434174"><ele>205.0</ele><time>2026-04-28T15:46:08Z</time></trkpt><trkpt lat="34.08396632838222" lon="-4.910166152874052"><ele>205.0</ele><time>2026-04-28T15:46:09Z</time></trkpt><trkpt lat="34.08384003227744" lon="-4.910333235001458"><ele>205.66666666666666</ele><time>2026-04-28T15:46:10Z</time></trkpt><trkpt lat="34.083717512993616" lon="-4.910506726649116"><ele>206.33333333333331</ele><time>2026-04-28T15:46:11Z</time></trkpt><trkpt lat="34.08359518634719" lon="-4.910683088028954"><ele>207.0</ele><time>2026-04-28T15:46:12Z</time></trkpt><trkpt lat="34.08347763347145" lon="-4.9108640501753325"><ele>206.66666666666669</ele><time>2026-04-28T15:46:13Z</time></trkpt><trkpt lat="34.08336720647301" lon="-4.911050517299919"><ele>206.33333333333334</ele><time>2026-04-28T15:46:14Z</time></trkpt><trkpt lat="34.08325686715485" lon="-4.911236444412336"><ele>206.0</ele><time>2026-04-28T15:46:15Z</time></trkpt><trkpt lat="34.08314628337395" lon="-4.911422604054239"><ele>205.66666666666669</ele><time>2026-04-28T15:46:16Z</time></trkpt><trkpt lat="34.083036551601744" lon="-4.911614989624636"><ele>205.33333333333331</ele><time>2026-04-28T15:46:17Z</time></trkpt><trkpt lat="34.08292507947958" lon="-4.911808884943212"><ele>205.0</ele><time>2026-04-28T15:46:18Z</time></trkpt><trkpt lat="34.08281315001625" lon="-4.912002791386403"><ele>205.0</ele><time>2026-04-28T15:46:19Z</time></trkpt><trkpt lat="34.082699931682164" lon="-4.912193660792413"><ele>205.0</ele><time>2026-04-28T15:46:20Z</time></trkpt><trkpt lat="34.08258364982542" lon="-4.912383441752711"><ele>205.0</ele><time>2026-04-28T15:46:21Z</time></trkpt><trkpt lat="34.082465846177136" lon="-4.912569786588031"><ele>205.66666666666666</ele><time>2026-04-28T15:46:22Z</time></trkpt><trkpt lat="34.082342756525534" lon="-4.912754079604629"><ele>206.33333333333331</ele><time>2026-04-28T15:46:23Z</time></trkpt><trkpt lat="34.082217144857545" lon="-4.912938188009579"><ele>207.0</ele><time>2026-04-28T15:46:24Z</time></trkpt><trkpt lat="34.08209376874179" lon="-4.913124877551542"><ele>207.0</ele><time>2026-04-28T15:46:25Z</time></trkpt><trkpt lat="34.08197184539885" lon="-4.913312860228711"><ele>207.0</ele><time>2026-04-28T15:46:26Z</time></trkpt><trkpt lat="34.08186437520286" lon="-4.9135188100772265"><ele>207.0</ele><time>2026-04-28T15:46:27Z</time></trkpt><trkpt lat="34.08174530644708" lon="-4.913714477513327"><ele>205.66666666666669</ele><time>2026-04-28T15:46:28Z</time></trkpt><trkpt lat="34.08162288896461" lon="-4.913907905481378"><ele>204.33333333333334</ele><time>2026-04-28T15:46:29Z</time></trkpt><trkpt lat="34.081497324884225" lon="-4.9140996717955465"><ele>203.0</ele><time>2026-04-28T15:46:30Z</time></trkpt><trkpt lat="34.081369293755046" lon="-4.914286061231252"><ele>203.0</ele><time>2026-04-28T15:46:31Z</time></trkpt><trkpt lat="34.08123098168465" lon="-4.914452906171679"><ele>203.0</ele><time>2026-04-28T15:46:32Z</time></trkpt><trkpt lat="34.08111235071383" lon="-4.9146282040777285"><ele>203.0</ele><time>2026-04-28T15:46:33Z</time></trkpt><trkpt lat="34.08100433368341" lon="-4.9148083378593945"><ele>203.0</ele><time>2026-04-28T15:46:34Z</time></trkpt><trkpt lat="34.08087085599641" lon="-4.914964138392066"><ele>203.0</ele><time>2026-04-28T15:46:35Z</time></trkpt><trkpt lat="34.08072222588631" lon="-4.915093563818233"><ele>203.0</ele><time>2026-04-28T15:46:36Z</time></trkpt><trkpt lat="34.08058502951613" lon="-4.915241939526543"><ele>200.33333333333334</ele><time>2026-04-28T15:46:37Z</time></trkpt><trkpt lat="34.080419383435974" lon="-4.9153365141009635"><ele>197.66666666666669</ele><time>2026-04-28T15:46:38Z</time></trkpt><trkpt lat="34.08025523365858" lon="-4.915435353017299"><ele>195.0</ele><time>2026-04-28T15:46:39Z</time></trkpt><trkpt lat="34.08009434268098" lon="-4.915547925110699"><ele>196.0</ele><time>2026-04-28T15:46:40Z</time></trkpt><trkpt lat="34.07991147628332" lon="-4.915617053986411"><ele>197.0</ele><time>2026-04-28T15:46:41Z</time></trkpt><trkpt lat="34.07972955654589" lon="-4.915683174609685"><ele>198.0</ele><time>2026-04-28T15:46:42Z</time></trkpt><trkpt lat="34.079546651427535" lon="-4.9157392560446"><ele>198.0</ele><time>2026-04-28T15:46:43Z</time></trkpt><trkpt lat="34.079360717834774" lon="-4.91579873379989"><ele>198.0</ele><time>2026-04-28T15:46:44Z</time></trkpt><trkpt lat="34.07917581918209" lon="-4.9158691754579085"><ele>198.0</ele><time>2026-04-28T15:46:45Z</time></trkpt><trkpt lat="34.07899113123141" lon="-4.915949496576999"><ele>197.0</ele><time>2026-04-28T15:46:46Z</time></trkpt><trkpt lat="34.078803196281754" lon="-4.916020746815858"><ele>196.0</ele><time>2026-04-28T15:46:47Z</time></trkpt><trkpt lat="34.078639105654005" lon="-4.916149882705429"><ele>195.0</ele><time>2026-04-28T15:46:48Z</time></trkpt><trkpt lat="34.07848381990416" lon="-4.916293916195092"><ele>195.0</ele><time>2026-04-28T15:46:49Z</time></trkpt><trkpt lat="34.0783279776507" lon="-4.916438281029097"><ele>195.0</ele><time>2026-04-28T15:46:50Z</time></trkpt><trkpt lat="34.078184551591505" lon="-4.916594214427747"><ele>195.0</ele><time>2026-04-28T15:46:51Z</time></trkpt><trkpt lat="34.0780531249297" lon="-4.916763718885972"><ele>196.33333333333331</ele><time>2026-04-28T15:46:52Z</time></trkpt><trkpt lat="34.0779245320276" lon="-4.9169369717735965"><ele>197.66666666666666</ele><time>2026-04-28T15:46:53Z</time></trkpt><trkpt lat="34.07781447614714" lon="-4.917123979186088"><ele>199.0</ele><time>2026-04-28T15:46:54Z</time></trkpt><trkpt lat="34.07770519022444" lon="-4.9173131118102065"><ele>199.0</ele><time>2026-04-28T15:46:55Z</time></trkpt><trkpt lat="34.07759786928238" lon="-4.917502354915186"><ele>199.0</ele><time>2026-04-28T15:46:56Z</time></trkpt><trkpt lat="34.077488180282394" lon="-4.917690767742986"><ele>199.0</ele><time>2026-04-28T15:46:56.999Z</time></trkpt><trkpt lat="34.07737878668997" lon="-4.917876576619106"><ele>200.33333333333331</ele><time>2026-04-28T15:46:57.999Z</time></trkpt><trkpt lat="34.07727477411806" lon="-4.918063629141855"><ele>201.66666666666669</ele><time>2026-04-28T15:46:58.999Z</time></trkpt><trkpt lat="34.07716705934256" lon="-4.918243220258386"><ele>203.0</ele><time>2026-04-28T15:46:59.999Z</time></trkpt><trkpt lat="34.077055811186085" lon="-4.918414968521741"><ele>199.0</ele><time>2026-04-28T15:47:00.999Z</time></trkpt><trkpt lat="34.07693505831631" lon="-4.918577327814375"><ele>195.0</ele><time>2026-04-28T15:47:01.999Z</time></trkpt><trkpt lat="34.07679127993002" lon="-4.918708992013322"><ele>191.0</ele><time>2026-04-28T15:47:02.999Z</time></trkpt><trkpt lat="34.07667139810538" lon="-4.91886844776605"><ele>190.66666666666666</ele><time>2026-04-28T15:47:03.999Z</time></trkpt><trkpt lat="34.07652756902782" lon="-4.919002357976322"><ele>190.33333333333334</ele><time>2026-04-28T15:47:04.999Z</time></trkpt><trkpt lat="34.07637540916881" lon="-4.91912399377889"><ele>190.0</ele><time>2026-04-28T15:47:05.999Z</time></trkpt><trkpt lat="34.076219114855235" lon="-4.919234776786481"><ele>190.0</ele><time>2026-04-28T15:47:06.999Z</time></trkpt><trkpt lat="34.07605600514653" lon="-4.919334573684969"><ele>190.0</ele><time>2026-04-28T15:47:07.999Z</time></trkpt><trkpt lat="34.07588767366386" lon="-4.919429223504293"><ele>190.0</ele><time>2026-04-28T15:47:08.999Z</time></trkpt><trkpt lat="34.075716610755556" lon="-4.919522150079975"><ele>191.0</ele><time>2026-04-28T15:47:09.999Z</time></trkpt><trkpt lat="34.07554174217287" lon="-4.919615441657853"><ele>192.0</ele><time>2026-04-28T15:47:11Z</time></trkpt><trkpt lat="34.07536422742746" lon="-4.9197035659280886"><ele>193.0</ele><time>2026-04-28T15:47:12Z</time></trkpt><trkpt lat="34.07518234737694" lon="-4.919788794723169"><ele>193.0</ele><time>2026-04-28T15:47:13Z</time></trkpt><trkpt lat="34.07499965246577" lon="-4.919871522593601"><ele>193.0</ele><time>2026-04-28T15:47:14Z</time></trkpt><trkpt lat="34.07481338917044" lon="-4.919948694825326"><ele>193.0</ele><time>2026-04-28T15:47:15Z</time></trkpt><trkpt lat="34.07461953635569" lon="-4.920003052436722"><ele>192.33333333333331</ele><time>2026-04-28T15:47:16Z</time></trkpt><trkpt lat="34.074428746308286" lon="-4.92007311734744"><ele>191.66666666666666</ele><time>2026-04-28T15:47:17Z</time></trkpt><trkpt lat="34.07423239987806" lon="-4.920135389351233"><ele>191.0</ele><time>2026-04-28T15:47:18Z</time></trkpt><trkpt lat="34.0740370908652" lon="-4.920201663809284"><ele>191.0</ele><time>2026-04-28T15:47:19Z</time></trkpt><trkpt lat="34.07384323369762" lon="-4.920261240310667"><ele>191.0</ele><time>2026-04-28T15:47:20Z</time></trkpt><trkpt lat="34.073651223975624" lon="-4.9203191826132"><ele>191.0</ele><time>2026-04-28T15:47:21Z</time></trkpt><trkpt lat="34.0734684557988" lon="-4.920398066225236"><ele>191.0</ele><time>2026-04-28T15:47:22Z</time></trkpt><trkpt lat="34.07328560936011" lon="-4.920461621682086"><ele>191.0</ele><time>2026-04-28T15:47:23Z</time></trkpt><trkpt lat="34.07309848341035" lon="-4.92049621551268"><ele>191.0</ele><time>2026-04-28T15:47:24Z</time></trkpt><trkpt lat="34.07291594032111" lon="-4.92054630067187"><ele>191.66666666666666</ele><time>2026-04-28T15:47:25Z</time></trkpt><trkpt lat="34.07273258868793" lon="-4.920578314730834"><ele>192.33333333333331</ele><time>2026-04-28T15:47:26Z</time></trkpt><trkpt lat="34.072549305070346" lon="-4.920586643591883"><ele>193.0</ele><time>2026-04-28T15:47:27Z</time></trkpt><trkpt lat="34.072371036354966" lon="-4.920570687818038"><ele>193.66666666666666</ele><time>2026-04-28T15:47:28Z</time></trkpt><trkpt lat="34.07219934117365" lon="-4.920533815655815"><ele>194.33333333333331</ele><time>2026-04-28T15:47:29Z</time></trkpt><trkpt lat="34.072036949824366" lon="-4.920472444966942"><ele>195.0</ele><time>2026-04-28T15:47:30Z</time></trkpt><trkpt lat="34.07189236843079" lon="-4.920393312225705"><ele>195.0</ele><time>2026-04-28T15:47:31Z</time></trkpt><trkpt lat="34.07175275271023" lon="-4.920300451011214"><ele>195.0</ele><time>2026-04-28T15:47:32Z</time></trkpt><trkpt lat="34.07162087679347" lon="-4.920194281372614"><ele>195.0</ele><time>2026-04-28T15:47:33Z</time></trkpt><trkpt lat="34.0715011194536" lon="-4.920068245026672"><ele>194.66666666666669</ele><time>2026-04-28T15:47:34Z</time></trkpt><trkpt lat="34.071389013827" lon="-4.919936424917372"><ele>194.33333333333334</ele><time>2026-04-28T15:47:35Z</time></trkpt><trkpt lat="34.07128386231725" lon="-4.919801865672387"><ele>194.0</ele><time>2026-04-28T15:47:36Z</time></trkpt><trkpt lat="34.071196538706054" lon="-4.919664073884669"><ele>194.0</ele><time>2026-04-28T15:47:37Z</time></trkpt><trkpt lat="34.07111702022876" lon="-4.919527806322341"><ele>194.0</ele><time>2026-04-28T15:47:38Z</time></trkpt><trkpt lat="34.07104171893329" lon="-4.919392798614974"><ele>194.0</ele><time>2026-04-28T15:47:39Z</time></trkpt><trkpt lat="34.07096723414768" lon="-4.919255708042296"><ele>194.0</ele><time>2026-04-28T15:47:40Z</time></trkpt><trkpt lat="34.07089235353028" lon="-4.919117922563776"><ele>193.6</ele><time>2026-04-28T15:47:41Z</time></trkpt><trkpt lat="34.07081766660954" lon="-4.918986471228515"><ele>193.2</ele><time>2026-04-28T15:47:42Z</time></trkpt><trkpt lat="34.07074631884111" lon="-4.91886021052624"><ele>192.79999999999998</ele><time>2026-04-28T15:47:43Z</time></trkpt><trkpt lat="34.07068812084284" lon="-4.918751838782005"><ele>192.39999999999998</ele><time>2026-04-28T15:47:44Z</time></trkpt><trkpt lat="34.07064441347884" lon="-4.918683241869493"><ele>192.0</ele><time>2026-04-28T15:47:45Z</time></trkpt><trkpt lat="34.07057033695993" lon="-4.918612484591349"><ele>192.0</ele><time>2026-04-28T15:47:47Z</time></trkpt><trkpt lat="34.07048143951765" lon="-4.918495193721651"><ele>192.0</ele><time>2026-04-28T15:47:49Z</time></trkpt><trkpt lat="34.07035606162944" lon="-4.918483688686899"><ele>192.0</ele><time>2026-04-28T15:47:51Z</time></trkpt><trkpt lat="34.070288908543795" lon="-4.918507933186818"><ele>192.0</ele><time>2026-04-28T15:47:52Z</time></trkpt><trkpt lat="34.070221607993034" lon="-4.918531434279436"><ele>192.0</ele><time>2026-04-28T15:47:53Z</time></trkpt><trkpt lat="34.07014781320779" lon="-4.918572111462746"><ele>192.0</ele><time>2026-04-28T15:47:54Z</time></trkpt><trkpt lat="34.070071953968956" lon="-4.918606574139005"><ele>192.0</ele><time>2026-04-28T15:47:55Z</time></trkpt><trkpt lat="34.07001725459248" lon="-4.9186813632887265"><ele>192.0</ele><time>2026-04-28T15:47:56Z</time></trkpt><trkpt lat="34.069937664840104" lon="-4.918767919358418"><ele>192.0</ele><time>2026-04-28T15:47:57Z</time></trkpt><trkpt lat="34.069855716685666" lon="-4.918857040259737"><ele>192.0</ele><time>2026-04-28T15:47:58Z</time></trkpt><trkpt lat="34.069766424662475" lon="-4.91894855875839"><ele>191.5</ele><time>2026-04-28T15:47:59Z</time></trkpt><trkpt lat="34.06967629125923" lon="-4.919061162711728"><ele>191.0</ele><time>2026-04-28T15:48:00Z</time></trkpt><trkpt lat="34.069584427277476" lon="-4.91916634318033"><ele>190.5</ele><time>2026-04-28T15:48:01Z</time></trkpt><trkpt lat="34.06948867092547" lon="-4.919271137006639"><ele>190.0</ele><time>2026-04-28T15:48:02Z</time></trkpt><trkpt lat="34.06939096890924" lon="-4.919380638583416"><ele>189.5</ele><time>2026-04-28T15:48:03Z</time></trkpt><trkpt lat="34.069292732579406" lon="-4.919495759649316"><ele>189.0</ele><time>2026-04-28T15:48:04Z</time></trkpt><trkpt lat="34.06919444734636" lon="-4.919615902139889"><ele>188.5</ele><time>2026-04-28T15:48:05Z</time></trkpt><trkpt lat="34.06909229620643" lon="-4.9197332553768796"><ele>188.0</ele><time>2026-04-28T15:48:06Z</time></trkpt><trkpt lat="34.068990053134954" lon="-4.9198441576139205"><ele>189.5</ele><time>2026-04-28T15:48:07Z</time></trkpt><trkpt lat="34.06889242695448" lon="-4.919952942123098"><ele>191.0</ele><time>2026-04-28T15:48:08Z</time></trkpt><trkpt lat="34.06879690780217" lon="-4.920057736280791"><ele>192.5</ele><time>2026-04-28T15:48:09Z</time></trkpt><trkpt lat="34.068698001515145" lon="-4.920165607855117"><ele>194.0</ele><time>2026-04-28T15:48:10Z</time></trkpt><trkpt lat="34.068600597388034" lon="-4.920283293087473"><ele>194.5</ele><time>2026-04-28T15:48:11Z</time></trkpt><trkpt lat="34.068508056422125" lon="-4.920383400789277"><ele>195.0</ele><time>2026-04-28T15:48:12Z</time></trkpt><trkpt lat="34.0684252924698" lon="-4.9204929916079445"><ele>195.5</ele><time>2026-04-28T15:48:13Z</time></trkpt><trkpt lat="34.06834662258357" lon="-4.92058351277625"><ele>196.0</ele><time>2026-04-28T15:48:14Z</time></trkpt><trkpt lat="34.0682710444247" lon="-4.920670475157253"><ele>196.5</ele><time>2026-04-28T15:48:15Z</time></trkpt><trkpt lat="34.06812431695743" lon="-4.9206603702703955"><ele>197.0</ele><time>2026-04-28T15:48:16Z</time></trkpt><trkpt lat="34.06801004338425" lon="-4.920702234199857"><ele>197.5</ele><time>2026-04-28T15:48:17Z</time></trkpt><trkpt lat="34.067889684193254" lon="-4.9207413270727685"><ele>198.0</ele><time>2026-04-28T15:48:18Z</time></trkpt><trkpt lat="34.06775636987758" lon="-4.920779101855918"><ele>198.0</ele><time>2026-04-28T15:48:19Z</time></trkpt><trkpt lat="34.067612190282674" lon="-4.920820062132332"><ele>198.0</ele><time>2026-04-28T15:48:20Z</time></trkpt><trkpt lat="34.06747248350198" lon="-4.9208645996989695"><ele>198.0</ele><time>2026-04-28T15:48:21Z</time></trkpt><trkpt lat="34.0673304703722" lon="-4.920905956502886"><ele>198.0</ele><time>2026-04-28T15:48:22Z</time></trkpt><trkpt lat="34.06717982671138" lon="-4.920966337818551"><ele>200.66666666666669</ele><time>2026-04-28T15:48:23Z</time></trkpt><trkpt lat="34.06705644530704" lon="-4.921042600915255"><ele>203.33333333333334</ele><time>2026-04-28T15:48:24Z</time></trkpt><trkpt lat="34.0669042275201" lon="-4.921126244165512"><ele>206.0</ele><time>2026-04-28T15:48:25Z</time></trkpt><trkpt lat="34.06673984401036" lon="-4.921220348556978"><ele>203.33333333333334</ele><time>2026-04-28T15:48:26Z</time></trkpt><trkpt lat="34.066575307506525" lon="-4.921315474687019"><ele>200.66666666666669</ele><time>2026-04-28T15:48:27Z</time></trkpt><trkpt lat="34.066416982784986" lon="-4.9214089403661445"><ele>198.0</ele><time>2026-04-28T15:48:28Z</time></trkpt><trkpt lat="34.06624726701472" lon="-4.921492323988403"><ele>198.0</ele><time>2026-04-28T15:48:29Z</time></trkpt><trkpt lat="34.06607749186107" lon="-4.9215955196079575"><ele>198.0</ele><time>2026-04-28T15:48:30Z</time></trkpt><trkpt lat="34.06590697027755" lon="-4.921698108399987"><ele>198.0</ele><time>2026-04-28T15:48:31Z</time></trkpt><trkpt lat="34.065735606463505" lon="-4.921802447399939"><ele>200.33333333333331</ele><time>2026-04-28T15:48:32Z</time></trkpt><trkpt lat="34.06555927422567" lon="-4.921907415598356"><ele>202.66666666666666</ele><time>2026-04-28T15:48:33Z</time></trkpt><trkpt lat="34.06538277219041" lon="-4.922016025680535"><ele>205.0</ele><time>2026-04-28T15:48:34Z</time></trkpt><trkpt lat="34.06521437744177" lon="-4.922139630572155"><ele>205.0</ele><time>2026-04-28T15:48:35Z</time></trkpt><trkpt lat="34.06503577474745" lon="-4.922243618006072"><ele>205.0</ele><time>2026-04-28T15:48:36Z</time></trkpt><trkpt lat="34.06486057966045" lon="-4.922345520436323"><ele>205.0</ele><time>2026-04-28T15:48:37Z</time></trkpt><trkpt lat="34.0646743351472" lon="-4.922435747524697"><ele>203.66666666666666</ele><time>2026-04-28T15:48:38Z</time></trkpt><trkpt lat="34.06449417518289" lon="-4.922518117348234"><ele>202.33333333333331</ele><time>2026-04-28T15:48:39Z</time></trkpt><trkpt lat="34.064306482180605" lon="-4.922586979350578"><ele>201.0</ele><time>2026-04-28T15:48:40Z</time></trkpt><trkpt lat="34.064121565309144" lon="-4.92265646624272"><ele>206.66666666666669</ele><time>2026-04-28T15:48:41Z</time></trkpt><trkpt lat="34.06393815431268" lon="-4.922719761190214"><ele>212.33333333333334</ele><time>2026-04-28T15:48:42Z</time></trkpt><trkpt lat="34.0637434101909" lon="-4.922765243669948"><ele>218.0</ele><time>2026-04-28T15:48:43Z</time></trkpt><trkpt lat="34.06355557705523" lon="-4.922831323178589"><ele>218.0</ele><time>2026-04-28T15:48:44Z</time></trkpt><trkpt lat="34.06337034155958" lon="-4.922898580206665"><ele>218.0</ele><time>2026-04-28T15:48:45Z</time></trkpt><trkpt lat="34.063184805074" lon="-4.922961072004245"><ele>218.0</ele><time>2026-04-28T15:48:46Z</time></trkpt><trkpt lat="34.06300013956931" lon="-4.923027475136802"><ele>217.33333333333334</ele><time>2026-04-28T15:48:47Z</time></trkpt><trkpt lat="34.062815103104896" lon="-4.923086297269207"><ele>216.66666666666669</ele><time>2026-04-28T15:48:48Z</time></trkpt><trkpt lat="34.06263204135226" lon="-4.923143848941769"><ele>216.0</ele><time>2026-04-28T15:48:49Z</time></trkpt><trkpt lat="34.06245620494782" lon="-4.923200290146485"><ele>215.66666666666669</ele><time>2026-04-28T15:48:50Z</time></trkpt><trkpt lat="34.06228561796284" lon="-4.923255075970873"><ele>215.33333333333334</ele><time>2026-04-28T15:48:51Z</time></trkpt><trkpt lat="34.06211407066355" lon="-4.923306830570198"><ele>215.0</ele><time>2026-04-28T15:48:52Z</time></trkpt><trkpt lat="34.061950671254124" lon="-4.92339203872648"><ele>216.0</ele><time>2026-04-28T15:48:53Z</time></trkpt><trkpt lat="34.061771519221594" lon="-4.923452356218723"><ele>217.0</ele><time>2026-04-28T15:48:54Z</time></trkpt><trkpt lat="34.0616162522774" lon="-4.923585697973"><ele>218.0</ele><time>2026-04-28T15:48:55Z</time></trkpt><trkpt lat="34.06144185103218" lon="-4.923684056622029"><ele>218.0</ele><time>2026-04-28T15:48:56Z</time></trkpt><trkpt lat="34.06131720408506" lon="-4.9238586224522605"><ele>218.0</ele><time>2026-04-28T15:48:57Z</time></trkpt><trkpt lat="34.061188556017555" lon="-4.924015140784366"><ele>218.0</ele><time>2026-04-28T15:48:58Z</time></trkpt><trkpt lat="34.06106433743103" lon="-4.924174709938682"><ele>220.66666666666669</ele><time>2026-04-28T15:48:59Z</time></trkpt><trkpt lat="34.060985097126526" lon="-4.924354278946176"><ele>223.33333333333331</ele><time>2026-04-28T15:49:00Z</time></trkpt><trkpt lat="34.06090830075993" lon="-4.9245460332987125"><ele>226.0</ele><time>2026-04-28T15:49:01Z</time></trkpt><trkpt lat="34.06085023881079" lon="-4.924745463877038"><ele>226.0</ele><time>2026-04-28T15:49:02Z</time></trkpt><trkpt lat="34.06079441512025" lon="-4.924952527737293"><ele>226.0</ele><time>2026-04-28T15:49:02.999Z</time></trkpt><trkpt lat="34.06075740738957" lon="-4.925167303006749"><ele>226.0</ele><time>2026-04-28T15:49:03.999Z</time></trkpt><trkpt lat="34.06074530405535" lon="-4.925396765705795"><ele>227.33333333333331</ele><time>2026-04-28T15:49:04.999Z</time></trkpt><trkpt lat="34.060760910430325" lon="-4.925617223745625"><ele>228.66666666666669</ele><time>2026-04-28T15:49:05.999Z</time></trkpt><trkpt lat="34.06077587036267" lon="-4.925850128981611"><ele>230.0</ele><time>2026-04-28T15:49:06.999Z</time></trkpt><trkpt lat="34.060794988351454" lon="-4.92609117508904"><ele>230.33333333333334</ele><time>2026-04-28T15:49:07.999Z</time></trkpt><trkpt lat="34.060813035581816" lon="-4.926338910527072"><ele>230.66666666666669</ele><time>2026-04-28T15:49:08.999Z</time></trkpt><trkpt lat="34.06083245887373" lon="-4.9265901097934135"><ele>231.0</ele><time>2026-04-28T15:49:09.999Z</time></trkpt><trkpt lat="34.060852069047" lon="-4.926844953002247"><ele>231.0</ele><time>2026-04-28T15:49:10.999Z</time></trkpt><trkpt lat="34.060871389809286" lon="-4.927100990379022"><ele>231.0</ele><time>2026-04-28T15:49:11.999Z</time></trkpt><trkpt lat="34.06088979119395" lon="-4.9273542034985205"><ele>231.0</ele><time>2026-04-28T15:49:12.999Z</time></trkpt><trkpt lat="34.06090940657447" lon="-4.927608948436964"><ele>231.0</ele><time>2026-04-28T15:49:13.999Z</time></trkpt><trkpt lat="34.060928595164725" lon="-4.927860453974171"><ele>231.0</ele><time>2026-04-28T15:49:14.999Z</time></trkpt><trkpt lat="34.06094776207807" lon="-4.928111540510361"><ele>231.0</ele><time>2026-04-28T15:49:15.999Z</time></trkpt><trkpt lat="34.06096694357001" lon="-4.928362818109073"><ele>231.0</ele><time>2026-04-28T15:49:17Z</time></trkpt><trkpt lat="34.06098616630801" lon="-4.928612872431577"><ele>231.0</ele><time>2026-04-28T15:49:18Z</time></trkpt><trkpt lat="34.060989432502836" lon="-4.928865410953219"><ele>231.0</ele><time>2026-04-28T15:49:19Z</time></trkpt><trkpt lat="34.06101330679661" lon="-4.92911580026934"><ele>230.66666666666669</ele><time>2026-04-28T15:49:20Z</time></trkpt><trkpt lat="34.06103312768487" lon="-4.929363446339036"><ele>230.33333333333334</ele><time>2026-04-28T15:49:21Z</time></trkpt><trkpt lat="34.06105334699671" lon="-4.929611942618877"><ele>230.0</ele><time>2026-04-28T15:49:22Z</time></trkpt><trkpt lat="34.06107532388663" lon="-4.929859635504137"><ele>231.0</ele><time>2026-04-28T15:49:23Z</time></trkpt><trkpt lat="34.061091834452576" lon="-4.930106259806139"><ele>232.0</ele><time>2026-04-28T15:49:24Z</time></trkpt><trkpt lat="34.06110791898877" lon="-4.93035013966391"><ele>233.0</ele><time>2026-04-28T15:49:25Z</time></trkpt><trkpt lat="34.061126225472435" lon="-4.930594282772802"><ele>233.0</ele><time>2026-04-28T15:49:26Z</time></trkpt><trkpt lat="34.06114983552505" lon="-4.930835319490328"><ele>233.0</ele><time>2026-04-28T15:49:27Z</time></trkpt><trkpt lat="34.061167348347496" lon="-4.931075084569614"><ele>233.0</ele><time>2026-04-28T15:49:28Z</time></trkpt><trkpt lat="34.06118188354506" lon="-4.931314756986898"><ele>233.0</ele><time>2026-04-28T15:49:29Z</time></trkpt><trkpt lat="34.0612063317666" lon="-4.931546381227517"><ele>233.0</ele><time>2026-04-28T15:49:30Z</time></trkpt><trkpt lat="34.06127046990092" lon="-4.93175313815819"><ele>233.0</ele><time>2026-04-28T15:49:31Z</time></trkpt><trkpt lat="34.06132573472523" lon="-4.93196757845001"><ele>233.66666666666669</ele><time>2026-04-28T15:49:32Z</time></trkpt><trkpt lat="34.06137891207629" lon="-4.932192298304511"><ele>234.33333333333331</ele><time>2026-04-28T15:49:33Z</time></trkpt><trkpt lat="34.06146687678825" lon="-4.93240167506442"><ele>235.0</ele><time>2026-04-28T15:49:34Z</time></trkpt><trkpt lat="34.06156321049499" lon="-4.932600437528602"><ele>235.0</ele><time>2026-04-28T15:49:35Z</time></trkpt><trkpt lat="34.061652727864285" lon="-4.932803617548747"><ele>235.0</ele><time>2026-04-28T15:49:36Z</time></trkpt><trkpt lat="34.061729327407555" lon="-4.933012622795208"><ele>235.0</ele><time>2026-04-28T15:49:37Z</time></trkpt><trkpt lat="34.061789472840076" lon="-4.933231595631914"><ele>235.33333333333331</ele><time>2026-04-28T15:49:38Z</time></trkpt><trkpt lat="34.06183570145252" lon="-4.93345285780303"><ele>235.66666666666669</ele><time>2026-04-28T15:49:39Z</time></trkpt><trkpt lat="34.061871503504975" lon="-4.933675864921377"><ele>236.0</ele><time>2026-04-28T15:49:40Z</time></trkpt><trkpt lat="34.061897204465595" lon="-4.933901683423768"><ele>236.0</ele><time>2026-04-28T15:49:41Z</time></trkpt><trkpt lat="34.061907713633246" lon="-4.934127229883101"><ele>236.0</ele><time>2026-04-28T15:49:42Z</time></trkpt><trkpt lat="34.06190551694928" lon="-4.934348770192727"><ele>236.0</ele><time>2026-04-28T15:49:43Z</time></trkpt><trkpt lat="34.06188837238627" lon="-4.934563430114135"><ele>236.33333333333334</ele><time>2026-04-28T15:49:44Z</time></trkpt><trkpt lat="34.06186601246393" lon="-4.934758460926819"><ele>236.66666666666669</ele><time>2026-04-28T15:49:45Z</time></trkpt><trkpt lat="34.06184662296152" lon="-4.9349375975855025"><ele>237.0</ele><time>2026-04-28T15:49:46Z</time></trkpt><trkpt lat="34.06182728186638" lon="-4.935107788544181"><ele>237.25</ele><time>2026-04-28T15:49:47Z</time></trkpt><trkpt lat="34.0618073581722" lon="-4.935260222403021"><ele>237.5</ele><time>2026-04-28T15:49:48Z</time></trkpt><trkpt lat="34.061790027853725" lon="-4.935400185715532"><ele>237.75</ele><time>2026-04-28T15:49:49Z</time></trkpt><trkpt lat="34.061773750792845" lon="-4.935527098384566"><ele>238.0</ele><time>2026-04-28T15:49:50Z</time></trkpt><trkpt lat="34.06176099345593" lon="-4.935646016856121"><ele>238.0</ele><time>2026-04-28T15:49:51Z</time></trkpt><trkpt lat="34.06174774867769" lon="-4.93577147439077"><ele>238.0</ele><time>2026-04-28T15:49:52Z</time></trkpt><trkpt lat="34.06173098197268" lon="-4.935904707710933"><ele>238.0</ele><time>2026-04-28T15:49:53Z</time></trkpt><trkpt lat="34.061715853236166" lon="-4.93603489512365"><ele>238.0</ele><time>2026-04-28T15:49:54Z</time></trkpt><trkpt lat="34.06170113221472" lon="-4.936146201181018"><ele>238.0</ele><time>2026-04-28T15:49:55Z</time></trkpt><trkpt lat="34.06169043859558" lon="-4.9362421691397325"><ele>238.66666666666666</ele><time>2026-04-28T15:49:56Z</time></trkpt><trkpt lat="34.061682766713325" lon="-4.936326342840329"><ele>239.33333333333331</ele><time>2026-04-28T15:49:57Z</time></trkpt><trkpt lat="34.06167218763246" lon="-4.936406160136684"><ele>240.0</ele><time>2026-04-28T15:49:58Z</time></trkpt><trkpt lat="34.06165814209539" lon="-4.9364910993210085"><ele>240.66666666666669</ele><time>2026-04-28T15:49:59Z</time></trkpt><trkpt lat="34.0616433127686" lon="-4.936586540457038"><ele>241.33333333333334</ele><time>2026-04-28T15:50:00Z</time></trkpt><trkpt lat="34.06163449901984" lon="-4.936694548939478"><ele>242.0</ele><time>2026-04-28T15:50:01Z</time></trkpt><trkpt lat="34.06162619503489" lon="-4.936810568469629"><ele>242.6</ele><time>2026-04-28T15:50:02Z</time></trkpt><trkpt lat="34.061618884251274" lon="-4.936933180737486"><ele>243.2</ele><time>2026-04-28T15:50:03Z</time></trkpt><trkpt lat="34.06160640924661" lon="-4.937061539842134"><ele>243.8</ele><time>2026-04-28T15:50:04Z</time></trkpt><trkpt lat="34.06158734573124" lon="-4.9371971095888005"><ele>244.4</ele><time>2026-04-28T15:50:05Z</time></trkpt><trkpt lat="34.061566566578705" lon="-4.937332688879234"><ele>245.0</ele><time>2026-04-28T15:50:06Z</time></trkpt><trkpt lat="34.061549087658754" lon="-4.937470245016735"><ele>247.0</ele><time>2026-04-28T15:50:07Z</time></trkpt><trkpt lat="34.06152974176328" lon="-4.937608802451226"><ele>249.0</ele><time>2026-04-28T15:50:08Z</time></trkpt><trkpt lat="34.06150826350883" lon="-4.937747040571744"><ele>251.0</ele><time>2026-04-28T15:50:09Z</time></trkpt><trkpt lat="34.06148495088944" lon="-4.937883635072564"><ele>253.0</ele><time>2026-04-28T15:50:10Z</time></trkpt><trkpt lat="34.06146132558915" lon="-4.9380199377488285"><ele>253.0</ele><time>2026-04-28T15:50:11Z</time></trkpt><trkpt lat="34.06143454418006" lon="-4.938154486444022"><ele>253.0</ele><time>2026-04-28T15:50:12Z</time></trkpt><trkpt lat="34.061407900341685" lon="-4.938289563811243"><ele>253.0</ele><time>2026-04-28T15:50:13Z</time></trkpt><trkpt lat="34.061381963548854" lon="-4.938424211114799"><ele>253.0</ele><time>2026-04-28T15:50:14Z</time></trkpt><trkpt lat="34.06135632473304" lon="-4.938560247824178"><ele>254.0</ele><time>2026-04-28T15:50:15Z</time></trkpt><trkpt lat="34.06133349316617" lon="-4.938701276372842"><ele>255.0</ele><time>2026-04-28T15:50:16Z</time></trkpt><trkpt lat="34.061313950876745" lon="-4.938848273531617"><ele>256.0</ele><time>2026-04-28T15:50:17Z</time></trkpt><trkpt lat="34.061292964434244" lon="-4.938995867096131"><ele>257.0</ele><time>2026-04-28T15:50:18Z</time></trkpt><trkpt lat="34.061264891845745" lon="-4.939147818534297"><ele>257.5</ele><time>2026-04-28T15:50:19Z</time></trkpt><trkpt lat="34.06123538238313" lon="-4.939305950879143"><ele>258.0</ele><time>2026-04-28T15:50:20Z</time></trkpt><trkpt lat="34.06120879467976" lon="-4.939466594263187"><ele>258.5</ele><time>2026-04-28T15:50:21Z</time></trkpt><trkpt lat="34.061184255141946" lon="-4.939626305727838"><ele>259.0</ele><time>2026-04-28T15:50:22Z</time></trkpt><trkpt lat="34.061160293356906" lon="-4.939778088568055"><ele>259.0</ele><time>2026-04-28T15:50:23Z</time></trkpt><trkpt lat="34.061136223483956" lon="-4.939913301832714"><ele>259.0</ele><time>2026-04-28T15:50:24Z</time></trkpt><trkpt lat="34.06112043700406" lon="-4.940038555844426"><ele>259.0</ele><time>2026-04-28T15:50:25Z</time></trkpt><trkpt lat="34.061104749582796" lon="-4.940157637723985"><ele>259.0</ele><time>2026-04-28T15:50:26Z</time></trkpt><trkpt lat="34.06108702382959" lon="-4.94027296597686"><ele>259.0</ele><time>2026-04-28T15:50:27Z</time></trkpt><trkpt lat="34.06106642308315" lon="-4.9403932577505"><ele>259.0</ele><time>2026-04-28T15:50:28Z</time></trkpt><trkpt lat="34.061046689388114" lon="-4.940516147864642"><ele>259.0</ele><time>2026-04-28T15:50:29Z</time></trkpt><trkpt lat="34.06102859537474" lon="-4.940640615588618"><ele>259.0</ele><time>2026-04-28T15:50:30Z</time></trkpt><trkpt lat="34.06101157585247" lon="-4.940770368554365"><ele>259.0</ele><time>2026-04-28T15:50:31Z</time></trkpt><trkpt lat="34.060994518147844" lon="-4.940902976009141"><ele>259.0</ele><time>2026-04-28T15:50:32Z</time></trkpt><trkpt lat="34.06097446313057" lon="-4.941036221082732"><ele>259.0</ele><time>2026-04-28T15:50:33Z</time></trkpt><trkpt lat="34.06095180691751" lon="-4.941169788185528"><ele>259.0</ele><time>2026-04-28T15:50:34Z</time></trkpt><trkpt lat="34.060931408731534" lon="-4.9413024729058375"><ele>259.0</ele><time>2026-04-28T15:50:35Z</time></trkpt><trkpt lat="34.060911565397355" lon="-4.9414380944737974"><ele>259.0</ele><time>2026-04-28T15:50:36Z</time></trkpt><trkpt lat="34.06089525023219" lon="-4.941576953036119"><ele>259.0</ele><time>2026-04-28T15:50:37Z</time></trkpt><trkpt lat="34.0608769075048" lon="-4.941714813937099"><ele>259.0</ele><time>2026-04-28T15:50:38Z</time></trkpt><trkpt lat="34.06085656982286" lon="-4.941854828665752"><ele>259.0</ele><time>2026-04-28T15:50:39Z</time></trkpt><trkpt lat="34.06083522815159" lon="-4.941996186782695"><ele>259.0</ele><time>2026-04-28T15:50:40Z</time></trkpt><trkpt lat="34.06081213535885" lon="-4.94213677406812"><ele>259.59999999999997</ele><time>2026-04-28T15:50:41Z</time></trkpt><trkpt lat="34.06079135395418" lon="-4.942278219521371"><ele>260.2</ele><time>2026-04-28T15:50:42Z</time></trkpt><trkpt lat="34.060771472179816" lon="-4.942419392208214"><ele>260.79999999999995</ele><time>2026-04-28T15:50:43Z</time></trkpt><trkpt lat="34.06075186881893" lon="-4.942549496360426"><ele>261.4</ele><time>2026-04-28T15:50:44Z</time></trkpt><trkpt lat="34.06073514580406" lon="-4.942660992175089"><ele>262.0</ele><time>2026-04-28T15:50:45Z</time></trkpt><trkpt lat="34.06071873631905" lon="-4.942759479417691"><ele>265.0</ele><time>2026-04-28T15:50:46Z</time></trkpt><trkpt lat="34.0607056222378" lon="-4.942842953845569"><ele>268.0</ele><time>2026-04-28T15:50:47Z</time></trkpt><trkpt lat="34.06068492944953" lon="-4.942977949347519"><ele>271.0</ele><time>2026-04-28T15:50:49Z</time></trkpt><trkpt lat="34.06066772195006" lon="-4.943104896375912"><ele>274.0</ele><time>2026-04-28T15:50:51Z</time></trkpt><trkpt lat="34.060651514093706" lon="-4.943209047380907"><ele>277.0</ele><time>2026-04-28T15:50:53Z</time></trkpt><trkpt lat="34.06063345709703" lon="-4.943297022842788"><ele>277.66666666666663</ele><time>2026-04-28T15:50:55Z</time></trkpt><trkpt lat="34.06062535552437" lon="-4.943386135641788"><ele>278.3333333333333</ele><time>2026-04-28T15:50:58.999Z</time></trkpt><trkpt lat="34.060623483064866" lon="-4.943470985363675"><ele>279.0</ele><time>2026-04-28T15:51:00.999Z</time></trkpt><trkpt lat="34.0605986019692" lon="-4.943572992723911"><ele>279.6666666666667</ele><time>2026-04-28T15:51:02.999Z</time></trkpt><trkpt lat="34.060581430641726" lon="-4.943688991524165"><ele>280.33333333333337</ele><time>2026-04-28T15:51:04.999Z</time></trkpt><trkpt lat="34.060554765036684" lon="-4.943797452799947"><ele>281.0</ele><time>2026-04-28T15:51:06.999Z</time></trkpt><trkpt lat="34.06053276255055" lon="-4.943902268276916"><ele>281.0</ele><time>2026-04-28T15:51:08.999Z</time></trkpt><trkpt lat="34.06051789450998" lon="-4.943998615594073"><ele>281.0</ele><time>2026-04-28T15:51:11.999Z</time></trkpt><trkpt lat="34.06049372952346" lon="-4.944088606011279"><ele>281.0</ele><time>2026-04-28T15:51:14.999Z</time></trkpt><trkpt lat="34.06048762828885" lon="-4.94417755704605"><ele>281.0</ele><time>2026-04-28T15:51:16.999Z</time></trkpt><trkpt lat="34.06046814367657" lon="-4.944260505418505"><ele>281.0</ele><time>2026-04-28T15:51:18.999Z</time></trkpt><trkpt lat="34.06044218413919" lon="-4.944350565548098"><ele>281.0</ele><time>2026-04-28T15:51:21.999Z</time></trkpt><trkpt lat="34.060417066120664" lon="-4.944448397165503"><ele>281.1666666666667</ele><time>2026-04-28T15:51:26Z</time></trkpt><trkpt lat="34.06039770048241" lon="-4.944544118145025"><ele>281.33333333333337</ele><time>2026-04-28T15:51:28Z</time></trkpt><trkpt lat="34.06036471035374" lon="-4.944679374309095"><ele>281.5</ele><time>2026-04-28T15:51:30Z</time></trkpt><trkpt lat="34.0603461632303" lon="-4.9447546684836015"><ele>281.6666666666667</ele><time>2026-04-28T15:51:31Z</time></trkpt><trkpt lat="34.060329033977325" lon="-4.944834829852231"><ele>281.8333333333333</ele><time>2026-04-28T15:51:32Z</time></trkpt><trkpt lat="34.06031129405233" lon="-4.944914945347568"><ele>282.0</ele><time>2026-04-28T15:51:33Z</time></trkpt><trkpt lat="34.06028203924993" lon="-4.9450530037903775"><ele>281.5</ele><time>2026-04-28T15:51:35Z</time></trkpt><trkpt lat="34.06026345058042" lon="-4.945127576866019"><ele>281.0</ele><time>2026-04-28T15:51:36Z</time></trkpt><trkpt lat="34.06024182949606" lon="-4.945207359569323"><ele>280.5</ele><time>2026-04-28T15:51:37Z</time></trkpt><trkpt lat="34.06022067456224" lon="-4.94529598819006"><ele>280.0</ele><time>2026-04-28T15:51:38Z</time></trkpt><trkpt lat="34.06019518882244" lon="-4.945387386911256"><ele>279.5</ele><time>2026-04-28T15:51:39Z</time></trkpt><trkpt lat="34.06017102246225" lon="-4.94549108587092"><ele>279.0</ele><time>2026-04-28T15:51:40Z</time></trkpt><trkpt lat="34.06014634840979" lon="-4.945607895426364"><ele>279.0</ele><time>2026-04-28T15:51:41Z</time></trkpt><trkpt lat="34.060120060348204" lon="-4.945732824464184"><ele>279.0</ele><time>2026-04-28T15:51:42Z</time></trkpt><trkpt lat="34.0600911418637" lon="-4.9458633683093645"><ele>279.0</ele><time>2026-04-28T15:51:43Z</time></trkpt><trkpt lat="34.06006151507941" lon="-4.945995729658271"><ele>279.0</ele><time>2026-04-28T15:51:44Z</time></trkpt><trkpt lat="34.06003486284902" lon="-4.946122720116627"><ele>279.0</ele><time>2026-04-28T15:51:45Z</time></trkpt><trkpt lat="34.06000644348126" lon="-4.946253979524242"><ele>279.25</ele><time>2026-04-28T15:51:46Z</time></trkpt><trkpt lat="34.0599792629772" lon="-4.946393298894326"><ele>279.5</ele><time>2026-04-28T15:51:47Z</time></trkpt><trkpt lat="34.05995296773438" lon="-4.946530958951428"><ele>279.75</ele><time>2026-04-28T15:51:48Z</time></trkpt><trkpt lat="34.059930612126124" lon="-4.946661370309471"><ele>280.0</ele><time>2026-04-28T15:51:49Z</time></trkpt><trkpt lat="34.05991276501895" lon="-4.946785471140548"><ele>280.0</ele><time>2026-04-28T15:51:50Z</time></trkpt><trkpt lat="34.05990072702615" lon="-4.946900624094288"><ele>280.0</ele><time>2026-04-28T15:51:51Z</time></trkpt><trkpt lat="34.05989896146554" lon="-4.947006970333546"><ele>280.0</ele><time>2026-04-28T15:51:52Z</time></trkpt><trkpt lat="34.05990288841377" lon="-4.947105490185986"><ele>280.0</ele><time>2026-04-28T15:51:53Z</time></trkpt><trkpt lat="34.05991084291063" lon="-4.947194588830979"><ele>280.0</ele><time>2026-04-28T15:51:54Z</time></trkpt><trkpt lat="34.05990171466544" lon="-4.94727139265617"><ele>280.0</ele><time>2026-04-28T15:51:55Z</time></trkpt><trkpt lat="34.05987191222005" lon="-4.947339377576706"><ele>280.0</ele><time>2026-04-28T15:51:56Z</time></trkpt><trkpt lat="34.059778435407054" lon="-4.94736251741893"><ele>280.0</ele><time>2026-04-28T15:51:58Z</time></trkpt><trkpt lat="34.05972480565973" lon="-4.947301080882128"><ele>280.0</ele><time>2026-04-28T15:51:59Z</time></trkpt><trkpt lat="34.05970826558661" lon="-4.947218817379428"><ele>280.0</ele><time>2026-04-28T15:52:00Z</time></trkpt><trkpt lat="34.05971795306055" lon="-4.947119341305942"><ele>280.0</ele><time>2026-04-28T15:52:01Z</time></trkpt><trkpt lat="34.059744030850204" lon="-4.947010684676433"><ele>280.0</ele><time>2026-04-28T15:52:02Z</time></trkpt><trkpt lat="34.05978247005201" lon="-4.946880251121397"><ele>280.0</ele><time>2026-04-28T15:52:03Z</time></trkpt><trkpt lat="34.05980879423157" lon="-4.946749603158071"><ele>280.0</ele><time>2026-04-28T15:52:04Z</time></trkpt><trkpt lat="34.059829037293525" lon="-4.9466114747268675"><ele>280.0</ele><time>2026-04-28T15:52:05Z</time></trkpt><trkpt lat="34.05985666302064" lon="-4.946488486111358"><ele>280.0</ele><time>2026-04-28T15:52:06Z</time></trkpt><trkpt lat="34.059886199590395" lon="-4.946349233463253"><ele>279.75</ele><time>2026-04-28T15:52:07Z</time></trkpt><trkpt lat="34.05991693983779" lon="-4.9462200729031816"><ele>279.5</ele><time>2026-04-28T15:52:08Z</time></trkpt><trkpt lat="34.05994583378366" lon="-4.946085126853909"><ele>279.25</ele><time>2026-04-28T15:52:09Z</time></trkpt><trkpt lat="34.05997878959992" lon="-4.945948173188496"><ele>279.0</ele><time>2026-04-28T15:52:10Z</time></trkpt><trkpt lat="34.060012423964814" lon="-4.945804352804939"><ele>279.0</ele><time>2026-04-28T15:52:11Z</time></trkpt><trkpt lat="34.06004368254694" lon="-4.945662359342829"><ele>279.0</ele><time>2026-04-28T15:52:12Z</time></trkpt><trkpt lat="34.06007208311002" lon="-4.945531219022922"><ele>279.0</ele><time>2026-04-28T15:52:13Z</time></trkpt><trkpt lat="34.06009758812196" lon="-4.945408944946686"><ele>279.0</ele><time>2026-04-28T15:52:14Z</time></trkpt><trkpt lat="34.06011848512885" lon="-4.945292503802632"><ele>279.0</ele><time>2026-04-28T15:52:15Z</time></trkpt><trkpt lat="34.060141752360416" lon="-4.9451754811876025"><ele>279.0</ele><time>2026-04-28T15:52:16Z</time></trkpt><trkpt lat="34.06016994743379" lon="-4.9450557913208435"><ele>279.0</ele><time>2026-04-28T15:52:17Z</time></trkpt><trkpt lat="34.06019912812133" lon="-4.944936743936784"><ele>279.0</ele><time>2026-04-28T15:52:18Z</time></trkpt><trkpt lat="34.060223308803806" lon="-4.944810894578084"><ele>279.0</ele><time>2026-04-28T15:52:19Z</time></trkpt><trkpt lat="34.06024873135696" lon="-4.944684778478258"><ele>279.0</ele><time>2026-04-28T15:52:20Z</time></trkpt><trkpt lat="34.0602777496468" lon="-4.944549600840559"><ele>279.5</ele><time>2026-04-28T15:52:21Z</time></trkpt><trkpt lat="34.06030708044803" lon="-4.944413933344177"><ele>280.0</ele><time>2026-04-28T15:52:22Z</time></trkpt><trkpt lat="34.060334430291896" lon="-4.944278895538015"><ele>280.5</ele><time>2026-04-28T15:52:23Z</time></trkpt><trkpt lat="34.06036127872062" lon="-4.94414029414073"><ele>281.0</ele><time>2026-04-28T15:52:24Z</time></trkpt><trkpt lat="34.060392560514366" lon="-4.943995610986153"><ele>281.0</ele><time>2026-04-28T15:52:25Z</time></trkpt><trkpt lat="34.060421841049234" lon="-4.9438482386237785"><ele>281.0</ele><time>2026-04-28T15:52:26Z</time></trkpt><trkpt lat="34.060451667099315" lon="-4.943701279416308"><ele>281.0</ele><time>2026-04-28T15:52:27Z</time></trkpt><trkpt lat="34.06048404763788" lon="-4.943540341962943"><ele>281.0</ele><time>2026-04-28T15:52:28Z</time></trkpt><trkpt lat="34.060511271442856" lon="-4.943383065494771"><ele>280.0</ele><time>2026-04-28T15:52:29Z</time></trkpt><trkpt lat="34.0605340291962" lon="-4.943230646895787"><ele>279.0</ele><time>2026-04-28T15:52:30Z</time></trkpt><trkpt lat="34.06055310516784" lon="-4.94308170100714"><ele>278.0</ele><time>2026-04-28T15:52:31Z</time></trkpt><trkpt lat="34.060571622379186" lon="-4.942934771900309"><ele>277.0</ele><time>2026-04-28T15:52:32Z</time></trkpt><trkpt lat="34.06059258079803" lon="-4.942795633287401"><ele>277.0</ele><time>2026-04-28T15:52:33Z</time></trkpt><trkpt lat="34.06061763137904" lon="-4.942648633492999"><ele>277.0</ele><time>2026-04-28T15:52:34Z</time></trkpt><trkpt lat="34.06063592449019" lon="-4.942514123570823"><ele>277.0</ele><time>2026-04-28T15:52:35Z</time></trkpt><trkpt lat="34.0606512988057" lon="-4.942396558682106"><ele>277.0</ele><time>2026-04-28T15:52:36Z</time></trkpt><trkpt lat="34.060665836131356" lon="-4.9422939776301895"><ele>277.0</ele><time>2026-04-28T15:52:37Z</time></trkpt><trkpt lat="34.06068007214997" lon="-4.942202576758526"><ele>274.75</ele><time>2026-04-28T15:52:38Z</time></trkpt><trkpt lat="34.060679167970356" lon="-4.942120620038243"><ele>272.5</ele><time>2026-04-28T15:52:39Z</time></trkpt><trkpt lat="34.06069040259631" lon="-4.941988454415769"><ele>270.25</ele><time>2026-04-28T15:52:41Z</time></trkpt><trkpt lat="34.06050453547665" lon="-4.941883989374329"><ele>268.0</ele><time>2026-04-28T15:52:43Z</time></trkpt><trkpt lat="34.06047858049228" lon="-4.941738969430054"><ele>267.42857142857144</ele><time>2026-04-28T15:52:45Z</time></trkpt><trkpt lat="34.06050548204626" lon="-4.9416551257642665"><ele>266.85714285714283</ele><time>2026-04-28T15:52:47Z</time></trkpt><trkpt lat="34.06053051461146" lon="-4.94158235716618"><ele>266.2857142857143</ele><time>2026-04-28T15:52:50.999Z</time></trkpt><trkpt lat="34.06054228902823" lon="-4.941498058267048"><ele>265.7142857142857</ele><time>2026-04-28T15:56:09.999Z</time></trkpt><trkpt lat="34.06056088321196" lon="-4.9413804849300185"><ele>265.14285714285717</ele><time>2026-04-28T15:56:13.999Z</time></trkpt><trkpt lat="34.060607719465885" lon="-4.941326302937201"><ele>264.57142857142856</ele><time>2026-04-28T15:56:14.999Z</time></trkpt><trkpt lat="34.0606538021205" lon="-4.941273653476172"><ele>264.0</ele><time>2026-04-28T15:56:15.999Z</time></trkpt><trkpt lat="34.06069240162265" lon="-4.941203054234976"><ele>264.0</ele><time>2026-04-28T15:56:16.999Z</time></trkpt><trkpt lat="34.06073261235705" lon="-4.941134163636727"><ele>264.0</ele><time>2026-04-28T15:56:17.999Z</time></trkpt><trkpt lat="34.06081707001016" lon="-4.941082681302309"><ele>264.0</ele><time>2026-04-28T15:56:18.999Z</time></trkpt><trkpt lat="34.060842444896615" lon="-4.940958031329349"><ele>264.0</ele><time>2026-04-28T15:56:20.999Z</time></trkpt><trkpt lat="34.06087205305428" lon="-4.940873248927599"><ele>264.0</ele><time>2026-04-28T15:56:21.999Z</time></trkpt><trkpt lat="34.060889716045864" lon="-4.940769549445282"><ele>264.0</ele><time>2026-04-28T15:56:22.999Z</time></trkpt><trkpt lat="34.06090534586717" lon="-4.9406570398115885"><ele>263.0</ele><time>2026-04-28T15:56:23.999Z</time></trkpt><trkpt lat="34.06092097270236" lon="-4.940537042441852"><ele>262.0</ele><time>2026-04-28T15:56:24.999Z</time></trkpt><trkpt lat="34.06093769832795" lon="-4.9404104991666085"><ele>261.0</ele><time>2026-04-28T15:56:25.999Z</time></trkpt><trkpt lat="34.060956973504155" lon="-4.9402779493144315"><ele>260.0</ele><time>2026-04-28T15:56:26.999Z</time></trkpt><trkpt lat="34.06097621826016" lon="-4.940146959028436"><ele>259.0</ele><time>2026-04-28T15:56:27.999Z</time></trkpt><trkpt lat="34.06099437709488" lon="-4.940021231199363"><ele>259.0</ele><time>2026-04-28T15:56:28.999Z</time></trkpt><trkpt lat="34.061014503816004" lon="-4.939897721256926"><ele>259.0</ele><time>2026-04-28T15:56:29.999Z</time></trkpt><trkpt lat="34.06103790313431" lon="-4.939766867944007"><ele>259.0</ele><time>2026-04-28T15:56:30.999Z</time></trkpt><trkpt lat="34.06106203430189" lon="-4.939636267346256"><ele>259.0</ele><time>2026-04-28T15:56:31.999Z</time></trkpt><trkpt lat="34.06108410767063" lon="-4.939499373224308"><ele>259.0</ele><time>2026-04-28T15:56:32.999Z</time></trkpt><trkpt lat="34.06110023584498" lon="-4.9393704175743265"><ele>259.0</ele><time>2026-04-28T15:56:33.999Z</time></trkpt><trkpt lat="34.06111621944476" lon="-4.939248737667686"><ele>259.0</ele><time>2026-04-28T15:56:34.999Z</time></trkpt><trkpt lat="34.06113203518358" lon="-4.939130156786634"><ele>259.0</ele><time>2026-04-28T15:56:35.999Z</time></trkpt><trkpt lat="34.06114682429015" lon="-4.9390147055114255"><ele>259.0</ele><time>2026-04-28T15:56:36.999Z</time></trkpt><trkpt lat="34.06115754951072" lon="-4.938889927191972"><ele>259.0</ele><time>2026-04-28T15:56:37.999Z</time></trkpt><trkpt lat="34.061165165893534" lon="-4.9387617962427806"><ele>258.59999999999997</ele><time>2026-04-28T15:56:38.999Z</time></trkpt><trkpt lat="34.061215290364366" lon="-4.9386630696413985"><ele>258.2</ele><time>2026-04-28T15:56:39.999Z</time></trkpt><trkpt lat="34.061236110860165" lon="-4.9385298789478504"><ele>257.79999999999995</ele><time>2026-04-28T15:56:40.999Z</time></trkpt><trkpt lat="34.06125584657962" lon="-4.938393272142384"><ele>257.4</ele><time>2026-04-28T15:56:41.999Z</time></trkpt><trkpt lat="34.06127706810734" lon="-4.938247135729314"><ele>257.0</ele><time>2026-04-28T15:56:42.999Z</time></trkpt><trkpt lat="34.06129743612312" lon="-4.938093829132775"><ele>256.0</ele><time>2026-04-28T15:56:43.999Z</time></trkpt><trkpt lat="34.06132118866577" lon="-4.9379419428201725"><ele>255.0</ele><time>2026-04-28T15:56:44.999Z</time></trkpt><trkpt lat="34.06134058969388" lon="-4.937796919249855"><ele>254.0</ele><time>2026-04-28T15:56:45.999Z</time></trkpt><trkpt lat="34.0613614694667" lon="-4.937656550409306"><ele>253.0</ele><time>2026-04-28T15:56:46.999Z</time></trkpt><trkpt lat="34.06137729324259" lon="-4.937520079859335"><ele>252.0</ele><time>2026-04-28T15:56:47.999Z</time></trkpt><trkpt lat="34.061392880539444" lon="-4.937385344522197"><ele>251.0</ele><time>2026-04-28T15:56:48.999Z</time></trkpt><trkpt lat="34.06141285209821" lon="-4.93725038904659"><ele>250.0</ele><time>2026-04-28T15:56:49.999Z</time></trkpt><trkpt lat="34.061424144141576" lon="-4.937111054891576"><ele>249.0</ele><time>2026-04-28T15:56:50.999Z</time></trkpt><trkpt lat="34.06143415434451" lon="-4.936969314200279"><ele>249.0</ele><time>2026-04-28T15:56:51.999Z</time></trkpt><trkpt lat="34.06144567199375" lon="-4.936820512576811"><ele>249.0</ele><time>2026-04-28T15:56:52.999Z</time></trkpt><trkpt lat="34.06145139777825" lon="-4.936672683327991"><ele>249.0</ele><time>2026-04-28T15:56:53.999Z</time></trkpt><trkpt lat="34.061449741943875" lon="-4.936516270043022"><ele>249.0</ele><time>2026-04-28T15:56:54.999Z</time></trkpt><trkpt lat="34.06144050264592" lon="-4.936359800246984"><ele>247.75</ele><time>2026-04-28T15:56:55.999Z</time></trkpt><trkpt lat="34.06142609319012" lon="-4.93620211166269"><ele>246.5</ele><time>2026-04-28T15:56:56.999Z</time></trkpt><trkpt lat="34.06139328684431" lon="-4.936046138596316"><ele>245.25</ele><time>2026-04-28T15:56:57.999Z</time></trkpt><trkpt lat="34.061354313645296" lon="-4.935889124410624"><ele>244.0</ele><time>2026-04-28T15:56:58.999Z</time></trkpt><trkpt lat="34.06132073009371" lon="-4.935741046187429"><ele>244.0</ele><time>2026-04-28T15:56:59.999Z</time></trkpt><trkpt lat="34.06128422955535" lon="-4.935594800752491"><ele>244.0</ele><time>2026-04-28T15:57:00.999Z</time></trkpt><trkpt lat="34.06122730634385" lon="-4.935444850135622"><ele>244.0</ele><time>2026-04-28T15:57:01.999Z</time></trkpt><trkpt lat="34.0611764311244" lon="-4.9352999165688125"><ele>244.0</ele><time>2026-04-28T15:57:02.999Z</time></trkpt><trkpt lat="34.06112431440513" lon="-4.935152038236598"><ele>243.25</ele><time>2026-04-28T15:57:03.999Z</time></trkpt><trkpt lat="34.061074109854005" lon="-4.935004678528701"><ele>242.5</ele><time>2026-04-28T15:57:04.999Z</time></trkpt><trkpt lat="34.06101882409921" lon="-4.934862048908192"><ele>241.75</ele><time>2026-04-28T15:57:05.999Z</time></trkpt><trkpt lat="34.060956708666616" lon="-4.934740174441978"><ele>241.0</ele><time>2026-04-28T15:57:06.999Z</time></trkpt><trkpt lat="34.060895878509236" lon="-4.934627668076089"><ele>240.99999999999997</ele><time>2026-04-28T15:57:07.999Z</time></trkpt><trkpt lat="34.06083244050959" lon="-4.934527010644435"><ele>241.0</ele><time>2026-04-28T15:57:08.999Z</time></trkpt><trkpt lat="34.06078849551565" lon="-4.93444023900081"><ele>241.0</ele><time>2026-04-28T15:57:09.999Z</time></trkpt><trkpt lat="34.06073648590873" lon="-4.934372355764182"><ele>241.0</ele><time>2026-04-28T15:57:10.999Z</time></trkpt><trkpt lat="34.06069953044927" lon="-4.934295035861786"><ele>240.99999999999997</ele><time>2026-04-28T15:57:12.999Z</time></trkpt><trkpt lat="34.06072762295988" lon="-4.934225427272278"><ele>241.0</ele><time>2026-04-28T15:57:13.999Z</time></trkpt><trkpt lat="34.06083770225465" lon="-4.934223976741343"><ele>241.0</ele><time>2026-04-28T15:57:15.999Z</time></trkpt><trkpt lat="34.060888857193056" lon="-4.934292530672735"><ele>241.00000000000003</ele><time>2026-04-28T15:57:16.999Z</time></trkpt><trkpt lat="34.060926311663074" lon="-4.934392281247596"><ele>241.00000000000003</ele><time>2026-04-28T15:57:17.999Z</time></trkpt><trkpt lat="34.06096461676131" lon="-4.934498727382149"><ele>241.0</ele><time>2026-04-28T15:57:18.999Z</time></trkpt><trkpt lat="34.061013929534475" lon="-4.9345992677654955"><ele>241.0</ele><time>2026-04-28T15:57:19.999Z</time></trkpt><trkpt lat="34.06107562143941" lon="-4.934694938599039"><ele>241.0</ele><time>2026-04-28T15:57:20.999Z</time></trkpt><trkpt lat="34.06113549977161" lon="-4.934795280201156"><ele>241.0</ele><time>2026-04-28T15:57:21.999Z</time></trkpt><trkpt lat="34.06119458885399" lon="-4.934911560315851"><ele>241.0</ele><time>2026-04-28T15:57:22.999Z</time></trkpt><trkpt lat="34.06125006680327" lon="-4.935034417518901"><ele>241.0</ele><time>2026-04-28T15:57:23.999Z</time></trkpt><trkpt lat="34.06129889913015" lon="-4.93516502438082"><ele>241.75</ele><time>2026-04-28T15:57:24.999Z</time></trkpt><trkpt lat="34.061347106233974" lon="-4.9352968403231605"><ele>242.5</ele><time>2026-04-28T15:57:25.999Z</time></trkpt><trkpt lat="34.061386483998774" lon="-4.935430506007157"><ele>243.25</ele><time>2026-04-28T15:57:26.999Z</time></trkpt><trkpt lat="34.06142687551104" lon="-4.935570418916361"><ele>244.0</ele><time>2026-04-28T15:57:27.999Z</time></trkpt><trkpt lat="34.06146920281551" lon="-4.935711920141187"><ele>244.0</ele><time>2026-04-28T15:57:28.999Z</time></trkpt><trkpt lat="34.06149949732638" lon="-4.9358502674024045"><ele>244.0</ele><time>2026-04-28T15:57:29.999Z</time></trkpt><trkpt lat="34.061528628813235" lon="-4.935989316852366"><ele>244.0</ele><time>2026-04-28T15:57:30.999Z</time></trkpt><trkpt lat="34.061554310610624" lon="-4.9361251046540815"><ele>244.0</ele><time>2026-04-28T15:57:31.999Z</time></trkpt><trkpt lat="34.061578609643085" lon="-4.936256933529797"><ele>243.79999999999998</ele><time>2026-04-28T15:57:32.999Z</time></trkpt><trkpt lat="34.06159357927267" lon="-4.9363913430181565"><ele>243.59999999999997</ele><time>2026-04-28T15:57:33.999Z</time></trkpt><trkpt lat="34.061600946012355" lon="-4.936522313894026"><ele>243.4</ele><time>2026-04-28T15:57:34.999Z</time></trkpt><trkpt lat="34.0616052729839" lon="-4.93665163659262"><ele>243.2</ele><time>2026-04-28T15:57:35.999Z</time></trkpt><trkpt lat="34.06160557277385" lon="-4.936770609469021"><ele>243.0</ele><time>2026-04-28T15:57:36.999Z</time></trkpt><trkpt lat="34.0616073791942" lon="-4.936895056259993"><ele>244.2</ele><time>2026-04-28T15:57:37.999Z</time></trkpt><trkpt lat="34.061600718559546" lon="-4.937019892791382"><ele>245.4</ele><time>2026-04-28T15:57:38.999Z</time></trkpt><trkpt lat="34.061582024862034" lon="-4.937139646948166"><ele>246.59999999999997</ele><time>2026-04-28T15:57:39.999Z</time></trkpt><trkpt lat="34.06156876518704" lon="-4.937259552463932"><ele>247.79999999999998</ele><time>2026-04-28T15:57:40.999Z</time></trkpt><trkpt lat="34.061550565636196" lon="-4.937377081569845"><ele>249.0</ele><time>2026-04-28T15:57:41.999Z</time></trkpt><trkpt lat="34.06153030636692" lon="-4.937496719349948"><ele>249.79999999999998</ele><time>2026-04-28T15:57:42.999Z</time></trkpt><trkpt lat="34.061521936174096" lon="-4.9376194940615665"><ele>250.59999999999997</ele><time>2026-04-28T15:57:43.999Z</time></trkpt><trkpt lat="34.06150165250879" lon="-4.937739999002142"><ele>251.4</ele><time>2026-04-28T15:57:44.999Z</time></trkpt><trkpt lat="34.06147886943964" lon="-4.937862295253029"><ele>252.2</ele><time>2026-04-28T15:57:45.999Z</time></trkpt><trkpt lat="34.061456141594356" lon="-4.937985626199749"><ele>253.0</ele><time>2026-04-28T15:57:46.999Z</time></trkpt><trkpt lat="34.0614295665094" lon="-4.938113337192639"><ele>253.0</ele><time>2026-04-28T15:57:47.999Z</time></trkpt><trkpt lat="34.061403324970684" lon="-4.938247155450447"><ele>253.0</ele><time>2026-04-28T15:57:48.999Z</time></trkpt><trkpt lat="34.061375453111204" lon="-4.9383855744233225"><ele>253.0</ele><time>2026-04-28T15:57:49.999Z</time></trkpt><trkpt lat="34.061349845429824" lon="-4.938529101971448"><ele>253.0</ele><time>2026-04-28T15:57:50.999Z</time></trkpt><trkpt lat="34.06132692986799" lon="-4.938675649460417"><ele>254.0</ele><time>2026-04-28T15:57:51.999Z</time></trkpt><trkpt lat="34.061301851205094" lon="-4.938823503654816"><ele>255.0</ele><time>2026-04-28T15:57:52.999Z</time></trkpt><trkpt lat="34.06128044917799" lon="-4.9389735489099476"><ele>256.0</ele><time>2026-04-28T15:57:53.999Z</time></trkpt><trkpt lat="34.06125930324431" lon="-4.939122875407588"><ele>257.0</ele><time>2026-04-28T15:57:54.999Z</time></trkpt><trkpt lat="34.061237386581716" lon="-4.939268185175748"><ele>257.4</ele><time>2026-04-28T15:57:55.999Z</time></trkpt><trkpt lat="34.06121530486545" lon="-4.939395416212899"><ele>257.79999999999995</ele><time>2026-04-28T15:57:56.999Z</time></trkpt><trkpt lat="34.06119646401076" lon="-4.939507398088262"><ele>258.2</ele><time>2026-04-28T15:57:57.999Z</time></trkpt><trkpt lat="34.061177819388234" lon="-4.939611112937413"><ele>258.59999999999997</ele><time>2026-04-28T15:57:58.999Z</time></trkpt><trkpt lat="34.06116443729196" lon="-4.939704563082311"><ele>259.0</ele><time>2026-04-28T15:57:59.999Z</time></trkpt><trkpt lat="34.06114351490612" lon="-4.939808157865306"><ele>259.0</ele><time>2026-04-28T15:58:00.999Z</time></trkpt><trkpt lat="34.06112800657672" lon="-4.9399252790045995"><ele>259.0</ele><time>2026-04-28T15:58:01.999Z</time></trkpt><trkpt lat="34.061115908548466" lon="-4.940048317604058"><ele>259.0</ele><time>2026-04-28T15:58:02.999Z</time></trkpt><trkpt lat="34.06109889252303" lon="-4.9401759772331975"><ele>259.0</ele><time>2026-04-28T15:58:03.999Z</time></trkpt><trkpt lat="34.061081749297074" lon="-4.940306035545703"><ele>259.0</ele><time>2026-04-28T15:58:04.999Z</time></trkpt><trkpt lat="34.06106324305386" lon="-4.940438307744761"><ele>259.0</ele><time>2026-04-28T15:58:05.999Z</time></trkpt><trkpt lat="34.061044028078534" lon="-4.9405736150550945"><ele>259.0</ele><time>2026-04-28T15:58:06.999Z</time></trkpt><trkpt lat="34.06102593342493" lon="-4.9407120150217345"><ele>259.0</ele><time>2026-04-28T15:58:07.999Z</time></trkpt><trkpt lat="34.06100857078603" lon="-4.940848146683089"><ele>259.0</ele><time>2026-04-28T15:58:08.999Z</time></trkpt><trkpt lat="34.06098934720249" lon="-4.9409841244221075"><ele>259.0</ele><time>2026-04-28T15:58:09.999Z</time></trkpt><trkpt lat="34.06096802122311" lon="-4.941124383487126"><ele>259.0</ele><time>2026-04-28T15:58:10.999Z</time></trkpt><trkpt lat="34.060946708599424" lon="-4.941263885592259"><ele>259.0</ele><time>2026-04-28T15:58:11.999Z</time></trkpt><trkpt lat="34.06092797552532" lon="-4.941401044618397"><ele>259.0</ele><time>2026-04-28T15:58:12.999Z</time></trkpt><trkpt lat="34.06091184873987" lon="-4.941539570634846"><ele>259.0</ele><time>2026-04-28T15:58:13.999Z</time></trkpt><trkpt lat="34.06089285961887" lon="-4.941678809160664"><ele>259.0</ele><time>2026-04-28T15:58:14.999Z</time></trkpt><trkpt lat="34.060873182570006" lon="-4.941821314593576"><ele>259.0</ele><time>2026-04-28T15:58:15.999Z</time></trkpt><trkpt lat="34.06085307741185" lon="-4.9419640109935985"><ele>259.0</ele><time>2026-04-28T15:58:16.999Z</time></trkpt><trkpt lat="34.060830971084734" lon="-4.942104731518917"><ele>259.75</ele><time>2026-04-28T15:58:17.999Z</time></trkpt><trkpt lat="34.060808060678404" lon="-4.942246774803789"><ele>260.5</ele><time>2026-04-28T15:58:18.999Z</time></trkpt><trkpt lat="34.06078681243201" lon="-4.942387758251938"><ele>261.25</ele><time>2026-04-28T15:58:19.999Z</time></trkpt><trkpt lat="34.0607669035287" lon="-4.9425287443268715"><ele>262.0</ele><time>2026-04-28T15:58:20.999Z</time></trkpt><trkpt lat="34.06074435879303" lon="-4.942668697374108"><ele>265.75</ele><time>2026-04-28T15:58:21.999Z</time></trkpt><trkpt lat="34.06072168057646" lon="-4.942809037224319"><ele>269.5</ele><time>2026-04-28T15:58:22.999Z</time></trkpt><trkpt lat="34.06070073051749" lon="-4.942949388526095"><ele>273.25</ele><time>2026-04-28T15:58:23.999Z</time></trkpt><trkpt lat="34.06068078209514" lon="-4.943090139045879"><ele>277.0</ele><time>2026-04-28T15:58:24.999Z</time></trkpt><trkpt lat="34.06065652673439" lon="-4.943229581602795"><ele>277.0</ele><time>2026-04-28T15:58:25.999Z</time></trkpt><trkpt lat="34.06063423431587" lon="-4.943361174939763"><ele>277.0</ele><time>2026-04-28T15:58:26.999Z</time></trkpt><trkpt lat="34.060611788026" lon="-4.943487187938753"><ele>277.0</ele><time>2026-04-28T15:58:27.999Z</time></trkpt><trkpt lat="34.060589408457595" lon="-4.943610412218779"><ele>277.0</ele><time>2026-04-28T15:58:28.999Z</time></trkpt><trkpt lat="34.06056689754897" lon="-4.943730334692765"><ele>277.0</ele><time>2026-04-28T15:58:29.999Z</time></trkpt><trkpt lat="34.06054315852988" lon="-4.943851445170088"><ele>277.66666666666663</ele><time>2026-04-28T15:58:30.999Z</time></trkpt><trkpt lat="34.06051957487516" lon="-4.9439694975220325"><ele>278.3333333333333</ele><time>2026-04-28T15:58:31.999Z</time></trkpt><trkpt lat="34.06049811630738" lon="-4.94408236378933"><ele>279.0</ele><time>2026-04-28T15:58:32.999Z</time></trkpt><trkpt lat="34.060477909437594" lon="-4.944177563971654"><ele>279.6666666666667</ele><time>2026-04-28T15:58:33.999Z</time></trkpt><trkpt lat="34.06045987127464" lon="-4.944266677518932"><ele>280.33333333333337</ele><time>2026-04-28T15:58:34.999Z</time></trkpt><trkpt lat="34.06044428388759" lon="-4.944344510237843"><ele>281.0</ele><time>2026-04-28T15:58:35.999Z</time></trkpt><trkpt lat="34.06041053947605" lon="-4.944490320570955"><ele>281.1666666666667</ele><time>2026-04-28T15:58:37.999Z</time></trkpt><trkpt lat="34.060392032320216" lon="-4.944567554648856"><ele>281.33333333333337</ele><time>2026-04-28T15:58:38.999Z</time></trkpt><trkpt lat="34.06037686076736" lon="-4.944646146157613"><ele>281.5</ele><time>2026-04-28T15:58:39.999Z</time></trkpt><trkpt lat="34.060362030807745" lon="-4.9447205052210865"><ele>281.6666666666667</ele><time>2026-04-28T15:58:40.999Z</time></trkpt><trkpt lat="34.060332845399984" lon="-4.944867190607631"><ele>281.8333333333333</ele><time>2026-04-28T15:58:42.999Z</time></trkpt><trkpt lat="34.06031645603005" lon="-4.9449443916116795"><ele>282.0</ele><time>2026-04-28T15:58:43.999Z</time></trkpt><trkpt lat="34.06030075602618" lon="-4.945026417802692"><ele>281.5</ele><time>2026-04-28T15:58:44.999Z</time></trkpt><trkpt lat="34.06027884598976" lon="-4.9451075264363675"><ele>281.0</ele><time>2026-04-28T15:58:45.999Z</time></trkpt><trkpt lat="34.06025351184762" lon="-4.945189764241638"><ele>280.5</ele><time>2026-04-28T15:58:46.999Z</time></trkpt><trkpt lat="34.060231361522824" lon="-4.945278876352688"><ele>280.0</ele><time>2026-04-28T15:58:47.999Z</time></trkpt><trkpt lat="34.06021280753085" lon="-4.945382727546952"><ele>279.5</ele><time>2026-04-28T15:58:48.999Z</time></trkpt><trkpt lat="34.060194402592934" lon="-4.945492278736752"><ele>279.0</ele><time>2026-04-28T15:58:49.999Z</time></trkpt><trkpt lat="34.060168877699944" lon="-4.945610362367005"><ele>279.0</ele><time>2026-04-28T15:58:50.999Z</time></trkpt><trkpt lat="34.06014516584796" lon="-4.945741151172429"><ele>279.0</ele><time>2026-04-28T15:58:51.999Z</time></trkpt><trkpt lat="34.060120257523735" lon="-4.945861830201986"><ele>279.0</ele><time>2026-04-28T15:58:52.999Z</time></trkpt><trkpt lat="34.060093722158165" lon="-4.945978058373135"><ele>279.0</ele><time>2026-04-28T15:58:53.999Z</time></trkpt><trkpt lat="34.06006788921115" lon="-4.946098386881695"><ele>279.0</ele><time>2026-04-28T15:58:54.999Z</time></trkpt><trkpt lat="34.06004342748113" lon="-4.9462217353948965"><ele>279.2</ele><time>2026-04-28T15:58:55.999Z</time></trkpt><trkpt lat="34.060019509026" lon="-4.946343726327215"><ele>279.4</ele><time>2026-04-28T15:58:56.999Z</time></trkpt><trkpt lat="34.05999756485014" lon="-4.946464397035892"><ele>279.6</ele><time>2026-04-28T15:58:57.999Z</time></trkpt><trkpt lat="34.059978244161854" lon="-4.946583854692043"><ele>279.8</ele><time>2026-04-28T15:58:58.999Z</time></trkpt><trkpt lat="34.05996083971637" lon="-4.946700172478513"><ele>280.0</ele><time>2026-04-28T15:58:59.999Z</time></trkpt><trkpt lat="34.05994350816823" lon="-4.946808166905111"><ele>280.0</ele><time>2026-04-28T15:59:00.999Z</time></trkpt><trkpt lat="34.05993361913875" lon="-4.946919601751088"><ele>280.0</ele><time>2026-04-28T15:59:01.999Z</time></trkpt><trkpt lat="34.05992974807585" lon="-4.947038313732452"><ele>280.0</ele><time>2026-04-28T15:59:02.999Z</time></trkpt><trkpt lat="34.059920807995425" lon="-4.947158691032785"><ele>280.0</ele><time>2026-04-28T15:59:03.999Z</time></trkpt><trkpt lat="34.0599109019529" lon="-4.947284369868945"><ele>280.0</ele><time>2026-04-28T15:59:04.999Z</time></trkpt><trkpt lat="34.05989714649354" lon="-4.947420104541663"><ele>280.0</ele><time>2026-04-28T15:59:05.999Z</time></trkpt><trkpt lat="34.05988246626475" lon="-4.947557391949608"><ele>280.0</ele><time>2026-04-28T15:59:06.999Z</time></trkpt><trkpt lat="34.059871303816365" lon="-4.947700573925568"><ele>280.0</ele><time>2026-04-28T15:59:07.999Z</time></trkpt><trkpt lat="34.059870545027145" lon="-4.947844490334246"><ele>280.0</ele><time>2026-04-28T15:59:08.999Z</time></trkpt><trkpt lat="34.05987702896856" lon="-4.947990736006986"><ele>280.0</ele><time>2026-04-28T15:59:09.999Z</time></trkpt><trkpt lat="34.0598849996822" lon="-4.948132861881059"><ele>280.0</ele><time>2026-04-28T15:59:10.999Z</time></trkpt><trkpt lat="34.059895508065026" lon="-4.948277579607376"><ele>280.0</ele><time>2026-04-28T15:59:11.999Z</time></trkpt><trkpt lat="34.05991138001868" lon="-4.9484190742624685"><ele>280.0</ele><time>2026-04-28T15:59:12.999Z</time></trkpt><trkpt lat="34.05993120285997" lon="-4.948563164901883"><ele>280.25</ele><time>2026-04-28T15:59:13.999Z</time></trkpt><trkpt lat="34.05995387478021" lon="-4.948704821878718"><ele>280.5</ele><time>2026-04-28T15:59:14.999Z</time></trkpt><trkpt lat="34.059977746180934" lon="-4.9488444501377105"><ele>280.75</ele><time>2026-04-28T15:59:15.999Z</time></trkpt><trkpt lat="34.06000679084324" lon="-4.948983023337882"><ele>281.0</ele><time>2026-04-28T15:59:16.999Z</time></trkpt><trkpt lat="34.06003762149496" lon="-4.949116921502398"><ele>282.75</ele><time>2026-04-28T15:59:17.999Z</time></trkpt><trkpt lat="34.060070838895214" lon="-4.9492503149907385"><ele>284.5</ele><time>2026-04-28T15:59:18.999Z</time></trkpt><trkpt lat="34.06010635852806" lon="-4.94938234888677"><ele>286.25</ele><time>2026-04-28T15:59:19.999Z</time></trkpt><trkpt lat="34.060146567760874" lon="-4.949514009108823"><ele>288.0</ele><time>2026-04-28T15:59:20.999Z</time></trkpt><trkpt lat="34.06018690397199" lon="-4.949643305169058"><ele>288.0</ele><time>2026-04-28T15:59:21.999Z</time></trkpt><trkpt lat="34.06023112718843" lon="-4.949771818836874"><ele>288.0</ele><time>2026-04-28T15:59:22.999Z</time></trkpt><trkpt lat="34.06027692566192" lon="-4.949898717534024"><ele>288.0</ele><time>2026-04-28T15:59:23.999Z</time></trkpt><trkpt lat="34.06032250843394" lon="-4.9500283709249"><ele>288.0</ele><time>2026-04-28T15:59:24.999Z</time></trkpt><trkpt lat="34.060369727952704" lon="-4.950157275494298"><ele>289.5</ele><time>2026-04-28T15:59:25.999Z</time></trkpt><trkpt lat="34.060417664214505" lon="-4.950285371741551"><ele>291.0</ele><time>2026-04-28T15:59:26.999Z</time></trkpt><trkpt lat="34.06046578930615" lon="-4.9504142927933446"><ele>292.5</ele><time>2026-04-28T15:59:27.999Z</time></trkpt><trkpt lat="34.060515012135006" lon="-4.950546095311852"><ele>294.0</ele><time>2026-04-28T15:59:28.999Z</time></trkpt><trkpt lat="34.060564308159044" lon="-4.950676467169445"><ele>294.0</ele><time>2026-04-28T15:59:29.999Z</time></trkpt><trkpt lat="34.06061162861306" lon="-4.9508094421355855"><ele>294.0</ele><time>2026-04-28T15:59:30.999Z</time></trkpt><trkpt lat="34.06065991030704" lon="-4.950944008747715"><ele>294.0</ele><time>2026-04-28T15:59:31.999Z</time></trkpt><trkpt lat="34.060703912645415" lon="-4.951073884811022"><ele>294.0</ele><time>2026-04-28T15:59:32.999Z</time></trkpt><trkpt lat="34.060750672197344" lon="-4.95120173315377"><ele>293.59999999999997</ele><time>2026-04-28T15:59:33.999Z</time></trkpt><trkpt lat="34.060795519481836" lon="-4.951327335651859"><ele>293.2</ele><time>2026-04-28T15:59:34.999Z</time></trkpt><trkpt lat="34.06084193734588" lon="-4.9514547558270525"><ele>292.79999999999995</ele><time>2026-04-28T15:59:35.999Z</time></trkpt><trkpt lat="34.060884837610764" lon="-4.951578277251208"><ele>292.4</ele><time>2026-04-28T15:59:36.999Z</time></trkpt><trkpt lat="34.0609238757235" lon="-4.951692561018459"><ele>292.0</ele><time>2026-04-28T15:59:37.999Z</time></trkpt><trkpt lat="34.06096526377316" lon="-4.951801581436551"><ele>292.0</ele><time>2026-04-28T15:59:38.999Z</time></trkpt><trkpt lat="34.06100513710226" lon="-4.951903302955834"><ele>292.0</ele><time>2026-04-28T15:59:39.999Z</time></trkpt><trkpt lat="34.06105155172933" lon="-4.951993035470505"><ele>292.0</ele><time>2026-04-28T15:59:40.999Z</time></trkpt><trkpt lat="34.061103642531236" lon="-4.952070911475274"><ele>292.0</ele><time>2026-04-28T15:59:41.999Z</time></trkpt><trkpt lat="34.06115709534957" lon="-4.952142505215412"><ele>292.0</ele><time>2026-04-28T15:59:42.999Z</time></trkpt><trkpt lat="34.061208681352554" lon="-4.952216145415694"><ele>292.0</ele><time>2026-04-28T15:59:43.999Z</time></trkpt><trkpt lat="34.061258437576804" lon="-4.952295556504052"><ele>292.0</ele><time>2026-04-28T15:59:44.999Z</time></trkpt><trkpt lat="34.061297318224476" lon="-4.952384505714448"><ele>292.0</ele><time>2026-04-28T15:59:45.999Z</time></trkpt><trkpt lat="34.06132308404527" lon="-4.952491910699147"><ele>292.0</ele><time>2026-04-28T15:59:46.999Z</time></trkpt><trkpt lat="34.06134044899977" lon="-4.952602752192713"><ele>292.0</ele><time>2026-04-28T15:59:47.999Z</time></trkpt><trkpt lat="34.061346966523374" lon="-4.952705001493873"><ele>292.0</ele><time>2026-04-28T15:59:48.999Z</time></trkpt><trkpt lat="34.06135757531168" lon="-4.9527999732131445"><ele>292.0</ele><time>2026-04-28T15:59:49.999Z</time></trkpt><trkpt lat="34.061370954080665" lon="-4.9528964772873545"><ele>292.4</ele><time>2026-04-28T15:59:50.999Z</time></trkpt><trkpt lat="34.06138628329902" lon="-4.9529952667863615"><ele>292.79999999999995</ele><time>2026-04-28T15:59:51.999Z</time></trkpt><trkpt lat="34.061410029762186" lon="-4.95310150177442"><ele>293.2</ele><time>2026-04-28T15:59:52.999Z</time></trkpt><trkpt lat="34.06144679687623" lon="-4.953208758286506"><ele>293.59999999999997</ele><time>2026-04-28T15:59:53.999Z</time></trkpt><trkpt lat="34.061484778895235" lon="-4.953334292031241"><ele>294.0</ele><time>2026-04-28T15:59:54.999Z</time></trkpt><trkpt lat="34.06153576117855" lon="-4.953470546065432"><ele>292.5</ele><time>2026-04-28T15:59:55.999Z</time></trkpt><trkpt lat="34.06158575932483" lon="-4.953613360301119"><ele>291.0</ele><time>2026-04-28T15:59:56.999Z</time></trkpt><trkpt lat="34.06164210120073" lon="-4.953756708179604"><ele>289.5</ele><time>2026-04-28T15:59:57.999Z</time></trkpt><trkpt lat="34.06169674832043" lon="-4.95390073603097"><ele>288.0</ele><time>2026-04-28T15:59:58.999Z</time></trkpt><trkpt lat="34.06175144963158" lon="-4.954046011857383"><ele>288.0</ele><time>2026-04-28T15:59:59.999Z</time></trkpt><trkpt lat="34.06180643391847" lon="-4.954190511632579"><ele>288.0</ele><time>2026-04-28T16:00:00.999Z</time></trkpt><trkpt lat="34.061862942681834" lon="-4.95433600462339"><ele>288.0</ele><time>2026-04-28T16:00:01.999Z</time></trkpt><trkpt lat="34.06191080051063" lon="-4.954473955644783"><ele>288.0</ele><time>2026-04-28T16:00:02.999Z</time></trkpt><trkpt lat="34.06195921161987" lon="-4.954611485790874"><ele>290.5</ele><time>2026-04-28T16:00:03.999Z</time></trkpt><trkpt lat="34.062008941721814" lon="-4.954753409774394"><ele>293.0</ele><time>2026-04-28T16:00:04.999Z</time></trkpt><trkpt lat="34.06205991205466" lon="-4.954898242844829"><ele>295.5</ele><time>2026-04-28T16:00:05.999Z</time></trkpt><trkpt lat="34.0621121139726" lon="-4.955043403378423"><ele>298.0</ele><time>2026-04-28T16:00:06.999Z</time></trkpt><trkpt lat="34.06216285976224" lon="-4.955190820774534"><ele>299.0</ele><time>2026-04-28T16:00:07.999Z</time></trkpt><trkpt lat="34.062213410491694" lon="-4.955340599239258"><ele>300.0</ele><time>2026-04-28T16:00:08.999Z</time></trkpt><trkpt lat="34.0622665571032" lon="-4.955491914110733"><ele>301.0</ele><time>2026-04-28T16:00:09.999Z</time></trkpt><trkpt lat="34.062321451332934" lon="-4.955642429545272"><ele>302.0</ele><time>2026-04-28T16:00:10.999Z</time></trkpt><trkpt lat="34.06237742408832" lon="-4.955791961970237"><ele>303.0</ele><time>2026-04-28T16:00:11.999Z</time></trkpt><trkpt lat="34.06242851039676" lon="-4.955935127678052"><ele>304.0</ele><time>2026-04-28T16:00:12.999Z</time></trkpt><trkpt lat="34.06247970794407" lon="-4.956077461201596"><ele>305.0</ele><time>2026-04-28T16:00:13.999Z</time></trkpt><trkpt lat="34.062531231475695" lon="-4.956215368357428"><ele>306.0</ele><time>2026-04-28T16:00:14.999Z</time></trkpt><trkpt lat="34.06257756290148" lon="-4.956349738469151"><ele>305.25</ele><time>2026-04-28T16:00:15.999Z</time></trkpt><trkpt lat="34.06262127353802" lon="-4.9564781093182475"><ele>304.5</ele><time>2026-04-28T16:00:16.999Z</time></trkpt><trkpt lat="34.062662042963396" lon="-4.956613747130995"><ele>303.75</ele><time>2026-04-28T16:00:17.999Z</time></trkpt><trkpt lat="34.062705792027266" lon="-4.956748445283053"><ele>303.0</ele><time>2026-04-28T16:00:18.999Z</time></trkpt><trkpt lat="34.06274028141331" lon="-4.956887235364861"><ele>303.0</ele><time>2026-04-28T16:00:19.999Z</time></trkpt><trkpt lat="34.06277408249142" lon="-4.95702613356157"><ele>303.0</ele><time>2026-04-28T16:00:20.999Z</time></trkpt><trkpt lat="34.06280311297723" lon="-4.9571692020533105"><ele>303.0</ele><time>2026-04-28T16:00:21.999Z</time></trkpt><trkpt lat="34.06282778133099" lon="-4.957306024664284"><ele>303.0</ele><time>2026-04-28T16:00:22.999Z</time></trkpt><trkpt lat="34.06284177364747" lon="-4.957435227759423"><ele>303.0</ele><time>2026-04-28T16:00:23.999Z</time></trkpt><trkpt lat="34.06284873169824" lon="-4.957529725896531"><ele>303.0</ele><time>2026-04-28T16:00:24.999Z</time></trkpt><trkpt lat="34.06284762763828" lon="-4.957649036079886"><ele>303.0</ele><time>2026-04-28T16:00:25.999Z</time></trkpt><trkpt lat="34.06284322772405" lon="-4.957774928234381"><ele>303.0</ele><time>2026-04-28T16:00:26.999Z</time></trkpt><trkpt lat="34.0628434225798" lon="-4.957901953031325"><ele>303.0</ele><time>2026-04-28T16:00:27.999Z</time></trkpt><trkpt lat="34.06284484114411" lon="-4.958018355015467"><ele>303.0</ele><time>2026-04-28T16:00:28.999Z</time></trkpt><trkpt lat="34.06284641999413" lon="-4.958129386167121"><ele>303.0</ele><time>2026-04-28T16:00:29.999Z</time></trkpt><trkpt lat="34.06285867875074" lon="-4.958215303851338"><ele>303.0</ele><time>2026-04-28T16:00:30.999Z</time></trkpt><trkpt lat="34.06286802426919" lon="-4.95832291041715"><ele>303.0</ele><time>2026-04-28T16:00:32.999Z</time></trkpt><trkpt lat="34.06285509378129" lon="-4.95840226965436"><ele>303.0</ele><time>2026-04-28T16:02:21.999Z</time></trkpt><trkpt lat="34.062857319036105" lon="-4.958483880999351"><ele>303.0</ele><time>2026-04-28T16:02:23.999Z</time></trkpt><trkpt lat="34.06285316899072" lon="-4.958632279850985"><ele>303.5</ele><time>2026-04-28T16:02:25.999Z</time></trkpt><trkpt lat="34.06284984851554" lon="-4.958711644911506"><ele>304.0</ele><time>2026-04-28T16:02:26.999Z</time></trkpt><trkpt lat="34.06285174516318" lon="-4.958837241869311"><ele>304.5</ele><time>2026-04-28T16:02:28.999Z</time></trkpt><trkpt lat="34.06285180080818" lon="-4.95894119076062"><ele>305.0</ele><time>2026-04-28T16:02:30.999Z</time></trkpt><trkpt lat="34.06285954228256" lon="-4.959039373712574"><ele>305.5</ele><time>2026-04-28T16:02:32.999Z</time></trkpt><trkpt lat="34.06287889749633" lon="-4.959132014334388"><ele>306.0</ele><time>2026-04-28T16:02:34.999Z</time></trkpt><trkpt lat="34.06290534832212" lon="-4.959224931398265"><ele>306.0</ele><time>2026-04-28T16:02:36.999Z</time></trkpt><trkpt lat="34.062939557452914" lon="-4.959314647193597"><ele>306.0</ele><time>2026-04-28T16:02:38.999Z</time></trkpt><trkpt lat="34.06298315262871" lon="-4.959418488487288"><ele>306.0</ele><time>2026-04-28T16:02:40.999Z</time></trkpt><trkpt lat="34.0630301597089" lon="-4.959502135456588"><ele>306.0</ele><time>2026-04-28T16:02:42.999Z</time></trkpt><trkpt lat="34.06307042847699" lon="-4.959578379568779"><ele>306.0</ele><time>2026-04-28T16:02:45.999Z</time></trkpt><trkpt lat="34.063084236873785" lon="-4.9596961760089355"><ele>306.0</ele><time>2026-04-28T16:03:35.999Z</time></trkpt><trkpt lat="34.06313909969035" lon="-4.959850775695886"><ele>306.0</ele><time>2026-04-28T16:03:37.999Z</time></trkpt><trkpt lat="34.06318706171583" lon="-4.9599643044149655"><ele>306.0</ele><time>2026-04-28T16:03:38.999Z</time></trkpt><trkpt lat="34.063242994279165" lon="-4.960085793911469"><ele>306.0</ele><time>2026-04-28T16:03:39.999Z</time></trkpt><trkpt lat="34.06329923043031" lon="-4.9602024268245835"><ele>306.0</ele><time>2026-04-28T16:03:40.999Z</time></trkpt><trkpt lat="34.063349125054735" lon="-4.960313870189151"><ele>306.0</ele><time>2026-04-28T16:03:41.999Z</time></trkpt><trkpt lat="34.063397757271055" lon="-4.960418546048021"><ele>305.6</ele><time>2026-04-28T16:03:42.999Z</time></trkpt><trkpt lat="34.06344860358297" lon="-4.960516505871127"><ele>305.20000000000005</ele><time>2026-04-28T16:03:43.999Z</time></trkpt><trkpt lat="34.06349498670311" lon="-4.960610819709536"><ele>304.79999999999995</ele><time>2026-04-28T16:03:44.999Z</time></trkpt><trkpt lat="34.06354709643086" lon="-4.96071334019868"><ele>304.4</ele><time>2026-04-28T16:03:45.999Z</time></trkpt><trkpt lat="34.0636001806187" lon="-4.960826291558793"><ele>304.0</ele><time>2026-04-28T16:03:46.999Z</time></trkpt><trkpt lat="34.063647340719136" lon="-4.960942046272838"><ele>304.0</ele><time>2026-04-28T16:03:47.999Z</time></trkpt><trkpt lat="34.063699492294305" lon="-4.9610573748628255"><ele>304.0</ele><time>2026-04-28T16:03:48.999Z</time></trkpt><trkpt lat="34.063755807635985" lon="-4.961173309864649"><ele>304.0</ele><time>2026-04-28T16:03:49.999Z</time></trkpt><trkpt lat="34.06380565415053" lon="-4.961287802301796"><ele>304.0</ele><time>2026-04-28T16:03:51Z</time></trkpt><trkpt lat="34.063855559926154" lon="-4.96139076781998"><ele>304.0</ele><time>2026-04-28T16:03:52Z</time></trkpt><trkpt lat="34.06390824836764" lon="-4.961479062049594"><ele>304.0</ele><time>2026-04-28T16:03:53Z</time></trkpt><trkpt lat="34.063957737183124" lon="-4.96156964779021"><ele>304.0</ele><time>2026-04-28T16:03:54Z</time></trkpt><trkpt lat="34.06400643122717" lon="-4.961658365799019"><ele>304.0</ele><time>2026-04-28T16:03:55Z</time></trkpt><trkpt lat="34.06405531822594" lon="-4.9617345722648984"><ele>304.0</ele><time>2026-04-28T16:03:56Z</time></trkpt><trkpt lat="34.06409733336737" lon="-4.961808564176682"><ele>304.0</ele><time>2026-04-28T16:03:57Z</time></trkpt><trkpt lat="34.06414151242042" lon="-4.961865321433814"><ele>304.0</ele><time>2026-04-28T16:03:58Z</time></trkpt><trkpt lat="34.06422206166424" lon="-4.96194318759812"><ele>303.8333333333333</ele><time>2026-04-28T16:04:00Z</time></trkpt><trkpt lat="34.06427698093012" lon="-4.961984170367248"><ele>303.66666666666663</ele><time>2026-04-28T16:04:01Z</time></trkpt><trkpt lat="34.064328021125796" lon="-4.9620339415300325"><ele>303.5</ele><time>2026-04-28T16:04:02Z</time></trkpt><trkpt lat="34.0643718470794" lon="-4.962112019208082"><ele>303.3333333333333</ele><time>2026-04-28T16:04:04Z</time></trkpt><trkpt lat="34.064409579292445" lon="-4.962254639723033"><ele>303.1666666666667</ele><time>2026-04-28T16:04:05Z</time></trkpt><trkpt lat="34.06438851289413" lon="-4.962372037033178"><ele>303.0</ele><time>2026-04-28T16:04:07Z</time></trkpt><trkpt lat="34.064302670358835" lon="-4.962414390626052"><ele>303.4</ele><time>2026-04-28T16:04:08Z</time></trkpt><trkpt lat="34.06433465948559" lon="-4.962544145493819"><ele>303.8</ele><time>2026-04-28T16:04:10Z</time></trkpt><trkpt lat="34.06436808576569" lon="-4.962679329160111"><ele>304.2</ele><time>2026-04-28T16:04:12Z</time></trkpt><trkpt lat="34.06440841115726" lon="-4.9628148410655735"><ele>304.6</ele><time>2026-04-28T16:04:14Z</time></trkpt><trkpt lat="34.064445629921" lon="-4.962926833117163"><ele>305.0</ele><time>2026-04-28T16:04:16Z</time></trkpt><trkpt lat="34.06445242756855" lon="-4.96300851859487"><ele>305.0</ele><time>2026-04-28T16:04:19Z</time></trkpt><trkpt lat="34.064387498576515" lon="-4.9632603565135796"><ele>305.0</ele><time>2026-04-28T16:04:23Z</time></trkpt><trkpt lat="34.06409103307416" lon="-4.962956931195979"><ele>306.0</ele><time>2026-04-28T16:04:24Z</time></trkpt><trkpt lat="34.0640935190429" lon="-4.962798935520149"><ele>307.0</ele><time>2026-04-28T16:04:25Z</time></trkpt><trkpt lat="34.06407165892073" lon="-4.962718543314846"><ele>308.0</ele><time>2026-04-28T16:04:26Z</time></trkpt><trkpt lat="34.06404970282621" lon="-4.9626378046449275"><ele>309.0</ele><time>2026-04-28T16:04:27Z</time></trkpt><trkpt lat="34.064010665387556" lon="-4.9625336719743665"><ele>310.0</ele><time>2026-04-28T16:04:29Z</time></trkpt><trkpt lat="34.06397850193135" lon="-4.962440076688542"><ele>310.0</ele><time>2026-04-28T16:04:31Z</time></trkpt><trkpt lat="34.06394430050361" lon="-4.9623405535936795"><ele>310.0</ele><time>2026-04-28T16:04:33Z</time></trkpt><trkpt lat="34.06390341004934" lon="-4.962221655830346"><ele>310.0</ele><time>2026-04-28T16:04:35Z</time></trkpt><trkpt lat="34.06428880027579" lon="-4.962006975805252"><ele>308.6</ele><time>2026-04-28T16:04:38Z</time></trkpt><trkpt lat="34.064361434501855" lon="-4.9620458791391835"><ele>307.2</ele><time>2026-04-28T16:04:39Z</time></trkpt><trkpt lat="34.06443792114119" lon="-4.96209972741083"><ele>305.8</ele><time>2026-04-28T16:04:40Z</time></trkpt><trkpt lat="34.06452864436133" lon="-4.962141251526678"><ele>304.4</ele><time>2026-04-28T16:04:41Z</time></trkpt><trkpt lat="34.064624185833445" lon="-4.962173699965729"><ele>303.0</ele><time>2026-04-28T16:04:42Z</time></trkpt><trkpt lat="34.06471042089037" lon="-4.962199145797212"><ele>303.0</ele><time>2026-04-28T16:04:43Z</time></trkpt><trkpt lat="34.06478894145139" lon="-4.962216417750804"><ele>303.0</ele><time>2026-04-28T16:04:44Z</time></trkpt><trkpt lat="34.0648682992096" lon="-4.962225532373157"><ele>303.0</ele><time>2026-04-28T16:04:45Z</time></trkpt><trkpt lat="34.06495226053857" lon="-4.962223351526781"><ele>303.0</ele><time>2026-04-28T16:04:46Z</time></trkpt><trkpt lat="34.06503953439756" lon="-4.9622115134916225"><ele>303.0</ele><time>2026-04-28T16:04:47Z</time></trkpt><trkpt lat="34.06512736800202" lon="-4.962195347048992"><ele>303.0</ele><time>2026-04-28T16:04:48Z</time></trkpt><trkpt lat="34.06521574929059" lon="-4.96217919535375"><ele>301.6</ele><time>2026-04-28T16:04:49Z</time></trkpt><trkpt lat="34.06531433112839" lon="-4.9621632853463495"><ele>300.20000000000005</ele><time>2026-04-28T16:04:50Z</time></trkpt><trkpt lat="34.0654196538704" lon="-4.962141094100934"><ele>298.8</ele><time>2026-04-28T16:04:51Z</time></trkpt><trkpt lat="34.065531054832164" lon="-4.962109554050693"><ele>297.40000000000003</ele><time>2026-04-28T16:04:52Z</time></trkpt><trkpt lat="34.065643739347955" lon="-4.962075519390009"><ele>296.0</ele><time>2026-04-28T16:04:53Z</time></trkpt><trkpt lat="34.065754498646754" lon="-4.962036053046138"><ele>296.8</ele><time>2026-04-28T16:04:54Z</time></trkpt><trkpt lat="34.065864755085244" lon="-4.961997558895405"><ele>297.6</ele><time>2026-04-28T16:04:55Z</time></trkpt><trkpt lat="34.0659733866619" lon="-4.961961682988329"><ele>298.4</ele><time>2026-04-28T16:04:56Z</time></trkpt><trkpt lat="34.066078097959526" lon="-4.961925893318915"><ele>299.2</ele><time>2026-04-28T16:04:57Z</time></trkpt><trkpt lat="34.06618137914576" lon="-4.961893665499167"><ele>300.0</ele><time>2026-04-28T16:04:58Z</time></trkpt><trkpt lat="34.06628011319591" lon="-4.961838119875437"><ele>300.0</ele><time>2026-04-28T16:04:59Z</time></trkpt><trkpt lat="34.066378503712365" lon="-4.96180347620879"><ele>300.0</ele><time>2026-04-28T16:05:00Z</time></trkpt><trkpt lat="34.06647282339387" lon="-4.96177026589611"><ele>300.0</ele><time>2026-04-28T16:05:01Z</time></trkpt><trkpt lat="34.066561698616894" lon="-4.961738972599224"><ele>300.0</ele><time>2026-04-28T16:05:02Z</time></trkpt><trkpt lat="34.06664767210903" lon="-4.9617295745818835"><ele>300.0</ele><time>2026-04-28T16:05:03Z</time></trkpt><trkpt lat="34.06670918599696" lon="-4.961707481988463"><ele>300.0</ele><time>2026-04-28T16:05:04Z</time></trkpt><trkpt lat="34.066798299782526" lon="-4.961650264534352"><ele>299.6</ele><time>2026-04-28T16:05:08Z</time></trkpt><trkpt lat="34.06690016440525" lon="-4.961602605091276"><ele>299.2</ele><time>2026-04-28T16:05:10Z</time></trkpt><trkpt lat="34.0669912104071" lon="-4.961660152656235"><ele>298.8</ele><time>2026-04-28T16:05:12Z</time></trkpt><trkpt lat="34.06701974211498" lon="-4.961809096605295"><ele>298.4</ele><time>2026-04-28T16:05:14Z</time></trkpt><trkpt lat="34.06702298712664" lon="-4.961907978181221"><ele>298.0</ele><time>2026-04-28T16:05:15Z</time></trkpt><trkpt lat="34.067039902731715" lon="-4.962017314460047"><ele>298.0</ele><time>2026-04-28T16:05:16Z</time></trkpt><trkpt lat="34.067071944310825" lon="-4.962134764615405"><ele>298.0</ele><time>2026-04-28T16:05:17Z</time></trkpt><trkpt lat="34.06709629644516" lon="-4.962259033238234"><ele>298.0</ele><time>2026-04-28T16:05:18Z</time></trkpt><trkpt lat="34.067129637952604" lon="-4.962395877427849"><ele>298.0</ele><time>2026-04-28T16:05:19Z</time></trkpt><trkpt lat="34.067164447885844" lon="-4.962547809452596"><ele>300.2</ele><time>2026-04-28T16:05:20Z</time></trkpt><trkpt lat="34.067198345754385" lon="-4.962694128379879"><ele>302.4</ele><time>2026-04-28T16:05:21Z</time></trkpt><trkpt lat="34.06722863489385" lon="-4.96281843295104"><ele>304.59999999999997</ele><time>2026-04-28T16:05:22Z</time></trkpt><trkpt lat="34.06725633672494" lon="-4.962929001169472"><ele>306.8</ele><time>2026-04-28T16:05:23Z</time></trkpt><trkpt lat="34.0672807190405" lon="-4.9630350226841475"><ele>309.0</ele><time>2026-04-28T16:05:24Z</time></trkpt><trkpt lat="34.0673035371662" lon="-4.963144866215894"><ele>309.0</ele><time>2026-04-28T16:05:25Z</time></trkpt><trkpt lat="34.06731961979064" lon="-4.963259122111193"><ele>309.0</ele><time>2026-04-28T16:05:26Z</time></trkpt><trkpt lat="34.06733804868637" lon="-4.963369922719225"><ele>309.0</ele><time>2026-04-28T16:05:27Z</time></trkpt><trkpt lat="34.0673580178872" lon="-4.963480262401066"><ele>309.0</ele><time>2026-04-28T16:05:28Z</time></trkpt><trkpt lat="34.06735488068304" lon="-4.963588573319728"><ele>309.0</ele><time>2026-04-28T16:05:29Z</time></trkpt><trkpt lat="34.06732973228943" lon="-4.9636883787996355"><ele>308.5</ele><time>2026-04-28T16:05:30Z</time></trkpt><trkpt lat="34.067297351806104" lon="-4.963775663230754"><ele>308.0</ele><time>2026-04-28T16:05:31Z</time></trkpt><trkpt lat="34.06726954050581" lon="-4.963858208770868"><ele>307.5</ele><time>2026-04-28T16:05:32Z</time></trkpt><trkpt lat="34.06723539392179" lon="-4.96394003196193"><ele>307.0</ele><time>2026-04-28T16:05:33Z</time></trkpt><trkpt lat="34.067197216470554" lon="-4.964026162108834"><ele>306.5</ele><time>2026-04-28T16:05:34Z</time></trkpt><trkpt lat="34.06714286761768" lon="-4.964106548226863"><ele>306.0</ele><time>2026-04-28T16:05:35Z</time></trkpt><trkpt lat="34.06707849983827" lon="-4.96418461469185"><ele>304.5</ele><time>2026-04-28T16:05:36Z</time></trkpt><trkpt lat="34.06701089607467" lon="-4.964255471145946"><ele>303.0</ele><time>2026-04-28T16:05:37Z</time></trkpt><trkpt lat="34.066950451991545" lon="-4.964323064059375"><ele>301.5</ele><time>2026-04-28T16:05:38Z</time></trkpt><trkpt lat="34.066896526522825" lon="-4.964393285750963"><ele>300.0</ele><time>2026-04-28T16:05:39Z</time></trkpt><trkpt lat="34.06684914907341" lon="-4.964463754479669"><ele>298.5</ele><time>2026-04-28T16:05:40Z</time></trkpt><trkpt lat="34.06681231404011" lon="-4.964544806039659"><ele>297.0</ele><time>2026-04-28T16:05:41Z</time></trkpt><trkpt lat="34.06679175483927" lon="-4.964645879992779"><ele>297.0</ele><time>2026-04-28T16:05:42Z</time></trkpt><trkpt lat="34.066781792059594" lon="-4.964746554988768"><ele>297.0</ele><time>2026-04-28T16:05:43Z</time></trkpt><trkpt lat="34.06677722416728" lon="-4.964841794647314"><ele>297.0</ele><time>2026-04-28T16:05:44Z</time></trkpt><trkpt lat="34.06677647138197" lon="-4.964931433600279"><ele>297.0</ele><time>2026-04-28T16:05:45Z</time></trkpt><trkpt lat="34.06677594669263" lon="-4.965018143174234"><ele>297.0</ele><time>2026-04-28T16:05:46Z</time></trkpt><trkpt lat="34.06677881118654" lon="-4.965154709012555"><ele>297.0</ele><time>2026-04-28T16:05:48Z</time></trkpt><trkpt lat="34.06681142603408" lon="-4.965272028993167"><ele>296.8</ele><time>2026-04-28T16:05:50Z</time></trkpt><trkpt lat="34.06684485571812" lon="-4.965339546291786"><ele>296.6</ele><time>2026-04-28T16:05:51Z</time></trkpt><trkpt lat="34.06688145046158" lon="-4.965403863244913"><ele>296.40000000000003</ele><time>2026-04-28T16:05:52Z</time></trkpt><trkpt lat="34.06695656222259" lon="-4.965511251155928"><ele>296.2</ele><time>2026-04-28T16:05:54Z</time></trkpt><trkpt lat="34.06704693052755" lon="-4.965599848946321"><ele>296.0</ele><time>2026-04-28T16:05:56Z</time></trkpt><trkpt lat="34.06714260450839" lon="-4.965674409034002"><ele>296.0</ele><time>2026-04-28T16:05:58Z</time></trkpt><trkpt lat="34.06720440645349" lon="-4.9657040381864554"><ele>296.0</ele><time>2026-04-28T16:05:59Z</time></trkpt><trkpt lat="34.067276633849524" lon="-4.965728292787167"><ele>296.0</ele><time>2026-04-28T16:06:00Z</time></trkpt><trkpt lat="34.067354177580654" lon="-4.96574552044734"><ele>296.0</ele><time>2026-04-28T16:06:01Z</time></trkpt><trkpt lat="34.06743698736002" lon="-4.9657459992450175"><ele>296.0</ele><time>2026-04-28T16:06:02Z</time></trkpt><trkpt lat="34.06752746542445" lon="-4.965735498370501"><ele>296.0</ele><time>2026-04-28T16:06:03Z</time></trkpt><trkpt lat="34.06762202835905" lon="-4.965720207278683"><ele>295.8</ele><time>2026-04-28T16:06:04Z</time></trkpt><trkpt lat="34.067720219229344" lon="-4.965705819853458"><ele>295.6</ele><time>2026-04-28T16:06:05Z</time></trkpt><trkpt lat="34.06782007035435" lon="-4.965684526655092"><ele>295.4</ele><time>2026-04-28T16:06:06Z</time></trkpt><trkpt lat="34.06792492070287" lon="-4.965665579857941"><ele>295.2</ele><time>2026-04-28T16:06:07Z</time></trkpt><trkpt lat="34.068031829583305" lon="-4.965648717250889"><ele>295.0</ele><time>2026-04-28T16:06:08Z</time></trkpt><trkpt lat="34.06813676704492" lon="-4.965632606665415"><ele>295.0</ele><time>2026-04-28T16:06:09Z</time></trkpt><trkpt lat="34.06823713027642" lon="-4.965615695522662"><ele>295.0</ele><time>2026-04-28T16:06:10Z</time></trkpt><trkpt lat="34.06833646983177" lon="-4.965596795954564"><ele>295.0</ele><time>2026-04-28T16:06:11Z</time></trkpt><trkpt lat="34.068436948089285" lon="-4.965574694982406"><ele>295.0</ele><time>2026-04-28T16:06:12Z</time></trkpt><trkpt lat="34.06853694699123" lon="-4.965554055280594"><ele>295.0</ele><time>2026-04-28T16:06:13Z</time></trkpt><trkpt lat="34.06863567731735" lon="-4.965531183992545"><ele>295.8</ele><time>2026-04-28T16:06:14Z</time></trkpt><trkpt lat="34.06873169998112" lon="-4.9655073901920534"><ele>296.6</ele><time>2026-04-28T16:06:15Z</time></trkpt><trkpt lat="34.06882442382121" lon="-4.965483700898932"><ele>297.4</ele><time>2026-04-28T16:06:16Z</time></trkpt><trkpt lat="34.06891596879018" lon="-4.9654596160028435"><ele>298.2</ele><time>2026-04-28T16:06:17Z</time></trkpt><trkpt lat="34.06900060753198" lon="-4.9654416111669155"><ele>299.0</ele><time>2026-04-28T16:06:18Z</time></trkpt><trkpt lat="34.06908371248296" lon="-4.9654137725157295"><ele>299.0</ele><time>2026-04-28T16:06:19Z</time></trkpt><trkpt lat="34.0691733286257" lon="-4.965393733307552"><ele>299.0</ele><time>2026-04-28T16:06:20Z</time></trkpt><trkpt lat="34.06926561621731" lon="-4.965387582348917"><ele>299.0</ele><time>2026-04-28T16:06:21Z</time></trkpt><trkpt lat="34.06936205665243" lon="-4.965387104414451"><ele>299.0</ele><time>2026-04-28T16:06:22Z</time></trkpt><trkpt lat="34.06945953178463" lon="-4.965397884250988"><ele>299.0</ele><time>2026-04-28T16:06:23Z</time></trkpt><trkpt lat="34.06955780769949" lon="-4.9654301187254735"><ele>299.0</ele><time>2026-04-28T16:06:24Z</time></trkpt><trkpt lat="34.06964667527525" lon="-4.965481146752173"><ele>299.0</ele><time>2026-04-28T16:06:25Z</time></trkpt><trkpt lat="34.0697306018903" lon="-4.965540866467327"><ele>299.0</ele><time>2026-04-28T16:06:26Z</time></trkpt><trkpt lat="34.0698071202745" lon="-4.965610858222262"><ele>299.0</ele><time>2026-04-28T16:06:27Z</time></trkpt><trkpt lat="34.06987639492338" lon="-4.965679810999435"><ele>299.0</ele><time>2026-04-28T16:06:28Z</time></trkpt><trkpt lat="34.06992744998805" lon="-4.965774603223999"><ele>299.0</ele><time>2026-04-28T16:06:29Z</time></trkpt><trkpt lat="34.06997299611335" lon="-4.965866807641818"><ele>299.0</ele><time>2026-04-28T16:06:30Z</time></trkpt><trkpt lat="34.070020569980365" lon="-4.965965422891734"><ele>299.0</ele><time>2026-04-28T16:06:31Z</time></trkpt><trkpt lat="34.0700734380598" lon="-4.966058900183341"><ele>299.0</ele><time>2026-04-28T16:06:32Z</time></trkpt><trkpt lat="34.07011977167293" lon="-4.966169465719413"><ele>299.0</ele><time>2026-04-28T16:06:33Z</time></trkpt><trkpt lat="34.070173236204866" lon="-4.966280203603778"><ele>299.0</ele><time>2026-04-28T16:06:34Z</time></trkpt><trkpt lat="34.070231925983805" lon="-4.966386928271188"><ele>299.0</ele><time>2026-04-28T16:06:35Z</time></trkpt><trkpt lat="34.07028649598747" lon="-4.966494717275839"><ele>299.0</ele><time>2026-04-28T16:06:36Z</time></trkpt><trkpt lat="34.07034777866242" lon="-4.966613594658551"><ele>299.0</ele><time>2026-04-28T16:06:37Z</time></trkpt><trkpt lat="34.07041101973807" lon="-4.966735446794234"><ele>299.0</ele><time>2026-04-28T16:06:38Z</time></trkpt><trkpt lat="34.07047265967861" lon="-4.966853727522382"><ele>299.0</ele><time>2026-04-28T16:06:39Z</time></trkpt><trkpt lat="34.070529730466056" lon="-4.966972396450898"><ele>299.0</ele><time>2026-04-28T16:06:40Z</time></trkpt><trkpt lat="34.070587450769445" lon="-4.967076330774453"><ele>299.0</ele><time>2026-04-28T16:06:41Z</time></trkpt><trkpt lat="34.070637073987626" lon="-4.967176777349214"><ele>299.0</ele><time>2026-04-28T16:06:42Z</time></trkpt><trkpt lat="34.07068563986245" lon="-4.967275215815671"><ele>299.0</ele><time>2026-04-28T16:06:43Z</time></trkpt><trkpt lat="34.07072940285287" lon="-4.967361734113195"><ele>299.0</ele><time>2026-04-28T16:06:44Z</time></trkpt><trkpt lat="34.070766536211494" lon="-4.967447430621436"><ele>299.0</ele><time>2026-04-28T16:06:45Z</time></trkpt><trkpt lat="34.070814256031206" lon="-4.967547601619073"><ele>299.0</ele><time>2026-04-28T16:06:46Z</time></trkpt><trkpt lat="34.07087901458899" lon="-4.967642173902847"><ele>299.0</ele><time>2026-04-28T16:06:47Z</time></trkpt><trkpt lat="34.07094329081818" lon="-4.967746045262016"><ele>299.0</ele><time>2026-04-28T16:06:48Z</time></trkpt><trkpt lat="34.071007178560976" lon="-4.96786512779184"><ele>297.2</ele><time>2026-04-28T16:06:49Z</time></trkpt><trkpt lat="34.071066583858965" lon="-4.967978718187887"><ele>295.4</ele><time>2026-04-28T16:06:50Z</time></trkpt><trkpt lat="34.07112589548628" lon="-4.96808288115591"><ele>293.6</ele><time>2026-04-28T16:06:51Z</time></trkpt><trkpt lat="34.07118690558036" lon="-4.968184722795618"><ele>291.8</ele><time>2026-04-28T16:06:52Z</time></trkpt><trkpt lat="34.07123816654125" lon="-4.968281803748428"><ele>290.0</ele><time>2026-04-28T16:06:53Z</time></trkpt><trkpt lat="34.07128511223899" lon="-4.968375771631539"><ele>288.83333333333337</ele><time>2026-04-28T16:06:54Z</time></trkpt><trkpt lat="34.07132259963838" lon="-4.968469315118673"><ele>287.6666666666667</ele><time>2026-04-28T16:06:55Z</time></trkpt><trkpt lat="34.071344764235874" lon="-4.968565049862388"><ele>286.5</ele><time>2026-04-28T16:06:56Z</time></trkpt><trkpt lat="34.071347442133295" lon="-4.9686646272762625"><ele>285.3333333333333</ele><time>2026-04-28T16:06:57Z</time></trkpt><trkpt lat="34.0713400824679" lon="-4.96876297756566"><ele>284.16666666666663</ele><time>2026-04-28T16:06:58Z</time></trkpt><trkpt lat="34.07132000434609" lon="-4.968856087952829"><ele>283.0</ele><time>2026-04-28T16:06:59Z</time></trkpt><trkpt lat="34.07128162031298" lon="-4.968941522048243"><ele>283.0</ele><time>2026-04-28T16:07:00Z</time></trkpt><trkpt lat="34.07123013205265" lon="-4.969018531570833"><ele>283.0</ele><time>2026-04-28T16:07:01Z</time></trkpt><trkpt lat="34.0711695964531" lon="-4.969082956375479"><ele>283.0</ele><time>2026-04-28T16:07:02Z</time></trkpt><trkpt lat="34.07110427829067" lon="-4.96913529319078"><ele>283.0</ele><time>2026-04-28T16:07:03Z</time></trkpt><trkpt lat="34.07103366298313" lon="-4.969175241472582"><ele>283.0</ele><time>2026-04-28T16:07:04Z</time></trkpt><trkpt lat="34.070950958937566" lon="-4.969201450152589"><ele>283.0</ele><time>2026-04-28T16:07:05Z</time></trkpt><trkpt lat="34.07086202572619" lon="-4.969221788540373"><ele>279.0</ele><time>2026-04-28T16:07:06Z</time></trkpt><trkpt lat="34.070770754507215" lon="-4.969231318324393"><ele>275.0</ele><time>2026-04-28T16:07:07Z</time></trkpt><trkpt lat="34.0706763537389" lon="-4.96923498623212"><ele>271.0</ele><time>2026-04-28T16:07:08Z</time></trkpt><trkpt lat="34.070583202357966" lon="-4.969236043646506"><ele>267.0</ele><time>2026-04-28T16:07:09Z</time></trkpt><trkpt lat="34.070489017408406" lon="-4.9692385196285045"><ele>263.0</ele><time>2026-04-28T16:07:10Z</time></trkpt><trkpt lat="34.07039655708046" lon="-4.969241041114336"><ele>263.0</ele><time>2026-04-28T16:07:11Z</time></trkpt><trkpt lat="34.07030694894074" lon="-4.96924481896302"><ele>263.0</ele><time>2026-04-28T16:07:12Z</time></trkpt><trkpt lat="34.07021809407378" lon="-4.969250489770489"><ele>263.0</ele><time>2026-04-28T16:07:13Z</time></trkpt><trkpt lat="34.07013128062682" lon="-4.969256298521211"><ele>263.0</ele><time>2026-04-28T16:07:14Z</time></trkpt><trkpt lat="34.07004593933096" lon="-4.9692592859613915"><ele>263.0</ele><time>2026-04-28T16:07:15Z</time></trkpt><trkpt lat="34.06996244482108" lon="-4.969258842427134"><ele>263.0</ele><time>2026-04-28T16:07:16Z</time></trkpt><trkpt lat="34.069877789626716" lon="-4.96926181544597"><ele>263.5</ele><time>2026-04-28T16:07:17Z</time></trkpt><trkpt lat="34.069792078351085" lon="-4.969267147838639"><ele>264.0</ele><time>2026-04-28T16:07:18Z</time></trkpt><trkpt lat="34.069710033475715" lon="-4.9692718622325"><ele>264.5</ele><time>2026-04-28T16:07:19Z</time></trkpt><trkpt lat="34.06962657325675" lon="-4.969276282023198"><ele>265.0</ele><time>2026-04-28T16:07:20Z</time></trkpt><trkpt lat="34.069548909372614" lon="-4.969286216424071"><ele>265.5</ele><time>2026-04-28T16:07:21Z</time></trkpt><trkpt lat="34.06947907323124" lon="-4.9693066333835"><ele>266.0</ele><time>2026-04-28T16:07:22Z</time></trkpt><trkpt lat="34.06941848673467" lon="-4.969348842191201"><ele>266.0</ele><time>2026-04-28T16:07:23Z</time></trkpt><trkpt lat="34.06935078566338" lon="-4.969399949198077"><ele>266.0</ele><time>2026-04-28T16:07:24Z</time></trkpt><trkpt lat="34.06928789914405" lon="-4.969476159121016"><ele>266.0</ele><time>2026-04-28T16:07:25Z</time></trkpt><trkpt lat="34.0692332038135" lon="-4.969567250445973"><ele>266.0</ele><time>2026-04-28T16:07:26Z</time></trkpt><trkpt lat="34.069191819896886" lon="-4.9696775030432425"><ele>266.0</ele><time>2026-04-28T16:07:27Z</time></trkpt><trkpt lat="34.0691656960756" lon="-4.969793681306134"><ele>266.0</ele><time>2026-04-28T16:07:28Z</time></trkpt><trkpt lat="34.06915854442637" lon="-4.96990586936148"><ele>266.0</ele><time>2026-04-28T16:07:29Z</time></trkpt><trkpt lat="34.069168890494595" lon="-4.970019875583078"><ele>266.0</ele><time>2026-04-28T16:07:30Z</time></trkpt><trkpt lat="34.06919745988557" lon="-4.970122246985389"><ele>266.0</ele><time>2026-04-28T16:07:31Z</time></trkpt><trkpt lat="34.06923971107469" lon="-4.970219028398349"><ele>266.0</ele><time>2026-04-28T16:07:32Z</time></trkpt><trkpt lat="34.069285057838876" lon="-4.97030702626756"><ele>267.0</ele><time>2026-04-28T16:07:33Z</time></trkpt><trkpt lat="34.06933228522373" lon="-4.970388168338936"><ele>268.0</ele><time>2026-04-28T16:07:34Z</time></trkpt><trkpt lat="34.069369171175595" lon="-4.970471866706137"><ele>269.0</ele><time>2026-04-28T16:07:35Z</time></trkpt><trkpt lat="34.06939839544416" lon="-4.970545242296964"><ele>270.0</ele><time>2026-04-28T16:07:36Z</time></trkpt><trkpt lat="34.069448866285285" lon="-4.970652818707655"><ele>271.0</ele><time>2026-04-28T16:07:38Z</time></trkpt><trkpt lat="34.069468924727076" lon="-4.970732288894105"><ele>272.0</ele><time>2026-04-28T16:07:40Z</time></trkpt><trkpt lat="34.06940867945799" lon="-4.970814678738182"><ele>272.0</ele><time>2026-04-28T16:07:43Z</time></trkpt><trkpt lat="34.069339938153746" lon="-4.970817863451272"><ele>272.0</ele><time>2026-04-28T16:07:45Z</time></trkpt><trkpt lat="34.069273085960155" lon="-4.970791366750156"><ele>272.0</ele><time>2026-04-28T16:07:47Z</time></trkpt><trkpt lat="34.06918748830411" lon="-4.970786513744102"><ele>272.0</ele><time>2026-04-28T16:07:50Z</time></trkpt><trkpt lat="34.069085103721186" lon="-4.970815159903165"><ele>272.0</ele><time>2026-04-28T16:07:52Z</time></trkpt><trkpt lat="34.069015521848264" lon="-4.97082137785874"><ele>272.0</ele><time>2026-04-28T16:07:53Z</time></trkpt><trkpt lat="34.06894880304361" lon="-4.970827339965996"><ele>272.33333333333337</ele><time>2026-04-28T16:07:54Z</time></trkpt><trkpt lat="34.06888464255393" lon="-4.970821946287809"><ele>272.6666666666667</ele><time>2026-04-28T16:07:55Z</time></trkpt><trkpt lat="34.06882338704875" lon="-4.970851965434193"><ele>273.0</ele><time>2026-04-28T16:07:56Z</time></trkpt><trkpt lat="34.06872019232751" lon="-4.970909412836499"><ele>273.3333333333333</ele><time>2026-04-28T16:07:58Z</time></trkpt><trkpt lat="34.06864442122396" lon="-4.970863418961684"><ele>273.66666666666663</ele><time>2026-04-28T16:07:59Z</time></trkpt><trkpt lat="34.06853960079703" lon="-4.970906068694665"><ele>274.0</ele><time>2026-04-28T16:08:01Z</time></trkpt><trkpt lat="34.068432573728444" lon="-4.970964365383693"><ele>274.4</ele><time>2026-04-28T16:08:03Z</time></trkpt><trkpt lat="34.06832372544345" lon="-4.971037721799846"><ele>274.79999999999995</ele><time>2026-04-28T16:08:05Z</time></trkpt><trkpt lat="34.06827016467722" lon="-4.971079443763473"><ele>275.20000000000005</ele><time>2026-04-28T16:08:06Z</time></trkpt><trkpt lat="34.06816930990323" lon="-4.971175651019946"><ele>275.6</ele><time>2026-04-28T16:08:08Z</time></trkpt><trkpt lat="34.06808775886633" lon="-4.971280322838306"><ele>276.0</ele><time>2026-04-28T16:08:10Z</time></trkpt><trkpt lat="34.068041438348416" lon="-4.971383679823236"><ele>277.6</ele><time>2026-04-28T16:08:12Z</time></trkpt><trkpt lat="34.06801979870947" lon="-4.971476126581731"><ele>279.20000000000005</ele><time>2026-04-28T16:08:14Z</time></trkpt><trkpt lat="34.068022284764226" lon="-4.971572632601041"><ele>280.79999999999995</ele><time>2026-04-28T16:08:16Z</time></trkpt><trkpt lat="34.0680116355957" lon="-4.971708607760013"><ele>282.4</ele><time>2026-04-28T16:08:18Z</time></trkpt><trkpt lat="34.06799107633278" lon="-4.971857858108737"><ele>284.0</ele><time>2026-04-28T16:08:20Z</time></trkpt><trkpt lat="34.06797663875074" lon="-4.971933333682017"><ele>284.1666666666667</ele><time>2026-04-28T16:08:21Z</time></trkpt><trkpt lat="34.06792388801229" lon="-4.97206633643092"><ele>284.33333333333337</ele><time>2026-04-28T16:08:23Z</time></trkpt><trkpt lat="34.06788984289965" lon="-4.972131977406942"><ele>284.5</ele><time>2026-04-28T16:08:24Z</time></trkpt><trkpt lat="34.06782158755365" lon="-4.972235586533982"><ele>284.6666666666667</ele><time>2026-04-28T16:08:26Z</time></trkpt><trkpt lat="34.06777697249522" lon="-4.972309807224123"><ele>284.8333333333333</ele><time>2026-04-28T16:08:28Z</time></trkpt><trkpt lat="34.067735803275234" lon="-4.972369861577338"><ele>285.0</ele><time>2026-04-28T16:10:38Z</time></trkpt><trkpt lat="34.06777440789809" lon="-4.972271064311131"><ele>285.0</ele><time>2026-04-28T16:10:44Z</time></trkpt><trkpt lat="34.06782949051344" lon="-4.972219172756346"><ele>285.0</ele><time>2026-04-28T16:10:46Z</time></trkpt><trkpt lat="34.06788479925413" lon="-4.972141073971895"><ele>285.0</ele><time>2026-04-28T16:10:48Z</time></trkpt><trkpt lat="34.0679136286519" lon="-4.972048982874275"><ele>285.0</ele><time>2026-04-28T16:10:50Z</time></trkpt><trkpt lat="34.06796505126399" lon="-4.971978105120315"><ele>285.0</ele><time>2026-04-28T16:10:52Z</time></trkpt><trkpt lat="34.067983671591186" lon="-4.971883094014974"><ele>285.0</ele><time>2026-04-28T16:10:55Z</time></trkpt><trkpt lat="34.067996775106295" lon="-4.9717801759311095"><ele>284.8333333333333</ele><time>2026-04-28T16:10:58Z</time></trkpt><trkpt lat="34.067991067814205" lon="-4.971674689562391"><ele>284.6666666666667</ele><time>2026-04-28T16:11:00Z</time></trkpt><trkpt lat="34.06799764768512" lon="-4.971574848359197"><ele>284.5</ele><time>2026-04-28T16:11:02Z</time></trkpt><trkpt lat="34.06799234638781" lon="-4.971495925032172"><ele>284.33333333333337</ele><time>2026-04-28T16:11:04Z</time></trkpt><trkpt lat="34.06803429204843" lon="-4.971417346284635"><ele>284.1666666666667</ele><time>2026-04-28T16:11:06Z</time></trkpt><trkpt lat="34.068076161045454" lon="-4.971304548058579"><ele>284.0</ele><time>2026-04-28T16:11:08Z</time></trkpt><trkpt lat="34.06810903443618" lon="-4.97113237085485"><ele>284.0</ele><time>2026-04-28T16:11:10Z</time></trkpt><trkpt lat="34.0681589817121" lon="-4.971010276325261"><ele>284.0</ele><time>2026-04-28T16:11:12Z</time></trkpt><trkpt lat="34.06824514578617" lon="-4.970981171080958"><ele>284.0</ele><time>2026-04-28T16:11:13Z</time></trkpt><trkpt lat="34.068328160187136" lon="-4.97094322825747"><ele>284.0</ele><time>2026-04-28T16:11:14Z</time></trkpt><trkpt lat="34.06841725458458" lon="-4.97090235726708"><ele>284.0</ele><time>2026-04-28T16:11:15Z</time></trkpt><trkpt lat="34.06851157038575" lon="-4.970866200974165"><ele>282.33333333333337</ele><time>2026-04-28T16:11:16Z</time></trkpt><trkpt lat="34.06860257342955" lon="-4.970836308053479"><ele>280.6666666666667</ele><time>2026-04-28T16:11:17Z</time></trkpt><trkpt lat="34.068688778443104" lon="-4.970817927748273"><ele>279.0</ele><time>2026-04-28T16:11:18Z</time></trkpt><trkpt lat="34.068770545100676" lon="-4.970854808925111"><ele>277.3333333333333</ele><time>2026-04-28T16:11:19Z</time></trkpt><trkpt lat="34.068857896841706" lon="-4.9707838005105485"><ele>275.66666666666663</ele><time>2026-04-28T16:11:20Z</time></trkpt><trkpt lat="34.0689315300155" lon="-4.970770969239182"><ele>274.0</ele><time>2026-04-28T16:11:21Z</time></trkpt><trkpt lat="34.069007716131615" lon="-4.97076421758544"><ele>274.0</ele><time>2026-04-28T16:11:22Z</time></trkpt><trkpt lat="34.069090946320905" lon="-4.970757387776155"><ele>274.0</ele><time>2026-04-28T16:11:23Z</time></trkpt><trkpt lat="34.06916433130846" lon="-4.970753435067536"><ele>274.0</ele><time>2026-04-28T16:11:24Z</time></trkpt><trkpt lat="34.069272092924734" lon="-4.970756555833024"><ele>274.0</ele><time>2026-04-28T16:11:26Z</time></trkpt><trkpt lat="34.06934439381008" lon="-4.970748393332566"><ele>274.0</ele><time>2026-04-28T16:11:29Z</time></trkpt><trkpt lat="34.06944671302957" lon="-4.97073477305176"><ele>274.0</ele><time>2026-04-28T16:11:35Z</time></trkpt><trkpt lat="34.069556101989214" lon="-4.970851495069101"><ele>276.25</ele><time>2026-04-28T16:11:37Z</time></trkpt><trkpt lat="34.069613057700245" lon="-4.970961392998202"><ele>278.5</ele><time>2026-04-28T16:11:38Z</time></trkpt><trkpt lat="34.069674739075936" lon="-4.971063173199757"><ele>280.75</ele><time>2026-04-28T16:11:39Z</time></trkpt><trkpt lat="34.069746603030225" lon="-4.97118189851814"><ele>283.0</ele><time>2026-04-28T16:11:40Z</time></trkpt><trkpt lat="34.06981878134559" lon="-4.9713123320134205"><ele>283.0</ele><time>2026-04-28T16:11:41Z</time></trkpt><trkpt lat="34.069886000603866" lon="-4.971438813726124"><ele>283.0</ele><time>2026-04-28T16:11:42Z</time></trkpt><trkpt lat="34.069959165906134" lon="-4.971575502474928"><ele>283.0</ele><time>2026-04-28T16:11:43Z</time></trkpt><trkpt lat="34.070030883949705" lon="-4.97171217237064"><ele>283.0</ele><time>2026-04-28T16:11:44Z</time></trkpt><trkpt lat="34.07010752957842" lon="-4.971853570615798"><ele>285.5</ele><time>2026-04-28T16:11:45Z</time></trkpt><trkpt lat="34.07018997464969" lon="-4.971985812130778"><ele>288.0</ele><time>2026-04-28T16:11:46Z</time></trkpt><trkpt lat="34.07028002083873" lon="-4.972096019962682"><ele>290.5</ele><time>2026-04-28T16:11:47Z</time></trkpt><trkpt lat="34.0703801461979" lon="-4.972186510729239"><ele>293.0</ele><time>2026-04-28T16:11:48Z</time></trkpt><trkpt lat="34.07049651051841" lon="-4.97225300677065"><ele>293.0</ele><time>2026-04-28T16:11:49Z</time></trkpt><trkpt lat="34.070630497522686" lon="-4.972306839260765"><ele>293.0</ele><time>2026-04-28T16:11:50Z</time></trkpt><trkpt lat="34.07075700522549" lon="-4.972351099667065"><ele>293.0</ele><time>2026-04-28T16:11:51Z</time></trkpt><trkpt lat="34.0708727610984" lon="-4.972377852745979"><ele>293.0</ele><time>2026-04-28T16:11:52Z</time></trkpt><trkpt lat="34.070979836015375" lon="-4.972389625689151"><ele>293.6666666666667</ele><time>2026-04-28T16:11:53Z</time></trkpt><trkpt lat="34.071075913052866" lon="-4.972401084335795"><ele>294.33333333333337</ele><time>2026-04-28T16:11:54Z</time></trkpt><trkpt lat="34.07116760919475" lon="-4.9724118206767365"><ele>295.0</ele><time>2026-04-28T16:11:55Z</time></trkpt><trkpt lat="34.07124901198287" lon="-4.972427152713211"><ele>295.6666666666667</ele><time>2026-04-28T16:11:56Z</time></trkpt><trkpt lat="34.07132506649626" lon="-4.972448992289941"><ele>296.3333333333333</ele><time>2026-04-28T16:11:57Z</time></trkpt><trkpt lat="34.07139651455719" lon="-4.972487807437781"><ele>297.0</ele><time>2026-04-28T16:11:58Z</time></trkpt><trkpt lat="34.07145713155866" lon="-4.972541099924996"><ele>297.0</ele><time>2026-04-28T16:11:59Z</time></trkpt><trkpt lat="34.07149973152502" lon="-4.972612077240613"><ele>297.0</ele><time>2026-04-28T16:12:00Z</time></trkpt><trkpt lat="34.071524527175825" lon="-4.972696250228724"><ele>297.0</ele><time>2026-04-28T16:12:01Z</time></trkpt><trkpt lat="34.07153274382271" lon="-4.972795383974113"><ele>297.0</ele><time>2026-04-28T16:12:02Z</time></trkpt><trkpt lat="34.07152920848246" lon="-4.972908672471602"><ele>297.0</ele><time>2026-04-28T16:12:03Z</time></trkpt><trkpt lat="34.07152102828146" lon="-4.973040129741813"><ele>297.0</ele><time>2026-04-28T16:12:04Z</time></trkpt><trkpt lat="34.07150600957504" lon="-4.9731915586492415"><ele>297.0</ele><time>2026-04-28T16:12:05Z</time></trkpt><trkpt lat="34.07148462211619" lon="-4.973345106268209"><ele>297.0</ele><time>2026-04-28T16:12:06Z</time></trkpt><trkpt lat="34.07145108401698" lon="-4.973503981420442"><ele>297.0</ele><time>2026-04-28T16:12:07Z</time></trkpt><trkpt lat="34.07139826971182" lon="-4.973672115739191"><ele>297.0</ele><time>2026-04-28T16:12:08Z</time></trkpt><trkpt lat="34.07135107103748" lon="-4.973832213191015"><ele>298.0</ele><time>2026-04-28T16:12:09Z</time></trkpt><trkpt lat="34.07129024805248" lon="-4.973985107685865"><ele>299.0</ele><time>2026-04-28T16:12:10Z</time></trkpt><trkpt lat="34.071235448149615" lon="-4.97413989046201"><ele>300.0</ele><time>2026-04-28T16:12:11Z</time></trkpt><trkpt lat="34.07120139041596" lon="-4.974292257889859"><ele>301.0</ele><time>2026-04-28T16:12:12Z</time></trkpt><trkpt lat="34.07119221639642" lon="-4.974447603542388"><ele>303.2</ele><time>2026-04-28T16:12:13Z</time></trkpt><trkpt lat="34.07119989427514" lon="-4.974604064656295"><ele>305.40000000000003</ele><time>2026-04-28T16:12:14Z</time></trkpt><trkpt lat="34.071217263574574" lon="-4.974752727864529"><ele>307.6</ele><time>2026-04-28T16:12:15Z</time></trkpt><trkpt lat="34.07123034834647" lon="-4.974870440974571"><ele>309.8</ele><time>2026-04-28T16:12:16Z</time></trkpt><trkpt lat="34.071236224800415" lon="-4.974968615321591"><ele>312.0</ele><time>2026-04-28T16:12:17Z</time></trkpt><trkpt lat="34.071236176623515" lon="-4.9750555534230285"><ele>313.3333333333333</ele><time>2026-04-28T16:12:18Z</time></trkpt><trkpt lat="34.071228972462706" lon="-4.975152906856488"><ele>314.6666666666667</ele><time>2026-04-28T16:12:19Z</time></trkpt><trkpt lat="34.07120648939776" lon="-4.975255444007118"><ele>316.0</ele><time>2026-04-28T16:12:20Z</time></trkpt><trkpt lat="34.07115747006251" lon="-4.975344218774325"><ele>317.33333333333337</ele><time>2026-04-28T16:12:21Z</time></trkpt><trkpt lat="34.07109765390053" lon="-4.975404033460742"><ele>318.6666666666667</ele><time>2026-04-28T16:12:22Z</time></trkpt><trkpt lat="34.07102562328674" lon="-4.975436780647151"><ele>320.0</ele><time>2026-04-28T16:12:23Z</time></trkpt><trkpt lat="34.07094588370359" lon="-4.97543500827992"><ele>320.0</ele><time>2026-04-28T16:12:24Z</time></trkpt><trkpt lat="34.0708677328299" lon="-4.975393949485758"><ele>320.0</ele><time>2026-04-28T16:12:25Z</time></trkpt><trkpt lat="34.070809593328754" lon="-4.975324158450803"><ele>320.0</ele><time>2026-04-28T16:12:26Z</time></trkpt><trkpt lat="34.07077111130115" lon="-4.975243090600912"><ele>320.0</ele><time>2026-04-28T16:12:27Z</time></trkpt><trkpt lat="34.07073687499225" lon="-4.975158566380668"><ele>320.0</ele><time>2026-04-28T16:12:28Z</time></trkpt><trkpt lat="34.07070296582653" lon="-4.975077236076842"><ele>320.0</ele><time>2026-04-28T16:12:29Z</time></trkpt><trkpt lat="34.07066159611561" lon="-4.974997718625409"><ele>320.33333333333337</ele><time>2026-04-28T16:12:30Z</time></trkpt><trkpt lat="34.07061780666878" lon="-4.9749133592046375"><ele>320.6666666666667</ele><time>2026-04-28T16:12:31Z</time></trkpt><trkpt lat="34.070567461222645" lon="-4.974827272269774"><ele>321.0</ele><time>2026-04-28T16:12:32Z</time></trkpt><trkpt lat="34.070514780869715" lon="-4.974756692691686"><ele>321.3333333333333</ele><time>2026-04-28T16:12:33Z</time></trkpt><trkpt lat="34.070457236201555" lon="-4.9747107117367735"><ele>321.66666666666663</ele><time>2026-04-28T16:12:34Z</time></trkpt><trkpt lat="34.07034648354508" lon="-4.974725765523458"><ele>322.0</ele><time>2026-04-28T16:12:36Z</time></trkpt><trkpt lat="34.07024268366439" lon="-4.974781355260088"><ele>322.0</ele><time>2026-04-28T16:12:38Z</time></trkpt><trkpt lat="34.07018254955412" lon="-4.974805766929003"><ele>322.0</ele><time>2026-04-28T16:12:39Z</time></trkpt><trkpt lat="34.07011125677489" lon="-4.974932014759205"><ele>322.0</ele><time>2026-04-28T16:12:41Z</time></trkpt><trkpt lat="34.070089524785615" lon="-4.975018845058393"><ele>322.0</ele><time>2026-04-28T16:12:42Z</time></trkpt><trkpt lat="34.070081240436465" lon="-4.975112666918859"><ele>322.0</ele><time>2026-04-28T16:12:43Z</time></trkpt><trkpt lat="34.070097007543424" lon="-4.975198071884667"><ele>322.0</ele><time>2026-04-28T16:12:44Z</time></trkpt><trkpt lat="34.07013305160234" lon="-4.97527352330134"><ele>322.8333333333333</ele><time>2026-04-28T16:12:45Z</time></trkpt><trkpt lat="34.07017914993485" lon="-4.975342696919858"><ele>323.66666666666663</ele><time>2026-04-28T16:12:46Z</time></trkpt><trkpt lat="34.07022701638178" lon="-4.975409150896213"><ele>324.5</ele><time>2026-04-28T16:12:47Z</time></trkpt><trkpt lat="34.0702779108147" lon="-4.975478255509079"><ele>325.3333333333333</ele><time>2026-04-28T16:12:48Z</time></trkpt><trkpt lat="34.070331029366145" lon="-4.975557931924727"><ele>326.1666666666667</ele><time>2026-04-28T16:12:49Z</time></trkpt><trkpt lat="34.070389144886754" lon="-4.975645300572457"><ele>327.0</ele><time>2026-04-28T16:12:50Z</time></trkpt><trkpt lat="34.07045337007104" lon="-4.975736596055604"><ele>327.0</ele><time>2026-04-28T16:12:51Z</time></trkpt><trkpt lat="34.07051449596539" lon="-4.975836301207393"><ele>327.0</ele><time>2026-04-28T16:12:52Z</time></trkpt><trkpt lat="34.070571941753734" lon="-4.975935218437161"><ele>327.0</ele><time>2026-04-28T16:12:53Z</time></trkpt><trkpt lat="34.07062595409964" lon="-4.97602560637677"><ele>327.0</ele><time>2026-04-28T16:12:54Z</time></trkpt><trkpt lat="34.07067972017592" lon="-4.976110725349961"><ele>327.0</ele><time>2026-04-28T16:12:55Z</time></trkpt><trkpt lat="34.07072651311205" lon="-4.976202971489087"><ele>329.0</ele><time>2026-04-28T16:12:56Z</time></trkpt><trkpt lat="34.070758081676246" lon="-4.976307380979043"><ele>331.0</ele><time>2026-04-28T16:12:57Z</time></trkpt><trkpt lat="34.070771676129404" lon="-4.97642019761009"><ele>333.0</ele><time>2026-04-28T16:12:58Z</time></trkpt><trkpt lat="34.07076977136608" lon="-4.976532605856489"><ele>335.0</ele><time>2026-04-28T16:12:59Z</time></trkpt><trkpt lat="34.07075059529595" lon="-4.976641698734148"><ele>337.0</ele><time>2026-04-28T16:13:00Z</time></trkpt><trkpt lat="34.07071284980431" lon="-4.9767407973718"><ele>339.6</ele><time>2026-04-28T16:13:01Z</time></trkpt><trkpt lat="34.07065999431193" lon="-4.976829104571956"><ele>342.20000000000005</ele><time>2026-04-28T16:13:02Z</time></trkpt><trkpt lat="34.07058942807883" lon="-4.97689968520466"><ele>344.8</ele><time>2026-04-28T16:13:03Z</time></trkpt><trkpt lat="34.070508681925816" lon="-4.97695463900276"><ele>347.4</ele><time>2026-04-28T16:13:04Z</time></trkpt><trkpt lat="34.07041939229492" lon="-4.976990818322149"><ele>350.0</ele><time>2026-04-28T16:13:05Z</time></trkpt><trkpt lat="34.07031909861697" lon="-4.977007078541561"><ele>350.0</ele><time>2026-04-28T16:13:06Z</time></trkpt><trkpt lat="34.07020683515198" lon="-4.976989577469949"><ele>350.0</ele><time>2026-04-28T16:13:07Z</time></trkpt><trkpt lat="34.07008724841373" lon="-4.9769458178092485"><ele>350.0</ele><time>2026-04-28T16:13:08Z</time></trkpt><trkpt lat="34.06995877701022" lon="-4.976902280845809"><ele>350.0</ele><time>2026-04-28T16:13:09Z</time></trkpt><trkpt lat="34.06982277398026" lon="-4.976882318872221"><ele>351.25</ele><time>2026-04-28T16:13:10Z</time></trkpt><trkpt lat="34.06969198701972" lon="-4.976890740921287"><ele>352.5</ele><time>2026-04-28T16:13:11Z</time></trkpt><trkpt lat="34.06957802585607" lon="-4.976922850651065"><ele>353.75</ele><time>2026-04-28T16:13:12Z</time></trkpt><trkpt lat="34.06948206377561" lon="-4.976978855807315"><ele>355.0</ele><time>2026-04-28T16:13:13Z</time></trkpt><trkpt lat="34.069400782934125" lon="-4.977056256582223"><ele>355.0</ele><time>2026-04-28T16:13:14Z</time></trkpt><trkpt lat="34.0693376050463" lon="-4.9771619929084325"><ele>355.0</ele><time>2026-04-28T16:13:15Z</time></trkpt><trkpt lat="34.06928576878207" lon="-4.977283992240195"><ele>355.0</ele><time>2026-04-28T16:13:16Z</time></trkpt><trkpt lat="34.06924681482137" lon="-4.9774221449482345"><ele>355.0</ele><time>2026-04-28T16:13:17Z</time></trkpt><trkpt lat="34.06921724789994" lon="-4.977572322020987"><ele>356.5</ele><time>2026-04-28T16:13:18Z</time></trkpt><trkpt lat="34.06918845664672" lon="-4.977721908597891"><ele>358.0</ele><time>2026-04-28T16:13:19Z</time></trkpt><trkpt lat="34.069149945239424" lon="-4.977867735298547"><ele>359.5</ele><time>2026-04-28T16:13:20Z</time></trkpt><trkpt lat="34.069091269042616" lon="-4.978023707283552"><ele>361.0</ele><time>2026-04-28T16:13:21Z</time></trkpt><trkpt lat="34.06901934804027" lon="-4.978181838364215"><ele>359.0</ele><time>2026-04-28T16:13:22Z</time></trkpt><trkpt lat="34.06893948772139" lon="-4.978331614018751"><ele>357.0</ele><time>2026-04-28T16:13:23Z</time></trkpt><trkpt lat="34.06886284919841" lon="-4.978473121599103"><ele>355.0</ele><time>2026-04-28T16:13:24Z</time></trkpt><trkpt lat="34.068797218086864" lon="-4.978613699565337"><ele>353.0</ele><time>2026-04-28T16:13:25Z</time></trkpt><trkpt lat="34.06874535338479" lon="-4.978762434464736"><ele>353.0</ele><time>2026-04-28T16:13:26Z</time></trkpt><trkpt lat="34.06870665135275" lon="-4.978917230842827"><ele>353.0</ele><time>2026-04-28T16:13:27Z</time></trkpt><trkpt lat="34.06867541471229" lon="-4.979072771209363"><ele>353.0</ele><time>2026-04-28T16:13:28Z</time></trkpt><trkpt lat="34.068657106875484" lon="-4.9792298101693655"><ele>353.0</ele><time>2026-04-28T16:13:29Z</time></trkpt><trkpt lat="34.06865019130428" lon="-4.979391752303271"><ele>353.0</ele><time>2026-04-28T16:13:30Z</time></trkpt><trkpt lat="34.068650522401875" lon="-4.979560537191241"><ele>353.0</ele><time>2026-04-28T16:13:31Z</time></trkpt><trkpt lat="34.06864963024458" lon="-4.979734661184333"><ele>353.0</ele><time>2026-04-28T16:13:32Z</time></trkpt><trkpt lat="34.06864120829186" lon="-4.9799055452036525"><ele>353.0</ele><time>2026-04-28T16:13:33Z</time></trkpt><trkpt lat="34.068627414179986" lon="-4.980073676110588"><ele>354.75</ele><time>2026-04-28T16:13:34Z</time></trkpt><trkpt lat="34.06860812733843" lon="-4.980233299576327"><ele>356.5</ele><time>2026-04-28T16:13:35Z</time></trkpt><trkpt lat="34.068581916199356" lon="-4.980381062008213"><ele>358.25</ele><time>2026-04-28T16:13:36Z</time></trkpt><trkpt lat="34.0685447256712" lon="-4.980518064774836"><ele>360.0</ele><time>2026-04-28T16:13:37Z</time></trkpt><trkpt lat="34.06849972191437" lon="-4.980650731057237"><ele>360.0</ele><time>2026-04-28T16:13:38Z</time></trkpt><trkpt lat="34.068453449149125" lon="-4.980782068472534"><ele>360.0</ele><time>2026-04-28T16:13:39Z</time></trkpt><trkpt lat="34.06839549157941" lon="-4.980911652082547"><ele>360.0</ele><time>2026-04-28T16:13:40Z</time></trkpt><trkpt lat="34.06832939495848" lon="-4.9810370073338825"><ele>360.0</ele><time>2026-04-28T16:13:41Z</time></trkpt><trkpt lat="34.068260301511664" lon="-4.9811610417432055"><ele>359.5</ele><time>2026-04-28T16:13:42Z</time></trkpt><trkpt lat="34.06818213198511" lon="-4.981284351045593"><ele>359.0</ele><time>2026-04-28T16:13:43Z</time></trkpt><trkpt lat="34.06809455941098" lon="-4.981402580165138"><ele>358.5</ele><time>2026-04-28T16:13:44Z</time></trkpt><trkpt lat="34.06799856354112" lon="-4.981512692959836"><ele>358.0</ele><time>2026-04-28T16:13:45Z</time></trkpt><trkpt lat="34.067896754523815" lon="-4.9816165009853135"><ele>357.0</ele><time>2026-04-28T16:13:46Z</time></trkpt><trkpt lat="34.06778848433451" lon="-4.981710683786691"><ele>356.0</ele><time>2026-04-28T16:13:47Z</time></trkpt><trkpt lat="34.06767874526859" lon="-4.981790043580386"><ele>355.0</ele><time>2026-04-28T16:13:48Z</time></trkpt><trkpt lat="34.06755820715073" lon="-4.98186061732106"><ele>354.0</ele><time>2026-04-28T16:13:49Z</time></trkpt><trkpt lat="34.06743342015924" lon="-4.981932615555087"><ele>354.0</ele><time>2026-04-28T16:13:50Z</time></trkpt><trkpt lat="34.06730866024402" lon="-4.982005031889725"><ele>354.0</ele><time>2026-04-28T16:13:51Z</time></trkpt><trkpt lat="34.06718641393405" lon="-4.982077071314597"><ele>354.0</ele><time>2026-04-28T16:13:52Z</time></trkpt><trkpt lat="34.06706376791526" lon="-4.982151686470219"><ele>354.0</ele><time>2026-04-28T16:13:53Z</time></trkpt><trkpt lat="34.066944893049" lon="-4.982232386686811"><ele>354.0</ele><time>2026-04-28T16:13:54Z</time></trkpt><trkpt lat="34.066827986315126" lon="-4.982310503788491"><ele>354.0</ele><time>2026-04-28T16:13:55Z</time></trkpt><trkpt lat="34.06671528355488" lon="-4.98238735608106"><ele>354.0</ele><time>2026-04-28T16:13:56Z</time></trkpt><trkpt lat="34.06660491373565" lon="-4.9824658611049815"><ele>354.0</ele><time>2026-04-28T16:13:57Z</time></trkpt><trkpt lat="34.066499143787404" lon="-4.98254917697277"><ele>352.25</ele><time>2026-04-28T16:13:58Z</time></trkpt><trkpt lat="34.066399205076586" lon="-4.982637075775592"><ele>350.5</ele><time>2026-04-28T16:13:59Z</time></trkpt><trkpt lat="34.066303337379814" lon="-4.982725029035842"><ele>348.75</ele><time>2026-04-28T16:14:00Z</time></trkpt><trkpt lat="34.06621546313435" lon="-4.982818722288533"><ele>347.0</ele><time>2026-04-28T16:14:01Z</time></trkpt><trkpt lat="34.06612872782792" lon="-4.982912167690123"><ele>347.0</ele><time>2026-04-28T16:14:02Z</time></trkpt><trkpt lat="34.06606030903365" lon="-4.982995579924167"><ele>347.0</ele><time>2026-04-28T16:14:03Z</time></trkpt><trkpt lat="34.066001854352415" lon="-4.983073239628294"><ele>347.0</ele><time>2026-04-28T16:14:04Z</time></trkpt><trkpt lat="34.06595041290101" lon="-4.98314109006012"><ele>347.0</ele><time>2026-04-28T16:14:05Z</time></trkpt><trkpt lat="34.06588509691573" lon="-4.983216603164217"><ele>347.0</ele><time>2026-04-28T16:14:07Z</time></trkpt><trkpt lat="34.06580188743353" lon="-4.983212176894978"><ele>347.0</ele><time>2026-04-28T16:14:18Z</time></trkpt><trkpt lat="34.0657584111576" lon="-4.983146207799686"><ele>347.6</ele><time>2026-04-28T16:14:19Z</time></trkpt><trkpt lat="34.06570565712696" lon="-4.983022545460423"><ele>348.20000000000005</ele><time>2026-04-28T16:14:21Z</time></trkpt><trkpt lat="34.065668424579904" lon="-4.982905069922067"><ele>348.8</ele><time>2026-04-28T16:14:23Z</time></trkpt><trkpt lat="34.065613376270065" lon="-4.982803073707661"><ele>349.4</ele><time>2026-04-28T16:14:25Z</time></trkpt><trkpt lat="34.065588556190136" lon="-4.98265666115786"><ele>350.0</ele><time>2026-04-28T16:14:27Z</time></trkpt><trkpt lat="34.06556473704554" lon="-4.982569176860007"><ele>350.83333333333337</ele><time>2026-04-28T16:14:28Z</time></trkpt><trkpt lat="34.06554324140157" lon="-4.982489830379194"><ele>351.6666666666667</ele><time>2026-04-28T16:14:29Z</time></trkpt><trkpt lat="34.065512343632506" lon="-4.982350624233199"><ele>352.5</ele><time>2026-04-28T16:14:31Z</time></trkpt><trkpt lat="34.06549394383796" lon="-4.982210031471809"><ele>353.3333333333333</ele><time>2026-04-28T16:14:33Z</time></trkpt><trkpt lat="34.065489918196505" lon="-4.982129353869159"><ele>354.16666666666663</ele><time>2026-04-28T16:14:34Z</time></trkpt><trkpt lat="34.065483792409154" lon="-4.982051369482093"><ele>355.0</ele><time>2026-04-28T16:14:35Z</time></trkpt><trkpt lat="34.065484111708614" lon="-4.98191872924098"><ele>355.0</ele><time>2026-04-28T16:14:37Z</time></trkpt><trkpt lat="34.06546220493536" lon="-4.981803899709748"><ele>355.0</ele><time>2026-04-28T16:14:39Z</time></trkpt><trkpt lat="34.06545989602339" lon="-4.981693113047136"><ele>355.0</ele><time>2026-04-28T16:14:41Z</time></trkpt><trkpt lat="34.06548640552214" lon="-4.981583762363138"><ele>355.0</ele><time>2026-04-28T16:15:02Z</time></trkpt><trkpt lat="34.06549794830433" lon="-4.98149427037271"><ele>355.0</ele><time>2026-04-28T16:15:05Z</time></trkpt><trkpt lat="34.06546360861926" lon="-4.981421538886381"><ele>355.0</ele><time>2026-04-28T16:15:09Z</time></trkpt><trkpt lat="34.0654318114715" lon="-4.981355274787439"><ele>354.42857142857144</ele><time>2026-04-28T16:15:16Z</time></trkpt><trkpt lat="34.065480704519885" lon="-4.981428458775769"><ele>353.8571428571429</ele><time>2026-04-28T16:16:08Z</time></trkpt><trkpt lat="34.065488839343764" lon="-4.981504004359395"><ele>353.28571428571433</ele><time>2026-04-28T16:16:10Z</time></trkpt><trkpt lat="34.065495060244054" lon="-4.981585029436635"><ele>352.7142857142857</ele><time>2026-04-28T16:16:12Z</time></trkpt><trkpt lat="34.065415017119754" lon="-4.981601075563458"><ele>352.14285714285717</ele><time>2026-04-28T16:16:15Z</time></trkpt><trkpt lat="34.065384976422635" lon="-4.9815232315854425"><ele>351.5714285714286</ele><time>2026-04-28T16:16:17Z</time></trkpt><trkpt lat="34.06535262527209" lon="-4.981444454828194"><ele>351.0</ele><time>2026-04-28T16:16:19Z</time></trkpt><trkpt lat="34.065305625319084" lon="-4.981386009902574"><ele>351.0</ele><time>2026-04-28T16:16:21Z</time></trkpt><trkpt lat="34.06523077897997" lon="-4.98132298323057"><ele>351.0</ele><time>2026-04-28T16:16:23Z</time></trkpt><trkpt lat="34.06513717175453" lon="-4.981279903659015"><ele>351.0</ele><time>2026-04-28T16:16:25Z</time></trkpt><trkpt lat="34.06503063878777" lon="-4.981267661030571"><ele>351.0</ele><time>2026-04-28T16:16:27Z</time></trkpt><trkpt lat="34.0649179955276" lon="-4.98128882481369"><ele>351.0</ele><time>2026-04-28T16:16:29Z</time></trkpt><trkpt lat="34.06481859225085" lon="-4.981333714864073"><ele>351.4</ele><time>2026-04-28T16:16:31Z</time></trkpt><trkpt lat="34.06472410208841" lon="-4.981393452969669"><ele>351.8</ele><time>2026-04-28T16:16:33Z</time></trkpt><trkpt lat="34.06463320466475" lon="-4.981459127831322"><ele>352.2</ele><time>2026-04-28T16:16:35Z</time></trkpt><trkpt lat="34.064556861495966" lon="-4.981527123838546"><ele>352.59999999999997</ele><time>2026-04-28T16:16:37Z</time></trkpt><trkpt lat="34.0645004081939" lon="-4.981594429090475"><ele>353.0</ele><time>2026-04-28T16:16:39Z</time></trkpt><trkpt lat="34.06445664497767" lon="-4.981649400144651"><ele>354.2857142857143</ele><time>2026-04-28T16:16:41Z</time></trkpt><trkpt lat="34.06438427588941" lon="-4.981697323659255"><ele>355.5714285714286</ele><time>2026-04-28T16:17:17Z</time></trkpt><trkpt lat="34.06434068375657" lon="-4.981761897609558"><ele>356.8571428571429</ele><time>2026-04-28T16:17:44Z</time></trkpt><trkpt lat="34.06427933663657" lon="-4.98181288754513"><ele>358.1428571428571</ele><time>2026-04-28T16:17:48Z</time></trkpt><trkpt lat="34.064228253908894" lon="-4.981861500544204"><ele>359.42857142857144</ele><time>2026-04-28T16:17:50Z</time></trkpt><trkpt lat="34.06418618200678" lon="-4.9819353775219986"><ele>360.7142857142857</ele><time>2026-04-28T16:17:53Z</time></trkpt><trkpt lat="34.06412372413274" lon="-4.981992369582258"><ele>362.0</ele><time>2026-04-28T16:17:54Z</time></trkpt><trkpt lat="34.06405372667764" lon="-4.981988347466018"><ele>362.0</ele><time>2026-04-28T16:17:56Z</time></trkpt><trkpt lat="34.064077857218045" lon="-4.981830750553539"><ele>362.0</ele><time>2026-04-28T16:17:57Z</time></trkpt><trkpt lat="34.06411087739472" lon="-4.981738367744229"><ele>362.0</ele><time>2026-04-28T16:18:00Z</time></trkpt><trkpt lat="34.06415588634576" lon="-4.981667760681317"><ele>362.0</ele><time>2026-04-28T16:18:05Z</time></trkpt><trkpt lat="34.06422030463508" lon="-4.981637113361975"><ele>362.0</ele><time>2026-04-28T16:24:51Z</time></trkpt><trkpt lat="34.06428596337436" lon="-4.9816628358528305"><ele>362.0</ele><time>2026-04-28T16:24:57Z</time></trkpt><trkpt lat="34.06434235974665" lon="-4.981710865648543"><ele>362.1428571428571</ele><time>2026-04-28T16:25:07Z</time></trkpt><trkpt lat="34.06437830126394" lon="-4.981780664216543"><ele>362.2857142857143</ele><time>2026-04-28T16:25:14Z</time></trkpt><trkpt lat="34.064427718388075" lon="-4.981838946281433"><ele>362.42857142857144</ele><time>2026-04-28T16:25:21Z</time></trkpt><trkpt lat="34.06445728565375" lon="-4.981907234561297"><ele>362.57142857142856</ele><time>2026-04-28T16:25:27Z</time></trkpt><trkpt lat="34.06449013313787" lon="-4.981973412551051"><ele>362.7142857142857</ele><time>2026-04-28T16:25:33Z</time></trkpt><trkpt lat="34.0645336321875" lon="-4.981904054797674"><ele>362.85714285714283</ele><time>2026-04-28T16:25:56Z</time></trkpt><trkpt lat="34.064597747396434" lon="-4.981829646322596"><ele>363.0</ele><time>2026-04-28T16:26:02Z</time></trkpt><trkpt lat="34.06466412608444" lon="-4.981834557258316"><ele>362.99999999999994</ele><time>2026-04-28T16:26:07Z</time></trkpt><trkpt lat="34.064716691183335" lon="-4.98178063833208"><ele>363.0</ele><time>2026-04-28T16:26:13Z</time></trkpt><trkpt lat="34.0647902843808" lon="-4.981759170779568"><ele>363.0</ele><time>2026-04-28T16:26:18Z</time></trkpt><trkpt lat="34.06485276848859" lon="-4.981782613151331"><ele>363.0</ele><time>2026-04-28T16:26:23Z</time></trkpt><trkpt lat="34.064915475653834" lon="-4.981756717669023"><ele>363.0</ele><time>2026-04-28T16:26:30Z</time></trkpt><trkpt lat="34.064966700669245" lon="-4.981692492604321"><ele>362.99999999999994</ele><time>2026-04-28T16:26:39Z</time></trkpt><trkpt lat="34.06499095158741" lon="-4.981622315464841"><ele>363.0</ele><time>2026-04-28T16:27:04Z</time></trkpt><trkpt lat="34.06509622012262" lon="-4.981606309430901"><ele>351.0</ele><time>2026-04-28T16:27:31Z</time></trkpt><trkpt lat="34.06502618785754" lon="-4.981577148870291"><ele>351.0</ele><time>2026-04-28T16:27:52Z</time></trkpt><trkpt lat="34.06506019141597" lon="-4.981496211868341"><ele>351.0</ele><time>2026-04-28T16:27:53Z</time></trkpt></trkseg></trk></gpx>